<?xml version="1.0" encoding="UTF-8" standalone="no" ?>
<gpx xmlns="http://www.topografix.com/GPX/1/1" xmlns:xsi="http://www.w3.org/2001/XMLSchema-instance" xsi:schemaLocation="http://www.topografix.com/GPX/1/1 http://www.topografix.com/GPX/1/1/gpx.xsd" version="1.1" creator="VisuGPX - https://www.visugpx.com">
  <metadata>
    <name>Rhone orientation 2016 circuit B</name>
    <desc><![CDATA[Rhone orientation, départ Lamure sur Azergue, circuit B, 16km et 900 D  annoncés]]></desc>
  </metadata>
  <trk>
    <name><![CDATA[Rhone orientation 2016 circuit B_1]]></name>
    <trkseg>
      <trkpt lat="46.06121" lon="4.49192">
        <ele>390</ele>
        <time>2016-11-27T09:04:22.000Z</time>
      </trkpt>
      <trkpt lat="46.06121" lon="4.49192">
        <ele>390</ele>
        <time>2016-11-27T09:04:23.000Z</time>
      </trkpt>
      <trkpt lat="46.06121" lon="4.49192">
        <ele>390</ele>
        <time>2016-11-27T09:04:24.000Z</time>
      </trkpt>
      <trkpt lat="46.06122" lon="4.49192">
        <ele>390</ele>
        <time>2016-11-27T09:04:25.000Z</time>
      </trkpt>
      <trkpt lat="46.06122" lon="4.49192">
        <ele>390</ele>
        <time>2016-11-27T09:04:26.000Z</time>
      </trkpt>
      <trkpt lat="46.06122" lon="4.49192">
        <ele>390</ele>
        <time>2016-11-27T09:04:27.000Z</time>
      </trkpt>
      <trkpt lat="46.06123" lon="4.49192">
        <ele>390</ele>
        <time>2016-11-27T09:04:28.000Z</time>
      </trkpt>
      <trkpt lat="46.06124" lon="4.49193">
        <ele>390</ele>
        <time>2016-11-27T09:04:29.000Z</time>
      </trkpt>
      <trkpt lat="46.06124" lon="4.49193">
        <ele>390</ele>
        <time>2016-11-27T09:04:30.000Z</time>
      </trkpt>
      <trkpt lat="46.06125" lon="4.49193">
        <ele>390</ele>
        <time>2016-11-27T09:04:31.000Z</time>
      </trkpt>
      <trkpt lat="46.06126" lon="4.49193">
        <ele>389</ele>
        <time>2016-11-27T09:04:32.000Z</time>
      </trkpt>
      <trkpt lat="46.06126" lon="4.49193">
        <ele>389</ele>
        <time>2016-11-27T09:04:33.000Z</time>
      </trkpt>
      <trkpt lat="46.06127" lon="4.49193">
        <ele>390</ele>
        <time>2016-11-27T09:04:34.000Z</time>
      </trkpt>
      <trkpt lat="46.06128" lon="4.49193">
        <ele>390</ele>
        <time>2016-11-27T09:04:35.000Z</time>
      </trkpt>
      <trkpt lat="46.06128" lon="4.49193">
        <ele>390</ele>
        <time>2016-11-27T09:04:36.000Z</time>
      </trkpt>
      <trkpt lat="46.06129" lon="4.49193">
        <ele>389</ele>
        <time>2016-11-27T09:04:37.000Z</time>
      </trkpt>
      <trkpt lat="46.0613" lon="4.49193">
        <ele>389</ele>
        <time>2016-11-27T09:04:38.000Z</time>
      </trkpt>
      <trkpt lat="46.0613" lon="4.49193">
        <ele>389</ele>
        <time>2016-11-27T09:04:39.000Z</time>
      </trkpt>
      <trkpt lat="46.06131" lon="4.49193">
        <ele>389</ele>
        <time>2016-11-27T09:04:40.000Z</time>
      </trkpt>
      <trkpt lat="46.06132" lon="4.49193">
        <ele>389</ele>
        <time>2016-11-27T09:04:41.000Z</time>
      </trkpt>
      <trkpt lat="46.06133" lon="4.49193">
        <ele>389</ele>
        <time>2016-11-27T09:04:42.000Z</time>
      </trkpt>
      <trkpt lat="46.06134" lon="4.49194">
        <ele>388</ele>
        <time>2016-11-27T09:04:43.000Z</time>
      </trkpt>
      <trkpt lat="46.06136" lon="4.49194">
        <ele>388</ele>
        <time>2016-11-27T09:04:44.000Z</time>
      </trkpt>
      <trkpt lat="46.06138" lon="4.49195">
        <ele>388</ele>
        <time>2016-11-27T09:04:45.000Z</time>
      </trkpt>
      <trkpt lat="46.06139" lon="4.49196">
        <ele>388</ele>
        <time>2016-11-27T09:04:46.000Z</time>
      </trkpt>
      <trkpt lat="46.06141" lon="4.49197">
        <ele>388</ele>
        <time>2016-11-27T09:04:47.000Z</time>
      </trkpt>
      <trkpt lat="46.06143" lon="4.49198">
        <ele>388</ele>
        <time>2016-11-27T09:04:48.000Z</time>
      </trkpt>
      <trkpt lat="46.06145" lon="4.49199">
        <ele>388</ele>
        <time>2016-11-27T09:04:49.000Z</time>
      </trkpt>
      <trkpt lat="46.06147" lon="4.492">
        <ele>387</ele>
        <time>2016-11-27T09:04:50.000Z</time>
      </trkpt>
      <trkpt lat="46.0615" lon="4.49201">
        <ele>387</ele>
        <time>2016-11-27T09:04:51.000Z</time>
      </trkpt>
      <trkpt lat="46.06152" lon="4.49202">
        <ele>387</ele>
        <time>2016-11-27T09:04:52.000Z</time>
      </trkpt>
      <trkpt lat="46.06154" lon="4.49203">
        <ele>386</ele>
        <time>2016-11-27T09:04:53.000Z</time>
      </trkpt>
      <trkpt lat="46.06156" lon="4.49205">
        <ele>386</ele>
        <time>2016-11-27T09:04:54.000Z</time>
      </trkpt>
      <trkpt lat="46.06157" lon="4.49206">
        <ele>386</ele>
        <time>2016-11-27T09:04:55.000Z</time>
      </trkpt>
      <trkpt lat="46.06159" lon="4.49208">
        <ele>385</ele>
        <time>2016-11-27T09:04:56.000Z</time>
      </trkpt>
      <trkpt lat="46.06161" lon="4.49209">
        <ele>385</ele>
        <time>2016-11-27T09:04:57.000Z</time>
      </trkpt>
      <trkpt lat="46.06163" lon="4.4921">
        <ele>385</ele>
        <time>2016-11-27T09:04:58.000Z</time>
      </trkpt>
      <trkpt lat="46.06165" lon="4.49211">
        <ele>384</ele>
        <time>2016-11-27T09:04:59.000Z</time>
      </trkpt>
      <trkpt lat="46.06167" lon="4.49213">
        <ele>384</ele>
        <time>2016-11-27T09:05:00.000Z</time>
      </trkpt>
      <trkpt lat="46.06169" lon="4.49215">
        <ele>385</ele>
        <time>2016-11-27T09:05:01.000Z</time>
      </trkpt>
      <trkpt lat="46.06172" lon="4.49217">
        <ele>385</ele>
        <time>2016-11-27T09:05:02.000Z</time>
      </trkpt>
      <trkpt lat="46.06174" lon="4.49219">
        <ele>385</ele>
        <time>2016-11-27T09:05:03.000Z</time>
      </trkpt>
      <trkpt lat="46.06177" lon="4.49221">
        <ele>385</ele>
        <time>2016-11-27T09:05:04.000Z</time>
      </trkpt>
      <trkpt lat="46.06179" lon="4.49223">
        <ele>385</ele>
        <time>2016-11-27T09:05:05.000Z</time>
      </trkpt>
      <trkpt lat="46.06182" lon="4.49225">
        <ele>385</ele>
        <time>2016-11-27T09:05:06.000Z</time>
      </trkpt>
      <trkpt lat="46.06184" lon="4.49227">
        <ele>386</ele>
        <time>2016-11-27T09:05:07.000Z</time>
      </trkpt>
      <trkpt lat="46.06187" lon="4.49229">
        <ele>386</ele>
        <time>2016-11-27T09:05:08.000Z</time>
      </trkpt>
      <trkpt lat="46.06189" lon="4.49232">
        <ele>386</ele>
        <time>2016-11-27T09:05:09.000Z</time>
      </trkpt>
      <trkpt lat="46.06192" lon="4.49234">
        <ele>388</ele>
        <time>2016-11-27T09:05:10.000Z</time>
      </trkpt>
      <trkpt lat="46.06196" lon="4.49236">
        <ele>388</ele>
        <time>2016-11-27T09:05:11.000Z</time>
      </trkpt>
      <trkpt lat="46.06199" lon="4.49238">
        <ele>388</ele>
        <time>2016-11-27T09:05:12.000Z</time>
      </trkpt>
      <trkpt lat="46.06201" lon="4.4924">
        <ele>388</ele>
        <time>2016-11-27T09:05:13.000Z</time>
      </trkpt>
      <trkpt lat="46.06204" lon="4.49241">
        <ele>389</ele>
        <time>2016-11-27T09:05:14.000Z</time>
      </trkpt>
      <trkpt lat="46.06207" lon="4.49242">
        <ele>388</ele>
        <time>2016-11-27T09:05:15.000Z</time>
      </trkpt>
      <trkpt lat="46.06211" lon="4.49243">
        <ele>389</ele>
        <time>2016-11-27T09:05:16.000Z</time>
      </trkpt>
      <trkpt lat="46.06214" lon="4.49245">
        <ele>389</ele>
        <time>2016-11-27T09:05:17.000Z</time>
      </trkpt>
      <trkpt lat="46.06218" lon="4.49246">
        <ele>389</ele>
        <time>2016-11-27T09:05:18.000Z</time>
      </trkpt>
      <trkpt lat="46.06221" lon="4.49248">
        <ele>389</ele>
        <time>2016-11-27T09:05:19.000Z</time>
      </trkpt>
      <trkpt lat="46.06224" lon="4.49249">
        <ele>389</ele>
        <time>2016-11-27T09:05:20.000Z</time>
      </trkpt>
      <trkpt lat="46.06227" lon="4.4925">
        <ele>389</ele>
        <time>2016-11-27T09:05:21.000Z</time>
      </trkpt>
      <trkpt lat="46.0623" lon="4.49252">
        <ele>388</ele>
        <time>2016-11-27T09:05:22.000Z</time>
      </trkpt>
      <trkpt lat="46.06233" lon="4.49253">
        <ele>388</ele>
        <time>2016-11-27T09:05:23.000Z</time>
      </trkpt>
      <trkpt lat="46.06236" lon="4.49254">
        <ele>389</ele>
        <time>2016-11-27T09:05:24.000Z</time>
      </trkpt>
      <trkpt lat="46.06238" lon="4.49256">
        <ele>388</ele>
        <time>2016-11-27T09:05:25.000Z</time>
      </trkpt>
      <trkpt lat="46.0624" lon="4.49257">
        <ele>390</ele>
        <time>2016-11-27T09:05:26.000Z</time>
      </trkpt>
      <trkpt lat="46.06243" lon="4.49259">
        <ele>390</ele>
        <time>2016-11-27T09:05:27.000Z</time>
      </trkpt>
      <trkpt lat="46.06245" lon="4.49261">
        <ele>390</ele>
        <time>2016-11-27T09:05:28.000Z</time>
      </trkpt>
      <trkpt lat="46.06248" lon="4.49264">
        <ele>390</ele>
        <time>2016-11-27T09:05:29.000Z</time>
      </trkpt>
      <trkpt lat="46.06251" lon="4.49266">
        <ele>390</ele>
        <time>2016-11-27T09:05:30.000Z</time>
      </trkpt>
      <trkpt lat="46.06253" lon="4.49268">
        <ele>390</ele>
        <time>2016-11-27T09:05:31.000Z</time>
      </trkpt>
      <trkpt lat="46.06256" lon="4.4927">
        <ele>389</ele>
        <time>2016-11-27T09:05:32.000Z</time>
      </trkpt>
      <trkpt lat="46.06258" lon="4.49273">
        <ele>388</ele>
        <time>2016-11-27T09:05:33.000Z</time>
      </trkpt>
      <trkpt lat="46.06259" lon="4.49276">
        <ele>388</ele>
        <time>2016-11-27T09:05:34.000Z</time>
      </trkpt>
      <trkpt lat="46.0626" lon="4.4928">
        <ele>390</ele>
        <time>2016-11-27T09:05:35.000Z</time>
      </trkpt>
      <trkpt lat="46.06261" lon="4.49284">
        <ele>390</ele>
        <time>2016-11-27T09:05:36.000Z</time>
      </trkpt>
      <trkpt lat="46.06262" lon="4.49288">
        <ele>390</ele>
        <time>2016-11-27T09:05:37.000Z</time>
      </trkpt>
      <trkpt lat="46.06262" lon="4.49291">
        <ele>389</ele>
        <time>2016-11-27T09:05:38.000Z</time>
      </trkpt>
      <trkpt lat="46.06262" lon="4.49295">
        <ele>390</ele>
        <time>2016-11-27T09:05:39.000Z</time>
      </trkpt>
      <trkpt lat="46.06261" lon="4.49299">
        <ele>389</ele>
        <time>2016-11-27T09:05:40.000Z</time>
      </trkpt>
      <trkpt lat="46.0626" lon="4.49303">
        <ele>388</ele>
        <time>2016-11-27T09:05:41.000Z</time>
      </trkpt>
      <trkpt lat="46.06259" lon="4.49307">
        <ele>388</ele>
        <time>2016-11-27T09:05:42.000Z</time>
      </trkpt>
      <trkpt lat="46.06258" lon="4.49311">
        <ele>388</ele>
        <time>2016-11-27T09:05:43.000Z</time>
      </trkpt>
      <trkpt lat="46.06257" lon="4.49314">
        <ele>389</ele>
        <time>2016-11-27T09:05:44.000Z</time>
      </trkpt>
      <trkpt lat="46.06255" lon="4.49318">
        <ele>389</ele>
        <time>2016-11-27T09:05:45.000Z</time>
      </trkpt>
      <trkpt lat="46.06253" lon="4.4932">
        <ele>388</ele>
        <time>2016-11-27T09:05:46.000Z</time>
      </trkpt>
      <trkpt lat="46.0625" lon="4.49321">
        <ele>391</ele>
        <time>2016-11-27T09:05:47.000Z</time>
      </trkpt>
      <trkpt lat="46.06248" lon="4.49321">
        <ele>391</ele>
        <time>2016-11-27T09:05:48.000Z</time>
      </trkpt>
      <trkpt lat="46.06245" lon="4.49321">
        <ele>392</ele>
        <time>2016-11-27T09:05:49.000Z</time>
      </trkpt>
      <trkpt lat="46.06242" lon="4.4932">
        <ele>391</ele>
        <time>2016-11-27T09:05:50.000Z</time>
      </trkpt>
      <trkpt lat="46.0624" lon="4.49319">
        <ele>391</ele>
        <time>2016-11-27T09:05:51.000Z</time>
      </trkpt>
      <trkpt lat="46.06237" lon="4.49318">
        <ele>391</ele>
        <time>2016-11-27T09:05:52.000Z</time>
      </trkpt>
      <trkpt lat="46.06235" lon="4.49317">
        <ele>391</ele>
        <time>2016-11-27T09:05:53.000Z</time>
      </trkpt>
      <trkpt lat="46.06232" lon="4.49316">
        <ele>392</ele>
        <time>2016-11-27T09:05:54.000Z</time>
      </trkpt>
      <trkpt lat="46.06229" lon="4.49313">
        <ele>392</ele>
        <time>2016-11-27T09:05:55.000Z</time>
      </trkpt>
      <trkpt lat="46.06227" lon="4.49311">
        <ele>392</ele>
        <time>2016-11-27T09:05:56.000Z</time>
      </trkpt>
      <trkpt lat="46.06225" lon="4.49308">
        <ele>392</ele>
        <time>2016-11-27T09:05:57.000Z</time>
      </trkpt>
      <trkpt lat="46.06223" lon="4.49306">
        <ele>392</ele>
        <time>2016-11-27T09:05:58.000Z</time>
      </trkpt>
      <trkpt lat="46.06221" lon="4.49303">
        <ele>392</ele>
        <time>2016-11-27T09:05:59.000Z</time>
      </trkpt>
      <trkpt lat="46.0622" lon="4.49301">
        <ele>392</ele>
        <time>2016-11-27T09:06:00.000Z</time>
      </trkpt>
      <trkpt lat="46.06218" lon="4.49298">
        <ele>392</ele>
        <time>2016-11-27T09:06:01.000Z</time>
      </trkpt>
      <trkpt lat="46.06217" lon="4.49295">
        <ele>392</ele>
        <time>2016-11-27T09:06:02.000Z</time>
      </trkpt>
      <trkpt lat="46.06215" lon="4.49293">
        <ele>391</ele>
        <time>2016-11-27T09:06:03.000Z</time>
      </trkpt>
      <trkpt lat="46.06213" lon="4.4929">
        <ele>391</ele>
        <time>2016-11-27T09:06:04.000Z</time>
      </trkpt>
      <trkpt lat="46.06211" lon="4.49288">
        <ele>391</ele>
        <time>2016-11-27T09:06:05.000Z</time>
      </trkpt>
      <trkpt lat="46.0621" lon="4.49287">
        <ele>391</ele>
        <time>2016-11-27T09:06:06.000Z</time>
      </trkpt>
      <trkpt lat="46.06207" lon="4.49285">
        <ele>391</ele>
        <time>2016-11-27T09:06:07.000Z</time>
      </trkpt>
      <trkpt lat="46.06205" lon="4.49284">
        <ele>391</ele>
        <time>2016-11-27T09:06:08.000Z</time>
      </trkpt>
      <trkpt lat="46.06203" lon="4.49283">
        <ele>391</ele>
        <time>2016-11-27T09:06:09.000Z</time>
      </trkpt>
      <trkpt lat="46.06201" lon="4.49283">
        <ele>392</ele>
        <time>2016-11-27T09:06:10.000Z</time>
      </trkpt>
      <trkpt lat="46.06198" lon="4.49282">
        <ele>393</ele>
        <time>2016-11-27T09:06:11.000Z</time>
      </trkpt>
      <trkpt lat="46.06196" lon="4.49282">
        <ele>393</ele>
        <time>2016-11-27T09:06:12.000Z</time>
      </trkpt>
      <trkpt lat="46.06194" lon="4.49282">
        <ele>394</ele>
        <time>2016-11-27T09:06:13.000Z</time>
      </trkpt>
      <trkpt lat="46.06192" lon="4.49283">
        <ele>394</ele>
        <time>2016-11-27T09:06:14.000Z</time>
      </trkpt>
      <trkpt lat="46.06191" lon="4.49284">
        <ele>394</ele>
        <time>2016-11-27T09:06:15.000Z</time>
      </trkpt>
      <trkpt lat="46.06189" lon="4.49286">
        <ele>395</ele>
        <time>2016-11-27T09:06:16.000Z</time>
      </trkpt>
      <trkpt lat="46.06187" lon="4.49288">
        <ele>395</ele>
        <time>2016-11-27T09:06:17.000Z</time>
      </trkpt>
      <trkpt lat="46.06186" lon="4.49289">
        <ele>396</ele>
        <time>2016-11-27T09:06:18.000Z</time>
      </trkpt>
      <trkpt lat="46.06185" lon="4.49291">
        <ele>396</ele>
        <time>2016-11-27T09:06:19.000Z</time>
      </trkpt>
      <trkpt lat="46.06185" lon="4.49294">
        <ele>396</ele>
        <time>2016-11-27T09:06:20.000Z</time>
      </trkpt>
      <trkpt lat="46.06184" lon="4.49296">
        <ele>397</ele>
        <time>2016-11-27T09:06:21.000Z</time>
      </trkpt>
      <trkpt lat="46.06184" lon="4.49299">
        <ele>397</ele>
        <time>2016-11-27T09:06:22.000Z</time>
      </trkpt>
      <trkpt lat="46.06183" lon="4.49301">
        <ele>397</ele>
        <time>2016-11-27T09:06:23.000Z</time>
      </trkpt>
      <trkpt lat="46.06183" lon="4.49304">
        <ele>397</ele>
        <time>2016-11-27T09:06:24.000Z</time>
      </trkpt>
      <trkpt lat="46.06183" lon="4.49307">
        <ele>398</ele>
        <time>2016-11-27T09:06:25.000Z</time>
      </trkpt>
      <trkpt lat="46.06182" lon="4.49309">
        <ele>398</ele>
        <time>2016-11-27T09:06:26.000Z</time>
      </trkpt>
      <trkpt lat="46.06181" lon="4.49312">
        <ele>399</ele>
        <time>2016-11-27T09:06:27.000Z</time>
      </trkpt>
      <trkpt lat="46.0618" lon="4.49314">
        <ele>399</ele>
        <time>2016-11-27T09:06:28.000Z</time>
      </trkpt>
      <trkpt lat="46.0618" lon="4.49317">
        <ele>399</ele>
        <time>2016-11-27T09:06:29.000Z</time>
      </trkpt>
      <trkpt lat="46.06179" lon="4.49319">
        <ele>399</ele>
        <time>2016-11-27T09:06:30.000Z</time>
      </trkpt>
      <trkpt lat="46.06178" lon="4.4932">
        <ele>400</ele>
        <time>2016-11-27T09:06:31.000Z</time>
      </trkpt>
      <trkpt lat="46.06177" lon="4.49321">
        <ele>402</ele>
        <time>2016-11-27T09:06:32.000Z</time>
      </trkpt>
      <trkpt lat="46.06175" lon="4.4932">
        <ele>403</ele>
        <time>2016-11-27T09:06:33.000Z</time>
      </trkpt>
      <trkpt lat="46.06173" lon="4.4932">
        <ele>405</ele>
        <time>2016-11-27T09:06:34.000Z</time>
      </trkpt>
      <trkpt lat="46.06171" lon="4.4932">
        <ele>406</ele>
        <time>2016-11-27T09:06:35.000Z</time>
      </trkpt>
      <trkpt lat="46.0617" lon="4.49321">
        <ele>406</ele>
        <time>2016-11-27T09:06:36.000Z</time>
      </trkpt>
      <trkpt lat="46.06168" lon="4.49321">
        <ele>407</ele>
        <time>2016-11-27T09:06:37.000Z</time>
      </trkpt>
      <trkpt lat="46.06166" lon="4.49321">
        <ele>407</ele>
        <time>2016-11-27T09:06:38.000Z</time>
      </trkpt>
      <trkpt lat="46.06164" lon="4.49321">
        <ele>406</ele>
        <time>2016-11-27T09:06:39.000Z</time>
      </trkpt>
      <trkpt lat="46.06161" lon="4.4932">
        <ele>406</ele>
        <time>2016-11-27T09:06:40.000Z</time>
      </trkpt>
      <trkpt lat="46.06159" lon="4.4932">
        <ele>406</ele>
        <time>2016-11-27T09:06:41.000Z</time>
      </trkpt>
      <trkpt lat="46.06157" lon="4.4932">
        <ele>405</ele>
        <time>2016-11-27T09:06:42.000Z</time>
      </trkpt>
      <trkpt lat="46.06155" lon="4.4932">
        <ele>405</ele>
        <time>2016-11-27T09:06:43.000Z</time>
      </trkpt>
      <trkpt lat="46.06153" lon="4.49321">
        <ele>406</ele>
        <time>2016-11-27T09:06:44.000Z</time>
      </trkpt>
      <trkpt lat="46.06151" lon="4.49321">
        <ele>407</ele>
        <time>2016-11-27T09:06:45.000Z</time>
      </trkpt>
      <trkpt lat="46.06148" lon="4.49322">
        <ele>406</ele>
        <time>2016-11-27T09:06:46.000Z</time>
      </trkpt>
      <trkpt lat="46.06146" lon="4.49322">
        <ele>407</ele>
        <time>2016-11-27T09:06:47.000Z</time>
      </trkpt>
      <trkpt lat="46.06143" lon="4.49323">
        <ele>408</ele>
        <time>2016-11-27T09:06:48.000Z</time>
      </trkpt>
      <trkpt lat="46.0614" lon="4.49324">
        <ele>409</ele>
        <time>2016-11-27T09:06:49.000Z</time>
      </trkpt>
      <trkpt lat="46.06137" lon="4.49325">
        <ele>409</ele>
        <time>2016-11-27T09:06:50.000Z</time>
      </trkpt>
      <trkpt lat="46.06134" lon="4.49326">
        <ele>408</ele>
        <time>2016-11-27T09:06:51.000Z</time>
      </trkpt>
      <trkpt lat="46.06132" lon="4.49328">
        <ele>409</ele>
        <time>2016-11-27T09:06:52.000Z</time>
      </trkpt>
      <trkpt lat="46.06129" lon="4.49329">
        <ele>410</ele>
        <time>2016-11-27T09:06:53.000Z</time>
      </trkpt>
      <trkpt lat="46.06126" lon="4.49331">
        <ele>409</ele>
        <time>2016-11-27T09:06:54.000Z</time>
      </trkpt>
      <trkpt lat="46.06124" lon="4.49332">
        <ele>409</ele>
        <time>2016-11-27T09:06:55.000Z</time>
      </trkpt>
      <trkpt lat="46.06121" lon="4.49333">
        <ele>409</ele>
        <time>2016-11-27T09:06:56.000Z</time>
      </trkpt>
      <trkpt lat="46.06119" lon="4.49334">
        <ele>409</ele>
        <time>2016-11-27T09:06:57.000Z</time>
      </trkpt>
      <trkpt lat="46.06116" lon="4.49334">
        <ele>409</ele>
        <time>2016-11-27T09:06:58.000Z</time>
      </trkpt>
      <trkpt lat="46.06113" lon="4.49334">
        <ele>408</ele>
        <time>2016-11-27T09:06:59.000Z</time>
      </trkpt>
      <trkpt lat="46.06111" lon="4.49334">
        <ele>408</ele>
        <time>2016-11-27T09:07:00.000Z</time>
      </trkpt>
      <trkpt lat="46.0611" lon="4.49333">
        <ele>408</ele>
        <time>2016-11-27T09:07:01.000Z</time>
      </trkpt>
      <trkpt lat="46.06108" lon="4.49332">
        <ele>409</ele>
        <time>2016-11-27T09:07:02.000Z</time>
      </trkpt>
      <trkpt lat="46.06107" lon="4.49332">
        <ele>410</ele>
        <time>2016-11-27T09:07:03.000Z</time>
      </trkpt>
      <trkpt lat="46.06105" lon="4.49331">
        <ele>410</ele>
        <time>2016-11-27T09:07:04.000Z</time>
      </trkpt>
      <trkpt lat="46.06103" lon="4.49331">
        <ele>411</ele>
        <time>2016-11-27T09:07:05.000Z</time>
      </trkpt>
      <trkpt lat="46.06101" lon="4.4933">
        <ele>411</ele>
        <time>2016-11-27T09:07:06.000Z</time>
      </trkpt>
      <trkpt lat="46.06099" lon="4.49329">
        <ele>411</ele>
        <time>2016-11-27T09:07:07.000Z</time>
      </trkpt>
      <trkpt lat="46.06097" lon="4.49328">
        <ele>409</ele>
        <time>2016-11-27T09:07:08.000Z</time>
      </trkpt>
      <trkpt lat="46.06095" lon="4.49326">
        <ele>409</ele>
        <time>2016-11-27T09:07:09.000Z</time>
      </trkpt>
      <trkpt lat="46.06092" lon="4.49324">
        <ele>409</ele>
        <time>2016-11-27T09:07:10.000Z</time>
      </trkpt>
      <trkpt lat="46.0609" lon="4.49323">
        <ele>408</ele>
        <time>2016-11-27T09:07:11.000Z</time>
      </trkpt>
      <trkpt lat="46.06087" lon="4.49321">
        <ele>407</ele>
        <time>2016-11-27T09:07:12.000Z</time>
      </trkpt>
      <trkpt lat="46.06084" lon="4.49319">
        <ele>407</ele>
        <time>2016-11-27T09:07:13.000Z</time>
      </trkpt>
      <trkpt lat="46.06082" lon="4.49316">
        <ele>407</ele>
        <time>2016-11-27T09:07:14.000Z</time>
      </trkpt>
      <trkpt lat="46.06079" lon="4.49314">
        <ele>408</ele>
        <time>2016-11-27T09:07:15.000Z</time>
      </trkpt>
      <trkpt lat="46.06076" lon="4.49312">
        <ele>407</ele>
        <time>2016-11-27T09:07:16.000Z</time>
      </trkpt>
      <trkpt lat="46.06073" lon="4.49311">
        <ele>408</ele>
        <time>2016-11-27T09:07:17.000Z</time>
      </trkpt>
      <trkpt lat="46.06069" lon="4.4931">
        <ele>408</ele>
        <time>2016-11-27T09:07:18.000Z</time>
      </trkpt>
      <trkpt lat="46.06066" lon="4.49308">
        <ele>409</ele>
        <time>2016-11-27T09:07:19.000Z</time>
      </trkpt>
      <trkpt lat="46.06063" lon="4.49306">
        <ele>408</ele>
        <time>2016-11-27T09:07:20.000Z</time>
      </trkpt>
      <trkpt lat="46.0606" lon="4.49304">
        <ele>408</ele>
        <time>2016-11-27T09:07:21.000Z</time>
      </trkpt>
      <trkpt lat="46.06057" lon="4.49303">
        <ele>408</ele>
        <time>2016-11-27T09:07:22.000Z</time>
      </trkpt>
      <trkpt lat="46.06054" lon="4.49301">
        <ele>408</ele>
        <time>2016-11-27T09:07:23.000Z</time>
      </trkpt>
      <trkpt lat="46.0605" lon="4.49299">
        <ele>408</ele>
        <time>2016-11-27T09:07:24.000Z</time>
      </trkpt>
      <trkpt lat="46.06047" lon="4.49298">
        <ele>408</ele>
        <time>2016-11-27T09:07:25.000Z</time>
      </trkpt>
      <trkpt lat="46.06044" lon="4.49296">
        <ele>408</ele>
        <time>2016-11-27T09:07:26.000Z</time>
      </trkpt>
      <trkpt lat="46.06041" lon="4.49295">
        <ele>409</ele>
        <time>2016-11-27T09:07:27.000Z</time>
      </trkpt>
      <trkpt lat="46.06038" lon="4.49294">
        <ele>408</ele>
        <time>2016-11-27T09:07:28.000Z</time>
      </trkpt>
      <trkpt lat="46.06035" lon="4.49293">
        <ele>408</ele>
        <time>2016-11-27T09:07:29.000Z</time>
      </trkpt>
      <trkpt lat="46.06031" lon="4.49292">
        <ele>408</ele>
        <time>2016-11-27T09:07:30.000Z</time>
      </trkpt>
      <trkpt lat="46.06029" lon="4.49292">
        <ele>408</ele>
        <time>2016-11-27T09:07:31.000Z</time>
      </trkpt>
      <trkpt lat="46.06026" lon="4.49291">
        <ele>408</ele>
        <time>2016-11-27T09:07:32.000Z</time>
      </trkpt>
      <trkpt lat="46.06023" lon="4.49291">
        <ele>408</ele>
        <time>2016-11-27T09:07:33.000Z</time>
      </trkpt>
      <trkpt lat="46.0602" lon="4.49291">
        <ele>409</ele>
        <time>2016-11-27T09:07:34.000Z</time>
      </trkpt>
      <trkpt lat="46.06018" lon="4.49291">
        <ele>409</ele>
        <time>2016-11-27T09:07:35.000Z</time>
      </trkpt>
      <trkpt lat="46.06015" lon="4.49291">
        <ele>409</ele>
        <time>2016-11-27T09:07:36.000Z</time>
      </trkpt>
      <trkpt lat="46.06012" lon="4.49291">
        <ele>409</ele>
        <time>2016-11-27T09:07:37.000Z</time>
      </trkpt>
      <trkpt lat="46.0601" lon="4.49291">
        <ele>409</ele>
        <time>2016-11-27T09:07:38.000Z</time>
      </trkpt>
      <trkpt lat="46.06007" lon="4.49291">
        <ele>409</ele>
        <time>2016-11-27T09:07:39.000Z</time>
      </trkpt>
      <trkpt lat="46.06004" lon="4.49291">
        <ele>409</ele>
        <time>2016-11-27T09:07:40.000Z</time>
      </trkpt>
      <trkpt lat="46.06002" lon="4.49291">
        <ele>409</ele>
        <time>2016-11-27T09:07:41.000Z</time>
      </trkpt>
      <trkpt lat="46.05999" lon="4.49291">
        <ele>408</ele>
        <time>2016-11-27T09:07:42.000Z</time>
      </trkpt>
      <trkpt lat="46.05996" lon="4.49292">
        <ele>407</ele>
        <time>2016-11-27T09:07:43.000Z</time>
      </trkpt>
      <trkpt lat="46.05992" lon="4.49293">
        <ele>407</ele>
        <time>2016-11-27T09:07:44.000Z</time>
      </trkpt>
      <trkpt lat="46.05989" lon="4.49294">
        <ele>407</ele>
        <time>2016-11-27T09:07:45.000Z</time>
      </trkpt>
      <trkpt lat="46.05986" lon="4.49296">
        <ele>407</ele>
        <time>2016-11-27T09:07:46.000Z</time>
      </trkpt>
      <trkpt lat="46.05982" lon="4.49297">
        <ele>407</ele>
        <time>2016-11-27T09:07:47.000Z</time>
      </trkpt>
      <trkpt lat="46.05979" lon="4.49298">
        <ele>407</ele>
        <time>2016-11-27T09:07:48.000Z</time>
      </trkpt>
      <trkpt lat="46.05975" lon="4.493">
        <ele>407</ele>
        <time>2016-11-27T09:07:49.000Z</time>
      </trkpt>
      <trkpt lat="46.05972" lon="4.49301">
        <ele>407</ele>
        <time>2016-11-27T09:07:50.000Z</time>
      </trkpt>
      <trkpt lat="46.05968" lon="4.49302">
        <ele>406</ele>
        <time>2016-11-27T09:07:51.000Z</time>
      </trkpt>
      <trkpt lat="46.05965" lon="4.49304">
        <ele>405</ele>
        <time>2016-11-27T09:07:52.000Z</time>
      </trkpt>
      <trkpt lat="46.05962" lon="4.49305">
        <ele>405</ele>
        <time>2016-11-27T09:07:53.000Z</time>
      </trkpt>
      <trkpt lat="46.05958" lon="4.49306">
        <ele>405</ele>
        <time>2016-11-27T09:07:54.000Z</time>
      </trkpt>
      <trkpt lat="46.05955" lon="4.49307">
        <ele>406</ele>
        <time>2016-11-27T09:07:55.000Z</time>
      </trkpt>
      <trkpt lat="46.05952" lon="4.49308">
        <ele>406</ele>
        <time>2016-11-27T09:07:56.000Z</time>
      </trkpt>
      <trkpt lat="46.05948" lon="4.49309">
        <ele>405</ele>
        <time>2016-11-27T09:07:57.000Z</time>
      </trkpt>
      <trkpt lat="46.05945" lon="4.4931">
        <ele>406</ele>
        <time>2016-11-27T09:07:58.000Z</time>
      </trkpt>
      <trkpt lat="46.05942" lon="4.49311">
        <ele>406</ele>
        <time>2016-11-27T09:07:59.000Z</time>
      </trkpt>
      <trkpt lat="46.05939" lon="4.49312">
        <ele>406</ele>
        <time>2016-11-27T09:08:00.000Z</time>
      </trkpt>
      <trkpt lat="46.05936" lon="4.49313">
        <ele>407</ele>
        <time>2016-11-27T09:08:01.000Z</time>
      </trkpt>
      <trkpt lat="46.05933" lon="4.49314">
        <ele>407</ele>
        <time>2016-11-27T09:08:02.000Z</time>
      </trkpt>
      <trkpt lat="46.05929" lon="4.49314">
        <ele>408</ele>
        <time>2016-11-27T09:08:03.000Z</time>
      </trkpt>
      <trkpt lat="46.05927" lon="4.49315">
        <ele>408</ele>
        <time>2016-11-27T09:08:04.000Z</time>
      </trkpt>
      <trkpt lat="46.05923" lon="4.49315">
        <ele>408</ele>
        <time>2016-11-27T09:08:05.000Z</time>
      </trkpt>
      <trkpt lat="46.0592" lon="4.49315">
        <ele>409</ele>
        <time>2016-11-27T09:08:06.000Z</time>
      </trkpt>
      <trkpt lat="46.05917" lon="4.49314">
        <ele>409</ele>
        <time>2016-11-27T09:08:07.000Z</time>
      </trkpt>
      <trkpt lat="46.05914" lon="4.49314">
        <ele>409</ele>
        <time>2016-11-27T09:08:08.000Z</time>
      </trkpt>
      <trkpt lat="46.05911" lon="4.49314">
        <ele>410</ele>
        <time>2016-11-27T09:08:09.000Z</time>
      </trkpt>
      <trkpt lat="46.05909" lon="4.49315">
        <ele>410</ele>
        <time>2016-11-27T09:08:10.000Z</time>
      </trkpt>
      <trkpt lat="46.05906" lon="4.49315">
        <ele>409</ele>
        <time>2016-11-27T09:08:11.000Z</time>
      </trkpt>
      <trkpt lat="46.05903" lon="4.49316">
        <ele>409</ele>
        <time>2016-11-27T09:08:12.000Z</time>
      </trkpt>
      <trkpt lat="46.05901" lon="4.49316">
        <ele>409</ele>
        <time>2016-11-27T09:08:13.000Z</time>
      </trkpt>
      <trkpt lat="46.05897" lon="4.49316">
        <ele>409</ele>
        <time>2016-11-27T09:08:14.000Z</time>
      </trkpt>
      <trkpt lat="46.05894" lon="4.49317">
        <ele>409</ele>
        <time>2016-11-27T09:08:15.000Z</time>
      </trkpt>
      <trkpt lat="46.05891" lon="4.49318">
        <ele>409</ele>
        <time>2016-11-27T09:08:16.000Z</time>
      </trkpt>
      <trkpt lat="46.05888" lon="4.49319">
        <ele>409</ele>
        <time>2016-11-27T09:08:17.000Z</time>
      </trkpt>
      <trkpt lat="46.05885" lon="4.4932">
        <ele>407</ele>
        <time>2016-11-27T09:08:18.000Z</time>
      </trkpt>
      <trkpt lat="46.05882" lon="4.49321">
        <ele>406</ele>
        <time>2016-11-27T09:08:19.000Z</time>
      </trkpt>
      <trkpt lat="46.05878" lon="4.49322">
        <ele>406</ele>
        <time>2016-11-27T09:08:20.000Z</time>
      </trkpt>
      <trkpt lat="46.05874" lon="4.49323">
        <ele>405</ele>
        <time>2016-11-27T09:08:21.000Z</time>
      </trkpt>
      <trkpt lat="46.05871" lon="4.49325">
        <ele>405</ele>
        <time>2016-11-27T09:08:22.000Z</time>
      </trkpt>
      <trkpt lat="46.05868" lon="4.49326">
        <ele>405</ele>
        <time>2016-11-27T09:08:23.000Z</time>
      </trkpt>
      <trkpt lat="46.05865" lon="4.49328">
        <ele>404</ele>
        <time>2016-11-27T09:08:24.000Z</time>
      </trkpt>
      <trkpt lat="46.05862" lon="4.49329">
        <ele>403</ele>
        <time>2016-11-27T09:08:25.000Z</time>
      </trkpt>
      <trkpt lat="46.05859" lon="4.4933">
        <ele>403</ele>
        <time>2016-11-27T09:08:26.000Z</time>
      </trkpt>
      <trkpt lat="46.05856" lon="4.49332">
        <ele>404</ele>
        <time>2016-11-27T09:08:27.000Z</time>
      </trkpt>
      <trkpt lat="46.05853" lon="4.49334">
        <ele>404</ele>
        <time>2016-11-27T09:08:28.000Z</time>
      </trkpt>
      <trkpt lat="46.0585" lon="4.49335">
        <ele>403</ele>
        <time>2016-11-27T09:08:29.000Z</time>
      </trkpt>
      <trkpt lat="46.05847" lon="4.49338">
        <ele>403</ele>
        <time>2016-11-27T09:08:30.000Z</time>
      </trkpt>
      <trkpt lat="46.05845" lon="4.4934">
        <ele>402</ele>
        <time>2016-11-27T09:08:31.000Z</time>
      </trkpt>
      <trkpt lat="46.05842" lon="4.49342">
        <ele>402</ele>
        <time>2016-11-27T09:08:32.000Z</time>
      </trkpt>
      <trkpt lat="46.05839" lon="4.49344">
        <ele>401</ele>
        <time>2016-11-27T09:08:33.000Z</time>
      </trkpt>
      <trkpt lat="46.05836" lon="4.49346">
        <ele>401</ele>
        <time>2016-11-27T09:08:34.000Z</time>
      </trkpt>
      <trkpt lat="46.05834" lon="4.49349">
        <ele>401</ele>
        <time>2016-11-27T09:08:35.000Z</time>
      </trkpt>
      <trkpt lat="46.05831" lon="4.49352">
        <ele>401</ele>
        <time>2016-11-27T09:08:36.000Z</time>
      </trkpt>
      <trkpt lat="46.05829" lon="4.49355">
        <ele>401</ele>
        <time>2016-11-27T09:08:37.000Z</time>
      </trkpt>
      <trkpt lat="46.05826" lon="4.49358">
        <ele>402</ele>
        <time>2016-11-27T09:08:38.000Z</time>
      </trkpt>
      <trkpt lat="46.05824" lon="4.49361">
        <ele>401</ele>
        <time>2016-11-27T09:08:39.000Z</time>
      </trkpt>
      <trkpt lat="46.05821" lon="4.49364">
        <ele>401</ele>
        <time>2016-11-27T09:08:40.000Z</time>
      </trkpt>
      <trkpt lat="46.05818" lon="4.49366">
        <ele>400</ele>
        <time>2016-11-27T09:08:41.000Z</time>
      </trkpt>
      <trkpt lat="46.05816" lon="4.49368">
        <ele>401</ele>
        <time>2016-11-27T09:08:42.000Z</time>
      </trkpt>
      <trkpt lat="46.05813" lon="4.49371">
        <ele>401</ele>
        <time>2016-11-27T09:08:43.000Z</time>
      </trkpt>
      <trkpt lat="46.05811" lon="4.49374">
        <ele>400</ele>
        <time>2016-11-27T09:08:44.000Z</time>
      </trkpt>
      <trkpt lat="46.05808" lon="4.49377">
        <ele>401</ele>
        <time>2016-11-27T09:08:45.000Z</time>
      </trkpt>
      <trkpt lat="46.05806" lon="4.4938">
        <ele>400</ele>
        <time>2016-11-27T09:08:46.000Z</time>
      </trkpt>
      <trkpt lat="46.05804" lon="4.49384">
        <ele>400</ele>
        <time>2016-11-27T09:08:47.000Z</time>
      </trkpt>
      <trkpt lat="46.05802" lon="4.49388">
        <ele>399</ele>
        <time>2016-11-27T09:08:48.000Z</time>
      </trkpt>
      <trkpt lat="46.058" lon="4.49391">
        <ele>399</ele>
        <time>2016-11-27T09:08:49.000Z</time>
      </trkpt>
      <trkpt lat="46.05798" lon="4.49395">
        <ele>398</ele>
        <time>2016-11-27T09:08:50.000Z</time>
      </trkpt>
      <trkpt lat="46.05796" lon="4.49398">
        <ele>399</ele>
        <time>2016-11-27T09:08:51.000Z</time>
      </trkpt>
      <trkpt lat="46.05794" lon="4.49402">
        <ele>399</ele>
        <time>2016-11-27T09:08:52.000Z</time>
      </trkpt>
      <trkpt lat="46.05792" lon="4.49406">
        <ele>399</ele>
        <time>2016-11-27T09:08:53.000Z</time>
      </trkpt>
      <trkpt lat="46.0579" lon="4.4941">
        <ele>400</ele>
        <time>2016-11-27T09:08:54.000Z</time>
      </trkpt>
      <trkpt lat="46.05788" lon="4.49414">
        <ele>400</ele>
        <time>2016-11-27T09:08:55.000Z</time>
      </trkpt>
      <trkpt lat="46.05786" lon="4.49418">
        <ele>400</ele>
        <time>2016-11-27T09:08:56.000Z</time>
      </trkpt>
      <trkpt lat="46.05784" lon="4.49422">
        <ele>399</ele>
        <time>2016-11-27T09:08:57.000Z</time>
      </trkpt>
      <trkpt lat="46.05781" lon="4.49425">
        <ele>399</ele>
        <time>2016-11-27T09:08:58.000Z</time>
      </trkpt>
      <trkpt lat="46.05779" lon="4.49428">
        <ele>398</ele>
        <time>2016-11-27T09:08:59.000Z</time>
      </trkpt>
      <trkpt lat="46.05777" lon="4.49431">
        <ele>398</ele>
        <time>2016-11-27T09:09:00.000Z</time>
      </trkpt>
      <trkpt lat="46.05775" lon="4.49435">
        <ele>398</ele>
        <time>2016-11-27T09:09:01.000Z</time>
      </trkpt>
      <trkpt lat="46.05773" lon="4.49438">
        <ele>398</ele>
        <time>2016-11-27T09:09:02.000Z</time>
      </trkpt>
      <trkpt lat="46.0577" lon="4.49442">
        <ele>398</ele>
        <time>2016-11-27T09:09:03.000Z</time>
      </trkpt>
      <trkpt lat="46.05768" lon="4.49445">
        <ele>398</ele>
        <time>2016-11-27T09:09:04.000Z</time>
      </trkpt>
      <trkpt lat="46.05765" lon="4.49448">
        <ele>398</ele>
        <time>2016-11-27T09:09:05.000Z</time>
      </trkpt>
      <trkpt lat="46.05762" lon="4.49452">
        <ele>398</ele>
        <time>2016-11-27T09:09:06.000Z</time>
      </trkpt>
      <trkpt lat="46.0576" lon="4.49455">
        <ele>399</ele>
        <time>2016-11-27T09:09:07.000Z</time>
      </trkpt>
      <trkpt lat="46.05757" lon="4.49458">
        <ele>399</ele>
        <time>2016-11-27T09:09:08.000Z</time>
      </trkpt>
      <trkpt lat="46.05755" lon="4.49461">
        <ele>399</ele>
        <time>2016-11-27T09:09:09.000Z</time>
      </trkpt>
      <trkpt lat="46.05753" lon="4.49464">
        <ele>399</ele>
        <time>2016-11-27T09:09:10.000Z</time>
      </trkpt>
      <trkpt lat="46.0575" lon="4.49467">
        <ele>399</ele>
        <time>2016-11-27T09:09:11.000Z</time>
      </trkpt>
      <trkpt lat="46.05748" lon="4.4947">
        <ele>400</ele>
        <time>2016-11-27T09:09:12.000Z</time>
      </trkpt>
      <trkpt lat="46.05746" lon="4.49473">
        <ele>400</ele>
        <time>2016-11-27T09:09:13.000Z</time>
      </trkpt>
      <trkpt lat="46.05744" lon="4.49476">
        <ele>399</ele>
        <time>2016-11-27T09:09:14.000Z</time>
      </trkpt>
      <trkpt lat="46.05742" lon="4.49479">
        <ele>399</ele>
        <time>2016-11-27T09:09:15.000Z</time>
      </trkpt>
      <trkpt lat="46.0574" lon="4.49482">
        <ele>399</ele>
        <time>2016-11-27T09:09:16.000Z</time>
      </trkpt>
      <trkpt lat="46.05737" lon="4.49486">
        <ele>399</ele>
        <time>2016-11-27T09:09:17.000Z</time>
      </trkpt>
      <trkpt lat="46.05735" lon="4.49489">
        <ele>400</ele>
        <time>2016-11-27T09:09:18.000Z</time>
      </trkpt>
      <trkpt lat="46.05732" lon="4.49492">
        <ele>401</ele>
        <time>2016-11-27T09:09:19.000Z</time>
      </trkpt>
      <trkpt lat="46.0573" lon="4.49496">
        <ele>400</ele>
        <time>2016-11-27T09:09:20.000Z</time>
      </trkpt>
      <trkpt lat="46.05727" lon="4.49499">
        <ele>401</ele>
        <time>2016-11-27T09:09:21.000Z</time>
      </trkpt>
      <trkpt lat="46.05725" lon="4.49502">
        <ele>401</ele>
        <time>2016-11-27T09:09:22.000Z</time>
      </trkpt>
      <trkpt lat="46.05722" lon="4.49505">
        <ele>401</ele>
        <time>2016-11-27T09:09:23.000Z</time>
      </trkpt>
      <trkpt lat="46.05719" lon="4.49508">
        <ele>402</ele>
        <time>2016-11-27T09:09:24.000Z</time>
      </trkpt>
      <trkpt lat="46.05717" lon="4.49511">
        <ele>404</ele>
        <time>2016-11-27T09:09:25.000Z</time>
      </trkpt>
      <trkpt lat="46.05714" lon="4.49513">
        <ele>404</ele>
        <time>2016-11-27T09:09:26.000Z</time>
      </trkpt>
      <trkpt lat="46.05711" lon="4.49516">
        <ele>404</ele>
        <time>2016-11-27T09:09:27.000Z</time>
      </trkpt>
      <trkpt lat="46.05709" lon="4.49518">
        <ele>404</ele>
        <time>2016-11-27T09:09:28.000Z</time>
      </trkpt>
      <trkpt lat="46.05707" lon="4.49521">
        <ele>403</ele>
        <time>2016-11-27T09:09:29.000Z</time>
      </trkpt>
      <trkpt lat="46.05704" lon="4.49523">
        <ele>402</ele>
        <time>2016-11-27T09:09:30.000Z</time>
      </trkpt>
      <trkpt lat="46.05702" lon="4.49525">
        <ele>403</ele>
        <time>2016-11-27T09:09:31.000Z</time>
      </trkpt>
      <trkpt lat="46.05699" lon="4.49528">
        <ele>403</ele>
        <time>2016-11-27T09:09:32.000Z</time>
      </trkpt>
      <trkpt lat="46.05696" lon="4.49531">
        <ele>404</ele>
        <time>2016-11-27T09:09:33.000Z</time>
      </trkpt>
      <trkpt lat="46.05694" lon="4.49534">
        <ele>404</ele>
        <time>2016-11-27T09:09:34.000Z</time>
      </trkpt>
      <trkpt lat="46.05691" lon="4.49537">
        <ele>404</ele>
        <time>2016-11-27T09:09:35.000Z</time>
      </trkpt>
      <trkpt lat="46.05688" lon="4.4954">
        <ele>404</ele>
        <time>2016-11-27T09:09:36.000Z</time>
      </trkpt>
      <trkpt lat="46.05686" lon="4.49542">
        <ele>404</ele>
        <time>2016-11-27T09:09:37.000Z</time>
      </trkpt>
      <trkpt lat="46.05683" lon="4.49545">
        <ele>403</ele>
        <time>2016-11-27T09:09:38.000Z</time>
      </trkpt>
      <trkpt lat="46.05681" lon="4.49548">
        <ele>403</ele>
        <time>2016-11-27T09:09:39.000Z</time>
      </trkpt>
      <trkpt lat="46.05678" lon="4.4955">
        <ele>404</ele>
        <time>2016-11-27T09:09:40.000Z</time>
      </trkpt>
      <trkpt lat="46.05676" lon="4.49553">
        <ele>404</ele>
        <time>2016-11-27T09:09:41.000Z</time>
      </trkpt>
      <trkpt lat="46.05673" lon="4.49556">
        <ele>406</ele>
        <time>2016-11-27T09:09:42.000Z</time>
      </trkpt>
      <trkpt lat="46.05671" lon="4.49559">
        <ele>406</ele>
        <time>2016-11-27T09:09:43.000Z</time>
      </trkpt>
      <trkpt lat="46.05668" lon="4.49561">
        <ele>406</ele>
        <time>2016-11-27T09:09:44.000Z</time>
      </trkpt>
      <trkpt lat="46.05665" lon="4.49562">
        <ele>406</ele>
        <time>2016-11-27T09:09:45.000Z</time>
      </trkpt>
      <trkpt lat="46.05662" lon="4.49564">
        <ele>406</ele>
        <time>2016-11-27T09:09:46.000Z</time>
      </trkpt>
      <trkpt lat="46.05659" lon="4.49565">
        <ele>405</ele>
        <time>2016-11-27T09:09:47.000Z</time>
      </trkpt>
      <trkpt lat="46.05657" lon="4.49567">
        <ele>405</ele>
        <time>2016-11-27T09:09:48.000Z</time>
      </trkpt>
      <trkpt lat="46.05654" lon="4.49569">
        <ele>405</ele>
        <time>2016-11-27T09:09:49.000Z</time>
      </trkpt>
      <trkpt lat="46.05651" lon="4.49571">
        <ele>406</ele>
        <time>2016-11-27T09:09:50.000Z</time>
      </trkpt>
      <trkpt lat="46.05649" lon="4.49573">
        <ele>405</ele>
        <time>2016-11-27T09:09:51.000Z</time>
      </trkpt>
      <trkpt lat="46.05646" lon="4.49575">
        <ele>405</ele>
        <time>2016-11-27T09:09:52.000Z</time>
      </trkpt>
      <trkpt lat="46.05644" lon="4.49577">
        <ele>404</ele>
        <time>2016-11-27T09:09:53.000Z</time>
      </trkpt>
      <trkpt lat="46.05641" lon="4.49579">
        <ele>404</ele>
        <time>2016-11-27T09:09:54.000Z</time>
      </trkpt>
      <trkpt lat="46.05639" lon="4.49581">
        <ele>403</ele>
        <time>2016-11-27T09:09:55.000Z</time>
      </trkpt>
      <trkpt lat="46.05636" lon="4.49583">
        <ele>403</ele>
        <time>2016-11-27T09:09:56.000Z</time>
      </trkpt>
      <trkpt lat="46.05634" lon="4.49585">
        <ele>404</ele>
        <time>2016-11-27T09:09:57.000Z</time>
      </trkpt>
      <trkpt lat="46.05631" lon="4.49587">
        <ele>405</ele>
        <time>2016-11-27T09:09:58.000Z</time>
      </trkpt>
      <trkpt lat="46.05628" lon="4.49589">
        <ele>406</ele>
        <time>2016-11-27T09:09:59.000Z</time>
      </trkpt>
      <trkpt lat="46.05625" lon="4.4959">
        <ele>406</ele>
        <time>2016-11-27T09:10:00.000Z</time>
      </trkpt>
      <trkpt lat="46.05622" lon="4.49592">
        <ele>406</ele>
        <time>2016-11-27T09:10:01.000Z</time>
      </trkpt>
      <trkpt lat="46.05619" lon="4.49592">
        <ele>406</ele>
        <time>2016-11-27T09:10:02.000Z</time>
      </trkpt>
      <trkpt lat="46.05617" lon="4.49593">
        <ele>406</ele>
        <time>2016-11-27T09:10:03.000Z</time>
      </trkpt>
      <trkpt lat="46.05614" lon="4.49594">
        <ele>406</ele>
        <time>2016-11-27T09:10:04.000Z</time>
      </trkpt>
      <trkpt lat="46.05611" lon="4.49595">
        <ele>407</ele>
        <time>2016-11-27T09:10:05.000Z</time>
      </trkpt>
      <trkpt lat="46.05607" lon="4.49596">
        <ele>407</ele>
        <time>2016-11-27T09:10:06.000Z</time>
      </trkpt>
      <trkpt lat="46.05604" lon="4.49597">
        <ele>408</ele>
        <time>2016-11-27T09:10:07.000Z</time>
      </trkpt>
      <trkpt lat="46.05602" lon="4.49598">
        <ele>408</ele>
        <time>2016-11-27T09:10:08.000Z</time>
      </trkpt>
      <trkpt lat="46.05599" lon="4.49599">
        <ele>408</ele>
        <time>2016-11-27T09:10:09.000Z</time>
      </trkpt>
      <trkpt lat="46.05596" lon="4.49601">
        <ele>409</ele>
        <time>2016-11-27T09:10:10.000Z</time>
      </trkpt>
      <trkpt lat="46.05593" lon="4.49602">
        <ele>409</ele>
        <time>2016-11-27T09:10:11.000Z</time>
      </trkpt>
      <trkpt lat="46.0559" lon="4.49603">
        <ele>409</ele>
        <time>2016-11-27T09:10:12.000Z</time>
      </trkpt>
      <trkpt lat="46.05587" lon="4.49604">
        <ele>408</ele>
        <time>2016-11-27T09:10:13.000Z</time>
      </trkpt>
      <trkpt lat="46.05584" lon="4.49605">
        <ele>408</ele>
        <time>2016-11-27T09:10:14.000Z</time>
      </trkpt>
      <trkpt lat="46.05582" lon="4.49607">
        <ele>408</ele>
        <time>2016-11-27T09:10:15.000Z</time>
      </trkpt>
      <trkpt lat="46.05579" lon="4.49608">
        <ele>408</ele>
        <time>2016-11-27T09:10:16.000Z</time>
      </trkpt>
      <trkpt lat="46.05576" lon="4.49609">
        <ele>408</ele>
        <time>2016-11-27T09:10:17.000Z</time>
      </trkpt>
      <trkpt lat="46.05573" lon="4.4961">
        <ele>408</ele>
        <time>2016-11-27T09:10:18.000Z</time>
      </trkpt>
      <trkpt lat="46.0557" lon="4.49611">
        <ele>408</ele>
        <time>2016-11-27T09:10:19.000Z</time>
      </trkpt>
      <trkpt lat="46.05568" lon="4.49612">
        <ele>408</ele>
        <time>2016-11-27T09:10:20.000Z</time>
      </trkpt>
      <trkpt lat="46.05566" lon="4.49613">
        <ele>408</ele>
        <time>2016-11-27T09:10:21.000Z</time>
      </trkpt>
      <trkpt lat="46.05563" lon="4.49615">
        <ele>409</ele>
        <time>2016-11-27T09:10:22.000Z</time>
      </trkpt>
      <trkpt lat="46.05561" lon="4.49616">
        <ele>409</ele>
        <time>2016-11-27T09:10:23.000Z</time>
      </trkpt>
      <trkpt lat="46.05558" lon="4.49617">
        <ele>409</ele>
        <time>2016-11-27T09:10:24.000Z</time>
      </trkpt>
      <trkpt lat="46.05555" lon="4.49618">
        <ele>409</ele>
        <time>2016-11-27T09:10:25.000Z</time>
      </trkpt>
      <trkpt lat="46.05553" lon="4.49619">
        <ele>409</ele>
        <time>2016-11-27T09:10:26.000Z</time>
      </trkpt>
      <trkpt lat="46.0555" lon="4.49621">
        <ele>409</ele>
        <time>2016-11-27T09:10:27.000Z</time>
      </trkpt>
      <trkpt lat="46.05548" lon="4.49622">
        <ele>410</ele>
        <time>2016-11-27T09:10:28.000Z</time>
      </trkpt>
      <trkpt lat="46.05545" lon="4.49624">
        <ele>410</ele>
        <time>2016-11-27T09:10:29.000Z</time>
      </trkpt>
      <trkpt lat="46.05543" lon="4.49625">
        <ele>409</ele>
        <time>2016-11-27T09:10:30.000Z</time>
      </trkpt>
      <trkpt lat="46.05541" lon="4.49626">
        <ele>410</ele>
        <time>2016-11-27T09:10:31.000Z</time>
      </trkpt>
      <trkpt lat="46.05538" lon="4.49627">
        <ele>410</ele>
        <time>2016-11-27T09:10:32.000Z</time>
      </trkpt>
      <trkpt lat="46.05536" lon="4.49628">
        <ele>411</ele>
        <time>2016-11-27T09:10:33.000Z</time>
      </trkpt>
      <trkpt lat="46.05534" lon="4.4963">
        <ele>410</ele>
        <time>2016-11-27T09:10:34.000Z</time>
      </trkpt>
      <trkpt lat="46.05532" lon="4.49631">
        <ele>411</ele>
        <time>2016-11-27T09:10:35.000Z</time>
      </trkpt>
      <trkpt lat="46.05529" lon="4.49633">
        <ele>411</ele>
        <time>2016-11-27T09:10:36.000Z</time>
      </trkpt>
      <trkpt lat="46.05527" lon="4.49635">
        <ele>411</ele>
        <time>2016-11-27T09:10:37.000Z</time>
      </trkpt>
      <trkpt lat="46.05524" lon="4.49636">
        <ele>411</ele>
        <time>2016-11-27T09:10:38.000Z</time>
      </trkpt>
      <trkpt lat="46.05522" lon="4.49638">
        <ele>410</ele>
        <time>2016-11-27T09:10:39.000Z</time>
      </trkpt>
      <trkpt lat="46.05519" lon="4.4964">
        <ele>410</ele>
        <time>2016-11-27T09:10:40.000Z</time>
      </trkpt>
      <trkpt lat="46.05517" lon="4.49642">
        <ele>410</ele>
        <time>2016-11-27T09:10:41.000Z</time>
      </trkpt>
      <trkpt lat="46.05514" lon="4.49644">
        <ele>410</ele>
        <time>2016-11-27T09:10:42.000Z</time>
      </trkpt>
      <trkpt lat="46.05512" lon="4.49646">
        <ele>411</ele>
        <time>2016-11-27T09:10:43.000Z</time>
      </trkpt>
      <trkpt lat="46.05509" lon="4.49648">
        <ele>410</ele>
        <time>2016-11-27T09:10:44.000Z</time>
      </trkpt>
      <trkpt lat="46.05506" lon="4.49649">
        <ele>410</ele>
        <time>2016-11-27T09:10:45.000Z</time>
      </trkpt>
      <trkpt lat="46.05503" lon="4.49651">
        <ele>410</ele>
        <time>2016-11-27T09:10:46.000Z</time>
      </trkpt>
      <trkpt lat="46.055" lon="4.49652">
        <ele>409</ele>
        <time>2016-11-27T09:10:47.000Z</time>
      </trkpt>
      <trkpt lat="46.05497" lon="4.49654">
        <ele>409</ele>
        <time>2016-11-27T09:10:48.000Z</time>
      </trkpt>
      <trkpt lat="46.05494" lon="4.49655">
        <ele>409</ele>
        <time>2016-11-27T09:10:49.000Z</time>
      </trkpt>
      <trkpt lat="46.05491" lon="4.49657">
        <ele>409</ele>
        <time>2016-11-27T09:10:50.000Z</time>
      </trkpt>
      <trkpt lat="46.05488" lon="4.49659">
        <ele>409</ele>
        <time>2016-11-27T09:10:51.000Z</time>
      </trkpt>
      <trkpt lat="46.05486" lon="4.49661">
        <ele>409</ele>
        <time>2016-11-27T09:10:52.000Z</time>
      </trkpt>
      <trkpt lat="46.05483" lon="4.49664">
        <ele>409</ele>
        <time>2016-11-27T09:10:53.000Z</time>
      </trkpt>
      <trkpt lat="46.05481" lon="4.49666">
        <ele>410</ele>
        <time>2016-11-27T09:10:54.000Z</time>
      </trkpt>
      <trkpt lat="46.0548" lon="4.49669">
        <ele>410</ele>
        <time>2016-11-27T09:10:55.000Z</time>
      </trkpt>
      <trkpt lat="46.05478" lon="4.49672">
        <ele>409</ele>
        <time>2016-11-27T09:10:56.000Z</time>
      </trkpt>
      <trkpt lat="46.05477" lon="4.49675">
        <ele>409</ele>
        <time>2016-11-27T09:10:57.000Z</time>
      </trkpt>
      <trkpt lat="46.05475" lon="4.49678">
        <ele>408</ele>
        <time>2016-11-27T09:10:58.000Z</time>
      </trkpt>
      <trkpt lat="46.05473" lon="4.49681">
        <ele>409</ele>
        <time>2016-11-27T09:10:59.000Z</time>
      </trkpt>
      <trkpt lat="46.05471" lon="4.49684">
        <ele>408</ele>
        <time>2016-11-27T09:11:00.000Z</time>
      </trkpt>
      <trkpt lat="46.05468" lon="4.49687">
        <ele>408</ele>
        <time>2016-11-27T09:11:01.000Z</time>
      </trkpt>
      <trkpt lat="46.05466" lon="4.49689">
        <ele>409</ele>
        <time>2016-11-27T09:11:02.000Z</time>
      </trkpt>
      <trkpt lat="46.05463" lon="4.49691">
        <ele>409</ele>
        <time>2016-11-27T09:11:03.000Z</time>
      </trkpt>
      <trkpt lat="46.05461" lon="4.49692">
        <ele>410</ele>
        <time>2016-11-27T09:11:04.000Z</time>
      </trkpt>
      <trkpt lat="46.05459" lon="4.49694">
        <ele>411</ele>
        <time>2016-11-27T09:11:05.000Z</time>
      </trkpt>
      <trkpt lat="46.05456" lon="4.49696">
        <ele>413</ele>
        <time>2016-11-27T09:11:06.000Z</time>
      </trkpt>
      <trkpt lat="46.05453" lon="4.49697">
        <ele>412</ele>
        <time>2016-11-27T09:11:07.000Z</time>
      </trkpt>
      <trkpt lat="46.0545" lon="4.49698">
        <ele>413</ele>
        <time>2016-11-27T09:11:08.000Z</time>
      </trkpt>
      <trkpt lat="46.05447" lon="4.49698">
        <ele>413</ele>
        <time>2016-11-27T09:11:09.000Z</time>
      </trkpt>
      <trkpt lat="46.05445" lon="4.49698">
        <ele>414</ele>
        <time>2016-11-27T09:11:10.000Z</time>
      </trkpt>
      <trkpt lat="46.05442" lon="4.49699">
        <ele>414</ele>
        <time>2016-11-27T09:11:11.000Z</time>
      </trkpt>
      <trkpt lat="46.05439" lon="4.49699">
        <ele>416</ele>
        <time>2016-11-27T09:11:12.000Z</time>
      </trkpt>
      <trkpt lat="46.05437" lon="4.497">
        <ele>416</ele>
        <time>2016-11-27T09:11:13.000Z</time>
      </trkpt>
      <trkpt lat="46.05434" lon="4.497">
        <ele>416</ele>
        <time>2016-11-27T09:11:14.000Z</time>
      </trkpt>
      <trkpt lat="46.05431" lon="4.497">
        <ele>416</ele>
        <time>2016-11-27T09:11:15.000Z</time>
      </trkpt>
      <trkpt lat="46.05428" lon="4.49699">
        <ele>417</ele>
        <time>2016-11-27T09:11:16.000Z</time>
      </trkpt>
      <trkpt lat="46.05426" lon="4.49699">
        <ele>417</ele>
        <time>2016-11-27T09:11:17.000Z</time>
      </trkpt>
      <trkpt lat="46.05424" lon="4.497">
        <ele>416</ele>
        <time>2016-11-27T09:11:18.000Z</time>
      </trkpt>
      <trkpt lat="46.05422" lon="4.497">
        <ele>415</ele>
        <time>2016-11-27T09:11:19.000Z</time>
      </trkpt>
      <trkpt lat="46.0542" lon="4.49701">
        <ele>416</ele>
        <time>2016-11-27T09:11:20.000Z</time>
      </trkpt>
      <trkpt lat="46.05417" lon="4.49702">
        <ele>416</ele>
        <time>2016-11-27T09:11:21.000Z</time>
      </trkpt>
      <trkpt lat="46.05414" lon="4.49702">
        <ele>416</ele>
        <time>2016-11-27T09:11:22.000Z</time>
      </trkpt>
      <trkpt lat="46.05411" lon="4.49703">
        <ele>416</ele>
        <time>2016-11-27T09:11:23.000Z</time>
      </trkpt>
      <trkpt lat="46.05408" lon="4.49704">
        <ele>416</ele>
        <time>2016-11-27T09:11:24.000Z</time>
      </trkpt>
      <trkpt lat="46.05406" lon="4.49706">
        <ele>416</ele>
        <time>2016-11-27T09:11:25.000Z</time>
      </trkpt>
      <trkpt lat="46.05404" lon="4.49707">
        <ele>416</ele>
        <time>2016-11-27T09:11:26.000Z</time>
      </trkpt>
      <trkpt lat="46.05401" lon="4.49708">
        <ele>417</ele>
        <time>2016-11-27T09:11:27.000Z</time>
      </trkpt>
      <trkpt lat="46.05398" lon="4.49709">
        <ele>417</ele>
        <time>2016-11-27T09:11:28.000Z</time>
      </trkpt>
      <trkpt lat="46.05396" lon="4.49711">
        <ele>417</ele>
        <time>2016-11-27T09:11:29.000Z</time>
      </trkpt>
      <trkpt lat="46.05393" lon="4.49712">
        <ele>416</ele>
        <time>2016-11-27T09:11:30.000Z</time>
      </trkpt>
      <trkpt lat="46.0539" lon="4.49714">
        <ele>417</ele>
        <time>2016-11-27T09:11:31.000Z</time>
      </trkpt>
      <trkpt lat="46.05388" lon="4.49715">
        <ele>418</ele>
        <time>2016-11-27T09:11:32.000Z</time>
      </trkpt>
      <trkpt lat="46.05385" lon="4.49717">
        <ele>418</ele>
        <time>2016-11-27T09:11:33.000Z</time>
      </trkpt>
      <trkpt lat="46.05383" lon="4.49718">
        <ele>417</ele>
        <time>2016-11-27T09:11:34.000Z</time>
      </trkpt>
      <trkpt lat="46.05381" lon="4.4972">
        <ele>417</ele>
        <time>2016-11-27T09:11:35.000Z</time>
      </trkpt>
      <trkpt lat="46.05379" lon="4.49722">
        <ele>417</ele>
        <time>2016-11-27T09:11:36.000Z</time>
      </trkpt>
      <trkpt lat="46.05377" lon="4.49724">
        <ele>418</ele>
        <time>2016-11-27T09:11:37.000Z</time>
      </trkpt>
      <trkpt lat="46.05375" lon="4.49726">
        <ele>418</ele>
        <time>2016-11-27T09:11:38.000Z</time>
      </trkpt>
      <trkpt lat="46.05372" lon="4.49728">
        <ele>418</ele>
        <time>2016-11-27T09:11:39.000Z</time>
      </trkpt>
      <trkpt lat="46.0537" lon="4.4973">
        <ele>417</ele>
        <time>2016-11-27T09:11:40.000Z</time>
      </trkpt>
      <trkpt lat="46.05368" lon="4.49732">
        <ele>417</ele>
        <time>2016-11-27T09:11:41.000Z</time>
      </trkpt>
      <trkpt lat="46.05366" lon="4.49734">
        <ele>418</ele>
        <time>2016-11-27T09:11:42.000Z</time>
      </trkpt>
      <trkpt lat="46.05365" lon="4.49737">
        <ele>417</ele>
        <time>2016-11-27T09:11:43.000Z</time>
      </trkpt>
      <trkpt lat="46.05363" lon="4.49741">
        <ele>416</ele>
        <time>2016-11-27T09:11:44.000Z</time>
      </trkpt>
      <trkpt lat="46.05362" lon="4.49744">
        <ele>415</ele>
        <time>2016-11-27T09:11:45.000Z</time>
      </trkpt>
      <trkpt lat="46.05361" lon="4.49748">
        <ele>415</ele>
        <time>2016-11-27T09:11:46.000Z</time>
      </trkpt>
      <trkpt lat="46.0536" lon="4.49752">
        <ele>414</ele>
        <time>2016-11-27T09:11:47.000Z</time>
      </trkpt>
      <trkpt lat="46.05358" lon="4.49755">
        <ele>414</ele>
        <time>2016-11-27T09:11:48.000Z</time>
      </trkpt>
      <trkpt lat="46.05357" lon="4.49758">
        <ele>414</ele>
        <time>2016-11-27T09:11:49.000Z</time>
      </trkpt>
      <trkpt lat="46.05355" lon="4.49761">
        <ele>415</ele>
        <time>2016-11-27T09:11:50.000Z</time>
      </trkpt>
      <trkpt lat="46.05353" lon="4.49764">
        <ele>415</ele>
        <time>2016-11-27T09:11:51.000Z</time>
      </trkpt>
      <trkpt lat="46.05351" lon="4.49767">
        <ele>416</ele>
        <time>2016-11-27T09:11:52.000Z</time>
      </trkpt>
      <trkpt lat="46.05349" lon="4.4977">
        <ele>417</ele>
        <time>2016-11-27T09:11:53.000Z</time>
      </trkpt>
      <trkpt lat="46.05347" lon="4.49773">
        <ele>416</ele>
        <time>2016-11-27T09:11:54.000Z</time>
      </trkpt>
      <trkpt lat="46.05345" lon="4.49775">
        <ele>417</ele>
        <time>2016-11-27T09:11:55.000Z</time>
      </trkpt>
      <trkpt lat="46.05342" lon="4.49777">
        <ele>417</ele>
        <time>2016-11-27T09:11:56.000Z</time>
      </trkpt>
      <trkpt lat="46.05339" lon="4.49779">
        <ele>418</ele>
        <time>2016-11-27T09:11:57.000Z</time>
      </trkpt>
      <trkpt lat="46.05336" lon="4.4978">
        <ele>417</ele>
        <time>2016-11-27T09:11:58.000Z</time>
      </trkpt>
      <trkpt lat="46.05333" lon="4.49781">
        <ele>418</ele>
        <time>2016-11-27T09:11:59.000Z</time>
      </trkpt>
      <trkpt lat="46.0533" lon="4.49781">
        <ele>417</ele>
        <time>2016-11-27T09:12:00.000Z</time>
      </trkpt>
      <trkpt lat="46.05327" lon="4.49781">
        <ele>417</ele>
        <time>2016-11-27T09:12:01.000Z</time>
      </trkpt>
      <trkpt lat="46.05324" lon="4.49781">
        <ele>418</ele>
        <time>2016-11-27T09:12:02.000Z</time>
      </trkpt>
      <trkpt lat="46.05321" lon="4.49781">
        <ele>419</ele>
        <time>2016-11-27T09:12:03.000Z</time>
      </trkpt>
      <trkpt lat="46.05319" lon="4.49781">
        <ele>419</ele>
        <time>2016-11-27T09:12:04.000Z</time>
      </trkpt>
      <trkpt lat="46.05316" lon="4.4978">
        <ele>419</ele>
        <time>2016-11-27T09:12:05.000Z</time>
      </trkpt>
      <trkpt lat="46.05313" lon="4.49779">
        <ele>419</ele>
        <time>2016-11-27T09:12:06.000Z</time>
      </trkpt>
      <trkpt lat="46.05311" lon="4.49778">
        <ele>420</ele>
        <time>2016-11-27T09:12:07.000Z</time>
      </trkpt>
      <trkpt lat="46.05309" lon="4.49777">
        <ele>421</ele>
        <time>2016-11-27T09:12:08.000Z</time>
      </trkpt>
      <trkpt lat="46.05307" lon="4.49777">
        <ele>420</ele>
        <time>2016-11-27T09:12:09.000Z</time>
      </trkpt>
      <trkpt lat="46.05304" lon="4.49776">
        <ele>421</ele>
        <time>2016-11-27T09:12:10.000Z</time>
      </trkpt>
      <trkpt lat="46.05302" lon="4.49776">
        <ele>422</ele>
        <time>2016-11-27T09:12:11.000Z</time>
      </trkpt>
      <trkpt lat="46.053" lon="4.49775">
        <ele>422</ele>
        <time>2016-11-27T09:12:12.000Z</time>
      </trkpt>
      <trkpt lat="46.05298" lon="4.49774">
        <ele>421</ele>
        <time>2016-11-27T09:12:13.000Z</time>
      </trkpt>
      <trkpt lat="46.05296" lon="4.49773">
        <ele>422</ele>
        <time>2016-11-27T09:12:14.000Z</time>
      </trkpt>
      <trkpt lat="46.05293" lon="4.49773">
        <ele>423</ele>
        <time>2016-11-27T09:12:15.000Z</time>
      </trkpt>
      <trkpt lat="46.05291" lon="4.49773">
        <ele>423</ele>
        <time>2016-11-27T09:12:16.000Z</time>
      </trkpt>
      <trkpt lat="46.05288" lon="4.49773">
        <ele>424</ele>
        <time>2016-11-27T09:12:17.000Z</time>
      </trkpt>
      <trkpt lat="46.05286" lon="4.49774">
        <ele>424</ele>
        <time>2016-11-27T09:12:18.000Z</time>
      </trkpt>
      <trkpt lat="46.05283" lon="4.49775">
        <ele>424</ele>
        <time>2016-11-27T09:12:19.000Z</time>
      </trkpt>
      <trkpt lat="46.05281" lon="4.49776">
        <ele>424</ele>
        <time>2016-11-27T09:12:20.000Z</time>
      </trkpt>
      <trkpt lat="46.05278" lon="4.49776">
        <ele>425</ele>
        <time>2016-11-27T09:12:21.000Z</time>
      </trkpt>
      <trkpt lat="46.05275" lon="4.49777">
        <ele>426</ele>
        <time>2016-11-27T09:12:22.000Z</time>
      </trkpt>
      <trkpt lat="46.05272" lon="4.49777">
        <ele>427</ele>
        <time>2016-11-27T09:12:23.000Z</time>
      </trkpt>
      <trkpt lat="46.05269" lon="4.49778">
        <ele>427</ele>
        <time>2016-11-27T09:12:24.000Z</time>
      </trkpt>
      <trkpt lat="46.05267" lon="4.49779">
        <ele>427</ele>
        <time>2016-11-27T09:12:25.000Z</time>
      </trkpt>
      <trkpt lat="46.05265" lon="4.49779">
        <ele>428</ele>
        <time>2016-11-27T09:12:26.000Z</time>
      </trkpt>
      <trkpt lat="46.05263" lon="4.4978">
        <ele>429</ele>
        <time>2016-11-27T09:12:27.000Z</time>
      </trkpt>
      <trkpt lat="46.0526" lon="4.4978">
        <ele>427</ele>
        <time>2016-11-27T09:12:28.000Z</time>
      </trkpt>
      <trkpt lat="46.05258" lon="4.49781">
        <ele>428</ele>
        <time>2016-11-27T09:12:29.000Z</time>
      </trkpt>
      <trkpt lat="46.05255" lon="4.49782">
        <ele>427</ele>
        <time>2016-11-27T09:12:30.000Z</time>
      </trkpt>
      <trkpt lat="46.05252" lon="4.49783">
        <ele>427</ele>
        <time>2016-11-27T09:12:31.000Z</time>
      </trkpt>
      <trkpt lat="46.0525" lon="4.49783">
        <ele>428</ele>
        <time>2016-11-27T09:12:32.000Z</time>
      </trkpt>
      <trkpt lat="46.05247" lon="4.49784">
        <ele>427</ele>
        <time>2016-11-27T09:12:33.000Z</time>
      </trkpt>
      <trkpt lat="46.05245" lon="4.49785">
        <ele>427</ele>
        <time>2016-11-27T09:12:34.000Z</time>
      </trkpt>
      <trkpt lat="46.05242" lon="4.49785">
        <ele>426</ele>
        <time>2016-11-27T09:12:35.000Z</time>
      </trkpt>
      <trkpt lat="46.05239" lon="4.49786">
        <ele>427</ele>
        <time>2016-11-27T09:12:36.000Z</time>
      </trkpt>
      <trkpt lat="46.05236" lon="4.49786">
        <ele>427</ele>
        <time>2016-11-27T09:12:37.000Z</time>
      </trkpt>
      <trkpt lat="46.05234" lon="4.49787">
        <ele>427</ele>
        <time>2016-11-27T09:12:38.000Z</time>
      </trkpt>
      <trkpt lat="46.05232" lon="4.49787">
        <ele>426</ele>
        <time>2016-11-27T09:12:39.000Z</time>
      </trkpt>
      <trkpt lat="46.0523" lon="4.49787">
        <ele>427</ele>
        <time>2016-11-27T09:12:40.000Z</time>
      </trkpt>
      <trkpt lat="46.05228" lon="4.49787">
        <ele>428</ele>
        <time>2016-11-27T09:12:41.000Z</time>
      </trkpt>
      <trkpt lat="46.05226" lon="4.49788">
        <ele>428</ele>
        <time>2016-11-27T09:12:42.000Z</time>
      </trkpt>
      <trkpt lat="46.05223" lon="4.49789">
        <ele>427</ele>
        <time>2016-11-27T09:12:43.000Z</time>
      </trkpt>
      <trkpt lat="46.0522" lon="4.49789">
        <ele>428</ele>
        <time>2016-11-27T09:12:44.000Z</time>
      </trkpt>
      <trkpt lat="46.05217" lon="4.4979">
        <ele>427</ele>
        <time>2016-11-27T09:12:45.000Z</time>
      </trkpt>
      <trkpt lat="46.05214" lon="4.49791">
        <ele>427</ele>
        <time>2016-11-27T09:12:46.000Z</time>
      </trkpt>
      <trkpt lat="46.05211" lon="4.49791">
        <ele>428</ele>
        <time>2016-11-27T09:12:47.000Z</time>
      </trkpt>
      <trkpt lat="46.05208" lon="4.49792">
        <ele>427</ele>
        <time>2016-11-27T09:12:48.000Z</time>
      </trkpt>
      <trkpt lat="46.05206" lon="4.49792">
        <ele>427</ele>
        <time>2016-11-27T09:12:49.000Z</time>
      </trkpt>
      <trkpt lat="46.05204" lon="4.49793">
        <ele>428</ele>
        <time>2016-11-27T09:12:50.000Z</time>
      </trkpt>
      <trkpt lat="46.05201" lon="4.49794">
        <ele>427</ele>
        <time>2016-11-27T09:12:51.000Z</time>
      </trkpt>
      <trkpt lat="46.05199" lon="4.49795">
        <ele>426</ele>
        <time>2016-11-27T09:12:52.000Z</time>
      </trkpt>
      <trkpt lat="46.05196" lon="4.49796">
        <ele>427</ele>
        <time>2016-11-27T09:12:53.000Z</time>
      </trkpt>
      <trkpt lat="46.05193" lon="4.49797">
        <ele>428</ele>
        <time>2016-11-27T09:12:54.000Z</time>
      </trkpt>
      <trkpt lat="46.0519" lon="4.49799">
        <ele>427</ele>
        <time>2016-11-27T09:12:55.000Z</time>
      </trkpt>
      <trkpt lat="46.05187" lon="4.498">
        <ele>428</ele>
        <time>2016-11-27T09:12:56.000Z</time>
      </trkpt>
      <trkpt lat="46.05184" lon="4.49801">
        <ele>429</ele>
        <time>2016-11-27T09:12:57.000Z</time>
      </trkpt>
      <trkpt lat="46.05181" lon="4.49802">
        <ele>430</ele>
        <time>2016-11-27T09:12:58.000Z</time>
      </trkpt>
      <trkpt lat="46.05179" lon="4.49803">
        <ele>434</ele>
        <time>2016-11-27T09:12:59.000Z</time>
      </trkpt>
      <trkpt lat="46.05176" lon="4.49803">
        <ele>434</ele>
        <time>2016-11-27T09:13:00.000Z</time>
      </trkpt>
      <trkpt lat="46.05174" lon="4.49803">
        <ele>435</ele>
        <time>2016-11-27T09:13:01.000Z</time>
      </trkpt>
      <trkpt lat="46.05172" lon="4.49804">
        <ele>436</ele>
        <time>2016-11-27T09:13:02.000Z</time>
      </trkpt>
      <trkpt lat="46.05169" lon="4.49805">
        <ele>438</ele>
        <time>2016-11-27T09:13:03.000Z</time>
      </trkpt>
      <trkpt lat="46.05166" lon="4.49805">
        <ele>440</ele>
        <time>2016-11-27T09:13:04.000Z</time>
      </trkpt>
      <trkpt lat="46.05163" lon="4.49806">
        <ele>440</ele>
        <time>2016-11-27T09:13:05.000Z</time>
      </trkpt>
      <trkpt lat="46.0516" lon="4.49805">
        <ele>440</ele>
        <time>2016-11-27T09:13:06.000Z</time>
      </trkpt>
      <trkpt lat="46.05157" lon="4.49805">
        <ele>439</ele>
        <time>2016-11-27T09:13:07.000Z</time>
      </trkpt>
      <trkpt lat="46.05154" lon="4.49805">
        <ele>439</ele>
        <time>2016-11-27T09:13:08.000Z</time>
      </trkpt>
      <trkpt lat="46.05151" lon="4.49805">
        <ele>440</ele>
        <time>2016-11-27T09:13:09.000Z</time>
      </trkpt>
      <trkpt lat="46.05148" lon="4.49806">
        <ele>440</ele>
        <time>2016-11-27T09:13:10.000Z</time>
      </trkpt>
      <trkpt lat="46.05146" lon="4.49806">
        <ele>440</ele>
        <time>2016-11-27T09:13:11.000Z</time>
      </trkpt>
      <trkpt lat="46.05143" lon="4.49806">
        <ele>439</ele>
        <time>2016-11-27T09:13:12.000Z</time>
      </trkpt>
      <trkpt lat="46.0514" lon="4.49805">
        <ele>437</ele>
        <time>2016-11-27T09:13:13.000Z</time>
      </trkpt>
      <trkpt lat="46.05136" lon="4.49804">
        <ele>434</ele>
        <time>2016-11-27T09:13:14.000Z</time>
      </trkpt>
      <trkpt lat="46.05133" lon="4.49802">
        <ele>433</ele>
        <time>2016-11-27T09:13:15.000Z</time>
      </trkpt>
      <trkpt lat="46.05131" lon="4.498">
        <ele>433</ele>
        <time>2016-11-27T09:13:16.000Z</time>
      </trkpt>
      <trkpt lat="46.05129" lon="4.49799">
        <ele>433</ele>
        <time>2016-11-27T09:13:17.000Z</time>
      </trkpt>
      <trkpt lat="46.05127" lon="4.49798">
        <ele>433</ele>
        <time>2016-11-27T09:13:18.000Z</time>
      </trkpt>
      <trkpt lat="46.05125" lon="4.49798">
        <ele>433</ele>
        <time>2016-11-27T09:13:19.000Z</time>
      </trkpt>
      <trkpt lat="46.05124" lon="4.49797">
        <ele>432</ele>
        <time>2016-11-27T09:13:20.000Z</time>
      </trkpt>
      <trkpt lat="46.05124" lon="4.49797">
        <ele>432</ele>
        <time>2016-11-27T09:13:21.000Z</time>
      </trkpt>
      <trkpt lat="46.05123" lon="4.49797">
        <ele>432</ele>
        <time>2016-11-27T09:13:22.000Z</time>
      </trkpt>
      <trkpt lat="46.05123" lon="4.49796">
        <ele>433</ele>
        <time>2016-11-27T09:13:23.000Z</time>
      </trkpt>
      <trkpt lat="46.05123" lon="4.49796">
        <ele>432</ele>
        <time>2016-11-27T09:13:24.000Z</time>
      </trkpt>
      <trkpt lat="46.05122" lon="4.49796">
        <ele>433</ele>
        <time>2016-11-27T09:13:25.000Z</time>
      </trkpt>
      <trkpt lat="46.05121" lon="4.49795">
        <ele>432</ele>
        <time>2016-11-27T09:13:26.000Z</time>
      </trkpt>
      <trkpt lat="46.0512" lon="4.49794">
        <ele>432</ele>
        <time>2016-11-27T09:13:27.000Z</time>
      </trkpt>
      <trkpt lat="46.05119" lon="4.49793">
        <ele>431</ele>
        <time>2016-11-27T09:13:28.000Z</time>
      </trkpt>
      <trkpt lat="46.05119" lon="4.49792">
        <ele>431</ele>
        <time>2016-11-27T09:13:29.000Z</time>
      </trkpt>
      <trkpt lat="46.05118" lon="4.49791">
        <ele>431</ele>
        <time>2016-11-27T09:13:30.000Z</time>
      </trkpt>
      <trkpt lat="46.05117" lon="4.49791">
        <ele>431</ele>
        <time>2016-11-27T09:13:31.000Z</time>
      </trkpt>
      <trkpt lat="46.05115" lon="4.4979">
        <ele>431</ele>
        <time>2016-11-27T09:13:32.000Z</time>
      </trkpt>
      <trkpt lat="46.05114" lon="4.49789">
        <ele>432</ele>
        <time>2016-11-27T09:13:33.000Z</time>
      </trkpt>
      <trkpt lat="46.05113" lon="4.49789">
        <ele>432</ele>
        <time>2016-11-27T09:13:34.000Z</time>
      </trkpt>
      <trkpt lat="46.05111" lon="4.49789">
        <ele>431</ele>
        <time>2016-11-27T09:13:35.000Z</time>
      </trkpt>
      <trkpt lat="46.05109" lon="4.49789">
        <ele>432</ele>
        <time>2016-11-27T09:13:36.000Z</time>
      </trkpt>
      <trkpt lat="46.05107" lon="4.49788">
        <ele>432</ele>
        <time>2016-11-27T09:13:37.000Z</time>
      </trkpt>
      <trkpt lat="46.05105" lon="4.49788">
        <ele>432</ele>
        <time>2016-11-27T09:13:38.000Z</time>
      </trkpt>
      <trkpt lat="46.05102" lon="4.49788">
        <ele>432</ele>
        <time>2016-11-27T09:13:39.000Z</time>
      </trkpt>
      <trkpt lat="46.051" lon="4.49787">
        <ele>432</ele>
        <time>2016-11-27T09:13:40.000Z</time>
      </trkpt>
      <trkpt lat="46.05098" lon="4.49787">
        <ele>433</ele>
        <time>2016-11-27T09:13:41.000Z</time>
      </trkpt>
      <trkpt lat="46.05096" lon="4.49787">
        <ele>432</ele>
        <time>2016-11-27T09:13:42.000Z</time>
      </trkpt>
      <trkpt lat="46.05094" lon="4.49787">
        <ele>431</ele>
        <time>2016-11-27T09:13:43.000Z</time>
      </trkpt>
      <trkpt lat="46.05092" lon="4.49787">
        <ele>431</ele>
        <time>2016-11-27T09:13:44.000Z</time>
      </trkpt>
      <trkpt lat="46.0509" lon="4.49787">
        <ele>431</ele>
        <time>2016-11-27T09:13:45.000Z</time>
      </trkpt>
      <trkpt lat="46.05089" lon="4.49787">
        <ele>431</ele>
        <time>2016-11-27T09:13:46.000Z</time>
      </trkpt>
      <trkpt lat="46.05087" lon="4.49787">
        <ele>432</ele>
        <time>2016-11-27T09:13:47.000Z</time>
      </trkpt>
      <trkpt lat="46.05086" lon="4.49787">
        <ele>432</ele>
        <time>2016-11-27T09:13:48.000Z</time>
      </trkpt>
      <trkpt lat="46.05084" lon="4.49787">
        <ele>432</ele>
        <time>2016-11-27T09:13:49.000Z</time>
      </trkpt>
      <trkpt lat="46.05083" lon="4.49787">
        <ele>431</ele>
        <time>2016-11-27T09:13:50.000Z</time>
      </trkpt>
      <trkpt lat="46.05081" lon="4.49788">
        <ele>432</ele>
        <time>2016-11-27T09:13:51.000Z</time>
      </trkpt>
      <trkpt lat="46.0508" lon="4.49788">
        <ele>432</ele>
        <time>2016-11-27T09:13:52.000Z</time>
      </trkpt>
      <trkpt lat="46.05079" lon="4.49788">
        <ele>432</ele>
        <time>2016-11-27T09:13:53.000Z</time>
      </trkpt>
      <trkpt lat="46.05078" lon="4.49788">
        <ele>432</ele>
        <time>2016-11-27T09:13:54.000Z</time>
      </trkpt>
      <trkpt lat="46.05076" lon="4.49788">
        <ele>431</ele>
        <time>2016-11-27T09:13:55.000Z</time>
      </trkpt>
      <trkpt lat="46.05075" lon="4.49788">
        <ele>431</ele>
        <time>2016-11-27T09:13:56.000Z</time>
      </trkpt>
      <trkpt lat="46.05073" lon="4.49788">
        <ele>431</ele>
        <time>2016-11-27T09:13:57.000Z</time>
      </trkpt>
      <trkpt lat="46.05072" lon="4.49788">
        <ele>431</ele>
        <time>2016-11-27T09:13:58.000Z</time>
      </trkpt>
      <trkpt lat="46.0507" lon="4.49788">
        <ele>431</ele>
        <time>2016-11-27T09:13:59.000Z</time>
      </trkpt>
      <trkpt lat="46.05069" lon="4.49788">
        <ele>431</ele>
        <time>2016-11-27T09:14:00.000Z</time>
      </trkpt>
      <trkpt lat="46.05068" lon="4.49787">
        <ele>431</ele>
        <time>2016-11-27T09:14:01.000Z</time>
      </trkpt>
      <trkpt lat="46.05066" lon="4.49787">
        <ele>431</ele>
        <time>2016-11-27T09:14:02.000Z</time>
      </trkpt>
      <trkpt lat="46.05065" lon="4.49787">
        <ele>431</ele>
        <time>2016-11-27T09:14:03.000Z</time>
      </trkpt>
      <trkpt lat="46.05064" lon="4.49787">
        <ele>431</ele>
        <time>2016-11-27T09:14:04.000Z</time>
      </trkpt>
      <trkpt lat="46.05063" lon="4.49787">
        <ele>432</ele>
        <time>2016-11-27T09:14:05.000Z</time>
      </trkpt>
      <trkpt lat="46.05062" lon="4.49786">
        <ele>431</ele>
        <time>2016-11-27T09:14:06.000Z</time>
      </trkpt>
      <trkpt lat="46.0506" lon="4.49786">
        <ele>431</ele>
        <time>2016-11-27T09:14:07.000Z</time>
      </trkpt>
      <trkpt lat="46.05059" lon="4.49785">
        <ele>431</ele>
        <time>2016-11-27T09:14:08.000Z</time>
      </trkpt>
      <trkpt lat="46.05058" lon="4.49785">
        <ele>431</ele>
        <time>2016-11-27T09:14:09.000Z</time>
      </trkpt>
      <trkpt lat="46.05057" lon="4.49784">
        <ele>431</ele>
        <time>2016-11-27T09:14:10.000Z</time>
      </trkpt>
      <trkpt lat="46.05056" lon="4.49784">
        <ele>431</ele>
        <time>2016-11-27T09:14:11.000Z</time>
      </trkpt>
      <trkpt lat="46.05055" lon="4.49783">
        <ele>431</ele>
        <time>2016-11-27T09:14:12.000Z</time>
      </trkpt>
      <trkpt lat="46.05054" lon="4.49783">
        <ele>431</ele>
        <time>2016-11-27T09:14:13.000Z</time>
      </trkpt>
      <trkpt lat="46.05053" lon="4.49782">
        <ele>431</ele>
        <time>2016-11-27T09:14:14.000Z</time>
      </trkpt>
      <trkpt lat="46.05052" lon="4.49781">
        <ele>431</ele>
        <time>2016-11-27T09:14:15.000Z</time>
      </trkpt>
      <trkpt lat="46.05051" lon="4.4978">
        <ele>431</ele>
        <time>2016-11-27T09:14:16.000Z</time>
      </trkpt>
      <trkpt lat="46.0505" lon="4.4978">
        <ele>431</ele>
        <time>2016-11-27T09:14:17.000Z</time>
      </trkpt>
      <trkpt lat="46.05049" lon="4.49779">
        <ele>431</ele>
        <time>2016-11-27T09:14:18.000Z</time>
      </trkpt>
      <trkpt lat="46.05048" lon="4.49778">
        <ele>431</ele>
        <time>2016-11-27T09:14:19.000Z</time>
      </trkpt>
      <trkpt lat="46.05046" lon="4.49777">
        <ele>431</ele>
        <time>2016-11-27T09:14:20.000Z</time>
      </trkpt>
      <trkpt lat="46.05045" lon="4.49776">
        <ele>431</ele>
        <time>2016-11-27T09:14:21.000Z</time>
      </trkpt>
      <trkpt lat="46.05044" lon="4.49775">
        <ele>431</ele>
        <time>2016-11-27T09:14:22.000Z</time>
      </trkpt>
      <trkpt lat="46.05043" lon="4.49774">
        <ele>431</ele>
        <time>2016-11-27T09:14:23.000Z</time>
      </trkpt>
      <trkpt lat="46.05042" lon="4.49773">
        <ele>431</ele>
        <time>2016-11-27T09:14:24.000Z</time>
      </trkpt>
      <trkpt lat="46.05041" lon="4.49772">
        <ele>432</ele>
        <time>2016-11-27T09:14:25.000Z</time>
      </trkpt>
      <trkpt lat="46.0504" lon="4.49771">
        <ele>431</ele>
        <time>2016-11-27T09:14:26.000Z</time>
      </trkpt>
      <trkpt lat="46.05039" lon="4.4977">
        <ele>432</ele>
        <time>2016-11-27T09:14:27.000Z</time>
      </trkpt>
      <trkpt lat="46.05038" lon="4.49769">
        <ele>432</ele>
        <time>2016-11-27T09:14:28.000Z</time>
      </trkpt>
      <trkpt lat="46.05037" lon="4.49768">
        <ele>432</ele>
        <time>2016-11-27T09:14:29.000Z</time>
      </trkpt>
      <trkpt lat="46.05036" lon="4.49767">
        <ele>433</ele>
        <time>2016-11-27T09:14:30.000Z</time>
      </trkpt>
      <trkpt lat="46.05035" lon="4.49767">
        <ele>433</ele>
        <time>2016-11-27T09:14:31.000Z</time>
      </trkpt>
      <trkpt lat="46.05034" lon="4.49766">
        <ele>433</ele>
        <time>2016-11-27T09:14:32.000Z</time>
      </trkpt>
      <trkpt lat="46.05033" lon="4.49765">
        <ele>433</ele>
        <time>2016-11-27T09:14:33.000Z</time>
      </trkpt>
      <trkpt lat="46.05032" lon="4.49764">
        <ele>433</ele>
        <time>2016-11-27T09:14:34.000Z</time>
      </trkpt>
      <trkpt lat="46.0503" lon="4.49762">
        <ele>433</ele>
        <time>2016-11-27T09:14:35.000Z</time>
      </trkpt>
      <trkpt lat="46.05029" lon="4.49761">
        <ele>433</ele>
        <time>2016-11-27T09:14:36.000Z</time>
      </trkpt>
      <trkpt lat="46.05028" lon="4.4976">
        <ele>433</ele>
        <time>2016-11-27T09:14:37.000Z</time>
      </trkpt>
      <trkpt lat="46.05027" lon="4.49759">
        <ele>433</ele>
        <time>2016-11-27T09:14:38.000Z</time>
      </trkpt>
      <trkpt lat="46.05026" lon="4.49758">
        <ele>433</ele>
        <time>2016-11-27T09:14:39.000Z</time>
      </trkpt>
      <trkpt lat="46.05025" lon="4.49757">
        <ele>433</ele>
        <time>2016-11-27T09:14:40.000Z</time>
      </trkpt>
      <trkpt lat="46.05023" lon="4.49756">
        <ele>433</ele>
        <time>2016-11-27T09:14:41.000Z</time>
      </trkpt>
      <trkpt lat="46.05022" lon="4.49754">
        <ele>433</ele>
        <time>2016-11-27T09:14:42.000Z</time>
      </trkpt>
      <trkpt lat="46.0502" lon="4.49752">
        <ele>434</ele>
        <time>2016-11-27T09:14:43.000Z</time>
      </trkpt>
      <trkpt lat="46.05018" lon="4.4975">
        <ele>434</ele>
        <time>2016-11-27T09:14:44.000Z</time>
      </trkpt>
      <trkpt lat="46.05015" lon="4.49747">
        <ele>434</ele>
        <time>2016-11-27T09:14:45.000Z</time>
      </trkpt>
      <trkpt lat="46.05013" lon="4.49745">
        <ele>434</ele>
        <time>2016-11-27T09:14:46.000Z</time>
      </trkpt>
      <trkpt lat="46.05011" lon="4.49742">
        <ele>435</ele>
        <time>2016-11-27T09:14:47.000Z</time>
      </trkpt>
      <trkpt lat="46.05008" lon="4.4974">
        <ele>435</ele>
        <time>2016-11-27T09:14:48.000Z</time>
      </trkpt>
      <trkpt lat="46.05006" lon="4.49737">
        <ele>435</ele>
        <time>2016-11-27T09:14:49.000Z</time>
      </trkpt>
      <trkpt lat="46.05003" lon="4.49735">
        <ele>435</ele>
        <time>2016-11-27T09:14:50.000Z</time>
      </trkpt>
      <trkpt lat="46.05001" lon="4.49732">
        <ele>435</ele>
        <time>2016-11-27T09:14:51.000Z</time>
      </trkpt>
      <trkpt lat="46.04999" lon="4.49729">
        <ele>435</ele>
        <time>2016-11-27T09:14:52.000Z</time>
      </trkpt>
      <trkpt lat="46.04996" lon="4.49726">
        <ele>435</ele>
        <time>2016-11-27T09:14:53.000Z</time>
      </trkpt>
      <trkpt lat="46.04994" lon="4.49723">
        <ele>436</ele>
        <time>2016-11-27T09:14:54.000Z</time>
      </trkpt>
      <trkpt lat="46.04991" lon="4.49721">
        <ele>436</ele>
        <time>2016-11-27T09:14:55.000Z</time>
      </trkpt>
      <trkpt lat="46.04989" lon="4.49718">
        <ele>436</ele>
        <time>2016-11-27T09:14:56.000Z</time>
      </trkpt>
      <trkpt lat="46.04986" lon="4.49716">
        <ele>436</ele>
        <time>2016-11-27T09:14:57.000Z</time>
      </trkpt>
      <trkpt lat="46.04983" lon="4.49714">
        <ele>436</ele>
        <time>2016-11-27T09:14:58.000Z</time>
      </trkpt>
      <trkpt lat="46.0498" lon="4.49711">
        <ele>436</ele>
        <time>2016-11-27T09:14:59.000Z</time>
      </trkpt>
      <trkpt lat="46.04977" lon="4.49709">
        <ele>437</ele>
        <time>2016-11-27T09:15:00.000Z</time>
      </trkpt>
      <trkpt lat="46.04974" lon="4.49708">
        <ele>436</ele>
        <time>2016-11-27T09:15:01.000Z</time>
      </trkpt>
      <trkpt lat="46.04971" lon="4.49706">
        <ele>436</ele>
        <time>2016-11-27T09:15:02.000Z</time>
      </trkpt>
      <trkpt lat="46.04968" lon="4.49704">
        <ele>436</ele>
        <time>2016-11-27T09:15:03.000Z</time>
      </trkpt>
      <trkpt lat="46.04965" lon="4.49702">
        <ele>436</ele>
        <time>2016-11-27T09:15:04.000Z</time>
      </trkpt>
      <trkpt lat="46.04962" lon="4.49701">
        <ele>436</ele>
        <time>2016-11-27T09:15:05.000Z</time>
      </trkpt>
      <trkpt lat="46.04959" lon="4.497">
        <ele>436</ele>
        <time>2016-11-27T09:15:06.000Z</time>
      </trkpt>
      <trkpt lat="46.04957" lon="4.49699">
        <ele>436</ele>
        <time>2016-11-27T09:15:07.000Z</time>
      </trkpt>
      <trkpt lat="46.04954" lon="4.49697">
        <ele>436</ele>
        <time>2016-11-27T09:15:08.000Z</time>
      </trkpt>
      <trkpt lat="46.04951" lon="4.49696">
        <ele>436</ele>
        <time>2016-11-27T09:15:09.000Z</time>
      </trkpt>
      <trkpt lat="46.04948" lon="4.49695">
        <ele>436</ele>
        <time>2016-11-27T09:15:10.000Z</time>
      </trkpt>
      <trkpt lat="46.04945" lon="4.49694">
        <ele>437</ele>
        <time>2016-11-27T09:15:11.000Z</time>
      </trkpt>
      <trkpt lat="46.04942" lon="4.49693">
        <ele>437</ele>
        <time>2016-11-27T09:15:12.000Z</time>
      </trkpt>
      <trkpt lat="46.04939" lon="4.49692">
        <ele>437</ele>
        <time>2016-11-27T09:15:13.000Z</time>
      </trkpt>
      <trkpt lat="46.04936" lon="4.49691">
        <ele>437</ele>
        <time>2016-11-27T09:15:14.000Z</time>
      </trkpt>
      <trkpt lat="46.04933" lon="4.49691">
        <ele>437</ele>
        <time>2016-11-27T09:15:15.000Z</time>
      </trkpt>
      <trkpt lat="46.0493" lon="4.4969">
        <ele>437</ele>
        <time>2016-11-27T09:15:16.000Z</time>
      </trkpt>
      <trkpt lat="46.04927" lon="4.4969">
        <ele>437</ele>
        <time>2016-11-27T09:15:17.000Z</time>
      </trkpt>
      <trkpt lat="46.04924" lon="4.49689">
        <ele>438</ele>
        <time>2016-11-27T09:15:18.000Z</time>
      </trkpt>
      <trkpt lat="46.04921" lon="4.49689">
        <ele>438</ele>
        <time>2016-11-27T09:15:19.000Z</time>
      </trkpt>
      <trkpt lat="46.04918" lon="4.49688">
        <ele>438</ele>
        <time>2016-11-27T09:15:20.000Z</time>
      </trkpt>
      <trkpt lat="46.04915" lon="4.49687">
        <ele>437</ele>
        <time>2016-11-27T09:15:21.000Z</time>
      </trkpt>
      <trkpt lat="46.04911" lon="4.49686">
        <ele>437</ele>
        <time>2016-11-27T09:15:22.000Z</time>
      </trkpt>
      <trkpt lat="46.04908" lon="4.49686">
        <ele>437</ele>
        <time>2016-11-27T09:15:23.000Z</time>
      </trkpt>
      <trkpt lat="46.04905" lon="4.49685">
        <ele>438</ele>
        <time>2016-11-27T09:15:24.000Z</time>
      </trkpt>
      <trkpt lat="46.04902" lon="4.49685">
        <ele>438</ele>
        <time>2016-11-27T09:15:25.000Z</time>
      </trkpt>
      <trkpt lat="46.04899" lon="4.49684">
        <ele>438</ele>
        <time>2016-11-27T09:15:26.000Z</time>
      </trkpt>
      <trkpt lat="46.04896" lon="4.49684">
        <ele>438</ele>
        <time>2016-11-27T09:15:27.000Z</time>
      </trkpt>
      <trkpt lat="46.04893" lon="4.49684">
        <ele>438</ele>
        <time>2016-11-27T09:15:28.000Z</time>
      </trkpt>
      <trkpt lat="46.0489" lon="4.49683">
        <ele>438</ele>
        <time>2016-11-27T09:15:29.000Z</time>
      </trkpt>
      <trkpt lat="46.04887" lon="4.49683">
        <ele>438</ele>
        <time>2016-11-27T09:15:30.000Z</time>
      </trkpt>
      <trkpt lat="46.04884" lon="4.49682">
        <ele>438</ele>
        <time>2016-11-27T09:15:31.000Z</time>
      </trkpt>
      <trkpt lat="46.04881" lon="4.49682">
        <ele>438</ele>
        <time>2016-11-27T09:15:32.000Z</time>
      </trkpt>
      <trkpt lat="46.04878" lon="4.49681">
        <ele>439</ele>
        <time>2016-11-27T09:15:33.000Z</time>
      </trkpt>
      <trkpt lat="46.04875" lon="4.4968">
        <ele>439</ele>
        <time>2016-11-27T09:15:34.000Z</time>
      </trkpt>
      <trkpt lat="46.04873" lon="4.4968">
        <ele>439</ele>
        <time>2016-11-27T09:15:35.000Z</time>
      </trkpt>
      <trkpt lat="46.0487" lon="4.49679">
        <ele>439</ele>
        <time>2016-11-27T09:15:36.000Z</time>
      </trkpt>
      <trkpt lat="46.04867" lon="4.49678">
        <ele>439</ele>
        <time>2016-11-27T09:15:37.000Z</time>
      </trkpt>
      <trkpt lat="46.04864" lon="4.49678">
        <ele>438</ele>
        <time>2016-11-27T09:15:38.000Z</time>
      </trkpt>
      <trkpt lat="46.04861" lon="4.49677">
        <ele>439</ele>
        <time>2016-11-27T09:15:39.000Z</time>
      </trkpt>
      <trkpt lat="46.04858" lon="4.49676">
        <ele>439</ele>
        <time>2016-11-27T09:15:40.000Z</time>
      </trkpt>
      <trkpt lat="46.04855" lon="4.49675">
        <ele>439</ele>
        <time>2016-11-27T09:15:41.000Z</time>
      </trkpt>
      <trkpt lat="46.04852" lon="4.49675">
        <ele>439</ele>
        <time>2016-11-27T09:15:42.000Z</time>
      </trkpt>
      <trkpt lat="46.0485" lon="4.49674">
        <ele>439</ele>
        <time>2016-11-27T09:15:43.000Z</time>
      </trkpt>
      <trkpt lat="46.04847" lon="4.49674">
        <ele>439</ele>
        <time>2016-11-27T09:15:44.000Z</time>
      </trkpt>
      <trkpt lat="46.04844" lon="4.49674">
        <ele>439</ele>
        <time>2016-11-27T09:15:45.000Z</time>
      </trkpt>
      <trkpt lat="46.04841" lon="4.49673">
        <ele>439</ele>
        <time>2016-11-27T09:15:46.000Z</time>
      </trkpt>
      <trkpt lat="46.04839" lon="4.49673">
        <ele>440</ele>
        <time>2016-11-27T09:15:47.000Z</time>
      </trkpt>
      <trkpt lat="46.04836" lon="4.49673">
        <ele>440</ele>
        <time>2016-11-27T09:15:48.000Z</time>
      </trkpt>
      <trkpt lat="46.04834" lon="4.49673">
        <ele>440</ele>
        <time>2016-11-27T09:15:49.000Z</time>
      </trkpt>
      <trkpt lat="46.04831" lon="4.49673">
        <ele>440</ele>
        <time>2016-11-27T09:15:50.000Z</time>
      </trkpt>
      <trkpt lat="46.04829" lon="4.49673">
        <ele>440</ele>
        <time>2016-11-27T09:15:51.000Z</time>
      </trkpt>
      <trkpt lat="46.04826" lon="4.49674">
        <ele>439</ele>
        <time>2016-11-27T09:15:52.000Z</time>
      </trkpt>
      <trkpt lat="46.04823" lon="4.49674">
        <ele>440</ele>
        <time>2016-11-27T09:15:53.000Z</time>
      </trkpt>
      <trkpt lat="46.04821" lon="4.49674">
        <ele>440</ele>
        <time>2016-11-27T09:15:54.000Z</time>
      </trkpt>
      <trkpt lat="46.0482" lon="4.49675">
        <ele>440</ele>
        <time>2016-11-27T09:15:55.000Z</time>
      </trkpt>
      <trkpt lat="46.04819" lon="4.49675">
        <ele>440</ele>
        <time>2016-11-27T09:15:56.000Z</time>
      </trkpt>
      <trkpt lat="46.04818" lon="4.49675">
        <ele>440</ele>
        <time>2016-11-27T09:15:57.000Z</time>
      </trkpt>
      <trkpt lat="46.04816" lon="4.49675">
        <ele>441</ele>
        <time>2016-11-27T09:15:58.000Z</time>
      </trkpt>
      <trkpt lat="46.04815" lon="4.49675">
        <ele>441</ele>
        <time>2016-11-27T09:15:59.000Z</time>
      </trkpt>
      <trkpt lat="46.04814" lon="4.49674">
        <ele>441</ele>
        <time>2016-11-27T09:16:00.000Z</time>
      </trkpt>
      <trkpt lat="46.04812" lon="4.49674">
        <ele>441</ele>
        <time>2016-11-27T09:16:01.000Z</time>
      </trkpt>
      <trkpt lat="46.04811" lon="4.49673">
        <ele>441</ele>
        <time>2016-11-27T09:16:02.000Z</time>
      </trkpt>
      <trkpt lat="46.0481" lon="4.49672">
        <ele>441</ele>
        <time>2016-11-27T09:16:03.000Z</time>
      </trkpt>
      <trkpt lat="46.04808" lon="4.4967">
        <ele>442</ele>
        <time>2016-11-27T09:16:04.000Z</time>
      </trkpt>
      <trkpt lat="46.04806" lon="4.49667">
        <ele>441</ele>
        <time>2016-11-27T09:16:05.000Z</time>
      </trkpt>
      <trkpt lat="46.04805" lon="4.49663">
        <ele>441</ele>
        <time>2016-11-27T09:16:06.000Z</time>
      </trkpt>
      <trkpt lat="46.04803" lon="4.49659">
        <ele>442</ele>
        <time>2016-11-27T09:16:07.000Z</time>
      </trkpt>
      <trkpt lat="46.04802" lon="4.49654">
        <ele>442</ele>
        <time>2016-11-27T09:16:08.000Z</time>
      </trkpt>
      <trkpt lat="46.04801" lon="4.4965">
        <ele>442</ele>
        <time>2016-11-27T09:16:09.000Z</time>
      </trkpt>
      <trkpt lat="46.048" lon="4.49646">
        <ele>443</ele>
        <time>2016-11-27T09:16:10.000Z</time>
      </trkpt>
      <trkpt lat="46.04799" lon="4.49642">
        <ele>443</ele>
        <time>2016-11-27T09:16:11.000Z</time>
      </trkpt>
      <trkpt lat="46.04798" lon="4.49638">
        <ele>442</ele>
        <time>2016-11-27T09:16:12.000Z</time>
      </trkpt>
      <trkpt lat="46.04798" lon="4.49634">
        <ele>442</ele>
        <time>2016-11-27T09:16:13.000Z</time>
      </trkpt>
      <trkpt lat="46.04797" lon="4.4963">
        <ele>442</ele>
        <time>2016-11-27T09:16:14.000Z</time>
      </trkpt>
      <trkpt lat="46.04797" lon="4.49626">
        <ele>442</ele>
        <time>2016-11-27T09:16:15.000Z</time>
      </trkpt>
      <trkpt lat="46.04796" lon="4.49623">
        <ele>443</ele>
        <time>2016-11-27T09:16:16.000Z</time>
      </trkpt>
      <trkpt lat="46.04795" lon="4.49619">
        <ele>443</ele>
        <time>2016-11-27T09:16:17.000Z</time>
      </trkpt>
      <trkpt lat="46.04795" lon="4.49616">
        <ele>444</ele>
        <time>2016-11-27T09:16:18.000Z</time>
      </trkpt>
      <trkpt lat="46.04794" lon="4.49612">
        <ele>444</ele>
        <time>2016-11-27T09:16:19.000Z</time>
      </trkpt>
      <trkpt lat="46.04793" lon="4.49609">
        <ele>444</ele>
        <time>2016-11-27T09:16:20.000Z</time>
      </trkpt>
      <trkpt lat="46.04793" lon="4.49605">
        <ele>444</ele>
        <time>2016-11-27T09:16:21.000Z</time>
      </trkpt>
      <trkpt lat="46.04792" lon="4.49602">
        <ele>445</ele>
        <time>2016-11-27T09:16:22.000Z</time>
      </trkpt>
      <trkpt lat="46.04792" lon="4.49598">
        <ele>445</ele>
        <time>2016-11-27T09:16:23.000Z</time>
      </trkpt>
      <trkpt lat="46.04791" lon="4.49595">
        <ele>444</ele>
        <time>2016-11-27T09:16:24.000Z</time>
      </trkpt>
      <trkpt lat="46.04789" lon="4.49591">
        <ele>445</ele>
        <time>2016-11-27T09:16:25.000Z</time>
      </trkpt>
      <trkpt lat="46.04788" lon="4.49587">
        <ele>445</ele>
        <time>2016-11-27T09:16:26.000Z</time>
      </trkpt>
      <trkpt lat="46.04787" lon="4.49583">
        <ele>444</ele>
        <time>2016-11-27T09:16:27.000Z</time>
      </trkpt>
      <trkpt lat="46.04786" lon="4.49579">
        <ele>444</ele>
        <time>2016-11-27T09:16:28.000Z</time>
      </trkpt>
      <trkpt lat="46.04784" lon="4.49575">
        <ele>444</ele>
        <time>2016-11-27T09:16:29.000Z</time>
      </trkpt>
      <trkpt lat="46.04783" lon="4.49571">
        <ele>444</ele>
        <time>2016-11-27T09:16:30.000Z</time>
      </trkpt>
      <trkpt lat="46.04781" lon="4.49567">
        <ele>444</ele>
        <time>2016-11-27T09:16:31.000Z</time>
      </trkpt>
      <trkpt lat="46.0478" lon="4.49562">
        <ele>444</ele>
        <time>2016-11-27T09:16:32.000Z</time>
      </trkpt>
      <trkpt lat="46.04778" lon="4.49558">
        <ele>444</ele>
        <time>2016-11-27T09:16:33.000Z</time>
      </trkpt>
      <trkpt lat="46.04777" lon="4.49554">
        <ele>443</ele>
        <time>2016-11-27T09:16:34.000Z</time>
      </trkpt>
      <trkpt lat="46.04775" lon="4.4955">
        <ele>442</ele>
        <time>2016-11-27T09:16:35.000Z</time>
      </trkpt>
      <trkpt lat="46.04773" lon="4.49547">
        <ele>442</ele>
        <time>2016-11-27T09:16:36.000Z</time>
      </trkpt>
      <trkpt lat="46.04771" lon="4.49544">
        <ele>442</ele>
        <time>2016-11-27T09:16:37.000Z</time>
      </trkpt>
      <trkpt lat="46.04767" lon="4.49542">
        <ele>441</ele>
        <time>2016-11-27T09:16:38.000Z</time>
      </trkpt>
      <trkpt lat="46.04764" lon="4.4954">
        <ele>440</ele>
        <time>2016-11-27T09:16:39.000Z</time>
      </trkpt>
      <trkpt lat="46.04761" lon="4.49537">
        <ele>439</ele>
        <time>2016-11-27T09:16:40.000Z</time>
      </trkpt>
      <trkpt lat="46.04757" lon="4.49536">
        <ele>438</ele>
        <time>2016-11-27T09:16:41.000Z</time>
      </trkpt>
      <trkpt lat="46.04754" lon="4.49535">
        <ele>438</ele>
        <time>2016-11-27T09:16:42.000Z</time>
      </trkpt>
      <trkpt lat="46.0475" lon="4.49535">
        <ele>437</ele>
        <time>2016-11-27T09:16:43.000Z</time>
      </trkpt>
      <trkpt lat="46.04746" lon="4.49536">
        <ele>435</ele>
        <time>2016-11-27T09:16:44.000Z</time>
      </trkpt>
      <trkpt lat="46.04742" lon="4.49537">
        <ele>436</ele>
        <time>2016-11-27T09:16:45.000Z</time>
      </trkpt>
      <trkpt lat="46.04739" lon="4.49539">
        <ele>435</ele>
        <time>2016-11-27T09:16:46.000Z</time>
      </trkpt>
      <trkpt lat="46.04736" lon="4.49542">
        <ele>435</ele>
        <time>2016-11-27T09:16:47.000Z</time>
      </trkpt>
      <trkpt lat="46.04734" lon="4.49545">
        <ele>434</ele>
        <time>2016-11-27T09:16:48.000Z</time>
      </trkpt>
      <trkpt lat="46.04732" lon="4.49548">
        <ele>434</ele>
        <time>2016-11-27T09:16:49.000Z</time>
      </trkpt>
      <trkpt lat="46.04731" lon="4.49552">
        <ele>433</ele>
        <time>2016-11-27T09:16:50.000Z</time>
      </trkpt>
      <trkpt lat="46.04731" lon="4.49555">
        <ele>432</ele>
        <time>2016-11-27T09:16:51.000Z</time>
      </trkpt>
      <trkpt lat="46.04731" lon="4.49559">
        <ele>431</ele>
        <time>2016-11-27T09:16:52.000Z</time>
      </trkpt>
      <trkpt lat="46.0473" lon="4.49562">
        <ele>430</ele>
        <time>2016-11-27T09:16:53.000Z</time>
      </trkpt>
      <trkpt lat="46.0473" lon="4.49564">
        <ele>429</ele>
        <time>2016-11-27T09:16:54.000Z</time>
      </trkpt>
      <trkpt lat="46.0473" lon="4.49567">
        <ele>429</ele>
        <time>2016-11-27T09:16:55.000Z</time>
      </trkpt>
      <trkpt lat="46.0473" lon="4.4957">
        <ele>428</ele>
        <time>2016-11-27T09:16:56.000Z</time>
      </trkpt>
      <trkpt lat="46.0473" lon="4.49574">
        <ele>428</ele>
        <time>2016-11-27T09:16:57.000Z</time>
      </trkpt>
      <trkpt lat="46.0473" lon="4.49578">
        <ele>427</ele>
        <time>2016-11-27T09:16:58.000Z</time>
      </trkpt>
      <trkpt lat="46.0473" lon="4.49582">
        <ele>426</ele>
        <time>2016-11-27T09:16:59.000Z</time>
      </trkpt>
      <trkpt lat="46.04731" lon="4.49586">
        <ele>425</ele>
        <time>2016-11-27T09:17:00.000Z</time>
      </trkpt>
      <trkpt lat="46.04731" lon="4.4959">
        <ele>424</ele>
        <time>2016-11-27T09:17:01.000Z</time>
      </trkpt>
      <trkpt lat="46.0473" lon="4.49594">
        <ele>423</ele>
        <time>2016-11-27T09:17:02.000Z</time>
      </trkpt>
      <trkpt lat="46.0473" lon="4.49599">
        <ele>422</ele>
        <time>2016-11-27T09:17:03.000Z</time>
      </trkpt>
      <trkpt lat="46.0473" lon="4.49605">
        <ele>421</ele>
        <time>2016-11-27T09:17:04.000Z</time>
      </trkpt>
      <trkpt lat="46.0473" lon="4.4961">
        <ele>419</ele>
        <time>2016-11-27T09:17:05.000Z</time>
      </trkpt>
      <trkpt lat="46.0473" lon="4.49615">
        <ele>418</ele>
        <time>2016-11-27T09:17:06.000Z</time>
      </trkpt>
      <trkpt lat="46.0473" lon="4.49621">
        <ele>417</ele>
        <time>2016-11-27T09:17:07.000Z</time>
      </trkpt>
      <trkpt lat="46.0473" lon="4.49626">
        <ele>415</ele>
        <time>2016-11-27T09:17:08.000Z</time>
      </trkpt>
      <trkpt lat="46.0473" lon="4.49632">
        <ele>413</ele>
        <time>2016-11-27T09:17:09.000Z</time>
      </trkpt>
      <trkpt lat="46.04731" lon="4.49638">
        <ele>412</ele>
        <time>2016-11-27T09:17:10.000Z</time>
      </trkpt>
      <trkpt lat="46.04731" lon="4.49644">
        <ele>412</ele>
        <time>2016-11-27T09:17:11.000Z</time>
      </trkpt>
      <trkpt lat="46.04731" lon="4.49649">
        <ele>410</ele>
        <time>2016-11-27T09:17:12.000Z</time>
      </trkpt>
      <trkpt lat="46.0473" lon="4.49654">
        <ele>409</ele>
        <time>2016-11-27T09:17:13.000Z</time>
      </trkpt>
      <trkpt lat="46.0473" lon="4.4966">
        <ele>408</ele>
        <time>2016-11-27T09:17:14.000Z</time>
      </trkpt>
      <trkpt lat="46.04729" lon="4.49666">
        <ele>407</ele>
        <time>2016-11-27T09:17:15.000Z</time>
      </trkpt>
      <trkpt lat="46.04729" lon="4.49671">
        <ele>406</ele>
        <time>2016-11-27T09:17:16.000Z</time>
      </trkpt>
      <trkpt lat="46.04729" lon="4.49677">
        <ele>406</ele>
        <time>2016-11-27T09:17:17.000Z</time>
      </trkpt>
      <trkpt lat="46.04728" lon="4.49683">
        <ele>404</ele>
        <time>2016-11-27T09:17:18.000Z</time>
      </trkpt>
      <trkpt lat="46.04727" lon="4.49688">
        <ele>404</ele>
        <time>2016-11-27T09:17:19.000Z</time>
      </trkpt>
      <trkpt lat="46.04726" lon="4.49694">
        <ele>402</ele>
        <time>2016-11-27T09:17:20.000Z</time>
      </trkpt>
      <trkpt lat="46.04725" lon="4.497">
        <ele>401</ele>
        <time>2016-11-27T09:17:21.000Z</time>
      </trkpt>
      <trkpt lat="46.04725" lon="4.49706">
        <ele>400</ele>
        <time>2016-11-27T09:17:22.000Z</time>
      </trkpt>
      <trkpt lat="46.04724" lon="4.49712">
        <ele>399</ele>
        <time>2016-11-27T09:17:23.000Z</time>
      </trkpt>
      <trkpt lat="46.04723" lon="4.49718">
        <ele>399</ele>
        <time>2016-11-27T09:17:24.000Z</time>
      </trkpt>
      <trkpt lat="46.04722" lon="4.49724">
        <ele>399</ele>
        <time>2016-11-27T09:17:25.000Z</time>
      </trkpt>
      <trkpt lat="46.04722" lon="4.49731">
        <ele>399</ele>
        <time>2016-11-27T09:17:26.000Z</time>
      </trkpt>
      <trkpt lat="46.04721" lon="4.49738">
        <ele>399</ele>
        <time>2016-11-27T09:17:27.000Z</time>
      </trkpt>
      <trkpt lat="46.04721" lon="4.49744">
        <ele>399</ele>
        <time>2016-11-27T09:17:28.000Z</time>
      </trkpt>
      <trkpt lat="46.04721" lon="4.4975">
        <ele>399</ele>
        <time>2016-11-27T09:17:29.000Z</time>
      </trkpt>
      <trkpt lat="46.0472" lon="4.49755">
        <ele>399</ele>
        <time>2016-11-27T09:17:30.000Z</time>
      </trkpt>
      <trkpt lat="46.0472" lon="4.49761">
        <ele>399</ele>
        <time>2016-11-27T09:17:31.000Z</time>
      </trkpt>
      <trkpt lat="46.0472" lon="4.49766">
        <ele>399</ele>
        <time>2016-11-27T09:17:32.000Z</time>
      </trkpt>
      <trkpt lat="46.0472" lon="4.49771">
        <ele>400</ele>
        <time>2016-11-27T09:17:33.000Z</time>
      </trkpt>
      <trkpt lat="46.04721" lon="4.49777">
        <ele>400</ele>
        <time>2016-11-27T09:17:34.000Z</time>
      </trkpt>
      <trkpt lat="46.04721" lon="4.49782">
        <ele>401</ele>
        <time>2016-11-27T09:17:35.000Z</time>
      </trkpt>
      <trkpt lat="46.04722" lon="4.49787">
        <ele>401</ele>
        <time>2016-11-27T09:17:36.000Z</time>
      </trkpt>
      <trkpt lat="46.04723" lon="4.49791">
        <ele>401</ele>
        <time>2016-11-27T09:17:37.000Z</time>
      </trkpt>
      <trkpt lat="46.04723" lon="4.49795">
        <ele>402</ele>
        <time>2016-11-27T09:17:38.000Z</time>
      </trkpt>
      <trkpt lat="46.04724" lon="4.498">
        <ele>401</ele>
        <time>2016-11-27T09:17:39.000Z</time>
      </trkpt>
      <trkpt lat="46.04724" lon="4.49804">
        <ele>402</ele>
        <time>2016-11-27T09:17:40.000Z</time>
      </trkpt>
      <trkpt lat="46.04725" lon="4.49808">
        <ele>402</ele>
        <time>2016-11-27T09:17:41.000Z</time>
      </trkpt>
      <trkpt lat="46.04726" lon="4.49813">
        <ele>400</ele>
        <time>2016-11-27T09:17:42.000Z</time>
      </trkpt>
      <trkpt lat="46.04728" lon="4.49817">
        <ele>400</ele>
        <time>2016-11-27T09:17:43.000Z</time>
      </trkpt>
      <trkpt lat="46.04729" lon="4.49822">
        <ele>400</ele>
        <time>2016-11-27T09:17:44.000Z</time>
      </trkpt>
      <trkpt lat="46.0473" lon="4.49827">
        <ele>401</ele>
        <time>2016-11-27T09:17:45.000Z</time>
      </trkpt>
      <trkpt lat="46.04731" lon="4.49832">
        <ele>400</ele>
        <time>2016-11-27T09:17:46.000Z</time>
      </trkpt>
      <trkpt lat="46.04731" lon="4.49837">
        <ele>400</ele>
        <time>2016-11-27T09:17:47.000Z</time>
      </trkpt>
      <trkpt lat="46.04731" lon="4.49841">
        <ele>402</ele>
        <time>2016-11-27T09:17:48.000Z</time>
      </trkpt>
      <trkpt lat="46.0473" lon="4.49846">
        <ele>403</ele>
        <time>2016-11-27T09:17:49.000Z</time>
      </trkpt>
      <trkpt lat="46.04728" lon="4.4985">
        <ele>404</ele>
        <time>2016-11-27T09:17:50.000Z</time>
      </trkpt>
      <trkpt lat="46.04726" lon="4.49853">
        <ele>405</ele>
        <time>2016-11-27T09:17:51.000Z</time>
      </trkpt>
      <trkpt lat="46.04724" lon="4.49856">
        <ele>405</ele>
        <time>2016-11-27T09:17:52.000Z</time>
      </trkpt>
      <trkpt lat="46.04723" lon="4.49859">
        <ele>405</ele>
        <time>2016-11-27T09:17:53.000Z</time>
      </trkpt>
      <trkpt lat="46.04722" lon="4.49861">
        <ele>405</ele>
        <time>2016-11-27T09:17:54.000Z</time>
      </trkpt>
      <trkpt lat="46.04721" lon="4.49863">
        <ele>405</ele>
        <time>2016-11-27T09:17:55.000Z</time>
      </trkpt>
      <trkpt lat="46.04719" lon="4.49865">
        <ele>405</ele>
        <time>2016-11-27T09:17:56.000Z</time>
      </trkpt>
      <trkpt lat="46.04718" lon="4.49866">
        <ele>405</ele>
        <time>2016-11-27T09:17:57.000Z</time>
      </trkpt>
      <trkpt lat="46.04716" lon="4.49867">
        <ele>406</ele>
        <time>2016-11-27T09:17:58.000Z</time>
      </trkpt>
      <trkpt lat="46.04713" lon="4.49868">
        <ele>406</ele>
        <time>2016-11-27T09:17:59.000Z</time>
      </trkpt>
      <trkpt lat="46.04711" lon="4.49867">
        <ele>406</ele>
        <time>2016-11-27T09:18:00.000Z</time>
      </trkpt>
      <trkpt lat="46.04709" lon="4.49866">
        <ele>408</ele>
        <time>2016-11-27T09:18:01.000Z</time>
      </trkpt>
      <trkpt lat="46.04707" lon="4.49864">
        <ele>409</ele>
        <time>2016-11-27T09:18:02.000Z</time>
      </trkpt>
      <trkpt lat="46.04705" lon="4.49861">
        <ele>409</ele>
        <time>2016-11-27T09:18:03.000Z</time>
      </trkpt>
      <trkpt lat="46.04704" lon="4.49859">
        <ele>409</ele>
        <time>2016-11-27T09:18:04.000Z</time>
      </trkpt>
      <trkpt lat="46.04703" lon="4.49856">
        <ele>410</ele>
        <time>2016-11-27T09:18:05.000Z</time>
      </trkpt>
      <trkpt lat="46.04701" lon="4.49853">
        <ele>409</ele>
        <time>2016-11-27T09:18:06.000Z</time>
      </trkpt>
      <trkpt lat="46.04699" lon="4.4985">
        <ele>409</ele>
        <time>2016-11-27T09:18:07.000Z</time>
      </trkpt>
      <trkpt lat="46.04698" lon="4.49847">
        <ele>408</ele>
        <time>2016-11-27T09:18:08.000Z</time>
      </trkpt>
      <trkpt lat="46.04696" lon="4.49845">
        <ele>407</ele>
        <time>2016-11-27T09:18:09.000Z</time>
      </trkpt>
      <trkpt lat="46.04694" lon="4.49842">
        <ele>408</ele>
        <time>2016-11-27T09:18:10.000Z</time>
      </trkpt>
      <trkpt lat="46.04693" lon="4.49839">
        <ele>408</ele>
        <time>2016-11-27T09:18:11.000Z</time>
      </trkpt>
      <trkpt lat="46.04691" lon="4.49835">
        <ele>408</ele>
        <time>2016-11-27T09:18:12.000Z</time>
      </trkpt>
      <trkpt lat="46.04689" lon="4.49832">
        <ele>408</ele>
        <time>2016-11-27T09:18:13.000Z</time>
      </trkpt>
      <trkpt lat="46.04687" lon="4.49828">
        <ele>408</ele>
        <time>2016-11-27T09:18:14.000Z</time>
      </trkpt>
      <trkpt lat="46.04685" lon="4.49825">
        <ele>408</ele>
        <time>2016-11-27T09:18:15.000Z</time>
      </trkpt>
      <trkpt lat="46.04684" lon="4.49822">
        <ele>408</ele>
        <time>2016-11-27T09:18:16.000Z</time>
      </trkpt>
      <trkpt lat="46.04682" lon="4.49818">
        <ele>408</ele>
        <time>2016-11-27T09:18:17.000Z</time>
      </trkpt>
      <trkpt lat="46.04681" lon="4.49815">
        <ele>409</ele>
        <time>2016-11-27T09:18:18.000Z</time>
      </trkpt>
      <trkpt lat="46.04679" lon="4.49812">
        <ele>408</ele>
        <time>2016-11-27T09:18:19.000Z</time>
      </trkpt>
      <trkpt lat="46.04678" lon="4.49809">
        <ele>409</ele>
        <time>2016-11-27T09:18:20.000Z</time>
      </trkpt>
      <trkpt lat="46.04676" lon="4.49806">
        <ele>408</ele>
        <time>2016-11-27T09:18:21.000Z</time>
      </trkpt>
      <trkpt lat="46.04674" lon="4.49802">
        <ele>408</ele>
        <time>2016-11-27T09:18:22.000Z</time>
      </trkpt>
      <trkpt lat="46.04673" lon="4.49799">
        <ele>408</ele>
        <time>2016-11-27T09:18:23.000Z</time>
      </trkpt>
      <trkpt lat="46.04672" lon="4.49796">
        <ele>408</ele>
        <time>2016-11-27T09:18:24.000Z</time>
      </trkpt>
      <trkpt lat="46.04671" lon="4.49793">
        <ele>409</ele>
        <time>2016-11-27T09:18:25.000Z</time>
      </trkpt>
      <trkpt lat="46.04669" lon="4.49789">
        <ele>408</ele>
        <time>2016-11-27T09:18:26.000Z</time>
      </trkpt>
      <trkpt lat="46.04667" lon="4.49786">
        <ele>407</ele>
        <time>2016-11-27T09:18:27.000Z</time>
      </trkpt>
      <trkpt lat="46.04665" lon="4.49783">
        <ele>406</ele>
        <time>2016-11-27T09:18:28.000Z</time>
      </trkpt>
      <trkpt lat="46.04664" lon="4.49779">
        <ele>406</ele>
        <time>2016-11-27T09:18:29.000Z</time>
      </trkpt>
      <trkpt lat="46.04662" lon="4.49776">
        <ele>406</ele>
        <time>2016-11-27T09:18:30.000Z</time>
      </trkpt>
      <trkpt lat="46.04661" lon="4.49773">
        <ele>406</ele>
        <time>2016-11-27T09:18:31.000Z</time>
      </trkpt>
      <trkpt lat="46.04659" lon="4.4977">
        <ele>406</ele>
        <time>2016-11-27T09:18:32.000Z</time>
      </trkpt>
      <trkpt lat="46.04658" lon="4.49767">
        <ele>406</ele>
        <time>2016-11-27T09:18:33.000Z</time>
      </trkpt>
      <trkpt lat="46.04656" lon="4.49764">
        <ele>406</ele>
        <time>2016-11-27T09:18:34.000Z</time>
      </trkpt>
      <trkpt lat="46.04655" lon="4.49761">
        <ele>405</ele>
        <time>2016-11-27T09:18:35.000Z</time>
      </trkpt>
      <trkpt lat="46.04654" lon="4.49758">
        <ele>404</ele>
        <time>2016-11-27T09:18:36.000Z</time>
      </trkpt>
      <trkpt lat="46.04652" lon="4.49756">
        <ele>404</ele>
        <time>2016-11-27T09:18:37.000Z</time>
      </trkpt>
      <trkpt lat="46.04651" lon="4.49753">
        <ele>405</ele>
        <time>2016-11-27T09:18:38.000Z</time>
      </trkpt>
      <trkpt lat="46.04649" lon="4.4975">
        <ele>404</ele>
        <time>2016-11-27T09:18:39.000Z</time>
      </trkpt>
      <trkpt lat="46.04647" lon="4.49747">
        <ele>405</ele>
        <time>2016-11-27T09:18:40.000Z</time>
      </trkpt>
      <trkpt lat="46.04646" lon="4.49744">
        <ele>405</ele>
        <time>2016-11-27T09:18:41.000Z</time>
      </trkpt>
      <trkpt lat="46.04644" lon="4.4974">
        <ele>405</ele>
        <time>2016-11-27T09:18:42.000Z</time>
      </trkpt>
      <trkpt lat="46.04642" lon="4.49736">
        <ele>405</ele>
        <time>2016-11-27T09:18:43.000Z</time>
      </trkpt>
      <trkpt lat="46.04641" lon="4.49733">
        <ele>405</ele>
        <time>2016-11-27T09:18:44.000Z</time>
      </trkpt>
      <trkpt lat="46.04639" lon="4.49729">
        <ele>404</ele>
        <time>2016-11-27T09:18:45.000Z</time>
      </trkpt>
      <trkpt lat="46.04637" lon="4.49725">
        <ele>404</ele>
        <time>2016-11-27T09:18:46.000Z</time>
      </trkpt>
      <trkpt lat="46.04635" lon="4.49721">
        <ele>405</ele>
        <time>2016-11-27T09:18:47.000Z</time>
      </trkpt>
      <trkpt lat="46.04633" lon="4.49718">
        <ele>406</ele>
        <time>2016-11-27T09:18:48.000Z</time>
      </trkpt>
      <trkpt lat="46.04631" lon="4.49715">
        <ele>406</ele>
        <time>2016-11-27T09:18:49.000Z</time>
      </trkpt>
      <trkpt lat="46.04629" lon="4.49712">
        <ele>406</ele>
        <time>2016-11-27T09:18:50.000Z</time>
      </trkpt>
      <trkpt lat="46.04627" lon="4.49708">
        <ele>407</ele>
        <time>2016-11-27T09:18:51.000Z</time>
      </trkpt>
      <trkpt lat="46.04625" lon="4.49705">
        <ele>408</ele>
        <time>2016-11-27T09:18:52.000Z</time>
      </trkpt>
      <trkpt lat="46.04624" lon="4.49703">
        <ele>408</ele>
        <time>2016-11-27T09:18:53.000Z</time>
      </trkpt>
      <trkpt lat="46.04622" lon="4.49701">
        <ele>409</ele>
        <time>2016-11-27T09:18:54.000Z</time>
      </trkpt>
      <trkpt lat="46.0462" lon="4.49698">
        <ele>408</ele>
        <time>2016-11-27T09:18:55.000Z</time>
      </trkpt>
      <trkpt lat="46.04619" lon="4.49695">
        <ele>408</ele>
        <time>2016-11-27T09:18:56.000Z</time>
      </trkpt>
      <trkpt lat="46.04617" lon="4.49691">
        <ele>409</ele>
        <time>2016-11-27T09:18:57.000Z</time>
      </trkpt>
      <trkpt lat="46.04616" lon="4.49687">
        <ele>409</ele>
        <time>2016-11-27T09:18:58.000Z</time>
      </trkpt>
      <trkpt lat="46.04614" lon="4.49683">
        <ele>410</ele>
        <time>2016-11-27T09:18:59.000Z</time>
      </trkpt>
      <trkpt lat="46.04613" lon="4.49679">
        <ele>410</ele>
        <time>2016-11-27T09:19:00.000Z</time>
      </trkpt>
      <trkpt lat="46.04611" lon="4.49675">
        <ele>411</ele>
        <time>2016-11-27T09:19:01.000Z</time>
      </trkpt>
      <trkpt lat="46.04609" lon="4.49671">
        <ele>410</ele>
        <time>2016-11-27T09:19:02.000Z</time>
      </trkpt>
      <trkpt lat="46.04608" lon="4.49666">
        <ele>410</ele>
        <time>2016-11-27T09:19:03.000Z</time>
      </trkpt>
      <trkpt lat="46.04607" lon="4.49662">
        <ele>410</ele>
        <time>2016-11-27T09:19:04.000Z</time>
      </trkpt>
      <trkpt lat="46.04606" lon="4.49658">
        <ele>411</ele>
        <time>2016-11-27T09:19:05.000Z</time>
      </trkpt>
      <trkpt lat="46.04605" lon="4.49653">
        <ele>412</ele>
        <time>2016-11-27T09:19:06.000Z</time>
      </trkpt>
      <trkpt lat="46.04604" lon="4.49649">
        <ele>412</ele>
        <time>2016-11-27T09:19:07.000Z</time>
      </trkpt>
      <trkpt lat="46.04603" lon="4.49645">
        <ele>413</ele>
        <time>2016-11-27T09:19:08.000Z</time>
      </trkpt>
      <trkpt lat="46.04602" lon="4.49641">
        <ele>412</ele>
        <time>2016-11-27T09:19:09.000Z</time>
      </trkpt>
      <trkpt lat="46.04601" lon="4.49636">
        <ele>411</ele>
        <time>2016-11-27T09:19:10.000Z</time>
      </trkpt>
      <trkpt lat="46.04601" lon="4.49632">
        <ele>411</ele>
        <time>2016-11-27T09:19:11.000Z</time>
      </trkpt>
      <trkpt lat="46.046" lon="4.49628">
        <ele>411</ele>
        <time>2016-11-27T09:19:12.000Z</time>
      </trkpt>
      <trkpt lat="46.04599" lon="4.49624">
        <ele>411</ele>
        <time>2016-11-27T09:19:13.000Z</time>
      </trkpt>
      <trkpt lat="46.04597" lon="4.4962">
        <ele>411</ele>
        <time>2016-11-27T09:19:14.000Z</time>
      </trkpt>
      <trkpt lat="46.04596" lon="4.49616">
        <ele>411</ele>
        <time>2016-11-27T09:19:15.000Z</time>
      </trkpt>
      <trkpt lat="46.04594" lon="4.49612">
        <ele>411</ele>
        <time>2016-11-27T09:19:16.000Z</time>
      </trkpt>
      <trkpt lat="46.04593" lon="4.49608">
        <ele>411</ele>
        <time>2016-11-27T09:19:17.000Z</time>
      </trkpt>
      <trkpt lat="46.04591" lon="4.49605">
        <ele>411</ele>
        <time>2016-11-27T09:19:18.000Z</time>
      </trkpt>
      <trkpt lat="46.0459" lon="4.49601">
        <ele>410</ele>
        <time>2016-11-27T09:19:19.000Z</time>
      </trkpt>
      <trkpt lat="46.04588" lon="4.49598">
        <ele>409</ele>
        <time>2016-11-27T09:19:20.000Z</time>
      </trkpt>
      <trkpt lat="46.04587" lon="4.49594">
        <ele>409</ele>
        <time>2016-11-27T09:19:21.000Z</time>
      </trkpt>
      <trkpt lat="46.04585" lon="4.49591">
        <ele>410</ele>
        <time>2016-11-27T09:19:22.000Z</time>
      </trkpt>
      <trkpt lat="46.04584" lon="4.49588">
        <ele>409</ele>
        <time>2016-11-27T09:19:23.000Z</time>
      </trkpt>
      <trkpt lat="46.04582" lon="4.49585">
        <ele>408</ele>
        <time>2016-11-27T09:19:24.000Z</time>
      </trkpt>
      <trkpt lat="46.04581" lon="4.49581">
        <ele>409</ele>
        <time>2016-11-27T09:19:25.000Z</time>
      </trkpt>
      <trkpt lat="46.0458" lon="4.49578">
        <ele>409</ele>
        <time>2016-11-27T09:19:26.000Z</time>
      </trkpt>
      <trkpt lat="46.04578" lon="4.49575">
        <ele>409</ele>
        <time>2016-11-27T09:19:27.000Z</time>
      </trkpt>
      <trkpt lat="46.04577" lon="4.49572">
        <ele>410</ele>
        <time>2016-11-27T09:19:28.000Z</time>
      </trkpt>
      <trkpt lat="46.04576" lon="4.49569">
        <ele>410</ele>
        <time>2016-11-27T09:19:29.000Z</time>
      </trkpt>
      <trkpt lat="46.04574" lon="4.49565">
        <ele>410</ele>
        <time>2016-11-27T09:19:30.000Z</time>
      </trkpt>
      <trkpt lat="46.04573" lon="4.49561">
        <ele>410</ele>
        <time>2016-11-27T09:19:31.000Z</time>
      </trkpt>
      <trkpt lat="46.04572" lon="4.49557">
        <ele>410</ele>
        <time>2016-11-27T09:19:32.000Z</time>
      </trkpt>
      <trkpt lat="46.04571" lon="4.49553">
        <ele>410</ele>
        <time>2016-11-27T09:19:33.000Z</time>
      </trkpt>
      <trkpt lat="46.0457" lon="4.49549">
        <ele>410</ele>
        <time>2016-11-27T09:19:34.000Z</time>
      </trkpt>
      <trkpt lat="46.04569" lon="4.49544">
        <ele>410</ele>
        <time>2016-11-27T09:19:35.000Z</time>
      </trkpt>
      <trkpt lat="46.04568" lon="4.4954">
        <ele>410</ele>
        <time>2016-11-27T09:19:36.000Z</time>
      </trkpt>
      <trkpt lat="46.04567" lon="4.49536">
        <ele>410</ele>
        <time>2016-11-27T09:19:37.000Z</time>
      </trkpt>
      <trkpt lat="46.04566" lon="4.49531">
        <ele>410</ele>
        <time>2016-11-27T09:19:38.000Z</time>
      </trkpt>
      <trkpt lat="46.04564" lon="4.49527">
        <ele>410</ele>
        <time>2016-11-27T09:19:39.000Z</time>
      </trkpt>
      <trkpt lat="46.04563" lon="4.49522">
        <ele>410</ele>
        <time>2016-11-27T09:19:40.000Z</time>
      </trkpt>
      <trkpt lat="46.04562" lon="4.49518">
        <ele>411</ele>
        <time>2016-11-27T09:19:41.000Z</time>
      </trkpt>
      <trkpt lat="46.04561" lon="4.49514">
        <ele>412</ele>
        <time>2016-11-27T09:19:42.000Z</time>
      </trkpt>
      <trkpt lat="46.0456" lon="4.4951">
        <ele>411</ele>
        <time>2016-11-27T09:19:43.000Z</time>
      </trkpt>
      <trkpt lat="46.04559" lon="4.49506">
        <ele>410</ele>
        <time>2016-11-27T09:19:44.000Z</time>
      </trkpt>
      <trkpt lat="46.04558" lon="4.49502">
        <ele>410</ele>
        <time>2016-11-27T09:19:45.000Z</time>
      </trkpt>
      <trkpt lat="46.04558" lon="4.49498">
        <ele>410</ele>
        <time>2016-11-27T09:19:46.000Z</time>
      </trkpt>
      <trkpt lat="46.04557" lon="4.49493">
        <ele>410</ele>
        <time>2016-11-27T09:19:47.000Z</time>
      </trkpt>
      <trkpt lat="46.04556" lon="4.49489">
        <ele>409</ele>
        <time>2016-11-27T09:19:48.000Z</time>
      </trkpt>
      <trkpt lat="46.04555" lon="4.49484">
        <ele>409</ele>
        <time>2016-11-27T09:19:49.000Z</time>
      </trkpt>
      <trkpt lat="46.04555" lon="4.49479">
        <ele>410</ele>
        <time>2016-11-27T09:19:50.000Z</time>
      </trkpt>
      <trkpt lat="46.04554" lon="4.49474">
        <ele>409</ele>
        <time>2016-11-27T09:19:51.000Z</time>
      </trkpt>
      <trkpt lat="46.04554" lon="4.49469">
        <ele>410</ele>
        <time>2016-11-27T09:19:52.000Z</time>
      </trkpt>
      <trkpt lat="46.04554" lon="4.49465">
        <ele>410</ele>
        <time>2016-11-27T09:19:53.000Z</time>
      </trkpt>
      <trkpt lat="46.04554" lon="4.4946">
        <ele>410</ele>
        <time>2016-11-27T09:19:54.000Z</time>
      </trkpt>
      <trkpt lat="46.04553" lon="4.49456">
        <ele>410</ele>
        <time>2016-11-27T09:19:55.000Z</time>
      </trkpt>
      <trkpt lat="46.04553" lon="4.49451">
        <ele>410</ele>
        <time>2016-11-27T09:19:56.000Z</time>
      </trkpt>
      <trkpt lat="46.04553" lon="4.49447">
        <ele>410</ele>
        <time>2016-11-27T09:19:57.000Z</time>
      </trkpt>
      <trkpt lat="46.04553" lon="4.49442">
        <ele>410</ele>
        <time>2016-11-27T09:19:58.000Z</time>
      </trkpt>
      <trkpt lat="46.04553" lon="4.49438">
        <ele>410</ele>
        <time>2016-11-27T09:19:59.000Z</time>
      </trkpt>
      <trkpt lat="46.04553" lon="4.49433">
        <ele>409</ele>
        <time>2016-11-27T09:20:00.000Z</time>
      </trkpt>
      <trkpt lat="46.04553" lon="4.49429">
        <ele>409</ele>
        <time>2016-11-27T09:20:01.000Z</time>
      </trkpt>
      <trkpt lat="46.04553" lon="4.49424">
        <ele>409</ele>
        <time>2016-11-27T09:20:02.000Z</time>
      </trkpt>
      <trkpt lat="46.04553" lon="4.4942">
        <ele>409</ele>
        <time>2016-11-27T09:20:03.000Z</time>
      </trkpt>
      <trkpt lat="46.04553" lon="4.49415">
        <ele>409</ele>
        <time>2016-11-27T09:20:04.000Z</time>
      </trkpt>
      <trkpt lat="46.04554" lon="4.4941">
        <ele>408</ele>
        <time>2016-11-27T09:20:05.000Z</time>
      </trkpt>
      <trkpt lat="46.04554" lon="4.49405">
        <ele>407</ele>
        <time>2016-11-27T09:20:06.000Z</time>
      </trkpt>
      <trkpt lat="46.04554" lon="4.49401">
        <ele>408</ele>
        <time>2016-11-27T09:20:07.000Z</time>
      </trkpt>
      <trkpt lat="46.04555" lon="4.49397">
        <ele>408</ele>
        <time>2016-11-27T09:20:08.000Z</time>
      </trkpt>
      <trkpt lat="46.04555" lon="4.49392">
        <ele>408</ele>
        <time>2016-11-27T09:20:09.000Z</time>
      </trkpt>
      <trkpt lat="46.04555" lon="4.49388">
        <ele>408</ele>
        <time>2016-11-27T09:20:10.000Z</time>
      </trkpt>
      <trkpt lat="46.04556" lon="4.49384">
        <ele>408</ele>
        <time>2016-11-27T09:20:11.000Z</time>
      </trkpt>
      <trkpt lat="46.04557" lon="4.49379">
        <ele>408</ele>
        <time>2016-11-27T09:20:12.000Z</time>
      </trkpt>
      <trkpt lat="46.04557" lon="4.49374">
        <ele>409</ele>
        <time>2016-11-27T09:20:13.000Z</time>
      </trkpt>
      <trkpt lat="46.04558" lon="4.4937">
        <ele>409</ele>
        <time>2016-11-27T09:20:14.000Z</time>
      </trkpt>
      <trkpt lat="46.04559" lon="4.49365">
        <ele>409</ele>
        <time>2016-11-27T09:20:15.000Z</time>
      </trkpt>
      <trkpt lat="46.0456" lon="4.49361">
        <ele>410</ele>
        <time>2016-11-27T09:20:16.000Z</time>
      </trkpt>
      <trkpt lat="46.0456" lon="4.49356">
        <ele>409</ele>
        <time>2016-11-27T09:20:17.000Z</time>
      </trkpt>
      <trkpt lat="46.04561" lon="4.49352">
        <ele>408</ele>
        <time>2016-11-27T09:20:18.000Z</time>
      </trkpt>
      <trkpt lat="46.04561" lon="4.49347">
        <ele>408</ele>
        <time>2016-11-27T09:20:19.000Z</time>
      </trkpt>
      <trkpt lat="46.04561" lon="4.49343">
        <ele>408</ele>
        <time>2016-11-27T09:20:20.000Z</time>
      </trkpt>
      <trkpt lat="46.04561" lon="4.49338">
        <ele>408</ele>
        <time>2016-11-27T09:20:21.000Z</time>
      </trkpt>
      <trkpt lat="46.0456" lon="4.49333">
        <ele>408</ele>
        <time>2016-11-27T09:20:22.000Z</time>
      </trkpt>
      <trkpt lat="46.0456" lon="4.49329">
        <ele>409</ele>
        <time>2016-11-27T09:20:23.000Z</time>
      </trkpt>
      <trkpt lat="46.04559" lon="4.49324">
        <ele>409</ele>
        <time>2016-11-27T09:20:24.000Z</time>
      </trkpt>
      <trkpt lat="46.04558" lon="4.4932">
        <ele>409</ele>
        <time>2016-11-27T09:20:25.000Z</time>
      </trkpt>
      <trkpt lat="46.04557" lon="4.49316">
        <ele>410</ele>
        <time>2016-11-27T09:20:26.000Z</time>
      </trkpt>
      <trkpt lat="46.04556" lon="4.49311">
        <ele>409</ele>
        <time>2016-11-27T09:20:27.000Z</time>
      </trkpt>
      <trkpt lat="46.04555" lon="4.49307">
        <ele>409</ele>
        <time>2016-11-27T09:20:28.000Z</time>
      </trkpt>
      <trkpt lat="46.04553" lon="4.49304">
        <ele>409</ele>
        <time>2016-11-27T09:20:29.000Z</time>
      </trkpt>
      <trkpt lat="46.04551" lon="4.49303">
        <ele>410</ele>
        <time>2016-11-27T09:20:30.000Z</time>
      </trkpt>
      <trkpt lat="46.04548" lon="4.49304">
        <ele>408</ele>
        <time>2016-11-27T09:20:31.000Z</time>
      </trkpt>
      <trkpt lat="46.04546" lon="4.49306">
        <ele>409</ele>
        <time>2016-11-27T09:20:32.000Z</time>
      </trkpt>
      <trkpt lat="46.04546" lon="4.49308">
        <ele>410</ele>
        <time>2016-11-27T09:20:33.000Z</time>
      </trkpt>
      <trkpt lat="46.04545" lon="4.4931">
        <ele>409</ele>
        <time>2016-11-27T09:20:34.000Z</time>
      </trkpt>
      <trkpt lat="46.04544" lon="4.49312">
        <ele>409</ele>
        <time>2016-11-27T09:20:35.000Z</time>
      </trkpt>
      <trkpt lat="46.04543" lon="4.49314">
        <ele>411</ele>
        <time>2016-11-27T09:20:36.000Z</time>
      </trkpt>
      <trkpt lat="46.04543" lon="4.49316">
        <ele>411</ele>
        <time>2016-11-27T09:20:37.000Z</time>
      </trkpt>
      <trkpt lat="46.04542" lon="4.49318">
        <ele>412</ele>
        <time>2016-11-27T09:20:38.000Z</time>
      </trkpt>
      <trkpt lat="46.04541" lon="4.4932">
        <ele>412</ele>
        <time>2016-11-27T09:20:39.000Z</time>
      </trkpt>
      <trkpt lat="46.0454" lon="4.49323">
        <ele>412</ele>
        <time>2016-11-27T09:20:40.000Z</time>
      </trkpt>
      <trkpt lat="46.04538" lon="4.49325">
        <ele>413</ele>
        <time>2016-11-27T09:20:41.000Z</time>
      </trkpt>
      <trkpt lat="46.04538" lon="4.49327">
        <ele>413</ele>
        <time>2016-11-27T09:20:42.000Z</time>
      </trkpt>
      <trkpt lat="46.04536" lon="4.49329">
        <ele>414</ele>
        <time>2016-11-27T09:20:43.000Z</time>
      </trkpt>
      <trkpt lat="46.04536" lon="4.49331">
        <ele>414</ele>
        <time>2016-11-27T09:20:44.000Z</time>
      </trkpt>
      <trkpt lat="46.04535" lon="4.49333">
        <ele>415</ele>
        <time>2016-11-27T09:20:45.000Z</time>
      </trkpt>
      <trkpt lat="46.04534" lon="4.49334">
        <ele>415</ele>
        <time>2016-11-27T09:20:46.000Z</time>
      </trkpt>
      <trkpt lat="46.04533" lon="4.49336">
        <ele>416</ele>
        <time>2016-11-27T09:20:47.000Z</time>
      </trkpt>
      <trkpt lat="46.04532" lon="4.49338">
        <ele>416</ele>
        <time>2016-11-27T09:20:48.000Z</time>
      </trkpt>
      <trkpt lat="46.04531" lon="4.4934">
        <ele>417</ele>
        <time>2016-11-27T09:20:49.000Z</time>
      </trkpt>
      <trkpt lat="46.04531" lon="4.49342">
        <ele>417</ele>
        <time>2016-11-27T09:20:50.000Z</time>
      </trkpt>
      <trkpt lat="46.0453" lon="4.49344">
        <ele>418</ele>
        <time>2016-11-27T09:20:51.000Z</time>
      </trkpt>
      <trkpt lat="46.0453" lon="4.49346">
        <ele>419</ele>
        <time>2016-11-27T09:20:52.000Z</time>
      </trkpt>
      <trkpt lat="46.04529" lon="4.49347">
        <ele>419</ele>
        <time>2016-11-27T09:20:53.000Z</time>
      </trkpt>
      <trkpt lat="46.04529" lon="4.49349">
        <ele>419</ele>
        <time>2016-11-27T09:20:54.000Z</time>
      </trkpt>
      <trkpt lat="46.04528" lon="4.49351">
        <ele>420</ele>
        <time>2016-11-27T09:20:55.000Z</time>
      </trkpt>
      <trkpt lat="46.04528" lon="4.49353">
        <ele>420</ele>
        <time>2016-11-27T09:20:56.000Z</time>
      </trkpt>
      <trkpt lat="46.04527" lon="4.49355">
        <ele>421</ele>
        <time>2016-11-27T09:20:57.000Z</time>
      </trkpt>
      <trkpt lat="46.04526" lon="4.49356">
        <ele>421</ele>
        <time>2016-11-27T09:20:58.000Z</time>
      </trkpt>
      <trkpt lat="46.04526" lon="4.49358">
        <ele>422</ele>
        <time>2016-11-27T09:20:59.000Z</time>
      </trkpt>
      <trkpt lat="46.04526" lon="4.4936">
        <ele>422</ele>
        <time>2016-11-27T09:21:00.000Z</time>
      </trkpt>
      <trkpt lat="46.04525" lon="4.49361">
        <ele>422</ele>
        <time>2016-11-27T09:21:01.000Z</time>
      </trkpt>
      <trkpt lat="46.04524" lon="4.49363">
        <ele>422</ele>
        <time>2016-11-27T09:21:02.000Z</time>
      </trkpt>
      <trkpt lat="46.04524" lon="4.49364">
        <ele>422</ele>
        <time>2016-11-27T09:21:03.000Z</time>
      </trkpt>
      <trkpt lat="46.04523" lon="4.49365">
        <ele>422</ele>
        <time>2016-11-27T09:21:04.000Z</time>
      </trkpt>
      <trkpt lat="46.04523" lon="4.49367">
        <ele>422</ele>
        <time>2016-11-27T09:21:05.000Z</time>
      </trkpt>
      <trkpt lat="46.04522" lon="4.49368">
        <ele>422</ele>
        <time>2016-11-27T09:21:06.000Z</time>
      </trkpt>
      <trkpt lat="46.04522" lon="4.49369">
        <ele>422</ele>
        <time>2016-11-27T09:21:07.000Z</time>
      </trkpt>
      <trkpt lat="46.04521" lon="4.4937">
        <ele>422</ele>
        <time>2016-11-27T09:21:08.000Z</time>
      </trkpt>
      <trkpt lat="46.04521" lon="4.49372">
        <ele>423</ele>
        <time>2016-11-27T09:21:09.000Z</time>
      </trkpt>
      <trkpt lat="46.0452" lon="4.49373">
        <ele>423</ele>
        <time>2016-11-27T09:21:10.000Z</time>
      </trkpt>
      <trkpt lat="46.0452" lon="4.49375">
        <ele>423</ele>
        <time>2016-11-27T09:21:11.000Z</time>
      </trkpt>
      <trkpt lat="46.04519" lon="4.49376">
        <ele>424</ele>
        <time>2016-11-27T09:21:12.000Z</time>
      </trkpt>
      <trkpt lat="46.04519" lon="4.49378">
        <ele>424</ele>
        <time>2016-11-27T09:21:13.000Z</time>
      </trkpt>
      <trkpt lat="46.04518" lon="4.49379">
        <ele>424</ele>
        <time>2016-11-27T09:21:14.000Z</time>
      </trkpt>
      <trkpt lat="46.04517" lon="4.49381">
        <ele>425</ele>
        <time>2016-11-27T09:21:15.000Z</time>
      </trkpt>
      <trkpt lat="46.04517" lon="4.49382">
        <ele>425</ele>
        <time>2016-11-27T09:21:16.000Z</time>
      </trkpt>
      <trkpt lat="46.04517" lon="4.49383">
        <ele>425</ele>
        <time>2016-11-27T09:21:17.000Z</time>
      </trkpt>
      <trkpt lat="46.04516" lon="4.49384">
        <ele>425</ele>
        <time>2016-11-27T09:21:18.000Z</time>
      </trkpt>
      <trkpt lat="46.04516" lon="4.49386">
        <ele>425</ele>
        <time>2016-11-27T09:21:19.000Z</time>
      </trkpt>
      <trkpt lat="46.04515" lon="4.49387">
        <ele>425</ele>
        <time>2016-11-27T09:21:20.000Z</time>
      </trkpt>
      <trkpt lat="46.04515" lon="4.49388">
        <ele>425</ele>
        <time>2016-11-27T09:21:21.000Z</time>
      </trkpt>
      <trkpt lat="46.04514" lon="4.4939">
        <ele>425</ele>
        <time>2016-11-27T09:21:22.000Z</time>
      </trkpt>
      <trkpt lat="46.04513" lon="4.49391">
        <ele>426</ele>
        <time>2016-11-27T09:21:23.000Z</time>
      </trkpt>
      <trkpt lat="46.04513" lon="4.49393">
        <ele>426</ele>
        <time>2016-11-27T09:21:24.000Z</time>
      </trkpt>
      <trkpt lat="46.04513" lon="4.49394">
        <ele>426</ele>
        <time>2016-11-27T09:21:25.000Z</time>
      </trkpt>
      <trkpt lat="46.04512" lon="4.49396">
        <ele>426</ele>
        <time>2016-11-27T09:21:26.000Z</time>
      </trkpt>
      <trkpt lat="46.04512" lon="4.49397">
        <ele>426</ele>
        <time>2016-11-27T09:21:27.000Z</time>
      </trkpt>
      <trkpt lat="46.04511" lon="4.49399">
        <ele>426</ele>
        <time>2016-11-27T09:21:28.000Z</time>
      </trkpt>
      <trkpt lat="46.0451" lon="4.494">
        <ele>426</ele>
        <time>2016-11-27T09:21:29.000Z</time>
      </trkpt>
      <trkpt lat="46.0451" lon="4.49402">
        <ele>426</ele>
        <time>2016-11-27T09:21:30.000Z</time>
      </trkpt>
      <trkpt lat="46.04509" lon="4.49404">
        <ele>427</ele>
        <time>2016-11-27T09:21:31.000Z</time>
      </trkpt>
      <trkpt lat="46.04509" lon="4.49405">
        <ele>428</ele>
        <time>2016-11-27T09:21:32.000Z</time>
      </trkpt>
      <trkpt lat="46.04508" lon="4.49407">
        <ele>427</ele>
        <time>2016-11-27T09:21:33.000Z</time>
      </trkpt>
      <trkpt lat="46.04508" lon="4.49408">
        <ele>427</ele>
        <time>2016-11-27T09:21:34.000Z</time>
      </trkpt>
      <trkpt lat="46.04507" lon="4.4941">
        <ele>427</ele>
        <time>2016-11-27T09:21:35.000Z</time>
      </trkpt>
      <trkpt lat="46.04506" lon="4.49411">
        <ele>428</ele>
        <time>2016-11-27T09:21:36.000Z</time>
      </trkpt>
      <trkpt lat="46.04506" lon="4.49413">
        <ele>428</ele>
        <time>2016-11-27T09:21:37.000Z</time>
      </trkpt>
      <trkpt lat="46.04506" lon="4.49414">
        <ele>428</ele>
        <time>2016-11-27T09:21:38.000Z</time>
      </trkpt>
      <trkpt lat="46.04505" lon="4.49416">
        <ele>428</ele>
        <time>2016-11-27T09:21:39.000Z</time>
      </trkpt>
      <trkpt lat="46.04505" lon="4.49417">
        <ele>429</ele>
        <time>2016-11-27T09:21:40.000Z</time>
      </trkpt>
      <trkpt lat="46.04505" lon="4.49419">
        <ele>429</ele>
        <time>2016-11-27T09:21:41.000Z</time>
      </trkpt>
      <trkpt lat="46.04504" lon="4.4942">
        <ele>429</ele>
        <time>2016-11-27T09:21:42.000Z</time>
      </trkpt>
      <trkpt lat="46.04504" lon="4.49421">
        <ele>429</ele>
        <time>2016-11-27T09:21:43.000Z</time>
      </trkpt>
      <trkpt lat="46.04504" lon="4.49422">
        <ele>430</ele>
        <time>2016-11-27T09:21:44.000Z</time>
      </trkpt>
      <trkpt lat="46.04504" lon="4.49424">
        <ele>430</ele>
        <time>2016-11-27T09:21:45.000Z</time>
      </trkpt>
      <trkpt lat="46.04503" lon="4.49426">
        <ele>431</ele>
        <time>2016-11-27T09:21:46.000Z</time>
      </trkpt>
      <trkpt lat="46.04503" lon="4.49427">
        <ele>431</ele>
        <time>2016-11-27T09:21:47.000Z</time>
      </trkpt>
      <trkpt lat="46.04503" lon="4.49429">
        <ele>431</ele>
        <time>2016-11-27T09:21:48.000Z</time>
      </trkpt>
      <trkpt lat="46.04502" lon="4.49431">
        <ele>431</ele>
        <time>2016-11-27T09:21:49.000Z</time>
      </trkpt>
      <trkpt lat="46.04502" lon="4.49432">
        <ele>432</ele>
        <time>2016-11-27T09:21:50.000Z</time>
      </trkpt>
      <trkpt lat="46.04502" lon="4.49434">
        <ele>432</ele>
        <time>2016-11-27T09:21:51.000Z</time>
      </trkpt>
      <trkpt lat="46.04502" lon="4.49436">
        <ele>433</ele>
        <time>2016-11-27T09:21:52.000Z</time>
      </trkpt>
      <trkpt lat="46.04501" lon="4.49438">
        <ele>433</ele>
        <time>2016-11-27T09:21:53.000Z</time>
      </trkpt>
      <trkpt lat="46.04501" lon="4.49439">
        <ele>434</ele>
        <time>2016-11-27T09:21:54.000Z</time>
      </trkpt>
      <trkpt lat="46.04501" lon="4.49441">
        <ele>434</ele>
        <time>2016-11-27T09:21:55.000Z</time>
      </trkpt>
      <trkpt lat="46.04501" lon="4.49443">
        <ele>435</ele>
        <time>2016-11-27T09:21:56.000Z</time>
      </trkpt>
      <trkpt lat="46.045" lon="4.49444">
        <ele>435</ele>
        <time>2016-11-27T09:21:57.000Z</time>
      </trkpt>
      <trkpt lat="46.045" lon="4.49446">
        <ele>435</ele>
        <time>2016-11-27T09:21:58.000Z</time>
      </trkpt>
      <trkpt lat="46.045" lon="4.49448">
        <ele>436</ele>
        <time>2016-11-27T09:21:59.000Z</time>
      </trkpt>
      <trkpt lat="46.045" lon="4.49449">
        <ele>436</ele>
        <time>2016-11-27T09:22:00.000Z</time>
      </trkpt>
      <trkpt lat="46.045" lon="4.49451">
        <ele>436</ele>
        <time>2016-11-27T09:22:01.000Z</time>
      </trkpt>
      <trkpt lat="46.04499" lon="4.49453">
        <ele>436</ele>
        <time>2016-11-27T09:22:02.000Z</time>
      </trkpt>
      <trkpt lat="46.04499" lon="4.49455">
        <ele>436</ele>
        <time>2016-11-27T09:22:03.000Z</time>
      </trkpt>
      <trkpt lat="46.04499" lon="4.49456">
        <ele>437</ele>
        <time>2016-11-27T09:22:04.000Z</time>
      </trkpt>
      <trkpt lat="46.04498" lon="4.49458">
        <ele>437</ele>
        <time>2016-11-27T09:22:05.000Z</time>
      </trkpt>
      <trkpt lat="46.04498" lon="4.4946">
        <ele>437</ele>
        <time>2016-11-27T09:22:06.000Z</time>
      </trkpt>
      <trkpt lat="46.04498" lon="4.49461">
        <ele>438</ele>
        <time>2016-11-27T09:22:07.000Z</time>
      </trkpt>
      <trkpt lat="46.04498" lon="4.49463">
        <ele>438</ele>
        <time>2016-11-27T09:22:08.000Z</time>
      </trkpt>
      <trkpt lat="46.04498" lon="4.49464">
        <ele>438</ele>
        <time>2016-11-27T09:22:09.000Z</time>
      </trkpt>
      <trkpt lat="46.04498" lon="4.49466">
        <ele>438</ele>
        <time>2016-11-27T09:22:10.000Z</time>
      </trkpt>
      <trkpt lat="46.04497" lon="4.49468">
        <ele>438</ele>
        <time>2016-11-27T09:22:11.000Z</time>
      </trkpt>
      <trkpt lat="46.04497" lon="4.49469">
        <ele>439</ele>
        <time>2016-11-27T09:22:12.000Z</time>
      </trkpt>
      <trkpt lat="46.04496" lon="4.49471">
        <ele>439</ele>
        <time>2016-11-27T09:22:13.000Z</time>
      </trkpt>
      <trkpt lat="46.04496" lon="4.49472">
        <ele>439</ele>
        <time>2016-11-27T09:22:14.000Z</time>
      </trkpt>
      <trkpt lat="46.04496" lon="4.49474">
        <ele>439</ele>
        <time>2016-11-27T09:22:15.000Z</time>
      </trkpt>
      <trkpt lat="46.04495" lon="4.49475">
        <ele>440</ele>
        <time>2016-11-27T09:22:16.000Z</time>
      </trkpt>
      <trkpt lat="46.04494" lon="4.49477">
        <ele>440</ele>
        <time>2016-11-27T09:22:17.000Z</time>
      </trkpt>
      <trkpt lat="46.04494" lon="4.49478">
        <ele>440</ele>
        <time>2016-11-27T09:22:18.000Z</time>
      </trkpt>
      <trkpt lat="46.04493" lon="4.4948">
        <ele>440</ele>
        <time>2016-11-27T09:22:19.000Z</time>
      </trkpt>
      <trkpt lat="46.04493" lon="4.49482">
        <ele>440</ele>
        <time>2016-11-27T09:22:20.000Z</time>
      </trkpt>
      <trkpt lat="46.04492" lon="4.49483">
        <ele>441</ele>
        <time>2016-11-27T09:22:21.000Z</time>
      </trkpt>
      <trkpt lat="46.04491" lon="4.49484">
        <ele>441</ele>
        <time>2016-11-27T09:22:22.000Z</time>
      </trkpt>
      <trkpt lat="46.04491" lon="4.49486">
        <ele>442</ele>
        <time>2016-11-27T09:22:23.000Z</time>
      </trkpt>
      <trkpt lat="46.0449" lon="4.49487">
        <ele>443</ele>
        <time>2016-11-27T09:22:24.000Z</time>
      </trkpt>
      <trkpt lat="46.0449" lon="4.49488">
        <ele>443</ele>
        <time>2016-11-27T09:22:25.000Z</time>
      </trkpt>
      <trkpt lat="46.04489" lon="4.4949">
        <ele>443</ele>
        <time>2016-11-27T09:22:26.000Z</time>
      </trkpt>
      <trkpt lat="46.04489" lon="4.49491">
        <ele>444</ele>
        <time>2016-11-27T09:22:27.000Z</time>
      </trkpt>
      <trkpt lat="46.04488" lon="4.49493">
        <ele>444</ele>
        <time>2016-11-27T09:22:28.000Z</time>
      </trkpt>
      <trkpt lat="46.04488" lon="4.49494">
        <ele>445</ele>
        <time>2016-11-27T09:22:29.000Z</time>
      </trkpt>
      <trkpt lat="46.04487" lon="4.49495">
        <ele>445</ele>
        <time>2016-11-27T09:22:30.000Z</time>
      </trkpt>
      <trkpt lat="46.04487" lon="4.49496">
        <ele>445</ele>
        <time>2016-11-27T09:22:31.000Z</time>
      </trkpt>
      <trkpt lat="46.04487" lon="4.49498">
        <ele>446</ele>
        <time>2016-11-27T09:22:32.000Z</time>
      </trkpt>
      <trkpt lat="46.04486" lon="4.49499">
        <ele>446</ele>
        <time>2016-11-27T09:22:33.000Z</time>
      </trkpt>
      <trkpt lat="46.04486" lon="4.495">
        <ele>446</ele>
        <time>2016-11-27T09:22:34.000Z</time>
      </trkpt>
      <trkpt lat="46.04485" lon="4.49501">
        <ele>446</ele>
        <time>2016-11-27T09:22:35.000Z</time>
      </trkpt>
      <trkpt lat="46.04485" lon="4.49502">
        <ele>446</ele>
        <time>2016-11-27T09:22:36.000Z</time>
      </trkpt>
      <trkpt lat="46.04484" lon="4.49504">
        <ele>446</ele>
        <time>2016-11-27T09:22:37.000Z</time>
      </trkpt>
      <trkpt lat="46.04484" lon="4.49505">
        <ele>447</ele>
        <time>2016-11-27T09:22:38.000Z</time>
      </trkpt>
      <trkpt lat="46.04483" lon="4.49506">
        <ele>447</ele>
        <time>2016-11-27T09:22:39.000Z</time>
      </trkpt>
      <trkpt lat="46.04482" lon="4.49508">
        <ele>447</ele>
        <time>2016-11-27T09:22:40.000Z</time>
      </trkpt>
      <trkpt lat="46.04482" lon="4.49509">
        <ele>448</ele>
        <time>2016-11-27T09:22:41.000Z</time>
      </trkpt>
      <trkpt lat="46.04481" lon="4.4951">
        <ele>448</ele>
        <time>2016-11-27T09:22:42.000Z</time>
      </trkpt>
      <trkpt lat="46.0448" lon="4.49512">
        <ele>448</ele>
        <time>2016-11-27T09:22:43.000Z</time>
      </trkpt>
      <trkpt lat="46.0448" lon="4.49513">
        <ele>448</ele>
        <time>2016-11-27T09:22:44.000Z</time>
      </trkpt>
      <trkpt lat="46.04479" lon="4.49514">
        <ele>448</ele>
        <time>2016-11-27T09:22:45.000Z</time>
      </trkpt>
      <trkpt lat="46.04478" lon="4.49515">
        <ele>449</ele>
        <time>2016-11-27T09:22:46.000Z</time>
      </trkpt>
      <trkpt lat="46.04478" lon="4.49517">
        <ele>449</ele>
        <time>2016-11-27T09:22:47.000Z</time>
      </trkpt>
      <trkpt lat="46.04477" lon="4.49518">
        <ele>449</ele>
        <time>2016-11-27T09:22:48.000Z</time>
      </trkpt>
      <trkpt lat="46.04476" lon="4.49519">
        <ele>449</ele>
        <time>2016-11-27T09:22:49.000Z</time>
      </trkpt>
      <trkpt lat="46.04476" lon="4.49521">
        <ele>449</ele>
        <time>2016-11-27T09:22:50.000Z</time>
      </trkpt>
      <trkpt lat="46.04475" lon="4.49522">
        <ele>450</ele>
        <time>2016-11-27T09:22:51.000Z</time>
      </trkpt>
      <trkpt lat="46.04474" lon="4.49523">
        <ele>450</ele>
        <time>2016-11-27T09:22:52.000Z</time>
      </trkpt>
      <trkpt lat="46.04473" lon="4.49525">
        <ele>450</ele>
        <time>2016-11-27T09:22:53.000Z</time>
      </trkpt>
      <trkpt lat="46.04473" lon="4.49526">
        <ele>450</ele>
        <time>2016-11-27T09:22:54.000Z</time>
      </trkpt>
      <trkpt lat="46.04472" lon="4.49527">
        <ele>451</ele>
        <time>2016-11-27T09:22:55.000Z</time>
      </trkpt>
      <trkpt lat="46.04471" lon="4.49528">
        <ele>451</ele>
        <time>2016-11-27T09:22:56.000Z</time>
      </trkpt>
      <trkpt lat="46.04471" lon="4.4953">
        <ele>451</ele>
        <time>2016-11-27T09:22:57.000Z</time>
      </trkpt>
      <trkpt lat="46.0447" lon="4.49531">
        <ele>451</ele>
        <time>2016-11-27T09:22:58.000Z</time>
      </trkpt>
      <trkpt lat="46.04469" lon="4.49532">
        <ele>451</ele>
        <time>2016-11-27T09:22:59.000Z</time>
      </trkpt>
      <trkpt lat="46.04469" lon="4.49534">
        <ele>451</ele>
        <time>2016-11-27T09:23:00.000Z</time>
      </trkpt>
      <trkpt lat="46.04468" lon="4.49535">
        <ele>452</ele>
        <time>2016-11-27T09:23:01.000Z</time>
      </trkpt>
      <trkpt lat="46.04467" lon="4.49536">
        <ele>452</ele>
        <time>2016-11-27T09:23:02.000Z</time>
      </trkpt>
      <trkpt lat="46.04467" lon="4.49537">
        <ele>452</ele>
        <time>2016-11-27T09:23:03.000Z</time>
      </trkpt>
      <trkpt lat="46.04466" lon="4.49539">
        <ele>452</ele>
        <time>2016-11-27T09:23:04.000Z</time>
      </trkpt>
      <trkpt lat="46.04466" lon="4.4954">
        <ele>453</ele>
        <time>2016-11-27T09:23:05.000Z</time>
      </trkpt>
      <trkpt lat="46.04465" lon="4.49541">
        <ele>453</ele>
        <time>2016-11-27T09:23:06.000Z</time>
      </trkpt>
      <trkpt lat="46.04464" lon="4.49542">
        <ele>453</ele>
        <time>2016-11-27T09:23:07.000Z</time>
      </trkpt>
      <trkpt lat="46.04464" lon="4.49544">
        <ele>454</ele>
        <time>2016-11-27T09:23:08.000Z</time>
      </trkpt>
      <trkpt lat="46.04463" lon="4.49545">
        <ele>454</ele>
        <time>2016-11-27T09:23:09.000Z</time>
      </trkpt>
      <trkpt lat="46.04462" lon="4.49547">
        <ele>454</ele>
        <time>2016-11-27T09:23:10.000Z</time>
      </trkpt>
      <trkpt lat="46.04461" lon="4.49548">
        <ele>454</ele>
        <time>2016-11-27T09:23:11.000Z</time>
      </trkpt>
      <trkpt lat="46.0446" lon="4.49549">
        <ele>454</ele>
        <time>2016-11-27T09:23:12.000Z</time>
      </trkpt>
      <trkpt lat="46.04459" lon="4.49551">
        <ele>454</ele>
        <time>2016-11-27T09:23:13.000Z</time>
      </trkpt>
      <trkpt lat="46.04459" lon="4.49552">
        <ele>455</ele>
        <time>2016-11-27T09:23:14.000Z</time>
      </trkpt>
      <trkpt lat="46.04458" lon="4.49553">
        <ele>455</ele>
        <time>2016-11-27T09:23:15.000Z</time>
      </trkpt>
      <trkpt lat="46.04457" lon="4.49555">
        <ele>455</ele>
        <time>2016-11-27T09:23:16.000Z</time>
      </trkpt>
      <trkpt lat="46.04456" lon="4.49556">
        <ele>455</ele>
        <time>2016-11-27T09:23:17.000Z</time>
      </trkpt>
      <trkpt lat="46.04455" lon="4.49558">
        <ele>455</ele>
        <time>2016-11-27T09:23:18.000Z</time>
      </trkpt>
      <trkpt lat="46.04454" lon="4.49559">
        <ele>456</ele>
        <time>2016-11-27T09:23:19.000Z</time>
      </trkpt>
      <trkpt lat="46.04453" lon="4.49561">
        <ele>456</ele>
        <time>2016-11-27T09:23:20.000Z</time>
      </trkpt>
      <trkpt lat="46.04452" lon="4.49562">
        <ele>456</ele>
        <time>2016-11-27T09:23:21.000Z</time>
      </trkpt>
      <trkpt lat="46.04451" lon="4.49564">
        <ele>457</ele>
        <time>2016-11-27T09:23:22.000Z</time>
      </trkpt>
      <trkpt lat="46.0445" lon="4.49565">
        <ele>457</ele>
        <time>2016-11-27T09:23:23.000Z</time>
      </trkpt>
      <trkpt lat="46.0445" lon="4.49566">
        <ele>457</ele>
        <time>2016-11-27T09:23:24.000Z</time>
      </trkpt>
      <trkpt lat="46.04449" lon="4.49567">
        <ele>457</ele>
        <time>2016-11-27T09:23:25.000Z</time>
      </trkpt>
      <trkpt lat="46.04448" lon="4.49569">
        <ele>457</ele>
        <time>2016-11-27T09:23:26.000Z</time>
      </trkpt>
      <trkpt lat="46.04447" lon="4.4957">
        <ele>457</ele>
        <time>2016-11-27T09:23:27.000Z</time>
      </trkpt>
      <trkpt lat="46.04446" lon="4.49572">
        <ele>457</ele>
        <time>2016-11-27T09:23:28.000Z</time>
      </trkpt>
      <trkpt lat="46.04446" lon="4.49573">
        <ele>457</ele>
        <time>2016-11-27T09:23:29.000Z</time>
      </trkpt>
      <trkpt lat="46.04445" lon="4.49575">
        <ele>458</ele>
        <time>2016-11-27T09:23:30.000Z</time>
      </trkpt>
      <trkpt lat="46.04444" lon="4.49577">
        <ele>457</ele>
        <time>2016-11-27T09:23:31.000Z</time>
      </trkpt>
      <trkpt lat="46.04443" lon="4.49579">
        <ele>457</ele>
        <time>2016-11-27T09:23:32.000Z</time>
      </trkpt>
      <trkpt lat="46.04442" lon="4.49581">
        <ele>456</ele>
        <time>2016-11-27T09:23:33.000Z</time>
      </trkpt>
      <trkpt lat="46.04441" lon="4.49582">
        <ele>456</ele>
        <time>2016-11-27T09:23:34.000Z</time>
      </trkpt>
      <trkpt lat="46.0444" lon="4.49584">
        <ele>456</ele>
        <time>2016-11-27T09:23:35.000Z</time>
      </trkpt>
      <trkpt lat="46.04439" lon="4.49586">
        <ele>455</ele>
        <time>2016-11-27T09:23:36.000Z</time>
      </trkpt>
      <trkpt lat="46.04438" lon="4.49587">
        <ele>456</ele>
        <time>2016-11-27T09:23:37.000Z</time>
      </trkpt>
      <trkpt lat="46.04438" lon="4.49588">
        <ele>456</ele>
        <time>2016-11-27T09:23:38.000Z</time>
      </trkpt>
      <trkpt lat="46.04437" lon="4.4959">
        <ele>457</ele>
        <time>2016-11-27T09:23:39.000Z</time>
      </trkpt>
      <trkpt lat="46.04436" lon="4.49591">
        <ele>457</ele>
        <time>2016-11-27T09:23:40.000Z</time>
      </trkpt>
      <trkpt lat="46.04436" lon="4.49592">
        <ele>458</ele>
        <time>2016-11-27T09:23:41.000Z</time>
      </trkpt>
      <trkpt lat="46.04435" lon="4.49594">
        <ele>458</ele>
        <time>2016-11-27T09:23:42.000Z</time>
      </trkpt>
      <trkpt lat="46.04434" lon="4.49595">
        <ele>459</ele>
        <time>2016-11-27T09:23:43.000Z</time>
      </trkpt>
      <trkpt lat="46.04433" lon="4.49597">
        <ele>459</ele>
        <time>2016-11-27T09:23:44.000Z</time>
      </trkpt>
      <trkpt lat="46.04432" lon="4.49598">
        <ele>459</ele>
        <time>2016-11-27T09:23:45.000Z</time>
      </trkpt>
      <trkpt lat="46.04431" lon="4.496">
        <ele>460</ele>
        <time>2016-11-27T09:23:46.000Z</time>
      </trkpt>
      <trkpt lat="46.0443" lon="4.49601">
        <ele>460</ele>
        <time>2016-11-27T09:23:47.000Z</time>
      </trkpt>
      <trkpt lat="46.04429" lon="4.49603">
        <ele>460</ele>
        <time>2016-11-27T09:23:48.000Z</time>
      </trkpt>
      <trkpt lat="46.04428" lon="4.49604">
        <ele>460</ele>
        <time>2016-11-27T09:23:49.000Z</time>
      </trkpt>
      <trkpt lat="46.04427" lon="4.49605">
        <ele>460</ele>
        <time>2016-11-27T09:23:50.000Z</time>
      </trkpt>
      <trkpt lat="46.04426" lon="4.49607">
        <ele>461</ele>
        <time>2016-11-27T09:23:51.000Z</time>
      </trkpt>
      <trkpt lat="46.04426" lon="4.49608">
        <ele>461</ele>
        <time>2016-11-27T09:23:52.000Z</time>
      </trkpt>
      <trkpt lat="46.04425" lon="4.4961">
        <ele>461</ele>
        <time>2016-11-27T09:23:53.000Z</time>
      </trkpt>
      <trkpt lat="46.04424" lon="4.49611">
        <ele>461</ele>
        <time>2016-11-27T09:23:54.000Z</time>
      </trkpt>
      <trkpt lat="46.04423" lon="4.49613">
        <ele>462</ele>
        <time>2016-11-27T09:23:55.000Z</time>
      </trkpt>
      <trkpt lat="46.04422" lon="4.49614">
        <ele>462</ele>
        <time>2016-11-27T09:23:56.000Z</time>
      </trkpt>
      <trkpt lat="46.04421" lon="4.49616">
        <ele>462</ele>
        <time>2016-11-27T09:23:57.000Z</time>
      </trkpt>
      <trkpt lat="46.0442" lon="4.49618">
        <ele>462</ele>
        <time>2016-11-27T09:23:58.000Z</time>
      </trkpt>
      <trkpt lat="46.04419" lon="4.49619">
        <ele>463</ele>
        <time>2016-11-27T09:23:59.000Z</time>
      </trkpt>
      <trkpt lat="46.04418" lon="4.49621">
        <ele>462</ele>
        <time>2016-11-27T09:24:00.000Z</time>
      </trkpt>
      <trkpt lat="46.04417" lon="4.49622">
        <ele>463</ele>
        <time>2016-11-27T09:24:01.000Z</time>
      </trkpt>
      <trkpt lat="46.04416" lon="4.49624">
        <ele>463</ele>
        <time>2016-11-27T09:24:02.000Z</time>
      </trkpt>
      <trkpt lat="46.04416" lon="4.49625">
        <ele>464</ele>
        <time>2016-11-27T09:24:03.000Z</time>
      </trkpt>
      <trkpt lat="46.04415" lon="4.49627">
        <ele>464</ele>
        <time>2016-11-27T09:24:04.000Z</time>
      </trkpt>
      <trkpt lat="46.04414" lon="4.49628">
        <ele>465</ele>
        <time>2016-11-27T09:24:05.000Z</time>
      </trkpt>
      <trkpt lat="46.04413" lon="4.4963">
        <ele>465</ele>
        <time>2016-11-27T09:24:06.000Z</time>
      </trkpt>
      <trkpt lat="46.04412" lon="4.49632">
        <ele>465</ele>
        <time>2016-11-27T09:24:07.000Z</time>
      </trkpt>
      <trkpt lat="46.04412" lon="4.49633">
        <ele>465</ele>
        <time>2016-11-27T09:24:08.000Z</time>
      </trkpt>
      <trkpt lat="46.04411" lon="4.49635">
        <ele>465</ele>
        <time>2016-11-27T09:24:09.000Z</time>
      </trkpt>
      <trkpt lat="46.04411" lon="4.49636">
        <ele>465</ele>
        <time>2016-11-27T09:24:10.000Z</time>
      </trkpt>
      <trkpt lat="46.0441" lon="4.49638">
        <ele>465</ele>
        <time>2016-11-27T09:24:11.000Z</time>
      </trkpt>
      <trkpt lat="46.0441" lon="4.49639">
        <ele>465</ele>
        <time>2016-11-27T09:24:12.000Z</time>
      </trkpt>
      <trkpt lat="46.04409" lon="4.4964">
        <ele>466</ele>
        <time>2016-11-27T09:24:13.000Z</time>
      </trkpt>
      <trkpt lat="46.04408" lon="4.49642">
        <ele>466</ele>
        <time>2016-11-27T09:24:14.000Z</time>
      </trkpt>
      <trkpt lat="46.04407" lon="4.49643">
        <ele>467</ele>
        <time>2016-11-27T09:24:15.000Z</time>
      </trkpt>
      <trkpt lat="46.04406" lon="4.49645">
        <ele>467</ele>
        <time>2016-11-27T09:24:16.000Z</time>
      </trkpt>
      <trkpt lat="46.04405" lon="4.49647">
        <ele>467</ele>
        <time>2016-11-27T09:24:17.000Z</time>
      </trkpt>
      <trkpt lat="46.04405" lon="4.49648">
        <ele>468</ele>
        <time>2016-11-27T09:24:18.000Z</time>
      </trkpt>
      <trkpt lat="46.04404" lon="4.4965">
        <ele>468</ele>
        <time>2016-11-27T09:24:19.000Z</time>
      </trkpt>
      <trkpt lat="46.04403" lon="4.49652">
        <ele>469</ele>
        <time>2016-11-27T09:24:20.000Z</time>
      </trkpt>
      <trkpt lat="46.04402" lon="4.49654">
        <ele>469</ele>
        <time>2016-11-27T09:24:21.000Z</time>
      </trkpt>
      <trkpt lat="46.04402" lon="4.49656">
        <ele>469</ele>
        <time>2016-11-27T09:24:22.000Z</time>
      </trkpt>
      <trkpt lat="46.04401" lon="4.49658">
        <ele>470</ele>
        <time>2016-11-27T09:24:23.000Z</time>
      </trkpt>
      <trkpt lat="46.04401" lon="4.4966">
        <ele>470</ele>
        <time>2016-11-27T09:24:24.000Z</time>
      </trkpt>
      <trkpt lat="46.044" lon="4.49661">
        <ele>470</ele>
        <time>2016-11-27T09:24:25.000Z</time>
      </trkpt>
      <trkpt lat="46.04399" lon="4.49663">
        <ele>470</ele>
        <time>2016-11-27T09:24:26.000Z</time>
      </trkpt>
      <trkpt lat="46.04399" lon="4.49664">
        <ele>470</ele>
        <time>2016-11-27T09:24:27.000Z</time>
      </trkpt>
      <trkpt lat="46.04398" lon="4.49666">
        <ele>471</ele>
        <time>2016-11-27T09:24:28.000Z</time>
      </trkpt>
      <trkpt lat="46.04397" lon="4.49668">
        <ele>471</ele>
        <time>2016-11-27T09:24:29.000Z</time>
      </trkpt>
      <trkpt lat="46.04397" lon="4.49669">
        <ele>471</ele>
        <time>2016-11-27T09:24:30.000Z</time>
      </trkpt>
      <trkpt lat="46.04396" lon="4.49671">
        <ele>471</ele>
        <time>2016-11-27T09:24:31.000Z</time>
      </trkpt>
      <trkpt lat="46.04396" lon="4.49673">
        <ele>472</ele>
        <time>2016-11-27T09:24:32.000Z</time>
      </trkpt>
      <trkpt lat="46.04395" lon="4.49675">
        <ele>472</ele>
        <time>2016-11-27T09:24:33.000Z</time>
      </trkpt>
      <trkpt lat="46.04394" lon="4.49676">
        <ele>472</ele>
        <time>2016-11-27T09:24:34.000Z</time>
      </trkpt>
      <trkpt lat="46.04394" lon="4.49678">
        <ele>473</ele>
        <time>2016-11-27T09:24:35.000Z</time>
      </trkpt>
      <trkpt lat="46.04394" lon="4.49679">
        <ele>473</ele>
        <time>2016-11-27T09:24:36.000Z</time>
      </trkpt>
      <trkpt lat="46.04393" lon="4.4968">
        <ele>473</ele>
        <time>2016-11-27T09:24:37.000Z</time>
      </trkpt>
      <trkpt lat="46.04392" lon="4.49682">
        <ele>474</ele>
        <time>2016-11-27T09:24:38.000Z</time>
      </trkpt>
      <trkpt lat="46.04392" lon="4.49683">
        <ele>474</ele>
        <time>2016-11-27T09:24:39.000Z</time>
      </trkpt>
      <trkpt lat="46.04391" lon="4.49684">
        <ele>475</ele>
        <time>2016-11-27T09:24:40.000Z</time>
      </trkpt>
      <trkpt lat="46.0439" lon="4.49685">
        <ele>475</ele>
        <time>2016-11-27T09:24:41.000Z</time>
      </trkpt>
      <trkpt lat="46.04389" lon="4.49686">
        <ele>475</ele>
        <time>2016-11-27T09:24:42.000Z</time>
      </trkpt>
      <trkpt lat="46.04389" lon="4.49688">
        <ele>475</ele>
        <time>2016-11-27T09:24:43.000Z</time>
      </trkpt>
      <trkpt lat="46.04388" lon="4.49689">
        <ele>475</ele>
        <time>2016-11-27T09:24:44.000Z</time>
      </trkpt>
      <trkpt lat="46.04388" lon="4.4969">
        <ele>476</ele>
        <time>2016-11-27T09:24:45.000Z</time>
      </trkpt>
      <trkpt lat="46.04388" lon="4.49692">
        <ele>477</ele>
        <time>2016-11-27T09:24:46.000Z</time>
      </trkpt>
      <trkpt lat="46.04387" lon="4.49693">
        <ele>477</ele>
        <time>2016-11-27T09:24:47.000Z</time>
      </trkpt>
      <trkpt lat="46.04386" lon="4.49695">
        <ele>478</ele>
        <time>2016-11-27T09:24:48.000Z</time>
      </trkpt>
      <trkpt lat="46.04386" lon="4.49696">
        <ele>478</ele>
        <time>2016-11-27T09:24:49.000Z</time>
      </trkpt>
      <trkpt lat="46.04385" lon="4.49697">
        <ele>478</ele>
        <time>2016-11-27T09:24:50.000Z</time>
      </trkpt>
      <trkpt lat="46.04384" lon="4.49698">
        <ele>479</ele>
        <time>2016-11-27T09:24:51.000Z</time>
      </trkpt>
      <trkpt lat="46.04384" lon="4.49699">
        <ele>479</ele>
        <time>2016-11-27T09:24:52.000Z</time>
      </trkpt>
      <trkpt lat="46.04383" lon="4.49701">
        <ele>480</ele>
        <time>2016-11-27T09:24:53.000Z</time>
      </trkpt>
      <trkpt lat="46.04383" lon="4.49702">
        <ele>480</ele>
        <time>2016-11-27T09:24:54.000Z</time>
      </trkpt>
      <trkpt lat="46.04382" lon="4.49703">
        <ele>480</ele>
        <time>2016-11-27T09:24:55.000Z</time>
      </trkpt>
      <trkpt lat="46.04382" lon="4.49704">
        <ele>480</ele>
        <time>2016-11-27T09:24:56.000Z</time>
      </trkpt>
      <trkpt lat="46.04381" lon="4.49705">
        <ele>481</ele>
        <time>2016-11-27T09:24:57.000Z</time>
      </trkpt>
      <trkpt lat="46.04381" lon="4.49706">
        <ele>481</ele>
        <time>2016-11-27T09:24:58.000Z</time>
      </trkpt>
      <trkpt lat="46.04381" lon="4.49707">
        <ele>481</ele>
        <time>2016-11-27T09:24:59.000Z</time>
      </trkpt>
      <trkpt lat="46.0438" lon="4.49708">
        <ele>481</ele>
        <time>2016-11-27T09:25:00.000Z</time>
      </trkpt>
      <trkpt lat="46.0438" lon="4.49709">
        <ele>482</ele>
        <time>2016-11-27T09:25:01.000Z</time>
      </trkpt>
      <trkpt lat="46.04379" lon="4.4971">
        <ele>482</ele>
        <time>2016-11-27T09:25:02.000Z</time>
      </trkpt>
      <trkpt lat="46.04378" lon="4.49711">
        <ele>482</ele>
        <time>2016-11-27T09:25:03.000Z</time>
      </trkpt>
      <trkpt lat="46.04378" lon="4.49712">
        <ele>482</ele>
        <time>2016-11-27T09:25:04.000Z</time>
      </trkpt>
      <trkpt lat="46.04377" lon="4.49713">
        <ele>482</ele>
        <time>2016-11-27T09:25:05.000Z</time>
      </trkpt>
      <trkpt lat="46.04377" lon="4.49714">
        <ele>482</ele>
        <time>2016-11-27T09:25:06.000Z</time>
      </trkpt>
      <trkpt lat="46.04376" lon="4.49715">
        <ele>482</ele>
        <time>2016-11-27T09:25:07.000Z</time>
      </trkpt>
      <trkpt lat="46.04376" lon="4.49716">
        <ele>481</ele>
        <time>2016-11-27T09:25:08.000Z</time>
      </trkpt>
      <trkpt lat="46.04376" lon="4.49717">
        <ele>482</ele>
        <time>2016-11-27T09:25:09.000Z</time>
      </trkpt>
      <trkpt lat="46.04375" lon="4.49718">
        <ele>482</ele>
        <time>2016-11-27T09:25:10.000Z</time>
      </trkpt>
      <trkpt lat="46.04375" lon="4.49719">
        <ele>482</ele>
        <time>2016-11-27T09:25:11.000Z</time>
      </trkpt>
      <trkpt lat="46.04374" lon="4.4972">
        <ele>482</ele>
        <time>2016-11-27T09:25:12.000Z</time>
      </trkpt>
      <trkpt lat="46.04374" lon="4.49721">
        <ele>482</ele>
        <time>2016-11-27T09:25:13.000Z</time>
      </trkpt>
      <trkpt lat="46.04373" lon="4.49722">
        <ele>482</ele>
        <time>2016-11-27T09:25:14.000Z</time>
      </trkpt>
      <trkpt lat="46.04372" lon="4.49724">
        <ele>481</ele>
        <time>2016-11-27T09:25:15.000Z</time>
      </trkpt>
      <trkpt lat="46.04371" lon="4.49725">
        <ele>481</ele>
        <time>2016-11-27T09:25:16.000Z</time>
      </trkpt>
      <trkpt lat="46.04371" lon="4.49726">
        <ele>483</ele>
        <time>2016-11-27T09:25:17.000Z</time>
      </trkpt>
      <trkpt lat="46.0437" lon="4.49728">
        <ele>483</ele>
        <time>2016-11-27T09:25:18.000Z</time>
      </trkpt>
      <trkpt lat="46.0437" lon="4.49729">
        <ele>482</ele>
        <time>2016-11-27T09:25:19.000Z</time>
      </trkpt>
      <trkpt lat="46.0437" lon="4.4973">
        <ele>483</ele>
        <time>2016-11-27T09:25:20.000Z</time>
      </trkpt>
      <trkpt lat="46.04369" lon="4.49731">
        <ele>483</ele>
        <time>2016-11-27T09:25:21.000Z</time>
      </trkpt>
      <trkpt lat="46.04369" lon="4.49732">
        <ele>484</ele>
        <time>2016-11-27T09:25:22.000Z</time>
      </trkpt>
      <trkpt lat="46.04368" lon="4.49733">
        <ele>484</ele>
        <time>2016-11-27T09:25:23.000Z</time>
      </trkpt>
      <trkpt lat="46.04368" lon="4.49734">
        <ele>485</ele>
        <time>2016-11-27T09:25:24.000Z</time>
      </trkpt>
      <trkpt lat="46.04368" lon="4.49734">
        <ele>484</ele>
        <time>2016-11-27T09:25:25.000Z</time>
      </trkpt>
      <trkpt lat="46.04368" lon="4.49735">
        <ele>485</ele>
        <time>2016-11-27T09:25:26.000Z</time>
      </trkpt>
      <trkpt lat="46.04367" lon="4.49736">
        <ele>486</ele>
        <time>2016-11-27T09:25:27.000Z</time>
      </trkpt>
      <trkpt lat="46.04367" lon="4.49737">
        <ele>488</ele>
        <time>2016-11-27T09:25:28.000Z</time>
      </trkpt>
      <trkpt lat="46.04367" lon="4.49738">
        <ele>488</ele>
        <time>2016-11-27T09:25:29.000Z</time>
      </trkpt>
      <trkpt lat="46.04367" lon="4.49739">
        <ele>488</ele>
        <time>2016-11-27T09:25:30.000Z</time>
      </trkpt>
      <trkpt lat="46.04367" lon="4.4974">
        <ele>489</ele>
        <time>2016-11-27T09:25:31.000Z</time>
      </trkpt>
      <trkpt lat="46.04367" lon="4.49741">
        <ele>490</ele>
        <time>2016-11-27T09:25:32.000Z</time>
      </trkpt>
      <trkpt lat="46.04366" lon="4.49742">
        <ele>490</ele>
        <time>2016-11-27T09:25:33.000Z</time>
      </trkpt>
      <trkpt lat="46.04366" lon="4.49743">
        <ele>490</ele>
        <time>2016-11-27T09:25:34.000Z</time>
      </trkpt>
      <trkpt lat="46.04366" lon="4.49744">
        <ele>491</ele>
        <time>2016-11-27T09:25:35.000Z</time>
      </trkpt>
      <trkpt lat="46.04366" lon="4.49745">
        <ele>491</ele>
        <time>2016-11-27T09:25:36.000Z</time>
      </trkpt>
      <trkpt lat="46.04365" lon="4.49745">
        <ele>491</ele>
        <time>2016-11-27T09:25:37.000Z</time>
      </trkpt>
      <trkpt lat="46.04365" lon="4.49746">
        <ele>491</ele>
        <time>2016-11-27T09:25:38.000Z</time>
      </trkpt>
      <trkpt lat="46.04364" lon="4.49747">
        <ele>492</ele>
        <time>2016-11-27T09:25:39.000Z</time>
      </trkpt>
      <trkpt lat="46.04364" lon="4.49748">
        <ele>492</ele>
        <time>2016-11-27T09:25:40.000Z</time>
      </trkpt>
      <trkpt lat="46.04363" lon="4.49749">
        <ele>493</ele>
        <time>2016-11-27T09:25:41.000Z</time>
      </trkpt>
      <trkpt lat="46.04362" lon="4.4975">
        <ele>493</ele>
        <time>2016-11-27T09:25:42.000Z</time>
      </trkpt>
      <trkpt lat="46.04361" lon="4.49751">
        <ele>494</ele>
        <time>2016-11-27T09:25:43.000Z</time>
      </trkpt>
      <trkpt lat="46.0436" lon="4.49752">
        <ele>494</ele>
        <time>2016-11-27T09:25:44.000Z</time>
      </trkpt>
      <trkpt lat="46.04359" lon="4.49752">
        <ele>494</ele>
        <time>2016-11-27T09:25:45.000Z</time>
      </trkpt>
      <trkpt lat="46.04358" lon="4.49753">
        <ele>495</ele>
        <time>2016-11-27T09:25:46.000Z</time>
      </trkpt>
      <trkpt lat="46.04357" lon="4.49753">
        <ele>494</ele>
        <time>2016-11-27T09:25:47.000Z</time>
      </trkpt>
      <trkpt lat="46.04356" lon="4.49753">
        <ele>495</ele>
        <time>2016-11-27T09:25:48.000Z</time>
      </trkpt>
      <trkpt lat="46.04355" lon="4.49752">
        <ele>495</ele>
        <time>2016-11-27T09:25:49.000Z</time>
      </trkpt>
      <trkpt lat="46.04354" lon="4.49751">
        <ele>495</ele>
        <time>2016-11-27T09:25:50.000Z</time>
      </trkpt>
      <trkpt lat="46.04353" lon="4.4975">
        <ele>495</ele>
        <time>2016-11-27T09:25:51.000Z</time>
      </trkpt>
      <trkpt lat="46.04352" lon="4.49749">
        <ele>496</ele>
        <time>2016-11-27T09:25:52.000Z</time>
      </trkpt>
      <trkpt lat="46.04351" lon="4.49748">
        <ele>496</ele>
        <time>2016-11-27T09:25:53.000Z</time>
      </trkpt>
      <trkpt lat="46.0435" lon="4.49747">
        <ele>496</ele>
        <time>2016-11-27T09:25:54.000Z</time>
      </trkpt>
      <trkpt lat="46.04349" lon="4.49746">
        <ele>496</ele>
        <time>2016-11-27T09:25:55.000Z</time>
      </trkpt>
      <trkpt lat="46.04348" lon="4.49745">
        <ele>496</ele>
        <time>2016-11-27T09:25:56.000Z</time>
      </trkpt>
      <trkpt lat="46.04347" lon="4.49744">
        <ele>496</ele>
        <time>2016-11-27T09:25:57.000Z</time>
      </trkpt>
      <trkpt lat="46.04346" lon="4.49744">
        <ele>496</ele>
        <time>2016-11-27T09:25:58.000Z</time>
      </trkpt>
      <trkpt lat="46.04345" lon="4.49742">
        <ele>498</ele>
        <time>2016-11-27T09:25:59.000Z</time>
      </trkpt>
      <trkpt lat="46.04344" lon="4.49741">
        <ele>499</ele>
        <time>2016-11-27T09:26:00.000Z</time>
      </trkpt>
      <trkpt lat="46.04343" lon="4.49739">
        <ele>500</ele>
        <time>2016-11-27T09:26:01.000Z</time>
      </trkpt>
      <trkpt lat="46.04342" lon="4.49738">
        <ele>502</ele>
        <time>2016-11-27T09:26:02.000Z</time>
      </trkpt>
      <trkpt lat="46.04341" lon="4.49736">
        <ele>502</ele>
        <time>2016-11-27T09:26:03.000Z</time>
      </trkpt>
      <trkpt lat="46.0434" lon="4.49735">
        <ele>503</ele>
        <time>2016-11-27T09:26:04.000Z</time>
      </trkpt>
      <trkpt lat="46.0434" lon="4.49734">
        <ele>503</ele>
        <time>2016-11-27T09:26:05.000Z</time>
      </trkpt>
      <trkpt lat="46.04339" lon="4.49733">
        <ele>503</ele>
        <time>2016-11-27T09:26:06.000Z</time>
      </trkpt>
      <trkpt lat="46.04339" lon="4.49732">
        <ele>504</ele>
        <time>2016-11-27T09:26:07.000Z</time>
      </trkpt>
      <trkpt lat="46.04339" lon="4.49731">
        <ele>504</ele>
        <time>2016-11-27T09:26:08.000Z</time>
      </trkpt>
      <trkpt lat="46.04339" lon="4.4973">
        <ele>506</ele>
        <time>2016-11-27T09:26:09.000Z</time>
      </trkpt>
      <trkpt lat="46.04338" lon="4.49729">
        <ele>508</ele>
        <time>2016-11-27T09:26:10.000Z</time>
      </trkpt>
      <trkpt lat="46.04337" lon="4.49728">
        <ele>508</ele>
        <time>2016-11-27T09:26:11.000Z</time>
      </trkpt>
      <trkpt lat="46.04337" lon="4.49727">
        <ele>509</ele>
        <time>2016-11-27T09:26:12.000Z</time>
      </trkpt>
      <trkpt lat="46.04336" lon="4.49726">
        <ele>509</ele>
        <time>2016-11-27T09:26:13.000Z</time>
      </trkpt>
      <trkpt lat="46.04335" lon="4.49725">
        <ele>510</ele>
        <time>2016-11-27T09:26:14.000Z</time>
      </trkpt>
      <trkpt lat="46.04334" lon="4.49724">
        <ele>511</ele>
        <time>2016-11-27T09:26:15.000Z</time>
      </trkpt>
      <trkpt lat="46.04333" lon="4.49723">
        <ele>512</ele>
        <time>2016-11-27T09:26:16.000Z</time>
      </trkpt>
      <trkpt lat="46.04332" lon="4.49722">
        <ele>512</ele>
        <time>2016-11-27T09:26:17.000Z</time>
      </trkpt>
      <trkpt lat="46.04332" lon="4.49721">
        <ele>513</ele>
        <time>2016-11-27T09:26:18.000Z</time>
      </trkpt>
      <trkpt lat="46.04331" lon="4.49719">
        <ele>514</ele>
        <time>2016-11-27T09:26:19.000Z</time>
      </trkpt>
      <trkpt lat="46.0433" lon="4.49718">
        <ele>514</ele>
        <time>2016-11-27T09:26:20.000Z</time>
      </trkpt>
      <trkpt lat="46.04329" lon="4.49717">
        <ele>515</ele>
        <time>2016-11-27T09:26:21.000Z</time>
      </trkpt>
      <trkpt lat="46.04328" lon="4.49716">
        <ele>516</ele>
        <time>2016-11-27T09:26:22.000Z</time>
      </trkpt>
      <trkpt lat="46.04328" lon="4.49714">
        <ele>516</ele>
        <time>2016-11-27T09:26:23.000Z</time>
      </trkpt>
      <trkpt lat="46.04327" lon="4.49713">
        <ele>516</ele>
        <time>2016-11-27T09:26:24.000Z</time>
      </trkpt>
      <trkpt lat="46.04327" lon="4.49712">
        <ele>516</ele>
        <time>2016-11-27T09:26:25.000Z</time>
      </trkpt>
      <trkpt lat="46.04326" lon="4.49711">
        <ele>516</ele>
        <time>2016-11-27T09:26:26.000Z</time>
      </trkpt>
      <trkpt lat="46.04325" lon="4.49709">
        <ele>516</ele>
        <time>2016-11-27T09:26:27.000Z</time>
      </trkpt>
      <trkpt lat="46.04324" lon="4.49708">
        <ele>517</ele>
        <time>2016-11-27T09:26:28.000Z</time>
      </trkpt>
      <trkpt lat="46.04323" lon="4.49706">
        <ele>517</ele>
        <time>2016-11-27T09:26:29.000Z</time>
      </trkpt>
      <trkpt lat="46.04323" lon="4.49704">
        <ele>517</ele>
        <time>2016-11-27T09:26:30.000Z</time>
      </trkpt>
      <trkpt lat="46.04322" lon="4.49703">
        <ele>517</ele>
        <time>2016-11-27T09:26:31.000Z</time>
      </trkpt>
      <trkpt lat="46.04321" lon="4.49701">
        <ele>517</ele>
        <time>2016-11-27T09:26:32.000Z</time>
      </trkpt>
      <trkpt lat="46.0432" lon="4.497">
        <ele>516</ele>
        <time>2016-11-27T09:26:33.000Z</time>
      </trkpt>
      <trkpt lat="46.0432" lon="4.49698">
        <ele>516</ele>
        <time>2016-11-27T09:26:34.000Z</time>
      </trkpt>
      <trkpt lat="46.04319" lon="4.49697">
        <ele>516</ele>
        <time>2016-11-27T09:26:35.000Z</time>
      </trkpt>
      <trkpt lat="46.04318" lon="4.49695">
        <ele>514</ele>
        <time>2016-11-27T09:26:36.000Z</time>
      </trkpt>
      <trkpt lat="46.04317" lon="4.49693">
        <ele>512</ele>
        <time>2016-11-27T09:26:37.000Z</time>
      </trkpt>
      <trkpt lat="46.04315" lon="4.49691">
        <ele>511</ele>
        <time>2016-11-27T09:26:38.000Z</time>
      </trkpt>
      <trkpt lat="46.04314" lon="4.49689">
        <ele>511</ele>
        <time>2016-11-27T09:26:39.000Z</time>
      </trkpt>
      <trkpt lat="46.04314" lon="4.49688">
        <ele>511</ele>
        <time>2016-11-27T09:26:40.000Z</time>
      </trkpt>
      <trkpt lat="46.04313" lon="4.49686">
        <ele>512</ele>
        <time>2016-11-27T09:26:41.000Z</time>
      </trkpt>
      <trkpt lat="46.04312" lon="4.49685">
        <ele>512</ele>
        <time>2016-11-27T09:26:42.000Z</time>
      </trkpt>
      <trkpt lat="46.04312" lon="4.49683">
        <ele>511</ele>
        <time>2016-11-27T09:26:43.000Z</time>
      </trkpt>
      <trkpt lat="46.04311" lon="4.49681">
        <ele>510</ele>
        <time>2016-11-27T09:26:44.000Z</time>
      </trkpt>
      <trkpt lat="46.0431" lon="4.49679">
        <ele>509</ele>
        <time>2016-11-27T09:26:45.000Z</time>
      </trkpt>
      <trkpt lat="46.0431" lon="4.49677">
        <ele>508</ele>
        <time>2016-11-27T09:26:46.000Z</time>
      </trkpt>
      <trkpt lat="46.04309" lon="4.49676">
        <ele>509</ele>
        <time>2016-11-27T09:26:47.000Z</time>
      </trkpt>
      <trkpt lat="46.04308" lon="4.49674">
        <ele>509</ele>
        <time>2016-11-27T09:26:48.000Z</time>
      </trkpt>
      <trkpt lat="46.04307" lon="4.49673">
        <ele>510</ele>
        <time>2016-11-27T09:26:49.000Z</time>
      </trkpt>
      <trkpt lat="46.04307" lon="4.49672">
        <ele>510</ele>
        <time>2016-11-27T09:26:50.000Z</time>
      </trkpt>
      <trkpt lat="46.04306" lon="4.4967">
        <ele>510</ele>
        <time>2016-11-27T09:26:51.000Z</time>
      </trkpt>
      <trkpt lat="46.04305" lon="4.49669">
        <ele>510</ele>
        <time>2016-11-27T09:26:52.000Z</time>
      </trkpt>
      <trkpt lat="46.04305" lon="4.49667">
        <ele>511</ele>
        <time>2016-11-27T09:26:53.000Z</time>
      </trkpt>
      <trkpt lat="46.04304" lon="4.49666">
        <ele>512</ele>
        <time>2016-11-27T09:26:54.000Z</time>
      </trkpt>
      <trkpt lat="46.04304" lon="4.49664">
        <ele>512</ele>
        <time>2016-11-27T09:26:55.000Z</time>
      </trkpt>
      <trkpt lat="46.04303" lon="4.49663">
        <ele>513</ele>
        <time>2016-11-27T09:26:56.000Z</time>
      </trkpt>
      <trkpt lat="46.04303" lon="4.49662">
        <ele>513</ele>
        <time>2016-11-27T09:26:57.000Z</time>
      </trkpt>
      <trkpt lat="46.04302" lon="4.49661">
        <ele>513</ele>
        <time>2016-11-27T09:26:58.000Z</time>
      </trkpt>
      <trkpt lat="46.04301" lon="4.4966">
        <ele>513</ele>
        <time>2016-11-27T09:26:59.000Z</time>
      </trkpt>
      <trkpt lat="46.04301" lon="4.49659">
        <ele>513</ele>
        <time>2016-11-27T09:27:00.000Z</time>
      </trkpt>
      <trkpt lat="46.043" lon="4.49657">
        <ele>514</ele>
        <time>2016-11-27T09:27:01.000Z</time>
      </trkpt>
      <trkpt lat="46.04299" lon="4.49656">
        <ele>514</ele>
        <time>2016-11-27T09:27:02.000Z</time>
      </trkpt>
      <trkpt lat="46.04298" lon="4.49655">
        <ele>515</ele>
        <time>2016-11-27T09:27:03.000Z</time>
      </trkpt>
      <trkpt lat="46.04297" lon="4.49653">
        <ele>516</ele>
        <time>2016-11-27T09:27:04.000Z</time>
      </trkpt>
      <trkpt lat="46.04296" lon="4.49652">
        <ele>517</ele>
        <time>2016-11-27T09:27:05.000Z</time>
      </trkpt>
      <trkpt lat="46.04295" lon="4.49651">
        <ele>518</ele>
        <time>2016-11-27T09:27:06.000Z</time>
      </trkpt>
      <trkpt lat="46.04294" lon="4.49651">
        <ele>518</ele>
        <time>2016-11-27T09:27:07.000Z</time>
      </trkpt>
      <trkpt lat="46.04293" lon="4.4965">
        <ele>519</ele>
        <time>2016-11-27T09:27:08.000Z</time>
      </trkpt>
      <trkpt lat="46.04292" lon="4.49649">
        <ele>518</ele>
        <time>2016-11-27T09:27:09.000Z</time>
      </trkpt>
      <trkpt lat="46.0429" lon="4.49648">
        <ele>519</ele>
        <time>2016-11-27T09:27:10.000Z</time>
      </trkpt>
      <trkpt lat="46.04289" lon="4.49647">
        <ele>519</ele>
        <time>2016-11-27T09:27:11.000Z</time>
      </trkpt>
      <trkpt lat="46.04288" lon="4.49646">
        <ele>519</ele>
        <time>2016-11-27T09:27:12.000Z</time>
      </trkpt>
      <trkpt lat="46.04288" lon="4.49646">
        <ele>520</ele>
        <time>2016-11-27T09:27:13.000Z</time>
      </trkpt>
      <trkpt lat="46.04287" lon="4.49645">
        <ele>521</ele>
        <time>2016-11-27T09:27:14.000Z</time>
      </trkpt>
      <trkpt lat="46.04286" lon="4.49644">
        <ele>521</ele>
        <time>2016-11-27T09:27:15.000Z</time>
      </trkpt>
      <trkpt lat="46.04285" lon="4.49644">
        <ele>522</ele>
        <time>2016-11-27T09:27:16.000Z</time>
      </trkpt>
      <trkpt lat="46.04284" lon="4.49644">
        <ele>523</ele>
        <time>2016-11-27T09:27:17.000Z</time>
      </trkpt>
      <trkpt lat="46.04284" lon="4.49643">
        <ele>523</ele>
        <time>2016-11-27T09:27:18.000Z</time>
      </trkpt>
      <trkpt lat="46.04283" lon="4.49643">
        <ele>524</ele>
        <time>2016-11-27T09:27:19.000Z</time>
      </trkpt>
      <trkpt lat="46.04282" lon="4.49642">
        <ele>524</ele>
        <time>2016-11-27T09:27:20.000Z</time>
      </trkpt>
      <trkpt lat="46.04281" lon="4.49642">
        <ele>525</ele>
        <time>2016-11-27T09:27:21.000Z</time>
      </trkpt>
      <trkpt lat="46.04281" lon="4.49641">
        <ele>524</ele>
        <time>2016-11-27T09:27:22.000Z</time>
      </trkpt>
      <trkpt lat="46.0428" lon="4.4964">
        <ele>526</ele>
        <time>2016-11-27T09:27:23.000Z</time>
      </trkpt>
      <trkpt lat="46.04279" lon="4.49639">
        <ele>526</ele>
        <time>2016-11-27T09:27:24.000Z</time>
      </trkpt>
      <trkpt lat="46.04278" lon="4.49639">
        <ele>527</ele>
        <time>2016-11-27T09:27:25.000Z</time>
      </trkpt>
      <trkpt lat="46.04278" lon="4.49639">
        <ele>527</ele>
        <time>2016-11-27T09:27:26.000Z</time>
      </trkpt>
      <trkpt lat="46.04277" lon="4.49639">
        <ele>527</ele>
        <time>2016-11-27T09:27:27.000Z</time>
      </trkpt>
      <trkpt lat="46.04276" lon="4.49639">
        <ele>528</ele>
        <time>2016-11-27T09:27:28.000Z</time>
      </trkpt>
      <trkpt lat="46.04276" lon="4.49639">
        <ele>527</ele>
        <time>2016-11-27T09:27:29.000Z</time>
      </trkpt>
      <trkpt lat="46.04275" lon="4.49639">
        <ele>528</ele>
        <time>2016-11-27T09:27:30.000Z</time>
      </trkpt>
      <trkpt lat="46.04274" lon="4.49639">
        <ele>528</ele>
        <time>2016-11-27T09:27:31.000Z</time>
      </trkpt>
      <trkpt lat="46.04272" lon="4.49638">
        <ele>528</ele>
        <time>2016-11-27T09:27:32.000Z</time>
      </trkpt>
      <trkpt lat="46.04271" lon="4.49637">
        <ele>529</ele>
        <time>2016-11-27T09:27:33.000Z</time>
      </trkpt>
      <trkpt lat="46.0427" lon="4.49637">
        <ele>529</ele>
        <time>2016-11-27T09:27:34.000Z</time>
      </trkpt>
      <trkpt lat="46.04269" lon="4.49636">
        <ele>529</ele>
        <time>2016-11-27T09:27:35.000Z</time>
      </trkpt>
      <trkpt lat="46.04269" lon="4.49637">
        <ele>530</ele>
        <time>2016-11-27T09:27:36.000Z</time>
      </trkpt>
      <trkpt lat="46.04268" lon="4.49637">
        <ele>530</ele>
        <time>2016-11-27T09:27:37.000Z</time>
      </trkpt>
      <trkpt lat="46.04269" lon="4.49638">
        <ele>530</ele>
        <time>2016-11-27T09:27:38.000Z</time>
      </trkpt>
      <trkpt lat="46.04269" lon="4.49638">
        <ele>530</ele>
        <time>2016-11-27T09:27:39.000Z</time>
      </trkpt>
      <trkpt lat="46.04268" lon="4.49639">
        <ele>529</ele>
        <time>2016-11-27T09:27:40.000Z</time>
      </trkpt>
      <trkpt lat="46.04268" lon="4.4964">
        <ele>528</ele>
        <time>2016-11-27T09:27:41.000Z</time>
      </trkpt>
      <trkpt lat="46.04268" lon="4.49641">
        <ele>528</ele>
        <time>2016-11-27T09:27:42.000Z</time>
      </trkpt>
      <trkpt lat="46.04268" lon="4.49642">
        <ele>528</ele>
        <time>2016-11-27T09:27:43.000Z</time>
      </trkpt>
      <trkpt lat="46.04267" lon="4.49643">
        <ele>528</ele>
        <time>2016-11-27T09:27:44.000Z</time>
      </trkpt>
      <trkpt lat="46.04267" lon="4.49643">
        <ele>527</ele>
        <time>2016-11-27T09:27:45.000Z</time>
      </trkpt>
      <trkpt lat="46.04266" lon="4.49644">
        <ele>528</ele>
        <time>2016-11-27T09:27:46.000Z</time>
      </trkpt>
      <trkpt lat="46.04266" lon="4.49645">
        <ele>529</ele>
        <time>2016-11-27T09:27:47.000Z</time>
      </trkpt>
      <trkpt lat="46.04266" lon="4.49645">
        <ele>529</ele>
        <time>2016-11-27T09:27:48.000Z</time>
      </trkpt>
      <trkpt lat="46.04266" lon="4.49646">
        <ele>529</ele>
        <time>2016-11-27T09:27:49.000Z</time>
      </trkpt>
      <trkpt lat="46.04266" lon="4.49647">
        <ele>529</ele>
        <time>2016-11-27T09:27:50.000Z</time>
      </trkpt>
      <trkpt lat="46.04266" lon="4.49648">
        <ele>529</ele>
        <time>2016-11-27T09:27:51.000Z</time>
      </trkpt>
      <trkpt lat="46.04266" lon="4.49649">
        <ele>530</ele>
        <time>2016-11-27T09:27:52.000Z</time>
      </trkpt>
      <trkpt lat="46.04266" lon="4.49649">
        <ele>529</ele>
        <time>2016-11-27T09:27:53.000Z</time>
      </trkpt>
      <trkpt lat="46.04265" lon="4.4965">
        <ele>530</ele>
        <time>2016-11-27T09:27:54.000Z</time>
      </trkpt>
      <trkpt lat="46.04265" lon="4.4965">
        <ele>530</ele>
        <time>2016-11-27T09:27:55.000Z</time>
      </trkpt>
      <trkpt lat="46.04265" lon="4.49651">
        <ele>530</ele>
        <time>2016-11-27T09:27:56.000Z</time>
      </trkpt>
      <trkpt lat="46.04265" lon="4.49651">
        <ele>530</ele>
        <time>2016-11-27T09:27:57.000Z</time>
      </trkpt>
      <trkpt lat="46.04265" lon="4.49651">
        <ele>531</ele>
        <time>2016-11-27T09:27:58.000Z</time>
      </trkpt>
      <trkpt lat="46.04264" lon="4.49651">
        <ele>530</ele>
        <time>2016-11-27T09:27:59.000Z</time>
      </trkpt>
      <trkpt lat="46.04264" lon="4.49651">
        <ele>530</ele>
        <time>2016-11-27T09:28:00.000Z</time>
      </trkpt>
      <trkpt lat="46.04264" lon="4.49651">
        <ele>529</ele>
        <time>2016-11-27T09:28:01.000Z</time>
      </trkpt>
      <trkpt lat="46.04264" lon="4.49651">
        <ele>529</ele>
        <time>2016-11-27T09:28:02.000Z</time>
      </trkpt>
      <trkpt lat="46.04264" lon="4.49652">
        <ele>529</ele>
        <time>2016-11-27T09:28:03.000Z</time>
      </trkpt>
      <trkpt lat="46.04264" lon="4.49652">
        <ele>529</ele>
        <time>2016-11-27T09:28:04.000Z</time>
      </trkpt>
      <trkpt lat="46.04264" lon="4.49653">
        <ele>530</ele>
        <time>2016-11-27T09:28:05.000Z</time>
      </trkpt>
      <trkpt lat="46.04264" lon="4.49654">
        <ele>531</ele>
        <time>2016-11-27T09:28:06.000Z</time>
      </trkpt>
      <trkpt lat="46.04264" lon="4.49653">
        <ele>532</ele>
        <time>2016-11-27T09:28:07.000Z</time>
      </trkpt>
      <trkpt lat="46.04264" lon="4.49653">
        <ele>532</ele>
        <time>2016-11-27T09:28:08.000Z</time>
      </trkpt>
      <trkpt lat="46.04265" lon="4.49653">
        <ele>532</ele>
        <time>2016-11-27T09:28:09.000Z</time>
      </trkpt>
      <trkpt lat="46.04264" lon="4.49653">
        <ele>532</ele>
        <time>2016-11-27T09:28:10.000Z</time>
      </trkpt>
      <trkpt lat="46.04264" lon="4.49654">
        <ele>532</ele>
        <time>2016-11-27T09:28:11.000Z</time>
      </trkpt>
      <trkpt lat="46.04264" lon="4.49655">
        <ele>532</ele>
        <time>2016-11-27T09:28:12.000Z</time>
      </trkpt>
      <trkpt lat="46.04264" lon="4.49657">
        <ele>530</ele>
        <time>2016-11-27T09:28:13.000Z</time>
      </trkpt>
      <trkpt lat="46.04264" lon="4.49659">
        <ele>530</ele>
        <time>2016-11-27T09:28:14.000Z</time>
      </trkpt>
      <trkpt lat="46.04263" lon="4.49661">
        <ele>529</ele>
        <time>2016-11-27T09:28:15.000Z</time>
      </trkpt>
      <trkpt lat="46.04263" lon="4.49663">
        <ele>529</ele>
        <time>2016-11-27T09:28:16.000Z</time>
      </trkpt>
      <trkpt lat="46.04262" lon="4.49664">
        <ele>529</ele>
        <time>2016-11-27T09:28:17.000Z</time>
      </trkpt>
      <trkpt lat="46.04262" lon="4.49665">
        <ele>530</ele>
        <time>2016-11-27T09:28:18.000Z</time>
      </trkpt>
      <trkpt lat="46.04261" lon="4.49666">
        <ele>530</ele>
        <time>2016-11-27T09:28:19.000Z</time>
      </trkpt>
      <trkpt lat="46.04261" lon="4.49667">
        <ele>530</ele>
        <time>2016-11-27T09:28:20.000Z</time>
      </trkpt>
      <trkpt lat="46.04261" lon="4.49668">
        <ele>530</ele>
        <time>2016-11-27T09:28:21.000Z</time>
      </trkpt>
      <trkpt lat="46.0426" lon="4.49668">
        <ele>530</ele>
        <time>2016-11-27T09:28:22.000Z</time>
      </trkpt>
      <trkpt lat="46.0426" lon="4.49669">
        <ele>530</ele>
        <time>2016-11-27T09:28:23.000Z</time>
      </trkpt>
      <trkpt lat="46.0426" lon="4.49669">
        <ele>530</ele>
        <time>2016-11-27T09:28:24.000Z</time>
      </trkpt>
      <trkpt lat="46.0426" lon="4.4967">
        <ele>531</ele>
        <time>2016-11-27T09:28:25.000Z</time>
      </trkpt>
      <trkpt lat="46.04259" lon="4.4967">
        <ele>531</ele>
        <time>2016-11-27T09:28:26.000Z</time>
      </trkpt>
      <trkpt lat="46.04259" lon="4.4967">
        <ele>532</ele>
        <time>2016-11-27T09:28:27.000Z</time>
      </trkpt>
      <trkpt lat="46.04258" lon="4.49671">
        <ele>532</ele>
        <time>2016-11-27T09:28:28.000Z</time>
      </trkpt>
      <trkpt lat="46.04258" lon="4.49671">
        <ele>532</ele>
        <time>2016-11-27T09:28:29.000Z</time>
      </trkpt>
      <trkpt lat="46.04258" lon="4.49672">
        <ele>532</ele>
        <time>2016-11-27T09:28:30.000Z</time>
      </trkpt>
      <trkpt lat="46.04258" lon="4.49673">
        <ele>532</ele>
        <time>2016-11-27T09:28:31.000Z</time>
      </trkpt>
      <trkpt lat="46.04257" lon="4.49674">
        <ele>533</ele>
        <time>2016-11-27T09:28:32.000Z</time>
      </trkpt>
      <trkpt lat="46.04257" lon="4.49674">
        <ele>533</ele>
        <time>2016-11-27T09:28:33.000Z</time>
      </trkpt>
      <trkpt lat="46.04257" lon="4.49675">
        <ele>533</ele>
        <time>2016-11-27T09:28:34.000Z</time>
      </trkpt>
      <trkpt lat="46.04255" lon="4.49676">
        <ele>534</ele>
        <time>2016-11-27T09:28:35.000Z</time>
      </trkpt>
      <trkpt lat="46.04254" lon="4.49677">
        <ele>534</ele>
        <time>2016-11-27T09:28:36.000Z</time>
      </trkpt>
      <trkpt lat="46.04252" lon="4.49679">
        <ele>535</ele>
        <time>2016-11-27T09:28:37.000Z</time>
      </trkpt>
      <trkpt lat="46.0425" lon="4.49679">
        <ele>536</ele>
        <time>2016-11-27T09:28:38.000Z</time>
      </trkpt>
      <trkpt lat="46.04249" lon="4.4968">
        <ele>536</ele>
        <time>2016-11-27T09:28:39.000Z</time>
      </trkpt>
      <trkpt lat="46.04249" lon="4.49681">
        <ele>536</ele>
        <time>2016-11-27T09:28:40.000Z</time>
      </trkpt>
      <trkpt lat="46.04249" lon="4.49682">
        <ele>536</ele>
        <time>2016-11-27T09:28:41.000Z</time>
      </trkpt>
      <trkpt lat="46.04248" lon="4.49683">
        <ele>536</ele>
        <time>2016-11-27T09:28:42.000Z</time>
      </trkpt>
      <trkpt lat="46.04248" lon="4.49684">
        <ele>536</ele>
        <time>2016-11-27T09:28:43.000Z</time>
      </trkpt>
      <trkpt lat="46.04248" lon="4.49685">
        <ele>535</ele>
        <time>2016-11-27T09:28:44.000Z</time>
      </trkpt>
      <trkpt lat="46.04248" lon="4.49686">
        <ele>535</ele>
        <time>2016-11-27T09:28:45.000Z</time>
      </trkpt>
      <trkpt lat="46.04247" lon="4.49687">
        <ele>535</ele>
        <time>2016-11-27T09:28:46.000Z</time>
      </trkpt>
      <trkpt lat="46.04247" lon="4.49688">
        <ele>535</ele>
        <time>2016-11-27T09:28:47.000Z</time>
      </trkpt>
      <trkpt lat="46.04247" lon="4.49689">
        <ele>535</ele>
        <time>2016-11-27T09:28:48.000Z</time>
      </trkpt>
      <trkpt lat="46.04247" lon="4.4969">
        <ele>535</ele>
        <time>2016-11-27T09:28:49.000Z</time>
      </trkpt>
      <trkpt lat="46.04247" lon="4.4969">
        <ele>535</ele>
        <time>2016-11-27T09:28:50.000Z</time>
      </trkpt>
      <trkpt lat="46.04247" lon="4.49691">
        <ele>535</ele>
        <time>2016-11-27T09:28:51.000Z</time>
      </trkpt>
      <trkpt lat="46.04247" lon="4.49692">
        <ele>535</ele>
        <time>2016-11-27T09:28:52.000Z</time>
      </trkpt>
      <trkpt lat="46.04247" lon="4.49694">
        <ele>535</ele>
        <time>2016-11-27T09:28:53.000Z</time>
      </trkpt>
      <trkpt lat="46.04247" lon="4.49695">
        <ele>536</ele>
        <time>2016-11-27T09:28:54.000Z</time>
      </trkpt>
      <trkpt lat="46.04247" lon="4.49696">
        <ele>536</ele>
        <time>2016-11-27T09:28:55.000Z</time>
      </trkpt>
      <trkpt lat="46.04247" lon="4.49698">
        <ele>535</ele>
        <time>2016-11-27T09:28:56.000Z</time>
      </trkpt>
      <trkpt lat="46.04247" lon="4.49699">
        <ele>535</ele>
        <time>2016-11-27T09:28:57.000Z</time>
      </trkpt>
      <trkpt lat="46.04246" lon="4.497">
        <ele>535</ele>
        <time>2016-11-27T09:28:58.000Z</time>
      </trkpt>
      <trkpt lat="46.04246" lon="4.49702">
        <ele>535</ele>
        <time>2016-11-27T09:28:59.000Z</time>
      </trkpt>
      <trkpt lat="46.04247" lon="4.49704">
        <ele>536</ele>
        <time>2016-11-27T09:29:00.000Z</time>
      </trkpt>
      <trkpt lat="46.04247" lon="4.49705">
        <ele>536</ele>
        <time>2016-11-27T09:29:01.000Z</time>
      </trkpt>
      <trkpt lat="46.04247" lon="4.49707">
        <ele>536</ele>
        <time>2016-11-27T09:29:02.000Z</time>
      </trkpt>
      <trkpt lat="46.04247" lon="4.49708">
        <ele>536</ele>
        <time>2016-11-27T09:29:03.000Z</time>
      </trkpt>
      <trkpt lat="46.04246" lon="4.4971">
        <ele>536</ele>
        <time>2016-11-27T09:29:04.000Z</time>
      </trkpt>
      <trkpt lat="46.04246" lon="4.49711">
        <ele>537</ele>
        <time>2016-11-27T09:29:05.000Z</time>
      </trkpt>
      <trkpt lat="46.04246" lon="4.49712">
        <ele>537</ele>
        <time>2016-11-27T09:29:06.000Z</time>
      </trkpt>
      <trkpt lat="46.04245" lon="4.49713">
        <ele>538</ele>
        <time>2016-11-27T09:29:07.000Z</time>
      </trkpt>
      <trkpt lat="46.04245" lon="4.49714">
        <ele>538</ele>
        <time>2016-11-27T09:29:08.000Z</time>
      </trkpt>
      <trkpt lat="46.04244" lon="4.49716">
        <ele>536</ele>
        <time>2016-11-27T09:29:09.000Z</time>
      </trkpt>
      <trkpt lat="46.04241" lon="4.49718">
        <ele>534</ele>
        <time>2016-11-27T09:29:10.000Z</time>
      </trkpt>
      <trkpt lat="46.04238" lon="4.4972">
        <ele>532</ele>
        <time>2016-11-27T09:29:11.000Z</time>
      </trkpt>
      <trkpt lat="46.04235" lon="4.49722">
        <ele>531</ele>
        <time>2016-11-27T09:29:12.000Z</time>
      </trkpt>
      <trkpt lat="46.04233" lon="4.49724">
        <ele>532</ele>
        <time>2016-11-27T09:29:13.000Z</time>
      </trkpt>
      <trkpt lat="46.0423" lon="4.49728">
        <ele>533</ele>
        <time>2016-11-27T09:29:14.000Z</time>
      </trkpt>
      <trkpt lat="46.04228" lon="4.49731">
        <ele>532</ele>
        <time>2016-11-27T09:29:15.000Z</time>
      </trkpt>
      <trkpt lat="46.04226" lon="4.49734">
        <ele>532</ele>
        <time>2016-11-27T09:29:16.000Z</time>
      </trkpt>
      <trkpt lat="46.04225" lon="4.49738">
        <ele>533</ele>
        <time>2016-11-27T09:29:17.000Z</time>
      </trkpt>
      <trkpt lat="46.04224" lon="4.49741">
        <ele>532</ele>
        <time>2016-11-27T09:29:18.000Z</time>
      </trkpt>
      <trkpt lat="46.04223" lon="4.49745">
        <ele>532</ele>
        <time>2016-11-27T09:29:19.000Z</time>
      </trkpt>
      <trkpt lat="46.04222" lon="4.49747">
        <ele>533</ele>
        <time>2016-11-27T09:29:20.000Z</time>
      </trkpt>
      <trkpt lat="46.04222" lon="4.49751">
        <ele>533</ele>
        <time>2016-11-27T09:29:21.000Z</time>
      </trkpt>
      <trkpt lat="46.04222" lon="4.49754">
        <ele>534</ele>
        <time>2016-11-27T09:29:22.000Z</time>
      </trkpt>
      <trkpt lat="46.04222" lon="4.49757">
        <ele>536</ele>
        <time>2016-11-27T09:29:23.000Z</time>
      </trkpt>
      <trkpt lat="46.04222" lon="4.49761">
        <ele>537</ele>
        <time>2016-11-27T09:29:24.000Z</time>
      </trkpt>
      <trkpt lat="46.04223" lon="4.49765">
        <ele>537</ele>
        <time>2016-11-27T09:29:25.000Z</time>
      </trkpt>
      <trkpt lat="46.04224" lon="4.49768">
        <ele>538</ele>
        <time>2016-11-27T09:29:26.000Z</time>
      </trkpt>
      <trkpt lat="46.04225" lon="4.49772">
        <ele>539</ele>
        <time>2016-11-27T09:29:27.000Z</time>
      </trkpt>
      <trkpt lat="46.04225" lon="4.49776">
        <ele>539</ele>
        <time>2016-11-27T09:29:28.000Z</time>
      </trkpt>
      <trkpt lat="46.04226" lon="4.49779">
        <ele>539</ele>
        <time>2016-11-27T09:29:29.000Z</time>
      </trkpt>
      <trkpt lat="46.04226" lon="4.49782">
        <ele>539</ele>
        <time>2016-11-27T09:29:30.000Z</time>
      </trkpt>
      <trkpt lat="46.04227" lon="4.49785">
        <ele>540</ele>
        <time>2016-11-27T09:29:31.000Z</time>
      </trkpt>
      <trkpt lat="46.04228" lon="4.49788">
        <ele>539</ele>
        <time>2016-11-27T09:29:32.000Z</time>
      </trkpt>
      <trkpt lat="46.0423" lon="4.4979">
        <ele>539</ele>
        <time>2016-11-27T09:29:33.000Z</time>
      </trkpt>
      <trkpt lat="46.04232" lon="4.49793">
        <ele>540</ele>
        <time>2016-11-27T09:29:34.000Z</time>
      </trkpt>
      <trkpt lat="46.04233" lon="4.49796">
        <ele>540</ele>
        <time>2016-11-27T09:29:35.000Z</time>
      </trkpt>
      <trkpt lat="46.04235" lon="4.49799">
        <ele>540</ele>
        <time>2016-11-27T09:29:36.000Z</time>
      </trkpt>
      <trkpt lat="46.04237" lon="4.49802">
        <ele>539</ele>
        <time>2016-11-27T09:29:37.000Z</time>
      </trkpt>
      <trkpt lat="46.04239" lon="4.49806">
        <ele>540</ele>
        <time>2016-11-27T09:29:38.000Z</time>
      </trkpt>
      <trkpt lat="46.04241" lon="4.49809">
        <ele>540</ele>
        <time>2016-11-27T09:29:39.000Z</time>
      </trkpt>
      <trkpt lat="46.04242" lon="4.49812">
        <ele>540</ele>
        <time>2016-11-27T09:29:40.000Z</time>
      </trkpt>
      <trkpt lat="46.04244" lon="4.49815">
        <ele>541</ele>
        <time>2016-11-27T09:29:41.000Z</time>
      </trkpt>
      <trkpt lat="46.04246" lon="4.49818">
        <ele>542</ele>
        <time>2016-11-27T09:29:42.000Z</time>
      </trkpt>
      <trkpt lat="46.04247" lon="4.49821">
        <ele>541</ele>
        <time>2016-11-27T09:29:43.000Z</time>
      </trkpt>
      <trkpt lat="46.04248" lon="4.49825">
        <ele>542</ele>
        <time>2016-11-27T09:29:44.000Z</time>
      </trkpt>
      <trkpt lat="46.04249" lon="4.49828">
        <ele>542</ele>
        <time>2016-11-27T09:29:45.000Z</time>
      </trkpt>
      <trkpt lat="46.04249" lon="4.49832">
        <ele>542</ele>
        <time>2016-11-27T09:29:46.000Z</time>
      </trkpt>
      <trkpt lat="46.0425" lon="4.49835">
        <ele>541</ele>
        <time>2016-11-27T09:29:47.000Z</time>
      </trkpt>
      <trkpt lat="46.0425" lon="4.49839">
        <ele>541</ele>
        <time>2016-11-27T09:29:48.000Z</time>
      </trkpt>
      <trkpt lat="46.0425" lon="4.49843">
        <ele>540</ele>
        <time>2016-11-27T09:29:49.000Z</time>
      </trkpt>
      <trkpt lat="46.04251" lon="4.49847">
        <ele>540</ele>
        <time>2016-11-27T09:29:50.000Z</time>
      </trkpt>
      <trkpt lat="46.04251" lon="4.49851">
        <ele>540</ele>
        <time>2016-11-27T09:29:51.000Z</time>
      </trkpt>
      <trkpt lat="46.04252" lon="4.49856">
        <ele>539</ele>
        <time>2016-11-27T09:29:52.000Z</time>
      </trkpt>
      <trkpt lat="46.04253" lon="4.4986">
        <ele>538</ele>
        <time>2016-11-27T09:29:53.000Z</time>
      </trkpt>
      <trkpt lat="46.04253" lon="4.49865">
        <ele>537</ele>
        <time>2016-11-27T09:29:54.000Z</time>
      </trkpt>
      <trkpt lat="46.04253" lon="4.49869">
        <ele>537</ele>
        <time>2016-11-27T09:29:55.000Z</time>
      </trkpt>
      <trkpt lat="46.04253" lon="4.49874">
        <ele>537</ele>
        <time>2016-11-27T09:29:56.000Z</time>
      </trkpt>
      <trkpt lat="46.04253" lon="4.49879">
        <ele>538</ele>
        <time>2016-11-27T09:29:57.000Z</time>
      </trkpt>
      <trkpt lat="46.04252" lon="4.49883">
        <ele>539</ele>
        <time>2016-11-27T09:29:58.000Z</time>
      </trkpt>
      <trkpt lat="46.04251" lon="4.49888">
        <ele>538</ele>
        <time>2016-11-27T09:29:59.000Z</time>
      </trkpt>
      <trkpt lat="46.04249" lon="4.49893">
        <ele>539</ele>
        <time>2016-11-27T09:30:00.000Z</time>
      </trkpt>
      <trkpt lat="46.04247" lon="4.49898">
        <ele>539</ele>
        <time>2016-11-27T09:30:01.000Z</time>
      </trkpt>
      <trkpt lat="46.04245" lon="4.49902">
        <ele>540</ele>
        <time>2016-11-27T09:30:02.000Z</time>
      </trkpt>
      <trkpt lat="46.04242" lon="4.49906">
        <ele>540</ele>
        <time>2016-11-27T09:30:03.000Z</time>
      </trkpt>
      <trkpt lat="46.0424" lon="4.4991">
        <ele>541</ele>
        <time>2016-11-27T09:30:04.000Z</time>
      </trkpt>
      <trkpt lat="46.04239" lon="4.49913">
        <ele>541</ele>
        <time>2016-11-27T09:30:05.000Z</time>
      </trkpt>
      <trkpt lat="46.04238" lon="4.49915">
        <ele>541</ele>
        <time>2016-11-27T09:30:06.000Z</time>
      </trkpt>
      <trkpt lat="46.04238" lon="4.49918">
        <ele>542</ele>
        <time>2016-11-27T09:30:07.000Z</time>
      </trkpt>
      <trkpt lat="46.04236" lon="4.49921">
        <ele>542</ele>
        <time>2016-11-27T09:30:08.000Z</time>
      </trkpt>
      <trkpt lat="46.04235" lon="4.49924">
        <ele>544</ele>
        <time>2016-11-27T09:30:09.000Z</time>
      </trkpt>
      <trkpt lat="46.04233" lon="4.49927">
        <ele>544</ele>
        <time>2016-11-27T09:30:10.000Z</time>
      </trkpt>
      <trkpt lat="46.04232" lon="4.4993">
        <ele>545</ele>
        <time>2016-11-27T09:30:11.000Z</time>
      </trkpt>
      <trkpt lat="46.0423" lon="4.49933">
        <ele>546</ele>
        <time>2016-11-27T09:30:12.000Z</time>
      </trkpt>
      <trkpt lat="46.04229" lon="4.49936">
        <ele>547</ele>
        <time>2016-11-27T09:30:13.000Z</time>
      </trkpt>
      <trkpt lat="46.04228" lon="4.49938">
        <ele>547</ele>
        <time>2016-11-27T09:30:14.000Z</time>
      </trkpt>
      <trkpt lat="46.04227" lon="4.49941">
        <ele>549</ele>
        <time>2016-11-27T09:30:15.000Z</time>
      </trkpt>
      <trkpt lat="46.04226" lon="4.49944">
        <ele>550</ele>
        <time>2016-11-27T09:30:16.000Z</time>
      </trkpt>
      <trkpt lat="46.04224" lon="4.49948">
        <ele>550</ele>
        <time>2016-11-27T09:30:17.000Z</time>
      </trkpt>
      <trkpt lat="46.04223" lon="4.49952">
        <ele>550</ele>
        <time>2016-11-27T09:30:18.000Z</time>
      </trkpt>
      <trkpt lat="46.04222" lon="4.49955">
        <ele>550</ele>
        <time>2016-11-27T09:30:19.000Z</time>
      </trkpt>
      <trkpt lat="46.04222" lon="4.49959">
        <ele>551</ele>
        <time>2016-11-27T09:30:20.000Z</time>
      </trkpt>
      <trkpt lat="46.04221" lon="4.49963">
        <ele>552</ele>
        <time>2016-11-27T09:30:21.000Z</time>
      </trkpt>
      <trkpt lat="46.0422" lon="4.49966">
        <ele>552</ele>
        <time>2016-11-27T09:30:22.000Z</time>
      </trkpt>
      <trkpt lat="46.04219" lon="4.4997">
        <ele>553</ele>
        <time>2016-11-27T09:30:23.000Z</time>
      </trkpt>
      <trkpt lat="46.04218" lon="4.49973">
        <ele>553</ele>
        <time>2016-11-27T09:30:24.000Z</time>
      </trkpt>
      <trkpt lat="46.04216" lon="4.49976">
        <ele>554</ele>
        <time>2016-11-27T09:30:25.000Z</time>
      </trkpt>
      <trkpt lat="46.04215" lon="4.49978">
        <ele>554</ele>
        <time>2016-11-27T09:30:26.000Z</time>
      </trkpt>
      <trkpt lat="46.04214" lon="4.49981">
        <ele>554</ele>
        <time>2016-11-27T09:30:27.000Z</time>
      </trkpt>
      <trkpt lat="46.04213" lon="4.49984">
        <ele>555</ele>
        <time>2016-11-27T09:30:28.000Z</time>
      </trkpt>
      <trkpt lat="46.04212" lon="4.49988">
        <ele>555</ele>
        <time>2016-11-27T09:30:29.000Z</time>
      </trkpt>
      <trkpt lat="46.0421" lon="4.49991">
        <ele>555</ele>
        <time>2016-11-27T09:30:30.000Z</time>
      </trkpt>
      <trkpt lat="46.04209" lon="4.49995">
        <ele>555</ele>
        <time>2016-11-27T09:30:31.000Z</time>
      </trkpt>
      <trkpt lat="46.04208" lon="4.49999">
        <ele>556</ele>
        <time>2016-11-27T09:30:32.000Z</time>
      </trkpt>
      <trkpt lat="46.04207" lon="4.50003">
        <ele>556</ele>
        <time>2016-11-27T09:30:33.000Z</time>
      </trkpt>
      <trkpt lat="46.04205" lon="4.50006">
        <ele>556</ele>
        <time>2016-11-27T09:30:34.000Z</time>
      </trkpt>
      <trkpt lat="46.04203" lon="4.5001">
        <ele>557</ele>
        <time>2016-11-27T09:30:35.000Z</time>
      </trkpt>
      <trkpt lat="46.04201" lon="4.50013">
        <ele>558</ele>
        <time>2016-11-27T09:30:36.000Z</time>
      </trkpt>
      <trkpt lat="46.04199" lon="4.50016">
        <ele>557</ele>
        <time>2016-11-27T09:30:37.000Z</time>
      </trkpt>
      <trkpt lat="46.04198" lon="4.50019">
        <ele>556</ele>
        <time>2016-11-27T09:30:38.000Z</time>
      </trkpt>
      <trkpt lat="46.04197" lon="4.50022">
        <ele>555</ele>
        <time>2016-11-27T09:30:39.000Z</time>
      </trkpt>
      <trkpt lat="46.04196" lon="4.50025">
        <ele>556</ele>
        <time>2016-11-27T09:30:40.000Z</time>
      </trkpt>
      <trkpt lat="46.04194" lon="4.50028">
        <ele>555</ele>
        <time>2016-11-27T09:30:41.000Z</time>
      </trkpt>
      <trkpt lat="46.04193" lon="4.5003">
        <ele>555</ele>
        <time>2016-11-27T09:30:42.000Z</time>
      </trkpt>
      <trkpt lat="46.04191" lon="4.50032">
        <ele>554</ele>
        <time>2016-11-27T09:30:43.000Z</time>
      </trkpt>
      <trkpt lat="46.04189" lon="4.50034">
        <ele>554</ele>
        <time>2016-11-27T09:30:44.000Z</time>
      </trkpt>
      <trkpt lat="46.04187" lon="4.50036">
        <ele>554</ele>
        <time>2016-11-27T09:30:45.000Z</time>
      </trkpt>
      <trkpt lat="46.04186" lon="4.50037">
        <ele>554</ele>
        <time>2016-11-27T09:30:46.000Z</time>
      </trkpt>
      <trkpt lat="46.04184" lon="4.50039">
        <ele>554</ele>
        <time>2016-11-27T09:30:47.000Z</time>
      </trkpt>
      <trkpt lat="46.04182" lon="4.5004">
        <ele>553</ele>
        <time>2016-11-27T09:30:48.000Z</time>
      </trkpt>
      <trkpt lat="46.0418" lon="4.50041">
        <ele>553</ele>
        <time>2016-11-27T09:30:49.000Z</time>
      </trkpt>
      <trkpt lat="46.04178" lon="4.50043">
        <ele>552</ele>
        <time>2016-11-27T09:30:50.000Z</time>
      </trkpt>
      <trkpt lat="46.04176" lon="4.50044">
        <ele>552</ele>
        <time>2016-11-27T09:30:51.000Z</time>
      </trkpt>
      <trkpt lat="46.04174" lon="4.50046">
        <ele>553</ele>
        <time>2016-11-27T09:30:52.000Z</time>
      </trkpt>
      <trkpt lat="46.04172" lon="4.50049">
        <ele>553</ele>
        <time>2016-11-27T09:30:53.000Z</time>
      </trkpt>
      <trkpt lat="46.0417" lon="4.50053">
        <ele>553</ele>
        <time>2016-11-27T09:30:54.000Z</time>
      </trkpt>
      <trkpt lat="46.04168" lon="4.50056">
        <ele>553</ele>
        <time>2016-11-27T09:30:55.000Z</time>
      </trkpt>
      <trkpt lat="46.04167" lon="4.50059">
        <ele>553</ele>
        <time>2016-11-27T09:30:56.000Z</time>
      </trkpt>
      <trkpt lat="46.04165" lon="4.50061">
        <ele>553</ele>
        <time>2016-11-27T09:30:57.000Z</time>
      </trkpt>
      <trkpt lat="46.04163" lon="4.50063">
        <ele>553</ele>
        <time>2016-11-27T09:30:58.000Z</time>
      </trkpt>
      <trkpt lat="46.04161" lon="4.50065">
        <ele>553</ele>
        <time>2016-11-27T09:30:59.000Z</time>
      </trkpt>
      <trkpt lat="46.04159" lon="4.50066">
        <ele>553</ele>
        <time>2016-11-27T09:31:00.000Z</time>
      </trkpt>
      <trkpt lat="46.04157" lon="4.50067">
        <ele>553</ele>
        <time>2016-11-27T09:31:01.000Z</time>
      </trkpt>
      <trkpt lat="46.04156" lon="4.50068">
        <ele>553</ele>
        <time>2016-11-27T09:31:02.000Z</time>
      </trkpt>
      <trkpt lat="46.04153" lon="4.5007">
        <ele>553</ele>
        <time>2016-11-27T09:31:03.000Z</time>
      </trkpt>
      <trkpt lat="46.04151" lon="4.50071">
        <ele>553</ele>
        <time>2016-11-27T09:31:04.000Z</time>
      </trkpt>
      <trkpt lat="46.04148" lon="4.50073">
        <ele>553</ele>
        <time>2016-11-27T09:31:05.000Z</time>
      </trkpt>
      <trkpt lat="46.04145" lon="4.50075">
        <ele>552</ele>
        <time>2016-11-27T09:31:06.000Z</time>
      </trkpt>
      <trkpt lat="46.04142" lon="4.50076">
        <ele>553</ele>
        <time>2016-11-27T09:31:07.000Z</time>
      </trkpt>
      <trkpt lat="46.04139" lon="4.50077">
        <ele>553</ele>
        <time>2016-11-27T09:31:08.000Z</time>
      </trkpt>
      <trkpt lat="46.04136" lon="4.50078">
        <ele>553</ele>
        <time>2016-11-27T09:31:09.000Z</time>
      </trkpt>
      <trkpt lat="46.04134" lon="4.50079">
        <ele>554</ele>
        <time>2016-11-27T09:31:10.000Z</time>
      </trkpt>
      <trkpt lat="46.04131" lon="4.5008">
        <ele>554</ele>
        <time>2016-11-27T09:31:11.000Z</time>
      </trkpt>
      <trkpt lat="46.04129" lon="4.50082">
        <ele>554</ele>
        <time>2016-11-27T09:31:12.000Z</time>
      </trkpt>
      <trkpt lat="46.04126" lon="4.50083">
        <ele>554</ele>
        <time>2016-11-27T09:31:13.000Z</time>
      </trkpt>
      <trkpt lat="46.04123" lon="4.50085">
        <ele>555</ele>
        <time>2016-11-27T09:31:14.000Z</time>
      </trkpt>
      <trkpt lat="46.04121" lon="4.50086">
        <ele>555</ele>
        <time>2016-11-27T09:31:15.000Z</time>
      </trkpt>
      <trkpt lat="46.04118" lon="4.50088">
        <ele>556</ele>
        <time>2016-11-27T09:31:16.000Z</time>
      </trkpt>
      <trkpt lat="46.04115" lon="4.50089">
        <ele>556</ele>
        <time>2016-11-27T09:31:17.000Z</time>
      </trkpt>
      <trkpt lat="46.04113" lon="4.50091">
        <ele>556</ele>
        <time>2016-11-27T09:31:18.000Z</time>
      </trkpt>
      <trkpt lat="46.0411" lon="4.50092">
        <ele>557</ele>
        <time>2016-11-27T09:31:19.000Z</time>
      </trkpt>
      <trkpt lat="46.04108" lon="4.50094">
        <ele>556</ele>
        <time>2016-11-27T09:31:20.000Z</time>
      </trkpt>
      <trkpt lat="46.04106" lon="4.50096">
        <ele>556</ele>
        <time>2016-11-27T09:31:21.000Z</time>
      </trkpt>
      <trkpt lat="46.04103" lon="4.50098">
        <ele>557</ele>
        <time>2016-11-27T09:31:22.000Z</time>
      </trkpt>
      <trkpt lat="46.04101" lon="4.501">
        <ele>558</ele>
        <time>2016-11-27T09:31:23.000Z</time>
      </trkpt>
      <trkpt lat="46.04099" lon="4.50102">
        <ele>559</ele>
        <time>2016-11-27T09:31:24.000Z</time>
      </trkpt>
      <trkpt lat="46.04097" lon="4.50104">
        <ele>560</ele>
        <time>2016-11-27T09:31:25.000Z</time>
      </trkpt>
      <trkpt lat="46.04095" lon="4.50106">
        <ele>561</ele>
        <time>2016-11-27T09:31:26.000Z</time>
      </trkpt>
      <trkpt lat="46.04092" lon="4.50109">
        <ele>561</ele>
        <time>2016-11-27T09:31:27.000Z</time>
      </trkpt>
      <trkpt lat="46.0409" lon="4.50111">
        <ele>561</ele>
        <time>2016-11-27T09:31:28.000Z</time>
      </trkpt>
      <trkpt lat="46.04088" lon="4.50112">
        <ele>562</ele>
        <time>2016-11-27T09:31:29.000Z</time>
      </trkpt>
      <trkpt lat="46.04087" lon="4.50114">
        <ele>562</ele>
        <time>2016-11-27T09:31:30.000Z</time>
      </trkpt>
      <trkpt lat="46.04085" lon="4.50115">
        <ele>562</ele>
        <time>2016-11-27T09:31:31.000Z</time>
      </trkpt>
      <trkpt lat="46.04083" lon="4.50117">
        <ele>562</ele>
        <time>2016-11-27T09:31:32.000Z</time>
      </trkpt>
      <trkpt lat="46.04081" lon="4.50118">
        <ele>563</ele>
        <time>2016-11-27T09:31:33.000Z</time>
      </trkpt>
      <trkpt lat="46.04079" lon="4.5012">
        <ele>564</ele>
        <time>2016-11-27T09:31:34.000Z</time>
      </trkpt>
      <trkpt lat="46.04077" lon="4.50122">
        <ele>564</ele>
        <time>2016-11-27T09:31:35.000Z</time>
      </trkpt>
      <trkpt lat="46.04075" lon="4.50124">
        <ele>565</ele>
        <time>2016-11-27T09:31:36.000Z</time>
      </trkpt>
      <trkpt lat="46.04073" lon="4.50125">
        <ele>566</ele>
        <time>2016-11-27T09:31:37.000Z</time>
      </trkpt>
      <trkpt lat="46.04071" lon="4.50128">
        <ele>566</ele>
        <time>2016-11-27T09:31:38.000Z</time>
      </trkpt>
      <trkpt lat="46.0407" lon="4.5013">
        <ele>567</ele>
        <time>2016-11-27T09:31:39.000Z</time>
      </trkpt>
      <trkpt lat="46.04068" lon="4.50132">
        <ele>567</ele>
        <time>2016-11-27T09:31:40.000Z</time>
      </trkpt>
      <trkpt lat="46.04066" lon="4.50134">
        <ele>566</ele>
        <time>2016-11-27T09:31:41.000Z</time>
      </trkpt>
      <trkpt lat="46.04064" lon="4.50136">
        <ele>566</ele>
        <time>2016-11-27T09:31:42.000Z</time>
      </trkpt>
      <trkpt lat="46.04062" lon="4.50138">
        <ele>566</ele>
        <time>2016-11-27T09:31:43.000Z</time>
      </trkpt>
      <trkpt lat="46.04061" lon="4.5014">
        <ele>566</ele>
        <time>2016-11-27T09:31:44.000Z</time>
      </trkpt>
      <trkpt lat="46.04059" lon="4.50142">
        <ele>565</ele>
        <time>2016-11-27T09:31:45.000Z</time>
      </trkpt>
      <trkpt lat="46.04057" lon="4.50143">
        <ele>565</ele>
        <time>2016-11-27T09:31:46.000Z</time>
      </trkpt>
      <trkpt lat="46.04055" lon="4.50144">
        <ele>564</ele>
        <time>2016-11-27T09:31:47.000Z</time>
      </trkpt>
      <trkpt lat="46.04053" lon="4.50146">
        <ele>564</ele>
        <time>2016-11-27T09:31:48.000Z</time>
      </trkpt>
      <trkpt lat="46.0405" lon="4.50148">
        <ele>564</ele>
        <time>2016-11-27T09:31:49.000Z</time>
      </trkpt>
      <trkpt lat="46.04048" lon="4.5015">
        <ele>563</ele>
        <time>2016-11-27T09:31:50.000Z</time>
      </trkpt>
      <trkpt lat="46.04046" lon="4.50152">
        <ele>563</ele>
        <time>2016-11-27T09:31:51.000Z</time>
      </trkpt>
      <trkpt lat="46.04045" lon="4.50153">
        <ele>563</ele>
        <time>2016-11-27T09:31:52.000Z</time>
      </trkpt>
      <trkpt lat="46.04042" lon="4.50154">
        <ele>564</ele>
        <time>2016-11-27T09:31:53.000Z</time>
      </trkpt>
      <trkpt lat="46.0404" lon="4.50155">
        <ele>564</ele>
        <time>2016-11-27T09:31:54.000Z</time>
      </trkpt>
      <trkpt lat="46.04038" lon="4.50156">
        <ele>564</ele>
        <time>2016-11-27T09:31:55.000Z</time>
      </trkpt>
      <trkpt lat="46.04037" lon="4.50156">
        <ele>565</ele>
        <time>2016-11-27T09:31:56.000Z</time>
      </trkpt>
      <trkpt lat="46.04035" lon="4.50157">
        <ele>565</ele>
        <time>2016-11-27T09:31:57.000Z</time>
      </trkpt>
      <trkpt lat="46.04033" lon="4.50158">
        <ele>565</ele>
        <time>2016-11-27T09:31:58.000Z</time>
      </trkpt>
      <trkpt lat="46.04031" lon="4.5016">
        <ele>566</ele>
        <time>2016-11-27T09:31:59.000Z</time>
      </trkpt>
      <trkpt lat="46.0403" lon="4.50161">
        <ele>565</ele>
        <time>2016-11-27T09:32:00.000Z</time>
      </trkpt>
      <trkpt lat="46.04029" lon="4.50162">
        <ele>565</ele>
        <time>2016-11-27T09:32:01.000Z</time>
      </trkpt>
      <trkpt lat="46.04027" lon="4.50163">
        <ele>566</ele>
        <time>2016-11-27T09:32:02.000Z</time>
      </trkpt>
      <trkpt lat="46.04025" lon="4.50163">
        <ele>566</ele>
        <time>2016-11-27T09:32:03.000Z</time>
      </trkpt>
      <trkpt lat="46.04024" lon="4.50163">
        <ele>565</ele>
        <time>2016-11-27T09:32:04.000Z</time>
      </trkpt>
      <trkpt lat="46.04022" lon="4.50164">
        <ele>566</ele>
        <time>2016-11-27T09:32:05.000Z</time>
      </trkpt>
      <trkpt lat="46.04019" lon="4.50165">
        <ele>566</ele>
        <time>2016-11-27T09:32:06.000Z</time>
      </trkpt>
      <trkpt lat="46.04017" lon="4.50165">
        <ele>566</ele>
        <time>2016-11-27T09:32:07.000Z</time>
      </trkpt>
      <trkpt lat="46.04015" lon="4.50166">
        <ele>565</ele>
        <time>2016-11-27T09:32:08.000Z</time>
      </trkpt>
      <trkpt lat="46.04013" lon="4.50166">
        <ele>564</ele>
        <time>2016-11-27T09:32:09.000Z</time>
      </trkpt>
      <trkpt lat="46.04011" lon="4.50167">
        <ele>564</ele>
        <time>2016-11-27T09:32:10.000Z</time>
      </trkpt>
      <trkpt lat="46.04008" lon="4.50167">
        <ele>566</ele>
        <time>2016-11-27T09:32:11.000Z</time>
      </trkpt>
      <trkpt lat="46.04006" lon="4.50168">
        <ele>567</ele>
        <time>2016-11-27T09:32:12.000Z</time>
      </trkpt>
      <trkpt lat="46.04003" lon="4.50169">
        <ele>567</ele>
        <time>2016-11-27T09:32:13.000Z</time>
      </trkpt>
      <trkpt lat="46.04001" lon="4.50169">
        <ele>567</ele>
        <time>2016-11-27T09:32:14.000Z</time>
      </trkpt>
      <trkpt lat="46.03999" lon="4.5017">
        <ele>568</ele>
        <time>2016-11-27T09:32:15.000Z</time>
      </trkpt>
      <trkpt lat="46.03997" lon="4.50171">
        <ele>568</ele>
        <time>2016-11-27T09:32:16.000Z</time>
      </trkpt>
      <trkpt lat="46.03995" lon="4.50172">
        <ele>569</ele>
        <time>2016-11-27T09:32:17.000Z</time>
      </trkpt>
      <trkpt lat="46.03993" lon="4.50173">
        <ele>569</ele>
        <time>2016-11-27T09:32:18.000Z</time>
      </trkpt>
      <trkpt lat="46.03991" lon="4.50173">
        <ele>569</ele>
        <time>2016-11-27T09:32:19.000Z</time>
      </trkpt>
      <trkpt lat="46.03989" lon="4.50174">
        <ele>570</ele>
        <time>2016-11-27T09:32:20.000Z</time>
      </trkpt>
      <trkpt lat="46.03987" lon="4.50174">
        <ele>570</ele>
        <time>2016-11-27T09:32:21.000Z</time>
      </trkpt>
      <trkpt lat="46.03986" lon="4.50175">
        <ele>570</ele>
        <time>2016-11-27T09:32:22.000Z</time>
      </trkpt>
      <trkpt lat="46.03984" lon="4.50175">
        <ele>570</ele>
        <time>2016-11-27T09:32:23.000Z</time>
      </trkpt>
      <trkpt lat="46.03984" lon="4.50176">
        <ele>570</ele>
        <time>2016-11-27T09:32:24.000Z</time>
      </trkpt>
      <trkpt lat="46.03983" lon="4.50177">
        <ele>570</ele>
        <time>2016-11-27T09:32:25.000Z</time>
      </trkpt>
      <trkpt lat="46.03983" lon="4.50178">
        <ele>569</ele>
        <time>2016-11-27T09:32:26.000Z</time>
      </trkpt>
      <trkpt lat="46.03983" lon="4.5018">
        <ele>569</ele>
        <time>2016-11-27T09:32:27.000Z</time>
      </trkpt>
      <trkpt lat="46.03983" lon="4.50181">
        <ele>569</ele>
        <time>2016-11-27T09:32:28.000Z</time>
      </trkpt>
      <trkpt lat="46.03983" lon="4.50181">
        <ele>569</ele>
        <time>2016-11-27T09:32:29.000Z</time>
      </trkpt>
      <trkpt lat="46.03984" lon="4.50182">
        <ele>570</ele>
        <time>2016-11-27T09:32:30.000Z</time>
      </trkpt>
      <trkpt lat="46.03984" lon="4.50183">
        <ele>570</ele>
        <time>2016-11-27T09:32:31.000Z</time>
      </trkpt>
      <trkpt lat="46.03984" lon="4.50184">
        <ele>570</ele>
        <time>2016-11-27T09:32:32.000Z</time>
      </trkpt>
      <trkpt lat="46.03985" lon="4.50185">
        <ele>570</ele>
        <time>2016-11-27T09:32:33.000Z</time>
      </trkpt>
      <trkpt lat="46.03985" lon="4.50186">
        <ele>572</ele>
        <time>2016-11-27T09:32:34.000Z</time>
      </trkpt>
      <trkpt lat="46.03985" lon="4.50187">
        <ele>572</ele>
        <time>2016-11-27T09:32:35.000Z</time>
      </trkpt>
      <trkpt lat="46.03986" lon="4.50188">
        <ele>573</ele>
        <time>2016-11-27T09:32:36.000Z</time>
      </trkpt>
      <trkpt lat="46.03987" lon="4.50189">
        <ele>574</ele>
        <time>2016-11-27T09:32:37.000Z</time>
      </trkpt>
      <trkpt lat="46.03987" lon="4.5019">
        <ele>575</ele>
        <time>2016-11-27T09:32:38.000Z</time>
      </trkpt>
      <trkpt lat="46.03988" lon="4.50192">
        <ele>576</ele>
        <time>2016-11-27T09:32:39.000Z</time>
      </trkpt>
      <trkpt lat="46.03987" lon="4.50193">
        <ele>577</ele>
        <time>2016-11-27T09:32:40.000Z</time>
      </trkpt>
      <trkpt lat="46.03987" lon="4.50194">
        <ele>578</ele>
        <time>2016-11-27T09:32:41.000Z</time>
      </trkpt>
      <trkpt lat="46.03987" lon="4.50195">
        <ele>580</ele>
        <time>2016-11-27T09:32:42.000Z</time>
      </trkpt>
      <trkpt lat="46.03987" lon="4.50197">
        <ele>580</ele>
        <time>2016-11-27T09:32:43.000Z</time>
      </trkpt>
      <trkpt lat="46.03988" lon="4.50198">
        <ele>579</ele>
        <time>2016-11-27T09:32:44.000Z</time>
      </trkpt>
      <trkpt lat="46.03988" lon="4.502">
        <ele>579</ele>
        <time>2016-11-27T09:32:45.000Z</time>
      </trkpt>
      <trkpt lat="46.03988" lon="4.50201">
        <ele>580</ele>
        <time>2016-11-27T09:32:46.000Z</time>
      </trkpt>
      <trkpt lat="46.03988" lon="4.50202">
        <ele>580</ele>
        <time>2016-11-27T09:32:47.000Z</time>
      </trkpt>
      <trkpt lat="46.03989" lon="4.50203">
        <ele>581</ele>
        <time>2016-11-27T09:32:48.000Z</time>
      </trkpt>
      <trkpt lat="46.0399" lon="4.50204">
        <ele>581</ele>
        <time>2016-11-27T09:32:49.000Z</time>
      </trkpt>
      <trkpt lat="46.0399" lon="4.50206">
        <ele>581</ele>
        <time>2016-11-27T09:32:50.000Z</time>
      </trkpt>
      <trkpt lat="46.03991" lon="4.50207">
        <ele>581</ele>
        <time>2016-11-27T09:32:51.000Z</time>
      </trkpt>
      <trkpt lat="46.03991" lon="4.50208">
        <ele>582</ele>
        <time>2016-11-27T09:32:52.000Z</time>
      </trkpt>
      <trkpt lat="46.03992" lon="4.5021">
        <ele>582</ele>
        <time>2016-11-27T09:32:53.000Z</time>
      </trkpt>
      <trkpt lat="46.03992" lon="4.50211">
        <ele>582</ele>
        <time>2016-11-27T09:32:54.000Z</time>
      </trkpt>
      <trkpt lat="46.03991" lon="4.50213">
        <ele>583</ele>
        <time>2016-11-27T09:32:55.000Z</time>
      </trkpt>
      <trkpt lat="46.03991" lon="4.50214">
        <ele>584</ele>
        <time>2016-11-27T09:32:56.000Z</time>
      </trkpt>
      <trkpt lat="46.03991" lon="4.50215">
        <ele>584</ele>
        <time>2016-11-27T09:32:57.000Z</time>
      </trkpt>
      <trkpt lat="46.03991" lon="4.50217">
        <ele>583</ele>
        <time>2016-11-27T09:32:58.000Z</time>
      </trkpt>
      <trkpt lat="46.03991" lon="4.50218">
        <ele>583</ele>
        <time>2016-11-27T09:32:59.000Z</time>
      </trkpt>
      <trkpt lat="46.03991" lon="4.50219">
        <ele>583</ele>
        <time>2016-11-27T09:33:00.000Z</time>
      </trkpt>
      <trkpt lat="46.03991" lon="4.50221">
        <ele>585</ele>
        <time>2016-11-27T09:33:01.000Z</time>
      </trkpt>
      <trkpt lat="46.03991" lon="4.50223">
        <ele>585</ele>
        <time>2016-11-27T09:33:02.000Z</time>
      </trkpt>
      <trkpt lat="46.03991" lon="4.50224">
        <ele>586</ele>
        <time>2016-11-27T09:33:03.000Z</time>
      </trkpt>
      <trkpt lat="46.03991" lon="4.50225">
        <ele>586</ele>
        <time>2016-11-27T09:33:04.000Z</time>
      </trkpt>
      <trkpt lat="46.03991" lon="4.50226">
        <ele>587</ele>
        <time>2016-11-27T09:33:05.000Z</time>
      </trkpt>
      <trkpt lat="46.03992" lon="4.50227">
        <ele>587</ele>
        <time>2016-11-27T09:33:06.000Z</time>
      </trkpt>
      <trkpt lat="46.03993" lon="4.50229">
        <ele>587</ele>
        <time>2016-11-27T09:33:07.000Z</time>
      </trkpt>
      <trkpt lat="46.03993" lon="4.5023">
        <ele>587</ele>
        <time>2016-11-27T09:33:08.000Z</time>
      </trkpt>
      <trkpt lat="46.03993" lon="4.50231">
        <ele>589</ele>
        <time>2016-11-27T09:33:09.000Z</time>
      </trkpt>
      <trkpt lat="46.03994" lon="4.50233">
        <ele>589</ele>
        <time>2016-11-27T09:33:10.000Z</time>
      </trkpt>
      <trkpt lat="46.03994" lon="4.50235">
        <ele>589</ele>
        <time>2016-11-27T09:33:11.000Z</time>
      </trkpt>
      <trkpt lat="46.03994" lon="4.50236">
        <ele>589</ele>
        <time>2016-11-27T09:33:12.000Z</time>
      </trkpt>
      <trkpt lat="46.03994" lon="4.50238">
        <ele>590</ele>
        <time>2016-11-27T09:33:13.000Z</time>
      </trkpt>
      <trkpt lat="46.03993" lon="4.50239">
        <ele>591</ele>
        <time>2016-11-27T09:33:14.000Z</time>
      </trkpt>
      <trkpt lat="46.03993" lon="4.50241">
        <ele>591</ele>
        <time>2016-11-27T09:33:15.000Z</time>
      </trkpt>
      <trkpt lat="46.03993" lon="4.50242">
        <ele>592</ele>
        <time>2016-11-27T09:33:16.000Z</time>
      </trkpt>
      <trkpt lat="46.03993" lon="4.50243">
        <ele>592</ele>
        <time>2016-11-27T09:33:17.000Z</time>
      </trkpt>
      <trkpt lat="46.03993" lon="4.50245">
        <ele>592</ele>
        <time>2016-11-27T09:33:18.000Z</time>
      </trkpt>
      <trkpt lat="46.03993" lon="4.50246">
        <ele>592</ele>
        <time>2016-11-27T09:33:19.000Z</time>
      </trkpt>
      <trkpt lat="46.03993" lon="4.50247">
        <ele>592</ele>
        <time>2016-11-27T09:33:20.000Z</time>
      </trkpt>
      <trkpt lat="46.03994" lon="4.50249">
        <ele>592</ele>
        <time>2016-11-27T09:33:21.000Z</time>
      </trkpt>
      <trkpt lat="46.03994" lon="4.50251">
        <ele>592</ele>
        <time>2016-11-27T09:33:22.000Z</time>
      </trkpt>
      <trkpt lat="46.03995" lon="4.50252">
        <ele>592</ele>
        <time>2016-11-27T09:33:23.000Z</time>
      </trkpt>
      <trkpt lat="46.03996" lon="4.50254">
        <ele>592</ele>
        <time>2016-11-27T09:33:24.000Z</time>
      </trkpt>
      <trkpt lat="46.03996" lon="4.50255">
        <ele>592</ele>
        <time>2016-11-27T09:33:25.000Z</time>
      </trkpt>
      <trkpt lat="46.03996" lon="4.50256">
        <ele>591</ele>
        <time>2016-11-27T09:33:26.000Z</time>
      </trkpt>
      <trkpt lat="46.03997" lon="4.50257">
        <ele>591</ele>
        <time>2016-11-27T09:33:27.000Z</time>
      </trkpt>
      <trkpt lat="46.03997" lon="4.50259">
        <ele>593</ele>
        <time>2016-11-27T09:33:28.000Z</time>
      </trkpt>
      <trkpt lat="46.03998" lon="4.5026">
        <ele>594</ele>
        <time>2016-11-27T09:33:29.000Z</time>
      </trkpt>
      <trkpt lat="46.03998" lon="4.50262">
        <ele>595</ele>
        <time>2016-11-27T09:33:30.000Z</time>
      </trkpt>
      <trkpt lat="46.03998" lon="4.50264">
        <ele>596</ele>
        <time>2016-11-27T09:33:31.000Z</time>
      </trkpt>
      <trkpt lat="46.03998" lon="4.50266">
        <ele>596</ele>
        <time>2016-11-27T09:33:32.000Z</time>
      </trkpt>
      <trkpt lat="46.03997" lon="4.50267">
        <ele>597</ele>
        <time>2016-11-27T09:33:33.000Z</time>
      </trkpt>
      <trkpt lat="46.03997" lon="4.50268">
        <ele>599</ele>
        <time>2016-11-27T09:33:34.000Z</time>
      </trkpt>
      <trkpt lat="46.03997" lon="4.50269">
        <ele>600</ele>
        <time>2016-11-27T09:33:35.000Z</time>
      </trkpt>
      <trkpt lat="46.03996" lon="4.5027">
        <ele>600</ele>
        <time>2016-11-27T09:33:36.000Z</time>
      </trkpt>
      <trkpt lat="46.03996" lon="4.50271">
        <ele>600</ele>
        <time>2016-11-27T09:33:37.000Z</time>
      </trkpt>
      <trkpt lat="46.03996" lon="4.50272">
        <ele>601</ele>
        <time>2016-11-27T09:33:38.000Z</time>
      </trkpt>
      <trkpt lat="46.03996" lon="4.50273">
        <ele>601</ele>
        <time>2016-11-27T09:33:39.000Z</time>
      </trkpt>
      <trkpt lat="46.03997" lon="4.50273">
        <ele>601</ele>
        <time>2016-11-27T09:33:40.000Z</time>
      </trkpt>
      <trkpt lat="46.03997" lon="4.50274">
        <ele>600</ele>
        <time>2016-11-27T09:33:41.000Z</time>
      </trkpt>
      <trkpt lat="46.03997" lon="4.50275">
        <ele>600</ele>
        <time>2016-11-27T09:33:42.000Z</time>
      </trkpt>
      <trkpt lat="46.03997" lon="4.50276">
        <ele>600</ele>
        <time>2016-11-27T09:33:43.000Z</time>
      </trkpt>
      <trkpt lat="46.03998" lon="4.50277">
        <ele>599</ele>
        <time>2016-11-27T09:33:44.000Z</time>
      </trkpt>
      <trkpt lat="46.03998" lon="4.50278">
        <ele>600</ele>
        <time>2016-11-27T09:33:45.000Z</time>
      </trkpt>
      <trkpt lat="46.03998" lon="4.50279">
        <ele>600</ele>
        <time>2016-11-27T09:33:46.000Z</time>
      </trkpt>
      <trkpt lat="46.03998" lon="4.5028">
        <ele>600</ele>
        <time>2016-11-27T09:33:47.000Z</time>
      </trkpt>
      <trkpt lat="46.03999" lon="4.50282">
        <ele>600</ele>
        <time>2016-11-27T09:33:48.000Z</time>
      </trkpt>
      <trkpt lat="46.03999" lon="4.50283">
        <ele>600</ele>
        <time>2016-11-27T09:33:49.000Z</time>
      </trkpt>
      <trkpt lat="46.03998" lon="4.50285">
        <ele>601</ele>
        <time>2016-11-27T09:33:50.000Z</time>
      </trkpt>
      <trkpt lat="46.03998" lon="4.50286">
        <ele>601</ele>
        <time>2016-11-27T09:33:51.000Z</time>
      </trkpt>
      <trkpt lat="46.03998" lon="4.50287">
        <ele>601</ele>
        <time>2016-11-27T09:33:52.000Z</time>
      </trkpt>
      <trkpt lat="46.03999" lon="4.50288">
        <ele>602</ele>
        <time>2016-11-27T09:33:53.000Z</time>
      </trkpt>
      <trkpt lat="46.03999" lon="4.5029">
        <ele>602</ele>
        <time>2016-11-27T09:33:54.000Z</time>
      </trkpt>
      <trkpt lat="46.03999" lon="4.50291">
        <ele>601</ele>
        <time>2016-11-27T09:33:55.000Z</time>
      </trkpt>
      <trkpt lat="46.03999" lon="4.50293">
        <ele>602</ele>
        <time>2016-11-27T09:33:56.000Z</time>
      </trkpt>
      <trkpt lat="46.03999" lon="4.50294">
        <ele>602</ele>
        <time>2016-11-27T09:33:57.000Z</time>
      </trkpt>
      <trkpt lat="46.03999" lon="4.50296">
        <ele>603</ele>
        <time>2016-11-27T09:33:58.000Z</time>
      </trkpt>
      <trkpt lat="46.03999" lon="4.50298">
        <ele>604</ele>
        <time>2016-11-27T09:33:59.000Z</time>
      </trkpt>
      <trkpt lat="46.03999" lon="4.50299">
        <ele>604</ele>
        <time>2016-11-27T09:34:00.000Z</time>
      </trkpt>
      <trkpt lat="46.03999" lon="4.503">
        <ele>604</ele>
        <time>2016-11-27T09:34:01.000Z</time>
      </trkpt>
      <trkpt lat="46.03999" lon="4.50302">
        <ele>604</ele>
        <time>2016-11-27T09:34:02.000Z</time>
      </trkpt>
      <trkpt lat="46.03999" lon="4.50303">
        <ele>604</ele>
        <time>2016-11-27T09:34:03.000Z</time>
      </trkpt>
      <trkpt lat="46.03999" lon="4.50305">
        <ele>604</ele>
        <time>2016-11-27T09:34:04.000Z</time>
      </trkpt>
      <trkpt lat="46.03999" lon="4.50306">
        <ele>604</ele>
        <time>2016-11-27T09:34:05.000Z</time>
      </trkpt>
      <trkpt lat="46.03999" lon="4.50307">
        <ele>605</ele>
        <time>2016-11-27T09:34:06.000Z</time>
      </trkpt>
      <trkpt lat="46.03999" lon="4.50308">
        <ele>605</ele>
        <time>2016-11-27T09:34:07.000Z</time>
      </trkpt>
      <trkpt lat="46.03999" lon="4.5031">
        <ele>605</ele>
        <time>2016-11-27T09:34:08.000Z</time>
      </trkpt>
      <trkpt lat="46.04" lon="4.50311">
        <ele>605</ele>
        <time>2016-11-27T09:34:09.000Z</time>
      </trkpt>
      <trkpt lat="46.04" lon="4.50312">
        <ele>605</ele>
        <time>2016-11-27T09:34:10.000Z</time>
      </trkpt>
      <trkpt lat="46.04" lon="4.50314">
        <ele>605</ele>
        <time>2016-11-27T09:34:11.000Z</time>
      </trkpt>
      <trkpt lat="46.04" lon="4.50315">
        <ele>605</ele>
        <time>2016-11-27T09:34:12.000Z</time>
      </trkpt>
      <trkpt lat="46.04001" lon="4.50316">
        <ele>606</ele>
        <time>2016-11-27T09:34:13.000Z</time>
      </trkpt>
      <trkpt lat="46.04001" lon="4.50317">
        <ele>606</ele>
        <time>2016-11-27T09:34:14.000Z</time>
      </trkpt>
      <trkpt lat="46.04002" lon="4.50317">
        <ele>606</ele>
        <time>2016-11-27T09:34:15.000Z</time>
      </trkpt>
      <trkpt lat="46.04002" lon="4.50318">
        <ele>606</ele>
        <time>2016-11-27T09:34:16.000Z</time>
      </trkpt>
      <trkpt lat="46.04002" lon="4.50318">
        <ele>607</ele>
        <time>2016-11-27T09:34:17.000Z</time>
      </trkpt>
      <trkpt lat="46.04003" lon="4.50318">
        <ele>607</ele>
        <time>2016-11-27T09:34:18.000Z</time>
      </trkpt>
      <trkpt lat="46.04003" lon="4.50318">
        <ele>606</ele>
        <time>2016-11-27T09:34:19.000Z</time>
      </trkpt>
      <trkpt lat="46.04003" lon="4.50318">
        <ele>607</ele>
        <time>2016-11-27T09:34:20.000Z</time>
      </trkpt>
      <trkpt lat="46.04003" lon="4.50318">
        <ele>607</ele>
        <time>2016-11-27T09:34:21.000Z</time>
      </trkpt>
      <trkpt lat="46.04004" lon="4.50318">
        <ele>607</ele>
        <time>2016-11-27T09:34:22.000Z</time>
      </trkpt>
      <trkpt lat="46.04004" lon="4.50319">
        <ele>607</ele>
        <time>2016-11-27T09:34:23.000Z</time>
      </trkpt>
      <trkpt lat="46.04005" lon="4.50319">
        <ele>608</ele>
        <time>2016-11-27T09:34:24.000Z</time>
      </trkpt>
      <trkpt lat="46.04006" lon="4.5032">
        <ele>608</ele>
        <time>2016-11-27T09:34:25.000Z</time>
      </trkpt>
      <trkpt lat="46.04006" lon="4.5032">
        <ele>609</ele>
        <time>2016-11-27T09:34:26.000Z</time>
      </trkpt>
      <trkpt lat="46.04007" lon="4.5032">
        <ele>609</ele>
        <time>2016-11-27T09:34:27.000Z</time>
      </trkpt>
      <trkpt lat="46.04007" lon="4.50321">
        <ele>610</ele>
        <time>2016-11-27T09:34:28.000Z</time>
      </trkpt>
      <trkpt lat="46.04007" lon="4.50321">
        <ele>610</ele>
        <time>2016-11-27T09:34:29.000Z</time>
      </trkpt>
      <trkpt lat="46.04008" lon="4.50322">
        <ele>611</ele>
        <time>2016-11-27T09:34:30.000Z</time>
      </trkpt>
      <trkpt lat="46.04008" lon="4.50322">
        <ele>611</ele>
        <time>2016-11-27T09:34:31.000Z</time>
      </trkpt>
      <trkpt lat="46.04009" lon="4.50323">
        <ele>611</ele>
        <time>2016-11-27T09:34:32.000Z</time>
      </trkpt>
      <trkpt lat="46.04009" lon="4.50324">
        <ele>612</ele>
        <time>2016-11-27T09:34:33.000Z</time>
      </trkpt>
      <trkpt lat="46.04009" lon="4.50324">
        <ele>612</ele>
        <time>2016-11-27T09:34:34.000Z</time>
      </trkpt>
      <trkpt lat="46.0401" lon="4.50325">
        <ele>612</ele>
        <time>2016-11-27T09:34:35.000Z</time>
      </trkpt>
      <trkpt lat="46.04011" lon="4.50326">
        <ele>612</ele>
        <time>2016-11-27T09:34:36.000Z</time>
      </trkpt>
      <trkpt lat="46.04011" lon="4.50327">
        <ele>613</ele>
        <time>2016-11-27T09:34:37.000Z</time>
      </trkpt>
      <trkpt lat="46.04012" lon="4.50327">
        <ele>613</ele>
        <time>2016-11-27T09:34:38.000Z</time>
      </trkpt>
      <trkpt lat="46.04012" lon="4.50328">
        <ele>613</ele>
        <time>2016-11-27T09:34:39.000Z</time>
      </trkpt>
      <trkpt lat="46.04013" lon="4.50329">
        <ele>614</ele>
        <time>2016-11-27T09:34:40.000Z</time>
      </trkpt>
      <trkpt lat="46.04013" lon="4.50329">
        <ele>614</ele>
        <time>2016-11-27T09:34:41.000Z</time>
      </trkpt>
      <trkpt lat="46.04014" lon="4.5033">
        <ele>614</ele>
        <time>2016-11-27T09:34:42.000Z</time>
      </trkpt>
      <trkpt lat="46.04014" lon="4.5033">
        <ele>615</ele>
        <time>2016-11-27T09:34:43.000Z</time>
      </trkpt>
      <trkpt lat="46.04015" lon="4.50331">
        <ele>616</ele>
        <time>2016-11-27T09:34:44.000Z</time>
      </trkpt>
      <trkpt lat="46.04015" lon="4.50332">
        <ele>616</ele>
        <time>2016-11-27T09:34:45.000Z</time>
      </trkpt>
      <trkpt lat="46.04015" lon="4.50333">
        <ele>617</ele>
        <time>2016-11-27T09:34:46.000Z</time>
      </trkpt>
      <trkpt lat="46.04016" lon="4.50333">
        <ele>617</ele>
        <time>2016-11-27T09:34:47.000Z</time>
      </trkpt>
      <trkpt lat="46.04016" lon="4.50334">
        <ele>617</ele>
        <time>2016-11-27T09:34:48.000Z</time>
      </trkpt>
      <trkpt lat="46.04016" lon="4.50335">
        <ele>617</ele>
        <time>2016-11-27T09:34:49.000Z</time>
      </trkpt>
      <trkpt lat="46.04017" lon="4.50336">
        <ele>617</ele>
        <time>2016-11-27T09:34:50.000Z</time>
      </trkpt>
      <trkpt lat="46.04017" lon="4.50337">
        <ele>617</ele>
        <time>2016-11-27T09:34:51.000Z</time>
      </trkpt>
      <trkpt lat="46.04017" lon="4.50338">
        <ele>618</ele>
        <time>2016-11-27T09:34:52.000Z</time>
      </trkpt>
      <trkpt lat="46.04017" lon="4.50339">
        <ele>618</ele>
        <time>2016-11-27T09:34:53.000Z</time>
      </trkpt>
      <trkpt lat="46.04017" lon="4.50341">
        <ele>618</ele>
        <time>2016-11-27T09:34:54.000Z</time>
      </trkpt>
      <trkpt lat="46.04017" lon="4.50343">
        <ele>617</ele>
        <time>2016-11-27T09:34:55.000Z</time>
      </trkpt>
      <trkpt lat="46.04017" lon="4.50345">
        <ele>617</ele>
        <time>2016-11-27T09:34:56.000Z</time>
      </trkpt>
      <trkpt lat="46.04017" lon="4.50347">
        <ele>617</ele>
        <time>2016-11-27T09:34:57.000Z</time>
      </trkpt>
      <trkpt lat="46.04017" lon="4.50348">
        <ele>618</ele>
        <time>2016-11-27T09:34:58.000Z</time>
      </trkpt>
      <trkpt lat="46.04018" lon="4.50349">
        <ele>618</ele>
        <time>2016-11-27T09:34:59.000Z</time>
      </trkpt>
      <trkpt lat="46.04018" lon="4.5035">
        <ele>618</ele>
        <time>2016-11-27T09:35:00.000Z</time>
      </trkpt>
      <trkpt lat="46.04018" lon="4.50351">
        <ele>618</ele>
        <time>2016-11-27T09:35:01.000Z</time>
      </trkpt>
      <trkpt lat="46.04018" lon="4.50351">
        <ele>618</ele>
        <time>2016-11-27T09:35:02.000Z</time>
      </trkpt>
      <trkpt lat="46.04018" lon="4.50352">
        <ele>618</ele>
        <time>2016-11-27T09:35:03.000Z</time>
      </trkpt>
      <trkpt lat="46.04018" lon="4.50353">
        <ele>618</ele>
        <time>2016-11-27T09:35:04.000Z</time>
      </trkpt>
      <trkpt lat="46.04018" lon="4.50354">
        <ele>619</ele>
        <time>2016-11-27T09:35:05.000Z</time>
      </trkpt>
      <trkpt lat="46.04018" lon="4.50355">
        <ele>619</ele>
        <time>2016-11-27T09:35:06.000Z</time>
      </trkpt>
      <trkpt lat="46.04018" lon="4.50356">
        <ele>619</ele>
        <time>2016-11-27T09:35:07.000Z</time>
      </trkpt>
      <trkpt lat="46.04019" lon="4.50358">
        <ele>619</ele>
        <time>2016-11-27T09:35:08.000Z</time>
      </trkpt>
      <trkpt lat="46.04019" lon="4.5036">
        <ele>620</ele>
        <time>2016-11-27T09:35:09.000Z</time>
      </trkpt>
      <trkpt lat="46.04019" lon="4.50361">
        <ele>620</ele>
        <time>2016-11-27T09:35:10.000Z</time>
      </trkpt>
      <trkpt lat="46.04019" lon="4.50363">
        <ele>619</ele>
        <time>2016-11-27T09:35:11.000Z</time>
      </trkpt>
      <trkpt lat="46.04019" lon="4.50364">
        <ele>620</ele>
        <time>2016-11-27T09:35:12.000Z</time>
      </trkpt>
      <trkpt lat="46.04019" lon="4.50366">
        <ele>619</ele>
        <time>2016-11-27T09:35:13.000Z</time>
      </trkpt>
      <trkpt lat="46.04019" lon="4.50367">
        <ele>619</ele>
        <time>2016-11-27T09:35:14.000Z</time>
      </trkpt>
      <trkpt lat="46.04019" lon="4.50369">
        <ele>619</ele>
        <time>2016-11-27T09:35:15.000Z</time>
      </trkpt>
      <trkpt lat="46.04018" lon="4.5037">
        <ele>619</ele>
        <time>2016-11-27T09:35:16.000Z</time>
      </trkpt>
      <trkpt lat="46.04018" lon="4.50371">
        <ele>619</ele>
        <time>2016-11-27T09:35:17.000Z</time>
      </trkpt>
      <trkpt lat="46.04019" lon="4.50373">
        <ele>621</ele>
        <time>2016-11-27T09:35:18.000Z</time>
      </trkpt>
      <trkpt lat="46.04019" lon="4.50375">
        <ele>621</ele>
        <time>2016-11-27T09:35:19.000Z</time>
      </trkpt>
      <trkpt lat="46.04019" lon="4.50376">
        <ele>622</ele>
        <time>2016-11-27T09:35:20.000Z</time>
      </trkpt>
      <trkpt lat="46.04019" lon="4.50378">
        <ele>622</ele>
        <time>2016-11-27T09:35:21.000Z</time>
      </trkpt>
      <trkpt lat="46.0402" lon="4.50379">
        <ele>622</ele>
        <time>2016-11-27T09:35:22.000Z</time>
      </trkpt>
      <trkpt lat="46.0402" lon="4.5038">
        <ele>622</ele>
        <time>2016-11-27T09:35:23.000Z</time>
      </trkpt>
      <trkpt lat="46.0402" lon="4.50382">
        <ele>622</ele>
        <time>2016-11-27T09:35:24.000Z</time>
      </trkpt>
      <trkpt lat="46.0402" lon="4.50383">
        <ele>622</ele>
        <time>2016-11-27T09:35:25.000Z</time>
      </trkpt>
      <trkpt lat="46.0402" lon="4.50384">
        <ele>622</ele>
        <time>2016-11-27T09:35:26.000Z</time>
      </trkpt>
      <trkpt lat="46.0402" lon="4.50386">
        <ele>622</ele>
        <time>2016-11-27T09:35:27.000Z</time>
      </trkpt>
      <trkpt lat="46.04021" lon="4.50387">
        <ele>622</ele>
        <time>2016-11-27T09:35:28.000Z</time>
      </trkpt>
      <trkpt lat="46.04021" lon="4.50388">
        <ele>622</ele>
        <time>2016-11-27T09:35:29.000Z</time>
      </trkpt>
      <trkpt lat="46.04021" lon="4.5039">
        <ele>622</ele>
        <time>2016-11-27T09:35:30.000Z</time>
      </trkpt>
      <trkpt lat="46.04022" lon="4.50391">
        <ele>622</ele>
        <time>2016-11-27T09:35:31.000Z</time>
      </trkpt>
      <trkpt lat="46.04022" lon="4.50393">
        <ele>623</ele>
        <time>2016-11-27T09:35:32.000Z</time>
      </trkpt>
      <trkpt lat="46.04022" lon="4.50394">
        <ele>622</ele>
        <time>2016-11-27T09:35:33.000Z</time>
      </trkpt>
      <trkpt lat="46.04022" lon="4.50396">
        <ele>622</ele>
        <time>2016-11-27T09:35:34.000Z</time>
      </trkpt>
      <trkpt lat="46.04022" lon="4.50397">
        <ele>623</ele>
        <time>2016-11-27T09:35:35.000Z</time>
      </trkpt>
      <trkpt lat="46.04022" lon="4.50398">
        <ele>624</ele>
        <time>2016-11-27T09:35:36.000Z</time>
      </trkpt>
      <trkpt lat="46.04023" lon="4.504">
        <ele>624</ele>
        <time>2016-11-27T09:35:37.000Z</time>
      </trkpt>
      <trkpt lat="46.04023" lon="4.50401">
        <ele>624</ele>
        <time>2016-11-27T09:35:38.000Z</time>
      </trkpt>
      <trkpt lat="46.04023" lon="4.50403">
        <ele>624</ele>
        <time>2016-11-27T09:35:39.000Z</time>
      </trkpt>
      <trkpt lat="46.04024" lon="4.50405">
        <ele>624</ele>
        <time>2016-11-27T09:35:40.000Z</time>
      </trkpt>
      <trkpt lat="46.04024" lon="4.50407">
        <ele>623</ele>
        <time>2016-11-27T09:35:41.000Z</time>
      </trkpt>
      <trkpt lat="46.04024" lon="4.50408">
        <ele>624</ele>
        <time>2016-11-27T09:35:42.000Z</time>
      </trkpt>
      <trkpt lat="46.04023" lon="4.5041">
        <ele>624</ele>
        <time>2016-11-27T09:35:43.000Z</time>
      </trkpt>
      <trkpt lat="46.04023" lon="4.50411">
        <ele>624</ele>
        <time>2016-11-27T09:35:44.000Z</time>
      </trkpt>
      <trkpt lat="46.04023" lon="4.50412">
        <ele>626</ele>
        <time>2016-11-27T09:35:45.000Z</time>
      </trkpt>
      <trkpt lat="46.04022" lon="4.50414">
        <ele>625</ele>
        <time>2016-11-27T09:35:46.000Z</time>
      </trkpt>
      <trkpt lat="46.04022" lon="4.50415">
        <ele>625</ele>
        <time>2016-11-27T09:35:47.000Z</time>
      </trkpt>
      <trkpt lat="46.04022" lon="4.50416">
        <ele>625</ele>
        <time>2016-11-27T09:35:48.000Z</time>
      </trkpt>
      <trkpt lat="46.04022" lon="4.50417">
        <ele>624</ele>
        <time>2016-11-27T09:35:49.000Z</time>
      </trkpt>
      <trkpt lat="46.04021" lon="4.50419">
        <ele>624</ele>
        <time>2016-11-27T09:35:50.000Z</time>
      </trkpt>
      <trkpt lat="46.0402" lon="4.50421">
        <ele>625</ele>
        <time>2016-11-27T09:35:51.000Z</time>
      </trkpt>
      <trkpt lat="46.04018" lon="4.50424">
        <ele>625</ele>
        <time>2016-11-27T09:35:52.000Z</time>
      </trkpt>
      <trkpt lat="46.04018" lon="4.50425">
        <ele>625</ele>
        <time>2016-11-27T09:35:53.000Z</time>
      </trkpt>
      <trkpt lat="46.04019" lon="4.50426">
        <ele>625</ele>
        <time>2016-11-27T09:35:54.000Z</time>
      </trkpt>
      <trkpt lat="46.04019" lon="4.50427">
        <ele>624</ele>
        <time>2016-11-27T09:35:55.000Z</time>
      </trkpt>
      <trkpt lat="46.04019" lon="4.50428">
        <ele>625</ele>
        <time>2016-11-27T09:35:56.000Z</time>
      </trkpt>
      <trkpt lat="46.0402" lon="4.50428">
        <ele>625</ele>
        <time>2016-11-27T09:35:57.000Z</time>
      </trkpt>
      <trkpt lat="46.0402" lon="4.5043">
        <ele>626</ele>
        <time>2016-11-27T09:35:58.000Z</time>
      </trkpt>
      <trkpt lat="46.0402" lon="4.50431">
        <ele>626</ele>
        <time>2016-11-27T09:35:59.000Z</time>
      </trkpt>
      <trkpt lat="46.0402" lon="4.50433">
        <ele>626</ele>
        <time>2016-11-27T09:36:00.000Z</time>
      </trkpt>
      <trkpt lat="46.0402" lon="4.50434">
        <ele>626</ele>
        <time>2016-11-27T09:36:01.000Z</time>
      </trkpt>
      <trkpt lat="46.04021" lon="4.50435">
        <ele>626</ele>
        <time>2016-11-27T09:36:02.000Z</time>
      </trkpt>
      <trkpt lat="46.04021" lon="4.50436">
        <ele>626</ele>
        <time>2016-11-27T09:36:03.000Z</time>
      </trkpt>
      <trkpt lat="46.04021" lon="4.50437">
        <ele>626</ele>
        <time>2016-11-27T09:36:04.000Z</time>
      </trkpt>
      <trkpt lat="46.04022" lon="4.50438">
        <ele>626</ele>
        <time>2016-11-27T09:36:05.000Z</time>
      </trkpt>
      <trkpt lat="46.04022" lon="4.5044">
        <ele>626</ele>
        <time>2016-11-27T09:36:06.000Z</time>
      </trkpt>
      <trkpt lat="46.04023" lon="4.50443">
        <ele>625</ele>
        <time>2016-11-27T09:36:07.000Z</time>
      </trkpt>
      <trkpt lat="46.04024" lon="4.50446">
        <ele>624</ele>
        <time>2016-11-27T09:36:08.000Z</time>
      </trkpt>
      <trkpt lat="46.04025" lon="4.50449">
        <ele>624</ele>
        <time>2016-11-27T09:36:09.000Z</time>
      </trkpt>
      <trkpt lat="46.04026" lon="4.50452">
        <ele>625</ele>
        <time>2016-11-27T09:36:10.000Z</time>
      </trkpt>
      <trkpt lat="46.04027" lon="4.50455">
        <ele>623</ele>
        <time>2016-11-27T09:36:11.000Z</time>
      </trkpt>
      <trkpt lat="46.04029" lon="4.50459">
        <ele>623</ele>
        <time>2016-11-27T09:36:12.000Z</time>
      </trkpt>
      <trkpt lat="46.0403" lon="4.50463">
        <ele>623</ele>
        <time>2016-11-27T09:36:13.000Z</time>
      </trkpt>
      <trkpt lat="46.04031" lon="4.50466">
        <ele>623</ele>
        <time>2016-11-27T09:36:14.000Z</time>
      </trkpt>
      <trkpt lat="46.04031" lon="4.50468">
        <ele>622</ele>
        <time>2016-11-27T09:36:15.000Z</time>
      </trkpt>
      <trkpt lat="46.04032" lon="4.50471">
        <ele>623</ele>
        <time>2016-11-27T09:36:16.000Z</time>
      </trkpt>
      <trkpt lat="46.04033" lon="4.50473">
        <ele>624</ele>
        <time>2016-11-27T09:36:17.000Z</time>
      </trkpt>
      <trkpt lat="46.04034" lon="4.50476">
        <ele>623</ele>
        <time>2016-11-27T09:36:18.000Z</time>
      </trkpt>
      <trkpt lat="46.04035" lon="4.50478">
        <ele>623</ele>
        <time>2016-11-27T09:36:19.000Z</time>
      </trkpt>
      <trkpt lat="46.04036" lon="4.50481">
        <ele>622</ele>
        <time>2016-11-27T09:36:20.000Z</time>
      </trkpt>
      <trkpt lat="46.04037" lon="4.50483">
        <ele>623</ele>
        <time>2016-11-27T09:36:21.000Z</time>
      </trkpt>
      <trkpt lat="46.04039" lon="4.50485">
        <ele>622</ele>
        <time>2016-11-27T09:36:22.000Z</time>
      </trkpt>
      <trkpt lat="46.0404" lon="4.50487">
        <ele>623</ele>
        <time>2016-11-27T09:36:23.000Z</time>
      </trkpt>
      <trkpt lat="46.04041" lon="4.5049">
        <ele>623</ele>
        <time>2016-11-27T09:36:24.000Z</time>
      </trkpt>
      <trkpt lat="46.04041" lon="4.50492">
        <ele>624</ele>
        <time>2016-11-27T09:36:25.000Z</time>
      </trkpt>
      <trkpt lat="46.04042" lon="4.50494">
        <ele>626</ele>
        <time>2016-11-27T09:36:26.000Z</time>
      </trkpt>
      <trkpt lat="46.04042" lon="4.50497">
        <ele>626</ele>
        <time>2016-11-27T09:36:27.000Z</time>
      </trkpt>
      <trkpt lat="46.04042" lon="4.50499">
        <ele>626</ele>
        <time>2016-11-27T09:36:28.000Z</time>
      </trkpt>
      <trkpt lat="46.04043" lon="4.50502">
        <ele>626</ele>
        <time>2016-11-27T09:36:29.000Z</time>
      </trkpt>
      <trkpt lat="46.04043" lon="4.50504">
        <ele>627</ele>
        <time>2016-11-27T09:36:30.000Z</time>
      </trkpt>
      <trkpt lat="46.04044" lon="4.50505">
        <ele>627</ele>
        <time>2016-11-27T09:36:31.000Z</time>
      </trkpt>
      <trkpt lat="46.04044" lon="4.50507">
        <ele>628</ele>
        <time>2016-11-27T09:36:32.000Z</time>
      </trkpt>
      <trkpt lat="46.04045" lon="4.50509">
        <ele>628</ele>
        <time>2016-11-27T09:36:33.000Z</time>
      </trkpt>
      <trkpt lat="46.04045" lon="4.50511">
        <ele>628</ele>
        <time>2016-11-27T09:36:34.000Z</time>
      </trkpt>
      <trkpt lat="46.04046" lon="4.50513">
        <ele>629</ele>
        <time>2016-11-27T09:36:35.000Z</time>
      </trkpt>
      <trkpt lat="46.04047" lon="4.50514">
        <ele>629</ele>
        <time>2016-11-27T09:36:36.000Z</time>
      </trkpt>
      <trkpt lat="46.04047" lon="4.50516">
        <ele>628</ele>
        <time>2016-11-27T09:36:37.000Z</time>
      </trkpt>
      <trkpt lat="46.04048" lon="4.50517">
        <ele>628</ele>
        <time>2016-11-27T09:36:38.000Z</time>
      </trkpt>
      <trkpt lat="46.04048" lon="4.50519">
        <ele>627</ele>
        <time>2016-11-27T09:36:39.000Z</time>
      </trkpt>
      <trkpt lat="46.04048" lon="4.5052">
        <ele>628</ele>
        <time>2016-11-27T09:36:40.000Z</time>
      </trkpt>
      <trkpt lat="46.04048" lon="4.50521">
        <ele>628</ele>
        <time>2016-11-27T09:36:41.000Z</time>
      </trkpt>
      <trkpt lat="46.04048" lon="4.50523">
        <ele>629</ele>
        <time>2016-11-27T09:36:42.000Z</time>
      </trkpt>
      <trkpt lat="46.04048" lon="4.50525">
        <ele>628</ele>
        <time>2016-11-27T09:36:43.000Z</time>
      </trkpt>
      <trkpt lat="46.04048" lon="4.50528">
        <ele>628</ele>
        <time>2016-11-27T09:36:44.000Z</time>
      </trkpt>
      <trkpt lat="46.04048" lon="4.50531">
        <ele>628</ele>
        <time>2016-11-27T09:36:45.000Z</time>
      </trkpt>
      <trkpt lat="46.04048" lon="4.50534">
        <ele>628</ele>
        <time>2016-11-27T09:36:46.000Z</time>
      </trkpt>
      <trkpt lat="46.04048" lon="4.50537">
        <ele>628</ele>
        <time>2016-11-27T09:36:47.000Z</time>
      </trkpt>
      <trkpt lat="46.04048" lon="4.5054">
        <ele>627</ele>
        <time>2016-11-27T09:36:48.000Z</time>
      </trkpt>
      <trkpt lat="46.04049" lon="4.50542">
        <ele>627</ele>
        <time>2016-11-27T09:36:49.000Z</time>
      </trkpt>
      <trkpt lat="46.0405" lon="4.50543">
        <ele>627</ele>
        <time>2016-11-27T09:36:50.000Z</time>
      </trkpt>
      <trkpt lat="46.0405" lon="4.50544">
        <ele>628</ele>
        <time>2016-11-27T09:36:51.000Z</time>
      </trkpt>
      <trkpt lat="46.04051" lon="4.50544">
        <ele>628</ele>
        <time>2016-11-27T09:36:52.000Z</time>
      </trkpt>
      <trkpt lat="46.04051" lon="4.50545">
        <ele>628</ele>
        <time>2016-11-27T09:36:53.000Z</time>
      </trkpt>
      <trkpt lat="46.04051" lon="4.50546">
        <ele>628</ele>
        <time>2016-11-27T09:36:54.000Z</time>
      </trkpt>
      <trkpt lat="46.04052" lon="4.50547">
        <ele>627</ele>
        <time>2016-11-27T09:36:55.000Z</time>
      </trkpt>
      <trkpt lat="46.04052" lon="4.50547">
        <ele>627</ele>
        <time>2016-11-27T09:36:56.000Z</time>
      </trkpt>
      <trkpt lat="46.04053" lon="4.50548">
        <ele>628</ele>
        <time>2016-11-27T09:36:57.000Z</time>
      </trkpt>
      <trkpt lat="46.04053" lon="4.50548">
        <ele>628</ele>
        <time>2016-11-27T09:36:58.000Z</time>
      </trkpt>
      <trkpt lat="46.04054" lon="4.50549">
        <ele>628</ele>
        <time>2016-11-27T09:36:59.000Z</time>
      </trkpt>
      <trkpt lat="46.04054" lon="4.5055">
        <ele>628</ele>
        <time>2016-11-27T09:37:00.000Z</time>
      </trkpt>
      <trkpt lat="46.04054" lon="4.5055">
        <ele>628</ele>
        <time>2016-11-27T09:37:01.000Z</time>
      </trkpt>
      <trkpt lat="46.04055" lon="4.50551">
        <ele>629</ele>
        <time>2016-11-27T09:37:02.000Z</time>
      </trkpt>
      <trkpt lat="46.04055" lon="4.50551">
        <ele>629</ele>
        <time>2016-11-27T09:37:03.000Z</time>
      </trkpt>
      <trkpt lat="46.04056" lon="4.50552">
        <ele>629</ele>
        <time>2016-11-27T09:37:04.000Z</time>
      </trkpt>
      <trkpt lat="46.04055" lon="4.50553">
        <ele>630</ele>
        <time>2016-11-27T09:37:05.000Z</time>
      </trkpt>
      <trkpt lat="46.04055" lon="4.50553">
        <ele>630</ele>
        <time>2016-11-27T09:37:06.000Z</time>
      </trkpt>
      <trkpt lat="46.04055" lon="4.50554">
        <ele>630</ele>
        <time>2016-11-27T09:37:07.000Z</time>
      </trkpt>
      <trkpt lat="46.04055" lon="4.50554">
        <ele>631</ele>
        <time>2016-11-27T09:37:08.000Z</time>
      </trkpt>
      <trkpt lat="46.04056" lon="4.50554">
        <ele>631</ele>
        <time>2016-11-27T09:37:09.000Z</time>
      </trkpt>
      <trkpt lat="46.04056" lon="4.50555">
        <ele>632</ele>
        <time>2016-11-27T09:37:10.000Z</time>
      </trkpt>
      <trkpt lat="46.04056" lon="4.50555">
        <ele>632</ele>
        <time>2016-11-27T09:37:11.000Z</time>
      </trkpt>
      <trkpt lat="46.04056" lon="4.50555">
        <ele>632</ele>
        <time>2016-11-27T09:37:12.000Z</time>
      </trkpt>
      <trkpt lat="46.04057" lon="4.50555">
        <ele>632</ele>
        <time>2016-11-27T09:37:13.000Z</time>
      </trkpt>
      <trkpt lat="46.04058" lon="4.50556">
        <ele>631</ele>
        <time>2016-11-27T09:37:14.000Z</time>
      </trkpt>
      <trkpt lat="46.0406" lon="4.50557">
        <ele>631</ele>
        <time>2016-11-27T09:37:15.000Z</time>
      </trkpt>
      <trkpt lat="46.04061" lon="4.50558">
        <ele>630</ele>
        <time>2016-11-27T09:37:16.000Z</time>
      </trkpt>
      <trkpt lat="46.04063" lon="4.50559">
        <ele>629</ele>
        <time>2016-11-27T09:37:17.000Z</time>
      </trkpt>
      <trkpt lat="46.04064" lon="4.5056">
        <ele>629</ele>
        <time>2016-11-27T09:37:18.000Z</time>
      </trkpt>
      <trkpt lat="46.04065" lon="4.50562">
        <ele>628</ele>
        <time>2016-11-27T09:37:19.000Z</time>
      </trkpt>
      <trkpt lat="46.04066" lon="4.50563">
        <ele>628</ele>
        <time>2016-11-27T09:37:20.000Z</time>
      </trkpt>
      <trkpt lat="46.04067" lon="4.50565">
        <ele>627</ele>
        <time>2016-11-27T09:37:21.000Z</time>
      </trkpt>
      <trkpt lat="46.04069" lon="4.50566">
        <ele>627</ele>
        <time>2016-11-27T09:37:22.000Z</time>
      </trkpt>
      <trkpt lat="46.0407" lon="4.50567">
        <ele>626</ele>
        <time>2016-11-27T09:37:23.000Z</time>
      </trkpt>
      <trkpt lat="46.04071" lon="4.50568">
        <ele>625</ele>
        <time>2016-11-27T09:37:24.000Z</time>
      </trkpt>
      <trkpt lat="46.04073" lon="4.50569">
        <ele>624</ele>
        <time>2016-11-27T09:37:25.000Z</time>
      </trkpt>
      <trkpt lat="46.04074" lon="4.5057">
        <ele>623</ele>
        <time>2016-11-27T09:37:26.000Z</time>
      </trkpt>
      <trkpt lat="46.04076" lon="4.5057">
        <ele>623</ele>
        <time>2016-11-27T09:37:27.000Z</time>
      </trkpt>
      <trkpt lat="46.04077" lon="4.50571">
        <ele>623</ele>
        <time>2016-11-27T09:37:28.000Z</time>
      </trkpt>
      <trkpt lat="46.04079" lon="4.50571">
        <ele>621</ele>
        <time>2016-11-27T09:37:29.000Z</time>
      </trkpt>
      <trkpt lat="46.04081" lon="4.50572">
        <ele>621</ele>
        <time>2016-11-27T09:37:30.000Z</time>
      </trkpt>
      <trkpt lat="46.04082" lon="4.50572">
        <ele>621</ele>
        <time>2016-11-27T09:37:31.000Z</time>
      </trkpt>
      <trkpt lat="46.04083" lon="4.50573">
        <ele>621</ele>
        <time>2016-11-27T09:37:32.000Z</time>
      </trkpt>
      <trkpt lat="46.04084" lon="4.50574">
        <ele>619</ele>
        <time>2016-11-27T09:37:33.000Z</time>
      </trkpt>
      <trkpt lat="46.04085" lon="4.50575">
        <ele>619</ele>
        <time>2016-11-27T09:37:34.000Z</time>
      </trkpt>
      <trkpt lat="46.04087" lon="4.50577">
        <ele>619</ele>
        <time>2016-11-27T09:37:35.000Z</time>
      </trkpt>
      <trkpt lat="46.04089" lon="4.50579">
        <ele>618</ele>
        <time>2016-11-27T09:37:36.000Z</time>
      </trkpt>
      <trkpt lat="46.0409" lon="4.5058">
        <ele>618</ele>
        <time>2016-11-27T09:37:37.000Z</time>
      </trkpt>
      <trkpt lat="46.04092" lon="4.50582">
        <ele>617</ele>
        <time>2016-11-27T09:37:38.000Z</time>
      </trkpt>
      <trkpt lat="46.04094" lon="4.50584">
        <ele>617</ele>
        <time>2016-11-27T09:37:39.000Z</time>
      </trkpt>
      <trkpt lat="46.04096" lon="4.50586">
        <ele>616</ele>
        <time>2016-11-27T09:37:40.000Z</time>
      </trkpt>
      <trkpt lat="46.04098" lon="4.50588">
        <ele>616</ele>
        <time>2016-11-27T09:37:41.000Z</time>
      </trkpt>
      <trkpt lat="46.041" lon="4.50589">
        <ele>614</ele>
        <time>2016-11-27T09:37:42.000Z</time>
      </trkpt>
      <trkpt lat="46.04101" lon="4.5059">
        <ele>614</ele>
        <time>2016-11-27T09:37:43.000Z</time>
      </trkpt>
      <trkpt lat="46.04102" lon="4.50591">
        <ele>613</ele>
        <time>2016-11-27T09:37:44.000Z</time>
      </trkpt>
      <trkpt lat="46.04103" lon="4.50592">
        <ele>613</ele>
        <time>2016-11-27T09:37:45.000Z</time>
      </trkpt>
      <trkpt lat="46.04105" lon="4.50594">
        <ele>612</ele>
        <time>2016-11-27T09:37:46.000Z</time>
      </trkpt>
      <trkpt lat="46.04106" lon="4.50595">
        <ele>612</ele>
        <time>2016-11-27T09:37:47.000Z</time>
      </trkpt>
      <trkpt lat="46.04107" lon="4.50597">
        <ele>612</ele>
        <time>2016-11-27T09:37:48.000Z</time>
      </trkpt>
      <trkpt lat="46.04108" lon="4.50599">
        <ele>612</ele>
        <time>2016-11-27T09:37:49.000Z</time>
      </trkpt>
      <trkpt lat="46.04108" lon="4.50601">
        <ele>612</ele>
        <time>2016-11-27T09:37:50.000Z</time>
      </trkpt>
      <trkpt lat="46.04108" lon="4.50603">
        <ele>610</ele>
        <time>2016-11-27T09:37:51.000Z</time>
      </trkpt>
      <trkpt lat="46.04108" lon="4.50606">
        <ele>609</ele>
        <time>2016-11-27T09:37:52.000Z</time>
      </trkpt>
      <trkpt lat="46.04108" lon="4.50608">
        <ele>608</ele>
        <time>2016-11-27T09:37:53.000Z</time>
      </trkpt>
      <trkpt lat="46.04108" lon="4.5061">
        <ele>609</ele>
        <time>2016-11-27T09:37:54.000Z</time>
      </trkpt>
      <trkpt lat="46.04109" lon="4.50612">
        <ele>607</ele>
        <time>2016-11-27T09:37:55.000Z</time>
      </trkpt>
      <trkpt lat="46.0411" lon="4.50613">
        <ele>607</ele>
        <time>2016-11-27T09:37:56.000Z</time>
      </trkpt>
      <trkpt lat="46.04111" lon="4.50615">
        <ele>606</ele>
        <time>2016-11-27T09:37:57.000Z</time>
      </trkpt>
      <trkpt lat="46.04112" lon="4.50616">
        <ele>604</ele>
        <time>2016-11-27T09:37:58.000Z</time>
      </trkpt>
      <trkpt lat="46.04114" lon="4.50617">
        <ele>603</ele>
        <time>2016-11-27T09:37:59.000Z</time>
      </trkpt>
      <trkpt lat="46.04116" lon="4.50618">
        <ele>601</ele>
        <time>2016-11-27T09:38:00.000Z</time>
      </trkpt>
      <trkpt lat="46.04117" lon="4.50618">
        <ele>601</ele>
        <time>2016-11-27T09:38:01.000Z</time>
      </trkpt>
      <trkpt lat="46.04118" lon="4.50619">
        <ele>599</ele>
        <time>2016-11-27T09:38:02.000Z</time>
      </trkpt>
      <trkpt lat="46.04119" lon="4.50619">
        <ele>597</ele>
        <time>2016-11-27T09:38:03.000Z</time>
      </trkpt>
      <trkpt lat="46.0412" lon="4.50619">
        <ele>596</ele>
        <time>2016-11-27T09:38:04.000Z</time>
      </trkpt>
      <trkpt lat="46.04121" lon="4.5062">
        <ele>595</ele>
        <time>2016-11-27T09:38:05.000Z</time>
      </trkpt>
      <trkpt lat="46.04122" lon="4.50621">
        <ele>595</ele>
        <time>2016-11-27T09:38:06.000Z</time>
      </trkpt>
      <trkpt lat="46.04123" lon="4.50622">
        <ele>593</ele>
        <time>2016-11-27T09:38:07.000Z</time>
      </trkpt>
      <trkpt lat="46.04124" lon="4.50622">
        <ele>594</ele>
        <time>2016-11-27T09:38:08.000Z</time>
      </trkpt>
      <trkpt lat="46.04125" lon="4.50622">
        <ele>594</ele>
        <time>2016-11-27T09:38:09.000Z</time>
      </trkpt>
      <trkpt lat="46.04127" lon="4.50621">
        <ele>594</ele>
        <time>2016-11-27T09:38:10.000Z</time>
      </trkpt>
      <trkpt lat="46.04127" lon="4.5062">
        <ele>594</ele>
        <time>2016-11-27T09:38:11.000Z</time>
      </trkpt>
      <trkpt lat="46.04128" lon="4.5062">
        <ele>593</ele>
        <time>2016-11-27T09:38:12.000Z</time>
      </trkpt>
      <trkpt lat="46.04129" lon="4.50619">
        <ele>592</ele>
        <time>2016-11-27T09:38:13.000Z</time>
      </trkpt>
      <trkpt lat="46.0413" lon="4.50619">
        <ele>591</ele>
        <time>2016-11-27T09:38:14.000Z</time>
      </trkpt>
      <trkpt lat="46.0413" lon="4.50618">
        <ele>591</ele>
        <time>2016-11-27T09:38:15.000Z</time>
      </trkpt>
      <trkpt lat="46.04131" lon="4.50619">
        <ele>591</ele>
        <time>2016-11-27T09:38:16.000Z</time>
      </trkpt>
      <trkpt lat="46.04131" lon="4.50619">
        <ele>592</ele>
        <time>2016-11-27T09:38:17.000Z</time>
      </trkpt>
      <trkpt lat="46.04131" lon="4.50619">
        <ele>592</ele>
        <time>2016-11-27T09:38:18.000Z</time>
      </trkpt>
      <trkpt lat="46.04132" lon="4.50619">
        <ele>593</ele>
        <time>2016-11-27T09:38:19.000Z</time>
      </trkpt>
      <trkpt lat="46.04133" lon="4.50619">
        <ele>593</ele>
        <time>2016-11-27T09:38:20.000Z</time>
      </trkpt>
      <trkpt lat="46.04134" lon="4.50618">
        <ele>594</ele>
        <time>2016-11-27T09:38:21.000Z</time>
      </trkpt>
      <trkpt lat="46.04136" lon="4.50617">
        <ele>594</ele>
        <time>2016-11-27T09:38:22.000Z</time>
      </trkpt>
      <trkpt lat="46.04137" lon="4.50616">
        <ele>594</ele>
        <time>2016-11-27T09:38:23.000Z</time>
      </trkpt>
      <trkpt lat="46.04139" lon="4.50615">
        <ele>595</ele>
        <time>2016-11-27T09:38:24.000Z</time>
      </trkpt>
      <trkpt lat="46.04141" lon="4.50614">
        <ele>596</ele>
        <time>2016-11-27T09:38:25.000Z</time>
      </trkpt>
      <trkpt lat="46.04143" lon="4.50613">
        <ele>597</ele>
        <time>2016-11-27T09:38:26.000Z</time>
      </trkpt>
      <trkpt lat="46.04146" lon="4.50612">
        <ele>598</ele>
        <time>2016-11-27T09:38:27.000Z</time>
      </trkpt>
      <trkpt lat="46.04148" lon="4.5061">
        <ele>598</ele>
        <time>2016-11-27T09:38:28.000Z</time>
      </trkpt>
      <trkpt lat="46.0415" lon="4.50609">
        <ele>598</ele>
        <time>2016-11-27T09:38:29.000Z</time>
      </trkpt>
      <trkpt lat="46.04152" lon="4.50607">
        <ele>599</ele>
        <time>2016-11-27T09:38:30.000Z</time>
      </trkpt>
      <trkpt lat="46.04154" lon="4.50605">
        <ele>599</ele>
        <time>2016-11-27T09:38:31.000Z</time>
      </trkpt>
      <trkpt lat="46.04157" lon="4.50603">
        <ele>600</ele>
        <time>2016-11-27T09:38:32.000Z</time>
      </trkpt>
      <trkpt lat="46.04159" lon="4.50601">
        <ele>601</ele>
        <time>2016-11-27T09:38:33.000Z</time>
      </trkpt>
      <trkpt lat="46.04161" lon="4.50599">
        <ele>600</ele>
        <time>2016-11-27T09:38:34.000Z</time>
      </trkpt>
      <trkpt lat="46.04163" lon="4.50597">
        <ele>600</ele>
        <time>2016-11-27T09:38:35.000Z</time>
      </trkpt>
      <trkpt lat="46.04166" lon="4.50594">
        <ele>601</ele>
        <time>2016-11-27T09:38:36.000Z</time>
      </trkpt>
      <trkpt lat="46.04168" lon="4.50593">
        <ele>601</ele>
        <time>2016-11-27T09:38:37.000Z</time>
      </trkpt>
      <trkpt lat="46.0417" lon="4.50591">
        <ele>603</ele>
        <time>2016-11-27T09:38:38.000Z</time>
      </trkpt>
      <trkpt lat="46.04172" lon="4.5059">
        <ele>601</ele>
        <time>2016-11-27T09:38:39.000Z</time>
      </trkpt>
      <trkpt lat="46.04174" lon="4.5059">
        <ele>599</ele>
        <time>2016-11-27T09:38:40.000Z</time>
      </trkpt>
      <trkpt lat="46.04177" lon="4.50591">
        <ele>592</ele>
        <time>2016-11-27T09:38:41.000Z</time>
      </trkpt>
      <trkpt lat="46.0418" lon="4.50592">
        <ele>591</ele>
        <time>2016-11-27T09:38:42.000Z</time>
      </trkpt>
      <trkpt lat="46.04183" lon="4.50593">
        <ele>590</ele>
        <time>2016-11-27T09:38:43.000Z</time>
      </trkpt>
      <trkpt lat="46.04184" lon="4.50594">
        <ele>591</ele>
        <time>2016-11-27T09:38:44.000Z</time>
      </trkpt>
      <trkpt lat="46.04185" lon="4.50594">
        <ele>591</ele>
        <time>2016-11-27T09:38:45.000Z</time>
      </trkpt>
      <trkpt lat="46.04186" lon="4.50594">
        <ele>591</ele>
        <time>2016-11-27T09:38:46.000Z</time>
      </trkpt>
      <trkpt lat="46.04187" lon="4.50594">
        <ele>590</ele>
        <time>2016-11-27T09:38:47.000Z</time>
      </trkpt>
      <trkpt lat="46.04188" lon="4.50594">
        <ele>590</ele>
        <time>2016-11-27T09:38:48.000Z</time>
      </trkpt>
      <trkpt lat="46.04189" lon="4.50595">
        <ele>592</ele>
        <time>2016-11-27T09:38:49.000Z</time>
      </trkpt>
      <trkpt lat="46.0419" lon="4.50595">
        <ele>592</ele>
        <time>2016-11-27T09:38:50.000Z</time>
      </trkpt>
      <trkpt lat="46.04191" lon="4.50596">
        <ele>592</ele>
        <time>2016-11-27T09:38:51.000Z</time>
      </trkpt>
      <trkpt lat="46.04191" lon="4.50596">
        <ele>593</ele>
        <time>2016-11-27T09:38:52.000Z</time>
      </trkpt>
      <trkpt lat="46.04192" lon="4.50596">
        <ele>594</ele>
        <time>2016-11-27T09:38:53.000Z</time>
      </trkpt>
      <trkpt lat="46.04194" lon="4.50595">
        <ele>596</ele>
        <time>2016-11-27T09:38:54.000Z</time>
      </trkpt>
      <trkpt lat="46.04195" lon="4.50594">
        <ele>597</ele>
        <time>2016-11-27T09:38:55.000Z</time>
      </trkpt>
      <trkpt lat="46.04196" lon="4.50593">
        <ele>597</ele>
        <time>2016-11-27T09:38:56.000Z</time>
      </trkpt>
      <trkpt lat="46.04197" lon="4.50592">
        <ele>597</ele>
        <time>2016-11-27T09:38:57.000Z</time>
      </trkpt>
      <trkpt lat="46.04198" lon="4.50592">
        <ele>597</ele>
        <time>2016-11-27T09:38:58.000Z</time>
      </trkpt>
      <trkpt lat="46.04199" lon="4.50591">
        <ele>598</ele>
        <time>2016-11-27T09:38:59.000Z</time>
      </trkpt>
      <trkpt lat="46.042" lon="4.5059">
        <ele>598</ele>
        <time>2016-11-27T09:39:00.000Z</time>
      </trkpt>
      <trkpt lat="46.04201" lon="4.5059">
        <ele>598</ele>
        <time>2016-11-27T09:39:01.000Z</time>
      </trkpt>
      <trkpt lat="46.04203" lon="4.50589">
        <ele>598</ele>
        <time>2016-11-27T09:39:02.000Z</time>
      </trkpt>
      <trkpt lat="46.04204" lon="4.50589">
        <ele>595</ele>
        <time>2016-11-27T09:39:03.000Z</time>
      </trkpt>
      <trkpt lat="46.04206" lon="4.50589">
        <ele>592</ele>
        <time>2016-11-27T09:39:04.000Z</time>
      </trkpt>
      <trkpt lat="46.04208" lon="4.50589">
        <ele>592</ele>
        <time>2016-11-27T09:39:05.000Z</time>
      </trkpt>
      <trkpt lat="46.04209" lon="4.50588">
        <ele>592</ele>
        <time>2016-11-27T09:39:06.000Z</time>
      </trkpt>
      <trkpt lat="46.04211" lon="4.50587">
        <ele>591</ele>
        <time>2016-11-27T09:39:07.000Z</time>
      </trkpt>
      <trkpt lat="46.04212" lon="4.50587">
        <ele>591</ele>
        <time>2016-11-27T09:39:08.000Z</time>
      </trkpt>
      <trkpt lat="46.04214" lon="4.50588">
        <ele>592</ele>
        <time>2016-11-27T09:39:09.000Z</time>
      </trkpt>
      <trkpt lat="46.04216" lon="4.50589">
        <ele>592</ele>
        <time>2016-11-27T09:39:10.000Z</time>
      </trkpt>
      <trkpt lat="46.04217" lon="4.50591">
        <ele>591</ele>
        <time>2016-11-27T09:39:11.000Z</time>
      </trkpt>
      <trkpt lat="46.04218" lon="4.50592">
        <ele>591</ele>
        <time>2016-11-27T09:39:12.000Z</time>
      </trkpt>
      <trkpt lat="46.0422" lon="4.50593">
        <ele>589</ele>
        <time>2016-11-27T09:39:13.000Z</time>
      </trkpt>
      <trkpt lat="46.04221" lon="4.50594">
        <ele>588</ele>
        <time>2016-11-27T09:39:14.000Z</time>
      </trkpt>
      <trkpt lat="46.04222" lon="4.50595">
        <ele>589</ele>
        <time>2016-11-27T09:39:15.000Z</time>
      </trkpt>
      <trkpt lat="46.04224" lon="4.50595">
        <ele>589</ele>
        <time>2016-11-27T09:39:16.000Z</time>
      </trkpt>
      <trkpt lat="46.04226" lon="4.50596">
        <ele>588</ele>
        <time>2016-11-27T09:39:17.000Z</time>
      </trkpt>
      <trkpt lat="46.04228" lon="4.50596">
        <ele>585</ele>
        <time>2016-11-27T09:39:18.000Z</time>
      </trkpt>
      <trkpt lat="46.04231" lon="4.50598">
        <ele>579</ele>
        <time>2016-11-27T09:39:19.000Z</time>
      </trkpt>
      <trkpt lat="46.04233" lon="4.50599">
        <ele>579</ele>
        <time>2016-11-27T09:39:20.000Z</time>
      </trkpt>
      <trkpt lat="46.04236" lon="4.50601">
        <ele>581</ele>
        <time>2016-11-27T09:39:21.000Z</time>
      </trkpt>
      <trkpt lat="46.04238" lon="4.50602">
        <ele>582</ele>
        <time>2016-11-27T09:39:22.000Z</time>
      </trkpt>
      <trkpt lat="46.0424" lon="4.50603">
        <ele>582</ele>
        <time>2016-11-27T09:39:23.000Z</time>
      </trkpt>
      <trkpt lat="46.04242" lon="4.50603">
        <ele>582</ele>
        <time>2016-11-27T09:39:24.000Z</time>
      </trkpt>
      <trkpt lat="46.04244" lon="4.50603">
        <ele>582</ele>
        <time>2016-11-27T09:39:25.000Z</time>
      </trkpt>
      <trkpt lat="46.04247" lon="4.50603">
        <ele>581</ele>
        <time>2016-11-27T09:39:26.000Z</time>
      </trkpt>
      <trkpt lat="46.04249" lon="4.50604">
        <ele>579</ele>
        <time>2016-11-27T09:39:27.000Z</time>
      </trkpt>
      <trkpt lat="46.04251" lon="4.50606">
        <ele>580</ele>
        <time>2016-11-27T09:39:28.000Z</time>
      </trkpt>
      <trkpt lat="46.04253" lon="4.50607">
        <ele>580</ele>
        <time>2016-11-27T09:39:29.000Z</time>
      </trkpt>
      <trkpt lat="46.04254" lon="4.50608">
        <ele>581</ele>
        <time>2016-11-27T09:39:30.000Z</time>
      </trkpt>
      <trkpt lat="46.04256" lon="4.50609">
        <ele>581</ele>
        <time>2016-11-27T09:39:31.000Z</time>
      </trkpt>
      <trkpt lat="46.04257" lon="4.50609">
        <ele>580</ele>
        <time>2016-11-27T09:39:32.000Z</time>
      </trkpt>
      <trkpt lat="46.04259" lon="4.5061">
        <ele>577</ele>
        <time>2016-11-27T09:39:33.000Z</time>
      </trkpt>
      <trkpt lat="46.04261" lon="4.50611">
        <ele>575</ele>
        <time>2016-11-27T09:39:34.000Z</time>
      </trkpt>
      <trkpt lat="46.04263" lon="4.50612">
        <ele>574</ele>
        <time>2016-11-27T09:39:35.000Z</time>
      </trkpt>
      <trkpt lat="46.04265" lon="4.50613">
        <ele>573</ele>
        <time>2016-11-27T09:39:36.000Z</time>
      </trkpt>
      <trkpt lat="46.04267" lon="4.50614">
        <ele>570</ele>
        <time>2016-11-27T09:39:37.000Z</time>
      </trkpt>
      <trkpt lat="46.04268" lon="4.50615">
        <ele>570</ele>
        <time>2016-11-27T09:39:38.000Z</time>
      </trkpt>
      <trkpt lat="46.04271" lon="4.50616">
        <ele>569</ele>
        <time>2016-11-27T09:39:39.000Z</time>
      </trkpt>
      <trkpt lat="46.04273" lon="4.50616">
        <ele>568</ele>
        <time>2016-11-27T09:39:40.000Z</time>
      </trkpt>
      <trkpt lat="46.04275" lon="4.50617">
        <ele>567</ele>
        <time>2016-11-27T09:39:41.000Z</time>
      </trkpt>
      <trkpt lat="46.04278" lon="4.50618">
        <ele>566</ele>
        <time>2016-11-27T09:39:42.000Z</time>
      </trkpt>
      <trkpt lat="46.04281" lon="4.50619">
        <ele>565</ele>
        <time>2016-11-27T09:39:43.000Z</time>
      </trkpt>
      <trkpt lat="46.04283" lon="4.5062">
        <ele>564</ele>
        <time>2016-11-27T09:39:44.000Z</time>
      </trkpt>
      <trkpt lat="46.04285" lon="4.50621">
        <ele>563</ele>
        <time>2016-11-27T09:39:45.000Z</time>
      </trkpt>
      <trkpt lat="46.04288" lon="4.50621">
        <ele>562</ele>
        <time>2016-11-27T09:39:46.000Z</time>
      </trkpt>
      <trkpt lat="46.0429" lon="4.50622">
        <ele>561</ele>
        <time>2016-11-27T09:39:47.000Z</time>
      </trkpt>
      <trkpt lat="46.04293" lon="4.50623">
        <ele>560</ele>
        <time>2016-11-27T09:39:48.000Z</time>
      </trkpt>
      <trkpt lat="46.04295" lon="4.50623">
        <ele>560</ele>
        <time>2016-11-27T09:39:49.000Z</time>
      </trkpt>
      <trkpt lat="46.04297" lon="4.50624">
        <ele>559</ele>
        <time>2016-11-27T09:39:50.000Z</time>
      </trkpt>
      <trkpt lat="46.043" lon="4.50624">
        <ele>558</ele>
        <time>2016-11-27T09:39:51.000Z</time>
      </trkpt>
      <trkpt lat="46.04302" lon="4.50624">
        <ele>558</ele>
        <time>2016-11-27T09:39:52.000Z</time>
      </trkpt>
      <trkpt lat="46.04304" lon="4.50624">
        <ele>557</ele>
        <time>2016-11-27T09:39:53.000Z</time>
      </trkpt>
      <trkpt lat="46.04306" lon="4.50624">
        <ele>557</ele>
        <time>2016-11-27T09:39:54.000Z</time>
      </trkpt>
      <trkpt lat="46.04308" lon="4.50625">
        <ele>557</ele>
        <time>2016-11-27T09:39:55.000Z</time>
      </trkpt>
      <trkpt lat="46.04311" lon="4.50625">
        <ele>557</ele>
        <time>2016-11-27T09:39:56.000Z</time>
      </trkpt>
      <trkpt lat="46.04313" lon="4.50626">
        <ele>557</ele>
        <time>2016-11-27T09:39:57.000Z</time>
      </trkpt>
      <trkpt lat="46.04316" lon="4.50627">
        <ele>555</ele>
        <time>2016-11-27T09:39:58.000Z</time>
      </trkpt>
      <trkpt lat="46.04319" lon="4.5063">
        <ele>553</ele>
        <time>2016-11-27T09:39:59.000Z</time>
      </trkpt>
      <trkpt lat="46.04321" lon="4.50633">
        <ele>552</ele>
        <time>2016-11-27T09:40:00.000Z</time>
      </trkpt>
      <trkpt lat="46.04323" lon="4.50636">
        <ele>550</ele>
        <time>2016-11-27T09:40:01.000Z</time>
      </trkpt>
      <trkpt lat="46.04324" lon="4.50638">
        <ele>549</ele>
        <time>2016-11-27T09:40:02.000Z</time>
      </trkpt>
      <trkpt lat="46.04325" lon="4.50641">
        <ele>549</ele>
        <time>2016-11-27T09:40:03.000Z</time>
      </trkpt>
      <trkpt lat="46.04327" lon="4.50645">
        <ele>548</ele>
        <time>2016-11-27T09:40:04.000Z</time>
      </trkpt>
      <trkpt lat="46.04327" lon="4.50649">
        <ele>548</ele>
        <time>2016-11-27T09:40:05.000Z</time>
      </trkpt>
      <trkpt lat="46.04327" lon="4.50652">
        <ele>547</ele>
        <time>2016-11-27T09:40:06.000Z</time>
      </trkpt>
      <trkpt lat="46.04327" lon="4.50656">
        <ele>547</ele>
        <time>2016-11-27T09:40:07.000Z</time>
      </trkpt>
      <trkpt lat="46.04327" lon="4.50659">
        <ele>546</ele>
        <time>2016-11-27T09:40:08.000Z</time>
      </trkpt>
      <trkpt lat="46.04326" lon="4.50663">
        <ele>545</ele>
        <time>2016-11-27T09:40:09.000Z</time>
      </trkpt>
      <trkpt lat="46.04326" lon="4.50667">
        <ele>545</ele>
        <time>2016-11-27T09:40:10.000Z</time>
      </trkpt>
      <trkpt lat="46.04325" lon="4.50672">
        <ele>545</ele>
        <time>2016-11-27T09:40:11.000Z</time>
      </trkpt>
      <trkpt lat="46.04324" lon="4.50676">
        <ele>545</ele>
        <time>2016-11-27T09:40:12.000Z</time>
      </trkpt>
      <trkpt lat="46.04324" lon="4.50682">
        <ele>547</ele>
        <time>2016-11-27T09:40:13.000Z</time>
      </trkpt>
      <trkpt lat="46.04322" lon="4.50686">
        <ele>544</ele>
        <time>2016-11-27T09:40:14.000Z</time>
      </trkpt>
      <trkpt lat="46.04321" lon="4.5069">
        <ele>543</ele>
        <time>2016-11-27T09:40:15.000Z</time>
      </trkpt>
      <trkpt lat="46.0432" lon="4.50695">
        <ele>546</ele>
        <time>2016-11-27T09:40:16.000Z</time>
      </trkpt>
      <trkpt lat="46.04319" lon="4.50701">
        <ele>547</ele>
        <time>2016-11-27T09:40:17.000Z</time>
      </trkpt>
      <trkpt lat="46.04319" lon="4.50707">
        <ele>546</ele>
        <time>2016-11-27T09:40:18.000Z</time>
      </trkpt>
      <trkpt lat="46.04318" lon="4.50713">
        <ele>546</ele>
        <time>2016-11-27T09:40:19.000Z</time>
      </trkpt>
      <trkpt lat="46.04317" lon="4.50718">
        <ele>546</ele>
        <time>2016-11-27T09:40:20.000Z</time>
      </trkpt>
      <trkpt lat="46.04316" lon="4.50722">
        <ele>545</ele>
        <time>2016-11-27T09:40:21.000Z</time>
      </trkpt>
      <trkpt lat="46.04316" lon="4.50726">
        <ele>543</ele>
        <time>2016-11-27T09:40:22.000Z</time>
      </trkpt>
      <trkpt lat="46.04316" lon="4.5073">
        <ele>542</ele>
        <time>2016-11-27T09:40:23.000Z</time>
      </trkpt>
      <trkpt lat="46.04316" lon="4.50734">
        <ele>541</ele>
        <time>2016-11-27T09:40:24.000Z</time>
      </trkpt>
      <trkpt lat="46.04315" lon="4.50738">
        <ele>539</ele>
        <time>2016-11-27T09:40:25.000Z</time>
      </trkpt>
      <trkpt lat="46.04315" lon="4.50742">
        <ele>537</ele>
        <time>2016-11-27T09:40:26.000Z</time>
      </trkpt>
      <trkpt lat="46.04315" lon="4.50745">
        <ele>537</ele>
        <time>2016-11-27T09:40:27.000Z</time>
      </trkpt>
      <trkpt lat="46.04315" lon="4.50749">
        <ele>535</ele>
        <time>2016-11-27T09:40:28.000Z</time>
      </trkpt>
      <trkpt lat="46.04315" lon="4.50753">
        <ele>533</ele>
        <time>2016-11-27T09:40:29.000Z</time>
      </trkpt>
      <trkpt lat="46.04315" lon="4.50757">
        <ele>533</ele>
        <time>2016-11-27T09:40:30.000Z</time>
      </trkpt>
      <trkpt lat="46.04316" lon="4.50761">
        <ele>531</ele>
        <time>2016-11-27T09:40:31.000Z</time>
      </trkpt>
      <trkpt lat="46.04317" lon="4.50765">
        <ele>531</ele>
        <time>2016-11-27T09:40:32.000Z</time>
      </trkpt>
      <trkpt lat="46.04318" lon="4.50769">
        <ele>531</ele>
        <time>2016-11-27T09:40:33.000Z</time>
      </trkpt>
      <trkpt lat="46.04319" lon="4.50773">
        <ele>530</ele>
        <time>2016-11-27T09:40:34.000Z</time>
      </trkpt>
      <trkpt lat="46.0432" lon="4.50777">
        <ele>529</ele>
        <time>2016-11-27T09:40:35.000Z</time>
      </trkpt>
      <trkpt lat="46.04322" lon="4.50779">
        <ele>527</ele>
        <time>2016-11-27T09:40:36.000Z</time>
      </trkpt>
      <trkpt lat="46.04323" lon="4.5078">
        <ele>526</ele>
        <time>2016-11-27T09:40:37.000Z</time>
      </trkpt>
      <trkpt lat="46.04325" lon="4.50782">
        <ele>526</ele>
        <time>2016-11-27T09:40:38.000Z</time>
      </trkpt>
      <trkpt lat="46.04326" lon="4.50784">
        <ele>526</ele>
        <time>2016-11-27T09:40:39.000Z</time>
      </trkpt>
      <trkpt lat="46.04328" lon="4.50786">
        <ele>525</ele>
        <time>2016-11-27T09:40:40.000Z</time>
      </trkpt>
      <trkpt lat="46.0433" lon="4.50787">
        <ele>524</ele>
        <time>2016-11-27T09:40:41.000Z</time>
      </trkpt>
      <trkpt lat="46.04332" lon="4.50788">
        <ele>524</ele>
        <time>2016-11-27T09:40:42.000Z</time>
      </trkpt>
      <trkpt lat="46.04334" lon="4.50789">
        <ele>522</ele>
        <time>2016-11-27T09:40:43.000Z</time>
      </trkpt>
      <trkpt lat="46.04337" lon="4.5079">
        <ele>522</ele>
        <time>2016-11-27T09:40:44.000Z</time>
      </trkpt>
      <trkpt lat="46.04339" lon="4.50791">
        <ele>524</ele>
        <time>2016-11-27T09:40:45.000Z</time>
      </trkpt>
      <trkpt lat="46.04342" lon="4.50792">
        <ele>525</ele>
        <time>2016-11-27T09:40:46.000Z</time>
      </trkpt>
      <trkpt lat="46.04344" lon="4.50793">
        <ele>525</ele>
        <time>2016-11-27T09:40:47.000Z</time>
      </trkpt>
      <trkpt lat="46.04346" lon="4.50794">
        <ele>525</ele>
        <time>2016-11-27T09:40:48.000Z</time>
      </trkpt>
      <trkpt lat="46.04348" lon="4.50794">
        <ele>525</ele>
        <time>2016-11-27T09:40:49.000Z</time>
      </trkpt>
      <trkpt lat="46.04349" lon="4.50794">
        <ele>526</ele>
        <time>2016-11-27T09:40:50.000Z</time>
      </trkpt>
      <trkpt lat="46.0435" lon="4.50794">
        <ele>524</ele>
        <time>2016-11-27T09:40:51.000Z</time>
      </trkpt>
      <trkpt lat="46.04351" lon="4.50794">
        <ele>523</ele>
        <time>2016-11-27T09:40:52.000Z</time>
      </trkpt>
      <trkpt lat="46.04352" lon="4.50794">
        <ele>523</ele>
        <time>2016-11-27T09:40:53.000Z</time>
      </trkpt>
      <trkpt lat="46.04352" lon="4.50794">
        <ele>523</ele>
        <time>2016-11-27T09:40:54.000Z</time>
      </trkpt>
      <trkpt lat="46.04352" lon="4.50794">
        <ele>523</ele>
        <time>2016-11-27T09:40:55.000Z</time>
      </trkpt>
      <trkpt lat="46.04352" lon="4.50795">
        <ele>523</ele>
        <time>2016-11-27T09:40:56.000Z</time>
      </trkpt>
      <trkpt lat="46.04352" lon="4.50795">
        <ele>523</ele>
        <time>2016-11-27T09:40:57.000Z</time>
      </trkpt>
      <trkpt lat="46.04352" lon="4.50795">
        <ele>523</ele>
        <time>2016-11-27T09:40:58.000Z</time>
      </trkpt>
      <trkpt lat="46.04352" lon="4.50795">
        <ele>523</ele>
        <time>2016-11-27T09:40:59.000Z</time>
      </trkpt>
      <trkpt lat="46.04353" lon="4.50795">
        <ele>523</ele>
        <time>2016-11-27T09:41:00.000Z</time>
      </trkpt>
      <trkpt lat="46.04353" lon="4.50795">
        <ele>522</ele>
        <time>2016-11-27T09:41:01.000Z</time>
      </trkpt>
      <trkpt lat="46.04354" lon="4.50795">
        <ele>523</ele>
        <time>2016-11-27T09:41:02.000Z</time>
      </trkpt>
      <trkpt lat="46.04356" lon="4.50795">
        <ele>524</ele>
        <time>2016-11-27T09:41:03.000Z</time>
      </trkpt>
      <trkpt lat="46.04358" lon="4.50795">
        <ele>525</ele>
        <time>2016-11-27T09:41:04.000Z</time>
      </trkpt>
      <trkpt lat="46.0436" lon="4.50796">
        <ele>523</ele>
        <time>2016-11-27T09:41:05.000Z</time>
      </trkpt>
      <trkpt lat="46.04362" lon="4.50796">
        <ele>524</ele>
        <time>2016-11-27T09:41:06.000Z</time>
      </trkpt>
      <trkpt lat="46.04365" lon="4.50796">
        <ele>524</ele>
        <time>2016-11-27T09:41:07.000Z</time>
      </trkpt>
      <trkpt lat="46.04367" lon="4.50796">
        <ele>524</ele>
        <time>2016-11-27T09:41:08.000Z</time>
      </trkpt>
      <trkpt lat="46.04369" lon="4.50796">
        <ele>525</ele>
        <time>2016-11-27T09:41:09.000Z</time>
      </trkpt>
      <trkpt lat="46.04372" lon="4.50796">
        <ele>524</ele>
        <time>2016-11-27T09:41:10.000Z</time>
      </trkpt>
      <trkpt lat="46.04374" lon="4.50795">
        <ele>524</ele>
        <time>2016-11-27T09:41:11.000Z</time>
      </trkpt>
      <trkpt lat="46.04376" lon="4.50793">
        <ele>524</ele>
        <time>2016-11-27T09:41:12.000Z</time>
      </trkpt>
      <trkpt lat="46.04379" lon="4.5079">
        <ele>523</ele>
        <time>2016-11-27T09:41:13.000Z</time>
      </trkpt>
      <trkpt lat="46.04382" lon="4.50788">
        <ele>522</ele>
        <time>2016-11-27T09:41:14.000Z</time>
      </trkpt>
      <trkpt lat="46.04385" lon="4.50785">
        <ele>521</ele>
        <time>2016-11-27T09:41:15.000Z</time>
      </trkpt>
      <trkpt lat="46.04388" lon="4.50783">
        <ele>521</ele>
        <time>2016-11-27T09:41:16.000Z</time>
      </trkpt>
      <trkpt lat="46.0439" lon="4.50781">
        <ele>520</ele>
        <time>2016-11-27T09:41:17.000Z</time>
      </trkpt>
      <trkpt lat="46.04393" lon="4.50781">
        <ele>518</ele>
        <time>2016-11-27T09:41:18.000Z</time>
      </trkpt>
      <trkpt lat="46.04395" lon="4.50781">
        <ele>516</ele>
        <time>2016-11-27T09:41:19.000Z</time>
      </trkpt>
      <trkpt lat="46.04396" lon="4.50782">
        <ele>516</ele>
        <time>2016-11-27T09:41:20.000Z</time>
      </trkpt>
      <trkpt lat="46.04397" lon="4.50783">
        <ele>516</ele>
        <time>2016-11-27T09:41:21.000Z</time>
      </trkpt>
      <trkpt lat="46.04397" lon="4.50785">
        <ele>515</ele>
        <time>2016-11-27T09:41:22.000Z</time>
      </trkpt>
      <trkpt lat="46.04398" lon="4.50787">
        <ele>515</ele>
        <time>2016-11-27T09:41:23.000Z</time>
      </trkpt>
      <trkpt lat="46.04399" lon="4.50789">
        <ele>515</ele>
        <time>2016-11-27T09:41:24.000Z</time>
      </trkpt>
      <trkpt lat="46.044" lon="4.50791">
        <ele>515</ele>
        <time>2016-11-27T09:41:25.000Z</time>
      </trkpt>
      <trkpt lat="46.044" lon="4.50794">
        <ele>513</ele>
        <time>2016-11-27T09:41:26.000Z</time>
      </trkpt>
      <trkpt lat="46.04401" lon="4.50797">
        <ele>512</ele>
        <time>2016-11-27T09:41:27.000Z</time>
      </trkpt>
      <trkpt lat="46.04401" lon="4.508">
        <ele>512</ele>
        <time>2016-11-27T09:41:28.000Z</time>
      </trkpt>
      <trkpt lat="46.044" lon="4.50803">
        <ele>511</ele>
        <time>2016-11-27T09:41:29.000Z</time>
      </trkpt>
      <trkpt lat="46.044" lon="4.50806">
        <ele>509</ele>
        <time>2016-11-27T09:41:30.000Z</time>
      </trkpt>
      <trkpt lat="46.04398" lon="4.5081">
        <ele>510</ele>
        <time>2016-11-27T09:41:31.000Z</time>
      </trkpt>
      <trkpt lat="46.04398" lon="4.50813">
        <ele>508</ele>
        <time>2016-11-27T09:41:32.000Z</time>
      </trkpt>
      <trkpt lat="46.04396" lon="4.50817">
        <ele>506</ele>
        <time>2016-11-27T09:41:33.000Z</time>
      </trkpt>
      <trkpt lat="46.04394" lon="4.50821">
        <ele>504</ele>
        <time>2016-11-27T09:41:34.000Z</time>
      </trkpt>
      <trkpt lat="46.04391" lon="4.50826">
        <ele>501</ele>
        <time>2016-11-27T09:41:35.000Z</time>
      </trkpt>
      <trkpt lat="46.04389" lon="4.50829">
        <ele>502</ele>
        <time>2016-11-27T09:41:36.000Z</time>
      </trkpt>
      <trkpt lat="46.04386" lon="4.50833">
        <ele>501</ele>
        <time>2016-11-27T09:41:37.000Z</time>
      </trkpt>
      <trkpt lat="46.04384" lon="4.50836">
        <ele>501</ele>
        <time>2016-11-27T09:41:38.000Z</time>
      </trkpt>
      <trkpt lat="46.04382" lon="4.50839">
        <ele>500</ele>
        <time>2016-11-27T09:41:39.000Z</time>
      </trkpt>
      <trkpt lat="46.04379" lon="4.50842">
        <ele>500</ele>
        <time>2016-11-27T09:41:40.000Z</time>
      </trkpt>
      <trkpt lat="46.04377" lon="4.50846">
        <ele>499</ele>
        <time>2016-11-27T09:41:41.000Z</time>
      </trkpt>
      <trkpt lat="46.04374" lon="4.50851">
        <ele>501</ele>
        <time>2016-11-27T09:41:42.000Z</time>
      </trkpt>
      <trkpt lat="46.04371" lon="4.50856">
        <ele>501</ele>
        <time>2016-11-27T09:41:43.000Z</time>
      </trkpt>
      <trkpt lat="46.04367" lon="4.5086">
        <ele>500</ele>
        <time>2016-11-27T09:41:44.000Z</time>
      </trkpt>
      <trkpt lat="46.04363" lon="4.50863">
        <ele>500</ele>
        <time>2016-11-27T09:41:45.000Z</time>
      </trkpt>
      <trkpt lat="46.04359" lon="4.50865">
        <ele>500</ele>
        <time>2016-11-27T09:41:46.000Z</time>
      </trkpt>
      <trkpt lat="46.04355" lon="4.50868">
        <ele>499</ele>
        <time>2016-11-27T09:41:47.000Z</time>
      </trkpt>
      <trkpt lat="46.04351" lon="4.5087">
        <ele>498</ele>
        <time>2016-11-27T09:41:48.000Z</time>
      </trkpt>
      <trkpt lat="46.04345" lon="4.50873">
        <ele>496</ele>
        <time>2016-11-27T09:41:49.000Z</time>
      </trkpt>
      <trkpt lat="46.04339" lon="4.50876">
        <ele>496</ele>
        <time>2016-11-27T09:41:50.000Z</time>
      </trkpt>
      <trkpt lat="46.04335" lon="4.5088">
        <ele>495</ele>
        <time>2016-11-27T09:41:51.000Z</time>
      </trkpt>
      <trkpt lat="46.04331" lon="4.50883">
        <ele>494</ele>
        <time>2016-11-27T09:41:52.000Z</time>
      </trkpt>
      <trkpt lat="46.04328" lon="4.50888">
        <ele>493</ele>
        <time>2016-11-27T09:41:53.000Z</time>
      </trkpt>
      <trkpt lat="46.04325" lon="4.50894">
        <ele>492</ele>
        <time>2016-11-27T09:41:54.000Z</time>
      </trkpt>
      <trkpt lat="46.04323" lon="4.50901">
        <ele>489</ele>
        <time>2016-11-27T09:41:55.000Z</time>
      </trkpt>
      <trkpt lat="46.04321" lon="4.50907">
        <ele>488</ele>
        <time>2016-11-27T09:41:56.000Z</time>
      </trkpt>
      <trkpt lat="46.0432" lon="4.50914">
        <ele>486</ele>
        <time>2016-11-27T09:41:57.000Z</time>
      </trkpt>
      <trkpt lat="46.04319" lon="4.50918">
        <ele>485</ele>
        <time>2016-11-27T09:41:58.000Z</time>
      </trkpt>
      <trkpt lat="46.04319" lon="4.50923">
        <ele>485</ele>
        <time>2016-11-27T09:41:59.000Z</time>
      </trkpt>
      <trkpt lat="46.04319" lon="4.50928">
        <ele>486</ele>
        <time>2016-11-27T09:42:00.000Z</time>
      </trkpt>
      <trkpt lat="46.04319" lon="4.50934">
        <ele>485</ele>
        <time>2016-11-27T09:42:01.000Z</time>
      </trkpt>
      <trkpt lat="46.0432" lon="4.50939">
        <ele>485</ele>
        <time>2016-11-27T09:42:02.000Z</time>
      </trkpt>
      <trkpt lat="46.04321" lon="4.50944">
        <ele>485</ele>
        <time>2016-11-27T09:42:03.000Z</time>
      </trkpt>
      <trkpt lat="46.04322" lon="4.50949">
        <ele>483</ele>
        <time>2016-11-27T09:42:04.000Z</time>
      </trkpt>
      <trkpt lat="46.04323" lon="4.50953">
        <ele>484</ele>
        <time>2016-11-27T09:42:05.000Z</time>
      </trkpt>
      <trkpt lat="46.04324" lon="4.50958">
        <ele>484</ele>
        <time>2016-11-27T09:42:06.000Z</time>
      </trkpt>
      <trkpt lat="46.04324" lon="4.50963">
        <ele>485</ele>
        <time>2016-11-27T09:42:07.000Z</time>
      </trkpt>
      <trkpt lat="46.04323" lon="4.50969">
        <ele>486</ele>
        <time>2016-11-27T09:42:08.000Z</time>
      </trkpt>
      <trkpt lat="46.04321" lon="4.50976">
        <ele>488</ele>
        <time>2016-11-27T09:42:09.000Z</time>
      </trkpt>
      <trkpt lat="46.04318" lon="4.50981">
        <ele>488</ele>
        <time>2016-11-27T09:42:10.000Z</time>
      </trkpt>
      <trkpt lat="46.04315" lon="4.50986">
        <ele>487</ele>
        <time>2016-11-27T09:42:11.000Z</time>
      </trkpt>
      <trkpt lat="46.04313" lon="4.50989">
        <ele>486</ele>
        <time>2016-11-27T09:42:12.000Z</time>
      </trkpt>
      <trkpt lat="46.0431" lon="4.50993">
        <ele>487</ele>
        <time>2016-11-27T09:42:13.000Z</time>
      </trkpt>
      <trkpt lat="46.04308" lon="4.50997">
        <ele>487</ele>
        <time>2016-11-27T09:42:14.000Z</time>
      </trkpt>
      <trkpt lat="46.04306" lon="4.51">
        <ele>488</ele>
        <time>2016-11-27T09:42:15.000Z</time>
      </trkpt>
      <trkpt lat="46.04304" lon="4.51004">
        <ele>489</ele>
        <time>2016-11-27T09:42:16.000Z</time>
      </trkpt>
      <trkpt lat="46.04302" lon="4.51008">
        <ele>489</ele>
        <time>2016-11-27T09:42:17.000Z</time>
      </trkpt>
      <trkpt lat="46.04301" lon="4.51012">
        <ele>490</ele>
        <time>2016-11-27T09:42:18.000Z</time>
      </trkpt>
      <trkpt lat="46.043" lon="4.51016">
        <ele>490</ele>
        <time>2016-11-27T09:42:19.000Z</time>
      </trkpt>
      <trkpt lat="46.043" lon="4.5102">
        <ele>489</ele>
        <time>2016-11-27T09:42:20.000Z</time>
      </trkpt>
      <trkpt lat="46.04301" lon="4.51025">
        <ele>489</ele>
        <time>2016-11-27T09:42:21.000Z</time>
      </trkpt>
      <trkpt lat="46.04303" lon="4.51029">
        <ele>488</ele>
        <time>2016-11-27T09:42:22.000Z</time>
      </trkpt>
      <trkpt lat="46.04304" lon="4.51033">
        <ele>488</ele>
        <time>2016-11-27T09:42:23.000Z</time>
      </trkpt>
      <trkpt lat="46.04306" lon="4.51037">
        <ele>488</ele>
        <time>2016-11-27T09:42:24.000Z</time>
      </trkpt>
      <trkpt lat="46.04307" lon="4.5104">
        <ele>488</ele>
        <time>2016-11-27T09:42:25.000Z</time>
      </trkpt>
      <trkpt lat="46.04308" lon="4.51044">
        <ele>489</ele>
        <time>2016-11-27T09:42:26.000Z</time>
      </trkpt>
      <trkpt lat="46.0431" lon="4.51047">
        <ele>489</ele>
        <time>2016-11-27T09:42:27.000Z</time>
      </trkpt>
      <trkpt lat="46.04311" lon="4.51049">
        <ele>490</ele>
        <time>2016-11-27T09:42:28.000Z</time>
      </trkpt>
      <trkpt lat="46.04313" lon="4.51051">
        <ele>491</ele>
        <time>2016-11-27T09:42:29.000Z</time>
      </trkpt>
      <trkpt lat="46.04313" lon="4.51052">
        <ele>491</ele>
        <time>2016-11-27T09:42:30.000Z</time>
      </trkpt>
      <trkpt lat="46.04314" lon="4.51053">
        <ele>491</ele>
        <time>2016-11-27T09:42:31.000Z</time>
      </trkpt>
      <trkpt lat="46.04315" lon="4.51053">
        <ele>491</ele>
        <time>2016-11-27T09:42:32.000Z</time>
      </trkpt>
      <trkpt lat="46.04315" lon="4.51054">
        <ele>492</ele>
        <time>2016-11-27T09:42:33.000Z</time>
      </trkpt>
      <trkpt lat="46.04316" lon="4.51054">
        <ele>493</ele>
        <time>2016-11-27T09:42:34.000Z</time>
      </trkpt>
      <trkpt lat="46.04316" lon="4.51054">
        <ele>493</ele>
        <time>2016-11-27T09:42:35.000Z</time>
      </trkpt>
      <trkpt lat="46.04317" lon="4.51055">
        <ele>493</ele>
        <time>2016-11-27T09:42:36.000Z</time>
      </trkpt>
      <trkpt lat="46.04317" lon="4.51055">
        <ele>493</ele>
        <time>2016-11-27T09:42:37.000Z</time>
      </trkpt>
      <trkpt lat="46.04317" lon="4.51056">
        <ele>493</ele>
        <time>2016-11-27T09:42:38.000Z</time>
      </trkpt>
      <trkpt lat="46.04317" lon="4.51056">
        <ele>493</ele>
        <time>2016-11-27T09:42:39.000Z</time>
      </trkpt>
      <trkpt lat="46.04317" lon="4.51056">
        <ele>493</ele>
        <time>2016-11-27T09:42:40.000Z</time>
      </trkpt>
      <trkpt lat="46.04317" lon="4.51056">
        <ele>493</ele>
        <time>2016-11-27T09:42:41.000Z</time>
      </trkpt>
      <trkpt lat="46.04318" lon="4.51057">
        <ele>493</ele>
        <time>2016-11-27T09:42:42.000Z</time>
      </trkpt>
      <trkpt lat="46.04318" lon="4.51058">
        <ele>493</ele>
        <time>2016-11-27T09:42:43.000Z</time>
      </trkpt>
      <trkpt lat="46.04318" lon="4.5106">
        <ele>493</ele>
        <time>2016-11-27T09:42:44.000Z</time>
      </trkpt>
      <trkpt lat="46.04319" lon="4.51061">
        <ele>494</ele>
        <time>2016-11-27T09:42:45.000Z</time>
      </trkpt>
      <trkpt lat="46.04319" lon="4.51062">
        <ele>494</ele>
        <time>2016-11-27T09:42:46.000Z</time>
      </trkpt>
      <trkpt lat="46.0432" lon="4.51063">
        <ele>494</ele>
        <time>2016-11-27T09:42:47.000Z</time>
      </trkpt>
      <trkpt lat="46.0432" lon="4.51064">
        <ele>494</ele>
        <time>2016-11-27T09:42:48.000Z</time>
      </trkpt>
      <trkpt lat="46.0432" lon="4.51065">
        <ele>494</ele>
        <time>2016-11-27T09:42:49.000Z</time>
      </trkpt>
      <trkpt lat="46.0432" lon="4.51066">
        <ele>494</ele>
        <time>2016-11-27T09:42:50.000Z</time>
      </trkpt>
      <trkpt lat="46.0432" lon="4.51067">
        <ele>495</ele>
        <time>2016-11-27T09:42:51.000Z</time>
      </trkpt>
      <trkpt lat="46.04319" lon="4.51069">
        <ele>495</ele>
        <time>2016-11-27T09:42:52.000Z</time>
      </trkpt>
      <trkpt lat="46.04319" lon="4.5107">
        <ele>495</ele>
        <time>2016-11-27T09:42:53.000Z</time>
      </trkpt>
      <trkpt lat="46.04319" lon="4.51071">
        <ele>496</ele>
        <time>2016-11-27T09:42:54.000Z</time>
      </trkpt>
      <trkpt lat="46.04319" lon="4.51073">
        <ele>496</ele>
        <time>2016-11-27T09:42:55.000Z</time>
      </trkpt>
      <trkpt lat="46.0432" lon="4.51075">
        <ele>497</ele>
        <time>2016-11-27T09:42:56.000Z</time>
      </trkpt>
      <trkpt lat="46.0432" lon="4.51077">
        <ele>498</ele>
        <time>2016-11-27T09:42:57.000Z</time>
      </trkpt>
      <trkpt lat="46.0432" lon="4.51079">
        <ele>497</ele>
        <time>2016-11-27T09:42:58.000Z</time>
      </trkpt>
      <trkpt lat="46.04321" lon="4.5108">
        <ele>498</ele>
        <time>2016-11-27T09:42:59.000Z</time>
      </trkpt>
      <trkpt lat="46.04321" lon="4.51082">
        <ele>497</ele>
        <time>2016-11-27T09:43:00.000Z</time>
      </trkpt>
      <trkpt lat="46.04322" lon="4.51083">
        <ele>498</ele>
        <time>2016-11-27T09:43:01.000Z</time>
      </trkpt>
      <trkpt lat="46.04322" lon="4.51084">
        <ele>498</ele>
        <time>2016-11-27T09:43:02.000Z</time>
      </trkpt>
      <trkpt lat="46.04323" lon="4.51086">
        <ele>498</ele>
        <time>2016-11-27T09:43:03.000Z</time>
      </trkpt>
      <trkpt lat="46.04323" lon="4.51087">
        <ele>499</ele>
        <time>2016-11-27T09:43:04.000Z</time>
      </trkpt>
      <trkpt lat="46.04323" lon="4.51088">
        <ele>499</ele>
        <time>2016-11-27T09:43:05.000Z</time>
      </trkpt>
      <trkpt lat="46.04324" lon="4.51089">
        <ele>499</ele>
        <time>2016-11-27T09:43:06.000Z</time>
      </trkpt>
      <trkpt lat="46.04324" lon="4.5109">
        <ele>499</ele>
        <time>2016-11-27T09:43:07.000Z</time>
      </trkpt>
      <trkpt lat="46.04324" lon="4.5109">
        <ele>499</ele>
        <time>2016-11-27T09:43:08.000Z</time>
      </trkpt>
      <trkpt lat="46.04324" lon="4.5109">
        <ele>499</ele>
        <time>2016-11-27T09:43:09.000Z</time>
      </trkpt>
      <trkpt lat="46.04324" lon="4.5109">
        <ele>499</ele>
        <time>2016-11-27T09:43:10.000Z</time>
      </trkpt>
      <trkpt lat="46.04324" lon="4.5109">
        <ele>499</ele>
        <time>2016-11-27T09:43:11.000Z</time>
      </trkpt>
      <trkpt lat="46.04325" lon="4.5109">
        <ele>500</ele>
        <time>2016-11-27T09:43:12.000Z</time>
      </trkpt>
      <trkpt lat="46.04325" lon="4.5109">
        <ele>500</ele>
        <time>2016-11-27T09:43:13.000Z</time>
      </trkpt>
      <trkpt lat="46.04325" lon="4.51091">
        <ele>500</ele>
        <time>2016-11-27T09:43:14.000Z</time>
      </trkpt>
      <trkpt lat="46.04325" lon="4.51091">
        <ele>500</ele>
        <time>2016-11-27T09:43:15.000Z</time>
      </trkpt>
      <trkpt lat="46.04326" lon="4.51092">
        <ele>500</ele>
        <time>2016-11-27T09:43:16.000Z</time>
      </trkpt>
      <trkpt lat="46.04326" lon="4.51093">
        <ele>500</ele>
        <time>2016-11-27T09:43:17.000Z</time>
      </trkpt>
      <trkpt lat="46.04327" lon="4.51094">
        <ele>500</ele>
        <time>2016-11-27T09:43:18.000Z</time>
      </trkpt>
      <trkpt lat="46.04327" lon="4.51095">
        <ele>500</ele>
        <time>2016-11-27T09:43:19.000Z</time>
      </trkpt>
      <trkpt lat="46.04327" lon="4.51096">
        <ele>500</ele>
        <time>2016-11-27T09:43:20.000Z</time>
      </trkpt>
      <trkpt lat="46.04327" lon="4.51097">
        <ele>501</ele>
        <time>2016-11-27T09:43:21.000Z</time>
      </trkpt>
      <trkpt lat="46.04328" lon="4.51098">
        <ele>501</ele>
        <time>2016-11-27T09:43:22.000Z</time>
      </trkpt>
      <trkpt lat="46.04328" lon="4.51099">
        <ele>501</ele>
        <time>2016-11-27T09:43:23.000Z</time>
      </trkpt>
      <trkpt lat="46.04329" lon="4.511">
        <ele>501</ele>
        <time>2016-11-27T09:43:24.000Z</time>
      </trkpt>
      <trkpt lat="46.04329" lon="4.51101">
        <ele>501</ele>
        <time>2016-11-27T09:43:25.000Z</time>
      </trkpt>
      <trkpt lat="46.04329" lon="4.51102">
        <ele>501</ele>
        <time>2016-11-27T09:43:26.000Z</time>
      </trkpt>
      <trkpt lat="46.04329" lon="4.51103">
        <ele>501</ele>
        <time>2016-11-27T09:43:27.000Z</time>
      </trkpt>
      <trkpt lat="46.04329" lon="4.51104">
        <ele>502</ele>
        <time>2016-11-27T09:43:28.000Z</time>
      </trkpt>
      <trkpt lat="46.0433" lon="4.51105">
        <ele>502</ele>
        <time>2016-11-27T09:43:29.000Z</time>
      </trkpt>
      <trkpt lat="46.0433" lon="4.51107">
        <ele>502</ele>
        <time>2016-11-27T09:43:30.000Z</time>
      </trkpt>
      <trkpt lat="46.04331" lon="4.51108">
        <ele>503</ele>
        <time>2016-11-27T09:43:31.000Z</time>
      </trkpt>
      <trkpt lat="46.04331" lon="4.51109">
        <ele>503</ele>
        <time>2016-11-27T09:43:32.000Z</time>
      </trkpt>
      <trkpt lat="46.04332" lon="4.5111">
        <ele>503</ele>
        <time>2016-11-27T09:43:33.000Z</time>
      </trkpt>
      <trkpt lat="46.04333" lon="4.51111">
        <ele>503</ele>
        <time>2016-11-27T09:43:34.000Z</time>
      </trkpt>
      <trkpt lat="46.04334" lon="4.51112">
        <ele>503</ele>
        <time>2016-11-27T09:43:35.000Z</time>
      </trkpt>
      <trkpt lat="46.04335" lon="4.51113">
        <ele>503</ele>
        <time>2016-11-27T09:43:36.000Z</time>
      </trkpt>
      <trkpt lat="46.04336" lon="4.51113">
        <ele>503</ele>
        <time>2016-11-27T09:43:37.000Z</time>
      </trkpt>
      <trkpt lat="46.04338" lon="4.51114">
        <ele>503</ele>
        <time>2016-11-27T09:43:38.000Z</time>
      </trkpt>
      <trkpt lat="46.04339" lon="4.51115">
        <ele>503</ele>
        <time>2016-11-27T09:43:39.000Z</time>
      </trkpt>
      <trkpt lat="46.0434" lon="4.51115">
        <ele>503</ele>
        <time>2016-11-27T09:43:40.000Z</time>
      </trkpt>
      <trkpt lat="46.04341" lon="4.51116">
        <ele>503</ele>
        <time>2016-11-27T09:43:41.000Z</time>
      </trkpt>
      <trkpt lat="46.04342" lon="4.51116">
        <ele>503</ele>
        <time>2016-11-27T09:43:42.000Z</time>
      </trkpt>
      <trkpt lat="46.04343" lon="4.51117">
        <ele>504</ele>
        <time>2016-11-27T09:43:43.000Z</time>
      </trkpt>
      <trkpt lat="46.04344" lon="4.51118">
        <ele>504</ele>
        <time>2016-11-27T09:43:44.000Z</time>
      </trkpt>
      <trkpt lat="46.04346" lon="4.51118">
        <ele>504</ele>
        <time>2016-11-27T09:43:45.000Z</time>
      </trkpt>
      <trkpt lat="46.04347" lon="4.51119">
        <ele>504</ele>
        <time>2016-11-27T09:43:46.000Z</time>
      </trkpt>
      <trkpt lat="46.04348" lon="4.5112">
        <ele>505</ele>
        <time>2016-11-27T09:43:47.000Z</time>
      </trkpt>
      <trkpt lat="46.04349" lon="4.5112">
        <ele>505</ele>
        <time>2016-11-27T09:43:48.000Z</time>
      </trkpt>
      <trkpt lat="46.0435" lon="4.5112">
        <ele>505</ele>
        <time>2016-11-27T09:43:49.000Z</time>
      </trkpt>
      <trkpt lat="46.04351" lon="4.51121">
        <ele>505</ele>
        <time>2016-11-27T09:43:50.000Z</time>
      </trkpt>
      <trkpt lat="46.04353" lon="4.51121">
        <ele>505</ele>
        <time>2016-11-27T09:43:51.000Z</time>
      </trkpt>
      <trkpt lat="46.04354" lon="4.51121">
        <ele>505</ele>
        <time>2016-11-27T09:43:52.000Z</time>
      </trkpt>
      <trkpt lat="46.04355" lon="4.51122">
        <ele>505</ele>
        <time>2016-11-27T09:43:53.000Z</time>
      </trkpt>
      <trkpt lat="46.04357" lon="4.51122">
        <ele>505</ele>
        <time>2016-11-27T09:43:54.000Z</time>
      </trkpt>
      <trkpt lat="46.04358" lon="4.51123">
        <ele>505</ele>
        <time>2016-11-27T09:43:55.000Z</time>
      </trkpt>
      <trkpt lat="46.04359" lon="4.51124">
        <ele>505</ele>
        <time>2016-11-27T09:43:56.000Z</time>
      </trkpt>
      <trkpt lat="46.0436" lon="4.51124">
        <ele>505</ele>
        <time>2016-11-27T09:43:57.000Z</time>
      </trkpt>
      <trkpt lat="46.04362" lon="4.51124">
        <ele>505</ele>
        <time>2016-11-27T09:43:58.000Z</time>
      </trkpt>
      <trkpt lat="46.04363" lon="4.51125">
        <ele>505</ele>
        <time>2016-11-27T09:43:59.000Z</time>
      </trkpt>
      <trkpt lat="46.04364" lon="4.51125">
        <ele>505</ele>
        <time>2016-11-27T09:44:00.000Z</time>
      </trkpt>
      <trkpt lat="46.04366" lon="4.51125">
        <ele>505</ele>
        <time>2016-11-27T09:44:01.000Z</time>
      </trkpt>
      <trkpt lat="46.04367" lon="4.51126">
        <ele>506</ele>
        <time>2016-11-27T09:44:02.000Z</time>
      </trkpt>
      <trkpt lat="46.04369" lon="4.51126">
        <ele>506</ele>
        <time>2016-11-27T09:44:03.000Z</time>
      </trkpt>
      <trkpt lat="46.0437" lon="4.51127">
        <ele>506</ele>
        <time>2016-11-27T09:44:04.000Z</time>
      </trkpt>
      <trkpt lat="46.04372" lon="4.51127">
        <ele>506</ele>
        <time>2016-11-27T09:44:05.000Z</time>
      </trkpt>
      <trkpt lat="46.04373" lon="4.51127">
        <ele>507</ele>
        <time>2016-11-27T09:44:06.000Z</time>
      </trkpt>
      <trkpt lat="46.04375" lon="4.51127">
        <ele>507</ele>
        <time>2016-11-27T09:44:07.000Z</time>
      </trkpt>
      <trkpt lat="46.04378" lon="4.51128">
        <ele>507</ele>
        <time>2016-11-27T09:44:08.000Z</time>
      </trkpt>
      <trkpt lat="46.0438" lon="4.51128">
        <ele>507</ele>
        <time>2016-11-27T09:44:09.000Z</time>
      </trkpt>
      <trkpt lat="46.04383" lon="4.51129">
        <ele>507</ele>
        <time>2016-11-27T09:44:10.000Z</time>
      </trkpt>
      <trkpt lat="46.04385" lon="4.51129">
        <ele>507</ele>
        <time>2016-11-27T09:44:11.000Z</time>
      </trkpt>
      <trkpt lat="46.04388" lon="4.51129">
        <ele>507</ele>
        <time>2016-11-27T09:44:12.000Z</time>
      </trkpt>
      <trkpt lat="46.0439" lon="4.51129">
        <ele>508</ele>
        <time>2016-11-27T09:44:13.000Z</time>
      </trkpt>
      <trkpt lat="46.04393" lon="4.51129">
        <ele>508</ele>
        <time>2016-11-27T09:44:14.000Z</time>
      </trkpt>
      <trkpt lat="46.04396" lon="4.51129">
        <ele>508</ele>
        <time>2016-11-27T09:44:15.000Z</time>
      </trkpt>
      <trkpt lat="46.04398" lon="4.51129">
        <ele>508</ele>
        <time>2016-11-27T09:44:16.000Z</time>
      </trkpt>
      <trkpt lat="46.04401" lon="4.51129">
        <ele>507</ele>
        <time>2016-11-27T09:44:17.000Z</time>
      </trkpt>
      <trkpt lat="46.04404" lon="4.51129">
        <ele>507</ele>
        <time>2016-11-27T09:44:18.000Z</time>
      </trkpt>
      <trkpt lat="46.04407" lon="4.51129">
        <ele>507</ele>
        <time>2016-11-27T09:44:19.000Z</time>
      </trkpt>
      <trkpt lat="46.0441" lon="4.51129">
        <ele>507</ele>
        <time>2016-11-27T09:44:20.000Z</time>
      </trkpt>
      <trkpt lat="46.04412" lon="4.51129">
        <ele>508</ele>
        <time>2016-11-27T09:44:21.000Z</time>
      </trkpt>
      <trkpt lat="46.04415" lon="4.51129">
        <ele>508</ele>
        <time>2016-11-27T09:44:22.000Z</time>
      </trkpt>
      <trkpt lat="46.04418" lon="4.51129">
        <ele>507</ele>
        <time>2016-11-27T09:44:23.000Z</time>
      </trkpt>
      <trkpt lat="46.0442" lon="4.51129">
        <ele>507</ele>
        <time>2016-11-27T09:44:24.000Z</time>
      </trkpt>
      <trkpt lat="46.04423" lon="4.51129">
        <ele>508</ele>
        <time>2016-11-27T09:44:25.000Z</time>
      </trkpt>
      <trkpt lat="46.04425" lon="4.51129">
        <ele>508</ele>
        <time>2016-11-27T09:44:26.000Z</time>
      </trkpt>
      <trkpt lat="46.04428" lon="4.51129">
        <ele>508</ele>
        <time>2016-11-27T09:44:27.000Z</time>
      </trkpt>
      <trkpt lat="46.04431" lon="4.51129">
        <ele>509</ele>
        <time>2016-11-27T09:44:28.000Z</time>
      </trkpt>
      <trkpt lat="46.04433" lon="4.51128">
        <ele>509</ele>
        <time>2016-11-27T09:44:29.000Z</time>
      </trkpt>
      <trkpt lat="46.04436" lon="4.51128">
        <ele>509</ele>
        <time>2016-11-27T09:44:30.000Z</time>
      </trkpt>
      <trkpt lat="46.04439" lon="4.51128">
        <ele>509</ele>
        <time>2016-11-27T09:44:31.000Z</time>
      </trkpt>
      <trkpt lat="46.04441" lon="4.51127">
        <ele>509</ele>
        <time>2016-11-27T09:44:32.000Z</time>
      </trkpt>
      <trkpt lat="46.04444" lon="4.51127">
        <ele>510</ele>
        <time>2016-11-27T09:44:33.000Z</time>
      </trkpt>
      <trkpt lat="46.04447" lon="4.51127">
        <ele>510</ele>
        <time>2016-11-27T09:44:34.000Z</time>
      </trkpt>
      <trkpt lat="46.04451" lon="4.51127">
        <ele>511</ele>
        <time>2016-11-27T09:44:35.000Z</time>
      </trkpt>
      <trkpt lat="46.04454" lon="4.51127">
        <ele>511</ele>
        <time>2016-11-27T09:44:36.000Z</time>
      </trkpt>
      <trkpt lat="46.04457" lon="4.51127">
        <ele>511</ele>
        <time>2016-11-27T09:44:37.000Z</time>
      </trkpt>
      <trkpt lat="46.04461" lon="4.51127">
        <ele>511</ele>
        <time>2016-11-27T09:44:38.000Z</time>
      </trkpt>
      <trkpt lat="46.04464" lon="4.51127">
        <ele>511</ele>
        <time>2016-11-27T09:44:39.000Z</time>
      </trkpt>
      <trkpt lat="46.04466" lon="4.51127">
        <ele>512</ele>
        <time>2016-11-27T09:44:40.000Z</time>
      </trkpt>
      <trkpt lat="46.04469" lon="4.51127">
        <ele>512</ele>
        <time>2016-11-27T09:44:41.000Z</time>
      </trkpt>
      <trkpt lat="46.04472" lon="4.51127">
        <ele>512</ele>
        <time>2016-11-27T09:44:42.000Z</time>
      </trkpt>
      <trkpt lat="46.04475" lon="4.51128">
        <ele>512</ele>
        <time>2016-11-27T09:44:43.000Z</time>
      </trkpt>
      <trkpt lat="46.04478" lon="4.51128">
        <ele>512</ele>
        <time>2016-11-27T09:44:44.000Z</time>
      </trkpt>
      <trkpt lat="46.0448" lon="4.51128">
        <ele>512</ele>
        <time>2016-11-27T09:44:45.000Z</time>
      </trkpt>
      <trkpt lat="46.04483" lon="4.51129">
        <ele>512</ele>
        <time>2016-11-27T09:44:46.000Z</time>
      </trkpt>
      <trkpt lat="46.04486" lon="4.51129">
        <ele>513</ele>
        <time>2016-11-27T09:44:47.000Z</time>
      </trkpt>
      <trkpt lat="46.04488" lon="4.5113">
        <ele>513</ele>
        <time>2016-11-27T09:44:48.000Z</time>
      </trkpt>
      <trkpt lat="46.0449" lon="4.5113">
        <ele>514</ele>
        <time>2016-11-27T09:44:49.000Z</time>
      </trkpt>
      <trkpt lat="46.04493" lon="4.51131">
        <ele>515</ele>
        <time>2016-11-27T09:44:50.000Z</time>
      </trkpt>
      <trkpt lat="46.04496" lon="4.51131">
        <ele>515</ele>
        <time>2016-11-27T09:44:51.000Z</time>
      </trkpt>
      <trkpt lat="46.04498" lon="4.51132">
        <ele>515</ele>
        <time>2016-11-27T09:44:52.000Z</time>
      </trkpt>
      <trkpt lat="46.04501" lon="4.51132">
        <ele>516</ele>
        <time>2016-11-27T09:44:53.000Z</time>
      </trkpt>
      <trkpt lat="46.04503" lon="4.51133">
        <ele>516</ele>
        <time>2016-11-27T09:44:54.000Z</time>
      </trkpt>
      <trkpt lat="46.04506" lon="4.51133">
        <ele>517</ele>
        <time>2016-11-27T09:44:55.000Z</time>
      </trkpt>
      <trkpt lat="46.04508" lon="4.51133">
        <ele>517</ele>
        <time>2016-11-27T09:44:56.000Z</time>
      </trkpt>
      <trkpt lat="46.04511" lon="4.51134">
        <ele>517</ele>
        <time>2016-11-27T09:44:57.000Z</time>
      </trkpt>
      <trkpt lat="46.04513" lon="4.51134">
        <ele>518</ele>
        <time>2016-11-27T09:44:58.000Z</time>
      </trkpt>
      <trkpt lat="46.04516" lon="4.51134">
        <ele>518</ele>
        <time>2016-11-27T09:44:59.000Z</time>
      </trkpt>
      <trkpt lat="46.04518" lon="4.51134">
        <ele>517</ele>
        <time>2016-11-27T09:45:00.000Z</time>
      </trkpt>
      <trkpt lat="46.04521" lon="4.51134">
        <ele>518</ele>
        <time>2016-11-27T09:45:01.000Z</time>
      </trkpt>
      <trkpt lat="46.04523" lon="4.51134">
        <ele>519</ele>
        <time>2016-11-27T09:45:02.000Z</time>
      </trkpt>
      <trkpt lat="46.04526" lon="4.51134">
        <ele>520</ele>
        <time>2016-11-27T09:45:03.000Z</time>
      </trkpt>
      <trkpt lat="46.04529" lon="4.51134">
        <ele>520</ele>
        <time>2016-11-27T09:45:04.000Z</time>
      </trkpt>
      <trkpt lat="46.04532" lon="4.51134">
        <ele>521</ele>
        <time>2016-11-27T09:45:05.000Z</time>
      </trkpt>
      <trkpt lat="46.04535" lon="4.51134">
        <ele>522</ele>
        <time>2016-11-27T09:45:06.000Z</time>
      </trkpt>
      <trkpt lat="46.04538" lon="4.51134">
        <ele>521</ele>
        <time>2016-11-27T09:45:07.000Z</time>
      </trkpt>
      <trkpt lat="46.04541" lon="4.51135">
        <ele>521</ele>
        <time>2016-11-27T09:45:08.000Z</time>
      </trkpt>
      <trkpt lat="46.04543" lon="4.51136">
        <ele>521</ele>
        <time>2016-11-27T09:45:09.000Z</time>
      </trkpt>
      <trkpt lat="46.04546" lon="4.51137">
        <ele>521</ele>
        <time>2016-11-27T09:45:10.000Z</time>
      </trkpt>
      <trkpt lat="46.04549" lon="4.51138">
        <ele>521</ele>
        <time>2016-11-27T09:45:11.000Z</time>
      </trkpt>
      <trkpt lat="46.04551" lon="4.5114">
        <ele>521</ele>
        <time>2016-11-27T09:45:12.000Z</time>
      </trkpt>
      <trkpt lat="46.04554" lon="4.51142">
        <ele>521</ele>
        <time>2016-11-27T09:45:13.000Z</time>
      </trkpt>
      <trkpt lat="46.04556" lon="4.51145">
        <ele>519</ele>
        <time>2016-11-27T09:45:14.000Z</time>
      </trkpt>
      <trkpt lat="46.04558" lon="4.51148">
        <ele>520</ele>
        <time>2016-11-27T09:45:15.000Z</time>
      </trkpt>
      <trkpt lat="46.0456" lon="4.51151">
        <ele>519</ele>
        <time>2016-11-27T09:45:16.000Z</time>
      </trkpt>
      <trkpt lat="46.04562" lon="4.51154">
        <ele>520</ele>
        <time>2016-11-27T09:45:17.000Z</time>
      </trkpt>
      <trkpt lat="46.04564" lon="4.51157">
        <ele>519</ele>
        <time>2016-11-27T09:45:18.000Z</time>
      </trkpt>
      <trkpt lat="46.04566" lon="4.51161">
        <ele>519</ele>
        <time>2016-11-27T09:45:19.000Z</time>
      </trkpt>
      <trkpt lat="46.04567" lon="4.51164">
        <ele>520</ele>
        <time>2016-11-27T09:45:20.000Z</time>
      </trkpt>
      <trkpt lat="46.04569" lon="4.51168">
        <ele>520</ele>
        <time>2016-11-27T09:45:21.000Z</time>
      </trkpt>
      <trkpt lat="46.04571" lon="4.51171">
        <ele>520</ele>
        <time>2016-11-27T09:45:22.000Z</time>
      </trkpt>
      <trkpt lat="46.04573" lon="4.51174">
        <ele>521</ele>
        <time>2016-11-27T09:45:23.000Z</time>
      </trkpt>
      <trkpt lat="46.04575" lon="4.51177">
        <ele>521</ele>
        <time>2016-11-27T09:45:24.000Z</time>
      </trkpt>
      <trkpt lat="46.04576" lon="4.5118">
        <ele>521</ele>
        <time>2016-11-27T09:45:25.000Z</time>
      </trkpt>
      <trkpt lat="46.04578" lon="4.51183">
        <ele>521</ele>
        <time>2016-11-27T09:45:26.000Z</time>
      </trkpt>
      <trkpt lat="46.04579" lon="4.51186">
        <ele>520</ele>
        <time>2016-11-27T09:45:27.000Z</time>
      </trkpt>
      <trkpt lat="46.04581" lon="4.51187">
        <ele>520</ele>
        <time>2016-11-27T09:45:28.000Z</time>
      </trkpt>
      <trkpt lat="46.04583" lon="4.51188">
        <ele>521</ele>
        <time>2016-11-27T09:45:29.000Z</time>
      </trkpt>
      <trkpt lat="46.04586" lon="4.51188">
        <ele>522</ele>
        <time>2016-11-27T09:45:30.000Z</time>
      </trkpt>
      <trkpt lat="46.04588" lon="4.51188">
        <ele>522</ele>
        <time>2016-11-27T09:45:31.000Z</time>
      </trkpt>
      <trkpt lat="46.04591" lon="4.51187">
        <ele>522</ele>
        <time>2016-11-27T09:45:32.000Z</time>
      </trkpt>
      <trkpt lat="46.04593" lon="4.51186">
        <ele>522</ele>
        <time>2016-11-27T09:45:33.000Z</time>
      </trkpt>
      <trkpt lat="46.04595" lon="4.51185">
        <ele>522</ele>
        <time>2016-11-27T09:45:34.000Z</time>
      </trkpt>
      <trkpt lat="46.04597" lon="4.51183">
        <ele>522</ele>
        <time>2016-11-27T09:45:35.000Z</time>
      </trkpt>
      <trkpt lat="46.046" lon="4.51181">
        <ele>523</ele>
        <time>2016-11-27T09:45:36.000Z</time>
      </trkpt>
      <trkpt lat="46.04602" lon="4.51179">
        <ele>523</ele>
        <time>2016-11-27T09:45:37.000Z</time>
      </trkpt>
      <trkpt lat="46.04604" lon="4.51177">
        <ele>524</ele>
        <time>2016-11-27T09:45:38.000Z</time>
      </trkpt>
      <trkpt lat="46.04606" lon="4.51175">
        <ele>523</ele>
        <time>2016-11-27T09:45:39.000Z</time>
      </trkpt>
      <trkpt lat="46.04609" lon="4.51173">
        <ele>524</ele>
        <time>2016-11-27T09:45:40.000Z</time>
      </trkpt>
      <trkpt lat="46.04611" lon="4.51171">
        <ele>524</ele>
        <time>2016-11-27T09:45:41.000Z</time>
      </trkpt>
      <trkpt lat="46.04613" lon="4.51169">
        <ele>524</ele>
        <time>2016-11-27T09:45:42.000Z</time>
      </trkpt>
      <trkpt lat="46.04615" lon="4.51167">
        <ele>525</ele>
        <time>2016-11-27T09:45:43.000Z</time>
      </trkpt>
      <trkpt lat="46.04616" lon="4.51166">
        <ele>525</ele>
        <time>2016-11-27T09:45:44.000Z</time>
      </trkpt>
      <trkpt lat="46.04618" lon="4.51164">
        <ele>526</ele>
        <time>2016-11-27T09:45:45.000Z</time>
      </trkpt>
      <trkpt lat="46.0462" lon="4.51163">
        <ele>526</ele>
        <time>2016-11-27T09:45:46.000Z</time>
      </trkpt>
      <trkpt lat="46.04622" lon="4.51161">
        <ele>527</ele>
        <time>2016-11-27T09:45:47.000Z</time>
      </trkpt>
      <trkpt lat="46.04624" lon="4.5116">
        <ele>527</ele>
        <time>2016-11-27T09:45:48.000Z</time>
      </trkpt>
      <trkpt lat="46.04626" lon="4.51159">
        <ele>528</ele>
        <time>2016-11-27T09:45:49.000Z</time>
      </trkpt>
      <trkpt lat="46.04628" lon="4.51158">
        <ele>528</ele>
        <time>2016-11-27T09:45:50.000Z</time>
      </trkpt>
      <trkpt lat="46.0463" lon="4.51157">
        <ele>529</ele>
        <time>2016-11-27T09:45:51.000Z</time>
      </trkpt>
      <trkpt lat="46.04631" lon="4.51156">
        <ele>529</ele>
        <time>2016-11-27T09:45:52.000Z</time>
      </trkpt>
      <trkpt lat="46.04633" lon="4.51155">
        <ele>531</ele>
        <time>2016-11-27T09:45:53.000Z</time>
      </trkpt>
      <trkpt lat="46.04634" lon="4.51154">
        <ele>531</ele>
        <time>2016-11-27T09:45:54.000Z</time>
      </trkpt>
      <trkpt lat="46.04636" lon="4.51153">
        <ele>531</ele>
        <time>2016-11-27T09:45:55.000Z</time>
      </trkpt>
      <trkpt lat="46.04638" lon="4.51153">
        <ele>531</ele>
        <time>2016-11-27T09:45:56.000Z</time>
      </trkpt>
      <trkpt lat="46.0464" lon="4.51152">
        <ele>531</ele>
        <time>2016-11-27T09:45:57.000Z</time>
      </trkpt>
      <trkpt lat="46.04641" lon="4.51152">
        <ele>532</ele>
        <time>2016-11-27T09:45:58.000Z</time>
      </trkpt>
      <trkpt lat="46.04643" lon="4.51151">
        <ele>533</ele>
        <time>2016-11-27T09:45:59.000Z</time>
      </trkpt>
      <trkpt lat="46.04645" lon="4.5115">
        <ele>533</ele>
        <time>2016-11-27T09:46:00.000Z</time>
      </trkpt>
      <trkpt lat="46.04647" lon="4.51149">
        <ele>534</ele>
        <time>2016-11-27T09:46:01.000Z</time>
      </trkpt>
      <trkpt lat="46.04649" lon="4.51148">
        <ele>535</ele>
        <time>2016-11-27T09:46:02.000Z</time>
      </trkpt>
      <trkpt lat="46.04651" lon="4.51148">
        <ele>535</ele>
        <time>2016-11-27T09:46:03.000Z</time>
      </trkpt>
      <trkpt lat="46.04653" lon="4.51148">
        <ele>535</ele>
        <time>2016-11-27T09:46:04.000Z</time>
      </trkpt>
      <trkpt lat="46.04656" lon="4.51147">
        <ele>536</ele>
        <time>2016-11-27T09:46:05.000Z</time>
      </trkpt>
      <trkpt lat="46.04658" lon="4.51146">
        <ele>537</ele>
        <time>2016-11-27T09:46:06.000Z</time>
      </trkpt>
      <trkpt lat="46.0466" lon="4.51145">
        <ele>537</ele>
        <time>2016-11-27T09:46:07.000Z</time>
      </trkpt>
      <trkpt lat="46.04662" lon="4.51145">
        <ele>536</ele>
        <time>2016-11-27T09:46:08.000Z</time>
      </trkpt>
      <trkpt lat="46.04664" lon="4.51144">
        <ele>536</ele>
        <time>2016-11-27T09:46:09.000Z</time>
      </trkpt>
      <trkpt lat="46.04666" lon="4.51144">
        <ele>536</ele>
        <time>2016-11-27T09:46:10.000Z</time>
      </trkpt>
      <trkpt lat="46.04668" lon="4.51144">
        <ele>537</ele>
        <time>2016-11-27T09:46:11.000Z</time>
      </trkpt>
      <trkpt lat="46.0467" lon="4.51143">
        <ele>538</ele>
        <time>2016-11-27T09:46:12.000Z</time>
      </trkpt>
      <trkpt lat="46.04672" lon="4.51143">
        <ele>538</ele>
        <time>2016-11-27T09:46:13.000Z</time>
      </trkpt>
      <trkpt lat="46.04673" lon="4.51142">
        <ele>538</ele>
        <time>2016-11-27T09:46:14.000Z</time>
      </trkpt>
      <trkpt lat="46.04675" lon="4.51142">
        <ele>539</ele>
        <time>2016-11-27T09:46:15.000Z</time>
      </trkpt>
      <trkpt lat="46.04677" lon="4.51141">
        <ele>540</ele>
        <time>2016-11-27T09:46:16.000Z</time>
      </trkpt>
      <trkpt lat="46.04679" lon="4.51141">
        <ele>540</ele>
        <time>2016-11-27T09:46:17.000Z</time>
      </trkpt>
      <trkpt lat="46.04681" lon="4.5114">
        <ele>542</ele>
        <time>2016-11-27T09:46:18.000Z</time>
      </trkpt>
      <trkpt lat="46.04682" lon="4.5114">
        <ele>542</ele>
        <time>2016-11-27T09:46:19.000Z</time>
      </trkpt>
      <trkpt lat="46.04684" lon="4.5114">
        <ele>541</ele>
        <time>2016-11-27T09:46:20.000Z</time>
      </trkpt>
      <trkpt lat="46.04687" lon="4.5114">
        <ele>542</ele>
        <time>2016-11-27T09:46:21.000Z</time>
      </trkpt>
      <trkpt lat="46.04689" lon="4.5114">
        <ele>541</ele>
        <time>2016-11-27T09:46:22.000Z</time>
      </trkpt>
      <trkpt lat="46.04691" lon="4.5114">
        <ele>542</ele>
        <time>2016-11-27T09:46:23.000Z</time>
      </trkpt>
      <trkpt lat="46.04693" lon="4.5114">
        <ele>542</ele>
        <time>2016-11-27T09:46:24.000Z</time>
      </trkpt>
      <trkpt lat="46.04695" lon="4.5114">
        <ele>542</ele>
        <time>2016-11-27T09:46:25.000Z</time>
      </trkpt>
      <trkpt lat="46.04697" lon="4.51141">
        <ele>542</ele>
        <time>2016-11-27T09:46:26.000Z</time>
      </trkpt>
      <trkpt lat="46.047" lon="4.51142">
        <ele>542</ele>
        <time>2016-11-27T09:46:27.000Z</time>
      </trkpt>
      <trkpt lat="46.04702" lon="4.51143">
        <ele>542</ele>
        <time>2016-11-27T09:46:28.000Z</time>
      </trkpt>
      <trkpt lat="46.04704" lon="4.51144">
        <ele>542</ele>
        <time>2016-11-27T09:46:29.000Z</time>
      </trkpt>
      <trkpt lat="46.04706" lon="4.51145">
        <ele>542</ele>
        <time>2016-11-27T09:46:30.000Z</time>
      </trkpt>
      <trkpt lat="46.04708" lon="4.51145">
        <ele>542</ele>
        <time>2016-11-27T09:46:31.000Z</time>
      </trkpt>
      <trkpt lat="46.0471" lon="4.51146">
        <ele>541</ele>
        <time>2016-11-27T09:46:32.000Z</time>
      </trkpt>
      <trkpt lat="46.04712" lon="4.51148">
        <ele>542</ele>
        <time>2016-11-27T09:46:33.000Z</time>
      </trkpt>
      <trkpt lat="46.04713" lon="4.51149">
        <ele>541</ele>
        <time>2016-11-27T09:46:34.000Z</time>
      </trkpt>
      <trkpt lat="46.04715" lon="4.5115">
        <ele>542</ele>
        <time>2016-11-27T09:46:35.000Z</time>
      </trkpt>
      <trkpt lat="46.04717" lon="4.5115">
        <ele>541</ele>
        <time>2016-11-27T09:46:36.000Z</time>
      </trkpt>
      <trkpt lat="46.04718" lon="4.51151">
        <ele>542</ele>
        <time>2016-11-27T09:46:37.000Z</time>
      </trkpt>
      <trkpt lat="46.0472" lon="4.51151">
        <ele>541</ele>
        <time>2016-11-27T09:46:38.000Z</time>
      </trkpt>
      <trkpt lat="46.04722" lon="4.51151">
        <ele>542</ele>
        <time>2016-11-27T09:46:39.000Z</time>
      </trkpt>
      <trkpt lat="46.04723" lon="4.51151">
        <ele>543</ele>
        <time>2016-11-27T09:46:40.000Z</time>
      </trkpt>
      <trkpt lat="46.04725" lon="4.51152">
        <ele>544</ele>
        <time>2016-11-27T09:46:41.000Z</time>
      </trkpt>
      <trkpt lat="46.04726" lon="4.51152">
        <ele>544</ele>
        <time>2016-11-27T09:46:42.000Z</time>
      </trkpt>
      <trkpt lat="46.04728" lon="4.51153">
        <ele>544</ele>
        <time>2016-11-27T09:46:43.000Z</time>
      </trkpt>
      <trkpt lat="46.04729" lon="4.51153">
        <ele>544</ele>
        <time>2016-11-27T09:46:44.000Z</time>
      </trkpt>
      <trkpt lat="46.0473" lon="4.51154">
        <ele>544</ele>
        <time>2016-11-27T09:46:45.000Z</time>
      </trkpt>
      <trkpt lat="46.04731" lon="4.51155">
        <ele>545</ele>
        <time>2016-11-27T09:46:46.000Z</time>
      </trkpt>
      <trkpt lat="46.04733" lon="4.51155">
        <ele>545</ele>
        <time>2016-11-27T09:46:47.000Z</time>
      </trkpt>
      <trkpt lat="46.04734" lon="4.51156">
        <ele>546</ele>
        <time>2016-11-27T09:46:48.000Z</time>
      </trkpt>
      <trkpt lat="46.04735" lon="4.51156">
        <ele>546</ele>
        <time>2016-11-27T09:46:49.000Z</time>
      </trkpt>
      <trkpt lat="46.04735" lon="4.51156">
        <ele>546</ele>
        <time>2016-11-27T09:46:50.000Z</time>
      </trkpt>
      <trkpt lat="46.04736" lon="4.51156">
        <ele>546</ele>
        <time>2016-11-27T09:46:51.000Z</time>
      </trkpt>
      <trkpt lat="46.04737" lon="4.51157">
        <ele>547</ele>
        <time>2016-11-27T09:46:52.000Z</time>
      </trkpt>
      <trkpt lat="46.04739" lon="4.51157">
        <ele>547</ele>
        <time>2016-11-27T09:46:53.000Z</time>
      </trkpt>
      <trkpt lat="46.0474" lon="4.51158">
        <ele>546</ele>
        <time>2016-11-27T09:46:54.000Z</time>
      </trkpt>
      <trkpt lat="46.04741" lon="4.51158">
        <ele>547</ele>
        <time>2016-11-27T09:46:55.000Z</time>
      </trkpt>
      <trkpt lat="46.04742" lon="4.51158">
        <ele>548</ele>
        <time>2016-11-27T09:46:56.000Z</time>
      </trkpt>
      <trkpt lat="46.04743" lon="4.51159">
        <ele>548</ele>
        <time>2016-11-27T09:46:57.000Z</time>
      </trkpt>
      <trkpt lat="46.04744" lon="4.51159">
        <ele>548</ele>
        <time>2016-11-27T09:46:58.000Z</time>
      </trkpt>
      <trkpt lat="46.04746" lon="4.5116">
        <ele>548</ele>
        <time>2016-11-27T09:46:59.000Z</time>
      </trkpt>
      <trkpt lat="46.04747" lon="4.5116">
        <ele>548</ele>
        <time>2016-11-27T09:47:00.000Z</time>
      </trkpt>
      <trkpt lat="46.04748" lon="4.51161">
        <ele>548</ele>
        <time>2016-11-27T09:47:01.000Z</time>
      </trkpt>
      <trkpt lat="46.04749" lon="4.51161">
        <ele>549</ele>
        <time>2016-11-27T09:47:02.000Z</time>
      </trkpt>
      <trkpt lat="46.0475" lon="4.51162">
        <ele>550</ele>
        <time>2016-11-27T09:47:03.000Z</time>
      </trkpt>
      <trkpt lat="46.04752" lon="4.51162">
        <ele>550</ele>
        <time>2016-11-27T09:47:04.000Z</time>
      </trkpt>
      <trkpt lat="46.04753" lon="4.51163">
        <ele>549</ele>
        <time>2016-11-27T09:47:05.000Z</time>
      </trkpt>
      <trkpt lat="46.04754" lon="4.51163">
        <ele>549</ele>
        <time>2016-11-27T09:47:06.000Z</time>
      </trkpt>
      <trkpt lat="46.04756" lon="4.51163">
        <ele>549</ele>
        <time>2016-11-27T09:47:07.000Z</time>
      </trkpt>
      <trkpt lat="46.04757" lon="4.51164">
        <ele>549</ele>
        <time>2016-11-27T09:47:08.000Z</time>
      </trkpt>
      <trkpt lat="46.04758" lon="4.51164">
        <ele>549</ele>
        <time>2016-11-27T09:47:09.000Z</time>
      </trkpt>
      <trkpt lat="46.04759" lon="4.51164">
        <ele>549</ele>
        <time>2016-11-27T09:47:10.000Z</time>
      </trkpt>
      <trkpt lat="46.04761" lon="4.51165">
        <ele>549</ele>
        <time>2016-11-27T09:47:11.000Z</time>
      </trkpt>
      <trkpt lat="46.04762" lon="4.51167">
        <ele>549</ele>
        <time>2016-11-27T09:47:12.000Z</time>
      </trkpt>
      <trkpt lat="46.04763" lon="4.51168">
        <ele>550</ele>
        <time>2016-11-27T09:47:13.000Z</time>
      </trkpt>
      <trkpt lat="46.04764" lon="4.51168">
        <ele>551</ele>
        <time>2016-11-27T09:47:14.000Z</time>
      </trkpt>
      <trkpt lat="46.04765" lon="4.51169">
        <ele>553</ele>
        <time>2016-11-27T09:47:15.000Z</time>
      </trkpt>
      <trkpt lat="46.04767" lon="4.51169">
        <ele>553</ele>
        <time>2016-11-27T09:47:16.000Z</time>
      </trkpt>
      <trkpt lat="46.04768" lon="4.5117">
        <ele>553</ele>
        <time>2016-11-27T09:47:17.000Z</time>
      </trkpt>
      <trkpt lat="46.04769" lon="4.51171">
        <ele>553</ele>
        <time>2016-11-27T09:47:18.000Z</time>
      </trkpt>
      <trkpt lat="46.0477" lon="4.51172">
        <ele>553</ele>
        <time>2016-11-27T09:47:19.000Z</time>
      </trkpt>
      <trkpt lat="46.04771" lon="4.51173">
        <ele>554</ele>
        <time>2016-11-27T09:47:20.000Z</time>
      </trkpt>
      <trkpt lat="46.04772" lon="4.51174">
        <ele>554</ele>
        <time>2016-11-27T09:47:21.000Z</time>
      </trkpt>
      <trkpt lat="46.04773" lon="4.51175">
        <ele>554</ele>
        <time>2016-11-27T09:47:22.000Z</time>
      </trkpt>
      <trkpt lat="46.04774" lon="4.51177">
        <ele>554</ele>
        <time>2016-11-27T09:47:23.000Z</time>
      </trkpt>
      <trkpt lat="46.04775" lon="4.51179">
        <ele>555</ele>
        <time>2016-11-27T09:47:24.000Z</time>
      </trkpt>
      <trkpt lat="46.04776" lon="4.5118">
        <ele>555</ele>
        <time>2016-11-27T09:47:25.000Z</time>
      </trkpt>
      <trkpt lat="46.04777" lon="4.51182">
        <ele>555</ele>
        <time>2016-11-27T09:47:26.000Z</time>
      </trkpt>
      <trkpt lat="46.04778" lon="4.51184">
        <ele>556</ele>
        <time>2016-11-27T09:47:27.000Z</time>
      </trkpt>
      <trkpt lat="46.04779" lon="4.51186">
        <ele>556</ele>
        <time>2016-11-27T09:47:28.000Z</time>
      </trkpt>
      <trkpt lat="46.0478" lon="4.51187">
        <ele>557</ele>
        <time>2016-11-27T09:47:29.000Z</time>
      </trkpt>
      <trkpt lat="46.04781" lon="4.51189">
        <ele>557</ele>
        <time>2016-11-27T09:47:30.000Z</time>
      </trkpt>
      <trkpt lat="46.04782" lon="4.5119">
        <ele>558</ele>
        <time>2016-11-27T09:47:31.000Z</time>
      </trkpt>
      <trkpt lat="46.04783" lon="4.51191">
        <ele>558</ele>
        <time>2016-11-27T09:47:32.000Z</time>
      </trkpt>
      <trkpt lat="46.04784" lon="4.51193">
        <ele>558</ele>
        <time>2016-11-27T09:47:33.000Z</time>
      </trkpt>
      <trkpt lat="46.04784" lon="4.51194">
        <ele>559</ele>
        <time>2016-11-27T09:47:34.000Z</time>
      </trkpt>
      <trkpt lat="46.04785" lon="4.51195">
        <ele>559</ele>
        <time>2016-11-27T09:47:35.000Z</time>
      </trkpt>
      <trkpt lat="46.04786" lon="4.51196">
        <ele>559</ele>
        <time>2016-11-27T09:47:36.000Z</time>
      </trkpt>
      <trkpt lat="46.04786" lon="4.51197">
        <ele>559</ele>
        <time>2016-11-27T09:47:37.000Z</time>
      </trkpt>
      <trkpt lat="46.04786" lon="4.51199">
        <ele>559</ele>
        <time>2016-11-27T09:47:38.000Z</time>
      </trkpt>
      <trkpt lat="46.04786" lon="4.512">
        <ele>559</ele>
        <time>2016-11-27T09:47:39.000Z</time>
      </trkpt>
      <trkpt lat="46.04787" lon="4.51201">
        <ele>559</ele>
        <time>2016-11-27T09:47:40.000Z</time>
      </trkpt>
      <trkpt lat="46.04787" lon="4.51202">
        <ele>559</ele>
        <time>2016-11-27T09:47:41.000Z</time>
      </trkpt>
      <trkpt lat="46.04787" lon="4.51203">
        <ele>559</ele>
        <time>2016-11-27T09:47:42.000Z</time>
      </trkpt>
      <trkpt lat="46.04788" lon="4.51205">
        <ele>559</ele>
        <time>2016-11-27T09:47:43.000Z</time>
      </trkpt>
      <trkpt lat="46.04789" lon="4.51206">
        <ele>560</ele>
        <time>2016-11-27T09:47:44.000Z</time>
      </trkpt>
      <trkpt lat="46.04789" lon="4.51207">
        <ele>560</ele>
        <time>2016-11-27T09:47:45.000Z</time>
      </trkpt>
      <trkpt lat="46.0479" lon="4.51208">
        <ele>560</ele>
        <time>2016-11-27T09:47:46.000Z</time>
      </trkpt>
      <trkpt lat="46.04791" lon="4.5121">
        <ele>560</ele>
        <time>2016-11-27T09:47:47.000Z</time>
      </trkpt>
      <trkpt lat="46.04791" lon="4.51211">
        <ele>560</ele>
        <time>2016-11-27T09:47:48.000Z</time>
      </trkpt>
      <trkpt lat="46.04792" lon="4.51212">
        <ele>561</ele>
        <time>2016-11-27T09:47:49.000Z</time>
      </trkpt>
      <trkpt lat="46.04792" lon="4.51213">
        <ele>561</ele>
        <time>2016-11-27T09:47:50.000Z</time>
      </trkpt>
      <trkpt lat="46.04793" lon="4.51215">
        <ele>561</ele>
        <time>2016-11-27T09:47:51.000Z</time>
      </trkpt>
      <trkpt lat="46.04793" lon="4.51216">
        <ele>561</ele>
        <time>2016-11-27T09:47:52.000Z</time>
      </trkpt>
      <trkpt lat="46.04793" lon="4.51218">
        <ele>561</ele>
        <time>2016-11-27T09:47:53.000Z</time>
      </trkpt>
      <trkpt lat="46.04794" lon="4.51219">
        <ele>562</ele>
        <time>2016-11-27T09:47:54.000Z</time>
      </trkpt>
      <trkpt lat="46.04795" lon="4.51221">
        <ele>562</ele>
        <time>2016-11-27T09:47:55.000Z</time>
      </trkpt>
      <trkpt lat="46.04795" lon="4.51222">
        <ele>562</ele>
        <time>2016-11-27T09:47:56.000Z</time>
      </trkpt>
      <trkpt lat="46.04796" lon="4.51223">
        <ele>561</ele>
        <time>2016-11-27T09:47:57.000Z</time>
      </trkpt>
      <trkpt lat="46.04797" lon="4.51224">
        <ele>563</ele>
        <time>2016-11-27T09:47:58.000Z</time>
      </trkpt>
      <trkpt lat="46.04798" lon="4.51226">
        <ele>564</ele>
        <time>2016-11-27T09:47:59.000Z</time>
      </trkpt>
      <trkpt lat="46.04799" lon="4.51227">
        <ele>565</ele>
        <time>2016-11-27T09:48:00.000Z</time>
      </trkpt>
      <trkpt lat="46.048" lon="4.51228">
        <ele>565</ele>
        <time>2016-11-27T09:48:01.000Z</time>
      </trkpt>
      <trkpt lat="46.04801" lon="4.51229">
        <ele>566</ele>
        <time>2016-11-27T09:48:02.000Z</time>
      </trkpt>
      <trkpt lat="46.04801" lon="4.51231">
        <ele>566</ele>
        <time>2016-11-27T09:48:03.000Z</time>
      </trkpt>
      <trkpt lat="46.04802" lon="4.51232">
        <ele>567</ele>
        <time>2016-11-27T09:48:04.000Z</time>
      </trkpt>
      <trkpt lat="46.04803" lon="4.51233">
        <ele>567</ele>
        <time>2016-11-27T09:48:05.000Z</time>
      </trkpt>
      <trkpt lat="46.04803" lon="4.51234">
        <ele>567</ele>
        <time>2016-11-27T09:48:06.000Z</time>
      </trkpt>
      <trkpt lat="46.04804" lon="4.51236">
        <ele>567</ele>
        <time>2016-11-27T09:48:07.000Z</time>
      </trkpt>
      <trkpt lat="46.04804" lon="4.51237">
        <ele>567</ele>
        <time>2016-11-27T09:48:08.000Z</time>
      </trkpt>
      <trkpt lat="46.04805" lon="4.51238">
        <ele>568</ele>
        <time>2016-11-27T09:48:09.000Z</time>
      </trkpt>
      <trkpt lat="46.04805" lon="4.5124">
        <ele>567</ele>
        <time>2016-11-27T09:48:10.000Z</time>
      </trkpt>
      <trkpt lat="46.04805" lon="4.51242">
        <ele>567</ele>
        <time>2016-11-27T09:48:11.000Z</time>
      </trkpt>
      <trkpt lat="46.04806" lon="4.51244">
        <ele>567</ele>
        <time>2016-11-27T09:48:12.000Z</time>
      </trkpt>
      <trkpt lat="46.04806" lon="4.51245">
        <ele>567</ele>
        <time>2016-11-27T09:48:13.000Z</time>
      </trkpt>
      <trkpt lat="46.04806" lon="4.51247">
        <ele>567</ele>
        <time>2016-11-27T09:48:14.000Z</time>
      </trkpt>
      <trkpt lat="46.04807" lon="4.51249">
        <ele>568</ele>
        <time>2016-11-27T09:48:15.000Z</time>
      </trkpt>
      <trkpt lat="46.04807" lon="4.5125">
        <ele>567</ele>
        <time>2016-11-27T09:48:16.000Z</time>
      </trkpt>
      <trkpt lat="46.04808" lon="4.51253">
        <ele>567</ele>
        <time>2016-11-27T09:48:17.000Z</time>
      </trkpt>
      <trkpt lat="46.04808" lon="4.51255">
        <ele>567</ele>
        <time>2016-11-27T09:48:18.000Z</time>
      </trkpt>
      <trkpt lat="46.04809" lon="4.51256">
        <ele>568</ele>
        <time>2016-11-27T09:48:19.000Z</time>
      </trkpt>
      <trkpt lat="46.04809" lon="4.51258">
        <ele>568</ele>
        <time>2016-11-27T09:48:20.000Z</time>
      </trkpt>
      <trkpt lat="46.0481" lon="4.51259">
        <ele>568</ele>
        <time>2016-11-27T09:48:21.000Z</time>
      </trkpt>
      <trkpt lat="46.0481" lon="4.5126">
        <ele>569</ele>
        <time>2016-11-27T09:48:22.000Z</time>
      </trkpt>
      <trkpt lat="46.0481" lon="4.51262">
        <ele>568</ele>
        <time>2016-11-27T09:48:23.000Z</time>
      </trkpt>
      <trkpt lat="46.0481" lon="4.51263">
        <ele>568</ele>
        <time>2016-11-27T09:48:24.000Z</time>
      </trkpt>
      <trkpt lat="46.0481" lon="4.51264">
        <ele>568</ele>
        <time>2016-11-27T09:48:25.000Z</time>
      </trkpt>
      <trkpt lat="46.0481" lon="4.51265">
        <ele>569</ele>
        <time>2016-11-27T09:48:26.000Z</time>
      </trkpt>
      <trkpt lat="46.04811" lon="4.51266">
        <ele>569</ele>
        <time>2016-11-27T09:48:27.000Z</time>
      </trkpt>
      <trkpt lat="46.04811" lon="4.51267">
        <ele>569</ele>
        <time>2016-11-27T09:48:28.000Z</time>
      </trkpt>
      <trkpt lat="46.04812" lon="4.51268">
        <ele>569</ele>
        <time>2016-11-27T09:48:29.000Z</time>
      </trkpt>
      <trkpt lat="46.04812" lon="4.5127">
        <ele>569</ele>
        <time>2016-11-27T09:48:30.000Z</time>
      </trkpt>
      <trkpt lat="46.04813" lon="4.51272">
        <ele>569</ele>
        <time>2016-11-27T09:48:31.000Z</time>
      </trkpt>
      <trkpt lat="46.04814" lon="4.51274">
        <ele>569</ele>
        <time>2016-11-27T09:48:32.000Z</time>
      </trkpt>
      <trkpt lat="46.04814" lon="4.51275">
        <ele>570</ele>
        <time>2016-11-27T09:48:33.000Z</time>
      </trkpt>
      <trkpt lat="46.04815" lon="4.51277">
        <ele>569</ele>
        <time>2016-11-27T09:48:34.000Z</time>
      </trkpt>
      <trkpt lat="46.04815" lon="4.51278">
        <ele>569</ele>
        <time>2016-11-27T09:48:35.000Z</time>
      </trkpt>
      <trkpt lat="46.04816" lon="4.51279">
        <ele>570</ele>
        <time>2016-11-27T09:48:36.000Z</time>
      </trkpt>
      <trkpt lat="46.04817" lon="4.51281">
        <ele>570</ele>
        <time>2016-11-27T09:48:37.000Z</time>
      </trkpt>
      <trkpt lat="46.04818" lon="4.51283">
        <ele>572</ele>
        <time>2016-11-27T09:48:38.000Z</time>
      </trkpt>
      <trkpt lat="46.04819" lon="4.51284">
        <ele>573</ele>
        <time>2016-11-27T09:48:39.000Z</time>
      </trkpt>
      <trkpt lat="46.0482" lon="4.51285">
        <ele>574</ele>
        <time>2016-11-27T09:48:40.000Z</time>
      </trkpt>
      <trkpt lat="46.0482" lon="4.51287">
        <ele>575</ele>
        <time>2016-11-27T09:48:41.000Z</time>
      </trkpt>
      <trkpt lat="46.04821" lon="4.51288">
        <ele>575</ele>
        <time>2016-11-27T09:48:42.000Z</time>
      </trkpt>
      <trkpt lat="46.04822" lon="4.5129">
        <ele>576</ele>
        <time>2016-11-27T09:48:43.000Z</time>
      </trkpt>
      <trkpt lat="46.04823" lon="4.51292">
        <ele>577</ele>
        <time>2016-11-27T09:48:44.000Z</time>
      </trkpt>
      <trkpt lat="46.04823" lon="4.51294">
        <ele>577</ele>
        <time>2016-11-27T09:48:45.000Z</time>
      </trkpt>
      <trkpt lat="46.04824" lon="4.51296">
        <ele>578</ele>
        <time>2016-11-27T09:48:46.000Z</time>
      </trkpt>
      <trkpt lat="46.04824" lon="4.51297">
        <ele>578</ele>
        <time>2016-11-27T09:48:47.000Z</time>
      </trkpt>
      <trkpt lat="46.04825" lon="4.51298">
        <ele>578</ele>
        <time>2016-11-27T09:48:48.000Z</time>
      </trkpt>
      <trkpt lat="46.04825" lon="4.51299">
        <ele>579</ele>
        <time>2016-11-27T09:48:49.000Z</time>
      </trkpt>
      <trkpt lat="46.04826" lon="4.51301">
        <ele>580</ele>
        <time>2016-11-27T09:48:50.000Z</time>
      </trkpt>
      <trkpt lat="46.04827" lon="4.51302">
        <ele>580</ele>
        <time>2016-11-27T09:48:51.000Z</time>
      </trkpt>
      <trkpt lat="46.04828" lon="4.51304">
        <ele>580</ele>
        <time>2016-11-27T09:48:52.000Z</time>
      </trkpt>
      <trkpt lat="46.04828" lon="4.51306">
        <ele>581</ele>
        <time>2016-11-27T09:48:53.000Z</time>
      </trkpt>
      <trkpt lat="46.04829" lon="4.51308">
        <ele>581</ele>
        <time>2016-11-27T09:48:54.000Z</time>
      </trkpt>
      <trkpt lat="46.04829" lon="4.5131">
        <ele>580</ele>
        <time>2016-11-27T09:48:55.000Z</time>
      </trkpt>
      <trkpt lat="46.04829" lon="4.51312">
        <ele>582</ele>
        <time>2016-11-27T09:48:56.000Z</time>
      </trkpt>
      <trkpt lat="46.0483" lon="4.51315">
        <ele>582</ele>
        <time>2016-11-27T09:48:57.000Z</time>
      </trkpt>
      <trkpt lat="46.0483" lon="4.51317">
        <ele>582</ele>
        <time>2016-11-27T09:48:58.000Z</time>
      </trkpt>
      <trkpt lat="46.04831" lon="4.51319">
        <ele>582</ele>
        <time>2016-11-27T09:48:59.000Z</time>
      </trkpt>
      <trkpt lat="46.04831" lon="4.51321">
        <ele>583</ele>
        <time>2016-11-27T09:49:00.000Z</time>
      </trkpt>
      <trkpt lat="46.04831" lon="4.51323">
        <ele>583</ele>
        <time>2016-11-27T09:49:01.000Z</time>
      </trkpt>
      <trkpt lat="46.04831" lon="4.51325">
        <ele>583</ele>
        <time>2016-11-27T09:49:02.000Z</time>
      </trkpt>
      <trkpt lat="46.04832" lon="4.51327">
        <ele>583</ele>
        <time>2016-11-27T09:49:03.000Z</time>
      </trkpt>
      <trkpt lat="46.04832" lon="4.51329">
        <ele>583</ele>
        <time>2016-11-27T09:49:04.000Z</time>
      </trkpt>
      <trkpt lat="46.04832" lon="4.51331">
        <ele>584</ele>
        <time>2016-11-27T09:49:05.000Z</time>
      </trkpt>
      <trkpt lat="46.04832" lon="4.51333">
        <ele>584</ele>
        <time>2016-11-27T09:49:06.000Z</time>
      </trkpt>
      <trkpt lat="46.04833" lon="4.51335">
        <ele>584</ele>
        <time>2016-11-27T09:49:07.000Z</time>
      </trkpt>
      <trkpt lat="46.04833" lon="4.51336">
        <ele>584</ele>
        <time>2016-11-27T09:49:08.000Z</time>
      </trkpt>
      <trkpt lat="46.04833" lon="4.51338">
        <ele>585</ele>
        <time>2016-11-27T09:49:09.000Z</time>
      </trkpt>
      <trkpt lat="46.04833" lon="4.51339">
        <ele>585</ele>
        <time>2016-11-27T09:49:10.000Z</time>
      </trkpt>
      <trkpt lat="46.04834" lon="4.51341">
        <ele>585</ele>
        <time>2016-11-27T09:49:11.000Z</time>
      </trkpt>
      <trkpt lat="46.04834" lon="4.51343">
        <ele>585</ele>
        <time>2016-11-27T09:49:12.000Z</time>
      </trkpt>
      <trkpt lat="46.04834" lon="4.51345">
        <ele>585</ele>
        <time>2016-11-27T09:49:13.000Z</time>
      </trkpt>
      <trkpt lat="46.04835" lon="4.51346">
        <ele>585</ele>
        <time>2016-11-27T09:49:14.000Z</time>
      </trkpt>
      <trkpt lat="46.04835" lon="4.51348">
        <ele>586</ele>
        <time>2016-11-27T09:49:15.000Z</time>
      </trkpt>
      <trkpt lat="46.04834" lon="4.5135">
        <ele>587</ele>
        <time>2016-11-27T09:49:16.000Z</time>
      </trkpt>
      <trkpt lat="46.04834" lon="4.51352">
        <ele>587</ele>
        <time>2016-11-27T09:49:17.000Z</time>
      </trkpt>
      <trkpt lat="46.04834" lon="4.51353">
        <ele>587</ele>
        <time>2016-11-27T09:49:18.000Z</time>
      </trkpt>
      <trkpt lat="46.04835" lon="4.51355">
        <ele>587</ele>
        <time>2016-11-27T09:49:19.000Z</time>
      </trkpt>
      <trkpt lat="46.04835" lon="4.51357">
        <ele>586</ele>
        <time>2016-11-27T09:49:20.000Z</time>
      </trkpt>
      <trkpt lat="46.04834" lon="4.51359">
        <ele>586</ele>
        <time>2016-11-27T09:49:21.000Z</time>
      </trkpt>
      <trkpt lat="46.04834" lon="4.51361">
        <ele>586</ele>
        <time>2016-11-27T09:49:22.000Z</time>
      </trkpt>
      <trkpt lat="46.04834" lon="4.51362">
        <ele>586</ele>
        <time>2016-11-27T09:49:23.000Z</time>
      </trkpt>
      <trkpt lat="46.04834" lon="4.51364">
        <ele>586</ele>
        <time>2016-11-27T09:49:24.000Z</time>
      </trkpt>
      <trkpt lat="46.04834" lon="4.51366">
        <ele>585</ele>
        <time>2016-11-27T09:49:25.000Z</time>
      </trkpt>
      <trkpt lat="46.04834" lon="4.51368">
        <ele>585</ele>
        <time>2016-11-27T09:49:26.000Z</time>
      </trkpt>
      <trkpt lat="46.04834" lon="4.5137">
        <ele>586</ele>
        <time>2016-11-27T09:49:27.000Z</time>
      </trkpt>
      <trkpt lat="46.04834" lon="4.51372">
        <ele>586</ele>
        <time>2016-11-27T09:49:28.000Z</time>
      </trkpt>
      <trkpt lat="46.04834" lon="4.51374">
        <ele>586</ele>
        <time>2016-11-27T09:49:29.000Z</time>
      </trkpt>
      <trkpt lat="46.04834" lon="4.51376">
        <ele>585</ele>
        <time>2016-11-27T09:49:30.000Z</time>
      </trkpt>
      <trkpt lat="46.04834" lon="4.51378">
        <ele>586</ele>
        <time>2016-11-27T09:49:31.000Z</time>
      </trkpt>
      <trkpt lat="46.04835" lon="4.5138">
        <ele>586</ele>
        <time>2016-11-27T09:49:32.000Z</time>
      </trkpt>
      <trkpt lat="46.04835" lon="4.51382">
        <ele>586</ele>
        <time>2016-11-27T09:49:33.000Z</time>
      </trkpt>
      <trkpt lat="46.04835" lon="4.51384">
        <ele>586</ele>
        <time>2016-11-27T09:49:34.000Z</time>
      </trkpt>
      <trkpt lat="46.04835" lon="4.51386">
        <ele>586</ele>
        <time>2016-11-27T09:49:35.000Z</time>
      </trkpt>
      <trkpt lat="46.04836" lon="4.51388">
        <ele>587</ele>
        <time>2016-11-27T09:49:36.000Z</time>
      </trkpt>
      <trkpt lat="46.04836" lon="4.5139">
        <ele>587</ele>
        <time>2016-11-27T09:49:37.000Z</time>
      </trkpt>
      <trkpt lat="46.04835" lon="4.51391">
        <ele>586</ele>
        <time>2016-11-27T09:49:38.000Z</time>
      </trkpt>
      <trkpt lat="46.04835" lon="4.51393">
        <ele>586</ele>
        <time>2016-11-27T09:49:39.000Z</time>
      </trkpt>
      <trkpt lat="46.04835" lon="4.51394">
        <ele>587</ele>
        <time>2016-11-27T09:49:40.000Z</time>
      </trkpt>
      <trkpt lat="46.04835" lon="4.51396">
        <ele>588</ele>
        <time>2016-11-27T09:49:41.000Z</time>
      </trkpt>
      <trkpt lat="46.04835" lon="4.51398">
        <ele>588</ele>
        <time>2016-11-27T09:49:42.000Z</time>
      </trkpt>
      <trkpt lat="46.04835" lon="4.51399">
        <ele>588</ele>
        <time>2016-11-27T09:49:43.000Z</time>
      </trkpt>
      <trkpt lat="46.04835" lon="4.51401">
        <ele>589</ele>
        <time>2016-11-27T09:49:44.000Z</time>
      </trkpt>
      <trkpt lat="46.04835" lon="4.51402">
        <ele>589</ele>
        <time>2016-11-27T09:49:45.000Z</time>
      </trkpt>
      <trkpt lat="46.04835" lon="4.51404">
        <ele>589</ele>
        <time>2016-11-27T09:49:46.000Z</time>
      </trkpt>
      <trkpt lat="46.04835" lon="4.51405">
        <ele>589</ele>
        <time>2016-11-27T09:49:47.000Z</time>
      </trkpt>
      <trkpt lat="46.04836" lon="4.51407">
        <ele>588</ele>
        <time>2016-11-27T09:49:48.000Z</time>
      </trkpt>
      <trkpt lat="46.04836" lon="4.51409">
        <ele>588</ele>
        <time>2016-11-27T09:49:49.000Z</time>
      </trkpt>
      <trkpt lat="46.04836" lon="4.51411">
        <ele>589</ele>
        <time>2016-11-27T09:49:50.000Z</time>
      </trkpt>
      <trkpt lat="46.04836" lon="4.51413">
        <ele>589</ele>
        <time>2016-11-27T09:49:51.000Z</time>
      </trkpt>
      <trkpt lat="46.04836" lon="4.51414">
        <ele>590</ele>
        <time>2016-11-27T09:49:52.000Z</time>
      </trkpt>
      <trkpt lat="46.04836" lon="4.51416">
        <ele>590</ele>
        <time>2016-11-27T09:49:53.000Z</time>
      </trkpt>
      <trkpt lat="46.04836" lon="4.51418">
        <ele>590</ele>
        <time>2016-11-27T09:49:54.000Z</time>
      </trkpt>
      <trkpt lat="46.04836" lon="4.5142">
        <ele>590</ele>
        <time>2016-11-27T09:49:55.000Z</time>
      </trkpt>
      <trkpt lat="46.04836" lon="4.51422">
        <ele>590</ele>
        <time>2016-11-27T09:49:56.000Z</time>
      </trkpt>
      <trkpt lat="46.04837" lon="4.51424">
        <ele>591</ele>
        <time>2016-11-27T09:49:57.000Z</time>
      </trkpt>
      <trkpt lat="46.04837" lon="4.51426">
        <ele>591</ele>
        <time>2016-11-27T09:49:58.000Z</time>
      </trkpt>
      <trkpt lat="46.04837" lon="4.51428">
        <ele>592</ele>
        <time>2016-11-27T09:49:59.000Z</time>
      </trkpt>
      <trkpt lat="46.04837" lon="4.5143">
        <ele>593</ele>
        <time>2016-11-27T09:50:00.000Z</time>
      </trkpt>
      <trkpt lat="46.04838" lon="4.51432">
        <ele>593</ele>
        <time>2016-11-27T09:50:01.000Z</time>
      </trkpt>
      <trkpt lat="46.04838" lon="4.51434">
        <ele>592</ele>
        <time>2016-11-27T09:50:02.000Z</time>
      </trkpt>
      <trkpt lat="46.04838" lon="4.51436">
        <ele>593</ele>
        <time>2016-11-27T09:50:03.000Z</time>
      </trkpt>
      <trkpt lat="46.04838" lon="4.51438">
        <ele>592</ele>
        <time>2016-11-27T09:50:04.000Z</time>
      </trkpt>
      <trkpt lat="46.04838" lon="4.5144">
        <ele>592</ele>
        <time>2016-11-27T09:50:05.000Z</time>
      </trkpt>
      <trkpt lat="46.04838" lon="4.51442">
        <ele>593</ele>
        <time>2016-11-27T09:50:06.000Z</time>
      </trkpt>
      <trkpt lat="46.04839" lon="4.51445">
        <ele>593</ele>
        <time>2016-11-27T09:50:07.000Z</time>
      </trkpt>
      <trkpt lat="46.04839" lon="4.51447">
        <ele>593</ele>
        <time>2016-11-27T09:50:08.000Z</time>
      </trkpt>
      <trkpt lat="46.04839" lon="4.51449">
        <ele>594</ele>
        <time>2016-11-27T09:50:09.000Z</time>
      </trkpt>
      <trkpt lat="46.0484" lon="4.51451">
        <ele>594</ele>
        <time>2016-11-27T09:50:10.000Z</time>
      </trkpt>
      <trkpt lat="46.0484" lon="4.51453">
        <ele>595</ele>
        <time>2016-11-27T09:50:11.000Z</time>
      </trkpt>
      <trkpt lat="46.0484" lon="4.51455">
        <ele>594</ele>
        <time>2016-11-27T09:50:12.000Z</time>
      </trkpt>
      <trkpt lat="46.0484" lon="4.51456">
        <ele>594</ele>
        <time>2016-11-27T09:50:13.000Z</time>
      </trkpt>
      <trkpt lat="46.0484" lon="4.51458">
        <ele>594</ele>
        <time>2016-11-27T09:50:14.000Z</time>
      </trkpt>
      <trkpt lat="46.0484" lon="4.51459">
        <ele>595</ele>
        <time>2016-11-27T09:50:15.000Z</time>
      </trkpt>
      <trkpt lat="46.0484" lon="4.51461">
        <ele>595</ele>
        <time>2016-11-27T09:50:16.000Z</time>
      </trkpt>
      <trkpt lat="46.0484" lon="4.51463">
        <ele>595</ele>
        <time>2016-11-27T09:50:17.000Z</time>
      </trkpt>
      <trkpt lat="46.0484" lon="4.51465">
        <ele>595</ele>
        <time>2016-11-27T09:50:18.000Z</time>
      </trkpt>
      <trkpt lat="46.0484" lon="4.51467">
        <ele>595</ele>
        <time>2016-11-27T09:50:19.000Z</time>
      </trkpt>
      <trkpt lat="46.0484" lon="4.51469">
        <ele>595</ele>
        <time>2016-11-27T09:50:20.000Z</time>
      </trkpt>
      <trkpt lat="46.04841" lon="4.51471">
        <ele>596</ele>
        <time>2016-11-27T09:50:21.000Z</time>
      </trkpt>
      <trkpt lat="46.04841" lon="4.51473">
        <ele>596</ele>
        <time>2016-11-27T09:50:22.000Z</time>
      </trkpt>
      <trkpt lat="46.04842" lon="4.51475">
        <ele>597</ele>
        <time>2016-11-27T09:50:23.000Z</time>
      </trkpt>
      <trkpt lat="46.04842" lon="4.51477">
        <ele>597</ele>
        <time>2016-11-27T09:50:24.000Z</time>
      </trkpt>
      <trkpt lat="46.04843" lon="4.51478">
        <ele>597</ele>
        <time>2016-11-27T09:50:25.000Z</time>
      </trkpt>
      <trkpt lat="46.04843" lon="4.5148">
        <ele>597</ele>
        <time>2016-11-27T09:50:26.000Z</time>
      </trkpt>
      <trkpt lat="46.04844" lon="4.51482">
        <ele>597</ele>
        <time>2016-11-27T09:50:27.000Z</time>
      </trkpt>
      <trkpt lat="46.04844" lon="4.51483">
        <ele>597</ele>
        <time>2016-11-27T09:50:28.000Z</time>
      </trkpt>
      <trkpt lat="46.04845" lon="4.51485">
        <ele>598</ele>
        <time>2016-11-27T09:50:29.000Z</time>
      </trkpt>
      <trkpt lat="46.04845" lon="4.51486">
        <ele>598</ele>
        <time>2016-11-27T09:50:30.000Z</time>
      </trkpt>
      <trkpt lat="46.04846" lon="4.51487">
        <ele>599</ele>
        <time>2016-11-27T09:50:31.000Z</time>
      </trkpt>
      <trkpt lat="46.04847" lon="4.51489">
        <ele>600</ele>
        <time>2016-11-27T09:50:32.000Z</time>
      </trkpt>
      <trkpt lat="46.04847" lon="4.5149">
        <ele>601</ele>
        <time>2016-11-27T09:50:33.000Z</time>
      </trkpt>
      <trkpt lat="46.04847" lon="4.51491">
        <ele>601</ele>
        <time>2016-11-27T09:50:34.000Z</time>
      </trkpt>
      <trkpt lat="46.04848" lon="4.51492">
        <ele>602</ele>
        <time>2016-11-27T09:50:35.000Z</time>
      </trkpt>
      <trkpt lat="46.04849" lon="4.51494">
        <ele>603</ele>
        <time>2016-11-27T09:50:36.000Z</time>
      </trkpt>
      <trkpt lat="46.0485" lon="4.51495">
        <ele>603</ele>
        <time>2016-11-27T09:50:37.000Z</time>
      </trkpt>
      <trkpt lat="46.0485" lon="4.51497">
        <ele>603</ele>
        <time>2016-11-27T09:50:38.000Z</time>
      </trkpt>
      <trkpt lat="46.04851" lon="4.51498">
        <ele>603</ele>
        <time>2016-11-27T09:50:39.000Z</time>
      </trkpt>
      <trkpt lat="46.04852" lon="4.51499">
        <ele>603</ele>
        <time>2016-11-27T09:50:40.000Z</time>
      </trkpt>
      <trkpt lat="46.04853" lon="4.51501">
        <ele>603</ele>
        <time>2016-11-27T09:50:41.000Z</time>
      </trkpt>
      <trkpt lat="46.04854" lon="4.51502">
        <ele>603</ele>
        <time>2016-11-27T09:50:42.000Z</time>
      </trkpt>
      <trkpt lat="46.04854" lon="4.51504">
        <ele>603</ele>
        <time>2016-11-27T09:50:43.000Z</time>
      </trkpt>
      <trkpt lat="46.04855" lon="4.51505">
        <ele>603</ele>
        <time>2016-11-27T09:50:44.000Z</time>
      </trkpt>
      <trkpt lat="46.04856" lon="4.51507">
        <ele>604</ele>
        <time>2016-11-27T09:50:45.000Z</time>
      </trkpt>
      <trkpt lat="46.04857" lon="4.51509">
        <ele>604</ele>
        <time>2016-11-27T09:50:46.000Z</time>
      </trkpt>
      <trkpt lat="46.04857" lon="4.5151">
        <ele>605</ele>
        <time>2016-11-27T09:50:47.000Z</time>
      </trkpt>
      <trkpt lat="46.04858" lon="4.51512">
        <ele>605</ele>
        <time>2016-11-27T09:50:48.000Z</time>
      </trkpt>
      <trkpt lat="46.04859" lon="4.51513">
        <ele>605</ele>
        <time>2016-11-27T09:50:49.000Z</time>
      </trkpt>
      <trkpt lat="46.0486" lon="4.51514">
        <ele>605</ele>
        <time>2016-11-27T09:50:50.000Z</time>
      </trkpt>
      <trkpt lat="46.04861" lon="4.51516">
        <ele>606</ele>
        <time>2016-11-27T09:50:51.000Z</time>
      </trkpt>
      <trkpt lat="46.04862" lon="4.51518">
        <ele>606</ele>
        <time>2016-11-27T09:50:52.000Z</time>
      </trkpt>
      <trkpt lat="46.04863" lon="4.5152">
        <ele>607</ele>
        <time>2016-11-27T09:50:53.000Z</time>
      </trkpt>
      <trkpt lat="46.04864" lon="4.51521">
        <ele>607</ele>
        <time>2016-11-27T09:50:54.000Z</time>
      </trkpt>
      <trkpt lat="46.04865" lon="4.51522">
        <ele>607</ele>
        <time>2016-11-27T09:50:55.000Z</time>
      </trkpt>
      <trkpt lat="46.04865" lon="4.51523">
        <ele>607</ele>
        <time>2016-11-27T09:50:56.000Z</time>
      </trkpt>
      <trkpt lat="46.04866" lon="4.51524">
        <ele>608</ele>
        <time>2016-11-27T09:50:57.000Z</time>
      </trkpt>
      <trkpt lat="46.04867" lon="4.51525">
        <ele>608</ele>
        <time>2016-11-27T09:50:58.000Z</time>
      </trkpt>
      <trkpt lat="46.04868" lon="4.51526">
        <ele>609</ele>
        <time>2016-11-27T09:50:59.000Z</time>
      </trkpt>
      <trkpt lat="46.04869" lon="4.51527">
        <ele>609</ele>
        <time>2016-11-27T09:51:00.000Z</time>
      </trkpt>
      <trkpt lat="46.04869" lon="4.51529">
        <ele>610</ele>
        <time>2016-11-27T09:51:01.000Z</time>
      </trkpt>
      <trkpt lat="46.04871" lon="4.5153">
        <ele>610</ele>
        <time>2016-11-27T09:51:02.000Z</time>
      </trkpt>
      <trkpt lat="46.04872" lon="4.51531">
        <ele>611</ele>
        <time>2016-11-27T09:51:03.000Z</time>
      </trkpt>
      <trkpt lat="46.04873" lon="4.51532">
        <ele>611</ele>
        <time>2016-11-27T09:51:04.000Z</time>
      </trkpt>
      <trkpt lat="46.04874" lon="4.51533">
        <ele>612</ele>
        <time>2016-11-27T09:51:05.000Z</time>
      </trkpt>
      <trkpt lat="46.04874" lon="4.51534">
        <ele>613</ele>
        <time>2016-11-27T09:51:06.000Z</time>
      </trkpt>
      <trkpt lat="46.04875" lon="4.51535">
        <ele>613</ele>
        <time>2016-11-27T09:51:07.000Z</time>
      </trkpt>
      <trkpt lat="46.04876" lon="4.51536">
        <ele>613</ele>
        <time>2016-11-27T09:51:08.000Z</time>
      </trkpt>
      <trkpt lat="46.04876" lon="4.51537">
        <ele>614</ele>
        <time>2016-11-27T09:51:09.000Z</time>
      </trkpt>
      <trkpt lat="46.04877" lon="4.51538">
        <ele>614</ele>
        <time>2016-11-27T09:51:10.000Z</time>
      </trkpt>
      <trkpt lat="46.04879" lon="4.51539">
        <ele>614</ele>
        <time>2016-11-27T09:51:11.000Z</time>
      </trkpt>
      <trkpt lat="46.0488" lon="4.5154">
        <ele>614</ele>
        <time>2016-11-27T09:51:12.000Z</time>
      </trkpt>
      <trkpt lat="46.04881" lon="4.51541">
        <ele>614</ele>
        <time>2016-11-27T09:51:13.000Z</time>
      </trkpt>
      <trkpt lat="46.04882" lon="4.51542">
        <ele>614</ele>
        <time>2016-11-27T09:51:14.000Z</time>
      </trkpt>
      <trkpt lat="46.04883" lon="4.51543">
        <ele>614</ele>
        <time>2016-11-27T09:51:15.000Z</time>
      </trkpt>
      <trkpt lat="46.04884" lon="4.51544">
        <ele>614</ele>
        <time>2016-11-27T09:51:16.000Z</time>
      </trkpt>
      <trkpt lat="46.04886" lon="4.51545">
        <ele>616</ele>
        <time>2016-11-27T09:51:17.000Z</time>
      </trkpt>
      <trkpt lat="46.04888" lon="4.51545">
        <ele>616</ele>
        <time>2016-11-27T09:51:18.000Z</time>
      </trkpt>
      <trkpt lat="46.04889" lon="4.51546">
        <ele>616</ele>
        <time>2016-11-27T09:51:19.000Z</time>
      </trkpt>
      <trkpt lat="46.0489" lon="4.51548">
        <ele>616</ele>
        <time>2016-11-27T09:51:20.000Z</time>
      </trkpt>
      <trkpt lat="46.04891" lon="4.51549">
        <ele>616</ele>
        <time>2016-11-27T09:51:21.000Z</time>
      </trkpt>
      <trkpt lat="46.04892" lon="4.51551">
        <ele>615</ele>
        <time>2016-11-27T09:51:22.000Z</time>
      </trkpt>
      <trkpt lat="46.04893" lon="4.51553">
        <ele>614</ele>
        <time>2016-11-27T09:51:23.000Z</time>
      </trkpt>
      <trkpt lat="46.04894" lon="4.51554">
        <ele>614</ele>
        <time>2016-11-27T09:51:24.000Z</time>
      </trkpt>
      <trkpt lat="46.04895" lon="4.51556">
        <ele>614</ele>
        <time>2016-11-27T09:51:25.000Z</time>
      </trkpt>
      <trkpt lat="46.04896" lon="4.51558">
        <ele>614</ele>
        <time>2016-11-27T09:51:26.000Z</time>
      </trkpt>
      <trkpt lat="46.04897" lon="4.51559">
        <ele>614</ele>
        <time>2016-11-27T09:51:27.000Z</time>
      </trkpt>
      <trkpt lat="46.04898" lon="4.5156">
        <ele>613</ele>
        <time>2016-11-27T09:51:28.000Z</time>
      </trkpt>
      <trkpt lat="46.04899" lon="4.51561">
        <ele>614</ele>
        <time>2016-11-27T09:51:29.000Z</time>
      </trkpt>
      <trkpt lat="46.049" lon="4.51563">
        <ele>614</ele>
        <time>2016-11-27T09:51:30.000Z</time>
      </trkpt>
      <trkpt lat="46.04901" lon="4.51564">
        <ele>613</ele>
        <time>2016-11-27T09:51:31.000Z</time>
      </trkpt>
      <trkpt lat="46.04902" lon="4.51566">
        <ele>614</ele>
        <time>2016-11-27T09:51:32.000Z</time>
      </trkpt>
      <trkpt lat="46.04903" lon="4.51567">
        <ele>614</ele>
        <time>2016-11-27T09:51:33.000Z</time>
      </trkpt>
      <trkpt lat="46.04904" lon="4.51568">
        <ele>614</ele>
        <time>2016-11-27T09:51:34.000Z</time>
      </trkpt>
      <trkpt lat="46.04905" lon="4.51569">
        <ele>614</ele>
        <time>2016-11-27T09:51:35.000Z</time>
      </trkpt>
      <trkpt lat="46.04906" lon="4.51571">
        <ele>614</ele>
        <time>2016-11-27T09:51:36.000Z</time>
      </trkpt>
      <trkpt lat="46.04907" lon="4.51572">
        <ele>614</ele>
        <time>2016-11-27T09:51:37.000Z</time>
      </trkpt>
      <trkpt lat="46.04908" lon="4.51573">
        <ele>615</ele>
        <time>2016-11-27T09:51:38.000Z</time>
      </trkpt>
      <trkpt lat="46.04909" lon="4.51574">
        <ele>615</ele>
        <time>2016-11-27T09:51:39.000Z</time>
      </trkpt>
      <trkpt lat="46.0491" lon="4.51576">
        <ele>615</ele>
        <time>2016-11-27T09:51:40.000Z</time>
      </trkpt>
      <trkpt lat="46.04911" lon="4.51577">
        <ele>615</ele>
        <time>2016-11-27T09:51:41.000Z</time>
      </trkpt>
      <trkpt lat="46.04912" lon="4.51579">
        <ele>615</ele>
        <time>2016-11-27T09:51:42.000Z</time>
      </trkpt>
      <trkpt lat="46.04913" lon="4.51581">
        <ele>615</ele>
        <time>2016-11-27T09:51:43.000Z</time>
      </trkpt>
      <trkpt lat="46.04913" lon="4.51583">
        <ele>616</ele>
        <time>2016-11-27T09:51:44.000Z</time>
      </trkpt>
      <trkpt lat="46.04915" lon="4.51585">
        <ele>616</ele>
        <time>2016-11-27T09:51:45.000Z</time>
      </trkpt>
      <trkpt lat="46.04916" lon="4.51586">
        <ele>615</ele>
        <time>2016-11-27T09:51:46.000Z</time>
      </trkpt>
      <trkpt lat="46.04916" lon="4.51588">
        <ele>615</ele>
        <time>2016-11-27T09:51:47.000Z</time>
      </trkpt>
      <trkpt lat="46.04917" lon="4.51589">
        <ele>616</ele>
        <time>2016-11-27T09:51:48.000Z</time>
      </trkpt>
      <trkpt lat="46.04918" lon="4.51591">
        <ele>616</ele>
        <time>2016-11-27T09:51:49.000Z</time>
      </trkpt>
      <trkpt lat="46.04919" lon="4.51592">
        <ele>616</ele>
        <time>2016-11-27T09:51:50.000Z</time>
      </trkpt>
      <trkpt lat="46.0492" lon="4.51593">
        <ele>616</ele>
        <time>2016-11-27T09:51:51.000Z</time>
      </trkpt>
      <trkpt lat="46.0492" lon="4.51595">
        <ele>616</ele>
        <time>2016-11-27T09:51:52.000Z</time>
      </trkpt>
      <trkpt lat="46.04921" lon="4.51597">
        <ele>616</ele>
        <time>2016-11-27T09:51:53.000Z</time>
      </trkpt>
      <trkpt lat="46.04922" lon="4.51598">
        <ele>616</ele>
        <time>2016-11-27T09:51:54.000Z</time>
      </trkpt>
      <trkpt lat="46.04923" lon="4.516">
        <ele>616</ele>
        <time>2016-11-27T09:51:55.000Z</time>
      </trkpt>
      <trkpt lat="46.04924" lon="4.51602">
        <ele>617</ele>
        <time>2016-11-27T09:51:56.000Z</time>
      </trkpt>
      <trkpt lat="46.04924" lon="4.51604">
        <ele>616</ele>
        <time>2016-11-27T09:51:57.000Z</time>
      </trkpt>
      <trkpt lat="46.04925" lon="4.51606">
        <ele>617</ele>
        <time>2016-11-27T09:51:58.000Z</time>
      </trkpt>
      <trkpt lat="46.04925" lon="4.51608">
        <ele>618</ele>
        <time>2016-11-27T09:51:59.000Z</time>
      </trkpt>
      <trkpt lat="46.04927" lon="4.51609">
        <ele>619</ele>
        <time>2016-11-27T09:52:00.000Z</time>
      </trkpt>
      <trkpt lat="46.04928" lon="4.51611">
        <ele>620</ele>
        <time>2016-11-27T09:52:01.000Z</time>
      </trkpt>
      <trkpt lat="46.04928" lon="4.51612">
        <ele>621</ele>
        <time>2016-11-27T09:52:02.000Z</time>
      </trkpt>
      <trkpt lat="46.04928" lon="4.51614">
        <ele>621</ele>
        <time>2016-11-27T09:52:03.000Z</time>
      </trkpt>
      <trkpt lat="46.04929" lon="4.51616">
        <ele>621</ele>
        <time>2016-11-27T09:52:04.000Z</time>
      </trkpt>
      <trkpt lat="46.04929" lon="4.51618">
        <ele>622</ele>
        <time>2016-11-27T09:52:05.000Z</time>
      </trkpt>
      <trkpt lat="46.0493" lon="4.5162">
        <ele>623</ele>
        <time>2016-11-27T09:52:06.000Z</time>
      </trkpt>
      <trkpt lat="46.0493" lon="4.51622">
        <ele>623</ele>
        <time>2016-11-27T09:52:07.000Z</time>
      </trkpt>
      <trkpt lat="46.0493" lon="4.51624">
        <ele>623</ele>
        <time>2016-11-27T09:52:08.000Z</time>
      </trkpt>
      <trkpt lat="46.0493" lon="4.51626">
        <ele>623</ele>
        <time>2016-11-27T09:52:09.000Z</time>
      </trkpt>
      <trkpt lat="46.04931" lon="4.51628">
        <ele>624</ele>
        <time>2016-11-27T09:52:10.000Z</time>
      </trkpt>
      <trkpt lat="46.04931" lon="4.5163">
        <ele>624</ele>
        <time>2016-11-27T09:52:11.000Z</time>
      </trkpt>
      <trkpt lat="46.04931" lon="4.51631">
        <ele>625</ele>
        <time>2016-11-27T09:52:12.000Z</time>
      </trkpt>
      <trkpt lat="46.04931" lon="4.51633">
        <ele>625</ele>
        <time>2016-11-27T09:52:13.000Z</time>
      </trkpt>
      <trkpt lat="46.04931" lon="4.51634">
        <ele>624</ele>
        <time>2016-11-27T09:52:14.000Z</time>
      </trkpt>
      <trkpt lat="46.04931" lon="4.51635">
        <ele>625</ele>
        <time>2016-11-27T09:52:15.000Z</time>
      </trkpt>
      <trkpt lat="46.04932" lon="4.51636">
        <ele>625</ele>
        <time>2016-11-27T09:52:16.000Z</time>
      </trkpt>
      <trkpt lat="46.04931" lon="4.51638">
        <ele>625</ele>
        <time>2016-11-27T09:52:17.000Z</time>
      </trkpt>
      <trkpt lat="46.04931" lon="4.51639">
        <ele>625</ele>
        <time>2016-11-27T09:52:18.000Z</time>
      </trkpt>
      <trkpt lat="46.04929" lon="4.51641">
        <ele>625</ele>
        <time>2016-11-27T09:52:19.000Z</time>
      </trkpt>
      <trkpt lat="46.04928" lon="4.51643">
        <ele>627</ele>
        <time>2016-11-27T09:52:20.000Z</time>
      </trkpt>
      <trkpt lat="46.04928" lon="4.51644">
        <ele>628</ele>
        <time>2016-11-27T09:52:21.000Z</time>
      </trkpt>
      <trkpt lat="46.04928" lon="4.51646">
        <ele>628</ele>
        <time>2016-11-27T09:52:22.000Z</time>
      </trkpt>
      <trkpt lat="46.04928" lon="4.51648">
        <ele>629</ele>
        <time>2016-11-27T09:52:23.000Z</time>
      </trkpt>
      <trkpt lat="46.04928" lon="4.5165">
        <ele>629</ele>
        <time>2016-11-27T09:52:24.000Z</time>
      </trkpt>
      <trkpt lat="46.04928" lon="4.51653">
        <ele>630</ele>
        <time>2016-11-27T09:52:25.000Z</time>
      </trkpt>
      <trkpt lat="46.04927" lon="4.51655">
        <ele>630</ele>
        <time>2016-11-27T09:52:26.000Z</time>
      </trkpt>
      <trkpt lat="46.04927" lon="4.51657">
        <ele>629</ele>
        <time>2016-11-27T09:52:27.000Z</time>
      </trkpt>
      <trkpt lat="46.04927" lon="4.5166">
        <ele>629</ele>
        <time>2016-11-27T09:52:28.000Z</time>
      </trkpt>
      <trkpt lat="46.04926" lon="4.51662">
        <ele>629</ele>
        <time>2016-11-27T09:52:29.000Z</time>
      </trkpt>
      <trkpt lat="46.04926" lon="4.51665">
        <ele>629</ele>
        <time>2016-11-27T09:52:30.000Z</time>
      </trkpt>
      <trkpt lat="46.04925" lon="4.51667">
        <ele>629</ele>
        <time>2016-11-27T09:52:31.000Z</time>
      </trkpt>
      <trkpt lat="46.04924" lon="4.5167">
        <ele>630</ele>
        <time>2016-11-27T09:52:32.000Z</time>
      </trkpt>
      <trkpt lat="46.04924" lon="4.51672">
        <ele>630</ele>
        <time>2016-11-27T09:52:33.000Z</time>
      </trkpt>
      <trkpt lat="46.04923" lon="4.51674">
        <ele>630</ele>
        <time>2016-11-27T09:52:34.000Z</time>
      </trkpt>
      <trkpt lat="46.04923" lon="4.51676">
        <ele>630</ele>
        <time>2016-11-27T09:52:35.000Z</time>
      </trkpt>
      <trkpt lat="46.04922" lon="4.51678">
        <ele>631</ele>
        <time>2016-11-27T09:52:36.000Z</time>
      </trkpt>
      <trkpt lat="46.04922" lon="4.5168">
        <ele>632</ele>
        <time>2016-11-27T09:52:37.000Z</time>
      </trkpt>
      <trkpt lat="46.04921" lon="4.51682">
        <ele>632</ele>
        <time>2016-11-27T09:52:38.000Z</time>
      </trkpt>
      <trkpt lat="46.04921" lon="4.51684">
        <ele>633</ele>
        <time>2016-11-27T09:52:39.000Z</time>
      </trkpt>
      <trkpt lat="46.0492" lon="4.51686">
        <ele>633</ele>
        <time>2016-11-27T09:52:40.000Z</time>
      </trkpt>
      <trkpt lat="46.04919" lon="4.51688">
        <ele>633</ele>
        <time>2016-11-27T09:52:41.000Z</time>
      </trkpt>
      <trkpt lat="46.04919" lon="4.51689">
        <ele>633</ele>
        <time>2016-11-27T09:52:42.000Z</time>
      </trkpt>
      <trkpt lat="46.04918" lon="4.51691">
        <ele>633</ele>
        <time>2016-11-27T09:52:43.000Z</time>
      </trkpt>
      <trkpt lat="46.04918" lon="4.51693">
        <ele>634</ele>
        <time>2016-11-27T09:52:44.000Z</time>
      </trkpt>
      <trkpt lat="46.04917" lon="4.51694">
        <ele>634</ele>
        <time>2016-11-27T09:52:45.000Z</time>
      </trkpt>
      <trkpt lat="46.04917" lon="4.51695">
        <ele>635</ele>
        <time>2016-11-27T09:52:46.000Z</time>
      </trkpt>
      <trkpt lat="46.04916" lon="4.51697">
        <ele>634</ele>
        <time>2016-11-27T09:52:47.000Z</time>
      </trkpt>
      <trkpt lat="46.04915" lon="4.51698">
        <ele>634</ele>
        <time>2016-11-27T09:52:48.000Z</time>
      </trkpt>
      <trkpt lat="46.04914" lon="4.517">
        <ele>634</ele>
        <time>2016-11-27T09:52:49.000Z</time>
      </trkpt>
      <trkpt lat="46.04913" lon="4.51701">
        <ele>634</ele>
        <time>2016-11-27T09:52:50.000Z</time>
      </trkpt>
      <trkpt lat="46.04912" lon="4.51703">
        <ele>634</ele>
        <time>2016-11-27T09:52:51.000Z</time>
      </trkpt>
      <trkpt lat="46.04911" lon="4.51705">
        <ele>633</ele>
        <time>2016-11-27T09:52:52.000Z</time>
      </trkpt>
      <trkpt lat="46.0491" lon="4.51706">
        <ele>633</ele>
        <time>2016-11-27T09:52:53.000Z</time>
      </trkpt>
      <trkpt lat="46.04909" lon="4.51708">
        <ele>634</ele>
        <time>2016-11-27T09:52:54.000Z</time>
      </trkpt>
      <trkpt lat="46.04908" lon="4.51709">
        <ele>634</ele>
        <time>2016-11-27T09:52:55.000Z</time>
      </trkpt>
      <trkpt lat="46.04908" lon="4.5171">
        <ele>635</ele>
        <time>2016-11-27T09:52:56.000Z</time>
      </trkpt>
      <trkpt lat="46.04907" lon="4.51711">
        <ele>635</ele>
        <time>2016-11-27T09:52:57.000Z</time>
      </trkpt>
      <trkpt lat="46.04907" lon="4.51712">
        <ele>636</ele>
        <time>2016-11-27T09:52:58.000Z</time>
      </trkpt>
      <trkpt lat="46.04906" lon="4.51713">
        <ele>636</ele>
        <time>2016-11-27T09:52:59.000Z</time>
      </trkpt>
      <trkpt lat="46.04905" lon="4.51714">
        <ele>636</ele>
        <time>2016-11-27T09:53:00.000Z</time>
      </trkpt>
      <trkpt lat="46.04905" lon="4.51716">
        <ele>636</ele>
        <time>2016-11-27T09:53:01.000Z</time>
      </trkpt>
      <trkpt lat="46.04904" lon="4.51717">
        <ele>637</ele>
        <time>2016-11-27T09:53:02.000Z</time>
      </trkpt>
      <trkpt lat="46.04903" lon="4.51718">
        <ele>638</ele>
        <time>2016-11-27T09:53:03.000Z</time>
      </trkpt>
      <trkpt lat="46.04902" lon="4.51719">
        <ele>638</ele>
        <time>2016-11-27T09:53:04.000Z</time>
      </trkpt>
      <trkpt lat="46.04901" lon="4.51721">
        <ele>639</ele>
        <time>2016-11-27T09:53:05.000Z</time>
      </trkpt>
      <trkpt lat="46.049" lon="4.51723">
        <ele>639</ele>
        <time>2016-11-27T09:53:06.000Z</time>
      </trkpt>
      <trkpt lat="46.04899" lon="4.51724">
        <ele>639</ele>
        <time>2016-11-27T09:53:07.000Z</time>
      </trkpt>
      <trkpt lat="46.04897" lon="4.51725">
        <ele>640</ele>
        <time>2016-11-27T09:53:08.000Z</time>
      </trkpt>
      <trkpt lat="46.04896" lon="4.51726">
        <ele>641</ele>
        <time>2016-11-27T09:53:09.000Z</time>
      </trkpt>
      <trkpt lat="46.04895" lon="4.51727">
        <ele>641</ele>
        <time>2016-11-27T09:53:10.000Z</time>
      </trkpt>
      <trkpt lat="46.04893" lon="4.51728">
        <ele>642</ele>
        <time>2016-11-27T09:53:11.000Z</time>
      </trkpt>
      <trkpt lat="46.04892" lon="4.51729">
        <ele>642</ele>
        <time>2016-11-27T09:53:12.000Z</time>
      </trkpt>
      <trkpt lat="46.04891" lon="4.5173">
        <ele>643</ele>
        <time>2016-11-27T09:53:13.000Z</time>
      </trkpt>
      <trkpt lat="46.0489" lon="4.51731">
        <ele>643</ele>
        <time>2016-11-27T09:53:14.000Z</time>
      </trkpt>
      <trkpt lat="46.04889" lon="4.51732">
        <ele>643</ele>
        <time>2016-11-27T09:53:15.000Z</time>
      </trkpt>
      <trkpt lat="46.04888" lon="4.51733">
        <ele>643</ele>
        <time>2016-11-27T09:53:16.000Z</time>
      </trkpt>
      <trkpt lat="46.04887" lon="4.51734">
        <ele>643</ele>
        <time>2016-11-27T09:53:17.000Z</time>
      </trkpt>
      <trkpt lat="46.04886" lon="4.51736">
        <ele>644</ele>
        <time>2016-11-27T09:53:18.000Z</time>
      </trkpt>
      <trkpt lat="46.04884" lon="4.51737">
        <ele>644</ele>
        <time>2016-11-27T09:53:19.000Z</time>
      </trkpt>
      <trkpt lat="46.04883" lon="4.51738">
        <ele>644</ele>
        <time>2016-11-27T09:53:20.000Z</time>
      </trkpt>
      <trkpt lat="46.04882" lon="4.51739">
        <ele>645</ele>
        <time>2016-11-27T09:53:21.000Z</time>
      </trkpt>
      <trkpt lat="46.04882" lon="4.5174">
        <ele>644</ele>
        <time>2016-11-27T09:53:22.000Z</time>
      </trkpt>
      <trkpt lat="46.04881" lon="4.51741">
        <ele>645</ele>
        <time>2016-11-27T09:53:23.000Z</time>
      </trkpt>
      <trkpt lat="46.0488" lon="4.51743">
        <ele>645</ele>
        <time>2016-11-27T09:53:24.000Z</time>
      </trkpt>
      <trkpt lat="46.04879" lon="4.51744">
        <ele>646</ele>
        <time>2016-11-27T09:53:25.000Z</time>
      </trkpt>
      <trkpt lat="46.04878" lon="4.51745">
        <ele>646</ele>
        <time>2016-11-27T09:53:26.000Z</time>
      </trkpt>
      <trkpt lat="46.04878" lon="4.51747">
        <ele>645</ele>
        <time>2016-11-27T09:53:27.000Z</time>
      </trkpt>
      <trkpt lat="46.04877" lon="4.51749">
        <ele>645</ele>
        <time>2016-11-27T09:53:28.000Z</time>
      </trkpt>
      <trkpt lat="46.04876" lon="4.51751">
        <ele>645</ele>
        <time>2016-11-27T09:53:29.000Z</time>
      </trkpt>
      <trkpt lat="46.04876" lon="4.51753">
        <ele>645</ele>
        <time>2016-11-27T09:53:30.000Z</time>
      </trkpt>
      <trkpt lat="46.04875" lon="4.51755">
        <ele>645</ele>
        <time>2016-11-27T09:53:31.000Z</time>
      </trkpt>
      <trkpt lat="46.04874" lon="4.51757">
        <ele>646</ele>
        <time>2016-11-27T09:53:32.000Z</time>
      </trkpt>
      <trkpt lat="46.04873" lon="4.51759">
        <ele>646</ele>
        <time>2016-11-27T09:53:33.000Z</time>
      </trkpt>
      <trkpt lat="46.04872" lon="4.51762">
        <ele>648</ele>
        <time>2016-11-27T09:53:34.000Z</time>
      </trkpt>
      <trkpt lat="46.04872" lon="4.51764">
        <ele>648</ele>
        <time>2016-11-27T09:53:35.000Z</time>
      </trkpt>
      <trkpt lat="46.04871" lon="4.51765">
        <ele>648</ele>
        <time>2016-11-27T09:53:36.000Z</time>
      </trkpt>
      <trkpt lat="46.04871" lon="4.51767">
        <ele>648</ele>
        <time>2016-11-27T09:53:37.000Z</time>
      </trkpt>
      <trkpt lat="46.0487" lon="4.51768">
        <ele>649</ele>
        <time>2016-11-27T09:53:38.000Z</time>
      </trkpt>
      <trkpt lat="46.0487" lon="4.5177">
        <ele>649</ele>
        <time>2016-11-27T09:53:39.000Z</time>
      </trkpt>
      <trkpt lat="46.04869" lon="4.51771">
        <ele>649</ele>
        <time>2016-11-27T09:53:40.000Z</time>
      </trkpt>
      <trkpt lat="46.04869" lon="4.51773">
        <ele>649</ele>
        <time>2016-11-27T09:53:41.000Z</time>
      </trkpt>
      <trkpt lat="46.04868" lon="4.51774">
        <ele>649</ele>
        <time>2016-11-27T09:53:42.000Z</time>
      </trkpt>
      <trkpt lat="46.04867" lon="4.51775">
        <ele>648</ele>
        <time>2016-11-27T09:53:43.000Z</time>
      </trkpt>
      <trkpt lat="46.04867" lon="4.51776">
        <ele>649</ele>
        <time>2016-11-27T09:53:44.000Z</time>
      </trkpt>
      <trkpt lat="46.04867" lon="4.51778">
        <ele>650</ele>
        <time>2016-11-27T09:53:45.000Z</time>
      </trkpt>
      <trkpt lat="46.04867" lon="4.51779">
        <ele>649</ele>
        <time>2016-11-27T09:53:46.000Z</time>
      </trkpt>
      <trkpt lat="46.04866" lon="4.51781">
        <ele>649</ele>
        <time>2016-11-27T09:53:47.000Z</time>
      </trkpt>
      <trkpt lat="46.04865" lon="4.51783">
        <ele>650</ele>
        <time>2016-11-27T09:53:48.000Z</time>
      </trkpt>
      <trkpt lat="46.04864" lon="4.51785">
        <ele>649</ele>
        <time>2016-11-27T09:53:49.000Z</time>
      </trkpt>
      <trkpt lat="46.04864" lon="4.51787">
        <ele>650</ele>
        <time>2016-11-27T09:53:50.000Z</time>
      </trkpt>
      <trkpt lat="46.04863" lon="4.51789">
        <ele>650</ele>
        <time>2016-11-27T09:53:51.000Z</time>
      </trkpt>
      <trkpt lat="46.04863" lon="4.5179">
        <ele>650</ele>
        <time>2016-11-27T09:53:52.000Z</time>
      </trkpt>
      <trkpt lat="46.04862" lon="4.51792">
        <ele>651</ele>
        <time>2016-11-27T09:53:53.000Z</time>
      </trkpt>
      <trkpt lat="46.04862" lon="4.51793">
        <ele>651</ele>
        <time>2016-11-27T09:53:54.000Z</time>
      </trkpt>
      <trkpt lat="46.04861" lon="4.51794">
        <ele>651</ele>
        <time>2016-11-27T09:53:55.000Z</time>
      </trkpt>
      <trkpt lat="46.04861" lon="4.51796">
        <ele>651</ele>
        <time>2016-11-27T09:53:56.000Z</time>
      </trkpt>
      <trkpt lat="46.04861" lon="4.51797">
        <ele>651</ele>
        <time>2016-11-27T09:53:57.000Z</time>
      </trkpt>
      <trkpt lat="46.0486" lon="4.51799">
        <ele>652</ele>
        <time>2016-11-27T09:53:58.000Z</time>
      </trkpt>
      <trkpt lat="46.0486" lon="4.51801">
        <ele>652</ele>
        <time>2016-11-27T09:53:59.000Z</time>
      </trkpt>
      <trkpt lat="46.0486" lon="4.51803">
        <ele>652</ele>
        <time>2016-11-27T09:54:00.000Z</time>
      </trkpt>
      <trkpt lat="46.0486" lon="4.51804">
        <ele>652</ele>
        <time>2016-11-27T09:54:01.000Z</time>
      </trkpt>
      <trkpt lat="46.04859" lon="4.51806">
        <ele>652</ele>
        <time>2016-11-27T09:54:02.000Z</time>
      </trkpt>
      <trkpt lat="46.04859" lon="4.51808">
        <ele>653</ele>
        <time>2016-11-27T09:54:03.000Z</time>
      </trkpt>
      <trkpt lat="46.04858" lon="4.51809">
        <ele>655</ele>
        <time>2016-11-27T09:54:04.000Z</time>
      </trkpt>
      <trkpt lat="46.04858" lon="4.5181">
        <ele>655</ele>
        <time>2016-11-27T09:54:05.000Z</time>
      </trkpt>
      <trkpt lat="46.04857" lon="4.51812">
        <ele>654</ele>
        <time>2016-11-27T09:54:06.000Z</time>
      </trkpt>
      <trkpt lat="46.04856" lon="4.51814">
        <ele>654</ele>
        <time>2016-11-27T09:54:07.000Z</time>
      </trkpt>
      <trkpt lat="46.04855" lon="4.51817">
        <ele>654</ele>
        <time>2016-11-27T09:54:08.000Z</time>
      </trkpt>
      <trkpt lat="46.04854" lon="4.51819">
        <ele>655</ele>
        <time>2016-11-27T09:54:09.000Z</time>
      </trkpt>
      <trkpt lat="46.04853" lon="4.51821">
        <ele>655</ele>
        <time>2016-11-27T09:54:10.000Z</time>
      </trkpt>
      <trkpt lat="46.04853" lon="4.51822">
        <ele>655</ele>
        <time>2016-11-27T09:54:11.000Z</time>
      </trkpt>
      <trkpt lat="46.04852" lon="4.51825">
        <ele>654</ele>
        <time>2016-11-27T09:54:12.000Z</time>
      </trkpt>
      <trkpt lat="46.04852" lon="4.51827">
        <ele>654</ele>
        <time>2016-11-27T09:54:13.000Z</time>
      </trkpt>
      <trkpt lat="46.04851" lon="4.5183">
        <ele>655</ele>
        <time>2016-11-27T09:54:14.000Z</time>
      </trkpt>
      <trkpt lat="46.0485" lon="4.51833">
        <ele>655</ele>
        <time>2016-11-27T09:54:15.000Z</time>
      </trkpt>
      <trkpt lat="46.04849" lon="4.51836">
        <ele>654</ele>
        <time>2016-11-27T09:54:16.000Z</time>
      </trkpt>
      <trkpt lat="46.04848" lon="4.51839">
        <ele>654</ele>
        <time>2016-11-27T09:54:17.000Z</time>
      </trkpt>
      <trkpt lat="46.04847" lon="4.51842">
        <ele>654</ele>
        <time>2016-11-27T09:54:18.000Z</time>
      </trkpt>
      <trkpt lat="46.04846" lon="4.51845">
        <ele>653</ele>
        <time>2016-11-27T09:54:19.000Z</time>
      </trkpt>
      <trkpt lat="46.04845" lon="4.51849">
        <ele>652</ele>
        <time>2016-11-27T09:54:20.000Z</time>
      </trkpt>
      <trkpt lat="46.04844" lon="4.51852">
        <ele>651</ele>
        <time>2016-11-27T09:54:21.000Z</time>
      </trkpt>
      <trkpt lat="46.04843" lon="4.51856">
        <ele>650</ele>
        <time>2016-11-27T09:54:22.000Z</time>
      </trkpt>
      <trkpt lat="46.04841" lon="4.51859">
        <ele>650</ele>
        <time>2016-11-27T09:54:23.000Z</time>
      </trkpt>
      <trkpt lat="46.0484" lon="4.51862">
        <ele>649</ele>
        <time>2016-11-27T09:54:24.000Z</time>
      </trkpt>
      <trkpt lat="46.04839" lon="4.51866">
        <ele>649</ele>
        <time>2016-11-27T09:54:25.000Z</time>
      </trkpt>
      <trkpt lat="46.04838" lon="4.5187">
        <ele>648</ele>
        <time>2016-11-27T09:54:26.000Z</time>
      </trkpt>
      <trkpt lat="46.04836" lon="4.51873">
        <ele>647</ele>
        <time>2016-11-27T09:54:27.000Z</time>
      </trkpt>
      <trkpt lat="46.04834" lon="4.51877">
        <ele>644</ele>
        <time>2016-11-27T09:54:28.000Z</time>
      </trkpt>
      <trkpt lat="46.04832" lon="4.5188">
        <ele>643</ele>
        <time>2016-11-27T09:54:29.000Z</time>
      </trkpt>
      <trkpt lat="46.0483" lon="4.51884">
        <ele>642</ele>
        <time>2016-11-27T09:54:30.000Z</time>
      </trkpt>
      <trkpt lat="46.04827" lon="4.51888">
        <ele>642</ele>
        <time>2016-11-27T09:54:31.000Z</time>
      </trkpt>
      <trkpt lat="46.04826" lon="4.51892">
        <ele>642</ele>
        <time>2016-11-27T09:54:32.000Z</time>
      </trkpt>
      <trkpt lat="46.04824" lon="4.51896">
        <ele>641</ele>
        <time>2016-11-27T09:54:33.000Z</time>
      </trkpt>
      <trkpt lat="46.04822" lon="4.51901">
        <ele>640</ele>
        <time>2016-11-27T09:54:34.000Z</time>
      </trkpt>
      <trkpt lat="46.0482" lon="4.51906">
        <ele>639</ele>
        <time>2016-11-27T09:54:35.000Z</time>
      </trkpt>
      <trkpt lat="46.04818" lon="4.51911">
        <ele>639</ele>
        <time>2016-11-27T09:54:36.000Z</time>
      </trkpt>
      <trkpt lat="46.04817" lon="4.51915">
        <ele>638</ele>
        <time>2016-11-27T09:54:37.000Z</time>
      </trkpt>
      <trkpt lat="46.04815" lon="4.5192">
        <ele>638</ele>
        <time>2016-11-27T09:54:38.000Z</time>
      </trkpt>
      <trkpt lat="46.04814" lon="4.51925">
        <ele>638</ele>
        <time>2016-11-27T09:54:39.000Z</time>
      </trkpt>
      <trkpt lat="46.04813" lon="4.5193">
        <ele>637</ele>
        <time>2016-11-27T09:54:40.000Z</time>
      </trkpt>
      <trkpt lat="46.04812" lon="4.51934">
        <ele>636</ele>
        <time>2016-11-27T09:54:41.000Z</time>
      </trkpt>
      <trkpt lat="46.0481" lon="4.51939">
        <ele>634</ele>
        <time>2016-11-27T09:54:42.000Z</time>
      </trkpt>
      <trkpt lat="46.04809" lon="4.51944">
        <ele>633</ele>
        <time>2016-11-27T09:54:43.000Z</time>
      </trkpt>
      <trkpt lat="46.04808" lon="4.51949">
        <ele>633</ele>
        <time>2016-11-27T09:54:44.000Z</time>
      </trkpt>
      <trkpt lat="46.04807" lon="4.51954">
        <ele>633</ele>
        <time>2016-11-27T09:54:45.000Z</time>
      </trkpt>
      <trkpt lat="46.04807" lon="4.51958">
        <ele>634</ele>
        <time>2016-11-27T09:54:46.000Z</time>
      </trkpt>
      <trkpt lat="46.04807" lon="4.51962">
        <ele>635</ele>
        <time>2016-11-27T09:54:47.000Z</time>
      </trkpt>
      <trkpt lat="46.04807" lon="4.51966">
        <ele>635</ele>
        <time>2016-11-27T09:54:48.000Z</time>
      </trkpt>
      <trkpt lat="46.04806" lon="4.51971">
        <ele>635</ele>
        <time>2016-11-27T09:54:49.000Z</time>
      </trkpt>
      <trkpt lat="46.04806" lon="4.51976">
        <ele>635</ele>
        <time>2016-11-27T09:54:50.000Z</time>
      </trkpt>
      <trkpt lat="46.04806" lon="4.51981">
        <ele>635</ele>
        <time>2016-11-27T09:54:51.000Z</time>
      </trkpt>
      <trkpt lat="46.04805" lon="4.51986">
        <ele>635</ele>
        <time>2016-11-27T09:54:52.000Z</time>
      </trkpt>
      <trkpt lat="46.04805" lon="4.51991">
        <ele>637</ele>
        <time>2016-11-27T09:54:53.000Z</time>
      </trkpt>
      <trkpt lat="46.04804" lon="4.51996">
        <ele>637</ele>
        <time>2016-11-27T09:54:54.000Z</time>
      </trkpt>
      <trkpt lat="46.04804" lon="4.52">
        <ele>637</ele>
        <time>2016-11-27T09:54:55.000Z</time>
      </trkpt>
      <trkpt lat="46.04803" lon="4.52004">
        <ele>638</ele>
        <time>2016-11-27T09:54:56.000Z</time>
      </trkpt>
      <trkpt lat="46.04803" lon="4.52008">
        <ele>640</ele>
        <time>2016-11-27T09:54:57.000Z</time>
      </trkpt>
      <trkpt lat="46.04802" lon="4.52012">
        <ele>641</ele>
        <time>2016-11-27T09:54:58.000Z</time>
      </trkpt>
      <trkpt lat="46.04802" lon="4.52016">
        <ele>642</ele>
        <time>2016-11-27T09:54:59.000Z</time>
      </trkpt>
      <trkpt lat="46.04802" lon="4.5202">
        <ele>643</ele>
        <time>2016-11-27T09:55:00.000Z</time>
      </trkpt>
      <trkpt lat="46.04802" lon="4.52024">
        <ele>644</ele>
        <time>2016-11-27T09:55:01.000Z</time>
      </trkpt>
      <trkpt lat="46.04802" lon="4.52028">
        <ele>645</ele>
        <time>2016-11-27T09:55:02.000Z</time>
      </trkpt>
      <trkpt lat="46.04802" lon="4.52031">
        <ele>646</ele>
        <time>2016-11-27T09:55:03.000Z</time>
      </trkpt>
      <trkpt lat="46.04802" lon="4.52034">
        <ele>647</ele>
        <time>2016-11-27T09:55:04.000Z</time>
      </trkpt>
      <trkpt lat="46.04801" lon="4.52037">
        <ele>648</ele>
        <time>2016-11-27T09:55:05.000Z</time>
      </trkpt>
      <trkpt lat="46.04801" lon="4.5204">
        <ele>649</ele>
        <time>2016-11-27T09:55:06.000Z</time>
      </trkpt>
      <trkpt lat="46.04801" lon="4.52043">
        <ele>650</ele>
        <time>2016-11-27T09:55:07.000Z</time>
      </trkpt>
      <trkpt lat="46.048" lon="4.52046">
        <ele>649</ele>
        <time>2016-11-27T09:55:08.000Z</time>
      </trkpt>
      <trkpt lat="46.048" lon="4.52049">
        <ele>649</ele>
        <time>2016-11-27T09:55:09.000Z</time>
      </trkpt>
      <trkpt lat="46.04799" lon="4.52052">
        <ele>648</ele>
        <time>2016-11-27T09:55:10.000Z</time>
      </trkpt>
      <trkpt lat="46.04798" lon="4.52055">
        <ele>648</ele>
        <time>2016-11-27T09:55:11.000Z</time>
      </trkpt>
      <trkpt lat="46.04796" lon="4.52058">
        <ele>648</ele>
        <time>2016-11-27T09:55:12.000Z</time>
      </trkpt>
      <trkpt lat="46.04795" lon="4.52061">
        <ele>646</ele>
        <time>2016-11-27T09:55:13.000Z</time>
      </trkpt>
      <trkpt lat="46.04793" lon="4.52064">
        <ele>645</ele>
        <time>2016-11-27T09:55:14.000Z</time>
      </trkpt>
      <trkpt lat="46.04792" lon="4.52067">
        <ele>645</ele>
        <time>2016-11-27T09:55:15.000Z</time>
      </trkpt>
      <trkpt lat="46.0479" lon="4.5207">
        <ele>644</ele>
        <time>2016-11-27T09:55:16.000Z</time>
      </trkpt>
      <trkpt lat="46.04788" lon="4.52072">
        <ele>644</ele>
        <time>2016-11-27T09:55:17.000Z</time>
      </trkpt>
      <trkpt lat="46.04787" lon="4.52075">
        <ele>642</ele>
        <time>2016-11-27T09:55:18.000Z</time>
      </trkpt>
      <trkpt lat="46.04785" lon="4.52078">
        <ele>642</ele>
        <time>2016-11-27T09:55:19.000Z</time>
      </trkpt>
      <trkpt lat="46.04783" lon="4.5208">
        <ele>641</ele>
        <time>2016-11-27T09:55:20.000Z</time>
      </trkpt>
      <trkpt lat="46.04781" lon="4.52083">
        <ele>639</ele>
        <time>2016-11-27T09:55:21.000Z</time>
      </trkpt>
      <trkpt lat="46.04779" lon="4.52086">
        <ele>638</ele>
        <time>2016-11-27T09:55:22.000Z</time>
      </trkpt>
      <trkpt lat="46.04777" lon="4.52089">
        <ele>638</ele>
        <time>2016-11-27T09:55:23.000Z</time>
      </trkpt>
      <trkpt lat="46.04775" lon="4.52092">
        <ele>638</ele>
        <time>2016-11-27T09:55:24.000Z</time>
      </trkpt>
      <trkpt lat="46.04773" lon="4.52095">
        <ele>639</ele>
        <time>2016-11-27T09:55:25.000Z</time>
      </trkpt>
      <trkpt lat="46.04772" lon="4.52098">
        <ele>638</ele>
        <time>2016-11-27T09:55:26.000Z</time>
      </trkpt>
      <trkpt lat="46.0477" lon="4.52102">
        <ele>639</ele>
        <time>2016-11-27T09:55:27.000Z</time>
      </trkpt>
      <trkpt lat="46.0477" lon="4.52105">
        <ele>640</ele>
        <time>2016-11-27T09:55:28.000Z</time>
      </trkpt>
      <trkpt lat="46.04769" lon="4.52109">
        <ele>641</ele>
        <time>2016-11-27T09:55:29.000Z</time>
      </trkpt>
      <trkpt lat="46.04769" lon="4.52112">
        <ele>641</ele>
        <time>2016-11-27T09:55:30.000Z</time>
      </trkpt>
      <trkpt lat="46.04768" lon="4.52115">
        <ele>641</ele>
        <time>2016-11-27T09:55:31.000Z</time>
      </trkpt>
      <trkpt lat="46.04768" lon="4.52117">
        <ele>642</ele>
        <time>2016-11-27T09:55:32.000Z</time>
      </trkpt>
      <trkpt lat="46.04768" lon="4.5212">
        <ele>645</ele>
        <time>2016-11-27T09:55:33.000Z</time>
      </trkpt>
      <trkpt lat="46.04769" lon="4.52122">
        <ele>645</ele>
        <time>2016-11-27T09:55:34.000Z</time>
      </trkpt>
      <trkpt lat="46.04769" lon="4.52124">
        <ele>645</ele>
        <time>2016-11-27T09:55:35.000Z</time>
      </trkpt>
      <trkpt lat="46.04769" lon="4.52126">
        <ele>646</ele>
        <time>2016-11-27T09:55:36.000Z</time>
      </trkpt>
      <trkpt lat="46.04769" lon="4.52128">
        <ele>647</ele>
        <time>2016-11-27T09:55:37.000Z</time>
      </trkpt>
      <trkpt lat="46.04769" lon="4.5213">
        <ele>649</ele>
        <time>2016-11-27T09:55:38.000Z</time>
      </trkpt>
      <trkpt lat="46.04769" lon="4.52132">
        <ele>649</ele>
        <time>2016-11-27T09:55:39.000Z</time>
      </trkpt>
      <trkpt lat="46.04769" lon="4.52134">
        <ele>650</ele>
        <time>2016-11-27T09:55:40.000Z</time>
      </trkpt>
      <trkpt lat="46.0477" lon="4.52136">
        <ele>651</ele>
        <time>2016-11-27T09:55:41.000Z</time>
      </trkpt>
      <trkpt lat="46.0477" lon="4.52138">
        <ele>652</ele>
        <time>2016-11-27T09:55:42.000Z</time>
      </trkpt>
      <trkpt lat="46.04771" lon="4.52139">
        <ele>652</ele>
        <time>2016-11-27T09:55:43.000Z</time>
      </trkpt>
      <trkpt lat="46.04771" lon="4.5214">
        <ele>653</ele>
        <time>2016-11-27T09:55:44.000Z</time>
      </trkpt>
      <trkpt lat="46.04771" lon="4.52142">
        <ele>653</ele>
        <time>2016-11-27T09:55:45.000Z</time>
      </trkpt>
      <trkpt lat="46.04772" lon="4.52143">
        <ele>653</ele>
        <time>2016-11-27T09:55:46.000Z</time>
      </trkpt>
      <trkpt lat="46.04772" lon="4.52144">
        <ele>653</ele>
        <time>2016-11-27T09:55:47.000Z</time>
      </trkpt>
      <trkpt lat="46.04772" lon="4.52145">
        <ele>653</ele>
        <time>2016-11-27T09:55:48.000Z</time>
      </trkpt>
      <trkpt lat="46.04773" lon="4.52146">
        <ele>652</ele>
        <time>2016-11-27T09:55:49.000Z</time>
      </trkpt>
      <trkpt lat="46.04773" lon="4.52147">
        <ele>653</ele>
        <time>2016-11-27T09:55:50.000Z</time>
      </trkpt>
      <trkpt lat="46.04774" lon="4.52149">
        <ele>653</ele>
        <time>2016-11-27T09:55:51.000Z</time>
      </trkpt>
      <trkpt lat="46.04775" lon="4.5215">
        <ele>653</ele>
        <time>2016-11-27T09:55:52.000Z</time>
      </trkpt>
      <trkpt lat="46.04775" lon="4.52151">
        <ele>654</ele>
        <time>2016-11-27T09:55:53.000Z</time>
      </trkpt>
      <trkpt lat="46.04776" lon="4.52153">
        <ele>654</ele>
        <time>2016-11-27T09:55:54.000Z</time>
      </trkpt>
      <trkpt lat="46.04777" lon="4.52154">
        <ele>655</ele>
        <time>2016-11-27T09:55:55.000Z</time>
      </trkpt>
      <trkpt lat="46.04778" lon="4.52156">
        <ele>657</ele>
        <time>2016-11-27T09:55:56.000Z</time>
      </trkpt>
      <trkpt lat="46.04779" lon="4.52157">
        <ele>658</ele>
        <time>2016-11-27T09:55:57.000Z</time>
      </trkpt>
      <trkpt lat="46.04781" lon="4.52158">
        <ele>659</ele>
        <time>2016-11-27T09:55:58.000Z</time>
      </trkpt>
      <trkpt lat="46.04782" lon="4.5216">
        <ele>660</ele>
        <time>2016-11-27T09:55:59.000Z</time>
      </trkpt>
      <trkpt lat="46.04782" lon="4.52161">
        <ele>660</ele>
        <time>2016-11-27T09:56:00.000Z</time>
      </trkpt>
      <trkpt lat="46.04783" lon="4.52163">
        <ele>661</ele>
        <time>2016-11-27T09:56:01.000Z</time>
      </trkpt>
      <trkpt lat="46.04784" lon="4.52165">
        <ele>661</ele>
        <time>2016-11-27T09:56:02.000Z</time>
      </trkpt>
      <trkpt lat="46.04784" lon="4.52167">
        <ele>662</ele>
        <time>2016-11-27T09:56:03.000Z</time>
      </trkpt>
      <trkpt lat="46.04785" lon="4.52169">
        <ele>662</ele>
        <time>2016-11-27T09:56:04.000Z</time>
      </trkpt>
      <trkpt lat="46.04785" lon="4.5217">
        <ele>662</ele>
        <time>2016-11-27T09:56:05.000Z</time>
      </trkpt>
      <trkpt lat="46.04785" lon="4.52173">
        <ele>662</ele>
        <time>2016-11-27T09:56:06.000Z</time>
      </trkpt>
      <trkpt lat="46.04786" lon="4.52175">
        <ele>662</ele>
        <time>2016-11-27T09:56:07.000Z</time>
      </trkpt>
      <trkpt lat="46.04787" lon="4.52177">
        <ele>662</ele>
        <time>2016-11-27T09:56:08.000Z</time>
      </trkpt>
      <trkpt lat="46.04788" lon="4.52179">
        <ele>662</ele>
        <time>2016-11-27T09:56:09.000Z</time>
      </trkpt>
      <trkpt lat="46.04788" lon="4.52181">
        <ele>662</ele>
        <time>2016-11-27T09:56:10.000Z</time>
      </trkpt>
      <trkpt lat="46.04788" lon="4.52183">
        <ele>662</ele>
        <time>2016-11-27T09:56:11.000Z</time>
      </trkpt>
      <trkpt lat="46.04788" lon="4.52185">
        <ele>662</ele>
        <time>2016-11-27T09:56:12.000Z</time>
      </trkpt>
      <trkpt lat="46.04789" lon="4.52186">
        <ele>662</ele>
        <time>2016-11-27T09:56:13.000Z</time>
      </trkpt>
      <trkpt lat="46.04789" lon="4.52188">
        <ele>662</ele>
        <time>2016-11-27T09:56:14.000Z</time>
      </trkpt>
      <trkpt lat="46.04789" lon="4.52189">
        <ele>663</ele>
        <time>2016-11-27T09:56:15.000Z</time>
      </trkpt>
      <trkpt lat="46.04789" lon="4.52191">
        <ele>663</ele>
        <time>2016-11-27T09:56:16.000Z</time>
      </trkpt>
      <trkpt lat="46.0479" lon="4.52193">
        <ele>663</ele>
        <time>2016-11-27T09:56:17.000Z</time>
      </trkpt>
      <trkpt lat="46.0479" lon="4.52194">
        <ele>662</ele>
        <time>2016-11-27T09:56:18.000Z</time>
      </trkpt>
      <trkpt lat="46.0479" lon="4.52196">
        <ele>663</ele>
        <time>2016-11-27T09:56:19.000Z</time>
      </trkpt>
      <trkpt lat="46.0479" lon="4.52198">
        <ele>663</ele>
        <time>2016-11-27T09:56:20.000Z</time>
      </trkpt>
      <trkpt lat="46.0479" lon="4.522">
        <ele>664</ele>
        <time>2016-11-27T09:56:21.000Z</time>
      </trkpt>
      <trkpt lat="46.04791" lon="4.52202">
        <ele>664</ele>
        <time>2016-11-27T09:56:22.000Z</time>
      </trkpt>
      <trkpt lat="46.04791" lon="4.52204">
        <ele>663</ele>
        <time>2016-11-27T09:56:23.000Z</time>
      </trkpt>
      <trkpt lat="46.04792" lon="4.52206">
        <ele>664</ele>
        <time>2016-11-27T09:56:24.000Z</time>
      </trkpt>
      <trkpt lat="46.04793" lon="4.52208">
        <ele>664</ele>
        <time>2016-11-27T09:56:25.000Z</time>
      </trkpt>
      <trkpt lat="46.04793" lon="4.5221">
        <ele>664</ele>
        <time>2016-11-27T09:56:26.000Z</time>
      </trkpt>
      <trkpt lat="46.04794" lon="4.52212">
        <ele>663</ele>
        <time>2016-11-27T09:56:27.000Z</time>
      </trkpt>
      <trkpt lat="46.04794" lon="4.52215">
        <ele>662</ele>
        <time>2016-11-27T09:56:28.000Z</time>
      </trkpt>
      <trkpt lat="46.04795" lon="4.52219">
        <ele>662</ele>
        <time>2016-11-27T09:56:29.000Z</time>
      </trkpt>
      <trkpt lat="46.04796" lon="4.52222">
        <ele>662</ele>
        <time>2016-11-27T09:56:30.000Z</time>
      </trkpt>
      <trkpt lat="46.04797" lon="4.52226">
        <ele>661</ele>
        <time>2016-11-27T09:56:31.000Z</time>
      </trkpt>
      <trkpt lat="46.04798" lon="4.5223">
        <ele>659</ele>
        <time>2016-11-27T09:56:32.000Z</time>
      </trkpt>
      <trkpt lat="46.048" lon="4.52235">
        <ele>658</ele>
        <time>2016-11-27T09:56:33.000Z</time>
      </trkpt>
      <trkpt lat="46.04801" lon="4.5224">
        <ele>657</ele>
        <time>2016-11-27T09:56:34.000Z</time>
      </trkpt>
      <trkpt lat="46.04803" lon="4.52245">
        <ele>655</ele>
        <time>2016-11-27T09:56:35.000Z</time>
      </trkpt>
      <trkpt lat="46.04804" lon="4.52249">
        <ele>654</ele>
        <time>2016-11-27T09:56:36.000Z</time>
      </trkpt>
      <trkpt lat="46.04804" lon="4.52252">
        <ele>653</ele>
        <time>2016-11-27T09:56:37.000Z</time>
      </trkpt>
      <trkpt lat="46.04805" lon="4.52257">
        <ele>651</ele>
        <time>2016-11-27T09:56:38.000Z</time>
      </trkpt>
      <trkpt lat="46.04806" lon="4.52263">
        <ele>649</ele>
        <time>2016-11-27T09:56:39.000Z</time>
      </trkpt>
      <trkpt lat="46.04808" lon="4.52269">
        <ele>649</ele>
        <time>2016-11-27T09:56:40.000Z</time>
      </trkpt>
      <trkpt lat="46.0481" lon="4.52275">
        <ele>649</ele>
        <time>2016-11-27T09:56:41.000Z</time>
      </trkpt>
      <trkpt lat="46.04812" lon="4.5228">
        <ele>648</ele>
        <time>2016-11-27T09:56:42.000Z</time>
      </trkpt>
      <trkpt lat="46.04813" lon="4.52286">
        <ele>648</ele>
        <time>2016-11-27T09:56:43.000Z</time>
      </trkpt>
      <trkpt lat="46.04814" lon="4.52292">
        <ele>648</ele>
        <time>2016-11-27T09:56:44.000Z</time>
      </trkpt>
      <trkpt lat="46.04816" lon="4.52297">
        <ele>647</ele>
        <time>2016-11-27T09:56:45.000Z</time>
      </trkpt>
      <trkpt lat="46.04817" lon="4.52302">
        <ele>646</ele>
        <time>2016-11-27T09:56:46.000Z</time>
      </trkpt>
      <trkpt lat="46.04819" lon="4.52307">
        <ele>645</ele>
        <time>2016-11-27T09:56:47.000Z</time>
      </trkpt>
      <trkpt lat="46.0482" lon="4.52311">
        <ele>645</ele>
        <time>2016-11-27T09:56:48.000Z</time>
      </trkpt>
      <trkpt lat="46.04822" lon="4.52316">
        <ele>645</ele>
        <time>2016-11-27T09:56:49.000Z</time>
      </trkpt>
      <trkpt lat="46.04823" lon="4.5232">
        <ele>645</ele>
        <time>2016-11-27T09:56:50.000Z</time>
      </trkpt>
      <trkpt lat="46.04824" lon="4.52324">
        <ele>645</ele>
        <time>2016-11-27T09:56:51.000Z</time>
      </trkpt>
      <trkpt lat="46.04825" lon="4.52328">
        <ele>644</ele>
        <time>2016-11-27T09:56:52.000Z</time>
      </trkpt>
      <trkpt lat="46.04827" lon="4.52331">
        <ele>645</ele>
        <time>2016-11-27T09:56:53.000Z</time>
      </trkpt>
      <trkpt lat="46.04829" lon="4.52333">
        <ele>644</ele>
        <time>2016-11-27T09:56:54.000Z</time>
      </trkpt>
      <trkpt lat="46.04831" lon="4.52333">
        <ele>645</ele>
        <time>2016-11-27T09:56:55.000Z</time>
      </trkpt>
      <trkpt lat="46.04833" lon="4.52332">
        <ele>646</ele>
        <time>2016-11-27T09:56:56.000Z</time>
      </trkpt>
      <trkpt lat="46.04835" lon="4.52331">
        <ele>646</ele>
        <time>2016-11-27T09:56:57.000Z</time>
      </trkpt>
      <trkpt lat="46.04838" lon="4.52331">
        <ele>647</ele>
        <time>2016-11-27T09:56:58.000Z</time>
      </trkpt>
      <trkpt lat="46.04841" lon="4.5233">
        <ele>648</ele>
        <time>2016-11-27T09:56:59.000Z</time>
      </trkpt>
      <trkpt lat="46.04843" lon="4.52329">
        <ele>650</ele>
        <time>2016-11-27T09:57:00.000Z</time>
      </trkpt>
      <trkpt lat="46.04846" lon="4.52328">
        <ele>650</ele>
        <time>2016-11-27T09:57:01.000Z</time>
      </trkpt>
      <trkpt lat="46.04848" lon="4.52328">
        <ele>652</ele>
        <time>2016-11-27T09:57:02.000Z</time>
      </trkpt>
      <trkpt lat="46.0485" lon="4.52328">
        <ele>653</ele>
        <time>2016-11-27T09:57:03.000Z</time>
      </trkpt>
      <trkpt lat="46.04851" lon="4.52328">
        <ele>654</ele>
        <time>2016-11-27T09:57:04.000Z</time>
      </trkpt>
      <trkpt lat="46.04853" lon="4.52328">
        <ele>656</ele>
        <time>2016-11-27T09:57:05.000Z</time>
      </trkpt>
      <trkpt lat="46.04854" lon="4.52328">
        <ele>657</ele>
        <time>2016-11-27T09:57:06.000Z</time>
      </trkpt>
      <trkpt lat="46.04856" lon="4.52327">
        <ele>658</ele>
        <time>2016-11-27T09:57:07.000Z</time>
      </trkpt>
      <trkpt lat="46.04858" lon="4.52327">
        <ele>659</ele>
        <time>2016-11-27T09:57:08.000Z</time>
      </trkpt>
      <trkpt lat="46.0486" lon="4.52327">
        <ele>659</ele>
        <time>2016-11-27T09:57:09.000Z</time>
      </trkpt>
      <trkpt lat="46.04862" lon="4.52327">
        <ele>661</ele>
        <time>2016-11-27T09:57:10.000Z</time>
      </trkpt>
      <trkpt lat="46.04863" lon="4.52326">
        <ele>660</ele>
        <time>2016-11-27T09:57:11.000Z</time>
      </trkpt>
      <trkpt lat="46.04865" lon="4.52325">
        <ele>660</ele>
        <time>2016-11-27T09:57:12.000Z</time>
      </trkpt>
      <trkpt lat="46.04868" lon="4.52325">
        <ele>660</ele>
        <time>2016-11-27T09:57:13.000Z</time>
      </trkpt>
      <trkpt lat="46.0487" lon="4.52326">
        <ele>660</ele>
        <time>2016-11-27T09:57:14.000Z</time>
      </trkpt>
      <trkpt lat="46.04872" lon="4.52326">
        <ele>660</ele>
        <time>2016-11-27T09:57:15.000Z</time>
      </trkpt>
      <trkpt lat="46.04873" lon="4.52326">
        <ele>660</ele>
        <time>2016-11-27T09:57:16.000Z</time>
      </trkpt>
      <trkpt lat="46.04875" lon="4.52325">
        <ele>661</ele>
        <time>2016-11-27T09:57:17.000Z</time>
      </trkpt>
      <trkpt lat="46.04876" lon="4.52325">
        <ele>661</ele>
        <time>2016-11-27T09:57:18.000Z</time>
      </trkpt>
      <trkpt lat="46.04877" lon="4.52325">
        <ele>661</ele>
        <time>2016-11-27T09:57:19.000Z</time>
      </trkpt>
      <trkpt lat="46.04878" lon="4.52325">
        <ele>660</ele>
        <time>2016-11-27T09:57:20.000Z</time>
      </trkpt>
      <trkpt lat="46.04878" lon="4.52325">
        <ele>661</ele>
        <time>2016-11-27T09:57:21.000Z</time>
      </trkpt>
      <trkpt lat="46.04879" lon="4.52325">
        <ele>661</ele>
        <time>2016-11-27T09:57:22.000Z</time>
      </trkpt>
      <trkpt lat="46.0488" lon="4.52325">
        <ele>661</ele>
        <time>2016-11-27T09:57:23.000Z</time>
      </trkpt>
      <trkpt lat="46.04881" lon="4.52324">
        <ele>661</ele>
        <time>2016-11-27T09:57:24.000Z</time>
      </trkpt>
      <trkpt lat="46.04882" lon="4.52323">
        <ele>662</ele>
        <time>2016-11-27T09:57:25.000Z</time>
      </trkpt>
      <trkpt lat="46.04883" lon="4.52322">
        <ele>661</ele>
        <time>2016-11-27T09:57:26.000Z</time>
      </trkpt>
      <trkpt lat="46.04884" lon="4.52322">
        <ele>661</ele>
        <time>2016-11-27T09:57:27.000Z</time>
      </trkpt>
      <trkpt lat="46.04885" lon="4.52322">
        <ele>662</ele>
        <time>2016-11-27T09:57:28.000Z</time>
      </trkpt>
      <trkpt lat="46.04886" lon="4.52321">
        <ele>662</ele>
        <time>2016-11-27T09:57:29.000Z</time>
      </trkpt>
      <trkpt lat="46.04887" lon="4.52321">
        <ele>662</ele>
        <time>2016-11-27T09:57:30.000Z</time>
      </trkpt>
      <trkpt lat="46.04888" lon="4.5232">
        <ele>663</ele>
        <time>2016-11-27T09:57:31.000Z</time>
      </trkpt>
      <trkpt lat="46.04889" lon="4.5232">
        <ele>663</ele>
        <time>2016-11-27T09:57:32.000Z</time>
      </trkpt>
      <trkpt lat="46.0489" lon="4.5232">
        <ele>663</ele>
        <time>2016-11-27T09:57:33.000Z</time>
      </trkpt>
      <trkpt lat="46.04891" lon="4.5232">
        <ele>663</ele>
        <time>2016-11-27T09:57:34.000Z</time>
      </trkpt>
      <trkpt lat="46.04892" lon="4.52319">
        <ele>663</ele>
        <time>2016-11-27T09:57:35.000Z</time>
      </trkpt>
      <trkpt lat="46.04893" lon="4.52319">
        <ele>663</ele>
        <time>2016-11-27T09:57:36.000Z</time>
      </trkpt>
      <trkpt lat="46.04894" lon="4.52319">
        <ele>664</ele>
        <time>2016-11-27T09:57:37.000Z</time>
      </trkpt>
      <trkpt lat="46.04895" lon="4.52319">
        <ele>664</ele>
        <time>2016-11-27T09:57:38.000Z</time>
      </trkpt>
      <trkpt lat="46.04895" lon="4.52318">
        <ele>665</ele>
        <time>2016-11-27T09:57:39.000Z</time>
      </trkpt>
      <trkpt lat="46.04896" lon="4.52318">
        <ele>665</ele>
        <time>2016-11-27T09:57:40.000Z</time>
      </trkpt>
      <trkpt lat="46.04897" lon="4.52317">
        <ele>666</ele>
        <time>2016-11-27T09:57:41.000Z</time>
      </trkpt>
      <trkpt lat="46.04898" lon="4.52317">
        <ele>666</ele>
        <time>2016-11-27T09:57:42.000Z</time>
      </trkpt>
      <trkpt lat="46.04899" lon="4.52316">
        <ele>667</ele>
        <time>2016-11-27T09:57:43.000Z</time>
      </trkpt>
      <trkpt lat="46.049" lon="4.52316">
        <ele>667</ele>
        <time>2016-11-27T09:57:44.000Z</time>
      </trkpt>
      <trkpt lat="46.04901" lon="4.52315">
        <ele>667</ele>
        <time>2016-11-27T09:57:45.000Z</time>
      </trkpt>
      <trkpt lat="46.04902" lon="4.52315">
        <ele>667</ele>
        <time>2016-11-27T09:57:46.000Z</time>
      </trkpt>
      <trkpt lat="46.04904" lon="4.52314">
        <ele>668</ele>
        <time>2016-11-27T09:57:47.000Z</time>
      </trkpt>
      <trkpt lat="46.04905" lon="4.52314">
        <ele>668</ele>
        <time>2016-11-27T09:57:48.000Z</time>
      </trkpt>
      <trkpt lat="46.04906" lon="4.52314">
        <ele>668</ele>
        <time>2016-11-27T09:57:49.000Z</time>
      </trkpt>
      <trkpt lat="46.04907" lon="4.52314">
        <ele>668</ele>
        <time>2016-11-27T09:57:50.000Z</time>
      </trkpt>
      <trkpt lat="46.04908" lon="4.52313">
        <ele>668</ele>
        <time>2016-11-27T09:57:51.000Z</time>
      </trkpt>
      <trkpt lat="46.04909" lon="4.52313">
        <ele>668</ele>
        <time>2016-11-27T09:57:52.000Z</time>
      </trkpt>
      <trkpt lat="46.04911" lon="4.52312">
        <ele>668</ele>
        <time>2016-11-27T09:57:53.000Z</time>
      </trkpt>
      <trkpt lat="46.04911" lon="4.52312">
        <ele>668</ele>
        <time>2016-11-27T09:57:54.000Z</time>
      </trkpt>
      <trkpt lat="46.04913" lon="4.52311">
        <ele>669</ele>
        <time>2016-11-27T09:57:55.000Z</time>
      </trkpt>
      <trkpt lat="46.04914" lon="4.52311">
        <ele>669</ele>
        <time>2016-11-27T09:57:56.000Z</time>
      </trkpt>
      <trkpt lat="46.04915" lon="4.52311">
        <ele>669</ele>
        <time>2016-11-27T09:57:57.000Z</time>
      </trkpt>
      <trkpt lat="46.04916" lon="4.5231">
        <ele>670</ele>
        <time>2016-11-27T09:57:58.000Z</time>
      </trkpt>
      <trkpt lat="46.04917" lon="4.5231">
        <ele>670</ele>
        <time>2016-11-27T09:57:59.000Z</time>
      </trkpt>
      <trkpt lat="46.04918" lon="4.5231">
        <ele>671</ele>
        <time>2016-11-27T09:58:00.000Z</time>
      </trkpt>
      <trkpt lat="46.04919" lon="4.5231">
        <ele>671</ele>
        <time>2016-11-27T09:58:01.000Z</time>
      </trkpt>
      <trkpt lat="46.0492" lon="4.52309">
        <ele>672</ele>
        <time>2016-11-27T09:58:02.000Z</time>
      </trkpt>
      <trkpt lat="46.04921" lon="4.52309">
        <ele>672</ele>
        <time>2016-11-27T09:58:03.000Z</time>
      </trkpt>
      <trkpt lat="46.04923" lon="4.52309">
        <ele>672</ele>
        <time>2016-11-27T09:58:04.000Z</time>
      </trkpt>
      <trkpt lat="46.04924" lon="4.52309">
        <ele>672</ele>
        <time>2016-11-27T09:58:05.000Z</time>
      </trkpt>
      <trkpt lat="46.04926" lon="4.52309">
        <ele>672</ele>
        <time>2016-11-27T09:58:06.000Z</time>
      </trkpt>
      <trkpt lat="46.04927" lon="4.52309">
        <ele>672</ele>
        <time>2016-11-27T09:58:07.000Z</time>
      </trkpt>
      <trkpt lat="46.04928" lon="4.52309">
        <ele>672</ele>
        <time>2016-11-27T09:58:08.000Z</time>
      </trkpt>
      <trkpt lat="46.04929" lon="4.52309">
        <ele>672</ele>
        <time>2016-11-27T09:58:09.000Z</time>
      </trkpt>
      <trkpt lat="46.0493" lon="4.52309">
        <ele>672</ele>
        <time>2016-11-27T09:58:10.000Z</time>
      </trkpt>
      <trkpt lat="46.04931" lon="4.52309">
        <ele>672</ele>
        <time>2016-11-27T09:58:11.000Z</time>
      </trkpt>
      <trkpt lat="46.04932" lon="4.52309">
        <ele>672</ele>
        <time>2016-11-27T09:58:12.000Z</time>
      </trkpt>
      <trkpt lat="46.04933" lon="4.52309">
        <ele>672</ele>
        <time>2016-11-27T09:58:13.000Z</time>
      </trkpt>
      <trkpt lat="46.04934" lon="4.52309">
        <ele>673</ele>
        <time>2016-11-27T09:58:14.000Z</time>
      </trkpt>
      <trkpt lat="46.04935" lon="4.52309">
        <ele>673</ele>
        <time>2016-11-27T09:58:15.000Z</time>
      </trkpt>
      <trkpt lat="46.04936" lon="4.52309">
        <ele>673</ele>
        <time>2016-11-27T09:58:16.000Z</time>
      </trkpt>
      <trkpt lat="46.04937" lon="4.52309">
        <ele>674</ele>
        <time>2016-11-27T09:58:17.000Z</time>
      </trkpt>
      <trkpt lat="46.04938" lon="4.5231">
        <ele>674</ele>
        <time>2016-11-27T09:58:18.000Z</time>
      </trkpt>
      <trkpt lat="46.04939" lon="4.5231">
        <ele>674</ele>
        <time>2016-11-27T09:58:19.000Z</time>
      </trkpt>
      <trkpt lat="46.04939" lon="4.5231">
        <ele>674</ele>
        <time>2016-11-27T09:58:20.000Z</time>
      </trkpt>
      <trkpt lat="46.0494" lon="4.52309">
        <ele>674</ele>
        <time>2016-11-27T09:58:21.000Z</time>
      </trkpt>
      <trkpt lat="46.04941" lon="4.52309">
        <ele>674</ele>
        <time>2016-11-27T09:58:22.000Z</time>
      </trkpt>
      <trkpt lat="46.04942" lon="4.5231">
        <ele>674</ele>
        <time>2016-11-27T09:58:23.000Z</time>
      </trkpt>
      <trkpt lat="46.04943" lon="4.5231">
        <ele>675</ele>
        <time>2016-11-27T09:58:24.000Z</time>
      </trkpt>
      <trkpt lat="46.04944" lon="4.5231">
        <ele>675</ele>
        <time>2016-11-27T09:58:25.000Z</time>
      </trkpt>
      <trkpt lat="46.04944" lon="4.5231">
        <ele>675</ele>
        <time>2016-11-27T09:58:26.000Z</time>
      </trkpt>
      <trkpt lat="46.04945" lon="4.52311">
        <ele>675</ele>
        <time>2016-11-27T09:58:27.000Z</time>
      </trkpt>
      <trkpt lat="46.04946" lon="4.52311">
        <ele>675</ele>
        <time>2016-11-27T09:58:28.000Z</time>
      </trkpt>
      <trkpt lat="46.04947" lon="4.52311">
        <ele>675</ele>
        <time>2016-11-27T09:58:29.000Z</time>
      </trkpt>
      <trkpt lat="46.04948" lon="4.52311">
        <ele>675</ele>
        <time>2016-11-27T09:58:30.000Z</time>
      </trkpt>
      <trkpt lat="46.04949" lon="4.52311">
        <ele>675</ele>
        <time>2016-11-27T09:58:31.000Z</time>
      </trkpt>
      <trkpt lat="46.04949" lon="4.52311">
        <ele>675</ele>
        <time>2016-11-27T09:58:32.000Z</time>
      </trkpt>
      <trkpt lat="46.0495" lon="4.52312">
        <ele>676</ele>
        <time>2016-11-27T09:58:33.000Z</time>
      </trkpt>
      <trkpt lat="46.04951" lon="4.52312">
        <ele>676</ele>
        <time>2016-11-27T09:58:34.000Z</time>
      </trkpt>
      <trkpt lat="46.04952" lon="4.52312">
        <ele>676</ele>
        <time>2016-11-27T09:58:35.000Z</time>
      </trkpt>
      <trkpt lat="46.04953" lon="4.52312">
        <ele>677</ele>
        <time>2016-11-27T09:58:36.000Z</time>
      </trkpt>
      <trkpt lat="46.04954" lon="4.52312">
        <ele>677</ele>
        <time>2016-11-27T09:58:37.000Z</time>
      </trkpt>
      <trkpt lat="46.04955" lon="4.52312">
        <ele>678</ele>
        <time>2016-11-27T09:58:38.000Z</time>
      </trkpt>
      <trkpt lat="46.04956" lon="4.52312">
        <ele>678</ele>
        <time>2016-11-27T09:58:39.000Z</time>
      </trkpt>
      <trkpt lat="46.04957" lon="4.52312">
        <ele>678</ele>
        <time>2016-11-27T09:58:40.000Z</time>
      </trkpt>
      <trkpt lat="46.04958" lon="4.52311">
        <ele>678</ele>
        <time>2016-11-27T09:58:41.000Z</time>
      </trkpt>
      <trkpt lat="46.04959" lon="4.52311">
        <ele>679</ele>
        <time>2016-11-27T09:58:42.000Z</time>
      </trkpt>
      <trkpt lat="46.0496" lon="4.52311">
        <ele>679</ele>
        <time>2016-11-27T09:58:43.000Z</time>
      </trkpt>
      <trkpt lat="46.0496" lon="4.5231">
        <ele>679</ele>
        <time>2016-11-27T09:58:44.000Z</time>
      </trkpt>
      <trkpt lat="46.04961" lon="4.5231">
        <ele>679</ele>
        <time>2016-11-27T09:58:45.000Z</time>
      </trkpt>
      <trkpt lat="46.04962" lon="4.5231">
        <ele>679</ele>
        <time>2016-11-27T09:58:46.000Z</time>
      </trkpt>
      <trkpt lat="46.04963" lon="4.5231">
        <ele>679</ele>
        <time>2016-11-27T09:58:47.000Z</time>
      </trkpt>
      <trkpt lat="46.04964" lon="4.5231">
        <ele>679</ele>
        <time>2016-11-27T09:58:48.000Z</time>
      </trkpt>
      <trkpt lat="46.04965" lon="4.5231">
        <ele>679</ele>
        <time>2016-11-27T09:58:49.000Z</time>
      </trkpt>
      <trkpt lat="46.04966" lon="4.5231">
        <ele>679</ele>
        <time>2016-11-27T09:58:50.000Z</time>
      </trkpt>
      <trkpt lat="46.04967" lon="4.5231">
        <ele>679</ele>
        <time>2016-11-27T09:58:51.000Z</time>
      </trkpt>
      <trkpt lat="46.04968" lon="4.5231">
        <ele>679</ele>
        <time>2016-11-27T09:58:52.000Z</time>
      </trkpt>
      <trkpt lat="46.04969" lon="4.5231">
        <ele>680</ele>
        <time>2016-11-27T09:58:53.000Z</time>
      </trkpt>
      <trkpt lat="46.0497" lon="4.52311">
        <ele>680</ele>
        <time>2016-11-27T09:58:54.000Z</time>
      </trkpt>
      <trkpt lat="46.04971" lon="4.52311">
        <ele>680</ele>
        <time>2016-11-27T09:58:55.000Z</time>
      </trkpt>
      <trkpt lat="46.04972" lon="4.52311">
        <ele>681</ele>
        <time>2016-11-27T09:58:56.000Z</time>
      </trkpt>
      <trkpt lat="46.04973" lon="4.52311">
        <ele>681</ele>
        <time>2016-11-27T09:58:57.000Z</time>
      </trkpt>
      <trkpt lat="46.04974" lon="4.52311">
        <ele>681</ele>
        <time>2016-11-27T09:58:58.000Z</time>
      </trkpt>
      <trkpt lat="46.04975" lon="4.52311">
        <ele>681</ele>
        <time>2016-11-27T09:58:59.000Z</time>
      </trkpt>
      <trkpt lat="46.04976" lon="4.5231">
        <ele>682</ele>
        <time>2016-11-27T09:59:00.000Z</time>
      </trkpt>
      <trkpt lat="46.04977" lon="4.5231">
        <ele>682</ele>
        <time>2016-11-27T09:59:01.000Z</time>
      </trkpt>
      <trkpt lat="46.04978" lon="4.5231">
        <ele>682</ele>
        <time>2016-11-27T09:59:02.000Z</time>
      </trkpt>
      <trkpt lat="46.04979" lon="4.5231">
        <ele>681</ele>
        <time>2016-11-27T09:59:03.000Z</time>
      </trkpt>
      <trkpt lat="46.0498" lon="4.5231">
        <ele>681</ele>
        <time>2016-11-27T09:59:04.000Z</time>
      </trkpt>
      <trkpt lat="46.04981" lon="4.5231">
        <ele>682</ele>
        <time>2016-11-27T09:59:05.000Z</time>
      </trkpt>
      <trkpt lat="46.04983" lon="4.52311">
        <ele>684</ele>
        <time>2016-11-27T09:59:06.000Z</time>
      </trkpt>
      <trkpt lat="46.04984" lon="4.52311">
        <ele>684</ele>
        <time>2016-11-27T09:59:07.000Z</time>
      </trkpt>
      <trkpt lat="46.04985" lon="4.52311">
        <ele>684</ele>
        <time>2016-11-27T09:59:08.000Z</time>
      </trkpt>
      <trkpt lat="46.04986" lon="4.52311">
        <ele>684</ele>
        <time>2016-11-27T09:59:09.000Z</time>
      </trkpt>
      <trkpt lat="46.04987" lon="4.52311">
        <ele>685</ele>
        <time>2016-11-27T09:59:10.000Z</time>
      </trkpt>
      <trkpt lat="46.04988" lon="4.52312">
        <ele>685</ele>
        <time>2016-11-27T09:59:11.000Z</time>
      </trkpt>
      <trkpt lat="46.04989" lon="4.52312">
        <ele>685</ele>
        <time>2016-11-27T09:59:12.000Z</time>
      </trkpt>
      <trkpt lat="46.04991" lon="4.52313">
        <ele>685</ele>
        <time>2016-11-27T09:59:13.000Z</time>
      </trkpt>
      <trkpt lat="46.04992" lon="4.52313">
        <ele>686</ele>
        <time>2016-11-27T09:59:14.000Z</time>
      </trkpt>
      <trkpt lat="46.04993" lon="4.52314">
        <ele>686</ele>
        <time>2016-11-27T09:59:15.000Z</time>
      </trkpt>
      <trkpt lat="46.04993" lon="4.52315">
        <ele>686</ele>
        <time>2016-11-27T09:59:16.000Z</time>
      </trkpt>
      <trkpt lat="46.04995" lon="4.52315">
        <ele>686</ele>
        <time>2016-11-27T09:59:17.000Z</time>
      </trkpt>
      <trkpt lat="46.04996" lon="4.52315">
        <ele>687</ele>
        <time>2016-11-27T09:59:18.000Z</time>
      </trkpt>
      <trkpt lat="46.04998" lon="4.52315">
        <ele>687</ele>
        <time>2016-11-27T09:59:19.000Z</time>
      </trkpt>
      <trkpt lat="46.04999" lon="4.52316">
        <ele>688</ele>
        <time>2016-11-27T09:59:20.000Z</time>
      </trkpt>
      <trkpt lat="46.05001" lon="4.52316">
        <ele>687</ele>
        <time>2016-11-27T09:59:21.000Z</time>
      </trkpt>
      <trkpt lat="46.05002" lon="4.52315">
        <ele>687</ele>
        <time>2016-11-27T09:59:22.000Z</time>
      </trkpt>
      <trkpt lat="46.05004" lon="4.52315">
        <ele>687</ele>
        <time>2016-11-27T09:59:23.000Z</time>
      </trkpt>
      <trkpt lat="46.05006" lon="4.52314">
        <ele>688</ele>
        <time>2016-11-27T09:59:24.000Z</time>
      </trkpt>
      <trkpt lat="46.05008" lon="4.52313">
        <ele>688</ele>
        <time>2016-11-27T09:59:25.000Z</time>
      </trkpt>
      <trkpt lat="46.05011" lon="4.52313">
        <ele>687</ele>
        <time>2016-11-27T09:59:26.000Z</time>
      </trkpt>
      <trkpt lat="46.05014" lon="4.52313">
        <ele>687</ele>
        <time>2016-11-27T09:59:27.000Z</time>
      </trkpt>
      <trkpt lat="46.05017" lon="4.52314">
        <ele>688</ele>
        <time>2016-11-27T09:59:28.000Z</time>
      </trkpt>
      <trkpt lat="46.0502" lon="4.52314">
        <ele>687</ele>
        <time>2016-11-27T09:59:29.000Z</time>
      </trkpt>
      <trkpt lat="46.05023" lon="4.52315">
        <ele>687</ele>
        <time>2016-11-27T09:59:30.000Z</time>
      </trkpt>
      <trkpt lat="46.05025" lon="4.52316">
        <ele>688</ele>
        <time>2016-11-27T09:59:31.000Z</time>
      </trkpt>
      <trkpt lat="46.05028" lon="4.52318">
        <ele>687</ele>
        <time>2016-11-27T09:59:32.000Z</time>
      </trkpt>
      <trkpt lat="46.05031" lon="4.52319">
        <ele>687</ele>
        <time>2016-11-27T09:59:33.000Z</time>
      </trkpt>
      <trkpt lat="46.05034" lon="4.52321">
        <ele>688</ele>
        <time>2016-11-27T09:59:34.000Z</time>
      </trkpt>
      <trkpt lat="46.05037" lon="4.52323">
        <ele>688</ele>
        <time>2016-11-27T09:59:35.000Z</time>
      </trkpt>
      <trkpt lat="46.0504" lon="4.52326">
        <ele>689</ele>
        <time>2016-11-27T09:59:36.000Z</time>
      </trkpt>
      <trkpt lat="46.05043" lon="4.52328">
        <ele>689</ele>
        <time>2016-11-27T09:59:37.000Z</time>
      </trkpt>
      <trkpt lat="46.05046" lon="4.52331">
        <ele>689</ele>
        <time>2016-11-27T09:59:38.000Z</time>
      </trkpt>
      <trkpt lat="46.05049" lon="4.52333">
        <ele>689</ele>
        <time>2016-11-27T09:59:39.000Z</time>
      </trkpt>
      <trkpt lat="46.05051" lon="4.52335">
        <ele>690</ele>
        <time>2016-11-27T09:59:40.000Z</time>
      </trkpt>
      <trkpt lat="46.05054" lon="4.52338">
        <ele>690</ele>
        <time>2016-11-27T09:59:41.000Z</time>
      </trkpt>
      <trkpt lat="46.05057" lon="4.52341">
        <ele>691</ele>
        <time>2016-11-27T09:59:42.000Z</time>
      </trkpt>
      <trkpt lat="46.0506" lon="4.52343">
        <ele>691</ele>
        <time>2016-11-27T09:59:43.000Z</time>
      </trkpt>
      <trkpt lat="46.05062" lon="4.52346">
        <ele>690</ele>
        <time>2016-11-27T09:59:44.000Z</time>
      </trkpt>
      <trkpt lat="46.05065" lon="4.52349">
        <ele>690</ele>
        <time>2016-11-27T09:59:45.000Z</time>
      </trkpt>
      <trkpt lat="46.05068" lon="4.52352">
        <ele>690</ele>
        <time>2016-11-27T09:59:46.000Z</time>
      </trkpt>
      <trkpt lat="46.0507" lon="4.52355">
        <ele>689</ele>
        <time>2016-11-27T09:59:47.000Z</time>
      </trkpt>
      <trkpt lat="46.05072" lon="4.52359">
        <ele>689</ele>
        <time>2016-11-27T09:59:48.000Z</time>
      </trkpt>
      <trkpt lat="46.05074" lon="4.52362">
        <ele>689</ele>
        <time>2016-11-27T09:59:49.000Z</time>
      </trkpt>
      <trkpt lat="46.05077" lon="4.52365">
        <ele>688</ele>
        <time>2016-11-27T09:59:50.000Z</time>
      </trkpt>
      <trkpt lat="46.05079" lon="4.52368">
        <ele>688</ele>
        <time>2016-11-27T09:59:51.000Z</time>
      </trkpt>
      <trkpt lat="46.05082" lon="4.52372">
        <ele>688</ele>
        <time>2016-11-27T09:59:52.000Z</time>
      </trkpt>
      <trkpt lat="46.05084" lon="4.52376">
        <ele>687</ele>
        <time>2016-11-27T09:59:53.000Z</time>
      </trkpt>
      <trkpt lat="46.05087" lon="4.5238">
        <ele>687</ele>
        <time>2016-11-27T09:59:54.000Z</time>
      </trkpt>
      <trkpt lat="46.05089" lon="4.52383">
        <ele>687</ele>
        <time>2016-11-27T09:59:55.000Z</time>
      </trkpt>
      <trkpt lat="46.05091" lon="4.52387">
        <ele>687</ele>
        <time>2016-11-27T09:59:56.000Z</time>
      </trkpt>
      <trkpt lat="46.05093" lon="4.52391">
        <ele>687</ele>
        <time>2016-11-27T09:59:57.000Z</time>
      </trkpt>
      <trkpt lat="46.05096" lon="4.52395">
        <ele>686</ele>
        <time>2016-11-27T09:59:58.000Z</time>
      </trkpt>
      <trkpt lat="46.05098" lon="4.52398">
        <ele>686</ele>
        <time>2016-11-27T09:59:59.000Z</time>
      </trkpt>
      <trkpt lat="46.051" lon="4.52402">
        <ele>686</ele>
        <time>2016-11-27T10:00:00.000Z</time>
      </trkpt>
      <trkpt lat="46.05102" lon="4.52405">
        <ele>685</ele>
        <time>2016-11-27T10:00:01.000Z</time>
      </trkpt>
      <trkpt lat="46.05105" lon="4.52408">
        <ele>685</ele>
        <time>2016-11-27T10:00:02.000Z</time>
      </trkpt>
      <trkpt lat="46.05107" lon="4.52411">
        <ele>685</ele>
        <time>2016-11-27T10:00:03.000Z</time>
      </trkpt>
      <trkpt lat="46.0511" lon="4.52414">
        <ele>685</ele>
        <time>2016-11-27T10:00:04.000Z</time>
      </trkpt>
      <trkpt lat="46.05112" lon="4.52417">
        <ele>684</ele>
        <time>2016-11-27T10:00:05.000Z</time>
      </trkpt>
      <trkpt lat="46.05115" lon="4.5242">
        <ele>684</ele>
        <time>2016-11-27T10:00:06.000Z</time>
      </trkpt>
      <trkpt lat="46.05118" lon="4.52422">
        <ele>682</ele>
        <time>2016-11-27T10:00:07.000Z</time>
      </trkpt>
      <trkpt lat="46.05121" lon="4.52423">
        <ele>682</ele>
        <time>2016-11-27T10:00:08.000Z</time>
      </trkpt>
      <trkpt lat="46.05124" lon="4.52424">
        <ele>682</ele>
        <time>2016-11-27T10:00:09.000Z</time>
      </trkpt>
      <trkpt lat="46.05127" lon="4.52423">
        <ele>683</ele>
        <time>2016-11-27T10:00:10.000Z</time>
      </trkpt>
      <trkpt lat="46.05131" lon="4.52423">
        <ele>682</ele>
        <time>2016-11-27T10:00:11.000Z</time>
      </trkpt>
      <trkpt lat="46.05134" lon="4.52421">
        <ele>682</ele>
        <time>2016-11-27T10:00:12.000Z</time>
      </trkpt>
      <trkpt lat="46.05137" lon="4.5242">
        <ele>682</ele>
        <time>2016-11-27T10:00:13.000Z</time>
      </trkpt>
      <trkpt lat="46.0514" lon="4.52418">
        <ele>682</ele>
        <time>2016-11-27T10:00:14.000Z</time>
      </trkpt>
      <trkpt lat="46.05143" lon="4.52416">
        <ele>681</ele>
        <time>2016-11-27T10:00:15.000Z</time>
      </trkpt>
      <trkpt lat="46.05145" lon="4.52414">
        <ele>680</ele>
        <time>2016-11-27T10:00:16.000Z</time>
      </trkpt>
      <trkpt lat="46.05148" lon="4.52412">
        <ele>679</ele>
        <time>2016-11-27T10:00:17.000Z</time>
      </trkpt>
      <trkpt lat="46.05151" lon="4.5241">
        <ele>679</ele>
        <time>2016-11-27T10:00:18.000Z</time>
      </trkpt>
      <trkpt lat="46.05154" lon="4.52408">
        <ele>679</ele>
        <time>2016-11-27T10:00:19.000Z</time>
      </trkpt>
      <trkpt lat="46.05156" lon="4.52405">
        <ele>679</ele>
        <time>2016-11-27T10:00:20.000Z</time>
      </trkpt>
      <trkpt lat="46.05159" lon="4.52403">
        <ele>679</ele>
        <time>2016-11-27T10:00:21.000Z</time>
      </trkpt>
      <trkpt lat="46.05162" lon="4.524">
        <ele>679</ele>
        <time>2016-11-27T10:00:22.000Z</time>
      </trkpt>
      <trkpt lat="46.05164" lon="4.52397">
        <ele>680</ele>
        <time>2016-11-27T10:00:23.000Z</time>
      </trkpt>
      <trkpt lat="46.05167" lon="4.52394">
        <ele>680</ele>
        <time>2016-11-27T10:00:24.000Z</time>
      </trkpt>
      <trkpt lat="46.05169" lon="4.5239">
        <ele>680</ele>
        <time>2016-11-27T10:00:25.000Z</time>
      </trkpt>
      <trkpt lat="46.05172" lon="4.52387">
        <ele>680</ele>
        <time>2016-11-27T10:00:26.000Z</time>
      </trkpt>
      <trkpt lat="46.05174" lon="4.52383">
        <ele>680</ele>
        <time>2016-11-27T10:00:27.000Z</time>
      </trkpt>
      <trkpt lat="46.05177" lon="4.5238">
        <ele>681</ele>
        <time>2016-11-27T10:00:28.000Z</time>
      </trkpt>
      <trkpt lat="46.05179" lon="4.52376">
        <ele>681</ele>
        <time>2016-11-27T10:00:29.000Z</time>
      </trkpt>
      <trkpt lat="46.05182" lon="4.52373">
        <ele>680</ele>
        <time>2016-11-27T10:00:30.000Z</time>
      </trkpt>
      <trkpt lat="46.05184" lon="4.5237">
        <ele>680</ele>
        <time>2016-11-27T10:00:31.000Z</time>
      </trkpt>
      <trkpt lat="46.05187" lon="4.52367">
        <ele>679</ele>
        <time>2016-11-27T10:00:32.000Z</time>
      </trkpt>
      <trkpt lat="46.05189" lon="4.52364">
        <ele>679</ele>
        <time>2016-11-27T10:00:33.000Z</time>
      </trkpt>
      <trkpt lat="46.05191" lon="4.52361">
        <ele>679</ele>
        <time>2016-11-27T10:00:34.000Z</time>
      </trkpt>
      <trkpt lat="46.05193" lon="4.52358">
        <ele>679</ele>
        <time>2016-11-27T10:00:35.000Z</time>
      </trkpt>
      <trkpt lat="46.05196" lon="4.52355">
        <ele>679</ele>
        <time>2016-11-27T10:00:36.000Z</time>
      </trkpt>
      <trkpt lat="46.05198" lon="4.52352">
        <ele>679</ele>
        <time>2016-11-27T10:00:37.000Z</time>
      </trkpt>
      <trkpt lat="46.05201" lon="4.52349">
        <ele>679</ele>
        <time>2016-11-27T10:00:38.000Z</time>
      </trkpt>
      <trkpt lat="46.05203" lon="4.52345">
        <ele>680</ele>
        <time>2016-11-27T10:00:39.000Z</time>
      </trkpt>
      <trkpt lat="46.05205" lon="4.52342">
        <ele>681</ele>
        <time>2016-11-27T10:00:40.000Z</time>
      </trkpt>
      <trkpt lat="46.05206" lon="4.52338">
        <ele>681</ele>
        <time>2016-11-27T10:00:41.000Z</time>
      </trkpt>
      <trkpt lat="46.05208" lon="4.52335">
        <ele>681</ele>
        <time>2016-11-27T10:00:42.000Z</time>
      </trkpt>
      <trkpt lat="46.05209" lon="4.52332">
        <ele>681</ele>
        <time>2016-11-27T10:00:43.000Z</time>
      </trkpt>
      <trkpt lat="46.0521" lon="4.52328">
        <ele>682</ele>
        <time>2016-11-27T10:00:44.000Z</time>
      </trkpt>
      <trkpt lat="46.05212" lon="4.52324">
        <ele>682</ele>
        <time>2016-11-27T10:00:45.000Z</time>
      </trkpt>
      <trkpt lat="46.05213" lon="4.52319">
        <ele>682</ele>
        <time>2016-11-27T10:00:46.000Z</time>
      </trkpt>
      <trkpt lat="46.05214" lon="4.52316">
        <ele>681</ele>
        <time>2016-11-27T10:00:47.000Z</time>
      </trkpt>
      <trkpt lat="46.05216" lon="4.52311">
        <ele>682</ele>
        <time>2016-11-27T10:00:48.000Z</time>
      </trkpt>
      <trkpt lat="46.05217" lon="4.52308">
        <ele>682</ele>
        <time>2016-11-27T10:00:49.000Z</time>
      </trkpt>
      <trkpt lat="46.05218" lon="4.52304">
        <ele>682</ele>
        <time>2016-11-27T10:00:50.000Z</time>
      </trkpt>
      <trkpt lat="46.05219" lon="4.523">
        <ele>682</ele>
        <time>2016-11-27T10:00:51.000Z</time>
      </trkpt>
      <trkpt lat="46.05221" lon="4.52296">
        <ele>683</ele>
        <time>2016-11-27T10:00:52.000Z</time>
      </trkpt>
      <trkpt lat="46.05222" lon="4.52292">
        <ele>683</ele>
        <time>2016-11-27T10:00:53.000Z</time>
      </trkpt>
      <trkpt lat="46.05223" lon="4.52288">
        <ele>683</ele>
        <time>2016-11-27T10:00:54.000Z</time>
      </trkpt>
      <trkpt lat="46.05224" lon="4.52285">
        <ele>683</ele>
        <time>2016-11-27T10:00:55.000Z</time>
      </trkpt>
      <trkpt lat="46.05226" lon="4.52281">
        <ele>683</ele>
        <time>2016-11-27T10:00:56.000Z</time>
      </trkpt>
      <trkpt lat="46.05227" lon="4.52277">
        <ele>684</ele>
        <time>2016-11-27T10:00:57.000Z</time>
      </trkpt>
      <trkpt lat="46.05228" lon="4.52273">
        <ele>684</ele>
        <time>2016-11-27T10:00:58.000Z</time>
      </trkpt>
      <trkpt lat="46.05229" lon="4.52269">
        <ele>684</ele>
        <time>2016-11-27T10:00:59.000Z</time>
      </trkpt>
      <trkpt lat="46.0523" lon="4.52265">
        <ele>685</ele>
        <time>2016-11-27T10:01:00.000Z</time>
      </trkpt>
      <trkpt lat="46.05232" lon="4.52261">
        <ele>685</ele>
        <time>2016-11-27T10:01:01.000Z</time>
      </trkpt>
      <trkpt lat="46.05233" lon="4.52258">
        <ele>686</ele>
        <time>2016-11-27T10:01:02.000Z</time>
      </trkpt>
      <trkpt lat="46.05235" lon="4.52255">
        <ele>686</ele>
        <time>2016-11-27T10:01:03.000Z</time>
      </trkpt>
      <trkpt lat="46.05236" lon="4.52251">
        <ele>685</ele>
        <time>2016-11-27T10:01:04.000Z</time>
      </trkpt>
      <trkpt lat="46.05237" lon="4.52247">
        <ele>685</ele>
        <time>2016-11-27T10:01:05.000Z</time>
      </trkpt>
      <trkpt lat="46.05238" lon="4.52244">
        <ele>685</ele>
        <time>2016-11-27T10:01:06.000Z</time>
      </trkpt>
      <trkpt lat="46.05238" lon="4.5224">
        <ele>685</ele>
        <time>2016-11-27T10:01:07.000Z</time>
      </trkpt>
      <trkpt lat="46.05239" lon="4.52236">
        <ele>684</ele>
        <time>2016-11-27T10:01:08.000Z</time>
      </trkpt>
      <trkpt lat="46.0524" lon="4.52232">
        <ele>684</ele>
        <time>2016-11-27T10:01:09.000Z</time>
      </trkpt>
      <trkpt lat="46.05241" lon="4.52228">
        <ele>684</ele>
        <time>2016-11-27T10:01:10.000Z</time>
      </trkpt>
      <trkpt lat="46.05241" lon="4.52222">
        <ele>684</ele>
        <time>2016-11-27T10:01:11.000Z</time>
      </trkpt>
      <trkpt lat="46.05241" lon="4.52216">
        <ele>684</ele>
        <time>2016-11-27T10:01:12.000Z</time>
      </trkpt>
      <trkpt lat="46.05241" lon="4.5221">
        <ele>685</ele>
        <time>2016-11-27T10:01:13.000Z</time>
      </trkpt>
      <trkpt lat="46.05241" lon="4.52205">
        <ele>685</ele>
        <time>2016-11-27T10:01:14.000Z</time>
      </trkpt>
      <trkpt lat="46.05242" lon="4.522">
        <ele>686</ele>
        <time>2016-11-27T10:01:15.000Z</time>
      </trkpt>
      <trkpt lat="46.05243" lon="4.52195">
        <ele>686</ele>
        <time>2016-11-27T10:01:16.000Z</time>
      </trkpt>
      <trkpt lat="46.05244" lon="4.5219">
        <ele>687</ele>
        <time>2016-11-27T10:01:17.000Z</time>
      </trkpt>
      <trkpt lat="46.05245" lon="4.52186">
        <ele>686</ele>
        <time>2016-11-27T10:01:18.000Z</time>
      </trkpt>
      <trkpt lat="46.05248" lon="4.52182">
        <ele>685</ele>
        <time>2016-11-27T10:01:19.000Z</time>
      </trkpt>
      <trkpt lat="46.0525" lon="4.52178">
        <ele>685</ele>
        <time>2016-11-27T10:01:20.000Z</time>
      </trkpt>
      <trkpt lat="46.05251" lon="4.52174">
        <ele>686</ele>
        <time>2016-11-27T10:01:21.000Z</time>
      </trkpt>
      <trkpt lat="46.05253" lon="4.52171">
        <ele>686</ele>
        <time>2016-11-27T10:01:22.000Z</time>
      </trkpt>
      <trkpt lat="46.05255" lon="4.52169">
        <ele>685</ele>
        <time>2016-11-27T10:01:23.000Z</time>
      </trkpt>
      <trkpt lat="46.05256" lon="4.52168">
        <ele>686</ele>
        <time>2016-11-27T10:01:24.000Z</time>
      </trkpt>
      <trkpt lat="46.05258" lon="4.52168">
        <ele>686</ele>
        <time>2016-11-27T10:01:25.000Z</time>
      </trkpt>
      <trkpt lat="46.05259" lon="4.52167">
        <ele>686</ele>
        <time>2016-11-27T10:01:26.000Z</time>
      </trkpt>
      <trkpt lat="46.05261" lon="4.52168">
        <ele>685</ele>
        <time>2016-11-27T10:01:27.000Z</time>
      </trkpt>
      <trkpt lat="46.05263" lon="4.52168">
        <ele>685</ele>
        <time>2016-11-27T10:01:28.000Z</time>
      </trkpt>
      <trkpt lat="46.05265" lon="4.52168">
        <ele>685</ele>
        <time>2016-11-27T10:01:29.000Z</time>
      </trkpt>
      <trkpt lat="46.05266" lon="4.52169">
        <ele>685</ele>
        <time>2016-11-27T10:01:30.000Z</time>
      </trkpt>
      <trkpt lat="46.05268" lon="4.52169">
        <ele>686</ele>
        <time>2016-11-27T10:01:31.000Z</time>
      </trkpt>
      <trkpt lat="46.05269" lon="4.52169">
        <ele>686</ele>
        <time>2016-11-27T10:01:32.000Z</time>
      </trkpt>
      <trkpt lat="46.05271" lon="4.52169">
        <ele>686</ele>
        <time>2016-11-27T10:01:33.000Z</time>
      </trkpt>
      <trkpt lat="46.05273" lon="4.52169">
        <ele>687</ele>
        <time>2016-11-27T10:01:34.000Z</time>
      </trkpt>
      <trkpt lat="46.05275" lon="4.52169">
        <ele>687</ele>
        <time>2016-11-27T10:01:35.000Z</time>
      </trkpt>
      <trkpt lat="46.05277" lon="4.52169">
        <ele>688</ele>
        <time>2016-11-27T10:01:36.000Z</time>
      </trkpt>
      <trkpt lat="46.0528" lon="4.52169">
        <ele>688</ele>
        <time>2016-11-27T10:01:37.000Z</time>
      </trkpt>
      <trkpt lat="46.05282" lon="4.5217">
        <ele>688</ele>
        <time>2016-11-27T10:01:38.000Z</time>
      </trkpt>
      <trkpt lat="46.05285" lon="4.5217">
        <ele>688</ele>
        <time>2016-11-27T10:01:39.000Z</time>
      </trkpt>
      <trkpt lat="46.05287" lon="4.52171">
        <ele>689</ele>
        <time>2016-11-27T10:01:40.000Z</time>
      </trkpt>
      <trkpt lat="46.05289" lon="4.52171">
        <ele>689</ele>
        <time>2016-11-27T10:01:41.000Z</time>
      </trkpt>
      <trkpt lat="46.05291" lon="4.52171">
        <ele>689</ele>
        <time>2016-11-27T10:01:42.000Z</time>
      </trkpt>
      <trkpt lat="46.05293" lon="4.52172">
        <ele>690</ele>
        <time>2016-11-27T10:01:43.000Z</time>
      </trkpt>
      <trkpt lat="46.05295" lon="4.52173">
        <ele>690</ele>
        <time>2016-11-27T10:01:44.000Z</time>
      </trkpt>
      <trkpt lat="46.05297" lon="4.52174">
        <ele>690</ele>
        <time>2016-11-27T10:01:45.000Z</time>
      </trkpt>
      <trkpt lat="46.053" lon="4.52175">
        <ele>690</ele>
        <time>2016-11-27T10:01:46.000Z</time>
      </trkpt>
      <trkpt lat="46.05303" lon="4.52176">
        <ele>689</ele>
        <time>2016-11-27T10:01:47.000Z</time>
      </trkpt>
      <trkpt lat="46.05306" lon="4.52178">
        <ele>690</ele>
        <time>2016-11-27T10:01:48.000Z</time>
      </trkpt>
      <trkpt lat="46.05309" lon="4.5218">
        <ele>690</ele>
        <time>2016-11-27T10:01:49.000Z</time>
      </trkpt>
      <trkpt lat="46.05312" lon="4.52181">
        <ele>691</ele>
        <time>2016-11-27T10:01:50.000Z</time>
      </trkpt>
      <trkpt lat="46.05315" lon="4.52182">
        <ele>691</ele>
        <time>2016-11-27T10:01:51.000Z</time>
      </trkpt>
      <trkpt lat="46.05318" lon="4.52183">
        <ele>692</ele>
        <time>2016-11-27T10:01:52.000Z</time>
      </trkpt>
      <trkpt lat="46.0532" lon="4.52184">
        <ele>692</ele>
        <time>2016-11-27T10:01:53.000Z</time>
      </trkpt>
      <trkpt lat="46.05323" lon="4.52184">
        <ele>692</ele>
        <time>2016-11-27T10:01:54.000Z</time>
      </trkpt>
      <trkpt lat="46.05326" lon="4.52185">
        <ele>693</ele>
        <time>2016-11-27T10:01:55.000Z</time>
      </trkpt>
      <trkpt lat="46.05328" lon="4.52186">
        <ele>693</ele>
        <time>2016-11-27T10:01:56.000Z</time>
      </trkpt>
      <trkpt lat="46.05331" lon="4.52186">
        <ele>693</ele>
        <time>2016-11-27T10:01:57.000Z</time>
      </trkpt>
      <trkpt lat="46.05334" lon="4.52188">
        <ele>694</ele>
        <time>2016-11-27T10:01:58.000Z</time>
      </trkpt>
      <trkpt lat="46.05338" lon="4.52189">
        <ele>695</ele>
        <time>2016-11-27T10:01:59.000Z</time>
      </trkpt>
      <trkpt lat="46.05342" lon="4.52191">
        <ele>696</ele>
        <time>2016-11-27T10:02:00.000Z</time>
      </trkpt>
      <trkpt lat="46.05346" lon="4.52191">
        <ele>697</ele>
        <time>2016-11-27T10:02:01.000Z</time>
      </trkpt>
      <trkpt lat="46.0535" lon="4.52192">
        <ele>697</ele>
        <time>2016-11-27T10:02:02.000Z</time>
      </trkpt>
      <trkpt lat="46.05354" lon="4.52192">
        <ele>696</ele>
        <time>2016-11-27T10:02:03.000Z</time>
      </trkpt>
      <trkpt lat="46.05358" lon="4.52193">
        <ele>697</ele>
        <time>2016-11-27T10:02:04.000Z</time>
      </trkpt>
      <trkpt lat="46.05361" lon="4.52193">
        <ele>698</ele>
        <time>2016-11-27T10:02:05.000Z</time>
      </trkpt>
      <trkpt lat="46.05364" lon="4.52193">
        <ele>698</ele>
        <time>2016-11-27T10:02:06.000Z</time>
      </trkpt>
      <trkpt lat="46.05366" lon="4.52193">
        <ele>698</ele>
        <time>2016-11-27T10:02:07.000Z</time>
      </trkpt>
      <trkpt lat="46.05369" lon="4.52193">
        <ele>699</ele>
        <time>2016-11-27T10:02:08.000Z</time>
      </trkpt>
      <trkpt lat="46.05371" lon="4.52193">
        <ele>699</ele>
        <time>2016-11-27T10:02:09.000Z</time>
      </trkpt>
      <trkpt lat="46.05374" lon="4.52193">
        <ele>699</ele>
        <time>2016-11-27T10:02:10.000Z</time>
      </trkpt>
      <trkpt lat="46.05377" lon="4.52193">
        <ele>699</ele>
        <time>2016-11-27T10:02:11.000Z</time>
      </trkpt>
      <trkpt lat="46.0538" lon="4.52193">
        <ele>699</ele>
        <time>2016-11-27T10:02:12.000Z</time>
      </trkpt>
      <trkpt lat="46.05383" lon="4.52193">
        <ele>698</ele>
        <time>2016-11-27T10:02:13.000Z</time>
      </trkpt>
      <trkpt lat="46.05386" lon="4.52192">
        <ele>698</ele>
        <time>2016-11-27T10:02:14.000Z</time>
      </trkpt>
      <trkpt lat="46.05389" lon="4.52192">
        <ele>697</ele>
        <time>2016-11-27T10:02:15.000Z</time>
      </trkpt>
      <trkpt lat="46.05392" lon="4.5219">
        <ele>697</ele>
        <time>2016-11-27T10:02:16.000Z</time>
      </trkpt>
      <trkpt lat="46.05395" lon="4.52188">
        <ele>697</ele>
        <time>2016-11-27T10:02:17.000Z</time>
      </trkpt>
      <trkpt lat="46.05397" lon="4.52186">
        <ele>697</ele>
        <time>2016-11-27T10:02:18.000Z</time>
      </trkpt>
      <trkpt lat="46.054" lon="4.52184">
        <ele>697</ele>
        <time>2016-11-27T10:02:19.000Z</time>
      </trkpt>
      <trkpt lat="46.05402" lon="4.52183">
        <ele>696</ele>
        <time>2016-11-27T10:02:20.000Z</time>
      </trkpt>
      <trkpt lat="46.05405" lon="4.52182">
        <ele>695</ele>
        <time>2016-11-27T10:02:21.000Z</time>
      </trkpt>
      <trkpt lat="46.05409" lon="4.52181">
        <ele>695</ele>
        <time>2016-11-27T10:02:22.000Z</time>
      </trkpt>
      <trkpt lat="46.05412" lon="4.52181">
        <ele>694</ele>
        <time>2016-11-27T10:02:23.000Z</time>
      </trkpt>
      <trkpt lat="46.05415" lon="4.52179">
        <ele>694</ele>
        <time>2016-11-27T10:02:24.000Z</time>
      </trkpt>
      <trkpt lat="46.05418" lon="4.52178">
        <ele>694</ele>
        <time>2016-11-27T10:02:25.000Z</time>
      </trkpt>
      <trkpt lat="46.05421" lon="4.52177">
        <ele>693</ele>
        <time>2016-11-27T10:02:26.000Z</time>
      </trkpt>
      <trkpt lat="46.05423" lon="4.52176">
        <ele>693</ele>
        <time>2016-11-27T10:02:27.000Z</time>
      </trkpt>
      <trkpt lat="46.05426" lon="4.52175">
        <ele>694</ele>
        <time>2016-11-27T10:02:28.000Z</time>
      </trkpt>
      <trkpt lat="46.05428" lon="4.52174">
        <ele>693</ele>
        <time>2016-11-27T10:02:29.000Z</time>
      </trkpt>
      <trkpt lat="46.0543" lon="4.52173">
        <ele>693</ele>
        <time>2016-11-27T10:02:30.000Z</time>
      </trkpt>
      <trkpt lat="46.05433" lon="4.52172">
        <ele>692</ele>
        <time>2016-11-27T10:02:31.000Z</time>
      </trkpt>
      <trkpt lat="46.05435" lon="4.5217">
        <ele>691</ele>
        <time>2016-11-27T10:02:32.000Z</time>
      </trkpt>
      <trkpt lat="46.05438" lon="4.52169">
        <ele>691</ele>
        <time>2016-11-27T10:02:33.000Z</time>
      </trkpt>
      <trkpt lat="46.05441" lon="4.52167">
        <ele>689</ele>
        <time>2016-11-27T10:02:34.000Z</time>
      </trkpt>
      <trkpt lat="46.05444" lon="4.52166">
        <ele>686</ele>
        <time>2016-11-27T10:02:35.000Z</time>
      </trkpt>
      <trkpt lat="46.05448" lon="4.52164">
        <ele>686</ele>
        <time>2016-11-27T10:02:36.000Z</time>
      </trkpt>
      <trkpt lat="46.05451" lon="4.52162">
        <ele>687</ele>
        <time>2016-11-27T10:02:37.000Z</time>
      </trkpt>
      <trkpt lat="46.05454" lon="4.5216">
        <ele>686</ele>
        <time>2016-11-27T10:02:38.000Z</time>
      </trkpt>
      <trkpt lat="46.05457" lon="4.52158">
        <ele>687</ele>
        <time>2016-11-27T10:02:39.000Z</time>
      </trkpt>
      <trkpt lat="46.0546" lon="4.52156">
        <ele>687</ele>
        <time>2016-11-27T10:02:40.000Z</time>
      </trkpt>
      <trkpt lat="46.05463" lon="4.52153">
        <ele>688</ele>
        <time>2016-11-27T10:02:41.000Z</time>
      </trkpt>
      <trkpt lat="46.05467" lon="4.52151">
        <ele>689</ele>
        <time>2016-11-27T10:02:42.000Z</time>
      </trkpt>
      <trkpt lat="46.0547" lon="4.52149">
        <ele>688</ele>
        <time>2016-11-27T10:02:43.000Z</time>
      </trkpt>
      <trkpt lat="46.05473" lon="4.52146">
        <ele>689</ele>
        <time>2016-11-27T10:02:44.000Z</time>
      </trkpt>
      <trkpt lat="46.05476" lon="4.52143">
        <ele>691</ele>
        <time>2016-11-27T10:02:45.000Z</time>
      </trkpt>
      <trkpt lat="46.05479" lon="4.52141">
        <ele>691</ele>
        <time>2016-11-27T10:02:46.000Z</time>
      </trkpt>
      <trkpt lat="46.05482" lon="4.52139">
        <ele>692</ele>
        <time>2016-11-27T10:02:47.000Z</time>
      </trkpt>
      <trkpt lat="46.05485" lon="4.52137">
        <ele>692</ele>
        <time>2016-11-27T10:02:48.000Z</time>
      </trkpt>
      <trkpt lat="46.05488" lon="4.52135">
        <ele>691</ele>
        <time>2016-11-27T10:02:49.000Z</time>
      </trkpt>
      <trkpt lat="46.05491" lon="4.52133">
        <ele>691</ele>
        <time>2016-11-27T10:02:50.000Z</time>
      </trkpt>
      <trkpt lat="46.05494" lon="4.52131">
        <ele>692</ele>
        <time>2016-11-27T10:02:51.000Z</time>
      </trkpt>
      <trkpt lat="46.05498" lon="4.52129">
        <ele>691</ele>
        <time>2016-11-27T10:02:52.000Z</time>
      </trkpt>
      <trkpt lat="46.05501" lon="4.52127">
        <ele>692</ele>
        <time>2016-11-27T10:02:53.000Z</time>
      </trkpt>
      <trkpt lat="46.05504" lon="4.52125">
        <ele>693</ele>
        <time>2016-11-27T10:02:54.000Z</time>
      </trkpt>
      <trkpt lat="46.05507" lon="4.52123">
        <ele>694</ele>
        <time>2016-11-27T10:02:55.000Z</time>
      </trkpt>
      <trkpt lat="46.0551" lon="4.52121">
        <ele>695</ele>
        <time>2016-11-27T10:02:56.000Z</time>
      </trkpt>
      <trkpt lat="46.05512" lon="4.5212">
        <ele>696</ele>
        <time>2016-11-27T10:02:57.000Z</time>
      </trkpt>
      <trkpt lat="46.05516" lon="4.52118">
        <ele>698</ele>
        <time>2016-11-27T10:02:58.000Z</time>
      </trkpt>
      <trkpt lat="46.05519" lon="4.52115">
        <ele>698</ele>
        <time>2016-11-27T10:02:59.000Z</time>
      </trkpt>
      <trkpt lat="46.05522" lon="4.52113">
        <ele>699</ele>
        <time>2016-11-27T10:03:00.000Z</time>
      </trkpt>
      <trkpt lat="46.05525" lon="4.52111">
        <ele>700</ele>
        <time>2016-11-27T10:03:01.000Z</time>
      </trkpt>
      <trkpt lat="46.05527" lon="4.52109">
        <ele>700</ele>
        <time>2016-11-27T10:03:02.000Z</time>
      </trkpt>
      <trkpt lat="46.05529" lon="4.52107">
        <ele>701</ele>
        <time>2016-11-27T10:03:03.000Z</time>
      </trkpt>
      <trkpt lat="46.05532" lon="4.52104">
        <ele>701</ele>
        <time>2016-11-27T10:03:04.000Z</time>
      </trkpt>
      <trkpt lat="46.05534" lon="4.52102">
        <ele>701</ele>
        <time>2016-11-27T10:03:05.000Z</time>
      </trkpt>
      <trkpt lat="46.05537" lon="4.521">
        <ele>702</ele>
        <time>2016-11-27T10:03:06.000Z</time>
      </trkpt>
      <trkpt lat="46.05539" lon="4.52099">
        <ele>702</ele>
        <time>2016-11-27T10:03:07.000Z</time>
      </trkpt>
      <trkpt lat="46.05542" lon="4.52097">
        <ele>701</ele>
        <time>2016-11-27T10:03:08.000Z</time>
      </trkpt>
      <trkpt lat="46.05545" lon="4.52095">
        <ele>701</ele>
        <time>2016-11-27T10:03:09.000Z</time>
      </trkpt>
      <trkpt lat="46.05547" lon="4.52093">
        <ele>700</ele>
        <time>2016-11-27T10:03:10.000Z</time>
      </trkpt>
      <trkpt lat="46.05551" lon="4.52091">
        <ele>701</ele>
        <time>2016-11-27T10:03:11.000Z</time>
      </trkpt>
      <trkpt lat="46.05554" lon="4.52089">
        <ele>701</ele>
        <time>2016-11-27T10:03:12.000Z</time>
      </trkpt>
      <trkpt lat="46.05557" lon="4.52087">
        <ele>700</ele>
        <time>2016-11-27T10:03:13.000Z</time>
      </trkpt>
      <trkpt lat="46.0556" lon="4.52085">
        <ele>699</ele>
        <time>2016-11-27T10:03:14.000Z</time>
      </trkpt>
      <trkpt lat="46.05563" lon="4.52084">
        <ele>699</ele>
        <time>2016-11-27T10:03:15.000Z</time>
      </trkpt>
      <trkpt lat="46.05566" lon="4.52082">
        <ele>698</ele>
        <time>2016-11-27T10:03:16.000Z</time>
      </trkpt>
      <trkpt lat="46.05569" lon="4.5208">
        <ele>698</ele>
        <time>2016-11-27T10:03:17.000Z</time>
      </trkpt>
      <trkpt lat="46.05572" lon="4.52078">
        <ele>699</ele>
        <time>2016-11-27T10:03:18.000Z</time>
      </trkpt>
      <trkpt lat="46.05576" lon="4.52076">
        <ele>699</ele>
        <time>2016-11-27T10:03:19.000Z</time>
      </trkpt>
      <trkpt lat="46.05579" lon="4.52074">
        <ele>700</ele>
        <time>2016-11-27T10:03:20.000Z</time>
      </trkpt>
      <trkpt lat="46.05583" lon="4.52073">
        <ele>699</ele>
        <time>2016-11-27T10:03:21.000Z</time>
      </trkpt>
      <trkpt lat="46.05586" lon="4.52071">
        <ele>700</ele>
        <time>2016-11-27T10:03:22.000Z</time>
      </trkpt>
      <trkpt lat="46.05589" lon="4.5207">
        <ele>701</ele>
        <time>2016-11-27T10:03:23.000Z</time>
      </trkpt>
      <trkpt lat="46.05591" lon="4.52068">
        <ele>701</ele>
        <time>2016-11-27T10:03:24.000Z</time>
      </trkpt>
      <trkpt lat="46.05594" lon="4.52067">
        <ele>702</ele>
        <time>2016-11-27T10:03:25.000Z</time>
      </trkpt>
      <trkpt lat="46.05597" lon="4.52067">
        <ele>702</ele>
        <time>2016-11-27T10:03:26.000Z</time>
      </trkpt>
      <trkpt lat="46.05601" lon="4.52067">
        <ele>701</ele>
        <time>2016-11-27T10:03:27.000Z</time>
      </trkpt>
      <trkpt lat="46.05604" lon="4.52067">
        <ele>702</ele>
        <time>2016-11-27T10:03:28.000Z</time>
      </trkpt>
      <trkpt lat="46.05607" lon="4.52068">
        <ele>703</ele>
        <time>2016-11-27T10:03:29.000Z</time>
      </trkpt>
      <trkpt lat="46.0561" lon="4.52069">
        <ele>703</ele>
        <time>2016-11-27T10:03:30.000Z</time>
      </trkpt>
      <trkpt lat="46.05613" lon="4.5207">
        <ele>704</ele>
        <time>2016-11-27T10:03:31.000Z</time>
      </trkpt>
      <trkpt lat="46.05616" lon="4.52071">
        <ele>704</ele>
        <time>2016-11-27T10:03:32.000Z</time>
      </trkpt>
      <trkpt lat="46.05618" lon="4.52074">
        <ele>702</ele>
        <time>2016-11-27T10:03:33.000Z</time>
      </trkpt>
      <trkpt lat="46.05621" lon="4.52075">
        <ele>701</ele>
        <time>2016-11-27T10:03:34.000Z</time>
      </trkpt>
      <trkpt lat="46.05624" lon="4.52078">
        <ele>700</ele>
        <time>2016-11-27T10:03:35.000Z</time>
      </trkpt>
      <trkpt lat="46.05627" lon="4.52081">
        <ele>698</ele>
        <time>2016-11-27T10:03:36.000Z</time>
      </trkpt>
      <trkpt lat="46.0563" lon="4.52084">
        <ele>696</ele>
        <time>2016-11-27T10:03:37.000Z</time>
      </trkpt>
      <trkpt lat="46.05633" lon="4.52087">
        <ele>695</ele>
        <time>2016-11-27T10:03:38.000Z</time>
      </trkpt>
      <trkpt lat="46.05636" lon="4.5209">
        <ele>694</ele>
        <time>2016-11-27T10:03:39.000Z</time>
      </trkpt>
      <trkpt lat="46.05638" lon="4.52092">
        <ele>694</ele>
        <time>2016-11-27T10:03:40.000Z</time>
      </trkpt>
      <trkpt lat="46.05641" lon="4.52095">
        <ele>693</ele>
        <time>2016-11-27T10:03:41.000Z</time>
      </trkpt>
      <trkpt lat="46.05643" lon="4.52097">
        <ele>694</ele>
        <time>2016-11-27T10:03:42.000Z</time>
      </trkpt>
      <trkpt lat="46.05645" lon="4.521">
        <ele>693</ele>
        <time>2016-11-27T10:03:43.000Z</time>
      </trkpt>
      <trkpt lat="46.05647" lon="4.52103">
        <ele>693</ele>
        <time>2016-11-27T10:03:44.000Z</time>
      </trkpt>
      <trkpt lat="46.05648" lon="4.52106">
        <ele>693</ele>
        <time>2016-11-27T10:03:45.000Z</time>
      </trkpt>
      <trkpt lat="46.05651" lon="4.52108">
        <ele>693</ele>
        <time>2016-11-27T10:03:46.000Z</time>
      </trkpt>
      <trkpt lat="46.05653" lon="4.52111">
        <ele>693</ele>
        <time>2016-11-27T10:03:47.000Z</time>
      </trkpt>
      <trkpt lat="46.05655" lon="4.52114">
        <ele>693</ele>
        <time>2016-11-27T10:03:48.000Z</time>
      </trkpt>
      <trkpt lat="46.05657" lon="4.52117">
        <ele>692</ele>
        <time>2016-11-27T10:03:49.000Z</time>
      </trkpt>
      <trkpt lat="46.05659" lon="4.5212">
        <ele>692</ele>
        <time>2016-11-27T10:03:50.000Z</time>
      </trkpt>
      <trkpt lat="46.0566" lon="4.52124">
        <ele>692</ele>
        <time>2016-11-27T10:03:51.000Z</time>
      </trkpt>
      <trkpt lat="46.05662" lon="4.52128">
        <ele>692</ele>
        <time>2016-11-27T10:03:52.000Z</time>
      </trkpt>
      <trkpt lat="46.05663" lon="4.52132">
        <ele>692</ele>
        <time>2016-11-27T10:03:53.000Z</time>
      </trkpt>
      <trkpt lat="46.05664" lon="4.52136">
        <ele>692</ele>
        <time>2016-11-27T10:03:54.000Z</time>
      </trkpt>
      <trkpt lat="46.05666" lon="4.52139">
        <ele>692</ele>
        <time>2016-11-27T10:03:55.000Z</time>
      </trkpt>
      <trkpt lat="46.05667" lon="4.52143">
        <ele>691</ele>
        <time>2016-11-27T10:03:56.000Z</time>
      </trkpt>
      <trkpt lat="46.05668" lon="4.52146">
        <ele>692</ele>
        <time>2016-11-27T10:03:57.000Z</time>
      </trkpt>
      <trkpt lat="46.0567" lon="4.5215">
        <ele>692</ele>
        <time>2016-11-27T10:03:58.000Z</time>
      </trkpt>
      <trkpt lat="46.05671" lon="4.52153">
        <ele>692</ele>
        <time>2016-11-27T10:03:59.000Z</time>
      </trkpt>
      <trkpt lat="46.05672" lon="4.52157">
        <ele>692</ele>
        <time>2016-11-27T10:04:00.000Z</time>
      </trkpt>
      <trkpt lat="46.05673" lon="4.52161">
        <ele>692</ele>
        <time>2016-11-27T10:04:01.000Z</time>
      </trkpt>
      <trkpt lat="46.05674" lon="4.52164">
        <ele>693</ele>
        <time>2016-11-27T10:04:02.000Z</time>
      </trkpt>
      <trkpt lat="46.05675" lon="4.52168">
        <ele>692</ele>
        <time>2016-11-27T10:04:03.000Z</time>
      </trkpt>
      <trkpt lat="46.05677" lon="4.52172">
        <ele>692</ele>
        <time>2016-11-27T10:04:04.000Z</time>
      </trkpt>
      <trkpt lat="46.05678" lon="4.52175">
        <ele>692</ele>
        <time>2016-11-27T10:04:05.000Z</time>
      </trkpt>
      <trkpt lat="46.0568" lon="4.52179">
        <ele>693</ele>
        <time>2016-11-27T10:04:06.000Z</time>
      </trkpt>
      <trkpt lat="46.05681" lon="4.52182">
        <ele>693</ele>
        <time>2016-11-27T10:04:07.000Z</time>
      </trkpt>
      <trkpt lat="46.05682" lon="4.52186">
        <ele>692</ele>
        <time>2016-11-27T10:04:08.000Z</time>
      </trkpt>
      <trkpt lat="46.05684" lon="4.5219">
        <ele>692</ele>
        <time>2016-11-27T10:04:09.000Z</time>
      </trkpt>
      <trkpt lat="46.05685" lon="4.52193">
        <ele>692</ele>
        <time>2016-11-27T10:04:10.000Z</time>
      </trkpt>
      <trkpt lat="46.05687" lon="4.52197">
        <ele>692</ele>
        <time>2016-11-27T10:04:11.000Z</time>
      </trkpt>
      <trkpt lat="46.05688" lon="4.522">
        <ele>692</ele>
        <time>2016-11-27T10:04:12.000Z</time>
      </trkpt>
      <trkpt lat="46.0569" lon="4.52204">
        <ele>693</ele>
        <time>2016-11-27T10:04:13.000Z</time>
      </trkpt>
      <trkpt lat="46.05691" lon="4.52207">
        <ele>693</ele>
        <time>2016-11-27T10:04:14.000Z</time>
      </trkpt>
      <trkpt lat="46.05692" lon="4.52211">
        <ele>693</ele>
        <time>2016-11-27T10:04:15.000Z</time>
      </trkpt>
      <trkpt lat="46.05693" lon="4.52215">
        <ele>693</ele>
        <time>2016-11-27T10:04:16.000Z</time>
      </trkpt>
      <trkpt lat="46.05693" lon="4.52219">
        <ele>693</ele>
        <time>2016-11-27T10:04:17.000Z</time>
      </trkpt>
      <trkpt lat="46.05694" lon="4.52222">
        <ele>693</ele>
        <time>2016-11-27T10:04:18.000Z</time>
      </trkpt>
      <trkpt lat="46.05695" lon="4.52226">
        <ele>693</ele>
        <time>2016-11-27T10:04:19.000Z</time>
      </trkpt>
      <trkpt lat="46.05696" lon="4.5223">
        <ele>693</ele>
        <time>2016-11-27T10:04:20.000Z</time>
      </trkpt>
      <trkpt lat="46.05697" lon="4.52234">
        <ele>694</ele>
        <time>2016-11-27T10:04:21.000Z</time>
      </trkpt>
      <trkpt lat="46.05697" lon="4.52238">
        <ele>694</ele>
        <time>2016-11-27T10:04:22.000Z</time>
      </trkpt>
      <trkpt lat="46.05698" lon="4.52242">
        <ele>695</ele>
        <time>2016-11-27T10:04:23.000Z</time>
      </trkpt>
      <trkpt lat="46.05699" lon="4.52246">
        <ele>695</ele>
        <time>2016-11-27T10:04:24.000Z</time>
      </trkpt>
      <trkpt lat="46.057" lon="4.52249">
        <ele>696</ele>
        <time>2016-11-27T10:04:25.000Z</time>
      </trkpt>
      <trkpt lat="46.05701" lon="4.52253">
        <ele>696</ele>
        <time>2016-11-27T10:04:26.000Z</time>
      </trkpt>
      <trkpt lat="46.05702" lon="4.52257">
        <ele>697</ele>
        <time>2016-11-27T10:04:27.000Z</time>
      </trkpt>
      <trkpt lat="46.05702" lon="4.5226">
        <ele>697</ele>
        <time>2016-11-27T10:04:28.000Z</time>
      </trkpt>
      <trkpt lat="46.05703" lon="4.52264">
        <ele>697</ele>
        <time>2016-11-27T10:04:29.000Z</time>
      </trkpt>
      <trkpt lat="46.05704" lon="4.52267">
        <ele>697</ele>
        <time>2016-11-27T10:04:30.000Z</time>
      </trkpt>
      <trkpt lat="46.05706" lon="4.5227">
        <ele>697</ele>
        <time>2016-11-27T10:04:31.000Z</time>
      </trkpt>
      <trkpt lat="46.05707" lon="4.52273">
        <ele>697</ele>
        <time>2016-11-27T10:04:32.000Z</time>
      </trkpt>
      <trkpt lat="46.05707" lon="4.52277">
        <ele>697</ele>
        <time>2016-11-27T10:04:33.000Z</time>
      </trkpt>
      <trkpt lat="46.05708" lon="4.52281">
        <ele>697</ele>
        <time>2016-11-27T10:04:34.000Z</time>
      </trkpt>
      <trkpt lat="46.05709" lon="4.52285">
        <ele>696</ele>
        <time>2016-11-27T10:04:35.000Z</time>
      </trkpt>
      <trkpt lat="46.0571" lon="4.52289">
        <ele>696</ele>
        <time>2016-11-27T10:04:36.000Z</time>
      </trkpt>
      <trkpt lat="46.05711" lon="4.52292">
        <ele>695</ele>
        <time>2016-11-27T10:04:37.000Z</time>
      </trkpt>
      <trkpt lat="46.05712" lon="4.52296">
        <ele>695</ele>
        <time>2016-11-27T10:04:38.000Z</time>
      </trkpt>
      <trkpt lat="46.05713" lon="4.52299">
        <ele>695</ele>
        <time>2016-11-27T10:04:39.000Z</time>
      </trkpt>
      <trkpt lat="46.05714" lon="4.52303">
        <ele>696</ele>
        <time>2016-11-27T10:04:40.000Z</time>
      </trkpt>
      <trkpt lat="46.05715" lon="4.52307">
        <ele>696</ele>
        <time>2016-11-27T10:04:41.000Z</time>
      </trkpt>
      <trkpt lat="46.05716" lon="4.52311">
        <ele>697</ele>
        <time>2016-11-27T10:04:42.000Z</time>
      </trkpt>
      <trkpt lat="46.05717" lon="4.52314">
        <ele>697</ele>
        <time>2016-11-27T10:04:43.000Z</time>
      </trkpt>
      <trkpt lat="46.05718" lon="4.52317">
        <ele>697</ele>
        <time>2016-11-27T10:04:44.000Z</time>
      </trkpt>
      <trkpt lat="46.05719" lon="4.52321">
        <ele>697</ele>
        <time>2016-11-27T10:04:45.000Z</time>
      </trkpt>
      <trkpt lat="46.05721" lon="4.52324">
        <ele>697</ele>
        <time>2016-11-27T10:04:46.000Z</time>
      </trkpt>
      <trkpt lat="46.05722" lon="4.52328">
        <ele>697</ele>
        <time>2016-11-27T10:04:47.000Z</time>
      </trkpt>
      <trkpt lat="46.05722" lon="4.52332">
        <ele>697</ele>
        <time>2016-11-27T10:04:48.000Z</time>
      </trkpt>
      <trkpt lat="46.05723" lon="4.52335">
        <ele>697</ele>
        <time>2016-11-27T10:04:49.000Z</time>
      </trkpt>
      <trkpt lat="46.05724" lon="4.52339">
        <ele>697</ele>
        <time>2016-11-27T10:04:50.000Z</time>
      </trkpt>
      <trkpt lat="46.05724" lon="4.52343">
        <ele>698</ele>
        <time>2016-11-27T10:04:51.000Z</time>
      </trkpt>
      <trkpt lat="46.05725" lon="4.52346">
        <ele>698</ele>
        <time>2016-11-27T10:04:52.000Z</time>
      </trkpt>
      <trkpt lat="46.05725" lon="4.52349">
        <ele>699</ele>
        <time>2016-11-27T10:04:53.000Z</time>
      </trkpt>
      <trkpt lat="46.05726" lon="4.52353">
        <ele>699</ele>
        <time>2016-11-27T10:04:54.000Z</time>
      </trkpt>
      <trkpt lat="46.05726" lon="4.52356">
        <ele>699</ele>
        <time>2016-11-27T10:04:55.000Z</time>
      </trkpt>
      <trkpt lat="46.05726" lon="4.5236">
        <ele>699</ele>
        <time>2016-11-27T10:04:56.000Z</time>
      </trkpt>
      <trkpt lat="46.05727" lon="4.52364">
        <ele>699</ele>
        <time>2016-11-27T10:04:57.000Z</time>
      </trkpt>
      <trkpt lat="46.05727" lon="4.52368">
        <ele>700</ele>
        <time>2016-11-27T10:04:58.000Z</time>
      </trkpt>
      <trkpt lat="46.05727" lon="4.52372">
        <ele>700</ele>
        <time>2016-11-27T10:04:59.000Z</time>
      </trkpt>
      <trkpt lat="46.05726" lon="4.52376">
        <ele>702</ele>
        <time>2016-11-27T10:05:00.000Z</time>
      </trkpt>
      <trkpt lat="46.05726" lon="4.52379">
        <ele>702</ele>
        <time>2016-11-27T10:05:01.000Z</time>
      </trkpt>
      <trkpt lat="46.05725" lon="4.52383">
        <ele>703</ele>
        <time>2016-11-27T10:05:02.000Z</time>
      </trkpt>
      <trkpt lat="46.05725" lon="4.52387">
        <ele>702</ele>
        <time>2016-11-27T10:05:03.000Z</time>
      </trkpt>
      <trkpt lat="46.05725" lon="4.52391">
        <ele>703</ele>
        <time>2016-11-27T10:05:04.000Z</time>
      </trkpt>
      <trkpt lat="46.05724" lon="4.52395">
        <ele>703</ele>
        <time>2016-11-27T10:05:05.000Z</time>
      </trkpt>
      <trkpt lat="46.05723" lon="4.52398">
        <ele>705</ele>
        <time>2016-11-27T10:05:06.000Z</time>
      </trkpt>
      <trkpt lat="46.05722" lon="4.52402">
        <ele>705</ele>
        <time>2016-11-27T10:05:07.000Z</time>
      </trkpt>
      <trkpt lat="46.05722" lon="4.52405">
        <ele>705</ele>
        <time>2016-11-27T10:05:08.000Z</time>
      </trkpt>
      <trkpt lat="46.05721" lon="4.52408">
        <ele>705</ele>
        <time>2016-11-27T10:05:09.000Z</time>
      </trkpt>
      <trkpt lat="46.0572" lon="4.52412">
        <ele>705</ele>
        <time>2016-11-27T10:05:10.000Z</time>
      </trkpt>
      <trkpt lat="46.05719" lon="4.52416">
        <ele>706</ele>
        <time>2016-11-27T10:05:11.000Z</time>
      </trkpt>
      <trkpt lat="46.05717" lon="4.5242">
        <ele>705</ele>
        <time>2016-11-27T10:05:12.000Z</time>
      </trkpt>
      <trkpt lat="46.05717" lon="4.52423">
        <ele>705</ele>
        <time>2016-11-27T10:05:13.000Z</time>
      </trkpt>
      <trkpt lat="46.05716" lon="4.52426">
        <ele>706</ele>
        <time>2016-11-27T10:05:14.000Z</time>
      </trkpt>
      <trkpt lat="46.05715" lon="4.5243">
        <ele>707</ele>
        <time>2016-11-27T10:05:15.000Z</time>
      </trkpt>
      <trkpt lat="46.05713" lon="4.52434">
        <ele>708</ele>
        <time>2016-11-27T10:05:16.000Z</time>
      </trkpt>
      <trkpt lat="46.05711" lon="4.52439">
        <ele>709</ele>
        <time>2016-11-27T10:05:17.000Z</time>
      </trkpt>
      <trkpt lat="46.0571" lon="4.52443">
        <ele>710</ele>
        <time>2016-11-27T10:05:18.000Z</time>
      </trkpt>
      <trkpt lat="46.05709" lon="4.52447">
        <ele>711</ele>
        <time>2016-11-27T10:05:19.000Z</time>
      </trkpt>
      <trkpt lat="46.05707" lon="4.5245">
        <ele>711</ele>
        <time>2016-11-27T10:05:20.000Z</time>
      </trkpt>
      <trkpt lat="46.05705" lon="4.52454">
        <ele>711</ele>
        <time>2016-11-27T10:05:21.000Z</time>
      </trkpt>
      <trkpt lat="46.05703" lon="4.52458">
        <ele>712</ele>
        <time>2016-11-27T10:05:22.000Z</time>
      </trkpt>
      <trkpt lat="46.05701" lon="4.52461">
        <ele>711</ele>
        <time>2016-11-27T10:05:23.000Z</time>
      </trkpt>
      <trkpt lat="46.057" lon="4.52465">
        <ele>711</ele>
        <time>2016-11-27T10:05:24.000Z</time>
      </trkpt>
      <trkpt lat="46.05698" lon="4.52468">
        <ele>711</ele>
        <time>2016-11-27T10:05:25.000Z</time>
      </trkpt>
      <trkpt lat="46.05695" lon="4.52472">
        <ele>709</ele>
        <time>2016-11-27T10:05:26.000Z</time>
      </trkpt>
      <trkpt lat="46.05693" lon="4.52475">
        <ele>711</ele>
        <time>2016-11-27T10:05:27.000Z</time>
      </trkpt>
      <trkpt lat="46.05691" lon="4.52478">
        <ele>711</ele>
        <time>2016-11-27T10:05:28.000Z</time>
      </trkpt>
      <trkpt lat="46.05689" lon="4.52482">
        <ele>711</ele>
        <time>2016-11-27T10:05:29.000Z</time>
      </trkpt>
      <trkpt lat="46.05687" lon="4.52486">
        <ele>711</ele>
        <time>2016-11-27T10:05:30.000Z</time>
      </trkpt>
      <trkpt lat="46.05685" lon="4.5249">
        <ele>711</ele>
        <time>2016-11-27T10:05:31.000Z</time>
      </trkpt>
      <trkpt lat="46.05683" lon="4.52494">
        <ele>711</ele>
        <time>2016-11-27T10:05:32.000Z</time>
      </trkpt>
      <trkpt lat="46.05681" lon="4.52498">
        <ele>711</ele>
        <time>2016-11-27T10:05:33.000Z</time>
      </trkpt>
      <trkpt lat="46.05679" lon="4.52502">
        <ele>711</ele>
        <time>2016-11-27T10:05:34.000Z</time>
      </trkpt>
      <trkpt lat="46.05676" lon="4.52505">
        <ele>710</ele>
        <time>2016-11-27T10:05:35.000Z</time>
      </trkpt>
      <trkpt lat="46.05675" lon="4.52509">
        <ele>710</ele>
        <time>2016-11-27T10:05:36.000Z</time>
      </trkpt>
      <trkpt lat="46.05672" lon="4.52512">
        <ele>711</ele>
        <time>2016-11-27T10:05:37.000Z</time>
      </trkpt>
      <trkpt lat="46.05671" lon="4.52516">
        <ele>710</ele>
        <time>2016-11-27T10:05:38.000Z</time>
      </trkpt>
      <trkpt lat="46.05668" lon="4.52519">
        <ele>710</ele>
        <time>2016-11-27T10:05:39.000Z</time>
      </trkpt>
      <trkpt lat="46.05666" lon="4.52522">
        <ele>710</ele>
        <time>2016-11-27T10:05:40.000Z</time>
      </trkpt>
      <trkpt lat="46.05664" lon="4.52525">
        <ele>709</ele>
        <time>2016-11-27T10:05:41.000Z</time>
      </trkpt>
      <trkpt lat="46.05662" lon="4.52529">
        <ele>709</ele>
        <time>2016-11-27T10:05:42.000Z</time>
      </trkpt>
      <trkpt lat="46.0566" lon="4.52532">
        <ele>710</ele>
        <time>2016-11-27T10:05:43.000Z</time>
      </trkpt>
      <trkpt lat="46.05658" lon="4.52535">
        <ele>709</ele>
        <time>2016-11-27T10:05:44.000Z</time>
      </trkpt>
      <trkpt lat="46.05656" lon="4.52538">
        <ele>709</ele>
        <time>2016-11-27T10:05:45.000Z</time>
      </trkpt>
      <trkpt lat="46.05654" lon="4.52541">
        <ele>709</ele>
        <time>2016-11-27T10:05:46.000Z</time>
      </trkpt>
      <trkpt lat="46.05652" lon="4.52544">
        <ele>708</ele>
        <time>2016-11-27T10:05:47.000Z</time>
      </trkpt>
      <trkpt lat="46.0565" lon="4.52547">
        <ele>708</ele>
        <time>2016-11-27T10:05:48.000Z</time>
      </trkpt>
      <trkpt lat="46.05648" lon="4.5255">
        <ele>708</ele>
        <time>2016-11-27T10:05:49.000Z</time>
      </trkpt>
      <trkpt lat="46.05646" lon="4.52554">
        <ele>708</ele>
        <time>2016-11-27T10:05:50.000Z</time>
      </trkpt>
      <trkpt lat="46.05644" lon="4.52557">
        <ele>707</ele>
        <time>2016-11-27T10:05:51.000Z</time>
      </trkpt>
      <trkpt lat="46.05642" lon="4.52561">
        <ele>707</ele>
        <time>2016-11-27T10:05:52.000Z</time>
      </trkpt>
      <trkpt lat="46.0564" lon="4.52564">
        <ele>706</ele>
        <time>2016-11-27T10:05:53.000Z</time>
      </trkpt>
      <trkpt lat="46.05637" lon="4.52568">
        <ele>706</ele>
        <time>2016-11-27T10:05:54.000Z</time>
      </trkpt>
      <trkpt lat="46.05635" lon="4.52571">
        <ele>706</ele>
        <time>2016-11-27T10:05:55.000Z</time>
      </trkpt>
      <trkpt lat="46.05633" lon="4.52574">
        <ele>707</ele>
        <time>2016-11-27T10:05:56.000Z</time>
      </trkpt>
      <trkpt lat="46.05632" lon="4.52577">
        <ele>707</ele>
        <time>2016-11-27T10:05:57.000Z</time>
      </trkpt>
      <trkpt lat="46.0563" lon="4.5258">
        <ele>707</ele>
        <time>2016-11-27T10:05:58.000Z</time>
      </trkpt>
      <trkpt lat="46.05628" lon="4.52583">
        <ele>707</ele>
        <time>2016-11-27T10:05:59.000Z</time>
      </trkpt>
      <trkpt lat="46.05627" lon="4.52586">
        <ele>707</ele>
        <time>2016-11-27T10:06:00.000Z</time>
      </trkpt>
      <trkpt lat="46.05625" lon="4.52589">
        <ele>708</ele>
        <time>2016-11-27T10:06:01.000Z</time>
      </trkpt>
      <trkpt lat="46.05624" lon="4.52592">
        <ele>708</ele>
        <time>2016-11-27T10:06:02.000Z</time>
      </trkpt>
      <trkpt lat="46.05622" lon="4.52595">
        <ele>708</ele>
        <time>2016-11-27T10:06:03.000Z</time>
      </trkpt>
      <trkpt lat="46.0562" lon="4.52598">
        <ele>708</ele>
        <time>2016-11-27T10:06:04.000Z</time>
      </trkpt>
      <trkpt lat="46.05618" lon="4.52601">
        <ele>709</ele>
        <time>2016-11-27T10:06:05.000Z</time>
      </trkpt>
      <trkpt lat="46.05617" lon="4.52604">
        <ele>708</ele>
        <time>2016-11-27T10:06:06.000Z</time>
      </trkpt>
      <trkpt lat="46.05615" lon="4.52607">
        <ele>708</ele>
        <time>2016-11-27T10:06:07.000Z</time>
      </trkpt>
      <trkpt lat="46.05614" lon="4.52611">
        <ele>707</ele>
        <time>2016-11-27T10:06:08.000Z</time>
      </trkpt>
      <trkpt lat="46.05612" lon="4.52614">
        <ele>708</ele>
        <time>2016-11-27T10:06:09.000Z</time>
      </trkpt>
      <trkpt lat="46.05609" lon="4.52618">
        <ele>707</ele>
        <time>2016-11-27T10:06:10.000Z</time>
      </trkpt>
      <trkpt lat="46.05608" lon="4.52621">
        <ele>707</ele>
        <time>2016-11-27T10:06:11.000Z</time>
      </trkpt>
      <trkpt lat="46.05606" lon="4.52624">
        <ele>707</ele>
        <time>2016-11-27T10:06:12.000Z</time>
      </trkpt>
      <trkpt lat="46.05605" lon="4.52627">
        <ele>707</ele>
        <time>2016-11-27T10:06:13.000Z</time>
      </trkpt>
      <trkpt lat="46.05604" lon="4.52629">
        <ele>707</ele>
        <time>2016-11-27T10:06:14.000Z</time>
      </trkpt>
      <trkpt lat="46.05603" lon="4.52632">
        <ele>707</ele>
        <time>2016-11-27T10:06:15.000Z</time>
      </trkpt>
      <trkpt lat="46.05602" lon="4.52635">
        <ele>708</ele>
        <time>2016-11-27T10:06:16.000Z</time>
      </trkpt>
      <trkpt lat="46.05601" lon="4.52638">
        <ele>708</ele>
        <time>2016-11-27T10:06:17.000Z</time>
      </trkpt>
      <trkpt lat="46.056" lon="4.52641">
        <ele>708</ele>
        <time>2016-11-27T10:06:18.000Z</time>
      </trkpt>
      <trkpt lat="46.056" lon="4.52644">
        <ele>707</ele>
        <time>2016-11-27T10:06:19.000Z</time>
      </trkpt>
      <trkpt lat="46.05599" lon="4.52647">
        <ele>708</ele>
        <time>2016-11-27T10:06:20.000Z</time>
      </trkpt>
      <trkpt lat="46.05598" lon="4.5265">
        <ele>708</ele>
        <time>2016-11-27T10:06:21.000Z</time>
      </trkpt>
      <trkpt lat="46.05598" lon="4.52653">
        <ele>707</ele>
        <time>2016-11-27T10:06:22.000Z</time>
      </trkpt>
      <trkpt lat="46.05597" lon="4.52656">
        <ele>708</ele>
        <time>2016-11-27T10:06:23.000Z</time>
      </trkpt>
      <trkpt lat="46.05597" lon="4.5266">
        <ele>707</ele>
        <time>2016-11-27T10:06:24.000Z</time>
      </trkpt>
      <trkpt lat="46.05596" lon="4.52663">
        <ele>707</ele>
        <time>2016-11-27T10:06:25.000Z</time>
      </trkpt>
      <trkpt lat="46.05596" lon="4.52666">
        <ele>708</ele>
        <time>2016-11-27T10:06:26.000Z</time>
      </trkpt>
      <trkpt lat="46.05595" lon="4.5267">
        <ele>709</ele>
        <time>2016-11-27T10:06:27.000Z</time>
      </trkpt>
      <trkpt lat="46.05594" lon="4.52675">
        <ele>709</ele>
        <time>2016-11-27T10:06:28.000Z</time>
      </trkpt>
      <trkpt lat="46.05592" lon="4.52679">
        <ele>709</ele>
        <time>2016-11-27T10:06:29.000Z</time>
      </trkpt>
      <trkpt lat="46.05592" lon="4.52683">
        <ele>709</ele>
        <time>2016-11-27T10:06:30.000Z</time>
      </trkpt>
      <trkpt lat="46.05591" lon="4.52687">
        <ele>710</ele>
        <time>2016-11-27T10:06:31.000Z</time>
      </trkpt>
      <trkpt lat="46.0559" lon="4.52692">
        <ele>710</ele>
        <time>2016-11-27T10:06:32.000Z</time>
      </trkpt>
      <trkpt lat="46.05589" lon="4.52696">
        <ele>711</ele>
        <time>2016-11-27T10:06:33.000Z</time>
      </trkpt>
      <trkpt lat="46.05588" lon="4.527">
        <ele>711</ele>
        <time>2016-11-27T10:06:34.000Z</time>
      </trkpt>
      <trkpt lat="46.05587" lon="4.52705">
        <ele>712</ele>
        <time>2016-11-27T10:06:35.000Z</time>
      </trkpt>
      <trkpt lat="46.05586" lon="4.52708">
        <ele>712</ele>
        <time>2016-11-27T10:06:36.000Z</time>
      </trkpt>
      <trkpt lat="46.05585" lon="4.52712">
        <ele>713</ele>
        <time>2016-11-27T10:06:37.000Z</time>
      </trkpt>
      <trkpt lat="46.05584" lon="4.52716">
        <ele>714</ele>
        <time>2016-11-27T10:06:38.000Z</time>
      </trkpt>
      <trkpt lat="46.05583" lon="4.52721">
        <ele>715</ele>
        <time>2016-11-27T10:06:39.000Z</time>
      </trkpt>
      <trkpt lat="46.05582" lon="4.52725">
        <ele>715</ele>
        <time>2016-11-27T10:06:40.000Z</time>
      </trkpt>
      <trkpt lat="46.05582" lon="4.52728">
        <ele>715</ele>
        <time>2016-11-27T10:06:41.000Z</time>
      </trkpt>
      <trkpt lat="46.05582" lon="4.52732">
        <ele>716</ele>
        <time>2016-11-27T10:06:42.000Z</time>
      </trkpt>
      <trkpt lat="46.05581" lon="4.52735">
        <ele>716</ele>
        <time>2016-11-27T10:06:43.000Z</time>
      </trkpt>
      <trkpt lat="46.05581" lon="4.52739">
        <ele>716</ele>
        <time>2016-11-27T10:06:44.000Z</time>
      </trkpt>
      <trkpt lat="46.0558" lon="4.52743">
        <ele>717</ele>
        <time>2016-11-27T10:06:45.000Z</time>
      </trkpt>
      <trkpt lat="46.0558" lon="4.52747">
        <ele>717</ele>
        <time>2016-11-27T10:06:46.000Z</time>
      </trkpt>
      <trkpt lat="46.0558" lon="4.52751">
        <ele>717</ele>
        <time>2016-11-27T10:06:47.000Z</time>
      </trkpt>
      <trkpt lat="46.05579" lon="4.52754">
        <ele>717</ele>
        <time>2016-11-27T10:06:48.000Z</time>
      </trkpt>
      <trkpt lat="46.05578" lon="4.52757">
        <ele>717</ele>
        <time>2016-11-27T10:06:49.000Z</time>
      </trkpt>
      <trkpt lat="46.05577" lon="4.52761">
        <ele>717</ele>
        <time>2016-11-27T10:06:50.000Z</time>
      </trkpt>
      <trkpt lat="46.05576" lon="4.52765">
        <ele>717</ele>
        <time>2016-11-27T10:06:51.000Z</time>
      </trkpt>
      <trkpt lat="46.05575" lon="4.52769">
        <ele>716</ele>
        <time>2016-11-27T10:06:52.000Z</time>
      </trkpt>
      <trkpt lat="46.05574" lon="4.52772">
        <ele>716</ele>
        <time>2016-11-27T10:06:53.000Z</time>
      </trkpt>
      <trkpt lat="46.05573" lon="4.52776">
        <ele>716</ele>
        <time>2016-11-27T10:06:54.000Z</time>
      </trkpt>
      <trkpt lat="46.05573" lon="4.5278">
        <ele>716</ele>
        <time>2016-11-27T10:06:55.000Z</time>
      </trkpt>
      <trkpt lat="46.05572" lon="4.52783">
        <ele>716</ele>
        <time>2016-11-27T10:06:56.000Z</time>
      </trkpt>
      <trkpt lat="46.05571" lon="4.52786">
        <ele>716</ele>
        <time>2016-11-27T10:06:57.000Z</time>
      </trkpt>
      <trkpt lat="46.0557" lon="4.52789">
        <ele>717</ele>
        <time>2016-11-27T10:06:58.000Z</time>
      </trkpt>
      <trkpt lat="46.0557" lon="4.52793">
        <ele>717</ele>
        <time>2016-11-27T10:06:59.000Z</time>
      </trkpt>
      <trkpt lat="46.05569" lon="4.52796">
        <ele>717</ele>
        <time>2016-11-27T10:07:00.000Z</time>
      </trkpt>
      <trkpt lat="46.05568" lon="4.528">
        <ele>717</ele>
        <time>2016-11-27T10:07:01.000Z</time>
      </trkpt>
      <trkpt lat="46.05567" lon="4.52803">
        <ele>717</ele>
        <time>2016-11-27T10:07:02.000Z</time>
      </trkpt>
      <trkpt lat="46.05566" lon="4.52806">
        <ele>717</ele>
        <time>2016-11-27T10:07:03.000Z</time>
      </trkpt>
      <trkpt lat="46.05566" lon="4.52808">
        <ele>717</ele>
        <time>2016-11-27T10:07:04.000Z</time>
      </trkpt>
      <trkpt lat="46.05565" lon="4.5281">
        <ele>717</ele>
        <time>2016-11-27T10:07:05.000Z</time>
      </trkpt>
      <trkpt lat="46.05565" lon="4.52811">
        <ele>717</ele>
        <time>2016-11-27T10:07:06.000Z</time>
      </trkpt>
      <trkpt lat="46.05564" lon="4.52813">
        <ele>716</ele>
        <time>2016-11-27T10:07:07.000Z</time>
      </trkpt>
      <trkpt lat="46.05563" lon="4.52814">
        <ele>716</ele>
        <time>2016-11-27T10:07:08.000Z</time>
      </trkpt>
      <trkpt lat="46.05563" lon="4.52816">
        <ele>717</ele>
        <time>2016-11-27T10:07:09.000Z</time>
      </trkpt>
      <trkpt lat="46.05563" lon="4.52818">
        <ele>718</ele>
        <time>2016-11-27T10:07:10.000Z</time>
      </trkpt>
      <trkpt lat="46.05562" lon="4.5282">
        <ele>717</ele>
        <time>2016-11-27T10:07:11.000Z</time>
      </trkpt>
      <trkpt lat="46.05562" lon="4.52821">
        <ele>717</ele>
        <time>2016-11-27T10:07:12.000Z</time>
      </trkpt>
      <trkpt lat="46.05562" lon="4.52824">
        <ele>716</ele>
        <time>2016-11-27T10:07:13.000Z</time>
      </trkpt>
      <trkpt lat="46.05561" lon="4.52826">
        <ele>716</ele>
        <time>2016-11-27T10:07:14.000Z</time>
      </trkpt>
      <trkpt lat="46.0556" lon="4.52828">
        <ele>715</ele>
        <time>2016-11-27T10:07:15.000Z</time>
      </trkpt>
      <trkpt lat="46.0556" lon="4.52829">
        <ele>715</ele>
        <time>2016-11-27T10:07:16.000Z</time>
      </trkpt>
      <trkpt lat="46.05559" lon="4.52831">
        <ele>715</ele>
        <time>2016-11-27T10:07:17.000Z</time>
      </trkpt>
      <trkpt lat="46.05559" lon="4.52833">
        <ele>715</ele>
        <time>2016-11-27T10:07:18.000Z</time>
      </trkpt>
      <trkpt lat="46.05559" lon="4.52835">
        <ele>716</ele>
        <time>2016-11-27T10:07:19.000Z</time>
      </trkpt>
      <trkpt lat="46.05559" lon="4.52836">
        <ele>715</ele>
        <time>2016-11-27T10:07:20.000Z</time>
      </trkpt>
      <trkpt lat="46.05558" lon="4.52839">
        <ele>715</ele>
        <time>2016-11-27T10:07:21.000Z</time>
      </trkpt>
      <trkpt lat="46.05558" lon="4.52841">
        <ele>715</ele>
        <time>2016-11-27T10:07:22.000Z</time>
      </trkpt>
      <trkpt lat="46.05557" lon="4.52843">
        <ele>716</ele>
        <time>2016-11-27T10:07:23.000Z</time>
      </trkpt>
      <trkpt lat="46.05556" lon="4.52846">
        <ele>716</ele>
        <time>2016-11-27T10:07:24.000Z</time>
      </trkpt>
      <trkpt lat="46.05556" lon="4.52849">
        <ele>717</ele>
        <time>2016-11-27T10:07:25.000Z</time>
      </trkpt>
      <trkpt lat="46.05555" lon="4.52853">
        <ele>717</ele>
        <time>2016-11-27T10:07:26.000Z</time>
      </trkpt>
      <trkpt lat="46.05555" lon="4.52856">
        <ele>719</ele>
        <time>2016-11-27T10:07:27.000Z</time>
      </trkpt>
      <trkpt lat="46.05554" lon="4.5286">
        <ele>719</ele>
        <time>2016-11-27T10:07:28.000Z</time>
      </trkpt>
      <trkpt lat="46.05554" lon="4.52864">
        <ele>719</ele>
        <time>2016-11-27T10:07:29.000Z</time>
      </trkpt>
      <trkpt lat="46.05553" lon="4.52867">
        <ele>720</ele>
        <time>2016-11-27T10:07:30.000Z</time>
      </trkpt>
      <trkpt lat="46.05553" lon="4.52871">
        <ele>720</ele>
        <time>2016-11-27T10:07:31.000Z</time>
      </trkpt>
      <trkpt lat="46.05552" lon="4.52875">
        <ele>720</ele>
        <time>2016-11-27T10:07:32.000Z</time>
      </trkpt>
      <trkpt lat="46.05551" lon="4.52878">
        <ele>720</ele>
        <time>2016-11-27T10:07:33.000Z</time>
      </trkpt>
      <trkpt lat="46.0555" lon="4.52882">
        <ele>720</ele>
        <time>2016-11-27T10:07:34.000Z</time>
      </trkpt>
      <trkpt lat="46.0555" lon="4.52885">
        <ele>720</ele>
        <time>2016-11-27T10:07:35.000Z</time>
      </trkpt>
      <trkpt lat="46.05549" lon="4.52888">
        <ele>721</ele>
        <time>2016-11-27T10:07:36.000Z</time>
      </trkpt>
      <trkpt lat="46.05549" lon="4.52892">
        <ele>722</ele>
        <time>2016-11-27T10:07:37.000Z</time>
      </trkpt>
      <trkpt lat="46.05548" lon="4.52895">
        <ele>722</ele>
        <time>2016-11-27T10:07:38.000Z</time>
      </trkpt>
      <trkpt lat="46.05547" lon="4.52898">
        <ele>722</ele>
        <time>2016-11-27T10:07:39.000Z</time>
      </trkpt>
      <trkpt lat="46.05546" lon="4.52901">
        <ele>722</ele>
        <time>2016-11-27T10:07:40.000Z</time>
      </trkpt>
      <trkpt lat="46.05545" lon="4.52904">
        <ele>721</ele>
        <time>2016-11-27T10:07:41.000Z</time>
      </trkpt>
      <trkpt lat="46.05544" lon="4.52907">
        <ele>722</ele>
        <time>2016-11-27T10:07:42.000Z</time>
      </trkpt>
      <trkpt lat="46.05543" lon="4.52909">
        <ele>722</ele>
        <time>2016-11-27T10:07:43.000Z</time>
      </trkpt>
      <trkpt lat="46.05542" lon="4.52911">
        <ele>721</ele>
        <time>2016-11-27T10:07:44.000Z</time>
      </trkpt>
      <trkpt lat="46.05541" lon="4.52911">
        <ele>722</ele>
        <time>2016-11-27T10:07:45.000Z</time>
      </trkpt>
      <trkpt lat="46.0554" lon="4.52911">
        <ele>721</ele>
        <time>2016-11-27T10:07:46.000Z</time>
      </trkpt>
      <trkpt lat="46.05539" lon="4.52909">
        <ele>720</ele>
        <time>2016-11-27T10:07:47.000Z</time>
      </trkpt>
      <trkpt lat="46.05539" lon="4.52908">
        <ele>720</ele>
        <time>2016-11-27T10:07:48.000Z</time>
      </trkpt>
      <trkpt lat="46.05538" lon="4.52906">
        <ele>720</ele>
        <time>2016-11-27T10:07:49.000Z</time>
      </trkpt>
      <trkpt lat="46.05537" lon="4.52904">
        <ele>719</ele>
        <time>2016-11-27T10:07:50.000Z</time>
      </trkpt>
      <trkpt lat="46.05536" lon="4.52901">
        <ele>718</ele>
        <time>2016-11-27T10:07:51.000Z</time>
      </trkpt>
      <trkpt lat="46.05535" lon="4.52899">
        <ele>717</ele>
        <time>2016-11-27T10:07:52.000Z</time>
      </trkpt>
      <trkpt lat="46.05535" lon="4.52897">
        <ele>716</ele>
        <time>2016-11-27T10:07:53.000Z</time>
      </trkpt>
      <trkpt lat="46.05535" lon="4.52895">
        <ele>715</ele>
        <time>2016-11-27T10:07:54.000Z</time>
      </trkpt>
      <trkpt lat="46.05536" lon="4.52892">
        <ele>715</ele>
        <time>2016-11-27T10:07:55.000Z</time>
      </trkpt>
      <trkpt lat="46.05536" lon="4.5289">
        <ele>715</ele>
        <time>2016-11-27T10:07:56.000Z</time>
      </trkpt>
      <trkpt lat="46.05536" lon="4.52887">
        <ele>715</ele>
        <time>2016-11-27T10:07:57.000Z</time>
      </trkpt>
      <trkpt lat="46.05536" lon="4.52884">
        <ele>715</ele>
        <time>2016-11-27T10:07:58.000Z</time>
      </trkpt>
      <trkpt lat="46.05536" lon="4.52882">
        <ele>715</ele>
        <time>2016-11-27T10:07:59.000Z</time>
      </trkpt>
      <trkpt lat="46.05535" lon="4.52879">
        <ele>715</ele>
        <time>2016-11-27T10:08:00.000Z</time>
      </trkpt>
      <trkpt lat="46.05535" lon="4.52876">
        <ele>715</ele>
        <time>2016-11-27T10:08:01.000Z</time>
      </trkpt>
      <trkpt lat="46.05534" lon="4.52873">
        <ele>716</ele>
        <time>2016-11-27T10:08:02.000Z</time>
      </trkpt>
      <trkpt lat="46.05533" lon="4.5287">
        <ele>715</ele>
        <time>2016-11-27T10:08:03.000Z</time>
      </trkpt>
      <trkpt lat="46.05533" lon="4.52868">
        <ele>716</ele>
        <time>2016-11-27T10:08:04.000Z</time>
      </trkpt>
      <trkpt lat="46.05531" lon="4.52867">
        <ele>717</ele>
        <time>2016-11-27T10:08:05.000Z</time>
      </trkpt>
      <trkpt lat="46.0553" lon="4.52867">
        <ele>718</ele>
        <time>2016-11-27T10:08:06.000Z</time>
      </trkpt>
      <trkpt lat="46.05529" lon="4.52868">
        <ele>718</ele>
        <time>2016-11-27T10:08:07.000Z</time>
      </trkpt>
      <trkpt lat="46.05528" lon="4.52869">
        <ele>719</ele>
        <time>2016-11-27T10:08:08.000Z</time>
      </trkpt>
      <trkpt lat="46.05528" lon="4.5287">
        <ele>719</ele>
        <time>2016-11-27T10:08:09.000Z</time>
      </trkpt>
      <trkpt lat="46.05527" lon="4.5287">
        <ele>720</ele>
        <time>2016-11-27T10:08:10.000Z</time>
      </trkpt>
      <trkpt lat="46.05527" lon="4.52871">
        <ele>722</ele>
        <time>2016-11-27T10:08:11.000Z</time>
      </trkpt>
      <trkpt lat="46.05526" lon="4.52872">
        <ele>723</ele>
        <time>2016-11-27T10:08:12.000Z</time>
      </trkpt>
      <trkpt lat="46.05526" lon="4.52873">
        <ele>724</ele>
        <time>2016-11-27T10:08:13.000Z</time>
      </trkpt>
      <trkpt lat="46.05526" lon="4.52875">
        <ele>724</ele>
        <time>2016-11-27T10:08:14.000Z</time>
      </trkpt>
      <trkpt lat="46.05526" lon="4.52877">
        <ele>725</ele>
        <time>2016-11-27T10:08:15.000Z</time>
      </trkpt>
      <trkpt lat="46.05525" lon="4.52879">
        <ele>725</ele>
        <time>2016-11-27T10:08:16.000Z</time>
      </trkpt>
      <trkpt lat="46.05525" lon="4.52881">
        <ele>726</ele>
        <time>2016-11-27T10:08:17.000Z</time>
      </trkpt>
      <trkpt lat="46.05525" lon="4.52883">
        <ele>725</ele>
        <time>2016-11-27T10:08:18.000Z</time>
      </trkpt>
      <trkpt lat="46.05524" lon="4.52885">
        <ele>726</ele>
        <time>2016-11-27T10:08:19.000Z</time>
      </trkpt>
      <trkpt lat="46.05523" lon="4.52887">
        <ele>726</ele>
        <time>2016-11-27T10:08:20.000Z</time>
      </trkpt>
      <trkpt lat="46.05523" lon="4.52889">
        <ele>728</ele>
        <time>2016-11-27T10:08:21.000Z</time>
      </trkpt>
      <trkpt lat="46.05523" lon="4.52891">
        <ele>728</ele>
        <time>2016-11-27T10:08:22.000Z</time>
      </trkpt>
      <trkpt lat="46.05523" lon="4.52894">
        <ele>729</ele>
        <time>2016-11-27T10:08:23.000Z</time>
      </trkpt>
      <trkpt lat="46.05523" lon="4.52895">
        <ele>729</ele>
        <time>2016-11-27T10:08:24.000Z</time>
      </trkpt>
      <trkpt lat="46.05522" lon="4.52897">
        <ele>729</ele>
        <time>2016-11-27T10:08:25.000Z</time>
      </trkpt>
      <trkpt lat="46.05522" lon="4.52897">
        <ele>728</ele>
        <time>2016-11-27T10:08:26.000Z</time>
      </trkpt>
      <trkpt lat="46.05521" lon="4.52898">
        <ele>729</ele>
        <time>2016-11-27T10:08:27.000Z</time>
      </trkpt>
      <trkpt lat="46.05521" lon="4.52898">
        <ele>730</ele>
        <time>2016-11-27T10:08:28.000Z</time>
      </trkpt>
      <trkpt lat="46.0552" lon="4.52899">
        <ele>731</ele>
        <time>2016-11-27T10:08:29.000Z</time>
      </trkpt>
      <trkpt lat="46.0552" lon="4.52899">
        <ele>731</ele>
        <time>2016-11-27T10:08:30.000Z</time>
      </trkpt>
      <trkpt lat="46.0552" lon="4.52899">
        <ele>732</ele>
        <time>2016-11-27T10:08:31.000Z</time>
      </trkpt>
      <trkpt lat="46.05519" lon="4.52899">
        <ele>732</ele>
        <time>2016-11-27T10:08:32.000Z</time>
      </trkpt>
      <trkpt lat="46.05519" lon="4.52899">
        <ele>733</ele>
        <time>2016-11-27T10:08:33.000Z</time>
      </trkpt>
      <trkpt lat="46.05519" lon="4.52899">
        <ele>734</ele>
        <time>2016-11-27T10:08:34.000Z</time>
      </trkpt>
      <trkpt lat="46.05518" lon="4.529">
        <ele>735</ele>
        <time>2016-11-27T10:08:35.000Z</time>
      </trkpt>
      <trkpt lat="46.05518" lon="4.529">
        <ele>736</ele>
        <time>2016-11-27T10:08:36.000Z</time>
      </trkpt>
      <trkpt lat="46.05517" lon="4.529">
        <ele>737</ele>
        <time>2016-11-27T10:08:37.000Z</time>
      </trkpt>
      <trkpt lat="46.05517" lon="4.529">
        <ele>737</ele>
        <time>2016-11-27T10:08:38.000Z</time>
      </trkpt>
      <trkpt lat="46.05516" lon="4.52899">
        <ele>738</ele>
        <time>2016-11-27T10:08:39.000Z</time>
      </trkpt>
      <trkpt lat="46.05515" lon="4.52899">
        <ele>739</ele>
        <time>2016-11-27T10:08:40.000Z</time>
      </trkpt>
      <trkpt lat="46.05515" lon="4.52899">
        <ele>740</ele>
        <time>2016-11-27T10:08:41.000Z</time>
      </trkpt>
      <trkpt lat="46.05514" lon="4.52899">
        <ele>740</ele>
        <time>2016-11-27T10:08:42.000Z</time>
      </trkpt>
      <trkpt lat="46.05513" lon="4.52899">
        <ele>740</ele>
        <time>2016-11-27T10:08:43.000Z</time>
      </trkpt>
      <trkpt lat="46.05513" lon="4.52899">
        <ele>741</ele>
        <time>2016-11-27T10:08:44.000Z</time>
      </trkpt>
      <trkpt lat="46.05513" lon="4.52899">
        <ele>741</ele>
        <time>2016-11-27T10:08:45.000Z</time>
      </trkpt>
      <trkpt lat="46.05512" lon="4.52899">
        <ele>742</ele>
        <time>2016-11-27T10:08:46.000Z</time>
      </trkpt>
      <trkpt lat="46.05512" lon="4.52899">
        <ele>742</ele>
        <time>2016-11-27T10:08:47.000Z</time>
      </trkpt>
      <trkpt lat="46.05511" lon="4.52899">
        <ele>742</ele>
        <time>2016-11-27T10:08:48.000Z</time>
      </trkpt>
      <trkpt lat="46.05511" lon="4.52899">
        <ele>743</ele>
        <time>2016-11-27T10:08:49.000Z</time>
      </trkpt>
      <trkpt lat="46.05511" lon="4.52899">
        <ele>743</ele>
        <time>2016-11-27T10:08:50.000Z</time>
      </trkpt>
      <trkpt lat="46.0551" lon="4.52899">
        <ele>744</ele>
        <time>2016-11-27T10:08:51.000Z</time>
      </trkpt>
      <trkpt lat="46.0551" lon="4.52899">
        <ele>744</ele>
        <time>2016-11-27T10:08:52.000Z</time>
      </trkpt>
      <trkpt lat="46.05509" lon="4.52899">
        <ele>745</ele>
        <time>2016-11-27T10:08:53.000Z</time>
      </trkpt>
      <trkpt lat="46.05509" lon="4.52898">
        <ele>744</ele>
        <time>2016-11-27T10:08:54.000Z</time>
      </trkpt>
      <trkpt lat="46.05509" lon="4.52898">
        <ele>744</ele>
        <time>2016-11-27T10:08:55.000Z</time>
      </trkpt>
      <trkpt lat="46.0551" lon="4.52898">
        <ele>744</ele>
        <time>2016-11-27T10:08:56.000Z</time>
      </trkpt>
      <trkpt lat="46.05509" lon="4.52898">
        <ele>742</ele>
        <time>2016-11-27T10:08:57.000Z</time>
      </trkpt>
      <trkpt lat="46.05509" lon="4.52898">
        <ele>741</ele>
        <time>2016-11-27T10:08:58.000Z</time>
      </trkpt>
      <trkpt lat="46.05509" lon="4.52898">
        <ele>741</ele>
        <time>2016-11-27T10:08:59.000Z</time>
      </trkpt>
      <trkpt lat="46.05509" lon="4.52898">
        <ele>741</ele>
        <time>2016-11-27T10:09:00.000Z</time>
      </trkpt>
      <trkpt lat="46.05509" lon="4.52899">
        <ele>739</ele>
        <time>2016-11-27T10:09:01.000Z</time>
      </trkpt>
      <trkpt lat="46.05509" lon="4.529">
        <ele>738</ele>
        <time>2016-11-27T10:09:02.000Z</time>
      </trkpt>
      <trkpt lat="46.05509" lon="4.52901">
        <ele>737</ele>
        <time>2016-11-27T10:09:03.000Z</time>
      </trkpt>
      <trkpt lat="46.0551" lon="4.52901">
        <ele>736</ele>
        <time>2016-11-27T10:09:04.000Z</time>
      </trkpt>
      <trkpt lat="46.0551" lon="4.529">
        <ele>734</ele>
        <time>2016-11-27T10:09:05.000Z</time>
      </trkpt>
      <trkpt lat="46.05511" lon="4.529">
        <ele>732</ele>
        <time>2016-11-27T10:09:06.000Z</time>
      </trkpt>
      <trkpt lat="46.05511" lon="4.52901">
        <ele>732</ele>
        <time>2016-11-27T10:09:07.000Z</time>
      </trkpt>
      <trkpt lat="46.05512" lon="4.52901">
        <ele>733</ele>
        <time>2016-11-27T10:09:08.000Z</time>
      </trkpt>
      <trkpt lat="46.05513" lon="4.52901">
        <ele>733</ele>
        <time>2016-11-27T10:09:09.000Z</time>
      </trkpt>
      <trkpt lat="46.05514" lon="4.52901">
        <ele>733</ele>
        <time>2016-11-27T10:09:10.000Z</time>
      </trkpt>
      <trkpt lat="46.05515" lon="4.52901">
        <ele>733</ele>
        <time>2016-11-27T10:09:11.000Z</time>
      </trkpt>
      <trkpt lat="46.05516" lon="4.52901">
        <ele>732</ele>
        <time>2016-11-27T10:09:12.000Z</time>
      </trkpt>
      <trkpt lat="46.05517" lon="4.52901">
        <ele>731</ele>
        <time>2016-11-27T10:09:13.000Z</time>
      </trkpt>
      <trkpt lat="46.05519" lon="4.52901">
        <ele>731</ele>
        <time>2016-11-27T10:09:14.000Z</time>
      </trkpt>
      <trkpt lat="46.0552" lon="4.52902">
        <ele>731</ele>
        <time>2016-11-27T10:09:15.000Z</time>
      </trkpt>
      <trkpt lat="46.05521" lon="4.52902">
        <ele>730</ele>
        <time>2016-11-27T10:09:16.000Z</time>
      </trkpt>
      <trkpt lat="46.05522" lon="4.52902">
        <ele>728</ele>
        <time>2016-11-27T10:09:17.000Z</time>
      </trkpt>
      <trkpt lat="46.05522" lon="4.52901">
        <ele>728</ele>
        <time>2016-11-27T10:09:18.000Z</time>
      </trkpt>
      <trkpt lat="46.05522" lon="4.52899">
        <ele>728</ele>
        <time>2016-11-27T10:09:19.000Z</time>
      </trkpt>
      <trkpt lat="46.05523" lon="4.52898">
        <ele>728</ele>
        <time>2016-11-27T10:09:20.000Z</time>
      </trkpt>
      <trkpt lat="46.05524" lon="4.52898">
        <ele>729</ele>
        <time>2016-11-27T10:09:21.000Z</time>
      </trkpt>
      <trkpt lat="46.05525" lon="4.52898">
        <ele>728</ele>
        <time>2016-11-27T10:09:22.000Z</time>
      </trkpt>
      <trkpt lat="46.05526" lon="4.52899">
        <ele>728</ele>
        <time>2016-11-27T10:09:23.000Z</time>
      </trkpt>
      <trkpt lat="46.05527" lon="4.52899">
        <ele>728</ele>
        <time>2016-11-27T10:09:24.000Z</time>
      </trkpt>
      <trkpt lat="46.05527" lon="4.52899">
        <ele>728</ele>
        <time>2016-11-27T10:09:25.000Z</time>
      </trkpt>
      <trkpt lat="46.05528" lon="4.52898">
        <ele>728</ele>
        <time>2016-11-27T10:09:26.000Z</time>
      </trkpt>
      <trkpt lat="46.05529" lon="4.52898">
        <ele>728</ele>
        <time>2016-11-27T10:09:27.000Z</time>
      </trkpt>
      <trkpt lat="46.05529" lon="4.52897">
        <ele>728</ele>
        <time>2016-11-27T10:09:28.000Z</time>
      </trkpt>
      <trkpt lat="46.0553" lon="4.52896">
        <ele>727</ele>
        <time>2016-11-27T10:09:29.000Z</time>
      </trkpt>
      <trkpt lat="46.05531" lon="4.52896">
        <ele>727</ele>
        <time>2016-11-27T10:09:30.000Z</time>
      </trkpt>
      <trkpt lat="46.05531" lon="4.52895">
        <ele>726</ele>
        <time>2016-11-27T10:09:31.000Z</time>
      </trkpt>
      <trkpt lat="46.05532" lon="4.52895">
        <ele>725</ele>
        <time>2016-11-27T10:09:32.000Z</time>
      </trkpt>
      <trkpt lat="46.05532" lon="4.52894">
        <ele>725</ele>
        <time>2016-11-27T10:09:33.000Z</time>
      </trkpt>
      <trkpt lat="46.05533" lon="4.52894">
        <ele>725</ele>
        <time>2016-11-27T10:09:34.000Z</time>
      </trkpt>
      <trkpt lat="46.05534" lon="4.52894">
        <ele>725</ele>
        <time>2016-11-27T10:09:35.000Z</time>
      </trkpt>
      <trkpt lat="46.05535" lon="4.52895">
        <ele>725</ele>
        <time>2016-11-27T10:09:36.000Z</time>
      </trkpt>
      <trkpt lat="46.05537" lon="4.52897">
        <ele>724</ele>
        <time>2016-11-27T10:09:37.000Z</time>
      </trkpt>
      <trkpt lat="46.05537" lon="4.529">
        <ele>722</ele>
        <time>2016-11-27T10:09:38.000Z</time>
      </trkpt>
      <trkpt lat="46.05538" lon="4.52904">
        <ele>722</ele>
        <time>2016-11-27T10:09:39.000Z</time>
      </trkpt>
      <trkpt lat="46.05538" lon="4.52909">
        <ele>722</ele>
        <time>2016-11-27T10:09:40.000Z</time>
      </trkpt>
      <trkpt lat="46.05538" lon="4.52914">
        <ele>721</ele>
        <time>2016-11-27T10:09:41.000Z</time>
      </trkpt>
      <trkpt lat="46.05537" lon="4.52919">
        <ele>721</ele>
        <time>2016-11-27T10:09:42.000Z</time>
      </trkpt>
      <trkpt lat="46.05535" lon="4.52925">
        <ele>720</ele>
        <time>2016-11-27T10:09:43.000Z</time>
      </trkpt>
      <trkpt lat="46.05533" lon="4.52929">
        <ele>720</ele>
        <time>2016-11-27T10:09:44.000Z</time>
      </trkpt>
      <trkpt lat="46.05532" lon="4.52933">
        <ele>720</ele>
        <time>2016-11-27T10:09:45.000Z</time>
      </trkpt>
      <trkpt lat="46.05531" lon="4.52937">
        <ele>721</ele>
        <time>2016-11-27T10:09:46.000Z</time>
      </trkpt>
      <trkpt lat="46.0553" lon="4.5294">
        <ele>721</ele>
        <time>2016-11-27T10:09:47.000Z</time>
      </trkpt>
      <trkpt lat="46.0553" lon="4.52944">
        <ele>721</ele>
        <time>2016-11-27T10:09:48.000Z</time>
      </trkpt>
      <trkpt lat="46.05529" lon="4.52947">
        <ele>722</ele>
        <time>2016-11-27T10:09:49.000Z</time>
      </trkpt>
      <trkpt lat="46.05528" lon="4.5295">
        <ele>722</ele>
        <time>2016-11-27T10:09:50.000Z</time>
      </trkpt>
      <trkpt lat="46.05528" lon="4.52954">
        <ele>723</ele>
        <time>2016-11-27T10:09:51.000Z</time>
      </trkpt>
      <trkpt lat="46.05527" lon="4.52957">
        <ele>724</ele>
        <time>2016-11-27T10:09:52.000Z</time>
      </trkpt>
      <trkpt lat="46.05526" lon="4.5296">
        <ele>724</ele>
        <time>2016-11-27T10:09:53.000Z</time>
      </trkpt>
      <trkpt lat="46.05525" lon="4.52964">
        <ele>725</ele>
        <time>2016-11-27T10:09:54.000Z</time>
      </trkpt>
      <trkpt lat="46.05525" lon="4.52967">
        <ele>725</ele>
        <time>2016-11-27T10:09:55.000Z</time>
      </trkpt>
      <trkpt lat="46.05524" lon="4.5297">
        <ele>725</ele>
        <time>2016-11-27T10:09:56.000Z</time>
      </trkpt>
      <trkpt lat="46.05523" lon="4.52973">
        <ele>726</ele>
        <time>2016-11-27T10:09:57.000Z</time>
      </trkpt>
      <trkpt lat="46.05522" lon="4.52976">
        <ele>725</ele>
        <time>2016-11-27T10:09:58.000Z</time>
      </trkpt>
      <trkpt lat="46.05521" lon="4.5298">
        <ele>724</ele>
        <time>2016-11-27T10:09:59.000Z</time>
      </trkpt>
      <trkpt lat="46.0552" lon="4.52983">
        <ele>725</ele>
        <time>2016-11-27T10:10:00.000Z</time>
      </trkpt>
      <trkpt lat="46.05518" lon="4.52986">
        <ele>724</ele>
        <time>2016-11-27T10:10:01.000Z</time>
      </trkpt>
      <trkpt lat="46.05517" lon="4.52989">
        <ele>724</ele>
        <time>2016-11-27T10:10:02.000Z</time>
      </trkpt>
      <trkpt lat="46.05515" lon="4.52991">
        <ele>724</ele>
        <time>2016-11-27T10:10:03.000Z</time>
      </trkpt>
      <trkpt lat="46.05515" lon="4.52993">
        <ele>724</ele>
        <time>2016-11-27T10:10:04.000Z</time>
      </trkpt>
      <trkpt lat="46.05515" lon="4.52994">
        <ele>725</ele>
        <time>2016-11-27T10:10:05.000Z</time>
      </trkpt>
      <trkpt lat="46.05516" lon="4.52994">
        <ele>726</ele>
        <time>2016-11-27T10:10:06.000Z</time>
      </trkpt>
      <trkpt lat="46.05516" lon="4.52993">
        <ele>725</ele>
        <time>2016-11-27T10:10:07.000Z</time>
      </trkpt>
      <trkpt lat="46.05517" lon="4.52994">
        <ele>726</ele>
        <time>2016-11-27T10:10:08.000Z</time>
      </trkpt>
      <trkpt lat="46.05517" lon="4.52994">
        <ele>727</ele>
        <time>2016-11-27T10:10:09.000Z</time>
      </trkpt>
      <trkpt lat="46.05518" lon="4.52994">
        <ele>727</ele>
        <time>2016-11-27T10:10:10.000Z</time>
      </trkpt>
      <trkpt lat="46.05518" lon="4.52994">
        <ele>727</ele>
        <time>2016-11-27T10:10:11.000Z</time>
      </trkpt>
      <trkpt lat="46.05518" lon="4.52994">
        <ele>727</ele>
        <time>2016-11-27T10:10:12.000Z</time>
      </trkpt>
      <trkpt lat="46.05518" lon="4.52995">
        <ele>727</ele>
        <time>2016-11-27T10:10:13.000Z</time>
      </trkpt>
      <trkpt lat="46.05518" lon="4.52995">
        <ele>727</ele>
        <time>2016-11-27T10:10:14.000Z</time>
      </trkpt>
      <trkpt lat="46.05518" lon="4.52995">
        <ele>727</ele>
        <time>2016-11-27T10:10:15.000Z</time>
      </trkpt>
      <trkpt lat="46.05518" lon="4.52996">
        <ele>727</ele>
        <time>2016-11-27T10:10:16.000Z</time>
      </trkpt>
      <trkpt lat="46.05518" lon="4.52996">
        <ele>727</ele>
        <time>2016-11-27T10:10:17.000Z</time>
      </trkpt>
      <trkpt lat="46.05518" lon="4.52996">
        <ele>728</ele>
        <time>2016-11-27T10:10:18.000Z</time>
      </trkpt>
      <trkpt lat="46.05519" lon="4.52996">
        <ele>728</ele>
        <time>2016-11-27T10:10:19.000Z</time>
      </trkpt>
      <trkpt lat="46.05519" lon="4.52996">
        <ele>728</ele>
        <time>2016-11-27T10:10:20.000Z</time>
      </trkpt>
      <trkpt lat="46.05519" lon="4.52996">
        <ele>728</ele>
        <time>2016-11-27T10:10:21.000Z</time>
      </trkpt>
      <trkpt lat="46.05519" lon="4.52996">
        <ele>728</ele>
        <time>2016-11-27T10:10:22.000Z</time>
      </trkpt>
      <trkpt lat="46.05519" lon="4.52996">
        <ele>729</ele>
        <time>2016-11-27T10:10:23.000Z</time>
      </trkpt>
      <trkpt lat="46.05519" lon="4.52996">
        <ele>729</ele>
        <time>2016-11-27T10:10:24.000Z</time>
      </trkpt>
      <trkpt lat="46.0552" lon="4.52996">
        <ele>730</ele>
        <time>2016-11-27T10:10:25.000Z</time>
      </trkpt>
      <trkpt lat="46.0552" lon="4.52996">
        <ele>729</ele>
        <time>2016-11-27T10:10:26.000Z</time>
      </trkpt>
      <trkpt lat="46.05519" lon="4.52996">
        <ele>728</ele>
        <time>2016-11-27T10:10:27.000Z</time>
      </trkpt>
      <trkpt lat="46.05519" lon="4.52996">
        <ele>728</ele>
        <time>2016-11-27T10:10:28.000Z</time>
      </trkpt>
      <trkpt lat="46.05518" lon="4.52997">
        <ele>727</ele>
        <time>2016-11-27T10:10:29.000Z</time>
      </trkpt>
      <trkpt lat="46.05517" lon="4.52997">
        <ele>727</ele>
        <time>2016-11-27T10:10:30.000Z</time>
      </trkpt>
      <trkpt lat="46.05517" lon="4.52997">
        <ele>727</ele>
        <time>2016-11-27T10:10:31.000Z</time>
      </trkpt>
      <trkpt lat="46.05517" lon="4.52997">
        <ele>726</ele>
        <time>2016-11-27T10:10:32.000Z</time>
      </trkpt>
      <trkpt lat="46.05517" lon="4.52997">
        <ele>726</ele>
        <time>2016-11-27T10:10:33.000Z</time>
      </trkpt>
      <trkpt lat="46.05516" lon="4.52997">
        <ele>726</ele>
        <time>2016-11-27T10:10:34.000Z</time>
      </trkpt>
      <trkpt lat="46.05516" lon="4.52997">
        <ele>726</ele>
        <time>2016-11-27T10:10:35.000Z</time>
      </trkpt>
      <trkpt lat="46.05516" lon="4.52997">
        <ele>726</ele>
        <time>2016-11-27T10:10:36.000Z</time>
      </trkpt>
      <trkpt lat="46.05516" lon="4.52998">
        <ele>726</ele>
        <time>2016-11-27T10:10:37.000Z</time>
      </trkpt>
      <trkpt lat="46.05516" lon="4.52998">
        <ele>726</ele>
        <time>2016-11-27T10:10:38.000Z</time>
      </trkpt>
      <trkpt lat="46.05516" lon="4.52998">
        <ele>726</ele>
        <time>2016-11-27T10:10:39.000Z</time>
      </trkpt>
      <trkpt lat="46.05516" lon="4.52998">
        <ele>726</ele>
        <time>2016-11-27T10:10:40.000Z</time>
      </trkpt>
      <trkpt lat="46.05516" lon="4.52998">
        <ele>725</ele>
        <time>2016-11-27T10:10:41.000Z</time>
      </trkpt>
      <trkpt lat="46.05515" lon="4.52999">
        <ele>726</ele>
        <time>2016-11-27T10:10:42.000Z</time>
      </trkpt>
      <trkpt lat="46.05515" lon="4.52999">
        <ele>726</ele>
        <time>2016-11-27T10:10:43.000Z</time>
      </trkpt>
      <trkpt lat="46.05516" lon="4.53">
        <ele>725</ele>
        <time>2016-11-27T10:10:44.000Z</time>
      </trkpt>
      <trkpt lat="46.05515" lon="4.53001">
        <ele>725</ele>
        <time>2016-11-27T10:10:45.000Z</time>
      </trkpt>
      <trkpt lat="46.05515" lon="4.53001">
        <ele>726</ele>
        <time>2016-11-27T10:10:46.000Z</time>
      </trkpt>
      <trkpt lat="46.05515" lon="4.53002">
        <ele>726</ele>
        <time>2016-11-27T10:10:47.000Z</time>
      </trkpt>
      <trkpt lat="46.05515" lon="4.53003">
        <ele>726</ele>
        <time>2016-11-27T10:10:48.000Z</time>
      </trkpt>
      <trkpt lat="46.05514" lon="4.53004">
        <ele>726</ele>
        <time>2016-11-27T10:10:49.000Z</time>
      </trkpt>
      <trkpt lat="46.05514" lon="4.53006">
        <ele>727</ele>
        <time>2016-11-27T10:10:50.000Z</time>
      </trkpt>
      <trkpt lat="46.05513" lon="4.53009">
        <ele>727</ele>
        <time>2016-11-27T10:10:51.000Z</time>
      </trkpt>
      <trkpt lat="46.05512" lon="4.53012">
        <ele>727</ele>
        <time>2016-11-27T10:10:52.000Z</time>
      </trkpt>
      <trkpt lat="46.05511" lon="4.53015">
        <ele>726</ele>
        <time>2016-11-27T10:10:53.000Z</time>
      </trkpt>
      <trkpt lat="46.0551" lon="4.53019">
        <ele>725</ele>
        <time>2016-11-27T10:10:54.000Z</time>
      </trkpt>
      <trkpt lat="46.05509" lon="4.53022">
        <ele>725</ele>
        <time>2016-11-27T10:10:55.000Z</time>
      </trkpt>
      <trkpt lat="46.05508" lon="4.53025">
        <ele>725</ele>
        <time>2016-11-27T10:10:56.000Z</time>
      </trkpt>
      <trkpt lat="46.05507" lon="4.53028">
        <ele>724</ele>
        <time>2016-11-27T10:10:57.000Z</time>
      </trkpt>
      <trkpt lat="46.05506" lon="4.53031">
        <ele>724</ele>
        <time>2016-11-27T10:10:58.000Z</time>
      </trkpt>
      <trkpt lat="46.05504" lon="4.53033">
        <ele>724</ele>
        <time>2016-11-27T10:10:59.000Z</time>
      </trkpt>
      <trkpt lat="46.05503" lon="4.53035">
        <ele>724</ele>
        <time>2016-11-27T10:11:00.000Z</time>
      </trkpt>
      <trkpt lat="46.05501" lon="4.53038">
        <ele>724</ele>
        <time>2016-11-27T10:11:01.000Z</time>
      </trkpt>
      <trkpt lat="46.055" lon="4.53041">
        <ele>721</ele>
        <time>2016-11-27T10:11:02.000Z</time>
      </trkpt>
      <trkpt lat="46.05498" lon="4.53044">
        <ele>720</ele>
        <time>2016-11-27T10:11:03.000Z</time>
      </trkpt>
      <trkpt lat="46.05496" lon="4.53047">
        <ele>718</ele>
        <time>2016-11-27T10:11:04.000Z</time>
      </trkpt>
      <trkpt lat="46.05494" lon="4.5305">
        <ele>718</ele>
        <time>2016-11-27T10:11:05.000Z</time>
      </trkpt>
      <trkpt lat="46.05492" lon="4.53054">
        <ele>718</ele>
        <time>2016-11-27T10:11:06.000Z</time>
      </trkpt>
      <trkpt lat="46.0549" lon="4.53058">
        <ele>717</ele>
        <time>2016-11-27T10:11:07.000Z</time>
      </trkpt>
      <trkpt lat="46.05489" lon="4.53062">
        <ele>718</ele>
        <time>2016-11-27T10:11:08.000Z</time>
      </trkpt>
      <trkpt lat="46.05487" lon="4.53066">
        <ele>720</ele>
        <time>2016-11-27T10:11:09.000Z</time>
      </trkpt>
      <trkpt lat="46.05486" lon="4.5307">
        <ele>721</ele>
        <time>2016-11-27T10:11:10.000Z</time>
      </trkpt>
      <trkpt lat="46.05484" lon="4.53074">
        <ele>720</ele>
        <time>2016-11-27T10:11:11.000Z</time>
      </trkpt>
      <trkpt lat="46.05483" lon="4.53078">
        <ele>720</ele>
        <time>2016-11-27T10:11:12.000Z</time>
      </trkpt>
      <trkpt lat="46.05481" lon="4.53082">
        <ele>719</ele>
        <time>2016-11-27T10:11:13.000Z</time>
      </trkpt>
      <trkpt lat="46.0548" lon="4.53085">
        <ele>718</ele>
        <time>2016-11-27T10:11:14.000Z</time>
      </trkpt>
      <trkpt lat="46.05478" lon="4.53088">
        <ele>718</ele>
        <time>2016-11-27T10:11:15.000Z</time>
      </trkpt>
      <trkpt lat="46.05477" lon="4.53091">
        <ele>717</ele>
        <time>2016-11-27T10:11:16.000Z</time>
      </trkpt>
      <trkpt lat="46.05475" lon="4.53094">
        <ele>716</ele>
        <time>2016-11-27T10:11:17.000Z</time>
      </trkpt>
      <trkpt lat="46.05474" lon="4.53098">
        <ele>716</ele>
        <time>2016-11-27T10:11:18.000Z</time>
      </trkpt>
      <trkpt lat="46.05472" lon="4.53101">
        <ele>716</ele>
        <time>2016-11-27T10:11:19.000Z</time>
      </trkpt>
      <trkpt lat="46.05471" lon="4.53105">
        <ele>715</ele>
        <time>2016-11-27T10:11:20.000Z</time>
      </trkpt>
      <trkpt lat="46.0547" lon="4.53108">
        <ele>715</ele>
        <time>2016-11-27T10:11:21.000Z</time>
      </trkpt>
      <trkpt lat="46.05468" lon="4.53111">
        <ele>716</ele>
        <time>2016-11-27T10:11:22.000Z</time>
      </trkpt>
      <trkpt lat="46.05466" lon="4.53115">
        <ele>716</ele>
        <time>2016-11-27T10:11:23.000Z</time>
      </trkpt>
      <trkpt lat="46.05465" lon="4.53119">
        <ele>717</ele>
        <time>2016-11-27T10:11:24.000Z</time>
      </trkpt>
      <trkpt lat="46.05464" lon="4.53123">
        <ele>717</ele>
        <time>2016-11-27T10:11:25.000Z</time>
      </trkpt>
      <trkpt lat="46.05463" lon="4.53126">
        <ele>716</ele>
        <time>2016-11-27T10:11:26.000Z</time>
      </trkpt>
      <trkpt lat="46.05461" lon="4.5313">
        <ele>715</ele>
        <time>2016-11-27T10:11:27.000Z</time>
      </trkpt>
      <trkpt lat="46.05459" lon="4.53134">
        <ele>716</ele>
        <time>2016-11-27T10:11:28.000Z</time>
      </trkpt>
      <trkpt lat="46.05457" lon="4.53138">
        <ele>715</ele>
        <time>2016-11-27T10:11:29.000Z</time>
      </trkpt>
      <trkpt lat="46.05456" lon="4.53142">
        <ele>714</ele>
        <time>2016-11-27T10:11:30.000Z</time>
      </trkpt>
      <trkpt lat="46.05455" lon="4.53147">
        <ele>713</ele>
        <time>2016-11-27T10:11:31.000Z</time>
      </trkpt>
      <trkpt lat="46.05453" lon="4.53151">
        <ele>714</ele>
        <time>2016-11-27T10:11:32.000Z</time>
      </trkpt>
      <trkpt lat="46.05452" lon="4.53156">
        <ele>716</ele>
        <time>2016-11-27T10:11:33.000Z</time>
      </trkpt>
      <trkpt lat="46.05451" lon="4.5316">
        <ele>718</ele>
        <time>2016-11-27T10:11:34.000Z</time>
      </trkpt>
      <trkpt lat="46.05451" lon="4.53164">
        <ele>718</ele>
        <time>2016-11-27T10:11:35.000Z</time>
      </trkpt>
      <trkpt lat="46.0545" lon="4.53169">
        <ele>720</ele>
        <time>2016-11-27T10:11:36.000Z</time>
      </trkpt>
      <trkpt lat="46.05449" lon="4.53174">
        <ele>722</ele>
        <time>2016-11-27T10:11:37.000Z</time>
      </trkpt>
      <trkpt lat="46.05448" lon="4.53178">
        <ele>722</ele>
        <time>2016-11-27T10:11:38.000Z</time>
      </trkpt>
      <trkpt lat="46.05447" lon="4.53182">
        <ele>722</ele>
        <time>2016-11-27T10:11:39.000Z</time>
      </trkpt>
      <trkpt lat="46.05445" lon="4.53186">
        <ele>723</ele>
        <time>2016-11-27T10:11:40.000Z</time>
      </trkpt>
      <trkpt lat="46.05445" lon="4.53191">
        <ele>727</ele>
        <time>2016-11-27T10:11:41.000Z</time>
      </trkpt>
      <trkpt lat="46.05444" lon="4.53196">
        <ele>728</ele>
        <time>2016-11-27T10:11:42.000Z</time>
      </trkpt>
      <trkpt lat="46.05443" lon="4.532">
        <ele>729</ele>
        <time>2016-11-27T10:11:43.000Z</time>
      </trkpt>
      <trkpt lat="46.05443" lon="4.53205">
        <ele>730</ele>
        <time>2016-11-27T10:11:44.000Z</time>
      </trkpt>
      <trkpt lat="46.05443" lon="4.53209">
        <ele>730</ele>
        <time>2016-11-27T10:11:45.000Z</time>
      </trkpt>
      <trkpt lat="46.05442" lon="4.53213">
        <ele>731</ele>
        <time>2016-11-27T10:11:46.000Z</time>
      </trkpt>
      <trkpt lat="46.05441" lon="4.53218">
        <ele>731</ele>
        <time>2016-11-27T10:11:47.000Z</time>
      </trkpt>
      <trkpt lat="46.0544" lon="4.53222">
        <ele>732</ele>
        <time>2016-11-27T10:11:48.000Z</time>
      </trkpt>
      <trkpt lat="46.05439" lon="4.53227">
        <ele>732</ele>
        <time>2016-11-27T10:11:49.000Z</time>
      </trkpt>
      <trkpt lat="46.05439" lon="4.53231">
        <ele>732</ele>
        <time>2016-11-27T10:11:50.000Z</time>
      </trkpt>
      <trkpt lat="46.05439" lon="4.53235">
        <ele>732</ele>
        <time>2016-11-27T10:11:51.000Z</time>
      </trkpt>
      <trkpt lat="46.0544" lon="4.53239">
        <ele>732</ele>
        <time>2016-11-27T10:11:52.000Z</time>
      </trkpt>
      <trkpt lat="46.05441" lon="4.53243">
        <ele>731</ele>
        <time>2016-11-27T10:11:53.000Z</time>
      </trkpt>
      <trkpt lat="46.05442" lon="4.53247">
        <ele>731</ele>
        <time>2016-11-27T10:11:54.000Z</time>
      </trkpt>
      <trkpt lat="46.05443" lon="4.53251">
        <ele>730</ele>
        <time>2016-11-27T10:11:55.000Z</time>
      </trkpt>
      <trkpt lat="46.05444" lon="4.53255">
        <ele>730</ele>
        <time>2016-11-27T10:11:56.000Z</time>
      </trkpt>
      <trkpt lat="46.05445" lon="4.53258">
        <ele>729</ele>
        <time>2016-11-27T10:11:57.000Z</time>
      </trkpt>
      <trkpt lat="46.05446" lon="4.53261">
        <ele>730</ele>
        <time>2016-11-27T10:11:58.000Z</time>
      </trkpt>
      <trkpt lat="46.05448" lon="4.53264">
        <ele>729</ele>
        <time>2016-11-27T10:11:59.000Z</time>
      </trkpt>
      <trkpt lat="46.0545" lon="4.53266">
        <ele>730</ele>
        <time>2016-11-27T10:12:00.000Z</time>
      </trkpt>
      <trkpt lat="46.05451" lon="4.53268">
        <ele>729</ele>
        <time>2016-11-27T10:12:01.000Z</time>
      </trkpt>
      <trkpt lat="46.05454" lon="4.53268">
        <ele>728</ele>
        <time>2016-11-27T10:12:02.000Z</time>
      </trkpt>
      <trkpt lat="46.05457" lon="4.53268">
        <ele>728</ele>
        <time>2016-11-27T10:12:03.000Z</time>
      </trkpt>
      <trkpt lat="46.0546" lon="4.53268">
        <ele>727</ele>
        <time>2016-11-27T10:12:04.000Z</time>
      </trkpt>
      <trkpt lat="46.05462" lon="4.53268">
        <ele>729</ele>
        <time>2016-11-27T10:12:05.000Z</time>
      </trkpt>
      <trkpt lat="46.05464" lon="4.53268">
        <ele>728</ele>
        <time>2016-11-27T10:12:06.000Z</time>
      </trkpt>
      <trkpt lat="46.05467" lon="4.53267">
        <ele>729</ele>
        <time>2016-11-27T10:12:07.000Z</time>
      </trkpt>
      <trkpt lat="46.05469" lon="4.53266">
        <ele>730</ele>
        <time>2016-11-27T10:12:08.000Z</time>
      </trkpt>
      <trkpt lat="46.05472" lon="4.53265">
        <ele>732</ele>
        <time>2016-11-27T10:12:09.000Z</time>
      </trkpt>
      <trkpt lat="46.05475" lon="4.53263">
        <ele>732</ele>
        <time>2016-11-27T10:12:10.000Z</time>
      </trkpt>
      <trkpt lat="46.05478" lon="4.53262">
        <ele>732</ele>
        <time>2016-11-27T10:12:11.000Z</time>
      </trkpt>
      <trkpt lat="46.05481" lon="4.5326">
        <ele>732</ele>
        <time>2016-11-27T10:12:12.000Z</time>
      </trkpt>
      <trkpt lat="46.05483" lon="4.53258">
        <ele>733</ele>
        <time>2016-11-27T10:12:13.000Z</time>
      </trkpt>
      <trkpt lat="46.05485" lon="4.53257">
        <ele>733</ele>
        <time>2016-11-27T10:12:14.000Z</time>
      </trkpt>
      <trkpt lat="46.05487" lon="4.53256">
        <ele>733</ele>
        <time>2016-11-27T10:12:15.000Z</time>
      </trkpt>
      <trkpt lat="46.05489" lon="4.53255">
        <ele>733</ele>
        <time>2016-11-27T10:12:16.000Z</time>
      </trkpt>
      <trkpt lat="46.05492" lon="4.53254">
        <ele>734</ele>
        <time>2016-11-27T10:12:17.000Z</time>
      </trkpt>
      <trkpt lat="46.05494" lon="4.53253">
        <ele>736</ele>
        <time>2016-11-27T10:12:18.000Z</time>
      </trkpt>
      <trkpt lat="46.05498" lon="4.53252">
        <ele>737</ele>
        <time>2016-11-27T10:12:19.000Z</time>
      </trkpt>
      <trkpt lat="46.05501" lon="4.5325">
        <ele>737</ele>
        <time>2016-11-27T10:12:20.000Z</time>
      </trkpt>
      <trkpt lat="46.05504" lon="4.53249">
        <ele>736</ele>
        <time>2016-11-27T10:12:21.000Z</time>
      </trkpt>
      <trkpt lat="46.05506" lon="4.53248">
        <ele>736</ele>
        <time>2016-11-27T10:12:22.000Z</time>
      </trkpt>
      <trkpt lat="46.05509" lon="4.53247">
        <ele>737</ele>
        <time>2016-11-27T10:12:23.000Z</time>
      </trkpt>
      <trkpt lat="46.05511" lon="4.53245">
        <ele>737</ele>
        <time>2016-11-27T10:12:24.000Z</time>
      </trkpt>
      <trkpt lat="46.05514" lon="4.53243">
        <ele>738</ele>
        <time>2016-11-27T10:12:25.000Z</time>
      </trkpt>
      <trkpt lat="46.05516" lon="4.53242">
        <ele>738</ele>
        <time>2016-11-27T10:12:26.000Z</time>
      </trkpt>
      <trkpt lat="46.05519" lon="4.53241">
        <ele>738</ele>
        <time>2016-11-27T10:12:27.000Z</time>
      </trkpt>
      <trkpt lat="46.05522" lon="4.5324">
        <ele>739</ele>
        <time>2016-11-27T10:12:28.000Z</time>
      </trkpt>
      <trkpt lat="46.05525" lon="4.53239">
        <ele>738</ele>
        <time>2016-11-27T10:12:29.000Z</time>
      </trkpt>
      <trkpt lat="46.05528" lon="4.53238">
        <ele>738</ele>
        <time>2016-11-27T10:12:30.000Z</time>
      </trkpt>
      <trkpt lat="46.05531" lon="4.53237">
        <ele>738</ele>
        <time>2016-11-27T10:12:31.000Z</time>
      </trkpt>
      <trkpt lat="46.05535" lon="4.53237">
        <ele>739</ele>
        <time>2016-11-27T10:12:32.000Z</time>
      </trkpt>
      <trkpt lat="46.05538" lon="4.53236">
        <ele>738</ele>
        <time>2016-11-27T10:12:33.000Z</time>
      </trkpt>
      <trkpt lat="46.0554" lon="4.53236">
        <ele>738</ele>
        <time>2016-11-27T10:12:34.000Z</time>
      </trkpt>
      <trkpt lat="46.05543" lon="4.53236">
        <ele>739</ele>
        <time>2016-11-27T10:12:35.000Z</time>
      </trkpt>
      <trkpt lat="46.05547" lon="4.53236">
        <ele>739</ele>
        <time>2016-11-27T10:12:36.000Z</time>
      </trkpt>
      <trkpt lat="46.0555" lon="4.53236">
        <ele>738</ele>
        <time>2016-11-27T10:12:37.000Z</time>
      </trkpt>
      <trkpt lat="46.05553" lon="4.53236">
        <ele>738</ele>
        <time>2016-11-27T10:12:38.000Z</time>
      </trkpt>
      <trkpt lat="46.05556" lon="4.53236">
        <ele>737</ele>
        <time>2016-11-27T10:12:39.000Z</time>
      </trkpt>
      <trkpt lat="46.05559" lon="4.53236">
        <ele>737</ele>
        <time>2016-11-27T10:12:40.000Z</time>
      </trkpt>
      <trkpt lat="46.05563" lon="4.53236">
        <ele>736</ele>
        <time>2016-11-27T10:12:41.000Z</time>
      </trkpt>
      <trkpt lat="46.05566" lon="4.53236">
        <ele>736</ele>
        <time>2016-11-27T10:12:42.000Z</time>
      </trkpt>
      <trkpt lat="46.05569" lon="4.53237">
        <ele>736</ele>
        <time>2016-11-27T10:12:43.000Z</time>
      </trkpt>
      <trkpt lat="46.05572" lon="4.53237">
        <ele>736</ele>
        <time>2016-11-27T10:12:44.000Z</time>
      </trkpt>
      <trkpt lat="46.05575" lon="4.53237">
        <ele>736</ele>
        <time>2016-11-27T10:12:45.000Z</time>
      </trkpt>
      <trkpt lat="46.05578" lon="4.53237">
        <ele>736</ele>
        <time>2016-11-27T10:12:46.000Z</time>
      </trkpt>
      <trkpt lat="46.05581" lon="4.53236">
        <ele>736</ele>
        <time>2016-11-27T10:12:47.000Z</time>
      </trkpt>
      <trkpt lat="46.05584" lon="4.53236">
        <ele>735</ele>
        <time>2016-11-27T10:12:48.000Z</time>
      </trkpt>
      <trkpt lat="46.05587" lon="4.53236">
        <ele>736</ele>
        <time>2016-11-27T10:12:49.000Z</time>
      </trkpt>
      <trkpt lat="46.0559" lon="4.53236">
        <ele>735</ele>
        <time>2016-11-27T10:12:50.000Z</time>
      </trkpt>
      <trkpt lat="46.05593" lon="4.53236">
        <ele>735</ele>
        <time>2016-11-27T10:12:51.000Z</time>
      </trkpt>
      <trkpt lat="46.05597" lon="4.53236">
        <ele>736</ele>
        <time>2016-11-27T10:12:52.000Z</time>
      </trkpt>
      <trkpt lat="46.056" lon="4.53236">
        <ele>736</ele>
        <time>2016-11-27T10:12:53.000Z</time>
      </trkpt>
      <trkpt lat="46.05603" lon="4.53236">
        <ele>736</ele>
        <time>2016-11-27T10:12:54.000Z</time>
      </trkpt>
      <trkpt lat="46.05606" lon="4.53235">
        <ele>736</ele>
        <time>2016-11-27T10:12:55.000Z</time>
      </trkpt>
      <trkpt lat="46.05609" lon="4.53234">
        <ele>736</ele>
        <time>2016-11-27T10:12:56.000Z</time>
      </trkpt>
      <trkpt lat="46.05612" lon="4.53234">
        <ele>736</ele>
        <time>2016-11-27T10:12:57.000Z</time>
      </trkpt>
      <trkpt lat="46.05615" lon="4.53233">
        <ele>736</ele>
        <time>2016-11-27T10:12:58.000Z</time>
      </trkpt>
      <trkpt lat="46.05618" lon="4.53232">
        <ele>736</ele>
        <time>2016-11-27T10:12:59.000Z</time>
      </trkpt>
      <trkpt lat="46.05621" lon="4.53231">
        <ele>736</ele>
        <time>2016-11-27T10:13:00.000Z</time>
      </trkpt>
      <trkpt lat="46.05624" lon="4.5323">
        <ele>736</ele>
        <time>2016-11-27T10:13:01.000Z</time>
      </trkpt>
      <trkpt lat="46.05627" lon="4.53229">
        <ele>736</ele>
        <time>2016-11-27T10:13:02.000Z</time>
      </trkpt>
      <trkpt lat="46.0563" lon="4.53227">
        <ele>736</ele>
        <time>2016-11-27T10:13:03.000Z</time>
      </trkpt>
      <trkpt lat="46.05633" lon="4.53226">
        <ele>736</ele>
        <time>2016-11-27T10:13:04.000Z</time>
      </trkpt>
      <trkpt lat="46.05635" lon="4.53225">
        <ele>736</ele>
        <time>2016-11-27T10:13:05.000Z</time>
      </trkpt>
      <trkpt lat="46.05638" lon="4.53223">
        <ele>736</ele>
        <time>2016-11-27T10:13:06.000Z</time>
      </trkpt>
      <trkpt lat="46.05641" lon="4.53222">
        <ele>735</ele>
        <time>2016-11-27T10:13:07.000Z</time>
      </trkpt>
      <trkpt lat="46.05644" lon="4.53221">
        <ele>735</ele>
        <time>2016-11-27T10:13:08.000Z</time>
      </trkpt>
      <trkpt lat="46.05647" lon="4.53219">
        <ele>734</ele>
        <time>2016-11-27T10:13:09.000Z</time>
      </trkpt>
      <trkpt lat="46.05649" lon="4.53218">
        <ele>734</ele>
        <time>2016-11-27T10:13:10.000Z</time>
      </trkpt>
      <trkpt lat="46.05652" lon="4.53216">
        <ele>734</ele>
        <time>2016-11-27T10:13:11.000Z</time>
      </trkpt>
      <trkpt lat="46.05655" lon="4.53214">
        <ele>734</ele>
        <time>2016-11-27T10:13:12.000Z</time>
      </trkpt>
      <trkpt lat="46.05658" lon="4.53212">
        <ele>734</ele>
        <time>2016-11-27T10:13:13.000Z</time>
      </trkpt>
      <trkpt lat="46.0566" lon="4.53211">
        <ele>733</ele>
        <time>2016-11-27T10:13:14.000Z</time>
      </trkpt>
      <trkpt lat="46.05663" lon="4.53209">
        <ele>734</ele>
        <time>2016-11-27T10:13:15.000Z</time>
      </trkpt>
      <trkpt lat="46.05666" lon="4.53208">
        <ele>734</ele>
        <time>2016-11-27T10:13:16.000Z</time>
      </trkpt>
      <trkpt lat="46.05669" lon="4.53206">
        <ele>734</ele>
        <time>2016-11-27T10:13:17.000Z</time>
      </trkpt>
      <trkpt lat="46.05672" lon="4.53204">
        <ele>733</ele>
        <time>2016-11-27T10:13:18.000Z</time>
      </trkpt>
      <trkpt lat="46.05675" lon="4.53203">
        <ele>733</ele>
        <time>2016-11-27T10:13:19.000Z</time>
      </trkpt>
      <trkpt lat="46.05677" lon="4.53202">
        <ele>733</ele>
        <time>2016-11-27T10:13:20.000Z</time>
      </trkpt>
      <trkpt lat="46.0568" lon="4.532">
        <ele>733</ele>
        <time>2016-11-27T10:13:21.000Z</time>
      </trkpt>
      <trkpt lat="46.05683" lon="4.53199">
        <ele>734</ele>
        <time>2016-11-27T10:13:22.000Z</time>
      </trkpt>
      <trkpt lat="46.05686" lon="4.53197">
        <ele>733</ele>
        <time>2016-11-27T10:13:23.000Z</time>
      </trkpt>
      <trkpt lat="46.05689" lon="4.53196">
        <ele>734</ele>
        <time>2016-11-27T10:13:24.000Z</time>
      </trkpt>
      <trkpt lat="46.05692" lon="4.53194">
        <ele>733</ele>
        <time>2016-11-27T10:13:25.000Z</time>
      </trkpt>
      <trkpt lat="46.05695" lon="4.53193">
        <ele>733</ele>
        <time>2016-11-27T10:13:26.000Z</time>
      </trkpt>
      <trkpt lat="46.05697" lon="4.53191">
        <ele>734</ele>
        <time>2016-11-27T10:13:27.000Z</time>
      </trkpt>
      <trkpt lat="46.057" lon="4.5319">
        <ele>734</ele>
        <time>2016-11-27T10:13:28.000Z</time>
      </trkpt>
      <trkpt lat="46.05703" lon="4.53188">
        <ele>734</ele>
        <time>2016-11-27T10:13:29.000Z</time>
      </trkpt>
      <trkpt lat="46.05707" lon="4.53187">
        <ele>734</ele>
        <time>2016-11-27T10:13:30.000Z</time>
      </trkpt>
      <trkpt lat="46.0571" lon="4.53186">
        <ele>734</ele>
        <time>2016-11-27T10:13:31.000Z</time>
      </trkpt>
      <trkpt lat="46.05713" lon="4.53186">
        <ele>733</ele>
        <time>2016-11-27T10:13:32.000Z</time>
      </trkpt>
      <trkpt lat="46.05716" lon="4.53186">
        <ele>733</ele>
        <time>2016-11-27T10:13:33.000Z</time>
      </trkpt>
      <trkpt lat="46.05719" lon="4.53185">
        <ele>733</ele>
        <time>2016-11-27T10:13:34.000Z</time>
      </trkpt>
      <trkpt lat="46.05722" lon="4.53186">
        <ele>733</ele>
        <time>2016-11-27T10:13:35.000Z</time>
      </trkpt>
      <trkpt lat="46.05725" lon="4.53187">
        <ele>731</ele>
        <time>2016-11-27T10:13:36.000Z</time>
      </trkpt>
      <trkpt lat="46.05729" lon="4.53189">
        <ele>731</ele>
        <time>2016-11-27T10:13:37.000Z</time>
      </trkpt>
      <trkpt lat="46.05732" lon="4.53191">
        <ele>731</ele>
        <time>2016-11-27T10:13:38.000Z</time>
      </trkpt>
      <trkpt lat="46.05734" lon="4.53193">
        <ele>731</ele>
        <time>2016-11-27T10:13:39.000Z</time>
      </trkpt>
      <trkpt lat="46.05737" lon="4.53196">
        <ele>731</ele>
        <time>2016-11-27T10:13:40.000Z</time>
      </trkpt>
      <trkpt lat="46.05739" lon="4.53198">
        <ele>731</ele>
        <time>2016-11-27T10:13:41.000Z</time>
      </trkpt>
      <trkpt lat="46.05741" lon="4.53201">
        <ele>731</ele>
        <time>2016-11-27T10:13:42.000Z</time>
      </trkpt>
      <trkpt lat="46.05742" lon="4.53205">
        <ele>731</ele>
        <time>2016-11-27T10:13:43.000Z</time>
      </trkpt>
      <trkpt lat="46.05744" lon="4.53208">
        <ele>731</ele>
        <time>2016-11-27T10:13:44.000Z</time>
      </trkpt>
      <trkpt lat="46.05746" lon="4.53211">
        <ele>731</ele>
        <time>2016-11-27T10:13:45.000Z</time>
      </trkpt>
      <trkpt lat="46.05747" lon="4.53215">
        <ele>731</ele>
        <time>2016-11-27T10:13:46.000Z</time>
      </trkpt>
      <trkpt lat="46.05748" lon="4.53218">
        <ele>732</ele>
        <time>2016-11-27T10:13:47.000Z</time>
      </trkpt>
      <trkpt lat="46.0575" lon="4.53222">
        <ele>732</ele>
        <time>2016-11-27T10:13:48.000Z</time>
      </trkpt>
      <trkpt lat="46.05751" lon="4.53226">
        <ele>732</ele>
        <time>2016-11-27T10:13:49.000Z</time>
      </trkpt>
      <trkpt lat="46.05752" lon="4.5323">
        <ele>732</ele>
        <time>2016-11-27T10:13:50.000Z</time>
      </trkpt>
      <trkpt lat="46.05753" lon="4.53234">
        <ele>732</ele>
        <time>2016-11-27T10:13:51.000Z</time>
      </trkpt>
      <trkpt lat="46.05753" lon="4.53238">
        <ele>732</ele>
        <time>2016-11-27T10:13:52.000Z</time>
      </trkpt>
      <trkpt lat="46.05754" lon="4.53241">
        <ele>733</ele>
        <time>2016-11-27T10:13:53.000Z</time>
      </trkpt>
      <trkpt lat="46.05754" lon="4.53244">
        <ele>734</ele>
        <time>2016-11-27T10:13:54.000Z</time>
      </trkpt>
      <trkpt lat="46.05755" lon="4.53248">
        <ele>734</ele>
        <time>2016-11-27T10:13:55.000Z</time>
      </trkpt>
      <trkpt lat="46.05756" lon="4.53251">
        <ele>734</ele>
        <time>2016-11-27T10:13:56.000Z</time>
      </trkpt>
      <trkpt lat="46.05757" lon="4.53254">
        <ele>734</ele>
        <time>2016-11-27T10:13:57.000Z</time>
      </trkpt>
      <trkpt lat="46.05757" lon="4.53258">
        <ele>734</ele>
        <time>2016-11-27T10:13:58.000Z</time>
      </trkpt>
      <trkpt lat="46.05758" lon="4.53262">
        <ele>734</ele>
        <time>2016-11-27T10:13:59.000Z</time>
      </trkpt>
      <trkpt lat="46.05759" lon="4.53266">
        <ele>734</ele>
        <time>2016-11-27T10:14:00.000Z</time>
      </trkpt>
      <trkpt lat="46.0576" lon="4.5327">
        <ele>734</ele>
        <time>2016-11-27T10:14:01.000Z</time>
      </trkpt>
      <trkpt lat="46.0576" lon="4.53274">
        <ele>734</ele>
        <time>2016-11-27T10:14:02.000Z</time>
      </trkpt>
      <trkpt lat="46.05761" lon="4.53278">
        <ele>734</ele>
        <time>2016-11-27T10:14:03.000Z</time>
      </trkpt>
      <trkpt lat="46.05762" lon="4.53282">
        <ele>734</ele>
        <time>2016-11-27T10:14:04.000Z</time>
      </trkpt>
      <trkpt lat="46.05763" lon="4.53286">
        <ele>734</ele>
        <time>2016-11-27T10:14:05.000Z</time>
      </trkpt>
      <trkpt lat="46.05764" lon="4.53289">
        <ele>734</ele>
        <time>2016-11-27T10:14:06.000Z</time>
      </trkpt>
      <trkpt lat="46.05765" lon="4.53293">
        <ele>735</ele>
        <time>2016-11-27T10:14:07.000Z</time>
      </trkpt>
      <trkpt lat="46.05765" lon="4.53297">
        <ele>734</ele>
        <time>2016-11-27T10:14:08.000Z</time>
      </trkpt>
      <trkpt lat="46.05766" lon="4.53301">
        <ele>734</ele>
        <time>2016-11-27T10:14:09.000Z</time>
      </trkpt>
      <trkpt lat="46.05766" lon="4.53305">
        <ele>733</ele>
        <time>2016-11-27T10:14:10.000Z</time>
      </trkpt>
      <trkpt lat="46.05766" lon="4.53309">
        <ele>733</ele>
        <time>2016-11-27T10:14:11.000Z</time>
      </trkpt>
      <trkpt lat="46.05766" lon="4.53313">
        <ele>733</ele>
        <time>2016-11-27T10:14:12.000Z</time>
      </trkpt>
      <trkpt lat="46.05767" lon="4.53317">
        <ele>733</ele>
        <time>2016-11-27T10:14:13.000Z</time>
      </trkpt>
      <trkpt lat="46.05767" lon="4.53321">
        <ele>734</ele>
        <time>2016-11-27T10:14:14.000Z</time>
      </trkpt>
      <trkpt lat="46.05768" lon="4.53326">
        <ele>733</ele>
        <time>2016-11-27T10:14:15.000Z</time>
      </trkpt>
      <trkpt lat="46.05769" lon="4.5333">
        <ele>733</ele>
        <time>2016-11-27T10:14:16.000Z</time>
      </trkpt>
      <trkpt lat="46.05769" lon="4.53335">
        <ele>734</ele>
        <time>2016-11-27T10:14:17.000Z</time>
      </trkpt>
      <trkpt lat="46.0577" lon="4.53339">
        <ele>734</ele>
        <time>2016-11-27T10:14:18.000Z</time>
      </trkpt>
      <trkpt lat="46.0577" lon="4.53343">
        <ele>735</ele>
        <time>2016-11-27T10:14:19.000Z</time>
      </trkpt>
      <trkpt lat="46.05771" lon="4.53347">
        <ele>735</ele>
        <time>2016-11-27T10:14:20.000Z</time>
      </trkpt>
      <trkpt lat="46.05771" lon="4.53351">
        <ele>735</ele>
        <time>2016-11-27T10:14:21.000Z</time>
      </trkpt>
      <trkpt lat="46.05772" lon="4.53355">
        <ele>736</ele>
        <time>2016-11-27T10:14:22.000Z</time>
      </trkpt>
      <trkpt lat="46.05773" lon="4.53359">
        <ele>737</ele>
        <time>2016-11-27T10:14:23.000Z</time>
      </trkpt>
      <trkpt lat="46.05773" lon="4.53363">
        <ele>738</ele>
        <time>2016-11-27T10:14:24.000Z</time>
      </trkpt>
      <trkpt lat="46.05774" lon="4.53368">
        <ele>738</ele>
        <time>2016-11-27T10:14:25.000Z</time>
      </trkpt>
      <trkpt lat="46.05774" lon="4.53372">
        <ele>738</ele>
        <time>2016-11-27T10:14:26.000Z</time>
      </trkpt>
      <trkpt lat="46.05774" lon="4.53376">
        <ele>738</ele>
        <time>2016-11-27T10:14:27.000Z</time>
      </trkpt>
      <trkpt lat="46.05774" lon="4.5338">
        <ele>739</ele>
        <time>2016-11-27T10:14:28.000Z</time>
      </trkpt>
      <trkpt lat="46.05774" lon="4.53385">
        <ele>738</ele>
        <time>2016-11-27T10:14:29.000Z</time>
      </trkpt>
      <trkpt lat="46.05773" lon="4.53389">
        <ele>738</ele>
        <time>2016-11-27T10:14:30.000Z</time>
      </trkpt>
      <trkpt lat="46.05773" lon="4.53393">
        <ele>738</ele>
        <time>2016-11-27T10:14:31.000Z</time>
      </trkpt>
      <trkpt lat="46.05773" lon="4.53396">
        <ele>738</ele>
        <time>2016-11-27T10:14:32.000Z</time>
      </trkpt>
      <trkpt lat="46.05772" lon="4.534">
        <ele>737</ele>
        <time>2016-11-27T10:14:33.000Z</time>
      </trkpt>
      <trkpt lat="46.05772" lon="4.53404">
        <ele>737</ele>
        <time>2016-11-27T10:14:34.000Z</time>
      </trkpt>
      <trkpt lat="46.05772" lon="4.53409">
        <ele>737</ele>
        <time>2016-11-27T10:14:35.000Z</time>
      </trkpt>
      <trkpt lat="46.05771" lon="4.53414">
        <ele>738</ele>
        <time>2016-11-27T10:14:36.000Z</time>
      </trkpt>
      <trkpt lat="46.05771" lon="4.53418">
        <ele>738</ele>
        <time>2016-11-27T10:14:37.000Z</time>
      </trkpt>
      <trkpt lat="46.05771" lon="4.53422">
        <ele>739</ele>
        <time>2016-11-27T10:14:38.000Z</time>
      </trkpt>
      <trkpt lat="46.05771" lon="4.53426">
        <ele>739</ele>
        <time>2016-11-27T10:14:39.000Z</time>
      </trkpt>
      <trkpt lat="46.0577" lon="4.53431">
        <ele>739</ele>
        <time>2016-11-27T10:14:40.000Z</time>
      </trkpt>
      <trkpt lat="46.0577" lon="4.53435">
        <ele>738</ele>
        <time>2016-11-27T10:14:41.000Z</time>
      </trkpt>
      <trkpt lat="46.05768" lon="4.5344">
        <ele>737</ele>
        <time>2016-11-27T10:14:42.000Z</time>
      </trkpt>
      <trkpt lat="46.05767" lon="4.53445">
        <ele>737</ele>
        <time>2016-11-27T10:14:43.000Z</time>
      </trkpt>
      <trkpt lat="46.05766" lon="4.5345">
        <ele>737</ele>
        <time>2016-11-27T10:14:44.000Z</time>
      </trkpt>
      <trkpt lat="46.05764" lon="4.53455">
        <ele>736</ele>
        <time>2016-11-27T10:14:45.000Z</time>
      </trkpt>
      <trkpt lat="46.05763" lon="4.5346">
        <ele>736</ele>
        <time>2016-11-27T10:14:46.000Z</time>
      </trkpt>
      <trkpt lat="46.05762" lon="4.53465">
        <ele>737</ele>
        <time>2016-11-27T10:14:47.000Z</time>
      </trkpt>
      <trkpt lat="46.05761" lon="4.5347">
        <ele>736</ele>
        <time>2016-11-27T10:14:48.000Z</time>
      </trkpt>
      <trkpt lat="46.0576" lon="4.53474">
        <ele>737</ele>
        <time>2016-11-27T10:14:49.000Z</time>
      </trkpt>
      <trkpt lat="46.0576" lon="4.53478">
        <ele>736</ele>
        <time>2016-11-27T10:14:50.000Z</time>
      </trkpt>
      <trkpt lat="46.0576" lon="4.53482">
        <ele>736</ele>
        <time>2016-11-27T10:14:51.000Z</time>
      </trkpt>
      <trkpt lat="46.0576" lon="4.53486">
        <ele>736</ele>
        <time>2016-11-27T10:14:52.000Z</time>
      </trkpt>
      <trkpt lat="46.0576" lon="4.53489">
        <ele>737</ele>
        <time>2016-11-27T10:14:53.000Z</time>
      </trkpt>
      <trkpt lat="46.0576" lon="4.53493">
        <ele>738</ele>
        <time>2016-11-27T10:14:54.000Z</time>
      </trkpt>
      <trkpt lat="46.0576" lon="4.53497">
        <ele>738</ele>
        <time>2016-11-27T10:14:55.000Z</time>
      </trkpt>
      <trkpt lat="46.05759" lon="4.53501">
        <ele>738</ele>
        <time>2016-11-27T10:14:56.000Z</time>
      </trkpt>
      <trkpt lat="46.05759" lon="4.53505">
        <ele>737</ele>
        <time>2016-11-27T10:14:57.000Z</time>
      </trkpt>
      <trkpt lat="46.05758" lon="4.5351">
        <ele>737</ele>
        <time>2016-11-27T10:14:58.000Z</time>
      </trkpt>
      <trkpt lat="46.05757" lon="4.53515">
        <ele>736</ele>
        <time>2016-11-27T10:14:59.000Z</time>
      </trkpt>
      <trkpt lat="46.05757" lon="4.53519">
        <ele>735</ele>
        <time>2016-11-27T10:15:00.000Z</time>
      </trkpt>
      <trkpt lat="46.05757" lon="4.53523">
        <ele>735</ele>
        <time>2016-11-27T10:15:01.000Z</time>
      </trkpt>
      <trkpt lat="46.05757" lon="4.53527">
        <ele>735</ele>
        <time>2016-11-27T10:15:02.000Z</time>
      </trkpt>
      <trkpt lat="46.05757" lon="4.53531">
        <ele>735</ele>
        <time>2016-11-27T10:15:03.000Z</time>
      </trkpt>
      <trkpt lat="46.05757" lon="4.53535">
        <ele>735</ele>
        <time>2016-11-27T10:15:04.000Z</time>
      </trkpt>
      <trkpt lat="46.05757" lon="4.53539">
        <ele>734</ele>
        <time>2016-11-27T10:15:05.000Z</time>
      </trkpt>
      <trkpt lat="46.05756" lon="4.53543">
        <ele>735</ele>
        <time>2016-11-27T10:15:06.000Z</time>
      </trkpt>
      <trkpt lat="46.05756" lon="4.53547">
        <ele>735</ele>
        <time>2016-11-27T10:15:07.000Z</time>
      </trkpt>
      <trkpt lat="46.05757" lon="4.53551">
        <ele>736</ele>
        <time>2016-11-27T10:15:08.000Z</time>
      </trkpt>
      <trkpt lat="46.05757" lon="4.53555">
        <ele>736</ele>
        <time>2016-11-27T10:15:09.000Z</time>
      </trkpt>
      <trkpt lat="46.05757" lon="4.5356">
        <ele>736</ele>
        <time>2016-11-27T10:15:10.000Z</time>
      </trkpt>
      <trkpt lat="46.05757" lon="4.53564">
        <ele>736</ele>
        <time>2016-11-27T10:15:11.000Z</time>
      </trkpt>
      <trkpt lat="46.05758" lon="4.53568">
        <ele>736</ele>
        <time>2016-11-27T10:15:12.000Z</time>
      </trkpt>
      <trkpt lat="46.05758" lon="4.53572">
        <ele>737</ele>
        <time>2016-11-27T10:15:13.000Z</time>
      </trkpt>
      <trkpt lat="46.05759" lon="4.53577">
        <ele>738</ele>
        <time>2016-11-27T10:15:14.000Z</time>
      </trkpt>
      <trkpt lat="46.05759" lon="4.53581">
        <ele>738</ele>
        <time>2016-11-27T10:15:15.000Z</time>
      </trkpt>
      <trkpt lat="46.0576" lon="4.53586">
        <ele>739</ele>
        <time>2016-11-27T10:15:16.000Z</time>
      </trkpt>
      <trkpt lat="46.05761" lon="4.5359">
        <ele>740</ele>
        <time>2016-11-27T10:15:17.000Z</time>
      </trkpt>
      <trkpt lat="46.05762" lon="4.53593">
        <ele>740</ele>
        <time>2016-11-27T10:15:18.000Z</time>
      </trkpt>
      <trkpt lat="46.05763" lon="4.53597">
        <ele>742</ele>
        <time>2016-11-27T10:15:19.000Z</time>
      </trkpt>
      <trkpt lat="46.05764" lon="4.53601">
        <ele>742</ele>
        <time>2016-11-27T10:15:20.000Z</time>
      </trkpt>
      <trkpt lat="46.05765" lon="4.53605">
        <ele>742</ele>
        <time>2016-11-27T10:15:21.000Z</time>
      </trkpt>
      <trkpt lat="46.05766" lon="4.53609">
        <ele>741</ele>
        <time>2016-11-27T10:15:22.000Z</time>
      </trkpt>
      <trkpt lat="46.05766" lon="4.53613">
        <ele>741</ele>
        <time>2016-11-27T10:15:23.000Z</time>
      </trkpt>
      <trkpt lat="46.05766" lon="4.53617">
        <ele>742</ele>
        <time>2016-11-27T10:15:24.000Z</time>
      </trkpt>
      <trkpt lat="46.05766" lon="4.53622">
        <ele>742</ele>
        <time>2016-11-27T10:15:25.000Z</time>
      </trkpt>
      <trkpt lat="46.05767" lon="4.53626">
        <ele>742</ele>
        <time>2016-11-27T10:15:26.000Z</time>
      </trkpt>
      <trkpt lat="46.05767" lon="4.5363">
        <ele>742</ele>
        <time>2016-11-27T10:15:27.000Z</time>
      </trkpt>
      <trkpt lat="46.05768" lon="4.53633">
        <ele>742</ele>
        <time>2016-11-27T10:15:28.000Z</time>
      </trkpt>
      <trkpt lat="46.05769" lon="4.53637">
        <ele>742</ele>
        <time>2016-11-27T10:15:29.000Z</time>
      </trkpt>
      <trkpt lat="46.0577" lon="4.53641">
        <ele>741</ele>
        <time>2016-11-27T10:15:30.000Z</time>
      </trkpt>
      <trkpt lat="46.05771" lon="4.53644">
        <ele>741</ele>
        <time>2016-11-27T10:15:31.000Z</time>
      </trkpt>
      <trkpt lat="46.05772" lon="4.53648">
        <ele>741</ele>
        <time>2016-11-27T10:15:32.000Z</time>
      </trkpt>
      <trkpt lat="46.05773" lon="4.53651">
        <ele>741</ele>
        <time>2016-11-27T10:15:33.000Z</time>
      </trkpt>
      <trkpt lat="46.05774" lon="4.53655">
        <ele>741</ele>
        <time>2016-11-27T10:15:34.000Z</time>
      </trkpt>
      <trkpt lat="46.05775" lon="4.53658">
        <ele>741</ele>
        <time>2016-11-27T10:15:35.000Z</time>
      </trkpt>
      <trkpt lat="46.05776" lon="4.53662">
        <ele>740</ele>
        <time>2016-11-27T10:15:36.000Z</time>
      </trkpt>
      <trkpt lat="46.05777" lon="4.53665">
        <ele>740</ele>
        <time>2016-11-27T10:15:37.000Z</time>
      </trkpt>
      <trkpt lat="46.05778" lon="4.53668">
        <ele>740</ele>
        <time>2016-11-27T10:15:38.000Z</time>
      </trkpt>
      <trkpt lat="46.05779" lon="4.53671">
        <ele>740</ele>
        <time>2016-11-27T10:15:39.000Z</time>
      </trkpt>
      <trkpt lat="46.05781" lon="4.53674">
        <ele>740</ele>
        <time>2016-11-27T10:15:40.000Z</time>
      </trkpt>
      <trkpt lat="46.05782" lon="4.53677">
        <ele>740</ele>
        <time>2016-11-27T10:15:41.000Z</time>
      </trkpt>
      <trkpt lat="46.05784" lon="4.5368">
        <ele>740</ele>
        <time>2016-11-27T10:15:42.000Z</time>
      </trkpt>
      <trkpt lat="46.05785" lon="4.53682">
        <ele>740</ele>
        <time>2016-11-27T10:15:43.000Z</time>
      </trkpt>
      <trkpt lat="46.05787" lon="4.53685">
        <ele>739</ele>
        <time>2016-11-27T10:15:44.000Z</time>
      </trkpt>
      <trkpt lat="46.05789" lon="4.53688">
        <ele>739</ele>
        <time>2016-11-27T10:15:45.000Z</time>
      </trkpt>
      <trkpt lat="46.05791" lon="4.5369">
        <ele>739</ele>
        <time>2016-11-27T10:15:46.000Z</time>
      </trkpt>
      <trkpt lat="46.05793" lon="4.53693">
        <ele>739</ele>
        <time>2016-11-27T10:15:47.000Z</time>
      </trkpt>
      <trkpt lat="46.05795" lon="4.53695">
        <ele>739</ele>
        <time>2016-11-27T10:15:48.000Z</time>
      </trkpt>
      <trkpt lat="46.05796" lon="4.53698">
        <ele>738</ele>
        <time>2016-11-27T10:15:49.000Z</time>
      </trkpt>
      <trkpt lat="46.05797" lon="4.53701">
        <ele>738</ele>
        <time>2016-11-27T10:15:50.000Z</time>
      </trkpt>
      <trkpt lat="46.05799" lon="4.53704">
        <ele>739</ele>
        <time>2016-11-27T10:15:51.000Z</time>
      </trkpt>
      <trkpt lat="46.05801" lon="4.53707">
        <ele>739</ele>
        <time>2016-11-27T10:15:52.000Z</time>
      </trkpt>
      <trkpt lat="46.05802" lon="4.5371">
        <ele>739</ele>
        <time>2016-11-27T10:15:53.000Z</time>
      </trkpt>
      <trkpt lat="46.05804" lon="4.53713">
        <ele>739</ele>
        <time>2016-11-27T10:15:54.000Z</time>
      </trkpt>
      <trkpt lat="46.05807" lon="4.53716">
        <ele>740</ele>
        <time>2016-11-27T10:15:55.000Z</time>
      </trkpt>
      <trkpt lat="46.05809" lon="4.53719">
        <ele>740</ele>
        <time>2016-11-27T10:15:56.000Z</time>
      </trkpt>
      <trkpt lat="46.05812" lon="4.53722">
        <ele>740</ele>
        <time>2016-11-27T10:15:57.000Z</time>
      </trkpt>
      <trkpt lat="46.05814" lon="4.53726">
        <ele>740</ele>
        <time>2016-11-27T10:15:58.000Z</time>
      </trkpt>
      <trkpt lat="46.05817" lon="4.53728">
        <ele>740</ele>
        <time>2016-11-27T10:15:59.000Z</time>
      </trkpt>
      <trkpt lat="46.0582" lon="4.5373">
        <ele>741</ele>
        <time>2016-11-27T10:16:00.000Z</time>
      </trkpt>
      <trkpt lat="46.05823" lon="4.53732">
        <ele>740</ele>
        <time>2016-11-27T10:16:01.000Z</time>
      </trkpt>
      <trkpt lat="46.05826" lon="4.53734">
        <ele>740</ele>
        <time>2016-11-27T10:16:02.000Z</time>
      </trkpt>
      <trkpt lat="46.05829" lon="4.53735">
        <ele>740</ele>
        <time>2016-11-27T10:16:03.000Z</time>
      </trkpt>
      <trkpt lat="46.05832" lon="4.53737">
        <ele>740</ele>
        <time>2016-11-27T10:16:04.000Z</time>
      </trkpt>
      <trkpt lat="46.05834" lon="4.53738">
        <ele>740</ele>
        <time>2016-11-27T10:16:05.000Z</time>
      </trkpt>
      <trkpt lat="46.05837" lon="4.53739">
        <ele>740</ele>
        <time>2016-11-27T10:16:06.000Z</time>
      </trkpt>
      <trkpt lat="46.0584" lon="4.5374">
        <ele>740</ele>
        <time>2016-11-27T10:16:07.000Z</time>
      </trkpt>
      <trkpt lat="46.05843" lon="4.53741">
        <ele>740</ele>
        <time>2016-11-27T10:16:08.000Z</time>
      </trkpt>
      <trkpt lat="46.05845" lon="4.53741">
        <ele>740</ele>
        <time>2016-11-27T10:16:09.000Z</time>
      </trkpt>
      <trkpt lat="46.05848" lon="4.53742">
        <ele>740</ele>
        <time>2016-11-27T10:16:10.000Z</time>
      </trkpt>
      <trkpt lat="46.0585" lon="4.53743">
        <ele>740</ele>
        <time>2016-11-27T10:16:11.000Z</time>
      </trkpt>
      <trkpt lat="46.05853" lon="4.53744">
        <ele>740</ele>
        <time>2016-11-27T10:16:12.000Z</time>
      </trkpt>
      <trkpt lat="46.05855" lon="4.53744">
        <ele>740</ele>
        <time>2016-11-27T10:16:13.000Z</time>
      </trkpt>
      <trkpt lat="46.05858" lon="4.53744">
        <ele>740</ele>
        <time>2016-11-27T10:16:14.000Z</time>
      </trkpt>
      <trkpt lat="46.05861" lon="4.53745">
        <ele>741</ele>
        <time>2016-11-27T10:16:15.000Z</time>
      </trkpt>
      <trkpt lat="46.05863" lon="4.53746">
        <ele>742</ele>
        <time>2016-11-27T10:16:16.000Z</time>
      </trkpt>
      <trkpt lat="46.05866" lon="4.53747">
        <ele>741</ele>
        <time>2016-11-27T10:16:17.000Z</time>
      </trkpt>
      <trkpt lat="46.05869" lon="4.53749">
        <ele>741</ele>
        <time>2016-11-27T10:16:18.000Z</time>
      </trkpt>
      <trkpt lat="46.05871" lon="4.53751">
        <ele>741</ele>
        <time>2016-11-27T10:16:19.000Z</time>
      </trkpt>
      <trkpt lat="46.05874" lon="4.53753">
        <ele>741</ele>
        <time>2016-11-27T10:16:20.000Z</time>
      </trkpt>
      <trkpt lat="46.05876" lon="4.53755">
        <ele>741</ele>
        <time>2016-11-27T10:16:21.000Z</time>
      </trkpt>
      <trkpt lat="46.05879" lon="4.53758">
        <ele>742</ele>
        <time>2016-11-27T10:16:22.000Z</time>
      </trkpt>
      <trkpt lat="46.05881" lon="4.53761">
        <ele>742</ele>
        <time>2016-11-27T10:16:23.000Z</time>
      </trkpt>
      <trkpt lat="46.05883" lon="4.53765">
        <ele>741</ele>
        <time>2016-11-27T10:16:24.000Z</time>
      </trkpt>
      <trkpt lat="46.05885" lon="4.53769">
        <ele>740</ele>
        <time>2016-11-27T10:16:25.000Z</time>
      </trkpt>
      <trkpt lat="46.05886" lon="4.53773">
        <ele>739</ele>
        <time>2016-11-27T10:16:26.000Z</time>
      </trkpt>
      <trkpt lat="46.05887" lon="4.53776">
        <ele>738</ele>
        <time>2016-11-27T10:16:27.000Z</time>
      </trkpt>
      <trkpt lat="46.05887" lon="4.53779">
        <ele>737</ele>
        <time>2016-11-27T10:16:28.000Z</time>
      </trkpt>
      <trkpt lat="46.05887" lon="4.53783">
        <ele>737</ele>
        <time>2016-11-27T10:16:29.000Z</time>
      </trkpt>
      <trkpt lat="46.05887" lon="4.53786">
        <ele>736</ele>
        <time>2016-11-27T10:16:30.000Z</time>
      </trkpt>
      <trkpt lat="46.05886" lon="4.53789">
        <ele>736</ele>
        <time>2016-11-27T10:16:31.000Z</time>
      </trkpt>
      <trkpt lat="46.05885" lon="4.53792">
        <ele>735</ele>
        <time>2016-11-27T10:16:32.000Z</time>
      </trkpt>
      <trkpt lat="46.05883" lon="4.53796">
        <ele>734</ele>
        <time>2016-11-27T10:16:33.000Z</time>
      </trkpt>
      <trkpt lat="46.05881" lon="4.53799">
        <ele>732</ele>
        <time>2016-11-27T10:16:34.000Z</time>
      </trkpt>
      <trkpt lat="46.05878" lon="4.53801">
        <ele>731</ele>
        <time>2016-11-27T10:16:35.000Z</time>
      </trkpt>
      <trkpt lat="46.05874" lon="4.53804">
        <ele>729</ele>
        <time>2016-11-27T10:16:36.000Z</time>
      </trkpt>
      <trkpt lat="46.05869" lon="4.53806">
        <ele>728</ele>
        <time>2016-11-27T10:16:37.000Z</time>
      </trkpt>
      <trkpt lat="46.05866" lon="4.53809">
        <ele>727</ele>
        <time>2016-11-27T10:16:38.000Z</time>
      </trkpt>
      <trkpt lat="46.05863" lon="4.53811">
        <ele>727</ele>
        <time>2016-11-27T10:16:39.000Z</time>
      </trkpt>
      <trkpt lat="46.0586" lon="4.53813">
        <ele>725</ele>
        <time>2016-11-27T10:16:40.000Z</time>
      </trkpt>
      <trkpt lat="46.05857" lon="4.53814">
        <ele>724</ele>
        <time>2016-11-27T10:16:41.000Z</time>
      </trkpt>
      <trkpt lat="46.05855" lon="4.53815">
        <ele>723</ele>
        <time>2016-11-27T10:16:42.000Z</time>
      </trkpt>
      <trkpt lat="46.05852" lon="4.53817">
        <ele>722</ele>
        <time>2016-11-27T10:16:43.000Z</time>
      </trkpt>
      <trkpt lat="46.05849" lon="4.53819">
        <ele>722</ele>
        <time>2016-11-27T10:16:44.000Z</time>
      </trkpt>
      <trkpt lat="46.05846" lon="4.53821">
        <ele>722</ele>
        <time>2016-11-27T10:16:45.000Z</time>
      </trkpt>
      <trkpt lat="46.05843" lon="4.53822">
        <ele>722</ele>
        <time>2016-11-27T10:16:46.000Z</time>
      </trkpt>
      <trkpt lat="46.0584" lon="4.53824">
        <ele>721</ele>
        <time>2016-11-27T10:16:47.000Z</time>
      </trkpt>
      <trkpt lat="46.05838" lon="4.53826">
        <ele>721</ele>
        <time>2016-11-27T10:16:48.000Z</time>
      </trkpt>
      <trkpt lat="46.05835" lon="4.53829">
        <ele>722</ele>
        <time>2016-11-27T10:16:49.000Z</time>
      </trkpt>
      <trkpt lat="46.05832" lon="4.53832">
        <ele>724</ele>
        <time>2016-11-27T10:16:50.000Z</time>
      </trkpt>
      <trkpt lat="46.05829" lon="4.53835">
        <ele>725</ele>
        <time>2016-11-27T10:16:51.000Z</time>
      </trkpt>
      <trkpt lat="46.05826" lon="4.53837">
        <ele>725</ele>
        <time>2016-11-27T10:16:52.000Z</time>
      </trkpt>
      <trkpt lat="46.05823" lon="4.53839">
        <ele>724</ele>
        <time>2016-11-27T10:16:53.000Z</time>
      </trkpt>
      <trkpt lat="46.0582" lon="4.53841">
        <ele>725</ele>
        <time>2016-11-27T10:16:54.000Z</time>
      </trkpt>
      <trkpt lat="46.05817" lon="4.53843">
        <ele>726</ele>
        <time>2016-11-27T10:16:55.000Z</time>
      </trkpt>
      <trkpt lat="46.05815" lon="4.53845">
        <ele>726</ele>
        <time>2016-11-27T10:16:56.000Z</time>
      </trkpt>
      <trkpt lat="46.05812" lon="4.53847">
        <ele>726</ele>
        <time>2016-11-27T10:16:57.000Z</time>
      </trkpt>
      <trkpt lat="46.05808" lon="4.53849">
        <ele>726</ele>
        <time>2016-11-27T10:16:58.000Z</time>
      </trkpt>
      <trkpt lat="46.05805" lon="4.53851">
        <ele>726</ele>
        <time>2016-11-27T10:16:59.000Z</time>
      </trkpt>
      <trkpt lat="46.05801" lon="4.53853">
        <ele>725</ele>
        <time>2016-11-27T10:17:00.000Z</time>
      </trkpt>
      <trkpt lat="46.05797" lon="4.53855">
        <ele>725</ele>
        <time>2016-11-27T10:17:01.000Z</time>
      </trkpt>
      <trkpt lat="46.05793" lon="4.53856">
        <ele>725</ele>
        <time>2016-11-27T10:17:02.000Z</time>
      </trkpt>
      <trkpt lat="46.0579" lon="4.53857">
        <ele>723</ele>
        <time>2016-11-27T10:17:03.000Z</time>
      </trkpt>
      <trkpt lat="46.05786" lon="4.53858">
        <ele>723</ele>
        <time>2016-11-27T10:17:04.000Z</time>
      </trkpt>
      <trkpt lat="46.05783" lon="4.53859">
        <ele>723</ele>
        <time>2016-11-27T10:17:05.000Z</time>
      </trkpt>
      <trkpt lat="46.0578" lon="4.5386">
        <ele>723</ele>
        <time>2016-11-27T10:17:06.000Z</time>
      </trkpt>
      <trkpt lat="46.05777" lon="4.53862">
        <ele>722</ele>
        <time>2016-11-27T10:17:07.000Z</time>
      </trkpt>
      <trkpt lat="46.05773" lon="4.53863">
        <ele>720</ele>
        <time>2016-11-27T10:17:08.000Z</time>
      </trkpt>
      <trkpt lat="46.05769" lon="4.53864">
        <ele>719</ele>
        <time>2016-11-27T10:17:09.000Z</time>
      </trkpt>
      <trkpt lat="46.05765" lon="4.53866">
        <ele>718</ele>
        <time>2016-11-27T10:17:10.000Z</time>
      </trkpt>
      <trkpt lat="46.05762" lon="4.53868">
        <ele>718</ele>
        <time>2016-11-27T10:17:11.000Z</time>
      </trkpt>
      <trkpt lat="46.05759" lon="4.53869">
        <ele>719</ele>
        <time>2016-11-27T10:17:12.000Z</time>
      </trkpt>
      <trkpt lat="46.05756" lon="4.5387">
        <ele>718</ele>
        <time>2016-11-27T10:17:13.000Z</time>
      </trkpt>
      <trkpt lat="46.05752" lon="4.53871">
        <ele>717</ele>
        <time>2016-11-27T10:17:14.000Z</time>
      </trkpt>
      <trkpt lat="46.05749" lon="4.53872">
        <ele>717</ele>
        <time>2016-11-27T10:17:15.000Z</time>
      </trkpt>
      <trkpt lat="46.05745" lon="4.53873">
        <ele>716</ele>
        <time>2016-11-27T10:17:16.000Z</time>
      </trkpt>
      <trkpt lat="46.05741" lon="4.53875">
        <ele>714</ele>
        <time>2016-11-27T10:17:17.000Z</time>
      </trkpt>
      <trkpt lat="46.05737" lon="4.53876">
        <ele>713</ele>
        <time>2016-11-27T10:17:18.000Z</time>
      </trkpt>
      <trkpt lat="46.05733" lon="4.53878">
        <ele>712</ele>
        <time>2016-11-27T10:17:19.000Z</time>
      </trkpt>
      <trkpt lat="46.05729" lon="4.53878">
        <ele>712</ele>
        <time>2016-11-27T10:17:20.000Z</time>
      </trkpt>
      <trkpt lat="46.05725" lon="4.53879">
        <ele>712</ele>
        <time>2016-11-27T10:17:21.000Z</time>
      </trkpt>
      <trkpt lat="46.05721" lon="4.53879">
        <ele>710</ele>
        <time>2016-11-27T10:17:22.000Z</time>
      </trkpt>
      <trkpt lat="46.05717" lon="4.5388">
        <ele>710</ele>
        <time>2016-11-27T10:17:23.000Z</time>
      </trkpt>
      <trkpt lat="46.05713" lon="4.53881">
        <ele>710</ele>
        <time>2016-11-27T10:17:24.000Z</time>
      </trkpt>
      <trkpt lat="46.05709" lon="4.53882">
        <ele>710</ele>
        <time>2016-11-27T10:17:25.000Z</time>
      </trkpt>
      <trkpt lat="46.05706" lon="4.53882">
        <ele>708</ele>
        <time>2016-11-27T10:17:26.000Z</time>
      </trkpt>
      <trkpt lat="46.05702" lon="4.53883">
        <ele>708</ele>
        <time>2016-11-27T10:17:27.000Z</time>
      </trkpt>
      <trkpt lat="46.05699" lon="4.53883">
        <ele>708</ele>
        <time>2016-11-27T10:17:28.000Z</time>
      </trkpt>
      <trkpt lat="46.05695" lon="4.53883">
        <ele>708</ele>
        <time>2016-11-27T10:17:29.000Z</time>
      </trkpt>
      <trkpt lat="46.05691" lon="4.53883">
        <ele>708</ele>
        <time>2016-11-27T10:17:30.000Z</time>
      </trkpt>
      <trkpt lat="46.05687" lon="4.53883">
        <ele>707</ele>
        <time>2016-11-27T10:17:31.000Z</time>
      </trkpt>
      <trkpt lat="46.05683" lon="4.53883">
        <ele>708</ele>
        <time>2016-11-27T10:17:32.000Z</time>
      </trkpt>
      <trkpt lat="46.05679" lon="4.53883">
        <ele>708</ele>
        <time>2016-11-27T10:17:33.000Z</time>
      </trkpt>
      <trkpt lat="46.05676" lon="4.53883">
        <ele>707</ele>
        <time>2016-11-27T10:17:34.000Z</time>
      </trkpt>
      <trkpt lat="46.05672" lon="4.53883">
        <ele>707</ele>
        <time>2016-11-27T10:17:35.000Z</time>
      </trkpt>
      <trkpt lat="46.05668" lon="4.53883">
        <ele>706</ele>
        <time>2016-11-27T10:17:36.000Z</time>
      </trkpt>
      <trkpt lat="46.05665" lon="4.53884">
        <ele>705</ele>
        <time>2016-11-27T10:17:37.000Z</time>
      </trkpt>
      <trkpt lat="46.05661" lon="4.53884">
        <ele>705</ele>
        <time>2016-11-27T10:17:38.000Z</time>
      </trkpt>
      <trkpt lat="46.05658" lon="4.53884">
        <ele>704</ele>
        <time>2016-11-27T10:17:39.000Z</time>
      </trkpt>
      <trkpt lat="46.05655" lon="4.53885">
        <ele>704</ele>
        <time>2016-11-27T10:17:40.000Z</time>
      </trkpt>
      <trkpt lat="46.05651" lon="4.53885">
        <ele>703</ele>
        <time>2016-11-27T10:17:41.000Z</time>
      </trkpt>
      <trkpt lat="46.05648" lon="4.53885">
        <ele>703</ele>
        <time>2016-11-27T10:17:42.000Z</time>
      </trkpt>
      <trkpt lat="46.05644" lon="4.53886">
        <ele>705</ele>
        <time>2016-11-27T10:17:43.000Z</time>
      </trkpt>
      <trkpt lat="46.05641" lon="4.53888">
        <ele>706</ele>
        <time>2016-11-27T10:17:44.000Z</time>
      </trkpt>
      <trkpt lat="46.05637" lon="4.53889">
        <ele>706</ele>
        <time>2016-11-27T10:17:45.000Z</time>
      </trkpt>
      <trkpt lat="46.05634" lon="4.53891">
        <ele>707</ele>
        <time>2016-11-27T10:17:46.000Z</time>
      </trkpt>
      <trkpt lat="46.05631" lon="4.53893">
        <ele>707</ele>
        <time>2016-11-27T10:17:47.000Z</time>
      </trkpt>
      <trkpt lat="46.05628" lon="4.53894">
        <ele>706</ele>
        <time>2016-11-27T10:17:48.000Z</time>
      </trkpt>
      <trkpt lat="46.05626" lon="4.53896">
        <ele>706</ele>
        <time>2016-11-27T10:17:49.000Z</time>
      </trkpt>
      <trkpt lat="46.05624" lon="4.53897">
        <ele>706</ele>
        <time>2016-11-27T10:17:50.000Z</time>
      </trkpt>
      <trkpt lat="46.05623" lon="4.53899">
        <ele>706</ele>
        <time>2016-11-27T10:17:51.000Z</time>
      </trkpt>
      <trkpt lat="46.05621" lon="4.53901">
        <ele>706</ele>
        <time>2016-11-27T10:17:52.000Z</time>
      </trkpt>
      <trkpt lat="46.05619" lon="4.53903">
        <ele>705</ele>
        <time>2016-11-27T10:17:53.000Z</time>
      </trkpt>
      <trkpt lat="46.05618" lon="4.53906">
        <ele>705</ele>
        <time>2016-11-27T10:17:54.000Z</time>
      </trkpt>
      <trkpt lat="46.05616" lon="4.53908">
        <ele>705</ele>
        <time>2016-11-27T10:17:55.000Z</time>
      </trkpt>
      <trkpt lat="46.05614" lon="4.53911">
        <ele>705</ele>
        <time>2016-11-27T10:17:56.000Z</time>
      </trkpt>
      <trkpt lat="46.05613" lon="4.53914">
        <ele>705</ele>
        <time>2016-11-27T10:17:57.000Z</time>
      </trkpt>
      <trkpt lat="46.05611" lon="4.53918">
        <ele>705</ele>
        <time>2016-11-27T10:17:58.000Z</time>
      </trkpt>
      <trkpt lat="46.0561" lon="4.53922">
        <ele>707</ele>
        <time>2016-11-27T10:17:59.000Z</time>
      </trkpt>
      <trkpt lat="46.05608" lon="4.53928">
        <ele>710</ele>
        <time>2016-11-27T10:18:00.000Z</time>
      </trkpt>
      <trkpt lat="46.05606" lon="4.53935">
        <ele>712</ele>
        <time>2016-11-27T10:18:01.000Z</time>
      </trkpt>
      <trkpt lat="46.05604" lon="4.53942">
        <ele>713</ele>
        <time>2016-11-27T10:18:02.000Z</time>
      </trkpt>
      <trkpt lat="46.05602" lon="4.53948">
        <ele>713</ele>
        <time>2016-11-27T10:18:03.000Z</time>
      </trkpt>
      <trkpt lat="46.05601" lon="4.53953">
        <ele>714</ele>
        <time>2016-11-27T10:18:04.000Z</time>
      </trkpt>
      <trkpt lat="46.056" lon="4.53958">
        <ele>713</ele>
        <time>2016-11-27T10:18:05.000Z</time>
      </trkpt>
      <trkpt lat="46.05599" lon="4.53962">
        <ele>714</ele>
        <time>2016-11-27T10:18:06.000Z</time>
      </trkpt>
      <trkpt lat="46.05598" lon="4.53967">
        <ele>714</ele>
        <time>2016-11-27T10:18:07.000Z</time>
      </trkpt>
      <trkpt lat="46.05597" lon="4.53972">
        <ele>713</ele>
        <time>2016-11-27T10:18:08.000Z</time>
      </trkpt>
      <trkpt lat="46.05596" lon="4.53977">
        <ele>714</ele>
        <time>2016-11-27T10:18:09.000Z</time>
      </trkpt>
      <trkpt lat="46.05596" lon="4.53982">
        <ele>714</ele>
        <time>2016-11-27T10:18:10.000Z</time>
      </trkpt>
      <trkpt lat="46.05595" lon="4.53988">
        <ele>713</ele>
        <time>2016-11-27T10:18:11.000Z</time>
      </trkpt>
      <trkpt lat="46.05595" lon="4.53993">
        <ele>712</ele>
        <time>2016-11-27T10:18:12.000Z</time>
      </trkpt>
      <trkpt lat="46.05594" lon="4.53997">
        <ele>711</ele>
        <time>2016-11-27T10:18:13.000Z</time>
      </trkpt>
      <trkpt lat="46.05593" lon="4.54002">
        <ele>710</ele>
        <time>2016-11-27T10:18:14.000Z</time>
      </trkpt>
      <trkpt lat="46.05593" lon="4.54006">
        <ele>710</ele>
        <time>2016-11-27T10:18:15.000Z</time>
      </trkpt>
      <trkpt lat="46.05593" lon="4.54011">
        <ele>709</ele>
        <time>2016-11-27T10:18:16.000Z</time>
      </trkpt>
      <trkpt lat="46.05593" lon="4.54015">
        <ele>708</ele>
        <time>2016-11-27T10:18:17.000Z</time>
      </trkpt>
      <trkpt lat="46.05592" lon="4.5402">
        <ele>707</ele>
        <time>2016-11-27T10:18:18.000Z</time>
      </trkpt>
      <trkpt lat="46.05591" lon="4.54026">
        <ele>707</ele>
        <time>2016-11-27T10:18:19.000Z</time>
      </trkpt>
      <trkpt lat="46.05589" lon="4.54031">
        <ele>706</ele>
        <time>2016-11-27T10:18:20.000Z</time>
      </trkpt>
      <trkpt lat="46.05589" lon="4.54036">
        <ele>705</ele>
        <time>2016-11-27T10:18:21.000Z</time>
      </trkpt>
      <trkpt lat="46.05588" lon="4.54042">
        <ele>704</ele>
        <time>2016-11-27T10:18:22.000Z</time>
      </trkpt>
      <trkpt lat="46.05586" lon="4.54047">
        <ele>703</ele>
        <time>2016-11-27T10:18:23.000Z</time>
      </trkpt>
      <trkpt lat="46.05585" lon="4.54052">
        <ele>702</ele>
        <time>2016-11-27T10:18:24.000Z</time>
      </trkpt>
      <trkpt lat="46.05584" lon="4.54057">
        <ele>702</ele>
        <time>2016-11-27T10:18:25.000Z</time>
      </trkpt>
      <trkpt lat="46.05583" lon="4.54062">
        <ele>701</ele>
        <time>2016-11-27T10:18:26.000Z</time>
      </trkpt>
      <trkpt lat="46.05582" lon="4.54067">
        <ele>701</ele>
        <time>2016-11-27T10:18:27.000Z</time>
      </trkpt>
      <trkpt lat="46.05581" lon="4.54071">
        <ele>701</ele>
        <time>2016-11-27T10:18:28.000Z</time>
      </trkpt>
      <trkpt lat="46.0558" lon="4.54077">
        <ele>700</ele>
        <time>2016-11-27T10:18:29.000Z</time>
      </trkpt>
      <trkpt lat="46.05579" lon="4.54081">
        <ele>699</ele>
        <time>2016-11-27T10:18:30.000Z</time>
      </trkpt>
      <trkpt lat="46.05579" lon="4.54086">
        <ele>699</ele>
        <time>2016-11-27T10:18:31.000Z</time>
      </trkpt>
      <trkpt lat="46.05578" lon="4.54091">
        <ele>699</ele>
        <time>2016-11-27T10:18:32.000Z</time>
      </trkpt>
      <trkpt lat="46.05577" lon="4.54096">
        <ele>699</ele>
        <time>2016-11-27T10:18:33.000Z</time>
      </trkpt>
      <trkpt lat="46.05576" lon="4.541">
        <ele>700</ele>
        <time>2016-11-27T10:18:34.000Z</time>
      </trkpt>
      <trkpt lat="46.05575" lon="4.54105">
        <ele>700</ele>
        <time>2016-11-27T10:18:35.000Z</time>
      </trkpt>
      <trkpt lat="46.05574" lon="4.54109">
        <ele>700</ele>
        <time>2016-11-27T10:18:36.000Z</time>
      </trkpt>
      <trkpt lat="46.05573" lon="4.54114">
        <ele>700</ele>
        <time>2016-11-27T10:18:37.000Z</time>
      </trkpt>
      <trkpt lat="46.05571" lon="4.54119">
        <ele>699</ele>
        <time>2016-11-27T10:18:38.000Z</time>
      </trkpt>
      <trkpt lat="46.05571" lon="4.54124">
        <ele>700</ele>
        <time>2016-11-27T10:18:39.000Z</time>
      </trkpt>
      <trkpt lat="46.0557" lon="4.54129">
        <ele>700</ele>
        <time>2016-11-27T10:18:40.000Z</time>
      </trkpt>
      <trkpt lat="46.05568" lon="4.54134">
        <ele>700</ele>
        <time>2016-11-27T10:18:41.000Z</time>
      </trkpt>
      <trkpt lat="46.05567" lon="4.54139">
        <ele>701</ele>
        <time>2016-11-27T10:18:42.000Z</time>
      </trkpt>
      <trkpt lat="46.05566" lon="4.54144">
        <ele>701</ele>
        <time>2016-11-27T10:18:43.000Z</time>
      </trkpt>
      <trkpt lat="46.05565" lon="4.54149">
        <ele>701</ele>
        <time>2016-11-27T10:18:44.000Z</time>
      </trkpt>
      <trkpt lat="46.05564" lon="4.54154">
        <ele>701</ele>
        <time>2016-11-27T10:18:45.000Z</time>
      </trkpt>
      <trkpt lat="46.05563" lon="4.54159">
        <ele>701</ele>
        <time>2016-11-27T10:18:46.000Z</time>
      </trkpt>
      <trkpt lat="46.05562" lon="4.54164">
        <ele>702</ele>
        <time>2016-11-27T10:18:47.000Z</time>
      </trkpt>
      <trkpt lat="46.05561" lon="4.54169">
        <ele>701</ele>
        <time>2016-11-27T10:18:48.000Z</time>
      </trkpt>
      <trkpt lat="46.0556" lon="4.54174">
        <ele>701</ele>
        <time>2016-11-27T10:18:49.000Z</time>
      </trkpt>
      <trkpt lat="46.05559" lon="4.54179">
        <ele>699</ele>
        <time>2016-11-27T10:18:50.000Z</time>
      </trkpt>
      <trkpt lat="46.05558" lon="4.54184">
        <ele>699</ele>
        <time>2016-11-27T10:18:51.000Z</time>
      </trkpt>
      <trkpt lat="46.05558" lon="4.54189">
        <ele>699</ele>
        <time>2016-11-27T10:18:52.000Z</time>
      </trkpt>
      <trkpt lat="46.05557" lon="4.54193">
        <ele>699</ele>
        <time>2016-11-27T10:18:53.000Z</time>
      </trkpt>
      <trkpt lat="46.05556" lon="4.54198">
        <ele>699</ele>
        <time>2016-11-27T10:18:54.000Z</time>
      </trkpt>
      <trkpt lat="46.05556" lon="4.54202">
        <ele>699</ele>
        <time>2016-11-27T10:18:55.000Z</time>
      </trkpt>
      <trkpt lat="46.05555" lon="4.54207">
        <ele>699</ele>
        <time>2016-11-27T10:18:56.000Z</time>
      </trkpt>
      <trkpt lat="46.05554" lon="4.54211">
        <ele>699</ele>
        <time>2016-11-27T10:18:57.000Z</time>
      </trkpt>
      <trkpt lat="46.05553" lon="4.54216">
        <ele>699</ele>
        <time>2016-11-27T10:18:58.000Z</time>
      </trkpt>
      <trkpt lat="46.05553" lon="4.54221">
        <ele>699</ele>
        <time>2016-11-27T10:18:59.000Z</time>
      </trkpt>
      <trkpt lat="46.05551" lon="4.54226">
        <ele>698</ele>
        <time>2016-11-27T10:19:00.000Z</time>
      </trkpt>
      <trkpt lat="46.0555" lon="4.54231">
        <ele>698</ele>
        <time>2016-11-27T10:19:01.000Z</time>
      </trkpt>
      <trkpt lat="46.05548" lon="4.54236">
        <ele>697</ele>
        <time>2016-11-27T10:19:02.000Z</time>
      </trkpt>
      <trkpt lat="46.05546" lon="4.54242">
        <ele>696</ele>
        <time>2016-11-27T10:19:03.000Z</time>
      </trkpt>
      <trkpt lat="46.05544" lon="4.54248">
        <ele>697</ele>
        <time>2016-11-27T10:19:04.000Z</time>
      </trkpt>
      <trkpt lat="46.05541" lon="4.54254">
        <ele>696</ele>
        <time>2016-11-27T10:19:05.000Z</time>
      </trkpt>
      <trkpt lat="46.05539" lon="4.54259">
        <ele>696</ele>
        <time>2016-11-27T10:19:06.000Z</time>
      </trkpt>
      <trkpt lat="46.05538" lon="4.54264">
        <ele>696</ele>
        <time>2016-11-27T10:19:07.000Z</time>
      </trkpt>
      <trkpt lat="46.05537" lon="4.54269">
        <ele>695</ele>
        <time>2016-11-27T10:19:08.000Z</time>
      </trkpt>
      <trkpt lat="46.05536" lon="4.54274">
        <ele>695</ele>
        <time>2016-11-27T10:19:09.000Z</time>
      </trkpt>
      <trkpt lat="46.05535" lon="4.5428">
        <ele>695</ele>
        <time>2016-11-27T10:19:10.000Z</time>
      </trkpt>
      <trkpt lat="46.05533" lon="4.54285">
        <ele>695</ele>
        <time>2016-11-27T10:19:11.000Z</time>
      </trkpt>
      <trkpt lat="46.05532" lon="4.54289">
        <ele>695</ele>
        <time>2016-11-27T10:19:12.000Z</time>
      </trkpt>
      <trkpt lat="46.0553" lon="4.54293">
        <ele>694</ele>
        <time>2016-11-27T10:19:13.000Z</time>
      </trkpt>
      <trkpt lat="46.05527" lon="4.54296">
        <ele>693</ele>
        <time>2016-11-27T10:19:14.000Z</time>
      </trkpt>
      <trkpt lat="46.05526" lon="4.54298">
        <ele>693</ele>
        <time>2016-11-27T10:19:15.000Z</time>
      </trkpt>
      <trkpt lat="46.05525" lon="4.54298">
        <ele>692</ele>
        <time>2016-11-27T10:19:16.000Z</time>
      </trkpt>
      <trkpt lat="46.05525" lon="4.54297">
        <ele>694</ele>
        <time>2016-11-27T10:19:17.000Z</time>
      </trkpt>
      <trkpt lat="46.05525" lon="4.54296">
        <ele>694</ele>
        <time>2016-11-27T10:19:18.000Z</time>
      </trkpt>
      <trkpt lat="46.05525" lon="4.54294">
        <ele>695</ele>
        <time>2016-11-27T10:19:19.000Z</time>
      </trkpt>
      <trkpt lat="46.05525" lon="4.54294">
        <ele>694</ele>
        <time>2016-11-27T10:19:20.000Z</time>
      </trkpt>
      <trkpt lat="46.05525" lon="4.54293">
        <ele>694</ele>
        <time>2016-11-27T10:19:21.000Z</time>
      </trkpt>
      <trkpt lat="46.05524" lon="4.54292">
        <ele>694</ele>
        <time>2016-11-27T10:19:22.000Z</time>
      </trkpt>
      <trkpt lat="46.05524" lon="4.54291">
        <ele>694</ele>
        <time>2016-11-27T10:19:23.000Z</time>
      </trkpt>
      <trkpt lat="46.05523" lon="4.5429">
        <ele>694</ele>
        <time>2016-11-27T10:19:24.000Z</time>
      </trkpt>
      <trkpt lat="46.05523" lon="4.54289">
        <ele>694</ele>
        <time>2016-11-27T10:19:25.000Z</time>
      </trkpt>
      <trkpt lat="46.05522" lon="4.54288">
        <ele>694</ele>
        <time>2016-11-27T10:19:26.000Z</time>
      </trkpt>
      <trkpt lat="46.05522" lon="4.54286">
        <ele>694</ele>
        <time>2016-11-27T10:19:27.000Z</time>
      </trkpt>
      <trkpt lat="46.05521" lon="4.54285">
        <ele>694</ele>
        <time>2016-11-27T10:19:28.000Z</time>
      </trkpt>
      <trkpt lat="46.05521" lon="4.54283">
        <ele>694</ele>
        <time>2016-11-27T10:19:29.000Z</time>
      </trkpt>
      <trkpt lat="46.0552" lon="4.54282">
        <ele>694</ele>
        <time>2016-11-27T10:19:30.000Z</time>
      </trkpt>
      <trkpt lat="46.0552" lon="4.5428">
        <ele>695</ele>
        <time>2016-11-27T10:19:31.000Z</time>
      </trkpt>
      <trkpt lat="46.05519" lon="4.54279">
        <ele>695</ele>
        <time>2016-11-27T10:19:32.000Z</time>
      </trkpt>
      <trkpt lat="46.05519" lon="4.54277">
        <ele>696</ele>
        <time>2016-11-27T10:19:33.000Z</time>
      </trkpt>
      <trkpt lat="46.05519" lon="4.54275">
        <ele>696</ele>
        <time>2016-11-27T10:19:34.000Z</time>
      </trkpt>
      <trkpt lat="46.05518" lon="4.54274">
        <ele>697</ele>
        <time>2016-11-27T10:19:35.000Z</time>
      </trkpt>
      <trkpt lat="46.05518" lon="4.54272">
        <ele>697</ele>
        <time>2016-11-27T10:19:36.000Z</time>
      </trkpt>
      <trkpt lat="46.05518" lon="4.5427">
        <ele>697</ele>
        <time>2016-11-27T10:19:37.000Z</time>
      </trkpt>
      <trkpt lat="46.05517" lon="4.54269">
        <ele>698</ele>
        <time>2016-11-27T10:19:38.000Z</time>
      </trkpt>
      <trkpt lat="46.05516" lon="4.54267">
        <ele>698</ele>
        <time>2016-11-27T10:19:39.000Z</time>
      </trkpt>
      <trkpt lat="46.05516" lon="4.54265">
        <ele>700</ele>
        <time>2016-11-27T10:19:40.000Z</time>
      </trkpt>
      <trkpt lat="46.05515" lon="4.54263">
        <ele>700</ele>
        <time>2016-11-27T10:19:41.000Z</time>
      </trkpt>
      <trkpt lat="46.05513" lon="4.54262">
        <ele>701</ele>
        <time>2016-11-27T10:19:42.000Z</time>
      </trkpt>
      <trkpt lat="46.05512" lon="4.5426">
        <ele>701</ele>
        <time>2016-11-27T10:19:43.000Z</time>
      </trkpt>
      <trkpt lat="46.05511" lon="4.54259">
        <ele>702</ele>
        <time>2016-11-27T10:19:44.000Z</time>
      </trkpt>
      <trkpt lat="46.0551" lon="4.54257">
        <ele>703</ele>
        <time>2016-11-27T10:19:45.000Z</time>
      </trkpt>
      <trkpt lat="46.05509" lon="4.54256">
        <ele>704</ele>
        <time>2016-11-27T10:19:46.000Z</time>
      </trkpt>
      <trkpt lat="46.05509" lon="4.54254">
        <ele>704</ele>
        <time>2016-11-27T10:19:47.000Z</time>
      </trkpt>
      <trkpt lat="46.05508" lon="4.54253">
        <ele>706</ele>
        <time>2016-11-27T10:19:48.000Z</time>
      </trkpt>
      <trkpt lat="46.05507" lon="4.54252">
        <ele>706</ele>
        <time>2016-11-27T10:19:49.000Z</time>
      </trkpt>
      <trkpt lat="46.05506" lon="4.54251">
        <ele>707</ele>
        <time>2016-11-27T10:19:50.000Z</time>
      </trkpt>
      <trkpt lat="46.05506" lon="4.5425">
        <ele>708</ele>
        <time>2016-11-27T10:19:51.000Z</time>
      </trkpt>
      <trkpt lat="46.05505" lon="4.54249">
        <ele>709</ele>
        <time>2016-11-27T10:19:52.000Z</time>
      </trkpt>
      <trkpt lat="46.05505" lon="4.54247">
        <ele>709</ele>
        <time>2016-11-27T10:19:53.000Z</time>
      </trkpt>
      <trkpt lat="46.05504" lon="4.54246">
        <ele>710</ele>
        <time>2016-11-27T10:19:54.000Z</time>
      </trkpt>
      <trkpt lat="46.05504" lon="4.54245">
        <ele>711</ele>
        <time>2016-11-27T10:19:55.000Z</time>
      </trkpt>
      <trkpt lat="46.05503" lon="4.54244">
        <ele>711</ele>
        <time>2016-11-27T10:19:56.000Z</time>
      </trkpt>
      <trkpt lat="46.05503" lon="4.54243">
        <ele>712</ele>
        <time>2016-11-27T10:19:57.000Z</time>
      </trkpt>
      <trkpt lat="46.05502" lon="4.54242">
        <ele>712</ele>
        <time>2016-11-27T10:19:58.000Z</time>
      </trkpt>
      <trkpt lat="46.05501" lon="4.54242">
        <ele>712</ele>
        <time>2016-11-27T10:19:59.000Z</time>
      </trkpt>
      <trkpt lat="46.05501" lon="4.54241">
        <ele>713</ele>
        <time>2016-11-27T10:20:00.000Z</time>
      </trkpt>
      <trkpt lat="46.055" lon="4.5424">
        <ele>713</ele>
        <time>2016-11-27T10:20:01.000Z</time>
      </trkpt>
      <trkpt lat="46.05499" lon="4.5424">
        <ele>713</ele>
        <time>2016-11-27T10:20:02.000Z</time>
      </trkpt>
      <trkpt lat="46.05499" lon="4.5424">
        <ele>714</ele>
        <time>2016-11-27T10:20:03.000Z</time>
      </trkpt>
      <trkpt lat="46.05498" lon="4.54239">
        <ele>714</ele>
        <time>2016-11-27T10:20:04.000Z</time>
      </trkpt>
      <trkpt lat="46.05498" lon="4.54238">
        <ele>715</ele>
        <time>2016-11-27T10:20:05.000Z</time>
      </trkpt>
      <trkpt lat="46.05497" lon="4.54237">
        <ele>716</ele>
        <time>2016-11-27T10:20:06.000Z</time>
      </trkpt>
      <trkpt lat="46.05497" lon="4.54236">
        <ele>716</ele>
        <time>2016-11-27T10:20:07.000Z</time>
      </trkpt>
      <trkpt lat="46.05496" lon="4.54236">
        <ele>716</ele>
        <time>2016-11-27T10:20:08.000Z</time>
      </trkpt>
      <trkpt lat="46.05496" lon="4.54235">
        <ele>716</ele>
        <time>2016-11-27T10:20:09.000Z</time>
      </trkpt>
      <trkpt lat="46.05495" lon="4.54234">
        <ele>717</ele>
        <time>2016-11-27T10:20:10.000Z</time>
      </trkpt>
      <trkpt lat="46.05495" lon="4.54233">
        <ele>718</ele>
        <time>2016-11-27T10:20:11.000Z</time>
      </trkpt>
      <trkpt lat="46.05494" lon="4.54233">
        <ele>718</ele>
        <time>2016-11-27T10:20:12.000Z</time>
      </trkpt>
      <trkpt lat="46.05494" lon="4.54232">
        <ele>719</ele>
        <time>2016-11-27T10:20:13.000Z</time>
      </trkpt>
      <trkpt lat="46.05493" lon="4.54231">
        <ele>719</ele>
        <time>2016-11-27T10:20:14.000Z</time>
      </trkpt>
      <trkpt lat="46.05493" lon="4.5423">
        <ele>719</ele>
        <time>2016-11-27T10:20:15.000Z</time>
      </trkpt>
      <trkpt lat="46.05492" lon="4.54229">
        <ele>720</ele>
        <time>2016-11-27T10:20:16.000Z</time>
      </trkpt>
      <trkpt lat="46.05492" lon="4.54228">
        <ele>719</ele>
        <time>2016-11-27T10:20:17.000Z</time>
      </trkpt>
      <trkpt lat="46.05492" lon="4.54227">
        <ele>719</ele>
        <time>2016-11-27T10:20:18.000Z</time>
      </trkpt>
      <trkpt lat="46.05492" lon="4.54226">
        <ele>720</ele>
        <time>2016-11-27T10:20:19.000Z</time>
      </trkpt>
      <trkpt lat="46.05491" lon="4.54225">
        <ele>721</ele>
        <time>2016-11-27T10:20:20.000Z</time>
      </trkpt>
      <trkpt lat="46.05491" lon="4.54224">
        <ele>721</ele>
        <time>2016-11-27T10:20:21.000Z</time>
      </trkpt>
      <trkpt lat="46.05491" lon="4.54223">
        <ele>722</ele>
        <time>2016-11-27T10:20:22.000Z</time>
      </trkpt>
      <trkpt lat="46.0549" lon="4.54222">
        <ele>723</ele>
        <time>2016-11-27T10:20:23.000Z</time>
      </trkpt>
      <trkpt lat="46.0549" lon="4.54222">
        <ele>723</ele>
        <time>2016-11-27T10:20:24.000Z</time>
      </trkpt>
      <trkpt lat="46.05489" lon="4.54221">
        <ele>723</ele>
        <time>2016-11-27T10:20:25.000Z</time>
      </trkpt>
      <trkpt lat="46.05488" lon="4.54221">
        <ele>723</ele>
        <time>2016-11-27T10:20:26.000Z</time>
      </trkpt>
      <trkpt lat="46.05488" lon="4.5422">
        <ele>724</ele>
        <time>2016-11-27T10:20:27.000Z</time>
      </trkpt>
      <trkpt lat="46.05487" lon="4.5422">
        <ele>723</ele>
        <time>2016-11-27T10:20:28.000Z</time>
      </trkpt>
      <trkpt lat="46.05487" lon="4.54219">
        <ele>724</ele>
        <time>2016-11-27T10:20:29.000Z</time>
      </trkpt>
      <trkpt lat="46.05487" lon="4.54219">
        <ele>725</ele>
        <time>2016-11-27T10:20:30.000Z</time>
      </trkpt>
      <trkpt lat="46.05486" lon="4.54218">
        <ele>725</ele>
        <time>2016-11-27T10:20:31.000Z</time>
      </trkpt>
      <trkpt lat="46.05486" lon="4.54218">
        <ele>726</ele>
        <time>2016-11-27T10:20:32.000Z</time>
      </trkpt>
      <trkpt lat="46.05485" lon="4.54218">
        <ele>727</ele>
        <time>2016-11-27T10:20:33.000Z</time>
      </trkpt>
      <trkpt lat="46.05484" lon="4.54218">
        <ele>728</ele>
        <time>2016-11-27T10:20:34.000Z</time>
      </trkpt>
      <trkpt lat="46.05484" lon="4.54217">
        <ele>728</ele>
        <time>2016-11-27T10:20:35.000Z</time>
      </trkpt>
      <trkpt lat="46.05483" lon="4.54217">
        <ele>728</ele>
        <time>2016-11-27T10:20:36.000Z</time>
      </trkpt>
      <trkpt lat="46.05483" lon="4.54217">
        <ele>729</ele>
        <time>2016-11-27T10:20:37.000Z</time>
      </trkpt>
      <trkpt lat="46.05482" lon="4.54216">
        <ele>729</ele>
        <time>2016-11-27T10:20:38.000Z</time>
      </trkpt>
      <trkpt lat="46.05482" lon="4.54215">
        <ele>728</ele>
        <time>2016-11-27T10:20:39.000Z</time>
      </trkpt>
      <trkpt lat="46.05481" lon="4.54215">
        <ele>728</ele>
        <time>2016-11-27T10:20:40.000Z</time>
      </trkpt>
      <trkpt lat="46.0548" lon="4.54214">
        <ele>728</ele>
        <time>2016-11-27T10:20:41.000Z</time>
      </trkpt>
      <trkpt lat="46.0548" lon="4.54213">
        <ele>729</ele>
        <time>2016-11-27T10:20:42.000Z</time>
      </trkpt>
      <trkpt lat="46.05479" lon="4.54212">
        <ele>729</ele>
        <time>2016-11-27T10:20:43.000Z</time>
      </trkpt>
      <trkpt lat="46.05479" lon="4.54211">
        <ele>729</ele>
        <time>2016-11-27T10:20:44.000Z</time>
      </trkpt>
      <trkpt lat="46.05479" lon="4.5421">
        <ele>729</ele>
        <time>2016-11-27T10:20:45.000Z</time>
      </trkpt>
      <trkpt lat="46.05478" lon="4.54209">
        <ele>729</ele>
        <time>2016-11-27T10:20:46.000Z</time>
      </trkpt>
      <trkpt lat="46.05478" lon="4.54208">
        <ele>729</ele>
        <time>2016-11-27T10:20:47.000Z</time>
      </trkpt>
      <trkpt lat="46.05477" lon="4.54207">
        <ele>728</ele>
        <time>2016-11-27T10:20:48.000Z</time>
      </trkpt>
      <trkpt lat="46.05476" lon="4.54206">
        <ele>728</ele>
        <time>2016-11-27T10:20:49.000Z</time>
      </trkpt>
      <trkpt lat="46.05475" lon="4.54205">
        <ele>728</ele>
        <time>2016-11-27T10:20:50.000Z</time>
      </trkpt>
      <trkpt lat="46.05475" lon="4.54203">
        <ele>728</ele>
        <time>2016-11-27T10:20:51.000Z</time>
      </trkpt>
      <trkpt lat="46.05474" lon="4.54202">
        <ele>728</ele>
        <time>2016-11-27T10:20:52.000Z</time>
      </trkpt>
      <trkpt lat="46.05473" lon="4.54202">
        <ele>728</ele>
        <time>2016-11-27T10:20:53.000Z</time>
      </trkpt>
      <trkpt lat="46.05473" lon="4.54201">
        <ele>728</ele>
        <time>2016-11-27T10:20:54.000Z</time>
      </trkpt>
      <trkpt lat="46.05473" lon="4.542">
        <ele>729</ele>
        <time>2016-11-27T10:20:55.000Z</time>
      </trkpt>
      <trkpt lat="46.05472" lon="4.54199">
        <ele>729</ele>
        <time>2016-11-27T10:20:56.000Z</time>
      </trkpt>
      <trkpt lat="46.05471" lon="4.54199">
        <ele>729</ele>
        <time>2016-11-27T10:20:57.000Z</time>
      </trkpt>
      <trkpt lat="46.05471" lon="4.54198">
        <ele>729</ele>
        <time>2016-11-27T10:20:58.000Z</time>
      </trkpt>
      <trkpt lat="46.0547" lon="4.54197">
        <ele>729</ele>
        <time>2016-11-27T10:20:59.000Z</time>
      </trkpt>
      <trkpt lat="46.05468" lon="4.54197">
        <ele>728</ele>
        <time>2016-11-27T10:21:00.000Z</time>
      </trkpt>
      <trkpt lat="46.05467" lon="4.54196">
        <ele>727</ele>
        <time>2016-11-27T10:21:01.000Z</time>
      </trkpt>
      <trkpt lat="46.05465" lon="4.54196">
        <ele>728</ele>
        <time>2016-11-27T10:21:02.000Z</time>
      </trkpt>
      <trkpt lat="46.05464" lon="4.54195">
        <ele>728</ele>
        <time>2016-11-27T10:21:03.000Z</time>
      </trkpt>
      <trkpt lat="46.05463" lon="4.54195">
        <ele>728</ele>
        <time>2016-11-27T10:21:04.000Z</time>
      </trkpt>
      <trkpt lat="46.05462" lon="4.54194">
        <ele>728</ele>
        <time>2016-11-27T10:21:05.000Z</time>
      </trkpt>
      <trkpt lat="46.05462" lon="4.54194">
        <ele>729</ele>
        <time>2016-11-27T10:21:06.000Z</time>
      </trkpt>
      <trkpt lat="46.05461" lon="4.54193">
        <ele>729</ele>
        <time>2016-11-27T10:21:07.000Z</time>
      </trkpt>
      <trkpt lat="46.0546" lon="4.54192">
        <ele>730</ele>
        <time>2016-11-27T10:21:08.000Z</time>
      </trkpt>
      <trkpt lat="46.0546" lon="4.54191">
        <ele>731</ele>
        <time>2016-11-27T10:21:09.000Z</time>
      </trkpt>
      <trkpt lat="46.05459" lon="4.54189">
        <ele>732</ele>
        <time>2016-11-27T10:21:10.000Z</time>
      </trkpt>
      <trkpt lat="46.05458" lon="4.54188">
        <ele>732</ele>
        <time>2016-11-27T10:21:11.000Z</time>
      </trkpt>
      <trkpt lat="46.05458" lon="4.54187">
        <ele>734</ele>
        <time>2016-11-27T10:21:12.000Z</time>
      </trkpt>
      <trkpt lat="46.05457" lon="4.54186">
        <ele>734</ele>
        <time>2016-11-27T10:21:13.000Z</time>
      </trkpt>
      <trkpt lat="46.05457" lon="4.54184">
        <ele>734</ele>
        <time>2016-11-27T10:21:14.000Z</time>
      </trkpt>
      <trkpt lat="46.05457" lon="4.54183">
        <ele>735</ele>
        <time>2016-11-27T10:21:15.000Z</time>
      </trkpt>
      <trkpt lat="46.05456" lon="4.54182">
        <ele>734</ele>
        <time>2016-11-27T10:21:16.000Z</time>
      </trkpt>
      <trkpt lat="46.05455" lon="4.54181">
        <ele>735</ele>
        <time>2016-11-27T10:21:17.000Z</time>
      </trkpt>
      <trkpt lat="46.05455" lon="4.5418">
        <ele>735</ele>
        <time>2016-11-27T10:21:18.000Z</time>
      </trkpt>
      <trkpt lat="46.05454" lon="4.54179">
        <ele>735</ele>
        <time>2016-11-27T10:21:19.000Z</time>
      </trkpt>
      <trkpt lat="46.05453" lon="4.54179">
        <ele>735</ele>
        <time>2016-11-27T10:21:20.000Z</time>
      </trkpt>
      <trkpt lat="46.05452" lon="4.54178">
        <ele>736</ele>
        <time>2016-11-27T10:21:21.000Z</time>
      </trkpt>
      <trkpt lat="46.05452" lon="4.54178">
        <ele>736</ele>
        <time>2016-11-27T10:21:22.000Z</time>
      </trkpt>
      <trkpt lat="46.05452" lon="4.54177">
        <ele>736</ele>
        <time>2016-11-27T10:21:23.000Z</time>
      </trkpt>
      <trkpt lat="46.05451" lon="4.54177">
        <ele>736</ele>
        <time>2016-11-27T10:21:24.000Z</time>
      </trkpt>
      <trkpt lat="46.05451" lon="4.54176">
        <ele>737</ele>
        <time>2016-11-27T10:21:25.000Z</time>
      </trkpt>
      <trkpt lat="46.05451" lon="4.54175">
        <ele>737</ele>
        <time>2016-11-27T10:21:26.000Z</time>
      </trkpt>
      <trkpt lat="46.0545" lon="4.54175">
        <ele>737</ele>
        <time>2016-11-27T10:21:27.000Z</time>
      </trkpt>
      <trkpt lat="46.0545" lon="4.54174">
        <ele>737</ele>
        <time>2016-11-27T10:21:28.000Z</time>
      </trkpt>
      <trkpt lat="46.05449" lon="4.54174">
        <ele>737</ele>
        <time>2016-11-27T10:21:29.000Z</time>
      </trkpt>
      <trkpt lat="46.05448" lon="4.54174">
        <ele>738</ele>
        <time>2016-11-27T10:21:30.000Z</time>
      </trkpt>
      <trkpt lat="46.05448" lon="4.54173">
        <ele>738</ele>
        <time>2016-11-27T10:21:31.000Z</time>
      </trkpt>
      <trkpt lat="46.05447" lon="4.54173">
        <ele>740</ele>
        <time>2016-11-27T10:21:32.000Z</time>
      </trkpt>
      <trkpt lat="46.05447" lon="4.54172">
        <ele>740</ele>
        <time>2016-11-27T10:21:33.000Z</time>
      </trkpt>
      <trkpt lat="46.05446" lon="4.54171">
        <ele>740</ele>
        <time>2016-11-27T10:21:34.000Z</time>
      </trkpt>
      <trkpt lat="46.05446" lon="4.5417">
        <ele>740</ele>
        <time>2016-11-27T10:21:35.000Z</time>
      </trkpt>
      <trkpt lat="46.05445" lon="4.54169">
        <ele>740</ele>
        <time>2016-11-27T10:21:36.000Z</time>
      </trkpt>
      <trkpt lat="46.05445" lon="4.54168">
        <ele>740</ele>
        <time>2016-11-27T10:21:37.000Z</time>
      </trkpt>
      <trkpt lat="46.05445" lon="4.54167">
        <ele>742</ele>
        <time>2016-11-27T10:21:38.000Z</time>
      </trkpt>
      <trkpt lat="46.05445" lon="4.54167">
        <ele>743</ele>
        <time>2016-11-27T10:21:39.000Z</time>
      </trkpt>
      <trkpt lat="46.05444" lon="4.54166">
        <ele>742</ele>
        <time>2016-11-27T10:21:40.000Z</time>
      </trkpt>
      <trkpt lat="46.05443" lon="4.54165">
        <ele>743</ele>
        <time>2016-11-27T10:21:41.000Z</time>
      </trkpt>
      <trkpt lat="46.05443" lon="4.54163">
        <ele>743</ele>
        <time>2016-11-27T10:21:42.000Z</time>
      </trkpt>
      <trkpt lat="46.05442" lon="4.54161">
        <ele>744</ele>
        <time>2016-11-27T10:21:43.000Z</time>
      </trkpt>
      <trkpt lat="46.05442" lon="4.54158">
        <ele>744</ele>
        <time>2016-11-27T10:21:44.000Z</time>
      </trkpt>
      <trkpt lat="46.05442" lon="4.54156">
        <ele>745</ele>
        <time>2016-11-27T10:21:45.000Z</time>
      </trkpt>
      <trkpt lat="46.05442" lon="4.54155">
        <ele>745</ele>
        <time>2016-11-27T10:21:46.000Z</time>
      </trkpt>
      <trkpt lat="46.05441" lon="4.54153">
        <ele>745</ele>
        <time>2016-11-27T10:21:47.000Z</time>
      </trkpt>
      <trkpt lat="46.05441" lon="4.54152">
        <ele>746</ele>
        <time>2016-11-27T10:21:48.000Z</time>
      </trkpt>
      <trkpt lat="46.0544" lon="4.54151">
        <ele>745</ele>
        <time>2016-11-27T10:21:49.000Z</time>
      </trkpt>
      <trkpt lat="46.05439" lon="4.5415">
        <ele>745</ele>
        <time>2016-11-27T10:21:50.000Z</time>
      </trkpt>
      <trkpt lat="46.05438" lon="4.54149">
        <ele>744</ele>
        <time>2016-11-27T10:21:51.000Z</time>
      </trkpt>
      <trkpt lat="46.05437" lon="4.54149">
        <ele>744</ele>
        <time>2016-11-27T10:21:52.000Z</time>
      </trkpt>
      <trkpt lat="46.05436" lon="4.54148">
        <ele>744</ele>
        <time>2016-11-27T10:21:53.000Z</time>
      </trkpt>
      <trkpt lat="46.05436" lon="4.54146">
        <ele>745</ele>
        <time>2016-11-27T10:21:54.000Z</time>
      </trkpt>
      <trkpt lat="46.05436" lon="4.54141">
        <ele>744</ele>
        <time>2016-11-27T10:21:55.000Z</time>
      </trkpt>
      <trkpt lat="46.05436" lon="4.54136">
        <ele>744</ele>
        <time>2016-11-27T10:21:56.000Z</time>
      </trkpt>
      <trkpt lat="46.05436" lon="4.54131">
        <ele>744</ele>
        <time>2016-11-27T10:21:57.000Z</time>
      </trkpt>
      <trkpt lat="46.05436" lon="4.54129">
        <ele>744</ele>
        <time>2016-11-27T10:21:58.000Z</time>
      </trkpt>
      <trkpt lat="46.05435" lon="4.54126">
        <ele>744</ele>
        <time>2016-11-27T10:21:59.000Z</time>
      </trkpt>
      <trkpt lat="46.05435" lon="4.54123">
        <ele>745</ele>
        <time>2016-11-27T10:22:00.000Z</time>
      </trkpt>
      <trkpt lat="46.05435" lon="4.54121">
        <ele>744</ele>
        <time>2016-11-27T10:22:01.000Z</time>
      </trkpt>
      <trkpt lat="46.05434" lon="4.54118">
        <ele>745</ele>
        <time>2016-11-27T10:22:02.000Z</time>
      </trkpt>
      <trkpt lat="46.05434" lon="4.54116">
        <ele>745</ele>
        <time>2016-11-27T10:22:03.000Z</time>
      </trkpt>
      <trkpt lat="46.05433" lon="4.54113">
        <ele>744</ele>
        <time>2016-11-27T10:22:04.000Z</time>
      </trkpt>
      <trkpt lat="46.05433" lon="4.54109">
        <ele>743</ele>
        <time>2016-11-27T10:22:05.000Z</time>
      </trkpt>
      <trkpt lat="46.05432" lon="4.54106">
        <ele>742</ele>
        <time>2016-11-27T10:22:06.000Z</time>
      </trkpt>
      <trkpt lat="46.05432" lon="4.54103">
        <ele>742</ele>
        <time>2016-11-27T10:22:07.000Z</time>
      </trkpt>
      <trkpt lat="46.05431" lon="4.54101">
        <ele>741</ele>
        <time>2016-11-27T10:22:08.000Z</time>
      </trkpt>
      <trkpt lat="46.0543" lon="4.54099">
        <ele>740</ele>
        <time>2016-11-27T10:22:09.000Z</time>
      </trkpt>
      <trkpt lat="46.0543" lon="4.54097">
        <ele>741</ele>
        <time>2016-11-27T10:22:10.000Z</time>
      </trkpt>
      <trkpt lat="46.05429" lon="4.54095">
        <ele>741</ele>
        <time>2016-11-27T10:22:11.000Z</time>
      </trkpt>
      <trkpt lat="46.05429" lon="4.54094">
        <ele>741</ele>
        <time>2016-11-27T10:22:12.000Z</time>
      </trkpt>
      <trkpt lat="46.05429" lon="4.54092">
        <ele>741</ele>
        <time>2016-11-27T10:22:13.000Z</time>
      </trkpt>
      <trkpt lat="46.05429" lon="4.5409">
        <ele>741</ele>
        <time>2016-11-27T10:22:14.000Z</time>
      </trkpt>
      <trkpt lat="46.05429" lon="4.54089">
        <ele>742</ele>
        <time>2016-11-27T10:22:15.000Z</time>
      </trkpt>
      <trkpt lat="46.05429" lon="4.54087">
        <ele>741</ele>
        <time>2016-11-27T10:22:16.000Z</time>
      </trkpt>
      <trkpt lat="46.05429" lon="4.54086">
        <ele>742</ele>
        <time>2016-11-27T10:22:17.000Z</time>
      </trkpt>
      <trkpt lat="46.05429" lon="4.54084">
        <ele>741</ele>
        <time>2016-11-27T10:22:18.000Z</time>
      </trkpt>
      <trkpt lat="46.05429" lon="4.54082">
        <ele>742</ele>
        <time>2016-11-27T10:22:19.000Z</time>
      </trkpt>
      <trkpt lat="46.05428" lon="4.54081">
        <ele>743</ele>
        <time>2016-11-27T10:22:20.000Z</time>
      </trkpt>
      <trkpt lat="46.05428" lon="4.5408">
        <ele>744</ele>
        <time>2016-11-27T10:22:21.000Z</time>
      </trkpt>
      <trkpt lat="46.05428" lon="4.54079">
        <ele>744</ele>
        <time>2016-11-27T10:22:22.000Z</time>
      </trkpt>
      <trkpt lat="46.05428" lon="4.54077">
        <ele>744</ele>
        <time>2016-11-27T10:22:23.000Z</time>
      </trkpt>
      <trkpt lat="46.05429" lon="4.54076">
        <ele>745</ele>
        <time>2016-11-27T10:22:24.000Z</time>
      </trkpt>
      <trkpt lat="46.05429" lon="4.54075">
        <ele>745</ele>
        <time>2016-11-27T10:22:25.000Z</time>
      </trkpt>
      <trkpt lat="46.05429" lon="4.54074">
        <ele>745</ele>
        <time>2016-11-27T10:22:26.000Z</time>
      </trkpt>
      <trkpt lat="46.0543" lon="4.54073">
        <ele>745</ele>
        <time>2016-11-27T10:22:27.000Z</time>
      </trkpt>
      <trkpt lat="46.0543" lon="4.54072">
        <ele>746</ele>
        <time>2016-11-27T10:22:28.000Z</time>
      </trkpt>
      <trkpt lat="46.0543" lon="4.54072">
        <ele>746</ele>
        <time>2016-11-27T10:22:29.000Z</time>
      </trkpt>
      <trkpt lat="46.05431" lon="4.54071">
        <ele>747</ele>
        <time>2016-11-27T10:22:30.000Z</time>
      </trkpt>
      <trkpt lat="46.05431" lon="4.54071">
        <ele>748</ele>
        <time>2016-11-27T10:22:31.000Z</time>
      </trkpt>
      <trkpt lat="46.05432" lon="4.5407">
        <ele>747</ele>
        <time>2016-11-27T10:22:32.000Z</time>
      </trkpt>
      <trkpt lat="46.05432" lon="4.5407">
        <ele>748</ele>
        <time>2016-11-27T10:22:33.000Z</time>
      </trkpt>
      <trkpt lat="46.05433" lon="4.54069">
        <ele>748</ele>
        <time>2016-11-27T10:22:34.000Z</time>
      </trkpt>
      <trkpt lat="46.05434" lon="4.54069">
        <ele>749</ele>
        <time>2016-11-27T10:22:35.000Z</time>
      </trkpt>
      <trkpt lat="46.05434" lon="4.54068">
        <ele>749</ele>
        <time>2016-11-27T10:22:36.000Z</time>
      </trkpt>
      <trkpt lat="46.05435" lon="4.54067">
        <ele>749</ele>
        <time>2016-11-27T10:22:37.000Z</time>
      </trkpt>
      <trkpt lat="46.05436" lon="4.54065">
        <ele>750</ele>
        <time>2016-11-27T10:22:38.000Z</time>
      </trkpt>
      <trkpt lat="46.05437" lon="4.54065">
        <ele>749</ele>
        <time>2016-11-27T10:22:39.000Z</time>
      </trkpt>
      <trkpt lat="46.05438" lon="4.54064">
        <ele>750</ele>
        <time>2016-11-27T10:22:40.000Z</time>
      </trkpt>
      <trkpt lat="46.05439" lon="4.54064">
        <ele>750</ele>
        <time>2016-11-27T10:22:41.000Z</time>
      </trkpt>
      <trkpt lat="46.0544" lon="4.54064">
        <ele>751</ele>
        <time>2016-11-27T10:22:42.000Z</time>
      </trkpt>
      <trkpt lat="46.05441" lon="4.54063">
        <ele>751</ele>
        <time>2016-11-27T10:22:43.000Z</time>
      </trkpt>
      <trkpt lat="46.05441" lon="4.54062">
        <ele>751</ele>
        <time>2016-11-27T10:22:44.000Z</time>
      </trkpt>
      <trkpt lat="46.05442" lon="4.54061">
        <ele>752</ele>
        <time>2016-11-27T10:22:45.000Z</time>
      </trkpt>
      <trkpt lat="46.05443" lon="4.54059">
        <ele>752</ele>
        <time>2016-11-27T10:22:46.000Z</time>
      </trkpt>
      <trkpt lat="46.05443" lon="4.54058">
        <ele>752</ele>
        <time>2016-11-27T10:22:47.000Z</time>
      </trkpt>
      <trkpt lat="46.05444" lon="4.54056">
        <ele>753</ele>
        <time>2016-11-27T10:22:48.000Z</time>
      </trkpt>
      <trkpt lat="46.05444" lon="4.54055">
        <ele>753</ele>
        <time>2016-11-27T10:22:49.000Z</time>
      </trkpt>
      <trkpt lat="46.05445" lon="4.54054">
        <ele>753</ele>
        <time>2016-11-27T10:22:50.000Z</time>
      </trkpt>
      <trkpt lat="46.05446" lon="4.54053">
        <ele>753</ele>
        <time>2016-11-27T10:22:51.000Z</time>
      </trkpt>
      <trkpt lat="46.05447" lon="4.54053">
        <ele>753</ele>
        <time>2016-11-27T10:22:52.000Z</time>
      </trkpt>
      <trkpt lat="46.05448" lon="4.54052">
        <ele>754</ele>
        <time>2016-11-27T10:22:53.000Z</time>
      </trkpt>
      <trkpt lat="46.05448" lon="4.54051">
        <ele>754</ele>
        <time>2016-11-27T10:22:54.000Z</time>
      </trkpt>
      <trkpt lat="46.05449" lon="4.5405">
        <ele>755</ele>
        <time>2016-11-27T10:22:55.000Z</time>
      </trkpt>
      <trkpt lat="46.05449" lon="4.54049">
        <ele>756</ele>
        <time>2016-11-27T10:22:56.000Z</time>
      </trkpt>
      <trkpt lat="46.0545" lon="4.54048">
        <ele>756</ele>
        <time>2016-11-27T10:22:57.000Z</time>
      </trkpt>
      <trkpt lat="46.05451" lon="4.54047">
        <ele>756</ele>
        <time>2016-11-27T10:22:58.000Z</time>
      </trkpt>
      <trkpt lat="46.05452" lon="4.54046">
        <ele>757</ele>
        <time>2016-11-27T10:22:59.000Z</time>
      </trkpt>
      <trkpt lat="46.05453" lon="4.54045">
        <ele>757</ele>
        <time>2016-11-27T10:23:00.000Z</time>
      </trkpt>
      <trkpt lat="46.05454" lon="4.54044">
        <ele>757</ele>
        <time>2016-11-27T10:23:01.000Z</time>
      </trkpt>
      <trkpt lat="46.05455" lon="4.54043">
        <ele>758</ele>
        <time>2016-11-27T10:23:02.000Z</time>
      </trkpt>
      <trkpt lat="46.05456" lon="4.54044">
        <ele>758</ele>
        <time>2016-11-27T10:23:03.000Z</time>
      </trkpt>
      <trkpt lat="46.05458" lon="4.54044">
        <ele>758</ele>
        <time>2016-11-27T10:23:04.000Z</time>
      </trkpt>
      <trkpt lat="46.05459" lon="4.54044">
        <ele>758</ele>
        <time>2016-11-27T10:23:05.000Z</time>
      </trkpt>
      <trkpt lat="46.05461" lon="4.54045">
        <ele>757</ele>
        <time>2016-11-27T10:23:06.000Z</time>
      </trkpt>
      <trkpt lat="46.05462" lon="4.54045">
        <ele>757</ele>
        <time>2016-11-27T10:23:07.000Z</time>
      </trkpt>
      <trkpt lat="46.05463" lon="4.54046">
        <ele>757</ele>
        <time>2016-11-27T10:23:08.000Z</time>
      </trkpt>
      <trkpt lat="46.05465" lon="4.54046">
        <ele>757</ele>
        <time>2016-11-27T10:23:09.000Z</time>
      </trkpt>
      <trkpt lat="46.05466" lon="4.54047">
        <ele>757</ele>
        <time>2016-11-27T10:23:10.000Z</time>
      </trkpt>
      <trkpt lat="46.05466" lon="4.54048">
        <ele>758</ele>
        <time>2016-11-27T10:23:11.000Z</time>
      </trkpt>
      <trkpt lat="46.05467" lon="4.54049">
        <ele>758</ele>
        <time>2016-11-27T10:23:12.000Z</time>
      </trkpt>
      <trkpt lat="46.05468" lon="4.5405">
        <ele>757</ele>
        <time>2016-11-27T10:23:13.000Z</time>
      </trkpt>
      <trkpt lat="46.05468" lon="4.5405">
        <ele>756</ele>
        <time>2016-11-27T10:23:14.000Z</time>
      </trkpt>
      <trkpt lat="46.05467" lon="4.5405">
        <ele>756</ele>
        <time>2016-11-27T10:23:15.000Z</time>
      </trkpt>
      <trkpt lat="46.05466" lon="4.5405">
        <ele>756</ele>
        <time>2016-11-27T10:23:16.000Z</time>
      </trkpt>
      <trkpt lat="46.05466" lon="4.5405">
        <ele>756</ele>
        <time>2016-11-27T10:23:17.000Z</time>
      </trkpt>
      <trkpt lat="46.05466" lon="4.5405">
        <ele>756</ele>
        <time>2016-11-27T10:23:18.000Z</time>
      </trkpt>
      <trkpt lat="46.05466" lon="4.5405">
        <ele>756</ele>
        <time>2016-11-27T10:23:19.000Z</time>
      </trkpt>
      <trkpt lat="46.05466" lon="4.5405">
        <ele>756</ele>
        <time>2016-11-27T10:23:20.000Z</time>
      </trkpt>
      <trkpt lat="46.05466" lon="4.5405">
        <ele>757</ele>
        <time>2016-11-27T10:23:21.000Z</time>
      </trkpt>
      <trkpt lat="46.05466" lon="4.5405">
        <ele>757</ele>
        <time>2016-11-27T10:23:22.000Z</time>
      </trkpt>
      <trkpt lat="46.05466" lon="4.54051">
        <ele>757</ele>
        <time>2016-11-27T10:23:23.000Z</time>
      </trkpt>
      <trkpt lat="46.05466" lon="4.54051">
        <ele>757</ele>
        <time>2016-11-27T10:23:24.000Z</time>
      </trkpt>
      <trkpt lat="46.05466" lon="4.54051">
        <ele>757</ele>
        <time>2016-11-27T10:23:25.000Z</time>
      </trkpt>
      <trkpt lat="46.05466" lon="4.54052">
        <ele>758</ele>
        <time>2016-11-27T10:23:26.000Z</time>
      </trkpt>
      <trkpt lat="46.05466" lon="4.54052">
        <ele>758</ele>
        <time>2016-11-27T10:23:27.000Z</time>
      </trkpt>
      <trkpt lat="46.05466" lon="4.54052">
        <ele>758</ele>
        <time>2016-11-27T10:23:28.000Z</time>
      </trkpt>
      <trkpt lat="46.05466" lon="4.54052">
        <ele>758</ele>
        <time>2016-11-27T10:23:29.000Z</time>
      </trkpt>
      <trkpt lat="46.05466" lon="4.54052">
        <ele>758</ele>
        <time>2016-11-27T10:23:30.000Z</time>
      </trkpt>
      <trkpt lat="46.05466" lon="4.54051">
        <ele>758</ele>
        <time>2016-11-27T10:23:31.000Z</time>
      </trkpt>
      <trkpt lat="46.05466" lon="4.54051">
        <ele>757</ele>
        <time>2016-11-27T10:23:32.000Z</time>
      </trkpt>
      <trkpt lat="46.05465" lon="4.54051">
        <ele>757</ele>
        <time>2016-11-27T10:23:33.000Z</time>
      </trkpt>
      <trkpt lat="46.05464" lon="4.5405">
        <ele>757</ele>
        <time>2016-11-27T10:23:34.000Z</time>
      </trkpt>
      <trkpt lat="46.05463" lon="4.5405">
        <ele>757</ele>
        <time>2016-11-27T10:23:35.000Z</time>
      </trkpt>
      <trkpt lat="46.05463" lon="4.54049">
        <ele>756</ele>
        <time>2016-11-27T10:23:36.000Z</time>
      </trkpt>
      <trkpt lat="46.05462" lon="4.54049">
        <ele>756</ele>
        <time>2016-11-27T10:23:37.000Z</time>
      </trkpt>
      <trkpt lat="46.05462" lon="4.54048">
        <ele>756</ele>
        <time>2016-11-27T10:23:38.000Z</time>
      </trkpt>
      <trkpt lat="46.05462" lon="4.54048">
        <ele>757</ele>
        <time>2016-11-27T10:23:39.000Z</time>
      </trkpt>
      <trkpt lat="46.05461" lon="4.54047">
        <ele>757</ele>
        <time>2016-11-27T10:23:40.000Z</time>
      </trkpt>
      <trkpt lat="46.05461" lon="4.54046">
        <ele>757</ele>
        <time>2016-11-27T10:23:41.000Z</time>
      </trkpt>
      <trkpt lat="46.0546" lon="4.54046">
        <ele>757</ele>
        <time>2016-11-27T10:23:42.000Z</time>
      </trkpt>
      <trkpt lat="46.05459" lon="4.54045">
        <ele>757</ele>
        <time>2016-11-27T10:23:43.000Z</time>
      </trkpt>
      <trkpt lat="46.05459" lon="4.54044">
        <ele>757</ele>
        <time>2016-11-27T10:23:44.000Z</time>
      </trkpt>
      <trkpt lat="46.05458" lon="4.54043">
        <ele>757</ele>
        <time>2016-11-27T10:23:45.000Z</time>
      </trkpt>
      <trkpt lat="46.05458" lon="4.54042">
        <ele>757</ele>
        <time>2016-11-27T10:23:46.000Z</time>
      </trkpt>
      <trkpt lat="46.05457" lon="4.54042">
        <ele>757</ele>
        <time>2016-11-27T10:23:47.000Z</time>
      </trkpt>
      <trkpt lat="46.05457" lon="4.5404">
        <ele>757</ele>
        <time>2016-11-27T10:23:48.000Z</time>
      </trkpt>
      <trkpt lat="46.05457" lon="4.54039">
        <ele>757</ele>
        <time>2016-11-27T10:23:49.000Z</time>
      </trkpt>
      <trkpt lat="46.05456" lon="4.54037">
        <ele>756</ele>
        <time>2016-11-27T10:23:50.000Z</time>
      </trkpt>
      <trkpt lat="46.05455" lon="4.54036">
        <ele>756</ele>
        <time>2016-11-27T10:23:51.000Z</time>
      </trkpt>
      <trkpt lat="46.05455" lon="4.54035">
        <ele>756</ele>
        <time>2016-11-27T10:23:52.000Z</time>
      </trkpt>
      <trkpt lat="46.05454" lon="4.54034">
        <ele>757</ele>
        <time>2016-11-27T10:23:53.000Z</time>
      </trkpt>
      <trkpt lat="46.05454" lon="4.54033">
        <ele>758</ele>
        <time>2016-11-27T10:23:54.000Z</time>
      </trkpt>
      <trkpt lat="46.05454" lon="4.54032">
        <ele>759</ele>
        <time>2016-11-27T10:23:55.000Z</time>
      </trkpt>
      <trkpt lat="46.05454" lon="4.54029">
        <ele>760</ele>
        <time>2016-11-27T10:23:56.000Z</time>
      </trkpt>
      <trkpt lat="46.05453" lon="4.54025">
        <ele>761</ele>
        <time>2016-11-27T10:23:57.000Z</time>
      </trkpt>
      <trkpt lat="46.05453" lon="4.54024">
        <ele>761</ele>
        <time>2016-11-27T10:23:58.000Z</time>
      </trkpt>
      <trkpt lat="46.05453" lon="4.54022">
        <ele>760</ele>
        <time>2016-11-27T10:23:59.000Z</time>
      </trkpt>
      <trkpt lat="46.05452" lon="4.54021">
        <ele>761</ele>
        <time>2016-11-27T10:24:00.000Z</time>
      </trkpt>
      <trkpt lat="46.05452" lon="4.5402">
        <ele>761</ele>
        <time>2016-11-27T10:24:01.000Z</time>
      </trkpt>
      <trkpt lat="46.05451" lon="4.54019">
        <ele>761</ele>
        <time>2016-11-27T10:24:02.000Z</time>
      </trkpt>
      <trkpt lat="46.05451" lon="4.54018">
        <ele>761</ele>
        <time>2016-11-27T10:24:03.000Z</time>
      </trkpt>
      <trkpt lat="46.0545" lon="4.54017">
        <ele>761</ele>
        <time>2016-11-27T10:24:04.000Z</time>
      </trkpt>
      <trkpt lat="46.0545" lon="4.54015">
        <ele>763</ele>
        <time>2016-11-27T10:24:05.000Z</time>
      </trkpt>
      <trkpt lat="46.05449" lon="4.54013">
        <ele>764</ele>
        <time>2016-11-27T10:24:06.000Z</time>
      </trkpt>
      <trkpt lat="46.05448" lon="4.54012">
        <ele>765</ele>
        <time>2016-11-27T10:24:07.000Z</time>
      </trkpt>
      <trkpt lat="46.05447" lon="4.54011">
        <ele>766</ele>
        <time>2016-11-27T10:24:08.000Z</time>
      </trkpt>
      <trkpt lat="46.05446" lon="4.54009">
        <ele>767</ele>
        <time>2016-11-27T10:24:09.000Z</time>
      </trkpt>
      <trkpt lat="46.05446" lon="4.54008">
        <ele>767</ele>
        <time>2016-11-27T10:24:10.000Z</time>
      </trkpt>
      <trkpt lat="46.05445" lon="4.54006">
        <ele>768</ele>
        <time>2016-11-27T10:24:11.000Z</time>
      </trkpt>
      <trkpt lat="46.05444" lon="4.54006">
        <ele>768</ele>
        <time>2016-11-27T10:24:12.000Z</time>
      </trkpt>
      <trkpt lat="46.05443" lon="4.54005">
        <ele>768</ele>
        <time>2016-11-27T10:24:13.000Z</time>
      </trkpt>
      <trkpt lat="46.05442" lon="4.54004">
        <ele>768</ele>
        <time>2016-11-27T10:24:14.000Z</time>
      </trkpt>
      <trkpt lat="46.05441" lon="4.54004">
        <ele>768</ele>
        <time>2016-11-27T10:24:15.000Z</time>
      </trkpt>
      <trkpt lat="46.0544" lon="4.54002">
        <ele>769</ele>
        <time>2016-11-27T10:24:16.000Z</time>
      </trkpt>
      <trkpt lat="46.05439" lon="4.54001">
        <ele>769</ele>
        <time>2016-11-27T10:24:17.000Z</time>
      </trkpt>
      <trkpt lat="46.05438" lon="4.54">
        <ele>769</ele>
        <time>2016-11-27T10:24:18.000Z</time>
      </trkpt>
      <trkpt lat="46.05437" lon="4.53999">
        <ele>769</ele>
        <time>2016-11-27T10:24:19.000Z</time>
      </trkpt>
      <trkpt lat="46.05436" lon="4.53998">
        <ele>769</ele>
        <time>2016-11-27T10:24:20.000Z</time>
      </trkpt>
      <trkpt lat="46.05435" lon="4.53997">
        <ele>769</ele>
        <time>2016-11-27T10:24:21.000Z</time>
      </trkpt>
      <trkpt lat="46.05434" lon="4.53996">
        <ele>769</ele>
        <time>2016-11-27T10:24:22.000Z</time>
      </trkpt>
      <trkpt lat="46.05433" lon="4.53995">
        <ele>769</ele>
        <time>2016-11-27T10:24:23.000Z</time>
      </trkpt>
      <trkpt lat="46.05432" lon="4.53994">
        <ele>769</ele>
        <time>2016-11-27T10:24:24.000Z</time>
      </trkpt>
      <trkpt lat="46.05431" lon="4.53993">
        <ele>769</ele>
        <time>2016-11-27T10:24:25.000Z</time>
      </trkpt>
      <trkpt lat="46.05431" lon="4.53992">
        <ele>769</ele>
        <time>2016-11-27T10:24:26.000Z</time>
      </trkpt>
      <trkpt lat="46.0543" lon="4.53992">
        <ele>770</ele>
        <time>2016-11-27T10:24:27.000Z</time>
      </trkpt>
      <trkpt lat="46.0543" lon="4.53991">
        <ele>771</ele>
        <time>2016-11-27T10:24:28.000Z</time>
      </trkpt>
      <trkpt lat="46.05429" lon="4.53989">
        <ele>771</ele>
        <time>2016-11-27T10:24:29.000Z</time>
      </trkpt>
      <trkpt lat="46.05428" lon="4.53988">
        <ele>770</ele>
        <time>2016-11-27T10:24:30.000Z</time>
      </trkpt>
      <trkpt lat="46.05427" lon="4.53986">
        <ele>771</ele>
        <time>2016-11-27T10:24:31.000Z</time>
      </trkpt>
      <trkpt lat="46.05426" lon="4.53984">
        <ele>771</ele>
        <time>2016-11-27T10:24:32.000Z</time>
      </trkpt>
      <trkpt lat="46.05425" lon="4.53984">
        <ele>771</ele>
        <time>2016-11-27T10:24:33.000Z</time>
      </trkpt>
      <trkpt lat="46.05424" lon="4.53983">
        <ele>772</ele>
        <time>2016-11-27T10:24:34.000Z</time>
      </trkpt>
      <trkpt lat="46.05423" lon="4.53981">
        <ele>771</ele>
        <time>2016-11-27T10:24:35.000Z</time>
      </trkpt>
      <trkpt lat="46.05423" lon="4.53979">
        <ele>772</ele>
        <time>2016-11-27T10:24:36.000Z</time>
      </trkpt>
      <trkpt lat="46.05423" lon="4.53976">
        <ele>772</ele>
        <time>2016-11-27T10:24:37.000Z</time>
      </trkpt>
      <trkpt lat="46.05423" lon="4.53975">
        <ele>772</ele>
        <time>2016-11-27T10:24:38.000Z</time>
      </trkpt>
      <trkpt lat="46.05422" lon="4.53973">
        <ele>771</ele>
        <time>2016-11-27T10:24:39.000Z</time>
      </trkpt>
      <trkpt lat="46.05421" lon="4.53972">
        <ele>771</ele>
        <time>2016-11-27T10:24:40.000Z</time>
      </trkpt>
      <trkpt lat="46.05421" lon="4.53971">
        <ele>770</ele>
        <time>2016-11-27T10:24:41.000Z</time>
      </trkpt>
      <trkpt lat="46.0542" lon="4.5397">
        <ele>771</ele>
        <time>2016-11-27T10:24:42.000Z</time>
      </trkpt>
      <trkpt lat="46.05419" lon="4.53969">
        <ele>771</ele>
        <time>2016-11-27T10:24:43.000Z</time>
      </trkpt>
      <trkpt lat="46.05418" lon="4.53968">
        <ele>771</ele>
        <time>2016-11-27T10:24:44.000Z</time>
      </trkpt>
      <trkpt lat="46.05417" lon="4.53967">
        <ele>771</ele>
        <time>2016-11-27T10:24:45.000Z</time>
      </trkpt>
      <trkpt lat="46.05416" lon="4.53965">
        <ele>771</ele>
        <time>2016-11-27T10:24:46.000Z</time>
      </trkpt>
      <trkpt lat="46.05415" lon="4.53963">
        <ele>771</ele>
        <time>2016-11-27T10:24:47.000Z</time>
      </trkpt>
      <trkpt lat="46.05415" lon="4.53962">
        <ele>771</ele>
        <time>2016-11-27T10:24:48.000Z</time>
      </trkpt>
      <trkpt lat="46.05414" lon="4.53961">
        <ele>771</ele>
        <time>2016-11-27T10:24:49.000Z</time>
      </trkpt>
      <trkpt lat="46.05413" lon="4.53961">
        <ele>771</ele>
        <time>2016-11-27T10:24:50.000Z</time>
      </trkpt>
      <trkpt lat="46.05411" lon="4.53961">
        <ele>770</ele>
        <time>2016-11-27T10:24:51.000Z</time>
      </trkpt>
      <trkpt lat="46.0541" lon="4.5396">
        <ele>769</ele>
        <time>2016-11-27T10:24:52.000Z</time>
      </trkpt>
      <trkpt lat="46.05409" lon="4.5396">
        <ele>768</ele>
        <time>2016-11-27T10:24:53.000Z</time>
      </trkpt>
      <trkpt lat="46.05409" lon="4.53959">
        <ele>769</ele>
        <time>2016-11-27T10:24:54.000Z</time>
      </trkpt>
      <trkpt lat="46.05409" lon="4.53958">
        <ele>769</ele>
        <time>2016-11-27T10:24:55.000Z</time>
      </trkpt>
      <trkpt lat="46.05409" lon="4.53957">
        <ele>770</ele>
        <time>2016-11-27T10:24:56.000Z</time>
      </trkpt>
      <trkpt lat="46.05409" lon="4.53956">
        <ele>769</ele>
        <time>2016-11-27T10:24:57.000Z</time>
      </trkpt>
      <trkpt lat="46.05408" lon="4.53955">
        <ele>770</ele>
        <time>2016-11-27T10:24:58.000Z</time>
      </trkpt>
      <trkpt lat="46.05408" lon="4.53954">
        <ele>770</ele>
        <time>2016-11-27T10:24:59.000Z</time>
      </trkpt>
      <trkpt lat="46.05407" lon="4.53952">
        <ele>770</ele>
        <time>2016-11-27T10:25:00.000Z</time>
      </trkpt>
      <trkpt lat="46.05407" lon="4.5395">
        <ele>770</ele>
        <time>2016-11-27T10:25:01.000Z</time>
      </trkpt>
      <trkpt lat="46.05406" lon="4.53949">
        <ele>770</ele>
        <time>2016-11-27T10:25:02.000Z</time>
      </trkpt>
      <trkpt lat="46.05406" lon="4.53948">
        <ele>770</ele>
        <time>2016-11-27T10:25:03.000Z</time>
      </trkpt>
      <trkpt lat="46.05406" lon="4.53946">
        <ele>770</ele>
        <time>2016-11-27T10:25:04.000Z</time>
      </trkpt>
      <trkpt lat="46.05406" lon="4.53945">
        <ele>770</ele>
        <time>2016-11-27T10:25:05.000Z</time>
      </trkpt>
      <trkpt lat="46.05405" lon="4.53944">
        <ele>771</ele>
        <time>2016-11-27T10:25:06.000Z</time>
      </trkpt>
      <trkpt lat="46.05404" lon="4.53942">
        <ele>771</ele>
        <time>2016-11-27T10:25:07.000Z</time>
      </trkpt>
      <trkpt lat="46.05404" lon="4.53941">
        <ele>771</ele>
        <time>2016-11-27T10:25:08.000Z</time>
      </trkpt>
      <trkpt lat="46.05404" lon="4.53939">
        <ele>770</ele>
        <time>2016-11-27T10:25:09.000Z</time>
      </trkpt>
      <trkpt lat="46.05404" lon="4.53937">
        <ele>771</ele>
        <time>2016-11-27T10:25:10.000Z</time>
      </trkpt>
      <trkpt lat="46.05403" lon="4.53936">
        <ele>770</ele>
        <time>2016-11-27T10:25:11.000Z</time>
      </trkpt>
      <trkpt lat="46.05403" lon="4.53935">
        <ele>769</ele>
        <time>2016-11-27T10:25:12.000Z</time>
      </trkpt>
      <trkpt lat="46.05401" lon="4.53934">
        <ele>769</ele>
        <time>2016-11-27T10:25:13.000Z</time>
      </trkpt>
      <trkpt lat="46.054" lon="4.53933">
        <ele>769</ele>
        <time>2016-11-27T10:25:14.000Z</time>
      </trkpt>
      <trkpt lat="46.054" lon="4.53932">
        <ele>770</ele>
        <time>2016-11-27T10:25:15.000Z</time>
      </trkpt>
      <trkpt lat="46.054" lon="4.5393">
        <ele>770</ele>
        <time>2016-11-27T10:25:16.000Z</time>
      </trkpt>
      <trkpt lat="46.05399" lon="4.53929">
        <ele>770</ele>
        <time>2016-11-27T10:25:17.000Z</time>
      </trkpt>
      <trkpt lat="46.05399" lon="4.53928">
        <ele>770</ele>
        <time>2016-11-27T10:25:18.000Z</time>
      </trkpt>
      <trkpt lat="46.05398" lon="4.53927">
        <ele>770</ele>
        <time>2016-11-27T10:25:19.000Z</time>
      </trkpt>
      <trkpt lat="46.05399" lon="4.53926">
        <ele>770</ele>
        <time>2016-11-27T10:25:20.000Z</time>
      </trkpt>
      <trkpt lat="46.05399" lon="4.53925">
        <ele>770</ele>
        <time>2016-11-27T10:25:21.000Z</time>
      </trkpt>
      <trkpt lat="46.05399" lon="4.53923">
        <ele>771</ele>
        <time>2016-11-27T10:25:22.000Z</time>
      </trkpt>
      <trkpt lat="46.05399" lon="4.53922">
        <ele>771</ele>
        <time>2016-11-27T10:25:23.000Z</time>
      </trkpt>
      <trkpt lat="46.05399" lon="4.53921">
        <ele>771</ele>
        <time>2016-11-27T10:25:24.000Z</time>
      </trkpt>
      <trkpt lat="46.05399" lon="4.5392">
        <ele>771</ele>
        <time>2016-11-27T10:25:25.000Z</time>
      </trkpt>
      <trkpt lat="46.05399" lon="4.53919">
        <ele>771</ele>
        <time>2016-11-27T10:25:26.000Z</time>
      </trkpt>
      <trkpt lat="46.054" lon="4.53918">
        <ele>771</ele>
        <time>2016-11-27T10:25:27.000Z</time>
      </trkpt>
      <trkpt lat="46.054" lon="4.53917">
        <ele>772</ele>
        <time>2016-11-27T10:25:28.000Z</time>
      </trkpt>
      <trkpt lat="46.054" lon="4.53917">
        <ele>772</ele>
        <time>2016-11-27T10:25:29.000Z</time>
      </trkpt>
      <trkpt lat="46.05399" lon="4.53916">
        <ele>772</ele>
        <time>2016-11-27T10:25:30.000Z</time>
      </trkpt>
      <trkpt lat="46.05399" lon="4.53915">
        <ele>772</ele>
        <time>2016-11-27T10:25:31.000Z</time>
      </trkpt>
      <trkpt lat="46.05399" lon="4.53914">
        <ele>772</ele>
        <time>2016-11-27T10:25:32.000Z</time>
      </trkpt>
      <trkpt lat="46.05398" lon="4.53913">
        <ele>772</ele>
        <time>2016-11-27T10:25:33.000Z</time>
      </trkpt>
      <trkpt lat="46.05398" lon="4.53912">
        <ele>772</ele>
        <time>2016-11-27T10:25:34.000Z</time>
      </trkpt>
      <trkpt lat="46.05398" lon="4.53911">
        <ele>773</ele>
        <time>2016-11-27T10:25:35.000Z</time>
      </trkpt>
      <trkpt lat="46.05398" lon="4.5391">
        <ele>773</ele>
        <time>2016-11-27T10:25:36.000Z</time>
      </trkpt>
      <trkpt lat="46.05397" lon="4.53908">
        <ele>773</ele>
        <time>2016-11-27T10:25:37.000Z</time>
      </trkpt>
      <trkpt lat="46.05397" lon="4.53907">
        <ele>774</ele>
        <time>2016-11-27T10:25:38.000Z</time>
      </trkpt>
      <trkpt lat="46.05396" lon="4.53905">
        <ele>775</ele>
        <time>2016-11-27T10:25:39.000Z</time>
      </trkpt>
      <trkpt lat="46.05396" lon="4.53903">
        <ele>775</ele>
        <time>2016-11-27T10:25:40.000Z</time>
      </trkpt>
      <trkpt lat="46.05396" lon="4.53902">
        <ele>775</ele>
        <time>2016-11-27T10:25:41.000Z</time>
      </trkpt>
      <trkpt lat="46.05396" lon="4.539">
        <ele>775</ele>
        <time>2016-11-27T10:25:42.000Z</time>
      </trkpt>
      <trkpt lat="46.05396" lon="4.53899">
        <ele>775</ele>
        <time>2016-11-27T10:25:43.000Z</time>
      </trkpt>
      <trkpt lat="46.05396" lon="4.53898">
        <ele>775</ele>
        <time>2016-11-27T10:25:44.000Z</time>
      </trkpt>
      <trkpt lat="46.05395" lon="4.53897">
        <ele>778</ele>
        <time>2016-11-27T10:25:45.000Z</time>
      </trkpt>
      <trkpt lat="46.05394" lon="4.53896">
        <ele>778</ele>
        <time>2016-11-27T10:25:46.000Z</time>
      </trkpt>
      <trkpt lat="46.05393" lon="4.53895">
        <ele>778</ele>
        <time>2016-11-27T10:25:47.000Z</time>
      </trkpt>
      <trkpt lat="46.05393" lon="4.53894">
        <ele>779</ele>
        <time>2016-11-27T10:25:48.000Z</time>
      </trkpt>
      <trkpt lat="46.05393" lon="4.53893">
        <ele>779</ele>
        <time>2016-11-27T10:25:49.000Z</time>
      </trkpt>
      <trkpt lat="46.05392" lon="4.53892">
        <ele>779</ele>
        <time>2016-11-27T10:25:50.000Z</time>
      </trkpt>
      <trkpt lat="46.05391" lon="4.53891">
        <ele>779</ele>
        <time>2016-11-27T10:25:51.000Z</time>
      </trkpt>
      <trkpt lat="46.0539" lon="4.5389">
        <ele>779</ele>
        <time>2016-11-27T10:25:52.000Z</time>
      </trkpt>
      <trkpt lat="46.0539" lon="4.53889">
        <ele>779</ele>
        <time>2016-11-27T10:25:53.000Z</time>
      </trkpt>
      <trkpt lat="46.05389" lon="4.53888">
        <ele>779</ele>
        <time>2016-11-27T10:25:54.000Z</time>
      </trkpt>
      <trkpt lat="46.05388" lon="4.53887">
        <ele>780</ele>
        <time>2016-11-27T10:25:55.000Z</time>
      </trkpt>
      <trkpt lat="46.05387" lon="4.53886">
        <ele>780</ele>
        <time>2016-11-27T10:25:56.000Z</time>
      </trkpt>
      <trkpt lat="46.05387" lon="4.53885">
        <ele>780</ele>
        <time>2016-11-27T10:25:57.000Z</time>
      </trkpt>
      <trkpt lat="46.05386" lon="4.53885">
        <ele>781</ele>
        <time>2016-11-27T10:25:58.000Z</time>
      </trkpt>
      <trkpt lat="46.05385" lon="4.53884">
        <ele>781</ele>
        <time>2016-11-27T10:25:59.000Z</time>
      </trkpt>
      <trkpt lat="46.05385" lon="4.53884">
        <ele>781</ele>
        <time>2016-11-27T10:26:00.000Z</time>
      </trkpt>
      <trkpt lat="46.05384" lon="4.53883">
        <ele>781</ele>
        <time>2016-11-27T10:26:01.000Z</time>
      </trkpt>
      <trkpt lat="46.05384" lon="4.53883">
        <ele>781</ele>
        <time>2016-11-27T10:26:02.000Z</time>
      </trkpt>
      <trkpt lat="46.05384" lon="4.53883">
        <ele>781</ele>
        <time>2016-11-27T10:26:03.000Z</time>
      </trkpt>
      <trkpt lat="46.05384" lon="4.53883">
        <ele>781</ele>
        <time>2016-11-27T10:26:04.000Z</time>
      </trkpt>
      <trkpt lat="46.05384" lon="4.53883">
        <ele>781</ele>
        <time>2016-11-27T10:26:05.000Z</time>
      </trkpt>
      <trkpt lat="46.05384" lon="4.53882">
        <ele>781</ele>
        <time>2016-11-27T10:26:06.000Z</time>
      </trkpt>
      <trkpt lat="46.05384" lon="4.53881">
        <ele>781</ele>
        <time>2016-11-27T10:26:07.000Z</time>
      </trkpt>
      <trkpt lat="46.05383" lon="4.53881">
        <ele>781</ele>
        <time>2016-11-27T10:26:08.000Z</time>
      </trkpt>
      <trkpt lat="46.05382" lon="4.5388">
        <ele>781</ele>
        <time>2016-11-27T10:26:09.000Z</time>
      </trkpt>
      <trkpt lat="46.05382" lon="4.53879">
        <ele>781</ele>
        <time>2016-11-27T10:26:10.000Z</time>
      </trkpt>
      <trkpt lat="46.05381" lon="4.53878">
        <ele>781</ele>
        <time>2016-11-27T10:26:11.000Z</time>
      </trkpt>
      <trkpt lat="46.05381" lon="4.53877">
        <ele>781</ele>
        <time>2016-11-27T10:26:12.000Z</time>
      </trkpt>
      <trkpt lat="46.0538" lon="4.53876">
        <ele>781</ele>
        <time>2016-11-27T10:26:13.000Z</time>
      </trkpt>
      <trkpt lat="46.0538" lon="4.53875">
        <ele>781</ele>
        <time>2016-11-27T10:26:14.000Z</time>
      </trkpt>
      <trkpt lat="46.0538" lon="4.53873">
        <ele>782</ele>
        <time>2016-11-27T10:26:15.000Z</time>
      </trkpt>
      <trkpt lat="46.0538" lon="4.53872">
        <ele>783</ele>
        <time>2016-11-27T10:26:16.000Z</time>
      </trkpt>
      <trkpt lat="46.05379" lon="4.53871">
        <ele>782</ele>
        <time>2016-11-27T10:26:17.000Z</time>
      </trkpt>
      <trkpt lat="46.05379" lon="4.5387">
        <ele>783</ele>
        <time>2016-11-27T10:26:18.000Z</time>
      </trkpt>
      <trkpt lat="46.05378" lon="4.5387">
        <ele>783</ele>
        <time>2016-11-27T10:26:19.000Z</time>
      </trkpt>
      <trkpt lat="46.05378" lon="4.53869">
        <ele>783</ele>
        <time>2016-11-27T10:26:20.000Z</time>
      </trkpt>
      <trkpt lat="46.05377" lon="4.53868">
        <ele>784</ele>
        <time>2016-11-27T10:26:21.000Z</time>
      </trkpt>
      <trkpt lat="46.05376" lon="4.53868">
        <ele>784</ele>
        <time>2016-11-27T10:26:22.000Z</time>
      </trkpt>
      <trkpt lat="46.05376" lon="4.53867">
        <ele>784</ele>
        <time>2016-11-27T10:26:23.000Z</time>
      </trkpt>
      <trkpt lat="46.05375" lon="4.53866">
        <ele>784</ele>
        <time>2016-11-27T10:26:24.000Z</time>
      </trkpt>
      <trkpt lat="46.05374" lon="4.53865">
        <ele>784</ele>
        <time>2016-11-27T10:26:25.000Z</time>
      </trkpt>
      <trkpt lat="46.05374" lon="4.53865">
        <ele>784</ele>
        <time>2016-11-27T10:26:26.000Z</time>
      </trkpt>
      <trkpt lat="46.05373" lon="4.53864">
        <ele>784</ele>
        <time>2016-11-27T10:26:27.000Z</time>
      </trkpt>
      <trkpt lat="46.05372" lon="4.53864">
        <ele>784</ele>
        <time>2016-11-27T10:26:28.000Z</time>
      </trkpt>
      <trkpt lat="46.05372" lon="4.53865">
        <ele>784</ele>
        <time>2016-11-27T10:26:29.000Z</time>
      </trkpt>
      <trkpt lat="46.05371" lon="4.53866">
        <ele>783</ele>
        <time>2016-11-27T10:26:30.000Z</time>
      </trkpt>
      <trkpt lat="46.05371" lon="4.53867">
        <ele>783</ele>
        <time>2016-11-27T10:26:31.000Z</time>
      </trkpt>
      <trkpt lat="46.0537" lon="4.53868">
        <ele>782</ele>
        <time>2016-11-27T10:26:32.000Z</time>
      </trkpt>
      <trkpt lat="46.0537" lon="4.53868">
        <ele>782</ele>
        <time>2016-11-27T10:26:33.000Z</time>
      </trkpt>
      <trkpt lat="46.05369" lon="4.53867">
        <ele>782</ele>
        <time>2016-11-27T10:26:34.000Z</time>
      </trkpt>
      <trkpt lat="46.05369" lon="4.53867">
        <ele>781</ele>
        <time>2016-11-27T10:26:35.000Z</time>
      </trkpt>
      <trkpt lat="46.05368" lon="4.53867">
        <ele>781</ele>
        <time>2016-11-27T10:26:36.000Z</time>
      </trkpt>
      <trkpt lat="46.05368" lon="4.53867">
        <ele>781</ele>
        <time>2016-11-27T10:26:37.000Z</time>
      </trkpt>
      <trkpt lat="46.05367" lon="4.53867">
        <ele>780</ele>
        <time>2016-11-27T10:26:38.000Z</time>
      </trkpt>
      <trkpt lat="46.05367" lon="4.53867">
        <ele>779</ele>
        <time>2016-11-27T10:26:39.000Z</time>
      </trkpt>
      <trkpt lat="46.05366" lon="4.53867">
        <ele>779</ele>
        <time>2016-11-27T10:26:40.000Z</time>
      </trkpt>
      <trkpt lat="46.05364" lon="4.53866">
        <ele>778</ele>
        <time>2016-11-27T10:26:41.000Z</time>
      </trkpt>
      <trkpt lat="46.05363" lon="4.53866">
        <ele>778</ele>
        <time>2016-11-27T10:26:42.000Z</time>
      </trkpt>
      <trkpt lat="46.05362" lon="4.53866">
        <ele>777</ele>
        <time>2016-11-27T10:26:43.000Z</time>
      </trkpt>
      <trkpt lat="46.05361" lon="4.53865">
        <ele>777</ele>
        <time>2016-11-27T10:26:44.000Z</time>
      </trkpt>
      <trkpt lat="46.0536" lon="4.53865">
        <ele>776</ele>
        <time>2016-11-27T10:26:45.000Z</time>
      </trkpt>
      <trkpt lat="46.05359" lon="4.53865">
        <ele>776</ele>
        <time>2016-11-27T10:26:46.000Z</time>
      </trkpt>
      <trkpt lat="46.05358" lon="4.53864">
        <ele>775</ele>
        <time>2016-11-27T10:26:47.000Z</time>
      </trkpt>
      <trkpt lat="46.05357" lon="4.53864">
        <ele>772</ele>
        <time>2016-11-27T10:26:48.000Z</time>
      </trkpt>
      <trkpt lat="46.05355" lon="4.53864">
        <ele>772</ele>
        <time>2016-11-27T10:26:49.000Z</time>
      </trkpt>
      <trkpt lat="46.05354" lon="4.53864">
        <ele>771</ele>
        <time>2016-11-27T10:26:50.000Z</time>
      </trkpt>
      <trkpt lat="46.05353" lon="4.53863">
        <ele>771</ele>
        <time>2016-11-27T10:26:51.000Z</time>
      </trkpt>
      <trkpt lat="46.05351" lon="4.53862">
        <ele>771</ele>
        <time>2016-11-27T10:26:52.000Z</time>
      </trkpt>
      <trkpt lat="46.0535" lon="4.53862">
        <ele>771</ele>
        <time>2016-11-27T10:26:53.000Z</time>
      </trkpt>
      <trkpt lat="46.05348" lon="4.53861">
        <ele>771</ele>
        <time>2016-11-27T10:26:54.000Z</time>
      </trkpt>
      <trkpt lat="46.05347" lon="4.53861">
        <ele>771</ele>
        <time>2016-11-27T10:26:55.000Z</time>
      </trkpt>
      <trkpt lat="46.05345" lon="4.53861">
        <ele>771</ele>
        <time>2016-11-27T10:26:56.000Z</time>
      </trkpt>
      <trkpt lat="46.05344" lon="4.53862">
        <ele>771</ele>
        <time>2016-11-27T10:26:57.000Z</time>
      </trkpt>
      <trkpt lat="46.05343" lon="4.53861">
        <ele>771</ele>
        <time>2016-11-27T10:26:58.000Z</time>
      </trkpt>
      <trkpt lat="46.05342" lon="4.53861">
        <ele>771</ele>
        <time>2016-11-27T10:26:59.000Z</time>
      </trkpt>
      <trkpt lat="46.05341" lon="4.53861">
        <ele>771</ele>
        <time>2016-11-27T10:27:00.000Z</time>
      </trkpt>
      <trkpt lat="46.0534" lon="4.53861">
        <ele>771</ele>
        <time>2016-11-27T10:27:01.000Z</time>
      </trkpt>
      <trkpt lat="46.05339" lon="4.53861">
        <ele>771</ele>
        <time>2016-11-27T10:27:02.000Z</time>
      </trkpt>
      <trkpt lat="46.05338" lon="4.53861">
        <ele>770</ele>
        <time>2016-11-27T10:27:03.000Z</time>
      </trkpt>
      <trkpt lat="46.05337" lon="4.53861">
        <ele>769</ele>
        <time>2016-11-27T10:27:04.000Z</time>
      </trkpt>
      <trkpt lat="46.05336" lon="4.53861">
        <ele>769</ele>
        <time>2016-11-27T10:27:05.000Z</time>
      </trkpt>
      <trkpt lat="46.05336" lon="4.53861">
        <ele>768</ele>
        <time>2016-11-27T10:27:06.000Z</time>
      </trkpt>
      <trkpt lat="46.05335" lon="4.53861">
        <ele>770</ele>
        <time>2016-11-27T10:27:07.000Z</time>
      </trkpt>
      <trkpt lat="46.05334" lon="4.53861">
        <ele>770</ele>
        <time>2016-11-27T10:27:08.000Z</time>
      </trkpt>
      <trkpt lat="46.05333" lon="4.53861">
        <ele>769</ele>
        <time>2016-11-27T10:27:09.000Z</time>
      </trkpt>
      <trkpt lat="46.05332" lon="4.53862">
        <ele>769</ele>
        <time>2016-11-27T10:27:10.000Z</time>
      </trkpt>
      <trkpt lat="46.05331" lon="4.53862">
        <ele>768</ele>
        <time>2016-11-27T10:27:11.000Z</time>
      </trkpt>
      <trkpt lat="46.0533" lon="4.53863">
        <ele>768</ele>
        <time>2016-11-27T10:27:12.000Z</time>
      </trkpt>
      <trkpt lat="46.0533" lon="4.53863">
        <ele>767</ele>
        <time>2016-11-27T10:27:13.000Z</time>
      </trkpt>
      <trkpt lat="46.05329" lon="4.53864">
        <ele>768</ele>
        <time>2016-11-27T10:27:14.000Z</time>
      </trkpt>
      <trkpt lat="46.05329" lon="4.53864">
        <ele>768</ele>
        <time>2016-11-27T10:27:15.000Z</time>
      </trkpt>
      <trkpt lat="46.05328" lon="4.53864">
        <ele>768</ele>
        <time>2016-11-27T10:27:16.000Z</time>
      </trkpt>
      <trkpt lat="46.05327" lon="4.53863">
        <ele>768</ele>
        <time>2016-11-27T10:27:17.000Z</time>
      </trkpt>
      <trkpt lat="46.05326" lon="4.53863">
        <ele>767</ele>
        <time>2016-11-27T10:27:18.000Z</time>
      </trkpt>
      <trkpt lat="46.05325" lon="4.53863">
        <ele>767</ele>
        <time>2016-11-27T10:27:19.000Z</time>
      </trkpt>
      <trkpt lat="46.05325" lon="4.53863">
        <ele>768</ele>
        <time>2016-11-27T10:27:20.000Z</time>
      </trkpt>
      <trkpt lat="46.05324" lon="4.53863">
        <ele>768</ele>
        <time>2016-11-27T10:27:21.000Z</time>
      </trkpt>
      <trkpt lat="46.05323" lon="4.53863">
        <ele>767</ele>
        <time>2016-11-27T10:27:22.000Z</time>
      </trkpt>
      <trkpt lat="46.05323" lon="4.53863">
        <ele>767</ele>
        <time>2016-11-27T10:27:23.000Z</time>
      </trkpt>
      <trkpt lat="46.05322" lon="4.53863">
        <ele>767</ele>
        <time>2016-11-27T10:27:24.000Z</time>
      </trkpt>
      <trkpt lat="46.05322" lon="4.53863">
        <ele>767</ele>
        <time>2016-11-27T10:27:25.000Z</time>
      </trkpt>
      <trkpt lat="46.05321" lon="4.53862">
        <ele>767</ele>
        <time>2016-11-27T10:27:26.000Z</time>
      </trkpt>
      <trkpt lat="46.0532" lon="4.53862">
        <ele>768</ele>
        <time>2016-11-27T10:27:27.000Z</time>
      </trkpt>
      <trkpt lat="46.05319" lon="4.53862">
        <ele>768</ele>
        <time>2016-11-27T10:27:28.000Z</time>
      </trkpt>
      <trkpt lat="46.05318" lon="4.53862">
        <ele>767</ele>
        <time>2016-11-27T10:27:29.000Z</time>
      </trkpt>
      <trkpt lat="46.05317" lon="4.53861">
        <ele>767</ele>
        <time>2016-11-27T10:27:30.000Z</time>
      </trkpt>
      <trkpt lat="46.05316" lon="4.5386">
        <ele>767</ele>
        <time>2016-11-27T10:27:31.000Z</time>
      </trkpt>
      <trkpt lat="46.05315" lon="4.53859">
        <ele>767</ele>
        <time>2016-11-27T10:27:32.000Z</time>
      </trkpt>
      <trkpt lat="46.05313" lon="4.53859">
        <ele>767</ele>
        <time>2016-11-27T10:27:33.000Z</time>
      </trkpt>
      <trkpt lat="46.05312" lon="4.5386">
        <ele>766</ele>
        <time>2016-11-27T10:27:34.000Z</time>
      </trkpt>
      <trkpt lat="46.05311" lon="4.5386">
        <ele>766</ele>
        <time>2016-11-27T10:27:35.000Z</time>
      </trkpt>
      <trkpt lat="46.0531" lon="4.53859">
        <ele>765</ele>
        <time>2016-11-27T10:27:36.000Z</time>
      </trkpt>
      <trkpt lat="46.05309" lon="4.53859">
        <ele>765</ele>
        <time>2016-11-27T10:27:37.000Z</time>
      </trkpt>
      <trkpt lat="46.05308" lon="4.53858">
        <ele>764</ele>
        <time>2016-11-27T10:27:38.000Z</time>
      </trkpt>
      <trkpt lat="46.05307" lon="4.53858">
        <ele>764</ele>
        <time>2016-11-27T10:27:39.000Z</time>
      </trkpt>
      <trkpt lat="46.05306" lon="4.53858">
        <ele>764</ele>
        <time>2016-11-27T10:27:40.000Z</time>
      </trkpt>
      <trkpt lat="46.05305" lon="4.53858">
        <ele>763</ele>
        <time>2016-11-27T10:27:41.000Z</time>
      </trkpt>
      <trkpt lat="46.05304" lon="4.53858">
        <ele>763</ele>
        <time>2016-11-27T10:27:42.000Z</time>
      </trkpt>
      <trkpt lat="46.05303" lon="4.53858">
        <ele>763</ele>
        <time>2016-11-27T10:27:43.000Z</time>
      </trkpt>
      <trkpt lat="46.05303" lon="4.53858">
        <ele>763</ele>
        <time>2016-11-27T10:27:44.000Z</time>
      </trkpt>
      <trkpt lat="46.05303" lon="4.53858">
        <ele>762</ele>
        <time>2016-11-27T10:27:45.000Z</time>
      </trkpt>
      <trkpt lat="46.05302" lon="4.53857">
        <ele>762</ele>
        <time>2016-11-27T10:27:46.000Z</time>
      </trkpt>
      <trkpt lat="46.05301" lon="4.53857">
        <ele>763</ele>
        <time>2016-11-27T10:27:47.000Z</time>
      </trkpt>
      <trkpt lat="46.053" lon="4.53858">
        <ele>763</ele>
        <time>2016-11-27T10:27:48.000Z</time>
      </trkpt>
      <trkpt lat="46.05299" lon="4.53859">
        <ele>763</ele>
        <time>2016-11-27T10:27:49.000Z</time>
      </trkpt>
      <trkpt lat="46.05297" lon="4.5386">
        <ele>763</ele>
        <time>2016-11-27T10:27:50.000Z</time>
      </trkpt>
      <trkpt lat="46.05295" lon="4.53861">
        <ele>765</ele>
        <time>2016-11-27T10:27:51.000Z</time>
      </trkpt>
      <trkpt lat="46.05293" lon="4.53862">
        <ele>765</ele>
        <time>2016-11-27T10:27:52.000Z</time>
      </trkpt>
      <trkpt lat="46.05292" lon="4.53862">
        <ele>765</ele>
        <time>2016-11-27T10:27:53.000Z</time>
      </trkpt>
      <trkpt lat="46.05291" lon="4.53861">
        <ele>763</ele>
        <time>2016-11-27T10:27:54.000Z</time>
      </trkpt>
      <trkpt lat="46.05289" lon="4.53861">
        <ele>763</ele>
        <time>2016-11-27T10:27:55.000Z</time>
      </trkpt>
      <trkpt lat="46.05287" lon="4.53861">
        <ele>763</ele>
        <time>2016-11-27T10:27:56.000Z</time>
      </trkpt>
      <trkpt lat="46.05286" lon="4.53861">
        <ele>762</ele>
        <time>2016-11-27T10:27:57.000Z</time>
      </trkpt>
      <trkpt lat="46.05284" lon="4.53861">
        <ele>762</ele>
        <time>2016-11-27T10:27:58.000Z</time>
      </trkpt>
      <trkpt lat="46.05282" lon="4.53861">
        <ele>762</ele>
        <time>2016-11-27T10:27:59.000Z</time>
      </trkpt>
      <trkpt lat="46.05281" lon="4.5386">
        <ele>762</ele>
        <time>2016-11-27T10:28:00.000Z</time>
      </trkpt>
      <trkpt lat="46.05279" lon="4.53859">
        <ele>761</ele>
        <time>2016-11-27T10:28:01.000Z</time>
      </trkpt>
      <trkpt lat="46.05278" lon="4.53858">
        <ele>760</ele>
        <time>2016-11-27T10:28:02.000Z</time>
      </trkpt>
      <trkpt lat="46.05277" lon="4.53857">
        <ele>760</ele>
        <time>2016-11-27T10:28:03.000Z</time>
      </trkpt>
      <trkpt lat="46.05276" lon="4.53857">
        <ele>760</ele>
        <time>2016-11-27T10:28:04.000Z</time>
      </trkpt>
      <trkpt lat="46.05275" lon="4.53856">
        <ele>761</ele>
        <time>2016-11-27T10:28:05.000Z</time>
      </trkpt>
      <trkpt lat="46.05273" lon="4.53855">
        <ele>762</ele>
        <time>2016-11-27T10:28:06.000Z</time>
      </trkpt>
      <trkpt lat="46.05273" lon="4.53854">
        <ele>762</ele>
        <time>2016-11-27T10:28:07.000Z</time>
      </trkpt>
      <trkpt lat="46.05272" lon="4.53853">
        <ele>762</ele>
        <time>2016-11-27T10:28:08.000Z</time>
      </trkpt>
      <trkpt lat="46.05271" lon="4.53852">
        <ele>762</ele>
        <time>2016-11-27T10:28:09.000Z</time>
      </trkpt>
      <trkpt lat="46.0527" lon="4.53851">
        <ele>762</ele>
        <time>2016-11-27T10:28:10.000Z</time>
      </trkpt>
      <trkpt lat="46.05269" lon="4.53851">
        <ele>763</ele>
        <time>2016-11-27T10:28:11.000Z</time>
      </trkpt>
      <trkpt lat="46.05268" lon="4.5385">
        <ele>763</ele>
        <time>2016-11-27T10:28:12.000Z</time>
      </trkpt>
      <trkpt lat="46.05268" lon="4.5385">
        <ele>765</ele>
        <time>2016-11-27T10:28:13.000Z</time>
      </trkpt>
      <trkpt lat="46.05267" lon="4.5385">
        <ele>765</ele>
        <time>2016-11-27T10:28:14.000Z</time>
      </trkpt>
      <trkpt lat="46.05265" lon="4.53849">
        <ele>764</ele>
        <time>2016-11-27T10:28:15.000Z</time>
      </trkpt>
      <trkpt lat="46.05264" lon="4.53849">
        <ele>764</ele>
        <time>2016-11-27T10:28:16.000Z</time>
      </trkpt>
      <trkpt lat="46.05263" lon="4.53849">
        <ele>765</ele>
        <time>2016-11-27T10:28:17.000Z</time>
      </trkpt>
      <trkpt lat="46.05263" lon="4.53849">
        <ele>765</ele>
        <time>2016-11-27T10:28:18.000Z</time>
      </trkpt>
      <trkpt lat="46.05262" lon="4.53848">
        <ele>765</ele>
        <time>2016-11-27T10:28:19.000Z</time>
      </trkpt>
      <trkpt lat="46.05261" lon="4.53848">
        <ele>764</ele>
        <time>2016-11-27T10:28:20.000Z</time>
      </trkpt>
      <trkpt lat="46.0526" lon="4.53847">
        <ele>764</ele>
        <time>2016-11-27T10:28:21.000Z</time>
      </trkpt>
      <trkpt lat="46.05259" lon="4.53846">
        <ele>764</ele>
        <time>2016-11-27T10:28:22.000Z</time>
      </trkpt>
      <trkpt lat="46.05258" lon="4.53845">
        <ele>765</ele>
        <time>2016-11-27T10:28:23.000Z</time>
      </trkpt>
      <trkpt lat="46.05257" lon="4.53845">
        <ele>764</ele>
        <time>2016-11-27T10:28:24.000Z</time>
      </trkpt>
      <trkpt lat="46.05257" lon="4.53844">
        <ele>763</ele>
        <time>2016-11-27T10:28:25.000Z</time>
      </trkpt>
      <trkpt lat="46.05256" lon="4.53844">
        <ele>763</ele>
        <time>2016-11-27T10:28:26.000Z</time>
      </trkpt>
      <trkpt lat="46.05255" lon="4.53844">
        <ele>763</ele>
        <time>2016-11-27T10:28:27.000Z</time>
      </trkpt>
      <trkpt lat="46.05254" lon="4.53844">
        <ele>764</ele>
        <time>2016-11-27T10:28:28.000Z</time>
      </trkpt>
      <trkpt lat="46.05253" lon="4.53843">
        <ele>764</ele>
        <time>2016-11-27T10:28:29.000Z</time>
      </trkpt>
      <trkpt lat="46.05252" lon="4.53843">
        <ele>764</ele>
        <time>2016-11-27T10:28:30.000Z</time>
      </trkpt>
      <trkpt lat="46.05252" lon="4.53843">
        <ele>764</ele>
        <time>2016-11-27T10:28:31.000Z</time>
      </trkpt>
      <trkpt lat="46.05251" lon="4.53842">
        <ele>764</ele>
        <time>2016-11-27T10:28:32.000Z</time>
      </trkpt>
      <trkpt lat="46.05251" lon="4.53842">
        <ele>764</ele>
        <time>2016-11-27T10:28:33.000Z</time>
      </trkpt>
      <trkpt lat="46.0525" lon="4.53842">
        <ele>764</ele>
        <time>2016-11-27T10:28:34.000Z</time>
      </trkpt>
      <trkpt lat="46.05249" lon="4.53842">
        <ele>764</ele>
        <time>2016-11-27T10:28:35.000Z</time>
      </trkpt>
      <trkpt lat="46.05248" lon="4.53843">
        <ele>763</ele>
        <time>2016-11-27T10:28:36.000Z</time>
      </trkpt>
      <trkpt lat="46.05247" lon="4.53844">
        <ele>763</ele>
        <time>2016-11-27T10:28:37.000Z</time>
      </trkpt>
      <trkpt lat="46.05246" lon="4.53845">
        <ele>763</ele>
        <time>2016-11-27T10:28:38.000Z</time>
      </trkpt>
      <trkpt lat="46.05245" lon="4.53846">
        <ele>762</ele>
        <time>2016-11-27T10:28:39.000Z</time>
      </trkpt>
      <trkpt lat="46.05244" lon="4.53847">
        <ele>762</ele>
        <time>2016-11-27T10:28:40.000Z</time>
      </trkpt>
      <trkpt lat="46.05243" lon="4.53847">
        <ele>763</ele>
        <time>2016-11-27T10:28:41.000Z</time>
      </trkpt>
      <trkpt lat="46.05242" lon="4.53848">
        <ele>763</ele>
        <time>2016-11-27T10:28:42.000Z</time>
      </trkpt>
      <trkpt lat="46.05241" lon="4.53848">
        <ele>763</ele>
        <time>2016-11-27T10:28:43.000Z</time>
      </trkpt>
      <trkpt lat="46.05241" lon="4.53848">
        <ele>763</ele>
        <time>2016-11-27T10:28:44.000Z</time>
      </trkpt>
      <trkpt lat="46.05241" lon="4.53848">
        <ele>763</ele>
        <time>2016-11-27T10:28:45.000Z</time>
      </trkpt>
      <trkpt lat="46.0524" lon="4.53848">
        <ele>763</ele>
        <time>2016-11-27T10:28:46.000Z</time>
      </trkpt>
      <trkpt lat="46.05239" lon="4.53849">
        <ele>764</ele>
        <time>2016-11-27T10:28:47.000Z</time>
      </trkpt>
      <trkpt lat="46.05239" lon="4.53849">
        <ele>764</ele>
        <time>2016-11-27T10:28:48.000Z</time>
      </trkpt>
      <trkpt lat="46.05238" lon="4.53849">
        <ele>764</ele>
        <time>2016-11-27T10:28:49.000Z</time>
      </trkpt>
      <trkpt lat="46.05237" lon="4.53849">
        <ele>765</ele>
        <time>2016-11-27T10:28:50.000Z</time>
      </trkpt>
      <trkpt lat="46.05237" lon="4.53849">
        <ele>765</ele>
        <time>2016-11-27T10:28:51.000Z</time>
      </trkpt>
      <trkpt lat="46.05236" lon="4.53849">
        <ele>766</ele>
        <time>2016-11-27T10:28:52.000Z</time>
      </trkpt>
      <trkpt lat="46.05235" lon="4.5385">
        <ele>767</ele>
        <time>2016-11-27T10:28:53.000Z</time>
      </trkpt>
      <trkpt lat="46.05235" lon="4.53851">
        <ele>768</ele>
        <time>2016-11-27T10:28:54.000Z</time>
      </trkpt>
      <trkpt lat="46.05234" lon="4.53851">
        <ele>769</ele>
        <time>2016-11-27T10:28:55.000Z</time>
      </trkpt>
      <trkpt lat="46.05234" lon="4.53852">
        <ele>769</ele>
        <time>2016-11-27T10:28:56.000Z</time>
      </trkpt>
      <trkpt lat="46.05233" lon="4.53852">
        <ele>770</ele>
        <time>2016-11-27T10:28:57.000Z</time>
      </trkpt>
      <trkpt lat="46.05233" lon="4.53853">
        <ele>770</ele>
        <time>2016-11-27T10:28:58.000Z</time>
      </trkpt>
      <trkpt lat="46.05232" lon="4.53853">
        <ele>770</ele>
        <time>2016-11-27T10:28:59.000Z</time>
      </trkpt>
      <trkpt lat="46.05231" lon="4.53852">
        <ele>769</ele>
        <time>2016-11-27T10:29:00.000Z</time>
      </trkpt>
      <trkpt lat="46.05231" lon="4.53851">
        <ele>768</ele>
        <time>2016-11-27T10:29:01.000Z</time>
      </trkpt>
      <trkpt lat="46.0523" lon="4.53851">
        <ele>768</ele>
        <time>2016-11-27T10:29:02.000Z</time>
      </trkpt>
      <trkpt lat="46.0523" lon="4.5385">
        <ele>768</ele>
        <time>2016-11-27T10:29:03.000Z</time>
      </trkpt>
      <trkpt lat="46.05229" lon="4.5385">
        <ele>769</ele>
        <time>2016-11-27T10:29:04.000Z</time>
      </trkpt>
      <trkpt lat="46.05228" lon="4.5385">
        <ele>768</ele>
        <time>2016-11-27T10:29:05.000Z</time>
      </trkpt>
      <trkpt lat="46.05227" lon="4.53849">
        <ele>768</ele>
        <time>2016-11-27T10:29:06.000Z</time>
      </trkpt>
      <trkpt lat="46.05226" lon="4.53849">
        <ele>767</ele>
        <time>2016-11-27T10:29:07.000Z</time>
      </trkpt>
      <trkpt lat="46.05225" lon="4.53849">
        <ele>768</ele>
        <time>2016-11-27T10:29:08.000Z</time>
      </trkpt>
      <trkpt lat="46.05224" lon="4.53849">
        <ele>767</ele>
        <time>2016-11-27T10:29:09.000Z</time>
      </trkpt>
      <trkpt lat="46.05223" lon="4.53849">
        <ele>767</ele>
        <time>2016-11-27T10:29:10.000Z</time>
      </trkpt>
      <trkpt lat="46.05223" lon="4.5385">
        <ele>767</ele>
        <time>2016-11-27T10:29:11.000Z</time>
      </trkpt>
      <trkpt lat="46.05222" lon="4.5385">
        <ele>767</ele>
        <time>2016-11-27T10:29:12.000Z</time>
      </trkpt>
      <trkpt lat="46.05221" lon="4.5385">
        <ele>767</ele>
        <time>2016-11-27T10:29:13.000Z</time>
      </trkpt>
      <trkpt lat="46.05221" lon="4.53851">
        <ele>767</ele>
        <time>2016-11-27T10:29:14.000Z</time>
      </trkpt>
      <trkpt lat="46.05221" lon="4.53851">
        <ele>767</ele>
        <time>2016-11-27T10:29:15.000Z</time>
      </trkpt>
      <trkpt lat="46.0522" lon="4.53851">
        <ele>767</ele>
        <time>2016-11-27T10:29:16.000Z</time>
      </trkpt>
      <trkpt lat="46.0522" lon="4.53851">
        <ele>767</ele>
        <time>2016-11-27T10:29:17.000Z</time>
      </trkpt>
      <trkpt lat="46.0522" lon="4.53851">
        <ele>767</ele>
        <time>2016-11-27T10:29:18.000Z</time>
      </trkpt>
      <trkpt lat="46.05219" lon="4.53851">
        <ele>766</ele>
        <time>2016-11-27T10:29:19.000Z</time>
      </trkpt>
      <trkpt lat="46.05219" lon="4.53851">
        <ele>766</ele>
        <time>2016-11-27T10:29:20.000Z</time>
      </trkpt>
      <trkpt lat="46.05219" lon="4.53851">
        <ele>766</ele>
        <time>2016-11-27T10:29:21.000Z</time>
      </trkpt>
      <trkpt lat="46.05218" lon="4.53851">
        <ele>766</ele>
        <time>2016-11-27T10:29:22.000Z</time>
      </trkpt>
      <trkpt lat="46.05218" lon="4.53851">
        <ele>765</ele>
        <time>2016-11-27T10:29:23.000Z</time>
      </trkpt>
      <trkpt lat="46.05217" lon="4.53851">
        <ele>765</ele>
        <time>2016-11-27T10:29:24.000Z</time>
      </trkpt>
      <trkpt lat="46.05217" lon="4.53851">
        <ele>765</ele>
        <time>2016-11-27T10:29:25.000Z</time>
      </trkpt>
      <trkpt lat="46.05217" lon="4.53852">
        <ele>765</ele>
        <time>2016-11-27T10:29:26.000Z</time>
      </trkpt>
      <trkpt lat="46.05217" lon="4.53852">
        <ele>765</ele>
        <time>2016-11-27T10:29:27.000Z</time>
      </trkpt>
      <trkpt lat="46.05217" lon="4.53852">
        <ele>765</ele>
        <time>2016-11-27T10:29:28.000Z</time>
      </trkpt>
      <trkpt lat="46.05216" lon="4.53852">
        <ele>765</ele>
        <time>2016-11-27T10:29:29.000Z</time>
      </trkpt>
      <trkpt lat="46.05216" lon="4.53852">
        <ele>765</ele>
        <time>2016-11-27T10:29:30.000Z</time>
      </trkpt>
      <trkpt lat="46.05215" lon="4.53852">
        <ele>766</ele>
        <time>2016-11-27T10:29:31.000Z</time>
      </trkpt>
      <trkpt lat="46.05215" lon="4.53852">
        <ele>765</ele>
        <time>2016-11-27T10:29:32.000Z</time>
      </trkpt>
      <trkpt lat="46.05214" lon="4.53852">
        <ele>766</ele>
        <time>2016-11-27T10:29:33.000Z</time>
      </trkpt>
      <trkpt lat="46.05213" lon="4.53852">
        <ele>765</ele>
        <time>2016-11-27T10:29:34.000Z</time>
      </trkpt>
      <trkpt lat="46.05212" lon="4.53851">
        <ele>765</ele>
        <time>2016-11-27T10:29:35.000Z</time>
      </trkpt>
      <trkpt lat="46.05211" lon="4.53851">
        <ele>765</ele>
        <time>2016-11-27T10:29:36.000Z</time>
      </trkpt>
      <trkpt lat="46.0521" lon="4.53851">
        <ele>765</ele>
        <time>2016-11-27T10:29:37.000Z</time>
      </trkpt>
      <trkpt lat="46.05209" lon="4.53851">
        <ele>765</ele>
        <time>2016-11-27T10:29:38.000Z</time>
      </trkpt>
      <trkpt lat="46.05208" lon="4.53851">
        <ele>765</ele>
        <time>2016-11-27T10:29:39.000Z</time>
      </trkpt>
      <trkpt lat="46.05207" lon="4.53851">
        <ele>765</ele>
        <time>2016-11-27T10:29:40.000Z</time>
      </trkpt>
      <trkpt lat="46.05207" lon="4.53851">
        <ele>765</ele>
        <time>2016-11-27T10:29:41.000Z</time>
      </trkpt>
      <trkpt lat="46.05206" lon="4.53851">
        <ele>764</ele>
        <time>2016-11-27T10:29:42.000Z</time>
      </trkpt>
      <trkpt lat="46.05206" lon="4.53851">
        <ele>765</ele>
        <time>2016-11-27T10:29:43.000Z</time>
      </trkpt>
      <trkpt lat="46.05205" lon="4.53852">
        <ele>765</ele>
        <time>2016-11-27T10:29:44.000Z</time>
      </trkpt>
      <trkpt lat="46.05204" lon="4.53852">
        <ele>765</ele>
        <time>2016-11-27T10:29:45.000Z</time>
      </trkpt>
      <trkpt lat="46.05203" lon="4.53852">
        <ele>764</ele>
        <time>2016-11-27T10:29:46.000Z</time>
      </trkpt>
      <trkpt lat="46.05202" lon="4.53851">
        <ele>764</ele>
        <time>2016-11-27T10:29:47.000Z</time>
      </trkpt>
      <trkpt lat="46.05202" lon="4.53851">
        <ele>764</ele>
        <time>2016-11-27T10:29:48.000Z</time>
      </trkpt>
      <trkpt lat="46.05201" lon="4.53851">
        <ele>764</ele>
        <time>2016-11-27T10:29:49.000Z</time>
      </trkpt>
      <trkpt lat="46.052" lon="4.5385">
        <ele>764</ele>
        <time>2016-11-27T10:29:50.000Z</time>
      </trkpt>
      <trkpt lat="46.05199" lon="4.5385">
        <ele>763</ele>
        <time>2016-11-27T10:29:51.000Z</time>
      </trkpt>
      <trkpt lat="46.05199" lon="4.5385">
        <ele>763</ele>
        <time>2016-11-27T10:29:52.000Z</time>
      </trkpt>
      <trkpt lat="46.05199" lon="4.5385">
        <ele>763</ele>
        <time>2016-11-27T10:29:53.000Z</time>
      </trkpt>
      <trkpt lat="46.05199" lon="4.5385">
        <ele>762</ele>
        <time>2016-11-27T10:29:54.000Z</time>
      </trkpt>
      <trkpt lat="46.05198" lon="4.5385">
        <ele>762</ele>
        <time>2016-11-27T10:29:55.000Z</time>
      </trkpt>
      <trkpt lat="46.05197" lon="4.53849">
        <ele>762</ele>
        <time>2016-11-27T10:29:56.000Z</time>
      </trkpt>
      <trkpt lat="46.05196" lon="4.53849">
        <ele>762</ele>
        <time>2016-11-27T10:29:57.000Z</time>
      </trkpt>
      <trkpt lat="46.05195" lon="4.53848">
        <ele>763</ele>
        <time>2016-11-27T10:29:58.000Z</time>
      </trkpt>
      <trkpt lat="46.05195" lon="4.53848">
        <ele>762</ele>
        <time>2016-11-27T10:29:59.000Z</time>
      </trkpt>
      <trkpt lat="46.05194" lon="4.53848">
        <ele>763</ele>
        <time>2016-11-27T10:30:00.000Z</time>
      </trkpt>
      <trkpt lat="46.05193" lon="4.53849">
        <ele>762</ele>
        <time>2016-11-27T10:30:01.000Z</time>
      </trkpt>
      <trkpt lat="46.05193" lon="4.53849">
        <ele>762</ele>
        <time>2016-11-27T10:30:02.000Z</time>
      </trkpt>
      <trkpt lat="46.05192" lon="4.53848">
        <ele>761</ele>
        <time>2016-11-27T10:30:03.000Z</time>
      </trkpt>
      <trkpt lat="46.05192" lon="4.53849">
        <ele>762</ele>
        <time>2016-11-27T10:30:04.000Z</time>
      </trkpt>
      <trkpt lat="46.05191" lon="4.53849">
        <ele>762</ele>
        <time>2016-11-27T10:30:05.000Z</time>
      </trkpt>
      <trkpt lat="46.05191" lon="4.5385">
        <ele>762</ele>
        <time>2016-11-27T10:30:06.000Z</time>
      </trkpt>
      <trkpt lat="46.05191" lon="4.5385">
        <ele>762</ele>
        <time>2016-11-27T10:30:07.000Z</time>
      </trkpt>
      <trkpt lat="46.05191" lon="4.53851">
        <ele>762</ele>
        <time>2016-11-27T10:30:08.000Z</time>
      </trkpt>
      <trkpt lat="46.0519" lon="4.53852">
        <ele>762</ele>
        <time>2016-11-27T10:30:09.000Z</time>
      </trkpt>
      <trkpt lat="46.0519" lon="4.53852">
        <ele>762</ele>
        <time>2016-11-27T10:30:10.000Z</time>
      </trkpt>
      <trkpt lat="46.05189" lon="4.53852">
        <ele>761</ele>
        <time>2016-11-27T10:30:11.000Z</time>
      </trkpt>
      <trkpt lat="46.05188" lon="4.53852">
        <ele>761</ele>
        <time>2016-11-27T10:30:12.000Z</time>
      </trkpt>
      <trkpt lat="46.05188" lon="4.53852">
        <ele>760</ele>
        <time>2016-11-27T10:30:13.000Z</time>
      </trkpt>
      <trkpt lat="46.05187" lon="4.53852">
        <ele>760</ele>
        <time>2016-11-27T10:30:14.000Z</time>
      </trkpt>
      <trkpt lat="46.05186" lon="4.53852">
        <ele>760</ele>
        <time>2016-11-27T10:30:15.000Z</time>
      </trkpt>
      <trkpt lat="46.05185" lon="4.53851">
        <ele>759</ele>
        <time>2016-11-27T10:30:16.000Z</time>
      </trkpt>
      <trkpt lat="46.05185" lon="4.5385">
        <ele>759</ele>
        <time>2016-11-27T10:30:17.000Z</time>
      </trkpt>
      <trkpt lat="46.05185" lon="4.53849">
        <ele>759</ele>
        <time>2016-11-27T10:30:18.000Z</time>
      </trkpt>
      <trkpt lat="46.05184" lon="4.53848">
        <ele>758</ele>
        <time>2016-11-27T10:30:19.000Z</time>
      </trkpt>
      <trkpt lat="46.05184" lon="4.53846">
        <ele>758</ele>
        <time>2016-11-27T10:30:20.000Z</time>
      </trkpt>
      <trkpt lat="46.05183" lon="4.53845">
        <ele>758</ele>
        <time>2016-11-27T10:30:21.000Z</time>
      </trkpt>
      <trkpt lat="46.05183" lon="4.53844">
        <ele>757</ele>
        <time>2016-11-27T10:30:22.000Z</time>
      </trkpt>
      <trkpt lat="46.05182" lon="4.53843">
        <ele>757</ele>
        <time>2016-11-27T10:30:23.000Z</time>
      </trkpt>
      <trkpt lat="46.05182" lon="4.53843">
        <ele>757</ele>
        <time>2016-11-27T10:30:24.000Z</time>
      </trkpt>
      <trkpt lat="46.05181" lon="4.53842">
        <ele>758</ele>
        <time>2016-11-27T10:30:25.000Z</time>
      </trkpt>
      <trkpt lat="46.05181" lon="4.53841">
        <ele>758</ele>
        <time>2016-11-27T10:30:26.000Z</time>
      </trkpt>
      <trkpt lat="46.05181" lon="4.53841">
        <ele>757</ele>
        <time>2016-11-27T10:30:27.000Z</time>
      </trkpt>
      <trkpt lat="46.05181" lon="4.5384">
        <ele>758</ele>
        <time>2016-11-27T10:30:28.000Z</time>
      </trkpt>
      <trkpt lat="46.05181" lon="4.5384">
        <ele>758</ele>
        <time>2016-11-27T10:30:29.000Z</time>
      </trkpt>
      <trkpt lat="46.05181" lon="4.5384">
        <ele>758</ele>
        <time>2016-11-27T10:30:30.000Z</time>
      </trkpt>
      <trkpt lat="46.0518" lon="4.53839">
        <ele>758</ele>
        <time>2016-11-27T10:30:31.000Z</time>
      </trkpt>
      <trkpt lat="46.0518" lon="4.53839">
        <ele>758</ele>
        <time>2016-11-27T10:30:32.000Z</time>
      </trkpt>
      <trkpt lat="46.0518" lon="4.53838">
        <ele>758</ele>
        <time>2016-11-27T10:30:33.000Z</time>
      </trkpt>
      <trkpt lat="46.0518" lon="4.53837">
        <ele>758</ele>
        <time>2016-11-27T10:30:34.000Z</time>
      </trkpt>
      <trkpt lat="46.0518" lon="4.53837">
        <ele>758</ele>
        <time>2016-11-27T10:30:35.000Z</time>
      </trkpt>
      <trkpt lat="46.0518" lon="4.53836">
        <ele>758</ele>
        <time>2016-11-27T10:30:36.000Z</time>
      </trkpt>
      <trkpt lat="46.05179" lon="4.53835">
        <ele>758</ele>
        <time>2016-11-27T10:30:37.000Z</time>
      </trkpt>
      <trkpt lat="46.05179" lon="4.53834">
        <ele>758</ele>
        <time>2016-11-27T10:30:38.000Z</time>
      </trkpt>
      <trkpt lat="46.05178" lon="4.53834">
        <ele>758</ele>
        <time>2016-11-27T10:30:39.000Z</time>
      </trkpt>
      <trkpt lat="46.05178" lon="4.53833">
        <ele>759</ele>
        <time>2016-11-27T10:30:40.000Z</time>
      </trkpt>
      <trkpt lat="46.05178" lon="4.53831">
        <ele>759</ele>
        <time>2016-11-27T10:30:41.000Z</time>
      </trkpt>
      <trkpt lat="46.05178" lon="4.53829">
        <ele>760</ele>
        <time>2016-11-27T10:30:42.000Z</time>
      </trkpt>
      <trkpt lat="46.05179" lon="4.53827">
        <ele>761</ele>
        <time>2016-11-27T10:30:43.000Z</time>
      </trkpt>
      <trkpt lat="46.05178" lon="4.53826">
        <ele>762</ele>
        <time>2016-11-27T10:30:44.000Z</time>
      </trkpt>
      <trkpt lat="46.05178" lon="4.53826">
        <ele>762</ele>
        <time>2016-11-27T10:30:45.000Z</time>
      </trkpt>
      <trkpt lat="46.05178" lon="4.53825">
        <ele>762</ele>
        <time>2016-11-27T10:30:46.000Z</time>
      </trkpt>
      <trkpt lat="46.05177" lon="4.53825">
        <ele>763</ele>
        <time>2016-11-27T10:30:47.000Z</time>
      </trkpt>
      <trkpt lat="46.05177" lon="4.53824">
        <ele>763</ele>
        <time>2016-11-27T10:30:48.000Z</time>
      </trkpt>
      <trkpt lat="46.05177" lon="4.53823">
        <ele>763</ele>
        <time>2016-11-27T10:30:49.000Z</time>
      </trkpt>
      <trkpt lat="46.05176" lon="4.53822">
        <ele>763</ele>
        <time>2016-11-27T10:30:50.000Z</time>
      </trkpt>
      <trkpt lat="46.05175" lon="4.53821">
        <ele>762</ele>
        <time>2016-11-27T10:30:51.000Z</time>
      </trkpt>
      <trkpt lat="46.05174" lon="4.5382">
        <ele>762</ele>
        <time>2016-11-27T10:30:52.000Z</time>
      </trkpt>
      <trkpt lat="46.05172" lon="4.53819">
        <ele>762</ele>
        <time>2016-11-27T10:30:53.000Z</time>
      </trkpt>
      <trkpt lat="46.05171" lon="4.53818">
        <ele>762</ele>
        <time>2016-11-27T10:30:54.000Z</time>
      </trkpt>
      <trkpt lat="46.0517" lon="4.53817">
        <ele>763</ele>
        <time>2016-11-27T10:30:55.000Z</time>
      </trkpt>
      <trkpt lat="46.05169" lon="4.53816">
        <ele>763</ele>
        <time>2016-11-27T10:30:56.000Z</time>
      </trkpt>
      <trkpt lat="46.05168" lon="4.53814">
        <ele>765</ele>
        <time>2016-11-27T10:30:57.000Z</time>
      </trkpt>
      <trkpt lat="46.05167" lon="4.53812">
        <ele>764</ele>
        <time>2016-11-27T10:30:58.000Z</time>
      </trkpt>
      <trkpt lat="46.05166" lon="4.5381">
        <ele>765</ele>
        <time>2016-11-27T10:30:59.000Z</time>
      </trkpt>
      <trkpt lat="46.05166" lon="4.53809">
        <ele>765</ele>
        <time>2016-11-27T10:31:00.000Z</time>
      </trkpt>
      <trkpt lat="46.05165" lon="4.53808">
        <ele>765</ele>
        <time>2016-11-27T10:31:01.000Z</time>
      </trkpt>
      <trkpt lat="46.05164" lon="4.53807">
        <ele>764</ele>
        <time>2016-11-27T10:31:02.000Z</time>
      </trkpt>
      <trkpt lat="46.05163" lon="4.53806">
        <ele>765</ele>
        <time>2016-11-27T10:31:03.000Z</time>
      </trkpt>
      <trkpt lat="46.05163" lon="4.53806">
        <ele>766</ele>
        <time>2016-11-27T10:31:04.000Z</time>
      </trkpt>
      <trkpt lat="46.05162" lon="4.53805">
        <ele>766</ele>
        <time>2016-11-27T10:31:05.000Z</time>
      </trkpt>
      <trkpt lat="46.05161" lon="4.53805">
        <ele>766</ele>
        <time>2016-11-27T10:31:06.000Z</time>
      </trkpt>
      <trkpt lat="46.0516" lon="4.53804">
        <ele>766</ele>
        <time>2016-11-27T10:31:07.000Z</time>
      </trkpt>
      <trkpt lat="46.0516" lon="4.53802">
        <ele>765</ele>
        <time>2016-11-27T10:31:08.000Z</time>
      </trkpt>
      <trkpt lat="46.0516" lon="4.53801">
        <ele>765</ele>
        <time>2016-11-27T10:31:09.000Z</time>
      </trkpt>
      <trkpt lat="46.0516" lon="4.538">
        <ele>765</ele>
        <time>2016-11-27T10:31:10.000Z</time>
      </trkpt>
      <trkpt lat="46.05159" lon="4.53799">
        <ele>765</ele>
        <time>2016-11-27T10:31:11.000Z</time>
      </trkpt>
      <trkpt lat="46.05158" lon="4.53799">
        <ele>765</ele>
        <time>2016-11-27T10:31:12.000Z</time>
      </trkpt>
      <trkpt lat="46.05158" lon="4.53798">
        <ele>765</ele>
        <time>2016-11-27T10:31:13.000Z</time>
      </trkpt>
      <trkpt lat="46.05157" lon="4.53797">
        <ele>766</ele>
        <time>2016-11-27T10:31:14.000Z</time>
      </trkpt>
      <trkpt lat="46.05156" lon="4.53797">
        <ele>766</ele>
        <time>2016-11-27T10:31:15.000Z</time>
      </trkpt>
      <trkpt lat="46.05156" lon="4.53796">
        <ele>765</ele>
        <time>2016-11-27T10:31:16.000Z</time>
      </trkpt>
      <trkpt lat="46.05155" lon="4.53795">
        <ele>765</ele>
        <time>2016-11-27T10:31:17.000Z</time>
      </trkpt>
      <trkpt lat="46.05154" lon="4.53794">
        <ele>765</ele>
        <time>2016-11-27T10:31:18.000Z</time>
      </trkpt>
      <trkpt lat="46.05153" lon="4.53793">
        <ele>765</ele>
        <time>2016-11-27T10:31:19.000Z</time>
      </trkpt>
      <trkpt lat="46.05152" lon="4.53792">
        <ele>765</ele>
        <time>2016-11-27T10:31:20.000Z</time>
      </trkpt>
      <trkpt lat="46.05151" lon="4.53792">
        <ele>765</ele>
        <time>2016-11-27T10:31:21.000Z</time>
      </trkpt>
      <trkpt lat="46.0515" lon="4.53791">
        <ele>765</ele>
        <time>2016-11-27T10:31:22.000Z</time>
      </trkpt>
      <trkpt lat="46.05149" lon="4.5379">
        <ele>766</ele>
        <time>2016-11-27T10:31:23.000Z</time>
      </trkpt>
      <trkpt lat="46.05148" lon="4.53788">
        <ele>765</ele>
        <time>2016-11-27T10:31:24.000Z</time>
      </trkpt>
      <trkpt lat="46.05147" lon="4.53787">
        <ele>765</ele>
        <time>2016-11-27T10:31:25.000Z</time>
      </trkpt>
      <trkpt lat="46.05146" lon="4.53786">
        <ele>765</ele>
        <time>2016-11-27T10:31:26.000Z</time>
      </trkpt>
      <trkpt lat="46.05144" lon="4.53785">
        <ele>765</ele>
        <time>2016-11-27T10:31:27.000Z</time>
      </trkpt>
      <trkpt lat="46.05143" lon="4.53784">
        <ele>763</ele>
        <time>2016-11-27T10:31:28.000Z</time>
      </trkpt>
      <trkpt lat="46.05142" lon="4.53783">
        <ele>762</ele>
        <time>2016-11-27T10:31:29.000Z</time>
      </trkpt>
      <trkpt lat="46.0514" lon="4.53781">
        <ele>761</ele>
        <time>2016-11-27T10:31:30.000Z</time>
      </trkpt>
      <trkpt lat="46.05139" lon="4.5378">
        <ele>760</ele>
        <time>2016-11-27T10:31:31.000Z</time>
      </trkpt>
      <trkpt lat="46.05138" lon="4.5378">
        <ele>760</ele>
        <time>2016-11-27T10:31:32.000Z</time>
      </trkpt>
      <trkpt lat="46.05136" lon="4.5378">
        <ele>760</ele>
        <time>2016-11-27T10:31:33.000Z</time>
      </trkpt>
      <trkpt lat="46.05135" lon="4.5378">
        <ele>759</ele>
        <time>2016-11-27T10:31:34.000Z</time>
      </trkpt>
      <trkpt lat="46.05134" lon="4.53779">
        <ele>759</ele>
        <time>2016-11-27T10:31:35.000Z</time>
      </trkpt>
      <trkpt lat="46.05133" lon="4.53778">
        <ele>757</ele>
        <time>2016-11-27T10:31:36.000Z</time>
      </trkpt>
      <trkpt lat="46.05132" lon="4.53776">
        <ele>757</ele>
        <time>2016-11-27T10:31:37.000Z</time>
      </trkpt>
      <trkpt lat="46.05131" lon="4.53775">
        <ele>758</ele>
        <time>2016-11-27T10:31:38.000Z</time>
      </trkpt>
      <trkpt lat="46.0513" lon="4.53775">
        <ele>758</ele>
        <time>2016-11-27T10:31:39.000Z</time>
      </trkpt>
      <trkpt lat="46.05129" lon="4.53775">
        <ele>759</ele>
        <time>2016-11-27T10:31:40.000Z</time>
      </trkpt>
      <trkpt lat="46.05128" lon="4.53774">
        <ele>759</ele>
        <time>2016-11-27T10:31:41.000Z</time>
      </trkpt>
      <trkpt lat="46.05127" lon="4.53774">
        <ele>759</ele>
        <time>2016-11-27T10:31:42.000Z</time>
      </trkpt>
      <trkpt lat="46.05126" lon="4.53774">
        <ele>759</ele>
        <time>2016-11-27T10:31:43.000Z</time>
      </trkpt>
      <trkpt lat="46.05125" lon="4.53773">
        <ele>757</ele>
        <time>2016-11-27T10:31:44.000Z</time>
      </trkpt>
      <trkpt lat="46.05124" lon="4.53772">
        <ele>757</ele>
        <time>2016-11-27T10:31:45.000Z</time>
      </trkpt>
      <trkpt lat="46.05123" lon="4.53771">
        <ele>757</ele>
        <time>2016-11-27T10:31:46.000Z</time>
      </trkpt>
      <trkpt lat="46.05122" lon="4.5377">
        <ele>757</ele>
        <time>2016-11-27T10:31:47.000Z</time>
      </trkpt>
      <trkpt lat="46.05121" lon="4.5377">
        <ele>758</ele>
        <time>2016-11-27T10:31:48.000Z</time>
      </trkpt>
      <trkpt lat="46.0512" lon="4.53769">
        <ele>758</ele>
        <time>2016-11-27T10:31:49.000Z</time>
      </trkpt>
      <trkpt lat="46.05119" lon="4.53768">
        <ele>757</ele>
        <time>2016-11-27T10:31:50.000Z</time>
      </trkpt>
      <trkpt lat="46.05119" lon="4.53767">
        <ele>757</ele>
        <time>2016-11-27T10:31:51.000Z</time>
      </trkpt>
      <trkpt lat="46.05117" lon="4.53766">
        <ele>758</ele>
        <time>2016-11-27T10:31:52.000Z</time>
      </trkpt>
      <trkpt lat="46.05116" lon="4.53765">
        <ele>759</ele>
        <time>2016-11-27T10:31:53.000Z</time>
      </trkpt>
      <trkpt lat="46.05115" lon="4.53764">
        <ele>759</ele>
        <time>2016-11-27T10:31:54.000Z</time>
      </trkpt>
      <trkpt lat="46.05114" lon="4.53763">
        <ele>760</ele>
        <time>2016-11-27T10:31:55.000Z</time>
      </trkpt>
      <trkpt lat="46.05113" lon="4.53763">
        <ele>761</ele>
        <time>2016-11-27T10:31:56.000Z</time>
      </trkpt>
      <trkpt lat="46.05112" lon="4.53762">
        <ele>761</ele>
        <time>2016-11-27T10:31:57.000Z</time>
      </trkpt>
      <trkpt lat="46.05112" lon="4.53762">
        <ele>761</ele>
        <time>2016-11-27T10:31:58.000Z</time>
      </trkpt>
      <trkpt lat="46.05111" lon="4.53762">
        <ele>761</ele>
        <time>2016-11-27T10:31:59.000Z</time>
      </trkpt>
      <trkpt lat="46.05111" lon="4.53761">
        <ele>760</ele>
        <time>2016-11-27T10:32:00.000Z</time>
      </trkpt>
      <trkpt lat="46.0511" lon="4.53761">
        <ele>761</ele>
        <time>2016-11-27T10:32:01.000Z</time>
      </trkpt>
      <trkpt lat="46.05109" lon="4.53761">
        <ele>762</ele>
        <time>2016-11-27T10:32:02.000Z</time>
      </trkpt>
      <trkpt lat="46.05108" lon="4.5376">
        <ele>763</ele>
        <time>2016-11-27T10:32:03.000Z</time>
      </trkpt>
      <trkpt lat="46.05107" lon="4.5376">
        <ele>764</ele>
        <time>2016-11-27T10:32:04.000Z</time>
      </trkpt>
      <trkpt lat="46.05106" lon="4.53759">
        <ele>765</ele>
        <time>2016-11-27T10:32:05.000Z</time>
      </trkpt>
      <trkpt lat="46.05105" lon="4.53758">
        <ele>766</ele>
        <time>2016-11-27T10:32:06.000Z</time>
      </trkpt>
      <trkpt lat="46.05105" lon="4.53757">
        <ele>766</ele>
        <time>2016-11-27T10:32:07.000Z</time>
      </trkpt>
      <trkpt lat="46.05104" lon="4.53756">
        <ele>766</ele>
        <time>2016-11-27T10:32:08.000Z</time>
      </trkpt>
      <trkpt lat="46.05104" lon="4.53755">
        <ele>766</ele>
        <time>2016-11-27T10:32:09.000Z</time>
      </trkpt>
      <trkpt lat="46.05103" lon="4.53755">
        <ele>767</ele>
        <time>2016-11-27T10:32:10.000Z</time>
      </trkpt>
      <trkpt lat="46.05103" lon="4.53754">
        <ele>767</ele>
        <time>2016-11-27T10:32:11.000Z</time>
      </trkpt>
      <trkpt lat="46.05102" lon="4.53753">
        <ele>767</ele>
        <time>2016-11-27T10:32:12.000Z</time>
      </trkpt>
      <trkpt lat="46.05101" lon="4.53753">
        <ele>768</ele>
        <time>2016-11-27T10:32:13.000Z</time>
      </trkpt>
      <trkpt lat="46.05101" lon="4.53753">
        <ele>768</ele>
        <time>2016-11-27T10:32:14.000Z</time>
      </trkpt>
      <trkpt lat="46.051" lon="4.53753">
        <ele>768</ele>
        <time>2016-11-27T10:32:15.000Z</time>
      </trkpt>
      <trkpt lat="46.05098" lon="4.53753">
        <ele>766</ele>
        <time>2016-11-27T10:32:16.000Z</time>
      </trkpt>
      <trkpt lat="46.05097" lon="4.53752">
        <ele>767</ele>
        <time>2016-11-27T10:32:17.000Z</time>
      </trkpt>
      <trkpt lat="46.05096" lon="4.53752">
        <ele>767</ele>
        <time>2016-11-27T10:32:18.000Z</time>
      </trkpt>
      <trkpt lat="46.05095" lon="4.53751">
        <ele>767</ele>
        <time>2016-11-27T10:32:19.000Z</time>
      </trkpt>
      <trkpt lat="46.05094" lon="4.5375">
        <ele>768</ele>
        <time>2016-11-27T10:32:20.000Z</time>
      </trkpt>
      <trkpt lat="46.05093" lon="4.53749">
        <ele>768</ele>
        <time>2016-11-27T10:32:21.000Z</time>
      </trkpt>
      <trkpt lat="46.05093" lon="4.53747">
        <ele>766</ele>
        <time>2016-11-27T10:32:22.000Z</time>
      </trkpt>
      <trkpt lat="46.05092" lon="4.53744">
        <ele>767</ele>
        <time>2016-11-27T10:32:23.000Z</time>
      </trkpt>
      <trkpt lat="46.05092" lon="4.53743">
        <ele>767</ele>
        <time>2016-11-27T10:32:24.000Z</time>
      </trkpt>
      <trkpt lat="46.05091" lon="4.53742">
        <ele>768</ele>
        <time>2016-11-27T10:32:25.000Z</time>
      </trkpt>
      <trkpt lat="46.05091" lon="4.53742">
        <ele>768</ele>
        <time>2016-11-27T10:32:26.000Z</time>
      </trkpt>
      <trkpt lat="46.0509" lon="4.53741">
        <ele>769</ele>
        <time>2016-11-27T10:32:27.000Z</time>
      </trkpt>
      <trkpt lat="46.0509" lon="4.53741">
        <ele>769</ele>
        <time>2016-11-27T10:32:28.000Z</time>
      </trkpt>
      <trkpt lat="46.05089" lon="4.5374">
        <ele>769</ele>
        <time>2016-11-27T10:32:29.000Z</time>
      </trkpt>
      <trkpt lat="46.05089" lon="4.5374">
        <ele>770</ele>
        <time>2016-11-27T10:32:30.000Z</time>
      </trkpt>
      <trkpt lat="46.05088" lon="4.53739">
        <ele>771</ele>
        <time>2016-11-27T10:32:31.000Z</time>
      </trkpt>
      <trkpt lat="46.05088" lon="4.53738">
        <ele>771</ele>
        <time>2016-11-27T10:32:32.000Z</time>
      </trkpt>
      <trkpt lat="46.05087" lon="4.53738">
        <ele>771</ele>
        <time>2016-11-27T10:32:33.000Z</time>
      </trkpt>
      <trkpt lat="46.05086" lon="4.53739">
        <ele>771</ele>
        <time>2016-11-27T10:32:34.000Z</time>
      </trkpt>
      <trkpt lat="46.05085" lon="4.53739">
        <ele>771</ele>
        <time>2016-11-27T10:32:35.000Z</time>
      </trkpt>
      <trkpt lat="46.05084" lon="4.53739">
        <ele>772</ele>
        <time>2016-11-27T10:32:36.000Z</time>
      </trkpt>
      <trkpt lat="46.05083" lon="4.53739">
        <ele>772</ele>
        <time>2016-11-27T10:32:37.000Z</time>
      </trkpt>
      <trkpt lat="46.05082" lon="4.53738">
        <ele>772</ele>
        <time>2016-11-27T10:32:38.000Z</time>
      </trkpt>
      <trkpt lat="46.05081" lon="4.53738">
        <ele>772</ele>
        <time>2016-11-27T10:32:39.000Z</time>
      </trkpt>
      <trkpt lat="46.05081" lon="4.53737">
        <ele>772</ele>
        <time>2016-11-27T10:32:40.000Z</time>
      </trkpt>
      <trkpt lat="46.05081" lon="4.53737">
        <ele>772</ele>
        <time>2016-11-27T10:32:41.000Z</time>
      </trkpt>
      <trkpt lat="46.0508" lon="4.53737">
        <ele>772</ele>
        <time>2016-11-27T10:32:42.000Z</time>
      </trkpt>
      <trkpt lat="46.0508" lon="4.53737">
        <ele>773</ele>
        <time>2016-11-27T10:32:43.000Z</time>
      </trkpt>
      <trkpt lat="46.05079" lon="4.53737">
        <ele>773</ele>
        <time>2016-11-27T10:32:44.000Z</time>
      </trkpt>
      <trkpt lat="46.05078" lon="4.53736">
        <ele>772</ele>
        <time>2016-11-27T10:32:45.000Z</time>
      </trkpt>
      <trkpt lat="46.05078" lon="4.53735">
        <ele>772</ele>
        <time>2016-11-27T10:32:46.000Z</time>
      </trkpt>
      <trkpt lat="46.05078" lon="4.53733">
        <ele>772</ele>
        <time>2016-11-27T10:32:47.000Z</time>
      </trkpt>
      <trkpt lat="46.05079" lon="4.53731">
        <ele>772</ele>
        <time>2016-11-27T10:32:48.000Z</time>
      </trkpt>
      <trkpt lat="46.05079" lon="4.5373">
        <ele>773</ele>
        <time>2016-11-27T10:32:49.000Z</time>
      </trkpt>
      <trkpt lat="46.05079" lon="4.53728">
        <ele>772</ele>
        <time>2016-11-27T10:32:50.000Z</time>
      </trkpt>
      <trkpt lat="46.05079" lon="4.53727">
        <ele>772</ele>
        <time>2016-11-27T10:32:51.000Z</time>
      </trkpt>
      <trkpt lat="46.05078" lon="4.53726">
        <ele>772</ele>
        <time>2016-11-27T10:32:52.000Z</time>
      </trkpt>
      <trkpt lat="46.05078" lon="4.53725">
        <ele>772</ele>
        <time>2016-11-27T10:32:53.000Z</time>
      </trkpt>
      <trkpt lat="46.05077" lon="4.53723">
        <ele>773</ele>
        <time>2016-11-27T10:32:54.000Z</time>
      </trkpt>
      <trkpt lat="46.05076" lon="4.53722">
        <ele>774</ele>
        <time>2016-11-27T10:32:55.000Z</time>
      </trkpt>
      <trkpt lat="46.05075" lon="4.53721">
        <ele>774</ele>
        <time>2016-11-27T10:32:56.000Z</time>
      </trkpt>
      <trkpt lat="46.05074" lon="4.53721">
        <ele>774</ele>
        <time>2016-11-27T10:32:57.000Z</time>
      </trkpt>
      <trkpt lat="46.05074" lon="4.5372">
        <ele>775</ele>
        <time>2016-11-27T10:32:58.000Z</time>
      </trkpt>
      <trkpt lat="46.05073" lon="4.53719">
        <ele>774</ele>
        <time>2016-11-27T10:32:59.000Z</time>
      </trkpt>
      <trkpt lat="46.05072" lon="4.53718">
        <ele>775</ele>
        <time>2016-11-27T10:33:00.000Z</time>
      </trkpt>
      <trkpt lat="46.05071" lon="4.53718">
        <ele>775</ele>
        <time>2016-11-27T10:33:01.000Z</time>
      </trkpt>
      <trkpt lat="46.05071" lon="4.53717">
        <ele>775</ele>
        <time>2016-11-27T10:33:02.000Z</time>
      </trkpt>
      <trkpt lat="46.0507" lon="4.53716">
        <ele>775</ele>
        <time>2016-11-27T10:33:03.000Z</time>
      </trkpt>
      <trkpt lat="46.0507" lon="4.53716">
        <ele>775</ele>
        <time>2016-11-27T10:33:04.000Z</time>
      </trkpt>
      <trkpt lat="46.05069" lon="4.53716">
        <ele>775</ele>
        <time>2016-11-27T10:33:05.000Z</time>
      </trkpt>
      <trkpt lat="46.05069" lon="4.53715">
        <ele>775</ele>
        <time>2016-11-27T10:33:06.000Z</time>
      </trkpt>
      <trkpt lat="46.05068" lon="4.53714">
        <ele>775</ele>
        <time>2016-11-27T10:33:07.000Z</time>
      </trkpt>
      <trkpt lat="46.05068" lon="4.53714">
        <ele>775</ele>
        <time>2016-11-27T10:33:08.000Z</time>
      </trkpt>
      <trkpt lat="46.05067" lon="4.53714">
        <ele>774</ele>
        <time>2016-11-27T10:33:09.000Z</time>
      </trkpt>
      <trkpt lat="46.05067" lon="4.53714">
        <ele>774</ele>
        <time>2016-11-27T10:33:10.000Z</time>
      </trkpt>
      <trkpt lat="46.05067" lon="4.53714">
        <ele>775</ele>
        <time>2016-11-27T10:33:11.000Z</time>
      </trkpt>
      <trkpt lat="46.05066" lon="4.53714">
        <ele>775</ele>
        <time>2016-11-27T10:33:12.000Z</time>
      </trkpt>
      <trkpt lat="46.05066" lon="4.53715">
        <ele>775</ele>
        <time>2016-11-27T10:33:13.000Z</time>
      </trkpt>
      <trkpt lat="46.05065" lon="4.53715">
        <ele>776</ele>
        <time>2016-11-27T10:33:14.000Z</time>
      </trkpt>
      <trkpt lat="46.05065" lon="4.53715">
        <ele>776</ele>
        <time>2016-11-27T10:33:15.000Z</time>
      </trkpt>
      <trkpt lat="46.05064" lon="4.53715">
        <ele>776</ele>
        <time>2016-11-27T10:33:16.000Z</time>
      </trkpt>
      <trkpt lat="46.05064" lon="4.53714">
        <ele>777</ele>
        <time>2016-11-27T10:33:17.000Z</time>
      </trkpt>
      <trkpt lat="46.05063" lon="4.53715">
        <ele>777</ele>
        <time>2016-11-27T10:33:18.000Z</time>
      </trkpt>
      <trkpt lat="46.05063" lon="4.53715">
        <ele>777</ele>
        <time>2016-11-27T10:33:19.000Z</time>
      </trkpt>
      <trkpt lat="46.05061" lon="4.53716">
        <ele>777</ele>
        <time>2016-11-27T10:33:20.000Z</time>
      </trkpt>
      <trkpt lat="46.0506" lon="4.53717">
        <ele>778</ele>
        <time>2016-11-27T10:33:21.000Z</time>
      </trkpt>
      <trkpt lat="46.05059" lon="4.53718">
        <ele>779</ele>
        <time>2016-11-27T10:33:22.000Z</time>
      </trkpt>
      <trkpt lat="46.05058" lon="4.53718">
        <ele>779</ele>
        <time>2016-11-27T10:33:23.000Z</time>
      </trkpt>
      <trkpt lat="46.05058" lon="4.53718">
        <ele>779</ele>
        <time>2016-11-27T10:33:24.000Z</time>
      </trkpt>
      <trkpt lat="46.05057" lon="4.53717">
        <ele>778</ele>
        <time>2016-11-27T10:33:25.000Z</time>
      </trkpt>
      <trkpt lat="46.05057" lon="4.53716">
        <ele>778</ele>
        <time>2016-11-27T10:33:26.000Z</time>
      </trkpt>
      <trkpt lat="46.05057" lon="4.53714">
        <ele>778</ele>
        <time>2016-11-27T10:33:27.000Z</time>
      </trkpt>
      <trkpt lat="46.05056" lon="4.53714">
        <ele>779</ele>
        <time>2016-11-27T10:33:28.000Z</time>
      </trkpt>
      <trkpt lat="46.05055" lon="4.53714">
        <ele>780</ele>
        <time>2016-11-27T10:33:29.000Z</time>
      </trkpt>
      <trkpt lat="46.05054" lon="4.53715">
        <ele>780</ele>
        <time>2016-11-27T10:33:30.000Z</time>
      </trkpt>
      <trkpt lat="46.05053" lon="4.53716">
        <ele>781</ele>
        <time>2016-11-27T10:33:31.000Z</time>
      </trkpt>
      <trkpt lat="46.05052" lon="4.53717">
        <ele>782</ele>
        <time>2016-11-27T10:33:32.000Z</time>
      </trkpt>
      <trkpt lat="46.05052" lon="4.53717">
        <ele>783</ele>
        <time>2016-11-27T10:33:33.000Z</time>
      </trkpt>
      <trkpt lat="46.05051" lon="4.53717">
        <ele>784</ele>
        <time>2016-11-27T10:33:34.000Z</time>
      </trkpt>
      <trkpt lat="46.05051" lon="4.53716">
        <ele>785</ele>
        <time>2016-11-27T10:33:35.000Z</time>
      </trkpt>
      <trkpt lat="46.05051" lon="4.53716">
        <ele>785</ele>
        <time>2016-11-27T10:33:36.000Z</time>
      </trkpt>
      <trkpt lat="46.0505" lon="4.53715">
        <ele>785</ele>
        <time>2016-11-27T10:33:37.000Z</time>
      </trkpt>
      <trkpt lat="46.05049" lon="4.53715">
        <ele>785</ele>
        <time>2016-11-27T10:33:38.000Z</time>
      </trkpt>
      <trkpt lat="46.05049" lon="4.53715">
        <ele>786</ele>
        <time>2016-11-27T10:33:39.000Z</time>
      </trkpt>
      <trkpt lat="46.05048" lon="4.53715">
        <ele>786</ele>
        <time>2016-11-27T10:33:40.000Z</time>
      </trkpt>
      <trkpt lat="46.05048" lon="4.53715">
        <ele>786</ele>
        <time>2016-11-27T10:33:41.000Z</time>
      </trkpt>
      <trkpt lat="46.05047" lon="4.53716">
        <ele>787</ele>
        <time>2016-11-27T10:33:42.000Z</time>
      </trkpt>
      <trkpt lat="46.05046" lon="4.53716">
        <ele>787</ele>
        <time>2016-11-27T10:33:43.000Z</time>
      </trkpt>
      <trkpt lat="46.05045" lon="4.53716">
        <ele>788</ele>
        <time>2016-11-27T10:33:44.000Z</time>
      </trkpt>
      <trkpt lat="46.05044" lon="4.53717">
        <ele>788</ele>
        <time>2016-11-27T10:33:45.000Z</time>
      </trkpt>
      <trkpt lat="46.05043" lon="4.53716">
        <ele>789</ele>
        <time>2016-11-27T10:33:46.000Z</time>
      </trkpt>
      <trkpt lat="46.05042" lon="4.53716">
        <ele>789</ele>
        <time>2016-11-27T10:33:47.000Z</time>
      </trkpt>
      <trkpt lat="46.05042" lon="4.53716">
        <ele>790</ele>
        <time>2016-11-27T10:33:48.000Z</time>
      </trkpt>
      <trkpt lat="46.05041" lon="4.53717">
        <ele>789</ele>
        <time>2016-11-27T10:33:49.000Z</time>
      </trkpt>
      <trkpt lat="46.05041" lon="4.53717">
        <ele>790</ele>
        <time>2016-11-27T10:33:50.000Z</time>
      </trkpt>
      <trkpt lat="46.0504" lon="4.53717">
        <ele>790</ele>
        <time>2016-11-27T10:33:51.000Z</time>
      </trkpt>
      <trkpt lat="46.0504" lon="4.53716">
        <ele>790</ele>
        <time>2016-11-27T10:33:52.000Z</time>
      </trkpt>
      <trkpt lat="46.0504" lon="4.53715">
        <ele>791</ele>
        <time>2016-11-27T10:33:53.000Z</time>
      </trkpt>
      <trkpt lat="46.05039" lon="4.53713">
        <ele>790</ele>
        <time>2016-11-27T10:33:54.000Z</time>
      </trkpt>
      <trkpt lat="46.05039" lon="4.53712">
        <ele>791</ele>
        <time>2016-11-27T10:33:55.000Z</time>
      </trkpt>
      <trkpt lat="46.05039" lon="4.5371">
        <ele>791</ele>
        <time>2016-11-27T10:33:56.000Z</time>
      </trkpt>
      <trkpt lat="46.05039" lon="4.53709">
        <ele>791</ele>
        <time>2016-11-27T10:33:57.000Z</time>
      </trkpt>
      <trkpt lat="46.05039" lon="4.53708">
        <ele>792</ele>
        <time>2016-11-27T10:33:58.000Z</time>
      </trkpt>
      <trkpt lat="46.05038" lon="4.53708">
        <ele>792</ele>
        <time>2016-11-27T10:33:59.000Z</time>
      </trkpt>
      <trkpt lat="46.05038" lon="4.53707">
        <ele>792</ele>
        <time>2016-11-27T10:34:00.000Z</time>
      </trkpt>
      <trkpt lat="46.05037" lon="4.53706">
        <ele>792</ele>
        <time>2016-11-27T10:34:01.000Z</time>
      </trkpt>
      <trkpt lat="46.05037" lon="4.53705">
        <ele>792</ele>
        <time>2016-11-27T10:34:02.000Z</time>
      </trkpt>
      <trkpt lat="46.05037" lon="4.53704">
        <ele>792</ele>
        <time>2016-11-27T10:34:03.000Z</time>
      </trkpt>
      <trkpt lat="46.05037" lon="4.53703">
        <ele>793</ele>
        <time>2016-11-27T10:34:04.000Z</time>
      </trkpt>
      <trkpt lat="46.05037" lon="4.53703">
        <ele>793</ele>
        <time>2016-11-27T10:34:05.000Z</time>
      </trkpt>
      <trkpt lat="46.05037" lon="4.53702">
        <ele>793</ele>
        <time>2016-11-27T10:34:06.000Z</time>
      </trkpt>
      <trkpt lat="46.05037" lon="4.53702">
        <ele>794</ele>
        <time>2016-11-27T10:34:07.000Z</time>
      </trkpt>
      <trkpt lat="46.05036" lon="4.53702">
        <ele>794</ele>
        <time>2016-11-27T10:34:08.000Z</time>
      </trkpt>
      <trkpt lat="46.05036" lon="4.53702">
        <ele>793</ele>
        <time>2016-11-27T10:34:09.000Z</time>
      </trkpt>
      <trkpt lat="46.05036" lon="4.53702">
        <ele>794</ele>
        <time>2016-11-27T10:34:10.000Z</time>
      </trkpt>
      <trkpt lat="46.05036" lon="4.53702">
        <ele>794</ele>
        <time>2016-11-27T10:34:11.000Z</time>
      </trkpt>
      <trkpt lat="46.05036" lon="4.53703">
        <ele>795</ele>
        <time>2016-11-27T10:34:12.000Z</time>
      </trkpt>
      <trkpt lat="46.05036" lon="4.53703">
        <ele>794</ele>
        <time>2016-11-27T10:34:13.000Z</time>
      </trkpt>
      <trkpt lat="46.05036" lon="4.53704">
        <ele>795</ele>
        <time>2016-11-27T10:34:14.000Z</time>
      </trkpt>
      <trkpt lat="46.05036" lon="4.53704">
        <ele>795</ele>
        <time>2016-11-27T10:34:15.000Z</time>
      </trkpt>
      <trkpt lat="46.05036" lon="4.53704">
        <ele>793</ele>
        <time>2016-11-27T10:34:16.000Z</time>
      </trkpt>
      <trkpt lat="46.05036" lon="4.53703">
        <ele>792</ele>
        <time>2016-11-27T10:34:17.000Z</time>
      </trkpt>
      <trkpt lat="46.05036" lon="4.53703">
        <ele>791</ele>
        <time>2016-11-27T10:34:18.000Z</time>
      </trkpt>
      <trkpt lat="46.05036" lon="4.53703">
        <ele>791</ele>
        <time>2016-11-27T10:34:19.000Z</time>
      </trkpt>
      <trkpt lat="46.05036" lon="4.53703">
        <ele>790</ele>
        <time>2016-11-27T10:34:20.000Z</time>
      </trkpt>
      <trkpt lat="46.05036" lon="4.53703">
        <ele>790</ele>
        <time>2016-11-27T10:34:21.000Z</time>
      </trkpt>
      <trkpt lat="46.05037" lon="4.53703">
        <ele>790</ele>
        <time>2016-11-27T10:34:22.000Z</time>
      </trkpt>
      <trkpt lat="46.05037" lon="4.53704">
        <ele>789</ele>
        <time>2016-11-27T10:34:23.000Z</time>
      </trkpt>
      <trkpt lat="46.05037" lon="4.53704">
        <ele>789</ele>
        <time>2016-11-27T10:34:24.000Z</time>
      </trkpt>
      <trkpt lat="46.05037" lon="4.53704">
        <ele>788</ele>
        <time>2016-11-27T10:34:25.000Z</time>
      </trkpt>
      <trkpt lat="46.05037" lon="4.53704">
        <ele>787</ele>
        <time>2016-11-27T10:34:26.000Z</time>
      </trkpt>
      <trkpt lat="46.05036" lon="4.53704">
        <ele>786</ele>
        <time>2016-11-27T10:34:27.000Z</time>
      </trkpt>
      <trkpt lat="46.05036" lon="4.53704">
        <ele>784</ele>
        <time>2016-11-27T10:34:28.000Z</time>
      </trkpt>
      <trkpt lat="46.05036" lon="4.53704">
        <ele>783</ele>
        <time>2016-11-27T10:34:29.000Z</time>
      </trkpt>
      <trkpt lat="46.05036" lon="4.53704">
        <ele>782</ele>
        <time>2016-11-27T10:34:30.000Z</time>
      </trkpt>
      <trkpt lat="46.05036" lon="4.53703">
        <ele>782</ele>
        <time>2016-11-27T10:34:31.000Z</time>
      </trkpt>
      <trkpt lat="46.05036" lon="4.53703">
        <ele>782</ele>
        <time>2016-11-27T10:34:32.000Z</time>
      </trkpt>
      <trkpt lat="46.05036" lon="4.53703">
        <ele>781</ele>
        <time>2016-11-27T10:34:33.000Z</time>
      </trkpt>
      <trkpt lat="46.05036" lon="4.53703">
        <ele>781</ele>
        <time>2016-11-27T10:34:34.000Z</time>
      </trkpt>
      <trkpt lat="46.05037" lon="4.53702">
        <ele>781</ele>
        <time>2016-11-27T10:34:35.000Z</time>
      </trkpt>
      <trkpt lat="46.05037" lon="4.53701">
        <ele>781</ele>
        <time>2016-11-27T10:34:36.000Z</time>
      </trkpt>
      <trkpt lat="46.05038" lon="4.53701">
        <ele>781</ele>
        <time>2016-11-27T10:34:37.000Z</time>
      </trkpt>
      <trkpt lat="46.05038" lon="4.537">
        <ele>780</ele>
        <time>2016-11-27T10:34:38.000Z</time>
      </trkpt>
      <trkpt lat="46.05038" lon="4.53699">
        <ele>780</ele>
        <time>2016-11-27T10:34:39.000Z</time>
      </trkpt>
      <trkpt lat="46.05039" lon="4.53699">
        <ele>780</ele>
        <time>2016-11-27T10:34:40.000Z</time>
      </trkpt>
      <trkpt lat="46.05039" lon="4.53699">
        <ele>780</ele>
        <time>2016-11-27T10:34:41.000Z</time>
      </trkpt>
      <trkpt lat="46.05039" lon="4.53698">
        <ele>780</ele>
        <time>2016-11-27T10:34:42.000Z</time>
      </trkpt>
      <trkpt lat="46.05039" lon="4.53698">
        <ele>780</ele>
        <time>2016-11-27T10:34:43.000Z</time>
      </trkpt>
      <trkpt lat="46.05038" lon="4.53698">
        <ele>780</ele>
        <time>2016-11-27T10:34:44.000Z</time>
      </trkpt>
      <trkpt lat="46.05038" lon="4.53698">
        <ele>780</ele>
        <time>2016-11-27T10:34:45.000Z</time>
      </trkpt>
      <trkpt lat="46.05037" lon="4.53698">
        <ele>779</ele>
        <time>2016-11-27T10:34:46.000Z</time>
      </trkpt>
      <trkpt lat="46.05036" lon="4.53697">
        <ele>780</ele>
        <time>2016-11-27T10:34:47.000Z</time>
      </trkpt>
      <trkpt lat="46.05036" lon="4.53697">
        <ele>780</ele>
        <time>2016-11-27T10:34:48.000Z</time>
      </trkpt>
      <trkpt lat="46.05035" lon="4.53696">
        <ele>780</ele>
        <time>2016-11-27T10:34:49.000Z</time>
      </trkpt>
      <trkpt lat="46.05034" lon="4.53696">
        <ele>781</ele>
        <time>2016-11-27T10:34:50.000Z</time>
      </trkpt>
      <trkpt lat="46.05034" lon="4.53696">
        <ele>782</ele>
        <time>2016-11-27T10:34:51.000Z</time>
      </trkpt>
      <trkpt lat="46.05033" lon="4.53696">
        <ele>782</ele>
        <time>2016-11-27T10:34:52.000Z</time>
      </trkpt>
      <trkpt lat="46.05032" lon="4.53696">
        <ele>783</ele>
        <time>2016-11-27T10:34:53.000Z</time>
      </trkpt>
      <trkpt lat="46.05031" lon="4.53696">
        <ele>782</ele>
        <time>2016-11-27T10:34:54.000Z</time>
      </trkpt>
      <trkpt lat="46.0503" lon="4.53696">
        <ele>783</ele>
        <time>2016-11-27T10:34:55.000Z</time>
      </trkpt>
      <trkpt lat="46.0503" lon="4.53696">
        <ele>783</ele>
        <time>2016-11-27T10:34:56.000Z</time>
      </trkpt>
      <trkpt lat="46.05029" lon="4.53695">
        <ele>784</ele>
        <time>2016-11-27T10:34:57.000Z</time>
      </trkpt>
      <trkpt lat="46.05029" lon="4.53695">
        <ele>784</ele>
        <time>2016-11-27T10:34:58.000Z</time>
      </trkpt>
      <trkpt lat="46.05028" lon="4.53694">
        <ele>784</ele>
        <time>2016-11-27T10:34:59.000Z</time>
      </trkpt>
      <trkpt lat="46.05028" lon="4.53693">
        <ele>784</ele>
        <time>2016-11-27T10:35:00.000Z</time>
      </trkpt>
      <trkpt lat="46.05027" lon="4.53693">
        <ele>785</ele>
        <time>2016-11-27T10:35:01.000Z</time>
      </trkpt>
      <trkpt lat="46.05026" lon="4.53692">
        <ele>786</ele>
        <time>2016-11-27T10:35:02.000Z</time>
      </trkpt>
      <trkpt lat="46.05025" lon="4.53692">
        <ele>786</ele>
        <time>2016-11-27T10:35:03.000Z</time>
      </trkpt>
      <trkpt lat="46.05024" lon="4.53691">
        <ele>788</ele>
        <time>2016-11-27T10:35:04.000Z</time>
      </trkpt>
      <trkpt lat="46.05023" lon="4.53691">
        <ele>788</ele>
        <time>2016-11-27T10:35:05.000Z</time>
      </trkpt>
      <trkpt lat="46.05023" lon="4.53691">
        <ele>789</ele>
        <time>2016-11-27T10:35:06.000Z</time>
      </trkpt>
      <trkpt lat="46.05022" lon="4.5369">
        <ele>790</ele>
        <time>2016-11-27T10:35:07.000Z</time>
      </trkpt>
      <trkpt lat="46.05022" lon="4.5369">
        <ele>791</ele>
        <time>2016-11-27T10:35:08.000Z</time>
      </trkpt>
      <trkpt lat="46.05021" lon="4.5369">
        <ele>791</ele>
        <time>2016-11-27T10:35:09.000Z</time>
      </trkpt>
      <trkpt lat="46.05021" lon="4.53689">
        <ele>793</ele>
        <time>2016-11-27T10:35:10.000Z</time>
      </trkpt>
      <trkpt lat="46.05021" lon="4.53688">
        <ele>794</ele>
        <time>2016-11-27T10:35:11.000Z</time>
      </trkpt>
      <trkpt lat="46.05021" lon="4.53686">
        <ele>794</ele>
        <time>2016-11-27T10:35:12.000Z</time>
      </trkpt>
      <trkpt lat="46.05021" lon="4.53684">
        <ele>794</ele>
        <time>2016-11-27T10:35:13.000Z</time>
      </trkpt>
      <trkpt lat="46.05021" lon="4.53683">
        <ele>795</ele>
        <time>2016-11-27T10:35:14.000Z</time>
      </trkpt>
      <trkpt lat="46.0502" lon="4.53683">
        <ele>795</ele>
        <time>2016-11-27T10:35:15.000Z</time>
      </trkpt>
      <trkpt lat="46.0502" lon="4.53683">
        <ele>795</ele>
        <time>2016-11-27T10:35:16.000Z</time>
      </trkpt>
      <trkpt lat="46.05019" lon="4.53683">
        <ele>795</ele>
        <time>2016-11-27T10:35:17.000Z</time>
      </trkpt>
      <trkpt lat="46.05018" lon="4.53683">
        <ele>795</ele>
        <time>2016-11-27T10:35:18.000Z</time>
      </trkpt>
      <trkpt lat="46.05018" lon="4.53683">
        <ele>794</ele>
        <time>2016-11-27T10:35:19.000Z</time>
      </trkpt>
      <trkpt lat="46.05017" lon="4.53683">
        <ele>794</ele>
        <time>2016-11-27T10:35:20.000Z</time>
      </trkpt>
      <trkpt lat="46.05017" lon="4.53682">
        <ele>794</ele>
        <time>2016-11-27T10:35:21.000Z</time>
      </trkpt>
      <trkpt lat="46.05017" lon="4.53682">
        <ele>794</ele>
        <time>2016-11-27T10:35:22.000Z</time>
      </trkpt>
      <trkpt lat="46.05017" lon="4.53682">
        <ele>794</ele>
        <time>2016-11-27T10:35:23.000Z</time>
      </trkpt>
      <trkpt lat="46.05017" lon="4.53682">
        <ele>794</ele>
        <time>2016-11-27T10:35:24.000Z</time>
      </trkpt>
      <trkpt lat="46.05017" lon="4.53682">
        <ele>794</ele>
        <time>2016-11-27T10:35:25.000Z</time>
      </trkpt>
      <trkpt lat="46.05017" lon="4.53682">
        <ele>794</ele>
        <time>2016-11-27T10:35:26.000Z</time>
      </trkpt>
      <trkpt lat="46.05017" lon="4.53682">
        <ele>794</ele>
        <time>2016-11-27T10:35:27.000Z</time>
      </trkpt>
      <trkpt lat="46.05016" lon="4.53683">
        <ele>794</ele>
        <time>2016-11-27T10:35:28.000Z</time>
      </trkpt>
      <trkpt lat="46.05016" lon="4.53683">
        <ele>794</ele>
        <time>2016-11-27T10:35:29.000Z</time>
      </trkpt>
      <trkpt lat="46.05016" lon="4.53683">
        <ele>795</ele>
        <time>2016-11-27T10:35:30.000Z</time>
      </trkpt>
      <trkpt lat="46.05016" lon="4.53683">
        <ele>795</ele>
        <time>2016-11-27T10:35:31.000Z</time>
      </trkpt>
      <trkpt lat="46.05016" lon="4.53683">
        <ele>795</ele>
        <time>2016-11-27T10:35:32.000Z</time>
      </trkpt>
      <trkpt lat="46.05016" lon="4.53683">
        <ele>795</ele>
        <time>2016-11-27T10:35:33.000Z</time>
      </trkpt>
      <trkpt lat="46.05016" lon="4.53684">
        <ele>795</ele>
        <time>2016-11-27T10:35:34.000Z</time>
      </trkpt>
      <trkpt lat="46.05016" lon="4.53684">
        <ele>795</ele>
        <time>2016-11-27T10:35:35.000Z</time>
      </trkpt>
      <trkpt lat="46.05017" lon="4.53684">
        <ele>796</ele>
        <time>2016-11-27T10:35:36.000Z</time>
      </trkpt>
      <trkpt lat="46.05017" lon="4.53684">
        <ele>796</ele>
        <time>2016-11-27T10:35:37.000Z</time>
      </trkpt>
      <trkpt lat="46.05016" lon="4.53684">
        <ele>796</ele>
        <time>2016-11-27T10:35:38.000Z</time>
      </trkpt>
      <trkpt lat="46.05016" lon="4.53683">
        <ele>797</ele>
        <time>2016-11-27T10:35:39.000Z</time>
      </trkpt>
      <trkpt lat="46.05015" lon="4.53682">
        <ele>797</ele>
        <time>2016-11-27T10:35:40.000Z</time>
      </trkpt>
      <trkpt lat="46.05015" lon="4.53682">
        <ele>797</ele>
        <time>2016-11-27T10:35:41.000Z</time>
      </trkpt>
      <trkpt lat="46.05014" lon="4.53682">
        <ele>797</ele>
        <time>2016-11-27T10:35:42.000Z</time>
      </trkpt>
      <trkpt lat="46.05013" lon="4.53682">
        <ele>797</ele>
        <time>2016-11-27T10:35:43.000Z</time>
      </trkpt>
      <trkpt lat="46.05013" lon="4.53682">
        <ele>797</ele>
        <time>2016-11-27T10:35:44.000Z</time>
      </trkpt>
      <trkpt lat="46.05012" lon="4.53682">
        <ele>798</ele>
        <time>2016-11-27T10:35:45.000Z</time>
      </trkpt>
      <trkpt lat="46.05011" lon="4.53682">
        <ele>798</ele>
        <time>2016-11-27T10:35:46.000Z</time>
      </trkpt>
      <trkpt lat="46.0501" lon="4.53682">
        <ele>799</ele>
        <time>2016-11-27T10:35:47.000Z</time>
      </trkpt>
      <trkpt lat="46.05009" lon="4.53683">
        <ele>799</ele>
        <time>2016-11-27T10:35:48.000Z</time>
      </trkpt>
      <trkpt lat="46.05008" lon="4.53683">
        <ele>798</ele>
        <time>2016-11-27T10:35:49.000Z</time>
      </trkpt>
      <trkpt lat="46.05007" lon="4.53682">
        <ele>799</ele>
        <time>2016-11-27T10:35:50.000Z</time>
      </trkpt>
      <trkpt lat="46.05007" lon="4.53682">
        <ele>800</ele>
        <time>2016-11-27T10:35:51.000Z</time>
      </trkpt>
      <trkpt lat="46.05006" lon="4.53681">
        <ele>799</ele>
        <time>2016-11-27T10:35:52.000Z</time>
      </trkpt>
      <trkpt lat="46.05005" lon="4.53679">
        <ele>799</ele>
        <time>2016-11-27T10:35:53.000Z</time>
      </trkpt>
      <trkpt lat="46.05004" lon="4.53678">
        <ele>800</ele>
        <time>2016-11-27T10:35:54.000Z</time>
      </trkpt>
      <trkpt lat="46.05003" lon="4.53678">
        <ele>800</ele>
        <time>2016-11-27T10:35:55.000Z</time>
      </trkpt>
      <trkpt lat="46.05003" lon="4.53677">
        <ele>800</ele>
        <time>2016-11-27T10:35:56.000Z</time>
      </trkpt>
      <trkpt lat="46.05002" lon="4.53676">
        <ele>800</ele>
        <time>2016-11-27T10:35:57.000Z</time>
      </trkpt>
      <trkpt lat="46.05001" lon="4.53675">
        <ele>799</ele>
        <time>2016-11-27T10:35:58.000Z</time>
      </trkpt>
      <trkpt lat="46.05001" lon="4.53674">
        <ele>799</ele>
        <time>2016-11-27T10:35:59.000Z</time>
      </trkpt>
      <trkpt lat="46.05" lon="4.53673">
        <ele>799</ele>
        <time>2016-11-27T10:36:00.000Z</time>
      </trkpt>
      <trkpt lat="46.04999" lon="4.53672">
        <ele>799</ele>
        <time>2016-11-27T10:36:01.000Z</time>
      </trkpt>
      <trkpt lat="46.04999" lon="4.53671">
        <ele>799</ele>
        <time>2016-11-27T10:36:02.000Z</time>
      </trkpt>
      <trkpt lat="46.04998" lon="4.5367">
        <ele>799</ele>
        <time>2016-11-27T10:36:03.000Z</time>
      </trkpt>
      <trkpt lat="46.04998" lon="4.53669">
        <ele>800</ele>
        <time>2016-11-27T10:36:04.000Z</time>
      </trkpt>
      <trkpt lat="46.04997" lon="4.53668">
        <ele>800</ele>
        <time>2016-11-27T10:36:05.000Z</time>
      </trkpt>
      <trkpt lat="46.04996" lon="4.53667">
        <ele>800</ele>
        <time>2016-11-27T10:36:06.000Z</time>
      </trkpt>
      <trkpt lat="46.04995" lon="4.53667">
        <ele>801</ele>
        <time>2016-11-27T10:36:07.000Z</time>
      </trkpt>
      <trkpt lat="46.04995" lon="4.53666">
        <ele>802</ele>
        <time>2016-11-27T10:36:08.000Z</time>
      </trkpt>
      <trkpt lat="46.04994" lon="4.53666">
        <ele>803</ele>
        <time>2016-11-27T10:36:09.000Z</time>
      </trkpt>
      <trkpt lat="46.04993" lon="4.53666">
        <ele>804</ele>
        <time>2016-11-27T10:36:10.000Z</time>
      </trkpt>
      <trkpt lat="46.04993" lon="4.53666">
        <ele>805</ele>
        <time>2016-11-27T10:36:11.000Z</time>
      </trkpt>
      <trkpt lat="46.04992" lon="4.53665">
        <ele>805</ele>
        <time>2016-11-27T10:36:12.000Z</time>
      </trkpt>
      <trkpt lat="46.04992" lon="4.53664">
        <ele>806</ele>
        <time>2016-11-27T10:36:13.000Z</time>
      </trkpt>
      <trkpt lat="46.04991" lon="4.53664">
        <ele>806</ele>
        <time>2016-11-27T10:36:14.000Z</time>
      </trkpt>
      <trkpt lat="46.0499" lon="4.53663">
        <ele>806</ele>
        <time>2016-11-27T10:36:15.000Z</time>
      </trkpt>
      <trkpt lat="46.04989" lon="4.53663">
        <ele>806</ele>
        <time>2016-11-27T10:36:16.000Z</time>
      </trkpt>
      <trkpt lat="46.04987" lon="4.53662">
        <ele>805</ele>
        <time>2016-11-27T10:36:17.000Z</time>
      </trkpt>
      <trkpt lat="46.04986" lon="4.53661">
        <ele>805</ele>
        <time>2016-11-27T10:36:18.000Z</time>
      </trkpt>
      <trkpt lat="46.04985" lon="4.5366">
        <ele>804</ele>
        <time>2016-11-27T10:36:19.000Z</time>
      </trkpt>
      <trkpt lat="46.04983" lon="4.5366">
        <ele>804</ele>
        <time>2016-11-27T10:36:20.000Z</time>
      </trkpt>
      <trkpt lat="46.04982" lon="4.53659">
        <ele>804</ele>
        <time>2016-11-27T10:36:21.000Z</time>
      </trkpt>
      <trkpt lat="46.04981" lon="4.53658">
        <ele>804</ele>
        <time>2016-11-27T10:36:22.000Z</time>
      </trkpt>
      <trkpt lat="46.04981" lon="4.53657">
        <ele>805</ele>
        <time>2016-11-27T10:36:23.000Z</time>
      </trkpt>
      <trkpt lat="46.0498" lon="4.53656">
        <ele>805</ele>
        <time>2016-11-27T10:36:24.000Z</time>
      </trkpt>
      <trkpt lat="46.04979" lon="4.53655">
        <ele>805</ele>
        <time>2016-11-27T10:36:25.000Z</time>
      </trkpt>
      <trkpt lat="46.04979" lon="4.53654">
        <ele>805</ele>
        <time>2016-11-27T10:36:26.000Z</time>
      </trkpt>
      <trkpt lat="46.04978" lon="4.53653">
        <ele>805</ele>
        <time>2016-11-27T10:36:27.000Z</time>
      </trkpt>
      <trkpt lat="46.04977" lon="4.53653">
        <ele>805</ele>
        <time>2016-11-27T10:36:28.000Z</time>
      </trkpt>
      <trkpt lat="46.04976" lon="4.53652">
        <ele>805</ele>
        <time>2016-11-27T10:36:29.000Z</time>
      </trkpt>
      <trkpt lat="46.04974" lon="4.53652">
        <ele>804</ele>
        <time>2016-11-27T10:36:30.000Z</time>
      </trkpt>
      <trkpt lat="46.04973" lon="4.53651">
        <ele>804</ele>
        <time>2016-11-27T10:36:31.000Z</time>
      </trkpt>
      <trkpt lat="46.04971" lon="4.5365">
        <ele>803</ele>
        <time>2016-11-27T10:36:32.000Z</time>
      </trkpt>
      <trkpt lat="46.0497" lon="4.53649">
        <ele>804</ele>
        <time>2016-11-27T10:36:33.000Z</time>
      </trkpt>
      <trkpt lat="46.04968" lon="4.53649">
        <ele>804</ele>
        <time>2016-11-27T10:36:34.000Z</time>
      </trkpt>
      <trkpt lat="46.04967" lon="4.53649">
        <ele>804</ele>
        <time>2016-11-27T10:36:35.000Z</time>
      </trkpt>
      <trkpt lat="46.04965" lon="4.53648">
        <ele>804</ele>
        <time>2016-11-27T10:36:36.000Z</time>
      </trkpt>
      <trkpt lat="46.04964" lon="4.53648">
        <ele>805</ele>
        <time>2016-11-27T10:36:37.000Z</time>
      </trkpt>
      <trkpt lat="46.04964" lon="4.53646">
        <ele>805</ele>
        <time>2016-11-27T10:36:38.000Z</time>
      </trkpt>
      <trkpt lat="46.04963" lon="4.53645">
        <ele>804</ele>
        <time>2016-11-27T10:36:39.000Z</time>
      </trkpt>
      <trkpt lat="46.04962" lon="4.53643">
        <ele>804</ele>
        <time>2016-11-27T10:36:40.000Z</time>
      </trkpt>
      <trkpt lat="46.04962" lon="4.53642">
        <ele>804</ele>
        <time>2016-11-27T10:36:41.000Z</time>
      </trkpt>
      <trkpt lat="46.04962" lon="4.5364">
        <ele>804</ele>
        <time>2016-11-27T10:36:42.000Z</time>
      </trkpt>
      <trkpt lat="46.04962" lon="4.53638">
        <ele>804</ele>
        <time>2016-11-27T10:36:43.000Z</time>
      </trkpt>
      <trkpt lat="46.04961" lon="4.53636">
        <ele>805</ele>
        <time>2016-11-27T10:36:44.000Z</time>
      </trkpt>
      <trkpt lat="46.04961" lon="4.53635">
        <ele>806</ele>
        <time>2016-11-27T10:36:45.000Z</time>
      </trkpt>
      <trkpt lat="46.0496" lon="4.53634">
        <ele>806</ele>
        <time>2016-11-27T10:36:46.000Z</time>
      </trkpt>
      <trkpt lat="46.04959" lon="4.53634">
        <ele>806</ele>
        <time>2016-11-27T10:36:47.000Z</time>
      </trkpt>
      <trkpt lat="46.04957" lon="4.53633">
        <ele>806</ele>
        <time>2016-11-27T10:36:48.000Z</time>
      </trkpt>
      <trkpt lat="46.04956" lon="4.53633">
        <ele>805</ele>
        <time>2016-11-27T10:36:49.000Z</time>
      </trkpt>
      <trkpt lat="46.04954" lon="4.53633">
        <ele>805</ele>
        <time>2016-11-27T10:36:50.000Z</time>
      </trkpt>
      <trkpt lat="46.04953" lon="4.53632">
        <ele>805</ele>
        <time>2016-11-27T10:36:51.000Z</time>
      </trkpt>
      <trkpt lat="46.04952" lon="4.53632">
        <ele>807</ele>
        <time>2016-11-27T10:36:52.000Z</time>
      </trkpt>
      <trkpt lat="46.0495" lon="4.53631">
        <ele>807</ele>
        <time>2016-11-27T10:36:53.000Z</time>
      </trkpt>
      <trkpt lat="46.04948" lon="4.53631">
        <ele>807</ele>
        <time>2016-11-27T10:36:54.000Z</time>
      </trkpt>
      <trkpt lat="46.04946" lon="4.53631">
        <ele>807</ele>
        <time>2016-11-27T10:36:55.000Z</time>
      </trkpt>
      <trkpt lat="46.04945" lon="4.53631">
        <ele>806</ele>
        <time>2016-11-27T10:36:56.000Z</time>
      </trkpt>
      <trkpt lat="46.04944" lon="4.53631">
        <ele>806</ele>
        <time>2016-11-27T10:36:57.000Z</time>
      </trkpt>
      <trkpt lat="46.04942" lon="4.53631">
        <ele>806</ele>
        <time>2016-11-27T10:36:58.000Z</time>
      </trkpt>
      <trkpt lat="46.04941" lon="4.53631">
        <ele>806</ele>
        <time>2016-11-27T10:36:59.000Z</time>
      </trkpt>
      <trkpt lat="46.04939" lon="4.53631">
        <ele>806</ele>
        <time>2016-11-27T10:37:00.000Z</time>
      </trkpt>
      <trkpt lat="46.04937" lon="4.5363">
        <ele>806</ele>
        <time>2016-11-27T10:37:01.000Z</time>
      </trkpt>
      <trkpt lat="46.04935" lon="4.5363">
        <ele>805</ele>
        <time>2016-11-27T10:37:02.000Z</time>
      </trkpt>
      <trkpt lat="46.04933" lon="4.53629">
        <ele>805</ele>
        <time>2016-11-27T10:37:03.000Z</time>
      </trkpt>
      <trkpt lat="46.0493" lon="4.53628">
        <ele>806</ele>
        <time>2016-11-27T10:37:04.000Z</time>
      </trkpt>
      <trkpt lat="46.04927" lon="4.53627">
        <ele>806</ele>
        <time>2016-11-27T10:37:05.000Z</time>
      </trkpt>
      <trkpt lat="46.04924" lon="4.53627">
        <ele>806</ele>
        <time>2016-11-27T10:37:06.000Z</time>
      </trkpt>
      <trkpt lat="46.04921" lon="4.53626">
        <ele>807</ele>
        <time>2016-11-27T10:37:07.000Z</time>
      </trkpt>
      <trkpt lat="46.04919" lon="4.53625">
        <ele>807</ele>
        <time>2016-11-27T10:37:08.000Z</time>
      </trkpt>
      <trkpt lat="46.04916" lon="4.53623">
        <ele>807</ele>
        <time>2016-11-27T10:37:09.000Z</time>
      </trkpt>
      <trkpt lat="46.04914" lon="4.53622">
        <ele>807</ele>
        <time>2016-11-27T10:37:10.000Z</time>
      </trkpt>
      <trkpt lat="46.04911" lon="4.53621">
        <ele>808</ele>
        <time>2016-11-27T10:37:11.000Z</time>
      </trkpt>
      <trkpt lat="46.04908" lon="4.5362">
        <ele>808</ele>
        <time>2016-11-27T10:37:12.000Z</time>
      </trkpt>
      <trkpt lat="46.04905" lon="4.5362">
        <ele>809</ele>
        <time>2016-11-27T10:37:13.000Z</time>
      </trkpt>
      <trkpt lat="46.04902" lon="4.5362">
        <ele>809</ele>
        <time>2016-11-27T10:37:14.000Z</time>
      </trkpt>
      <trkpt lat="46.04899" lon="4.5362">
        <ele>808</ele>
        <time>2016-11-27T10:37:15.000Z</time>
      </trkpt>
      <trkpt lat="46.04896" lon="4.5362">
        <ele>808</ele>
        <time>2016-11-27T10:37:16.000Z</time>
      </trkpt>
      <trkpt lat="46.04893" lon="4.53619">
        <ele>807</ele>
        <time>2016-11-27T10:37:17.000Z</time>
      </trkpt>
      <trkpt lat="46.0489" lon="4.53619">
        <ele>807</ele>
        <time>2016-11-27T10:37:18.000Z</time>
      </trkpt>
      <trkpt lat="46.04888" lon="4.53618">
        <ele>806</ele>
        <time>2016-11-27T10:37:19.000Z</time>
      </trkpt>
      <trkpt lat="46.04885" lon="4.53618">
        <ele>806</ele>
        <time>2016-11-27T10:37:20.000Z</time>
      </trkpt>
      <trkpt lat="46.04881" lon="4.53618">
        <ele>806</ele>
        <time>2016-11-27T10:37:21.000Z</time>
      </trkpt>
      <trkpt lat="46.04878" lon="4.53618">
        <ele>805</ele>
        <time>2016-11-27T10:37:22.000Z</time>
      </trkpt>
      <trkpt lat="46.04875" lon="4.53618">
        <ele>805</ele>
        <time>2016-11-27T10:37:23.000Z</time>
      </trkpt>
      <trkpt lat="46.04872" lon="4.53618">
        <ele>804</ele>
        <time>2016-11-27T10:37:24.000Z</time>
      </trkpt>
      <trkpt lat="46.04869" lon="4.53618">
        <ele>804</ele>
        <time>2016-11-27T10:37:25.000Z</time>
      </trkpt>
      <trkpt lat="46.04866" lon="4.53618">
        <ele>802</ele>
        <time>2016-11-27T10:37:26.000Z</time>
      </trkpt>
      <trkpt lat="46.04864" lon="4.53619">
        <ele>802</ele>
        <time>2016-11-27T10:37:27.000Z</time>
      </trkpt>
      <trkpt lat="46.04861" lon="4.5362">
        <ele>802</ele>
        <time>2016-11-27T10:37:28.000Z</time>
      </trkpt>
      <trkpt lat="46.04858" lon="4.53623">
        <ele>801</ele>
        <time>2016-11-27T10:37:29.000Z</time>
      </trkpt>
      <trkpt lat="46.04856" lon="4.53625">
        <ele>801</ele>
        <time>2016-11-27T10:37:30.000Z</time>
      </trkpt>
      <trkpt lat="46.04854" lon="4.53627">
        <ele>801</ele>
        <time>2016-11-27T10:37:31.000Z</time>
      </trkpt>
      <trkpt lat="46.04853" lon="4.53629">
        <ele>801</ele>
        <time>2016-11-27T10:37:32.000Z</time>
      </trkpt>
      <trkpt lat="46.04851" lon="4.53631">
        <ele>801</ele>
        <time>2016-11-27T10:37:33.000Z</time>
      </trkpt>
      <trkpt lat="46.04851" lon="4.53632">
        <ele>801</ele>
        <time>2016-11-27T10:37:34.000Z</time>
      </trkpt>
      <trkpt lat="46.0485" lon="4.53633">
        <ele>801</ele>
        <time>2016-11-27T10:37:35.000Z</time>
      </trkpt>
      <trkpt lat="46.0485" lon="4.53633">
        <ele>801</ele>
        <time>2016-11-27T10:37:36.000Z</time>
      </trkpt>
      <trkpt lat="46.04849" lon="4.53634">
        <ele>801</ele>
        <time>2016-11-27T10:37:37.000Z</time>
      </trkpt>
      <trkpt lat="46.04849" lon="4.53635">
        <ele>801</ele>
        <time>2016-11-27T10:37:38.000Z</time>
      </trkpt>
      <trkpt lat="46.04849" lon="4.53636">
        <ele>801</ele>
        <time>2016-11-27T10:37:39.000Z</time>
      </trkpt>
      <trkpt lat="46.04849" lon="4.53638">
        <ele>800</ele>
        <time>2016-11-27T10:37:40.000Z</time>
      </trkpt>
      <trkpt lat="46.04849" lon="4.53639">
        <ele>800</ele>
        <time>2016-11-27T10:37:41.000Z</time>
      </trkpt>
      <trkpt lat="46.04848" lon="4.53641">
        <ele>799</ele>
        <time>2016-11-27T10:37:42.000Z</time>
      </trkpt>
      <trkpt lat="46.04848" lon="4.53643">
        <ele>799</ele>
        <time>2016-11-27T10:37:43.000Z</time>
      </trkpt>
      <trkpt lat="46.04847" lon="4.53644">
        <ele>799</ele>
        <time>2016-11-27T10:37:44.000Z</time>
      </trkpt>
      <trkpt lat="46.04847" lon="4.53645">
        <ele>799</ele>
        <time>2016-11-27T10:37:45.000Z</time>
      </trkpt>
      <trkpt lat="46.04846" lon="4.53646">
        <ele>799</ele>
        <time>2016-11-27T10:37:46.000Z</time>
      </trkpt>
      <trkpt lat="46.04845" lon="4.53647">
        <ele>799</ele>
        <time>2016-11-27T10:37:47.000Z</time>
      </trkpt>
      <trkpt lat="46.04845" lon="4.53649">
        <ele>799</ele>
        <time>2016-11-27T10:37:48.000Z</time>
      </trkpt>
      <trkpt lat="46.04844" lon="4.5365">
        <ele>799</ele>
        <time>2016-11-27T10:37:49.000Z</time>
      </trkpt>
      <trkpt lat="46.04843" lon="4.53653">
        <ele>799</ele>
        <time>2016-11-27T10:37:50.000Z</time>
      </trkpt>
      <trkpt lat="46.04841" lon="4.53655">
        <ele>798</ele>
        <time>2016-11-27T10:37:51.000Z</time>
      </trkpt>
      <trkpt lat="46.04839" lon="4.53658">
        <ele>798</ele>
        <time>2016-11-27T10:37:52.000Z</time>
      </trkpt>
      <trkpt lat="46.04838" lon="4.53661">
        <ele>797</ele>
        <time>2016-11-27T10:37:53.000Z</time>
      </trkpt>
      <trkpt lat="46.04837" lon="4.53664">
        <ele>797</ele>
        <time>2016-11-27T10:37:54.000Z</time>
      </trkpt>
      <trkpt lat="46.04836" lon="4.53667">
        <ele>796</ele>
        <time>2016-11-27T10:37:55.000Z</time>
      </trkpt>
      <trkpt lat="46.04835" lon="4.5367">
        <ele>796</ele>
        <time>2016-11-27T10:37:56.000Z</time>
      </trkpt>
      <trkpt lat="46.04835" lon="4.53674">
        <ele>795</ele>
        <time>2016-11-27T10:37:57.000Z</time>
      </trkpt>
      <trkpt lat="46.04834" lon="4.53678">
        <ele>796</ele>
        <time>2016-11-27T10:37:58.000Z</time>
      </trkpt>
      <trkpt lat="46.04833" lon="4.53683">
        <ele>795</ele>
        <time>2016-11-27T10:37:59.000Z</time>
      </trkpt>
      <trkpt lat="46.04832" lon="4.53687">
        <ele>794</ele>
        <time>2016-11-27T10:38:00.000Z</time>
      </trkpt>
      <trkpt lat="46.04831" lon="4.53692">
        <ele>794</ele>
        <time>2016-11-27T10:38:01.000Z</time>
      </trkpt>
      <trkpt lat="46.04829" lon="4.53697">
        <ele>793</ele>
        <time>2016-11-27T10:38:02.000Z</time>
      </trkpt>
      <trkpt lat="46.04828" lon="4.53702">
        <ele>793</ele>
        <time>2016-11-27T10:38:03.000Z</time>
      </trkpt>
      <trkpt lat="46.04827" lon="4.53707">
        <ele>793</ele>
        <time>2016-11-27T10:38:04.000Z</time>
      </trkpt>
      <trkpt lat="46.04827" lon="4.53711">
        <ele>793</ele>
        <time>2016-11-27T10:38:05.000Z</time>
      </trkpt>
      <trkpt lat="46.04826" lon="4.53716">
        <ele>793</ele>
        <time>2016-11-27T10:38:06.000Z</time>
      </trkpt>
      <trkpt lat="46.04825" lon="4.53721">
        <ele>794</ele>
        <time>2016-11-27T10:38:07.000Z</time>
      </trkpt>
      <trkpt lat="46.04823" lon="4.53726">
        <ele>793</ele>
        <time>2016-11-27T10:38:08.000Z</time>
      </trkpt>
      <trkpt lat="46.04822" lon="4.5373">
        <ele>793</ele>
        <time>2016-11-27T10:38:09.000Z</time>
      </trkpt>
      <trkpt lat="46.04821" lon="4.53735">
        <ele>794</ele>
        <time>2016-11-27T10:38:10.000Z</time>
      </trkpt>
      <trkpt lat="46.04819" lon="4.5374">
        <ele>794</ele>
        <time>2016-11-27T10:38:11.000Z</time>
      </trkpt>
      <trkpt lat="46.04818" lon="4.53746">
        <ele>794</ele>
        <time>2016-11-27T10:38:12.000Z</time>
      </trkpt>
      <trkpt lat="46.04817" lon="4.53751">
        <ele>794</ele>
        <time>2016-11-27T10:38:13.000Z</time>
      </trkpt>
      <trkpt lat="46.04817" lon="4.53757">
        <ele>794</ele>
        <time>2016-11-27T10:38:14.000Z</time>
      </trkpt>
      <trkpt lat="46.04815" lon="4.53763">
        <ele>793</ele>
        <time>2016-11-27T10:38:15.000Z</time>
      </trkpt>
      <trkpt lat="46.04814" lon="4.53769">
        <ele>793</ele>
        <time>2016-11-27T10:38:16.000Z</time>
      </trkpt>
      <trkpt lat="46.04813" lon="4.53774">
        <ele>794</ele>
        <time>2016-11-27T10:38:17.000Z</time>
      </trkpt>
      <trkpt lat="46.04811" lon="4.5378">
        <ele>793</ele>
        <time>2016-11-27T10:38:18.000Z</time>
      </trkpt>
      <trkpt lat="46.0481" lon="4.53785">
        <ele>792</ele>
        <time>2016-11-27T10:38:19.000Z</time>
      </trkpt>
      <trkpt lat="46.04808" lon="4.5379">
        <ele>791</ele>
        <time>2016-11-27T10:38:20.000Z</time>
      </trkpt>
      <trkpt lat="46.04806" lon="4.53794">
        <ele>790</ele>
        <time>2016-11-27T10:38:21.000Z</time>
      </trkpt>
      <trkpt lat="46.04804" lon="4.538">
        <ele>790</ele>
        <time>2016-11-27T10:38:22.000Z</time>
      </trkpt>
      <trkpt lat="46.04802" lon="4.53805">
        <ele>791</ele>
        <time>2016-11-27T10:38:23.000Z</time>
      </trkpt>
      <trkpt lat="46.048" lon="4.5381">
        <ele>790</ele>
        <time>2016-11-27T10:38:24.000Z</time>
      </trkpt>
      <trkpt lat="46.04798" lon="4.53814">
        <ele>790</ele>
        <time>2016-11-27T10:38:25.000Z</time>
      </trkpt>
      <trkpt lat="46.04797" lon="4.5382">
        <ele>790</ele>
        <time>2016-11-27T10:38:26.000Z</time>
      </trkpt>
      <trkpt lat="46.04795" lon="4.53825">
        <ele>789</ele>
        <time>2016-11-27T10:38:27.000Z</time>
      </trkpt>
      <trkpt lat="46.04793" lon="4.5383">
        <ele>790</ele>
        <time>2016-11-27T10:38:28.000Z</time>
      </trkpt>
      <trkpt lat="46.04791" lon="4.53835">
        <ele>789</ele>
        <time>2016-11-27T10:38:29.000Z</time>
      </trkpt>
      <trkpt lat="46.04788" lon="4.53841">
        <ele>788</ele>
        <time>2016-11-27T10:38:30.000Z</time>
      </trkpt>
      <trkpt lat="46.04786" lon="4.53846">
        <ele>788</ele>
        <time>2016-11-27T10:38:31.000Z</time>
      </trkpt>
      <trkpt lat="46.04784" lon="4.53851">
        <ele>788</ele>
        <time>2016-11-27T10:38:32.000Z</time>
      </trkpt>
      <trkpt lat="46.04782" lon="4.53856">
        <ele>786</ele>
        <time>2016-11-27T10:38:33.000Z</time>
      </trkpt>
      <trkpt lat="46.0478" lon="4.5386">
        <ele>785</ele>
        <time>2016-11-27T10:38:34.000Z</time>
      </trkpt>
      <trkpt lat="46.04777" lon="4.53865">
        <ele>784</ele>
        <time>2016-11-27T10:38:35.000Z</time>
      </trkpt>
      <trkpt lat="46.04775" lon="4.53869">
        <ele>786</ele>
        <time>2016-11-27T10:38:36.000Z</time>
      </trkpt>
      <trkpt lat="46.04773" lon="4.53874">
        <ele>785</ele>
        <time>2016-11-27T10:38:37.000Z</time>
      </trkpt>
      <trkpt lat="46.04771" lon="4.53879">
        <ele>785</ele>
        <time>2016-11-27T10:38:38.000Z</time>
      </trkpt>
      <trkpt lat="46.04769" lon="4.53883">
        <ele>786</ele>
        <time>2016-11-27T10:38:39.000Z</time>
      </trkpt>
      <trkpt lat="46.04768" lon="4.53887">
        <ele>785</ele>
        <time>2016-11-27T10:38:40.000Z</time>
      </trkpt>
      <trkpt lat="46.04766" lon="4.5389">
        <ele>784</ele>
        <time>2016-11-27T10:38:41.000Z</time>
      </trkpt>
      <trkpt lat="46.04764" lon="4.53894">
        <ele>784</ele>
        <time>2016-11-27T10:38:42.000Z</time>
      </trkpt>
      <trkpt lat="46.04762" lon="4.53898">
        <ele>784</ele>
        <time>2016-11-27T10:38:43.000Z</time>
      </trkpt>
      <trkpt lat="46.04761" lon="4.53901">
        <ele>783</ele>
        <time>2016-11-27T10:38:44.000Z</time>
      </trkpt>
      <trkpt lat="46.0476" lon="4.53905">
        <ele>782</ele>
        <time>2016-11-27T10:38:45.000Z</time>
      </trkpt>
      <trkpt lat="46.04758" lon="4.53909">
        <ele>781</ele>
        <time>2016-11-27T10:38:46.000Z</time>
      </trkpt>
      <trkpt lat="46.04757" lon="4.53912">
        <ele>780</ele>
        <time>2016-11-27T10:38:47.000Z</time>
      </trkpt>
      <trkpt lat="46.04756" lon="4.53917">
        <ele>781</ele>
        <time>2016-11-27T10:38:48.000Z</time>
      </trkpt>
      <trkpt lat="46.04754" lon="4.53922">
        <ele>780</ele>
        <time>2016-11-27T10:38:49.000Z</time>
      </trkpt>
      <trkpt lat="46.04753" lon="4.53927">
        <ele>779</ele>
        <time>2016-11-27T10:38:50.000Z</time>
      </trkpt>
      <trkpt lat="46.04752" lon="4.53931">
        <ele>778</ele>
        <time>2016-11-27T10:38:51.000Z</time>
      </trkpt>
      <trkpt lat="46.0475" lon="4.53936">
        <ele>778</ele>
        <time>2016-11-27T10:38:52.000Z</time>
      </trkpt>
      <trkpt lat="46.04749" lon="4.5394">
        <ele>778</ele>
        <time>2016-11-27T10:38:53.000Z</time>
      </trkpt>
      <trkpt lat="46.04747" lon="4.53945">
        <ele>778</ele>
        <time>2016-11-27T10:38:54.000Z</time>
      </trkpt>
      <trkpt lat="46.04745" lon="4.5395">
        <ele>778</ele>
        <time>2016-11-27T10:38:55.000Z</time>
      </trkpt>
      <trkpt lat="46.04743" lon="4.53955">
        <ele>778</ele>
        <time>2016-11-27T10:38:56.000Z</time>
      </trkpt>
      <trkpt lat="46.04742" lon="4.5396">
        <ele>778</ele>
        <time>2016-11-27T10:38:57.000Z</time>
      </trkpt>
      <trkpt lat="46.04742" lon="4.53964">
        <ele>778</ele>
        <time>2016-11-27T10:38:58.000Z</time>
      </trkpt>
      <trkpt lat="46.04741" lon="4.53969">
        <ele>778</ele>
        <time>2016-11-27T10:38:59.000Z</time>
      </trkpt>
      <trkpt lat="46.0474" lon="4.53973">
        <ele>778</ele>
        <time>2016-11-27T10:39:00.000Z</time>
      </trkpt>
      <trkpt lat="46.04739" lon="4.53978">
        <ele>777</ele>
        <time>2016-11-27T10:39:01.000Z</time>
      </trkpt>
      <trkpt lat="46.04738" lon="4.53982">
        <ele>778</ele>
        <time>2016-11-27T10:39:02.000Z</time>
      </trkpt>
      <trkpt lat="46.04737" lon="4.53986">
        <ele>778</ele>
        <time>2016-11-27T10:39:03.000Z</time>
      </trkpt>
      <trkpt lat="46.04736" lon="4.53991">
        <ele>779</ele>
        <time>2016-11-27T10:39:04.000Z</time>
      </trkpt>
      <trkpt lat="46.04735" lon="4.53995">
        <ele>778</ele>
        <time>2016-11-27T10:39:05.000Z</time>
      </trkpt>
      <trkpt lat="46.04734" lon="4.54">
        <ele>777</ele>
        <time>2016-11-27T10:39:06.000Z</time>
      </trkpt>
      <trkpt lat="46.04733" lon="4.54005">
        <ele>776</ele>
        <time>2016-11-27T10:39:07.000Z</time>
      </trkpt>
      <trkpt lat="46.0473" lon="4.5401">
        <ele>775</ele>
        <time>2016-11-27T10:39:08.000Z</time>
      </trkpt>
      <trkpt lat="46.04728" lon="4.54015">
        <ele>773</ele>
        <time>2016-11-27T10:39:09.000Z</time>
      </trkpt>
      <trkpt lat="46.04726" lon="4.54021">
        <ele>775</ele>
        <time>2016-11-27T10:39:10.000Z</time>
      </trkpt>
      <trkpt lat="46.04725" lon="4.54028">
        <ele>774</ele>
        <time>2016-11-27T10:39:11.000Z</time>
      </trkpt>
      <trkpt lat="46.04724" lon="4.54035">
        <ele>775</ele>
        <time>2016-11-27T10:39:12.000Z</time>
      </trkpt>
      <trkpt lat="46.04722" lon="4.54041">
        <ele>775</ele>
        <time>2016-11-27T10:39:13.000Z</time>
      </trkpt>
      <trkpt lat="46.04721" lon="4.54047">
        <ele>774</ele>
        <time>2016-11-27T10:39:14.000Z</time>
      </trkpt>
      <trkpt lat="46.04719" lon="4.54052">
        <ele>775</ele>
        <time>2016-11-27T10:39:15.000Z</time>
      </trkpt>
      <trkpt lat="46.04718" lon="4.54058">
        <ele>773</ele>
        <time>2016-11-27T10:39:16.000Z</time>
      </trkpt>
      <trkpt lat="46.04717" lon="4.54063">
        <ele>770</ele>
        <time>2016-11-27T10:39:17.000Z</time>
      </trkpt>
      <trkpt lat="46.04715" lon="4.54068">
        <ele>769</ele>
        <time>2016-11-27T10:39:18.000Z</time>
      </trkpt>
      <trkpt lat="46.04714" lon="4.54073">
        <ele>768</ele>
        <time>2016-11-27T10:39:19.000Z</time>
      </trkpt>
      <trkpt lat="46.04714" lon="4.54078">
        <ele>768</ele>
        <time>2016-11-27T10:39:20.000Z</time>
      </trkpt>
      <trkpt lat="46.04713" lon="4.54083">
        <ele>768</ele>
        <time>2016-11-27T10:39:21.000Z</time>
      </trkpt>
      <trkpt lat="46.04713" lon="4.54087">
        <ele>768</ele>
        <time>2016-11-27T10:39:22.000Z</time>
      </trkpt>
      <trkpt lat="46.04713" lon="4.54092">
        <ele>768</ele>
        <time>2016-11-27T10:39:23.000Z</time>
      </trkpt>
      <trkpt lat="46.04713" lon="4.54096">
        <ele>768</ele>
        <time>2016-11-27T10:39:24.000Z</time>
      </trkpt>
      <trkpt lat="46.04713" lon="4.541">
        <ele>768</ele>
        <time>2016-11-27T10:39:25.000Z</time>
      </trkpt>
      <trkpt lat="46.04712" lon="4.54103">
        <ele>768</ele>
        <time>2016-11-27T10:39:26.000Z</time>
      </trkpt>
      <trkpt lat="46.04712" lon="4.54107">
        <ele>767</ele>
        <time>2016-11-27T10:39:27.000Z</time>
      </trkpt>
      <trkpt lat="46.04711" lon="4.54111">
        <ele>766</ele>
        <time>2016-11-27T10:39:28.000Z</time>
      </trkpt>
      <trkpt lat="46.04709" lon="4.54116">
        <ele>766</ele>
        <time>2016-11-27T10:39:29.000Z</time>
      </trkpt>
      <trkpt lat="46.04708" lon="4.5412">
        <ele>764</ele>
        <time>2016-11-27T10:39:30.000Z</time>
      </trkpt>
      <trkpt lat="46.04706" lon="4.54125">
        <ele>765</ele>
        <time>2016-11-27T10:39:31.000Z</time>
      </trkpt>
      <trkpt lat="46.04705" lon="4.54131">
        <ele>767</ele>
        <time>2016-11-27T10:39:32.000Z</time>
      </trkpt>
      <trkpt lat="46.04704" lon="4.54137">
        <ele>769</ele>
        <time>2016-11-27T10:39:33.000Z</time>
      </trkpt>
      <trkpt lat="46.04703" lon="4.54145">
        <ele>772</ele>
        <time>2016-11-27T10:39:34.000Z</time>
      </trkpt>
      <trkpt lat="46.04701" lon="4.54153">
        <ele>771</ele>
        <time>2016-11-27T10:39:35.000Z</time>
      </trkpt>
      <trkpt lat="46.047" lon="4.54159">
        <ele>772</ele>
        <time>2016-11-27T10:39:36.000Z</time>
      </trkpt>
      <trkpt lat="46.04699" lon="4.54164">
        <ele>772</ele>
        <time>2016-11-27T10:39:37.000Z</time>
      </trkpt>
      <trkpt lat="46.04699" lon="4.54168">
        <ele>771</ele>
        <time>2016-11-27T10:39:38.000Z</time>
      </trkpt>
      <trkpt lat="46.04698" lon="4.54172">
        <ele>773</ele>
        <time>2016-11-27T10:39:39.000Z</time>
      </trkpt>
      <trkpt lat="46.04697" lon="4.54177">
        <ele>772</ele>
        <time>2016-11-27T10:39:40.000Z</time>
      </trkpt>
      <trkpt lat="46.04695" lon="4.54181">
        <ele>770</ele>
        <time>2016-11-27T10:39:41.000Z</time>
      </trkpt>
      <trkpt lat="46.04694" lon="4.54185">
        <ele>769</ele>
        <time>2016-11-27T10:39:42.000Z</time>
      </trkpt>
      <trkpt lat="46.04693" lon="4.54189">
        <ele>767</ele>
        <time>2016-11-27T10:39:43.000Z</time>
      </trkpt>
      <trkpt lat="46.04691" lon="4.54194">
        <ele>764</ele>
        <time>2016-11-27T10:39:44.000Z</time>
      </trkpt>
      <trkpt lat="46.0469" lon="4.54197">
        <ele>763</ele>
        <time>2016-11-27T10:39:45.000Z</time>
      </trkpt>
      <trkpt lat="46.04689" lon="4.54201">
        <ele>762</ele>
        <time>2016-11-27T10:39:46.000Z</time>
      </trkpt>
      <trkpt lat="46.04688" lon="4.54203">
        <ele>762</ele>
        <time>2016-11-27T10:39:47.000Z</time>
      </trkpt>
      <trkpt lat="46.04687" lon="4.54206">
        <ele>759</ele>
        <time>2016-11-27T10:39:48.000Z</time>
      </trkpt>
      <trkpt lat="46.04687" lon="4.54208">
        <ele>758</ele>
        <time>2016-11-27T10:39:49.000Z</time>
      </trkpt>
      <trkpt lat="46.04686" lon="4.54211">
        <ele>756</ele>
        <time>2016-11-27T10:39:50.000Z</time>
      </trkpt>
      <trkpt lat="46.04686" lon="4.54215">
        <ele>756</ele>
        <time>2016-11-27T10:39:51.000Z</time>
      </trkpt>
      <trkpt lat="46.04686" lon="4.54218">
        <ele>755</ele>
        <time>2016-11-27T10:39:52.000Z</time>
      </trkpt>
      <trkpt lat="46.04686" lon="4.54222">
        <ele>754</ele>
        <time>2016-11-27T10:39:53.000Z</time>
      </trkpt>
      <trkpt lat="46.04687" lon="4.54226">
        <ele>754</ele>
        <time>2016-11-27T10:39:54.000Z</time>
      </trkpt>
      <trkpt lat="46.04687" lon="4.5423">
        <ele>752</ele>
        <time>2016-11-27T10:39:55.000Z</time>
      </trkpt>
      <trkpt lat="46.04687" lon="4.54235">
        <ele>751</ele>
        <time>2016-11-27T10:39:56.000Z</time>
      </trkpt>
      <trkpt lat="46.04687" lon="4.54239">
        <ele>750</ele>
        <time>2016-11-27T10:39:57.000Z</time>
      </trkpt>
      <trkpt lat="46.04688" lon="4.54244">
        <ele>748</ele>
        <time>2016-11-27T10:39:58.000Z</time>
      </trkpt>
      <trkpt lat="46.04687" lon="4.54248">
        <ele>747</ele>
        <time>2016-11-27T10:39:59.000Z</time>
      </trkpt>
      <trkpt lat="46.04687" lon="4.54252">
        <ele>746</ele>
        <time>2016-11-27T10:40:00.000Z</time>
      </trkpt>
      <trkpt lat="46.04687" lon="4.54257">
        <ele>746</ele>
        <time>2016-11-27T10:40:01.000Z</time>
      </trkpt>
      <trkpt lat="46.04687" lon="4.54261">
        <ele>745</ele>
        <time>2016-11-27T10:40:02.000Z</time>
      </trkpt>
      <trkpt lat="46.04687" lon="4.54265">
        <ele>744</ele>
        <time>2016-11-27T10:40:03.000Z</time>
      </trkpt>
      <trkpt lat="46.04688" lon="4.5427">
        <ele>743</ele>
        <time>2016-11-27T10:40:04.000Z</time>
      </trkpt>
      <trkpt lat="46.04688" lon="4.54275">
        <ele>741</ele>
        <time>2016-11-27T10:40:05.000Z</time>
      </trkpt>
      <trkpt lat="46.04689" lon="4.5428">
        <ele>740</ele>
        <time>2016-11-27T10:40:06.000Z</time>
      </trkpt>
      <trkpt lat="46.04689" lon="4.54285">
        <ele>738</ele>
        <time>2016-11-27T10:40:07.000Z</time>
      </trkpt>
      <trkpt lat="46.0469" lon="4.54289">
        <ele>737</ele>
        <time>2016-11-27T10:40:08.000Z</time>
      </trkpt>
      <trkpt lat="46.04692" lon="4.54294">
        <ele>735</ele>
        <time>2016-11-27T10:40:09.000Z</time>
      </trkpt>
      <trkpt lat="46.04693" lon="4.54298">
        <ele>735</ele>
        <time>2016-11-27T10:40:10.000Z</time>
      </trkpt>
      <trkpt lat="46.04695" lon="4.54303">
        <ele>734</ele>
        <time>2016-11-27T10:40:11.000Z</time>
      </trkpt>
      <trkpt lat="46.04696" lon="4.54308">
        <ele>732</ele>
        <time>2016-11-27T10:40:12.000Z</time>
      </trkpt>
      <trkpt lat="46.04698" lon="4.54313">
        <ele>731</ele>
        <time>2016-11-27T10:40:13.000Z</time>
      </trkpt>
      <trkpt lat="46.04699" lon="4.54317">
        <ele>730</ele>
        <time>2016-11-27T10:40:14.000Z</time>
      </trkpt>
      <trkpt lat="46.047" lon="4.54322">
        <ele>729</ele>
        <time>2016-11-27T10:40:15.000Z</time>
      </trkpt>
      <trkpt lat="46.04701" lon="4.54326">
        <ele>728</ele>
        <time>2016-11-27T10:40:16.000Z</time>
      </trkpt>
      <trkpt lat="46.04702" lon="4.5433">
        <ele>727</ele>
        <time>2016-11-27T10:40:17.000Z</time>
      </trkpt>
      <trkpt lat="46.04702" lon="4.54334">
        <ele>727</ele>
        <time>2016-11-27T10:40:18.000Z</time>
      </trkpt>
      <trkpt lat="46.04703" lon="4.54338">
        <ele>726</ele>
        <time>2016-11-27T10:40:19.000Z</time>
      </trkpt>
      <trkpt lat="46.04704" lon="4.54342">
        <ele>725</ele>
        <time>2016-11-27T10:40:20.000Z</time>
      </trkpt>
      <trkpt lat="46.04705" lon="4.54345">
        <ele>726</ele>
        <time>2016-11-27T10:40:21.000Z</time>
      </trkpt>
      <trkpt lat="46.04706" lon="4.54347">
        <ele>726</ele>
        <time>2016-11-27T10:40:22.000Z</time>
      </trkpt>
      <trkpt lat="46.04707" lon="4.54348">
        <ele>726</ele>
        <time>2016-11-27T10:40:23.000Z</time>
      </trkpt>
      <trkpt lat="46.04707" lon="4.5435">
        <ele>725</ele>
        <time>2016-11-27T10:40:24.000Z</time>
      </trkpt>
      <trkpt lat="46.04708" lon="4.54352">
        <ele>726</ele>
        <time>2016-11-27T10:40:25.000Z</time>
      </trkpt>
      <trkpt lat="46.04709" lon="4.54355">
        <ele>726</ele>
        <time>2016-11-27T10:40:26.000Z</time>
      </trkpt>
      <trkpt lat="46.0471" lon="4.54358">
        <ele>726</ele>
        <time>2016-11-27T10:40:27.000Z</time>
      </trkpt>
      <trkpt lat="46.04711" lon="4.54362">
        <ele>725</ele>
        <time>2016-11-27T10:40:28.000Z</time>
      </trkpt>
      <trkpt lat="46.04713" lon="4.54365">
        <ele>724</ele>
        <time>2016-11-27T10:40:29.000Z</time>
      </trkpt>
      <trkpt lat="46.04716" lon="4.54368">
        <ele>723</ele>
        <time>2016-11-27T10:40:30.000Z</time>
      </trkpt>
      <trkpt lat="46.04718" lon="4.54371">
        <ele>722</ele>
        <time>2016-11-27T10:40:31.000Z</time>
      </trkpt>
      <trkpt lat="46.04719" lon="4.54374">
        <ele>721</ele>
        <time>2016-11-27T10:40:32.000Z</time>
      </trkpt>
      <trkpt lat="46.04721" lon="4.54378">
        <ele>720</ele>
        <time>2016-11-27T10:40:33.000Z</time>
      </trkpt>
      <trkpt lat="46.04723" lon="4.54381">
        <ele>720</ele>
        <time>2016-11-27T10:40:34.000Z</time>
      </trkpt>
      <trkpt lat="46.04725" lon="4.54383">
        <ele>719</ele>
        <time>2016-11-27T10:40:35.000Z</time>
      </trkpt>
      <trkpt lat="46.04727" lon="4.54387">
        <ele>718</ele>
        <time>2016-11-27T10:40:36.000Z</time>
      </trkpt>
      <trkpt lat="46.04729" lon="4.5439">
        <ele>717</ele>
        <time>2016-11-27T10:40:37.000Z</time>
      </trkpt>
      <trkpt lat="46.04731" lon="4.54393">
        <ele>717</ele>
        <time>2016-11-27T10:40:38.000Z</time>
      </trkpt>
      <trkpt lat="46.04733" lon="4.54396">
        <ele>715</ele>
        <time>2016-11-27T10:40:39.000Z</time>
      </trkpt>
      <trkpt lat="46.04734" lon="4.544">
        <ele>714</ele>
        <time>2016-11-27T10:40:40.000Z</time>
      </trkpt>
      <trkpt lat="46.04735" lon="4.54403">
        <ele>712</ele>
        <time>2016-11-27T10:40:41.000Z</time>
      </trkpt>
      <trkpt lat="46.04735" lon="4.54406">
        <ele>710</ele>
        <time>2016-11-27T10:40:42.000Z</time>
      </trkpt>
      <trkpt lat="46.04736" lon="4.54408">
        <ele>709</ele>
        <time>2016-11-27T10:40:43.000Z</time>
      </trkpt>
      <trkpt lat="46.04738" lon="4.54411">
        <ele>708</ele>
        <time>2016-11-27T10:40:44.000Z</time>
      </trkpt>
      <trkpt lat="46.04739" lon="4.54414">
        <ele>707</ele>
        <time>2016-11-27T10:40:45.000Z</time>
      </trkpt>
      <trkpt lat="46.04741" lon="4.54417">
        <ele>706</ele>
        <time>2016-11-27T10:40:46.000Z</time>
      </trkpt>
      <trkpt lat="46.04743" lon="4.5442">
        <ele>706</ele>
        <time>2016-11-27T10:40:47.000Z</time>
      </trkpt>
      <trkpt lat="46.04745" lon="4.54423">
        <ele>705</ele>
        <time>2016-11-27T10:40:48.000Z</time>
      </trkpt>
      <trkpt lat="46.04748" lon="4.54426">
        <ele>705</ele>
        <time>2016-11-27T10:40:49.000Z</time>
      </trkpt>
      <trkpt lat="46.0475" lon="4.54429">
        <ele>706</ele>
        <time>2016-11-27T10:40:50.000Z</time>
      </trkpt>
      <trkpt lat="46.04752" lon="4.54432">
        <ele>705</ele>
        <time>2016-11-27T10:40:51.000Z</time>
      </trkpt>
      <trkpt lat="46.04754" lon="4.54435">
        <ele>704</ele>
        <time>2016-11-27T10:40:52.000Z</time>
      </trkpt>
      <trkpt lat="46.04756" lon="4.54439">
        <ele>703</ele>
        <time>2016-11-27T10:40:53.000Z</time>
      </trkpt>
      <trkpt lat="46.04758" lon="4.54442">
        <ele>703</ele>
        <time>2016-11-27T10:40:54.000Z</time>
      </trkpt>
      <trkpt lat="46.0476" lon="4.54446">
        <ele>701</ele>
        <time>2016-11-27T10:40:55.000Z</time>
      </trkpt>
      <trkpt lat="46.04762" lon="4.5445">
        <ele>700</ele>
        <time>2016-11-27T10:40:56.000Z</time>
      </trkpt>
      <trkpt lat="46.04763" lon="4.54454">
        <ele>699</ele>
        <time>2016-11-27T10:40:57.000Z</time>
      </trkpt>
      <trkpt lat="46.04765" lon="4.54457">
        <ele>698</ele>
        <time>2016-11-27T10:40:58.000Z</time>
      </trkpt>
      <trkpt lat="46.04767" lon="4.5446">
        <ele>697</ele>
        <time>2016-11-27T10:40:59.000Z</time>
      </trkpt>
      <trkpt lat="46.04768" lon="4.54463">
        <ele>696</ele>
        <time>2016-11-27T10:41:00.000Z</time>
      </trkpt>
      <trkpt lat="46.0477" lon="4.54466">
        <ele>696</ele>
        <time>2016-11-27T10:41:01.000Z</time>
      </trkpt>
      <trkpt lat="46.04772" lon="4.54469">
        <ele>696</ele>
        <time>2016-11-27T10:41:02.000Z</time>
      </trkpt>
      <trkpt lat="46.04773" lon="4.54472">
        <ele>695</ele>
        <time>2016-11-27T10:41:03.000Z</time>
      </trkpt>
      <trkpt lat="46.04775" lon="4.54476">
        <ele>695</ele>
        <time>2016-11-27T10:41:04.000Z</time>
      </trkpt>
      <trkpt lat="46.04777" lon="4.54479">
        <ele>693</ele>
        <time>2016-11-27T10:41:05.000Z</time>
      </trkpt>
      <trkpt lat="46.04778" lon="4.54482">
        <ele>692</ele>
        <time>2016-11-27T10:41:06.000Z</time>
      </trkpt>
      <trkpt lat="46.0478" lon="4.54484">
        <ele>692</ele>
        <time>2016-11-27T10:41:07.000Z</time>
      </trkpt>
      <trkpt lat="46.04783" lon="4.54487">
        <ele>691</ele>
        <time>2016-11-27T10:41:08.000Z</time>
      </trkpt>
      <trkpt lat="46.04785" lon="4.5449">
        <ele>689</ele>
        <time>2016-11-27T10:41:09.000Z</time>
      </trkpt>
      <trkpt lat="46.04787" lon="4.54493">
        <ele>689</ele>
        <time>2016-11-27T10:41:10.000Z</time>
      </trkpt>
      <trkpt lat="46.04788" lon="4.54495">
        <ele>689</ele>
        <time>2016-11-27T10:41:11.000Z</time>
      </trkpt>
      <trkpt lat="46.04789" lon="4.54497">
        <ele>688</ele>
        <time>2016-11-27T10:41:12.000Z</time>
      </trkpt>
      <trkpt lat="46.04789" lon="4.54499">
        <ele>688</ele>
        <time>2016-11-27T10:41:13.000Z</time>
      </trkpt>
      <trkpt lat="46.04789" lon="4.54501">
        <ele>686</ele>
        <time>2016-11-27T10:41:14.000Z</time>
      </trkpt>
      <trkpt lat="46.04789" lon="4.54504">
        <ele>686</ele>
        <time>2016-11-27T10:41:15.000Z</time>
      </trkpt>
      <trkpt lat="46.04788" lon="4.54506">
        <ele>686</ele>
        <time>2016-11-27T10:41:16.000Z</time>
      </trkpt>
      <trkpt lat="46.04787" lon="4.54509">
        <ele>686</ele>
        <time>2016-11-27T10:41:17.000Z</time>
      </trkpt>
      <trkpt lat="46.04786" lon="4.54512">
        <ele>685</ele>
        <time>2016-11-27T10:41:18.000Z</time>
      </trkpt>
      <trkpt lat="46.04784" lon="4.54515">
        <ele>684</ele>
        <time>2016-11-27T10:41:19.000Z</time>
      </trkpt>
      <trkpt lat="46.04782" lon="4.54517">
        <ele>683</ele>
        <time>2016-11-27T10:41:20.000Z</time>
      </trkpt>
      <trkpt lat="46.0478" lon="4.54518">
        <ele>683</ele>
        <time>2016-11-27T10:41:21.000Z</time>
      </trkpt>
      <trkpt lat="46.04778" lon="4.54519">
        <ele>683</ele>
        <time>2016-11-27T10:41:22.000Z</time>
      </trkpt>
      <trkpt lat="46.04776" lon="4.54521">
        <ele>683</ele>
        <time>2016-11-27T10:41:23.000Z</time>
      </trkpt>
      <trkpt lat="46.04773" lon="4.54522">
        <ele>682</ele>
        <time>2016-11-27T10:41:24.000Z</time>
      </trkpt>
      <trkpt lat="46.0477" lon="4.54522">
        <ele>680</ele>
        <time>2016-11-27T10:41:25.000Z</time>
      </trkpt>
      <trkpt lat="46.04767" lon="4.54523">
        <ele>680</ele>
        <time>2016-11-27T10:41:26.000Z</time>
      </trkpt>
      <trkpt lat="46.04763" lon="4.54523">
        <ele>680</ele>
        <time>2016-11-27T10:41:27.000Z</time>
      </trkpt>
      <trkpt lat="46.0476" lon="4.54523">
        <ele>680</ele>
        <time>2016-11-27T10:41:28.000Z</time>
      </trkpt>
      <trkpt lat="46.04757" lon="4.54523">
        <ele>680</ele>
        <time>2016-11-27T10:41:29.000Z</time>
      </trkpt>
      <trkpt lat="46.04754" lon="4.54523">
        <ele>679</ele>
        <time>2016-11-27T10:41:30.000Z</time>
      </trkpt>
      <trkpt lat="46.04751" lon="4.54522">
        <ele>678</ele>
        <time>2016-11-27T10:41:31.000Z</time>
      </trkpt>
      <trkpt lat="46.04748" lon="4.54522">
        <ele>677</ele>
        <time>2016-11-27T10:41:32.000Z</time>
      </trkpt>
      <trkpt lat="46.04745" lon="4.54521">
        <ele>676</ele>
        <time>2016-11-27T10:41:33.000Z</time>
      </trkpt>
      <trkpt lat="46.04741" lon="4.54521">
        <ele>676</ele>
        <time>2016-11-27T10:41:34.000Z</time>
      </trkpt>
      <trkpt lat="46.04738" lon="4.5452">
        <ele>676</ele>
        <time>2016-11-27T10:41:35.000Z</time>
      </trkpt>
      <trkpt lat="46.04735" lon="4.54519">
        <ele>675</ele>
        <time>2016-11-27T10:41:36.000Z</time>
      </trkpt>
      <trkpt lat="46.04732" lon="4.54518">
        <ele>675</ele>
        <time>2016-11-27T10:41:37.000Z</time>
      </trkpt>
      <trkpt lat="46.04729" lon="4.54516">
        <ele>674</ele>
        <time>2016-11-27T10:41:38.000Z</time>
      </trkpt>
      <trkpt lat="46.04726" lon="4.54515">
        <ele>674</ele>
        <time>2016-11-27T10:41:39.000Z</time>
      </trkpt>
      <trkpt lat="46.04723" lon="4.54514">
        <ele>674</ele>
        <time>2016-11-27T10:41:40.000Z</time>
      </trkpt>
      <trkpt lat="46.0472" lon="4.54513">
        <ele>673</ele>
        <time>2016-11-27T10:41:41.000Z</time>
      </trkpt>
      <trkpt lat="46.04717" lon="4.54512">
        <ele>672</ele>
        <time>2016-11-27T10:41:42.000Z</time>
      </trkpt>
      <trkpt lat="46.04713" lon="4.5451">
        <ele>672</ele>
        <time>2016-11-27T10:41:43.000Z</time>
      </trkpt>
      <trkpt lat="46.0471" lon="4.54507">
        <ele>671</ele>
        <time>2016-11-27T10:41:44.000Z</time>
      </trkpt>
      <trkpt lat="46.04707" lon="4.54505">
        <ele>671</ele>
        <time>2016-11-27T10:41:45.000Z</time>
      </trkpt>
      <trkpt lat="46.04704" lon="4.54504">
        <ele>671</ele>
        <time>2016-11-27T10:41:46.000Z</time>
      </trkpt>
      <trkpt lat="46.04701" lon="4.54502">
        <ele>670</ele>
        <time>2016-11-27T10:41:47.000Z</time>
      </trkpt>
      <trkpt lat="46.04698" lon="4.545">
        <ele>669</ele>
        <time>2016-11-27T10:41:48.000Z</time>
      </trkpt>
      <trkpt lat="46.04695" lon="4.54499">
        <ele>668</ele>
        <time>2016-11-27T10:41:49.000Z</time>
      </trkpt>
      <trkpt lat="46.04692" lon="4.54497">
        <ele>668</ele>
        <time>2016-11-27T10:41:50.000Z</time>
      </trkpt>
      <trkpt lat="46.04689" lon="4.54495">
        <ele>668</ele>
        <time>2016-11-27T10:41:51.000Z</time>
      </trkpt>
      <trkpt lat="46.04686" lon="4.54493">
        <ele>667</ele>
        <time>2016-11-27T10:41:52.000Z</time>
      </trkpt>
      <trkpt lat="46.04683" lon="4.54492">
        <ele>668</ele>
        <time>2016-11-27T10:41:53.000Z</time>
      </trkpt>
      <trkpt lat="46.04681" lon="4.54493">
        <ele>663</ele>
        <time>2016-11-27T10:41:54.000Z</time>
      </trkpt>
      <trkpt lat="46.0468" lon="4.54495">
        <ele>662</ele>
        <time>2016-11-27T10:41:55.000Z</time>
      </trkpt>
      <trkpt lat="46.0468" lon="4.54498">
        <ele>661</ele>
        <time>2016-11-27T10:41:56.000Z</time>
      </trkpt>
      <trkpt lat="46.04679" lon="4.54501">
        <ele>661</ele>
        <time>2016-11-27T10:41:57.000Z</time>
      </trkpt>
      <trkpt lat="46.04679" lon="4.54504">
        <ele>661</ele>
        <time>2016-11-27T10:41:58.000Z</time>
      </trkpt>
      <trkpt lat="46.04679" lon="4.54507">
        <ele>660</ele>
        <time>2016-11-27T10:41:59.000Z</time>
      </trkpt>
      <trkpt lat="46.0468" lon="4.5451">
        <ele>659</ele>
        <time>2016-11-27T10:42:00.000Z</time>
      </trkpt>
      <trkpt lat="46.0468" lon="4.54513">
        <ele>659</ele>
        <time>2016-11-27T10:42:01.000Z</time>
      </trkpt>
      <trkpt lat="46.0468" lon="4.54516">
        <ele>658</ele>
        <time>2016-11-27T10:42:02.000Z</time>
      </trkpt>
      <trkpt lat="46.04681" lon="4.54519">
        <ele>657</ele>
        <time>2016-11-27T10:42:03.000Z</time>
      </trkpt>
      <trkpt lat="46.04682" lon="4.54521">
        <ele>656</ele>
        <time>2016-11-27T10:42:04.000Z</time>
      </trkpt>
      <trkpt lat="46.04683" lon="4.54524">
        <ele>655</ele>
        <time>2016-11-27T10:42:05.000Z</time>
      </trkpt>
      <trkpt lat="46.04684" lon="4.54527">
        <ele>654</ele>
        <time>2016-11-27T10:42:06.000Z</time>
      </trkpt>
      <trkpt lat="46.04685" lon="4.54531">
        <ele>653</ele>
        <time>2016-11-27T10:42:07.000Z</time>
      </trkpt>
      <trkpt lat="46.04686" lon="4.54535">
        <ele>653</ele>
        <time>2016-11-27T10:42:08.000Z</time>
      </trkpt>
      <trkpt lat="46.04688" lon="4.54538">
        <ele>652</ele>
        <time>2016-11-27T10:42:09.000Z</time>
      </trkpt>
      <trkpt lat="46.0469" lon="4.54542">
        <ele>652</ele>
        <time>2016-11-27T10:42:10.000Z</time>
      </trkpt>
      <trkpt lat="46.04692" lon="4.54546">
        <ele>652</ele>
        <time>2016-11-27T10:42:11.000Z</time>
      </trkpt>
      <trkpt lat="46.04694" lon="4.54551">
        <ele>653</ele>
        <time>2016-11-27T10:42:12.000Z</time>
      </trkpt>
      <trkpt lat="46.04696" lon="4.54556">
        <ele>654</ele>
        <time>2016-11-27T10:42:13.000Z</time>
      </trkpt>
      <trkpt lat="46.04697" lon="4.54561">
        <ele>654</ele>
        <time>2016-11-27T10:42:14.000Z</time>
      </trkpt>
      <trkpt lat="46.04698" lon="4.54565">
        <ele>654</ele>
        <time>2016-11-27T10:42:15.000Z</time>
      </trkpt>
      <trkpt lat="46.047" lon="4.54569">
        <ele>654</ele>
        <time>2016-11-27T10:42:16.000Z</time>
      </trkpt>
      <trkpt lat="46.04702" lon="4.54573">
        <ele>655</ele>
        <time>2016-11-27T10:42:17.000Z</time>
      </trkpt>
      <trkpt lat="46.04704" lon="4.54577">
        <ele>654</ele>
        <time>2016-11-27T10:42:18.000Z</time>
      </trkpt>
      <trkpt lat="46.04706" lon="4.54581">
        <ele>653</ele>
        <time>2016-11-27T10:42:19.000Z</time>
      </trkpt>
      <trkpt lat="46.04708" lon="4.54585">
        <ele>653</ele>
        <time>2016-11-27T10:42:20.000Z</time>
      </trkpt>
      <trkpt lat="46.0471" lon="4.54588">
        <ele>652</ele>
        <time>2016-11-27T10:42:21.000Z</time>
      </trkpt>
      <trkpt lat="46.04711" lon="4.54591">
        <ele>651</ele>
        <time>2016-11-27T10:42:22.000Z</time>
      </trkpt>
      <trkpt lat="46.04713" lon="4.54595">
        <ele>652</ele>
        <time>2016-11-27T10:42:23.000Z</time>
      </trkpt>
      <trkpt lat="46.04715" lon="4.54598">
        <ele>652</ele>
        <time>2016-11-27T10:42:24.000Z</time>
      </trkpt>
      <trkpt lat="46.04717" lon="4.54601">
        <ele>653</ele>
        <time>2016-11-27T10:42:25.000Z</time>
      </trkpt>
      <trkpt lat="46.04719" lon="4.54603">
        <ele>653</ele>
        <time>2016-11-27T10:42:26.000Z</time>
      </trkpt>
      <trkpt lat="46.0472" lon="4.54605">
        <ele>654</ele>
        <time>2016-11-27T10:42:27.000Z</time>
      </trkpt>
      <trkpt lat="46.04721" lon="4.54607">
        <ele>654</ele>
        <time>2016-11-27T10:42:28.000Z</time>
      </trkpt>
      <trkpt lat="46.04722" lon="4.54609">
        <ele>655</ele>
        <time>2016-11-27T10:42:29.000Z</time>
      </trkpt>
      <trkpt lat="46.04723" lon="4.5461">
        <ele>655</ele>
        <time>2016-11-27T10:42:30.000Z</time>
      </trkpt>
      <trkpt lat="46.04724" lon="4.54611">
        <ele>655</ele>
        <time>2016-11-27T10:42:31.000Z</time>
      </trkpt>
      <trkpt lat="46.04724" lon="4.54611">
        <ele>655</ele>
        <time>2016-11-27T10:42:32.000Z</time>
      </trkpt>
      <trkpt lat="46.04725" lon="4.54612">
        <ele>655</ele>
        <time>2016-11-27T10:42:33.000Z</time>
      </trkpt>
      <trkpt lat="46.04725" lon="4.54612">
        <ele>656</ele>
        <time>2016-11-27T10:42:34.000Z</time>
      </trkpt>
      <trkpt lat="46.04726" lon="4.54612">
        <ele>657</ele>
        <time>2016-11-27T10:42:35.000Z</time>
      </trkpt>
      <trkpt lat="46.04726" lon="4.54613">
        <ele>657</ele>
        <time>2016-11-27T10:42:36.000Z</time>
      </trkpt>
      <trkpt lat="46.04727" lon="4.54613">
        <ele>658</ele>
        <time>2016-11-27T10:42:37.000Z</time>
      </trkpt>
      <trkpt lat="46.04727" lon="4.54613">
        <ele>659</ele>
        <time>2016-11-27T10:42:38.000Z</time>
      </trkpt>
      <trkpt lat="46.04728" lon="4.54613">
        <ele>659</ele>
        <time>2016-11-27T10:42:39.000Z</time>
      </trkpt>
      <trkpt lat="46.04728" lon="4.54614">
        <ele>659</ele>
        <time>2016-11-27T10:42:40.000Z</time>
      </trkpt>
      <trkpt lat="46.04729" lon="4.54614">
        <ele>660</ele>
        <time>2016-11-27T10:42:41.000Z</time>
      </trkpt>
      <trkpt lat="46.04729" lon="4.54614">
        <ele>660</ele>
        <time>2016-11-27T10:42:42.000Z</time>
      </trkpt>
      <trkpt lat="46.04729" lon="4.54614">
        <ele>660</ele>
        <time>2016-11-27T10:42:43.000Z</time>
      </trkpt>
      <trkpt lat="46.04729" lon="4.54615">
        <ele>660</ele>
        <time>2016-11-27T10:42:44.000Z</time>
      </trkpt>
      <trkpt lat="46.04729" lon="4.54615">
        <ele>661</ele>
        <time>2016-11-27T10:42:45.000Z</time>
      </trkpt>
      <trkpt lat="46.04729" lon="4.54615">
        <ele>663</ele>
        <time>2016-11-27T10:42:46.000Z</time>
      </trkpt>
      <trkpt lat="46.04729" lon="4.54615">
        <ele>664</ele>
        <time>2016-11-27T10:42:47.000Z</time>
      </trkpt>
      <trkpt lat="46.04728" lon="4.54616">
        <ele>665</ele>
        <time>2016-11-27T10:42:48.000Z</time>
      </trkpt>
      <trkpt lat="46.04728" lon="4.54616">
        <ele>665</ele>
        <time>2016-11-27T10:42:49.000Z</time>
      </trkpt>
      <trkpt lat="46.04727" lon="4.54616">
        <ele>665</ele>
        <time>2016-11-27T10:42:50.000Z</time>
      </trkpt>
      <trkpt lat="46.04727" lon="4.54616">
        <ele>666</ele>
        <time>2016-11-27T10:42:51.000Z</time>
      </trkpt>
      <trkpt lat="46.04727" lon="4.54617">
        <ele>665</ele>
        <time>2016-11-27T10:42:52.000Z</time>
      </trkpt>
      <trkpt lat="46.04726" lon="4.54617">
        <ele>665</ele>
        <time>2016-11-27T10:42:53.000Z</time>
      </trkpt>
      <trkpt lat="46.04725" lon="4.54618">
        <ele>666</ele>
        <time>2016-11-27T10:42:54.000Z</time>
      </trkpt>
      <trkpt lat="46.04725" lon="4.54618">
        <ele>665</ele>
        <time>2016-11-27T10:42:55.000Z</time>
      </trkpt>
      <trkpt lat="46.04724" lon="4.54619">
        <ele>665</ele>
        <time>2016-11-27T10:42:56.000Z</time>
      </trkpt>
      <trkpt lat="46.04722" lon="4.54621">
        <ele>663</ele>
        <time>2016-11-27T10:42:57.000Z</time>
      </trkpt>
      <trkpt lat="46.04721" lon="4.54622">
        <ele>662</ele>
        <time>2016-11-27T10:42:58.000Z</time>
      </trkpt>
      <trkpt lat="46.04719" lon="4.54623">
        <ele>661</ele>
        <time>2016-11-27T10:42:59.000Z</time>
      </trkpt>
      <trkpt lat="46.04717" lon="4.54623">
        <ele>661</ele>
        <time>2016-11-27T10:43:00.000Z</time>
      </trkpt>
      <trkpt lat="46.04715" lon="4.54623">
        <ele>660</ele>
        <time>2016-11-27T10:43:01.000Z</time>
      </trkpt>
      <trkpt lat="46.04714" lon="4.54623">
        <ele>659</ele>
        <time>2016-11-27T10:43:02.000Z</time>
      </trkpt>
      <trkpt lat="46.04713" lon="4.54622">
        <ele>659</ele>
        <time>2016-11-27T10:43:03.000Z</time>
      </trkpt>
      <trkpt lat="46.04712" lon="4.54622">
        <ele>659</ele>
        <time>2016-11-27T10:43:04.000Z</time>
      </trkpt>
      <trkpt lat="46.04711" lon="4.54623">
        <ele>659</ele>
        <time>2016-11-27T10:43:05.000Z</time>
      </trkpt>
      <trkpt lat="46.0471" lon="4.54623">
        <ele>658</ele>
        <time>2016-11-27T10:43:06.000Z</time>
      </trkpt>
      <trkpt lat="46.04709" lon="4.54624">
        <ele>657</ele>
        <time>2016-11-27T10:43:07.000Z</time>
      </trkpt>
      <trkpt lat="46.04707" lon="4.54624">
        <ele>655</ele>
        <time>2016-11-27T10:43:08.000Z</time>
      </trkpt>
      <trkpt lat="46.04706" lon="4.54625">
        <ele>655</ele>
        <time>2016-11-27T10:43:09.000Z</time>
      </trkpt>
      <trkpt lat="46.04706" lon="4.54625">
        <ele>655</ele>
        <time>2016-11-27T10:43:10.000Z</time>
      </trkpt>
      <trkpt lat="46.04705" lon="4.54624">
        <ele>655</ele>
        <time>2016-11-27T10:43:11.000Z</time>
      </trkpt>
      <trkpt lat="46.04704" lon="4.54624">
        <ele>655</ele>
        <time>2016-11-27T10:43:12.000Z</time>
      </trkpt>
      <trkpt lat="46.04704" lon="4.54623">
        <ele>655</ele>
        <time>2016-11-27T10:43:13.000Z</time>
      </trkpt>
      <trkpt lat="46.04703" lon="4.54622">
        <ele>655</ele>
        <time>2016-11-27T10:43:14.000Z</time>
      </trkpt>
      <trkpt lat="46.04703" lon="4.54622">
        <ele>655</ele>
        <time>2016-11-27T10:43:15.000Z</time>
      </trkpt>
      <trkpt lat="46.04702" lon="4.54622">
        <ele>655</ele>
        <time>2016-11-27T10:43:16.000Z</time>
      </trkpt>
      <trkpt lat="46.04701" lon="4.54621">
        <ele>655</ele>
        <time>2016-11-27T10:43:17.000Z</time>
      </trkpt>
      <trkpt lat="46.04701" lon="4.5462">
        <ele>655</ele>
        <time>2016-11-27T10:43:18.000Z</time>
      </trkpt>
      <trkpt lat="46.047" lon="4.54619">
        <ele>655</ele>
        <time>2016-11-27T10:43:19.000Z</time>
      </trkpt>
      <trkpt lat="46.047" lon="4.54619">
        <ele>655</ele>
        <time>2016-11-27T10:43:20.000Z</time>
      </trkpt>
      <trkpt lat="46.04699" lon="4.54619">
        <ele>655</ele>
        <time>2016-11-27T10:43:21.000Z</time>
      </trkpt>
      <trkpt lat="46.04698" lon="4.54618">
        <ele>655</ele>
        <time>2016-11-27T10:43:22.000Z</time>
      </trkpt>
      <trkpt lat="46.04697" lon="4.54618">
        <ele>655</ele>
        <time>2016-11-27T10:43:23.000Z</time>
      </trkpt>
      <trkpt lat="46.04696" lon="4.54618">
        <ele>655</ele>
        <time>2016-11-27T10:43:24.000Z</time>
      </trkpt>
      <trkpt lat="46.04696" lon="4.54618">
        <ele>655</ele>
        <time>2016-11-27T10:43:25.000Z</time>
      </trkpt>
      <trkpt lat="46.04696" lon="4.54618">
        <ele>655</ele>
        <time>2016-11-27T10:43:26.000Z</time>
      </trkpt>
      <trkpt lat="46.04696" lon="4.54618">
        <ele>655</ele>
        <time>2016-11-27T10:43:27.000Z</time>
      </trkpt>
      <trkpt lat="46.04696" lon="4.54618">
        <ele>655</ele>
        <time>2016-11-27T10:43:28.000Z</time>
      </trkpt>
      <trkpt lat="46.04696" lon="4.54618">
        <ele>655</ele>
        <time>2016-11-27T10:43:29.000Z</time>
      </trkpt>
      <trkpt lat="46.04696" lon="4.54617">
        <ele>655</ele>
        <time>2016-11-27T10:43:30.000Z</time>
      </trkpt>
      <trkpt lat="46.04696" lon="4.54617">
        <ele>655</ele>
        <time>2016-11-27T10:43:31.000Z</time>
      </trkpt>
      <trkpt lat="46.04696" lon="4.54617">
        <ele>655</ele>
        <time>2016-11-27T10:43:32.000Z</time>
      </trkpt>
      <trkpt lat="46.04695" lon="4.54617">
        <ele>655</ele>
        <time>2016-11-27T10:43:33.000Z</time>
      </trkpt>
      <trkpt lat="46.04695" lon="4.54617">
        <ele>655</ele>
        <time>2016-11-27T10:43:34.000Z</time>
      </trkpt>
      <trkpt lat="46.04695" lon="4.54617">
        <ele>655</ele>
        <time>2016-11-27T10:43:35.000Z</time>
      </trkpt>
      <trkpt lat="46.04695" lon="4.54617">
        <ele>655</ele>
        <time>2016-11-27T10:43:36.000Z</time>
      </trkpt>
      <trkpt lat="46.04695" lon="4.54617">
        <ele>655</ele>
        <time>2016-11-27T10:43:37.000Z</time>
      </trkpt>
      <trkpt lat="46.04695" lon="4.54617">
        <ele>655</ele>
        <time>2016-11-27T10:43:38.000Z</time>
      </trkpt>
      <trkpt lat="46.04695" lon="4.54617">
        <ele>655</ele>
        <time>2016-11-27T10:43:39.000Z</time>
      </trkpt>
      <trkpt lat="46.04695" lon="4.54617">
        <ele>654</ele>
        <time>2016-11-27T10:43:40.000Z</time>
      </trkpt>
      <trkpt lat="46.04695" lon="4.54618">
        <ele>655</ele>
        <time>2016-11-27T10:43:41.000Z</time>
      </trkpt>
      <trkpt lat="46.04695" lon="4.54618">
        <ele>655</ele>
        <time>2016-11-27T10:43:42.000Z</time>
      </trkpt>
      <trkpt lat="46.04695" lon="4.54618">
        <ele>655</ele>
        <time>2016-11-27T10:43:43.000Z</time>
      </trkpt>
      <trkpt lat="46.04695" lon="4.54618">
        <ele>655</ele>
        <time>2016-11-27T10:43:44.000Z</time>
      </trkpt>
      <trkpt lat="46.04695" lon="4.54618">
        <ele>656</ele>
        <time>2016-11-27T10:43:45.000Z</time>
      </trkpt>
      <trkpt lat="46.04695" lon="4.54619">
        <ele>656</ele>
        <time>2016-11-27T10:43:46.000Z</time>
      </trkpt>
      <trkpt lat="46.04695" lon="4.54619">
        <ele>657</ele>
        <time>2016-11-27T10:43:47.000Z</time>
      </trkpt>
      <trkpt lat="46.04695" lon="4.54619">
        <ele>657</ele>
        <time>2016-11-27T10:43:48.000Z</time>
      </trkpt>
      <trkpt lat="46.04695" lon="4.54619">
        <ele>657</ele>
        <time>2016-11-27T10:43:49.000Z</time>
      </trkpt>
      <trkpt lat="46.04695" lon="4.54619">
        <ele>657</ele>
        <time>2016-11-27T10:43:50.000Z</time>
      </trkpt>
      <trkpt lat="46.04695" lon="4.54619">
        <ele>657</ele>
        <time>2016-11-27T10:43:51.000Z</time>
      </trkpt>
      <trkpt lat="46.04695" lon="4.5462">
        <ele>657</ele>
        <time>2016-11-27T10:43:52.000Z</time>
      </trkpt>
      <trkpt lat="46.04694" lon="4.5462">
        <ele>657</ele>
        <time>2016-11-27T10:43:53.000Z</time>
      </trkpt>
      <trkpt lat="46.04695" lon="4.5462">
        <ele>657</ele>
        <time>2016-11-27T10:43:54.000Z</time>
      </trkpt>
      <trkpt lat="46.04695" lon="4.5462">
        <ele>657</ele>
        <time>2016-11-27T10:43:55.000Z</time>
      </trkpt>
      <trkpt lat="46.04695" lon="4.54621">
        <ele>657</ele>
        <time>2016-11-27T10:43:56.000Z</time>
      </trkpt>
      <trkpt lat="46.04695" lon="4.54621">
        <ele>657</ele>
        <time>2016-11-27T10:43:57.000Z</time>
      </trkpt>
      <trkpt lat="46.04695" lon="4.54621">
        <ele>657</ele>
        <time>2016-11-27T10:43:58.000Z</time>
      </trkpt>
      <trkpt lat="46.04696" lon="4.54621">
        <ele>657</ele>
        <time>2016-11-27T10:43:59.000Z</time>
      </trkpt>
      <trkpt lat="46.04696" lon="4.54621">
        <ele>657</ele>
        <time>2016-11-27T10:44:00.000Z</time>
      </trkpt>
      <trkpt lat="46.04696" lon="4.54621">
        <ele>657</ele>
        <time>2016-11-27T10:44:01.000Z</time>
      </trkpt>
      <trkpt lat="46.04697" lon="4.54621">
        <ele>658</ele>
        <time>2016-11-27T10:44:02.000Z</time>
      </trkpt>
      <trkpt lat="46.04697" lon="4.54621">
        <ele>658</ele>
        <time>2016-11-27T10:44:03.000Z</time>
      </trkpt>
      <trkpt lat="46.04698" lon="4.54622">
        <ele>658</ele>
        <time>2016-11-27T10:44:04.000Z</time>
      </trkpt>
      <trkpt lat="46.04699" lon="4.54622">
        <ele>658</ele>
        <time>2016-11-27T10:44:05.000Z</time>
      </trkpt>
      <trkpt lat="46.04699" lon="4.54623">
        <ele>658</ele>
        <time>2016-11-27T10:44:06.000Z</time>
      </trkpt>
      <trkpt lat="46.047" lon="4.54624">
        <ele>658</ele>
        <time>2016-11-27T10:44:07.000Z</time>
      </trkpt>
      <trkpt lat="46.04701" lon="4.54625">
        <ele>658</ele>
        <time>2016-11-27T10:44:08.000Z</time>
      </trkpt>
      <trkpt lat="46.04702" lon="4.54626">
        <ele>658</ele>
        <time>2016-11-27T10:44:09.000Z</time>
      </trkpt>
      <trkpt lat="46.04703" lon="4.54627">
        <ele>658</ele>
        <time>2016-11-27T10:44:10.000Z</time>
      </trkpt>
      <trkpt lat="46.04703" lon="4.54628">
        <ele>658</ele>
        <time>2016-11-27T10:44:11.000Z</time>
      </trkpt>
      <trkpt lat="46.04704" lon="4.5463">
        <ele>658</ele>
        <time>2016-11-27T10:44:12.000Z</time>
      </trkpt>
      <trkpt lat="46.04704" lon="4.54631">
        <ele>658</ele>
        <time>2016-11-27T10:44:13.000Z</time>
      </trkpt>
      <trkpt lat="46.04704" lon="4.54633">
        <ele>657</ele>
        <time>2016-11-27T10:44:14.000Z</time>
      </trkpt>
      <trkpt lat="46.04704" lon="4.54635">
        <ele>657</ele>
        <time>2016-11-27T10:44:15.000Z</time>
      </trkpt>
      <trkpt lat="46.04705" lon="4.54637">
        <ele>656</ele>
        <time>2016-11-27T10:44:16.000Z</time>
      </trkpt>
      <trkpt lat="46.04705" lon="4.5464">
        <ele>656</ele>
        <time>2016-11-27T10:44:17.000Z</time>
      </trkpt>
      <trkpt lat="46.04706" lon="4.54641">
        <ele>655</ele>
        <time>2016-11-27T10:44:18.000Z</time>
      </trkpt>
      <trkpt lat="46.04706" lon="4.54643">
        <ele>655</ele>
        <time>2016-11-27T10:44:19.000Z</time>
      </trkpt>
      <trkpt lat="46.04706" lon="4.54645">
        <ele>655</ele>
        <time>2016-11-27T10:44:20.000Z</time>
      </trkpt>
      <trkpt lat="46.04707" lon="4.54646">
        <ele>654</ele>
        <time>2016-11-27T10:44:21.000Z</time>
      </trkpt>
      <trkpt lat="46.04707" lon="4.54648">
        <ele>653</ele>
        <time>2016-11-27T10:44:22.000Z</time>
      </trkpt>
      <trkpt lat="46.04708" lon="4.5465">
        <ele>652</ele>
        <time>2016-11-27T10:44:23.000Z</time>
      </trkpt>
      <trkpt lat="46.04709" lon="4.54653">
        <ele>650</ele>
        <time>2016-11-27T10:44:24.000Z</time>
      </trkpt>
      <trkpt lat="46.04709" lon="4.54655">
        <ele>650</ele>
        <time>2016-11-27T10:44:25.000Z</time>
      </trkpt>
      <trkpt lat="46.0471" lon="4.54656">
        <ele>648</ele>
        <time>2016-11-27T10:44:26.000Z</time>
      </trkpt>
      <trkpt lat="46.0471" lon="4.54658">
        <ele>647</ele>
        <time>2016-11-27T10:44:27.000Z</time>
      </trkpt>
      <trkpt lat="46.04711" lon="4.54659">
        <ele>646</ele>
        <time>2016-11-27T10:44:28.000Z</time>
      </trkpt>
      <trkpt lat="46.04711" lon="4.5466">
        <ele>645</ele>
        <time>2016-11-27T10:44:29.000Z</time>
      </trkpt>
      <trkpt lat="46.04712" lon="4.54663">
        <ele>644</ele>
        <time>2016-11-27T10:44:30.000Z</time>
      </trkpt>
      <trkpt lat="46.04712" lon="4.54665">
        <ele>643</ele>
        <time>2016-11-27T10:44:31.000Z</time>
      </trkpt>
      <trkpt lat="46.04712" lon="4.54668">
        <ele>643</ele>
        <time>2016-11-27T10:44:32.000Z</time>
      </trkpt>
      <trkpt lat="46.04713" lon="4.5467">
        <ele>642</ele>
        <time>2016-11-27T10:44:33.000Z</time>
      </trkpt>
      <trkpt lat="46.04713" lon="4.54672">
        <ele>642</ele>
        <time>2016-11-27T10:44:34.000Z</time>
      </trkpt>
      <trkpt lat="46.04713" lon="4.54673">
        <ele>642</ele>
        <time>2016-11-27T10:44:35.000Z</time>
      </trkpt>
      <trkpt lat="46.04713" lon="4.54674">
        <ele>642</ele>
        <time>2016-11-27T10:44:36.000Z</time>
      </trkpt>
      <trkpt lat="46.04713" lon="4.54675">
        <ele>643</ele>
        <time>2016-11-27T10:44:37.000Z</time>
      </trkpt>
      <trkpt lat="46.04714" lon="4.54675">
        <ele>643</ele>
        <time>2016-11-27T10:44:38.000Z</time>
      </trkpt>
      <trkpt lat="46.04714" lon="4.54676">
        <ele>643</ele>
        <time>2016-11-27T10:44:39.000Z</time>
      </trkpt>
      <trkpt lat="46.04714" lon="4.54676">
        <ele>642</ele>
        <time>2016-11-27T10:44:40.000Z</time>
      </trkpt>
      <trkpt lat="46.04714" lon="4.54676">
        <ele>642</ele>
        <time>2016-11-27T10:44:41.000Z</time>
      </trkpt>
      <trkpt lat="46.04714" lon="4.54676">
        <ele>642</ele>
        <time>2016-11-27T10:44:42.000Z</time>
      </trkpt>
      <trkpt lat="46.04714" lon="4.54677">
        <ele>643</ele>
        <time>2016-11-27T10:44:43.000Z</time>
      </trkpt>
      <trkpt lat="46.04715" lon="4.54678">
        <ele>643</ele>
        <time>2016-11-27T10:44:44.000Z</time>
      </trkpt>
      <trkpt lat="46.04715" lon="4.54679">
        <ele>643</ele>
        <time>2016-11-27T10:44:45.000Z</time>
      </trkpt>
      <trkpt lat="46.04715" lon="4.54679">
        <ele>643</ele>
        <time>2016-11-27T10:44:46.000Z</time>
      </trkpt>
      <trkpt lat="46.04715" lon="4.5468">
        <ele>643</ele>
        <time>2016-11-27T10:44:47.000Z</time>
      </trkpt>
      <trkpt lat="46.04715" lon="4.5468">
        <ele>643</ele>
        <time>2016-11-27T10:44:48.000Z</time>
      </trkpt>
      <trkpt lat="46.04715" lon="4.5468">
        <ele>642</ele>
        <time>2016-11-27T10:44:49.000Z</time>
      </trkpt>
      <trkpt lat="46.04714" lon="4.54681">
        <ele>642</ele>
        <time>2016-11-27T10:44:50.000Z</time>
      </trkpt>
      <trkpt lat="46.04714" lon="4.54681">
        <ele>642</ele>
        <time>2016-11-27T10:44:51.000Z</time>
      </trkpt>
      <trkpt lat="46.04713" lon="4.54682">
        <ele>641</ele>
        <time>2016-11-27T10:44:52.000Z</time>
      </trkpt>
      <trkpt lat="46.04713" lon="4.54682">
        <ele>641</ele>
        <time>2016-11-27T10:44:53.000Z</time>
      </trkpt>
      <trkpt lat="46.04713" lon="4.54682">
        <ele>642</ele>
        <time>2016-11-27T10:44:54.000Z</time>
      </trkpt>
      <trkpt lat="46.04713" lon="4.54683">
        <ele>642</ele>
        <time>2016-11-27T10:44:55.000Z</time>
      </trkpt>
      <trkpt lat="46.04712" lon="4.54684">
        <ele>642</ele>
        <time>2016-11-27T10:44:56.000Z</time>
      </trkpt>
      <trkpt lat="46.04712" lon="4.54685">
        <ele>642</ele>
        <time>2016-11-27T10:44:57.000Z</time>
      </trkpt>
      <trkpt lat="46.04711" lon="4.54685">
        <ele>641</ele>
        <time>2016-11-27T10:44:58.000Z</time>
      </trkpt>
      <trkpt lat="46.0471" lon="4.54686">
        <ele>641</ele>
        <time>2016-11-27T10:44:59.000Z</time>
      </trkpt>
      <trkpt lat="46.04709" lon="4.54687">
        <ele>640</ele>
        <time>2016-11-27T10:45:00.000Z</time>
      </trkpt>
      <trkpt lat="46.04708" lon="4.54688">
        <ele>639</ele>
        <time>2016-11-27T10:45:01.000Z</time>
      </trkpt>
      <trkpt lat="46.04706" lon="4.54689">
        <ele>640</ele>
        <time>2016-11-27T10:45:02.000Z</time>
      </trkpt>
      <trkpt lat="46.04705" lon="4.5469">
        <ele>639</ele>
        <time>2016-11-27T10:45:03.000Z</time>
      </trkpt>
      <trkpt lat="46.04703" lon="4.5469">
        <ele>638</ele>
        <time>2016-11-27T10:45:04.000Z</time>
      </trkpt>
      <trkpt lat="46.04701" lon="4.54691">
        <ele>637</ele>
        <time>2016-11-27T10:45:05.000Z</time>
      </trkpt>
      <trkpt lat="46.047" lon="4.54693">
        <ele>637</ele>
        <time>2016-11-27T10:45:06.000Z</time>
      </trkpt>
      <trkpt lat="46.04698" lon="4.54694">
        <ele>636</ele>
        <time>2016-11-27T10:45:07.000Z</time>
      </trkpt>
      <trkpt lat="46.04698" lon="4.54695">
        <ele>636</ele>
        <time>2016-11-27T10:45:08.000Z</time>
      </trkpt>
      <trkpt lat="46.04698" lon="4.54695">
        <ele>636</ele>
        <time>2016-11-27T10:45:09.000Z</time>
      </trkpt>
      <trkpt lat="46.04698" lon="4.54695">
        <ele>636</ele>
        <time>2016-11-27T10:45:10.000Z</time>
      </trkpt>
      <trkpt lat="46.04697" lon="4.54695">
        <ele>636</ele>
        <time>2016-11-27T10:45:11.000Z</time>
      </trkpt>
      <trkpt lat="46.04697" lon="4.54695">
        <ele>636</ele>
        <time>2016-11-27T10:45:12.000Z</time>
      </trkpt>
      <trkpt lat="46.04697" lon="4.54696">
        <ele>635</ele>
        <time>2016-11-27T10:45:13.000Z</time>
      </trkpt>
      <trkpt lat="46.04696" lon="4.54696">
        <ele>634</ele>
        <time>2016-11-27T10:45:14.000Z</time>
      </trkpt>
      <trkpt lat="46.04696" lon="4.54697">
        <ele>634</ele>
        <time>2016-11-27T10:45:15.000Z</time>
      </trkpt>
      <trkpt lat="46.04695" lon="4.54697">
        <ele>633</ele>
        <time>2016-11-27T10:45:16.000Z</time>
      </trkpt>
      <trkpt lat="46.04695" lon="4.54697">
        <ele>633</ele>
        <time>2016-11-27T10:45:17.000Z</time>
      </trkpt>
      <trkpt lat="46.04694" lon="4.54698">
        <ele>632</ele>
        <time>2016-11-27T10:45:18.000Z</time>
      </trkpt>
      <trkpt lat="46.04694" lon="4.54699">
        <ele>632</ele>
        <time>2016-11-27T10:45:19.000Z</time>
      </trkpt>
      <trkpt lat="46.04694" lon="4.547">
        <ele>630</ele>
        <time>2016-11-27T10:45:20.000Z</time>
      </trkpt>
      <trkpt lat="46.04694" lon="4.54702">
        <ele>629</ele>
        <time>2016-11-27T10:45:21.000Z</time>
      </trkpt>
      <trkpt lat="46.04693" lon="4.54704">
        <ele>629</ele>
        <time>2016-11-27T10:45:22.000Z</time>
      </trkpt>
      <trkpt lat="46.04692" lon="4.54705">
        <ele>629</ele>
        <time>2016-11-27T10:45:23.000Z</time>
      </trkpt>
      <trkpt lat="46.04691" lon="4.54706">
        <ele>629</ele>
        <time>2016-11-27T10:45:24.000Z</time>
      </trkpt>
      <trkpt lat="46.0469" lon="4.54707">
        <ele>629</ele>
        <time>2016-11-27T10:45:25.000Z</time>
      </trkpt>
      <trkpt lat="46.0469" lon="4.54708">
        <ele>629</ele>
        <time>2016-11-27T10:45:26.000Z</time>
      </trkpt>
      <trkpt lat="46.04689" lon="4.54708">
        <ele>629</ele>
        <time>2016-11-27T10:45:27.000Z</time>
      </trkpt>
      <trkpt lat="46.04689" lon="4.54707">
        <ele>629</ele>
        <time>2016-11-27T10:45:28.000Z</time>
      </trkpt>
      <trkpt lat="46.04688" lon="4.54707">
        <ele>629</ele>
        <time>2016-11-27T10:45:29.000Z</time>
      </trkpt>
      <trkpt lat="46.04687" lon="4.54706">
        <ele>629</ele>
        <time>2016-11-27T10:45:30.000Z</time>
      </trkpt>
      <trkpt lat="46.04687" lon="4.54706">
        <ele>628</ele>
        <time>2016-11-27T10:45:31.000Z</time>
      </trkpt>
      <trkpt lat="46.04687" lon="4.54705">
        <ele>628</ele>
        <time>2016-11-27T10:45:32.000Z</time>
      </trkpt>
      <trkpt lat="46.04686" lon="4.54705">
        <ele>629</ele>
        <time>2016-11-27T10:45:33.000Z</time>
      </trkpt>
      <trkpt lat="46.04686" lon="4.54705">
        <ele>630</ele>
        <time>2016-11-27T10:45:34.000Z</time>
      </trkpt>
      <trkpt lat="46.04685" lon="4.54705">
        <ele>630</ele>
        <time>2016-11-27T10:45:35.000Z</time>
      </trkpt>
      <trkpt lat="46.04685" lon="4.54706">
        <ele>629</ele>
        <time>2016-11-27T10:45:36.000Z</time>
      </trkpt>
      <trkpt lat="46.04686" lon="4.54706">
        <ele>628</ele>
        <time>2016-11-27T10:45:37.000Z</time>
      </trkpt>
      <trkpt lat="46.04686" lon="4.54706">
        <ele>628</ele>
        <time>2016-11-27T10:45:38.000Z</time>
      </trkpt>
      <trkpt lat="46.04686" lon="4.54706">
        <ele>628</ele>
        <time>2016-11-27T10:45:39.000Z</time>
      </trkpt>
      <trkpt lat="46.04687" lon="4.54707">
        <ele>628</ele>
        <time>2016-11-27T10:45:40.000Z</time>
      </trkpt>
      <trkpt lat="46.04688" lon="4.54707">
        <ele>627</ele>
        <time>2016-11-27T10:45:41.000Z</time>
      </trkpt>
      <trkpt lat="46.04689" lon="4.54708">
        <ele>627</ele>
        <time>2016-11-27T10:45:42.000Z</time>
      </trkpt>
      <trkpt lat="46.04689" lon="4.54708">
        <ele>627</ele>
        <time>2016-11-27T10:45:43.000Z</time>
      </trkpt>
      <trkpt lat="46.0469" lon="4.54708">
        <ele>626</ele>
        <time>2016-11-27T10:45:44.000Z</time>
      </trkpt>
      <trkpt lat="46.04691" lon="4.54707">
        <ele>625</ele>
        <time>2016-11-27T10:45:45.000Z</time>
      </trkpt>
      <trkpt lat="46.04692" lon="4.54705">
        <ele>625</ele>
        <time>2016-11-27T10:45:46.000Z</time>
      </trkpt>
      <trkpt lat="46.04693" lon="4.54705">
        <ele>625</ele>
        <time>2016-11-27T10:45:47.000Z</time>
      </trkpt>
      <trkpt lat="46.04693" lon="4.54705">
        <ele>625</ele>
        <time>2016-11-27T10:45:48.000Z</time>
      </trkpt>
      <trkpt lat="46.04694" lon="4.54704">
        <ele>625</ele>
        <time>2016-11-27T10:45:49.000Z</time>
      </trkpt>
      <trkpt lat="46.04695" lon="4.54704">
        <ele>626</ele>
        <time>2016-11-27T10:45:50.000Z</time>
      </trkpt>
      <trkpt lat="46.04696" lon="4.54704">
        <ele>626</ele>
        <time>2016-11-27T10:45:51.000Z</time>
      </trkpt>
      <trkpt lat="46.04698" lon="4.54703">
        <ele>626</ele>
        <time>2016-11-27T10:45:52.000Z</time>
      </trkpt>
      <trkpt lat="46.04699" lon="4.54703">
        <ele>627</ele>
        <time>2016-11-27T10:45:53.000Z</time>
      </trkpt>
      <trkpt lat="46.047" lon="4.54703">
        <ele>628</ele>
        <time>2016-11-27T10:45:54.000Z</time>
      </trkpt>
      <trkpt lat="46.047" lon="4.54704">
        <ele>629</ele>
        <time>2016-11-27T10:45:55.000Z</time>
      </trkpt>
      <trkpt lat="46.047" lon="4.54704">
        <ele>630</ele>
        <time>2016-11-27T10:45:56.000Z</time>
      </trkpt>
      <trkpt lat="46.04701" lon="4.54704">
        <ele>630</ele>
        <time>2016-11-27T10:45:57.000Z</time>
      </trkpt>
      <trkpt lat="46.04701" lon="4.54704">
        <ele>631</ele>
        <time>2016-11-27T10:45:58.000Z</time>
      </trkpt>
      <trkpt lat="46.04701" lon="4.54704">
        <ele>632</ele>
        <time>2016-11-27T10:45:59.000Z</time>
      </trkpt>
      <trkpt lat="46.04701" lon="4.54704">
        <ele>632</ele>
        <time>2016-11-27T10:46:00.000Z</time>
      </trkpt>
      <trkpt lat="46.047" lon="4.54705">
        <ele>632</ele>
        <time>2016-11-27T10:46:01.000Z</time>
      </trkpt>
      <trkpt lat="46.047" lon="4.54705">
        <ele>632</ele>
        <time>2016-11-27T10:46:02.000Z</time>
      </trkpt>
      <trkpt lat="46.047" lon="4.54705">
        <ele>633</ele>
        <time>2016-11-27T10:46:03.000Z</time>
      </trkpt>
      <trkpt lat="46.047" lon="4.54705">
        <ele>633</ele>
        <time>2016-11-27T10:46:04.000Z</time>
      </trkpt>
      <trkpt lat="46.047" lon="4.54705">
        <ele>633</ele>
        <time>2016-11-27T10:46:05.000Z</time>
      </trkpt>
      <trkpt lat="46.047" lon="4.54706">
        <ele>634</ele>
        <time>2016-11-27T10:46:06.000Z</time>
      </trkpt>
      <trkpt lat="46.047" lon="4.54707">
        <ele>635</ele>
        <time>2016-11-27T10:46:07.000Z</time>
      </trkpt>
      <trkpt lat="46.047" lon="4.54707">
        <ele>635</ele>
        <time>2016-11-27T10:46:08.000Z</time>
      </trkpt>
      <trkpt lat="46.04699" lon="4.54707">
        <ele>635</ele>
        <time>2016-11-27T10:46:09.000Z</time>
      </trkpt>
      <trkpt lat="46.04699" lon="4.54706">
        <ele>635</ele>
        <time>2016-11-27T10:46:10.000Z</time>
      </trkpt>
      <trkpt lat="46.04699" lon="4.54706">
        <ele>635</ele>
        <time>2016-11-27T10:46:11.000Z</time>
      </trkpt>
      <trkpt lat="46.04698" lon="4.54705">
        <ele>634</ele>
        <time>2016-11-27T10:46:12.000Z</time>
      </trkpt>
      <trkpt lat="46.04697" lon="4.54704">
        <ele>634</ele>
        <time>2016-11-27T10:46:13.000Z</time>
      </trkpt>
      <trkpt lat="46.04696" lon="4.54703">
        <ele>633</ele>
        <time>2016-11-27T10:46:14.000Z</time>
      </trkpt>
      <trkpt lat="46.04695" lon="4.54702">
        <ele>633</ele>
        <time>2016-11-27T10:46:15.000Z</time>
      </trkpt>
      <trkpt lat="46.04694" lon="4.54701">
        <ele>632</ele>
        <time>2016-11-27T10:46:16.000Z</time>
      </trkpt>
      <trkpt lat="46.04693" lon="4.547">
        <ele>632</ele>
        <time>2016-11-27T10:46:17.000Z</time>
      </trkpt>
      <trkpt lat="46.04692" lon="4.547">
        <ele>631</ele>
        <time>2016-11-27T10:46:18.000Z</time>
      </trkpt>
      <trkpt lat="46.04691" lon="4.54699">
        <ele>631</ele>
        <time>2016-11-27T10:46:19.000Z</time>
      </trkpt>
      <trkpt lat="46.0469" lon="4.54699">
        <ele>631</ele>
        <time>2016-11-27T10:46:20.000Z</time>
      </trkpt>
      <trkpt lat="46.04689" lon="4.54699">
        <ele>631</ele>
        <time>2016-11-27T10:46:21.000Z</time>
      </trkpt>
      <trkpt lat="46.04688" lon="4.54699">
        <ele>632</ele>
        <time>2016-11-27T10:46:22.000Z</time>
      </trkpt>
      <trkpt lat="46.04687" lon="4.54699">
        <ele>631</ele>
        <time>2016-11-27T10:46:23.000Z</time>
      </trkpt>
      <trkpt lat="46.04686" lon="4.54698">
        <ele>630</ele>
        <time>2016-11-27T10:46:24.000Z</time>
      </trkpt>
      <trkpt lat="46.04685" lon="4.54698">
        <ele>631</ele>
        <time>2016-11-27T10:46:25.000Z</time>
      </trkpt>
      <trkpt lat="46.04685" lon="4.54698">
        <ele>631</ele>
        <time>2016-11-27T10:46:26.000Z</time>
      </trkpt>
      <trkpt lat="46.04684" lon="4.54698">
        <ele>632</ele>
        <time>2016-11-27T10:46:27.000Z</time>
      </trkpt>
      <trkpt lat="46.04683" lon="4.54698">
        <ele>631</ele>
        <time>2016-11-27T10:46:28.000Z</time>
      </trkpt>
      <trkpt lat="46.04682" lon="4.54697">
        <ele>631</ele>
        <time>2016-11-27T10:46:29.000Z</time>
      </trkpt>
      <trkpt lat="46.04681" lon="4.54698">
        <ele>631</ele>
        <time>2016-11-27T10:46:30.000Z</time>
      </trkpt>
      <trkpt lat="46.0468" lon="4.54698">
        <ele>631</ele>
        <time>2016-11-27T10:46:31.000Z</time>
      </trkpt>
      <trkpt lat="46.04679" lon="4.54699">
        <ele>630</ele>
        <time>2016-11-27T10:46:32.000Z</time>
      </trkpt>
      <trkpt lat="46.04678" lon="4.547">
        <ele>630</ele>
        <time>2016-11-27T10:46:33.000Z</time>
      </trkpt>
      <trkpt lat="46.04676" lon="4.54699">
        <ele>627</ele>
        <time>2016-11-27T10:46:34.000Z</time>
      </trkpt>
      <trkpt lat="46.04674" lon="4.54698">
        <ele>625</ele>
        <time>2016-11-27T10:46:35.000Z</time>
      </trkpt>
      <trkpt lat="46.04672" lon="4.54697">
        <ele>625</ele>
        <time>2016-11-27T10:46:36.000Z</time>
      </trkpt>
      <trkpt lat="46.04671" lon="4.54696">
        <ele>624</ele>
        <time>2016-11-27T10:46:37.000Z</time>
      </trkpt>
      <trkpt lat="46.04669" lon="4.54695">
        <ele>624</ele>
        <time>2016-11-27T10:46:38.000Z</time>
      </trkpt>
      <trkpt lat="46.04669" lon="4.54693">
        <ele>623</ele>
        <time>2016-11-27T10:46:39.000Z</time>
      </trkpt>
      <trkpt lat="46.04669" lon="4.5469">
        <ele>624</ele>
        <time>2016-11-27T10:46:40.000Z</time>
      </trkpt>
      <trkpt lat="46.04668" lon="4.54689">
        <ele>624</ele>
        <time>2016-11-27T10:46:41.000Z</time>
      </trkpt>
      <trkpt lat="46.04667" lon="4.54687">
        <ele>623</ele>
        <time>2016-11-27T10:46:42.000Z</time>
      </trkpt>
      <trkpt lat="46.04666" lon="4.54686">
        <ele>623</ele>
        <time>2016-11-27T10:46:43.000Z</time>
      </trkpt>
      <trkpt lat="46.04665" lon="4.54685">
        <ele>623</ele>
        <time>2016-11-27T10:46:44.000Z</time>
      </trkpt>
      <trkpt lat="46.04664" lon="4.54683">
        <ele>623</ele>
        <time>2016-11-27T10:46:45.000Z</time>
      </trkpt>
      <trkpt lat="46.04664" lon="4.54682">
        <ele>624</ele>
        <time>2016-11-27T10:46:46.000Z</time>
      </trkpt>
      <trkpt lat="46.04663" lon="4.5468">
        <ele>624</ele>
        <time>2016-11-27T10:46:47.000Z</time>
      </trkpt>
      <trkpt lat="46.04662" lon="4.54679">
        <ele>624</ele>
        <time>2016-11-27T10:46:48.000Z</time>
      </trkpt>
      <trkpt lat="46.04661" lon="4.54678">
        <ele>624</ele>
        <time>2016-11-27T10:46:49.000Z</time>
      </trkpt>
      <trkpt lat="46.04661" lon="4.54678">
        <ele>623</ele>
        <time>2016-11-27T10:46:50.000Z</time>
      </trkpt>
      <trkpt lat="46.04661" lon="4.54678">
        <ele>622</ele>
        <time>2016-11-27T10:46:51.000Z</time>
      </trkpt>
      <trkpt lat="46.04661" lon="4.54678">
        <ele>622</ele>
        <time>2016-11-27T10:46:52.000Z</time>
      </trkpt>
      <trkpt lat="46.0466" lon="4.54678">
        <ele>622</ele>
        <time>2016-11-27T10:46:53.000Z</time>
      </trkpt>
      <trkpt lat="46.04659" lon="4.54677">
        <ele>622</ele>
        <time>2016-11-27T10:46:54.000Z</time>
      </trkpt>
      <trkpt lat="46.04658" lon="4.54676">
        <ele>622</ele>
        <time>2016-11-27T10:46:55.000Z</time>
      </trkpt>
      <trkpt lat="46.04657" lon="4.54675">
        <ele>621</ele>
        <time>2016-11-27T10:46:56.000Z</time>
      </trkpt>
      <trkpt lat="46.04656" lon="4.54674">
        <ele>621</ele>
        <time>2016-11-27T10:46:57.000Z</time>
      </trkpt>
      <trkpt lat="46.04654" lon="4.54672">
        <ele>621</ele>
        <time>2016-11-27T10:46:58.000Z</time>
      </trkpt>
      <trkpt lat="46.04653" lon="4.54671">
        <ele>621</ele>
        <time>2016-11-27T10:46:59.000Z</time>
      </trkpt>
      <trkpt lat="46.04652" lon="4.54669">
        <ele>621</ele>
        <time>2016-11-27T10:47:00.000Z</time>
      </trkpt>
      <trkpt lat="46.0465" lon="4.54668">
        <ele>622</ele>
        <time>2016-11-27T10:47:01.000Z</time>
      </trkpt>
      <trkpt lat="46.04649" lon="4.54666">
        <ele>622</ele>
        <time>2016-11-27T10:47:02.000Z</time>
      </trkpt>
      <trkpt lat="46.04648" lon="4.54664">
        <ele>622</ele>
        <time>2016-11-27T10:47:03.000Z</time>
      </trkpt>
      <trkpt lat="46.04648" lon="4.54663">
        <ele>622</ele>
        <time>2016-11-27T10:47:04.000Z</time>
      </trkpt>
      <trkpt lat="46.04648" lon="4.54661">
        <ele>623</ele>
        <time>2016-11-27T10:47:05.000Z</time>
      </trkpt>
      <trkpt lat="46.04647" lon="4.54659">
        <ele>623</ele>
        <time>2016-11-27T10:47:06.000Z</time>
      </trkpt>
      <trkpt lat="46.04646" lon="4.54658">
        <ele>623</ele>
        <time>2016-11-27T10:47:07.000Z</time>
      </trkpt>
      <trkpt lat="46.04646" lon="4.54656">
        <ele>621</ele>
        <time>2016-11-27T10:47:08.000Z</time>
      </trkpt>
      <trkpt lat="46.04644" lon="4.54655">
        <ele>621</ele>
        <time>2016-11-27T10:47:09.000Z</time>
      </trkpt>
      <trkpt lat="46.04643" lon="4.54653">
        <ele>622</ele>
        <time>2016-11-27T10:47:10.000Z</time>
      </trkpt>
      <trkpt lat="46.04642" lon="4.54651">
        <ele>621</ele>
        <time>2016-11-27T10:47:11.000Z</time>
      </trkpt>
      <trkpt lat="46.04642" lon="4.54649">
        <ele>621</ele>
        <time>2016-11-27T10:47:12.000Z</time>
      </trkpt>
      <trkpt lat="46.04641" lon="4.54648">
        <ele>621</ele>
        <time>2016-11-27T10:47:13.000Z</time>
      </trkpt>
      <trkpt lat="46.04641" lon="4.54646">
        <ele>621</ele>
        <time>2016-11-27T10:47:14.000Z</time>
      </trkpt>
      <trkpt lat="46.0464" lon="4.54644">
        <ele>621</ele>
        <time>2016-11-27T10:47:15.000Z</time>
      </trkpt>
      <trkpt lat="46.04639" lon="4.54642">
        <ele>621</ele>
        <time>2016-11-27T10:47:16.000Z</time>
      </trkpt>
      <trkpt lat="46.04638" lon="4.54639">
        <ele>621</ele>
        <time>2016-11-27T10:47:17.000Z</time>
      </trkpt>
      <trkpt lat="46.04636" lon="4.54638">
        <ele>621</ele>
        <time>2016-11-27T10:47:18.000Z</time>
      </trkpt>
      <trkpt lat="46.04636" lon="4.54635">
        <ele>621</ele>
        <time>2016-11-27T10:47:19.000Z</time>
      </trkpt>
      <trkpt lat="46.04635" lon="4.54633">
        <ele>623</ele>
        <time>2016-11-27T10:47:20.000Z</time>
      </trkpt>
      <trkpt lat="46.04634" lon="4.5463">
        <ele>623</ele>
        <time>2016-11-27T10:47:21.000Z</time>
      </trkpt>
      <trkpt lat="46.04634" lon="4.54628">
        <ele>623</ele>
        <time>2016-11-27T10:47:22.000Z</time>
      </trkpt>
      <trkpt lat="46.04634" lon="4.54626">
        <ele>623</ele>
        <time>2016-11-27T10:47:23.000Z</time>
      </trkpt>
      <trkpt lat="46.04633" lon="4.54624">
        <ele>622</ele>
        <time>2016-11-27T10:47:24.000Z</time>
      </trkpt>
      <trkpt lat="46.04633" lon="4.54622">
        <ele>621</ele>
        <time>2016-11-27T10:47:25.000Z</time>
      </trkpt>
      <trkpt lat="46.04632" lon="4.54621">
        <ele>621</ele>
        <time>2016-11-27T10:47:26.000Z</time>
      </trkpt>
      <trkpt lat="46.04631" lon="4.54619">
        <ele>620</ele>
        <time>2016-11-27T10:47:27.000Z</time>
      </trkpt>
      <trkpt lat="46.0463" lon="4.54617">
        <ele>620</ele>
        <time>2016-11-27T10:47:28.000Z</time>
      </trkpt>
      <trkpt lat="46.04629" lon="4.54615">
        <ele>619</ele>
        <time>2016-11-27T10:47:29.000Z</time>
      </trkpt>
      <trkpt lat="46.04629" lon="4.54613">
        <ele>619</ele>
        <time>2016-11-27T10:47:30.000Z</time>
      </trkpt>
      <trkpt lat="46.04628" lon="4.54611">
        <ele>619</ele>
        <time>2016-11-27T10:47:31.000Z</time>
      </trkpt>
      <trkpt lat="46.04627" lon="4.54609">
        <ele>619</ele>
        <time>2016-11-27T10:47:32.000Z</time>
      </trkpt>
      <trkpt lat="46.04627" lon="4.54607">
        <ele>618</ele>
        <time>2016-11-27T10:47:33.000Z</time>
      </trkpt>
      <trkpt lat="46.04626" lon="4.54606">
        <ele>618</ele>
        <time>2016-11-27T10:47:34.000Z</time>
      </trkpt>
      <trkpt lat="46.04626" lon="4.54604">
        <ele>618</ele>
        <time>2016-11-27T10:47:35.000Z</time>
      </trkpt>
      <trkpt lat="46.04625" lon="4.54602">
        <ele>618</ele>
        <time>2016-11-27T10:47:36.000Z</time>
      </trkpt>
      <trkpt lat="46.04624" lon="4.54601">
        <ele>617</ele>
        <time>2016-11-27T10:47:37.000Z</time>
      </trkpt>
      <trkpt lat="46.04623" lon="4.54599">
        <ele>618</ele>
        <time>2016-11-27T10:47:38.000Z</time>
      </trkpt>
      <trkpt lat="46.04622" lon="4.54598">
        <ele>618</ele>
        <time>2016-11-27T10:47:39.000Z</time>
      </trkpt>
      <trkpt lat="46.04621" lon="4.54596">
        <ele>618</ele>
        <time>2016-11-27T10:47:40.000Z</time>
      </trkpt>
      <trkpt lat="46.04621" lon="4.54595">
        <ele>618</ele>
        <time>2016-11-27T10:47:41.000Z</time>
      </trkpt>
      <trkpt lat="46.0462" lon="4.54593">
        <ele>619</ele>
        <time>2016-11-27T10:47:42.000Z</time>
      </trkpt>
      <trkpt lat="46.0462" lon="4.54592">
        <ele>620</ele>
        <time>2016-11-27T10:47:43.000Z</time>
      </trkpt>
      <trkpt lat="46.04619" lon="4.54591">
        <ele>619</ele>
        <time>2016-11-27T10:47:44.000Z</time>
      </trkpt>
      <trkpt lat="46.04618" lon="4.5459">
        <ele>619</ele>
        <time>2016-11-27T10:47:45.000Z</time>
      </trkpt>
      <trkpt lat="46.04618" lon="4.54589">
        <ele>619</ele>
        <time>2016-11-27T10:47:46.000Z</time>
      </trkpt>
      <trkpt lat="46.04617" lon="4.54588">
        <ele>619</ele>
        <time>2016-11-27T10:47:47.000Z</time>
      </trkpt>
      <trkpt lat="46.04616" lon="4.54587">
        <ele>621</ele>
        <time>2016-11-27T10:47:48.000Z</time>
      </trkpt>
      <trkpt lat="46.04615" lon="4.54585">
        <ele>622</ele>
        <time>2016-11-27T10:47:49.000Z</time>
      </trkpt>
      <trkpt lat="46.04614" lon="4.54584">
        <ele>622</ele>
        <time>2016-11-27T10:47:50.000Z</time>
      </trkpt>
      <trkpt lat="46.04613" lon="4.54584">
        <ele>623</ele>
        <time>2016-11-27T10:47:51.000Z</time>
      </trkpt>
      <trkpt lat="46.04611" lon="4.54583">
        <ele>624</ele>
        <time>2016-11-27T10:47:52.000Z</time>
      </trkpt>
      <trkpt lat="46.0461" lon="4.54582">
        <ele>624</ele>
        <time>2016-11-27T10:47:53.000Z</time>
      </trkpt>
      <trkpt lat="46.04609" lon="4.54581">
        <ele>624</ele>
        <time>2016-11-27T10:47:54.000Z</time>
      </trkpt>
      <trkpt lat="46.04609" lon="4.5458">
        <ele>624</ele>
        <time>2016-11-27T10:47:55.000Z</time>
      </trkpt>
      <trkpt lat="46.04608" lon="4.54578">
        <ele>624</ele>
        <time>2016-11-27T10:47:56.000Z</time>
      </trkpt>
      <trkpt lat="46.04607" lon="4.54577">
        <ele>624</ele>
        <time>2016-11-27T10:47:57.000Z</time>
      </trkpt>
      <trkpt lat="46.04606" lon="4.54575">
        <ele>624</ele>
        <time>2016-11-27T10:47:58.000Z</time>
      </trkpt>
      <trkpt lat="46.04604" lon="4.54573">
        <ele>624</ele>
        <time>2016-11-27T10:47:59.000Z</time>
      </trkpt>
      <trkpt lat="46.04603" lon="4.54572">
        <ele>624</ele>
        <time>2016-11-27T10:48:00.000Z</time>
      </trkpt>
      <trkpt lat="46.04602" lon="4.54571">
        <ele>623</ele>
        <time>2016-11-27T10:48:01.000Z</time>
      </trkpt>
      <trkpt lat="46.04601" lon="4.5457">
        <ele>623</ele>
        <time>2016-11-27T10:48:02.000Z</time>
      </trkpt>
      <trkpt lat="46.046" lon="4.54568">
        <ele>623</ele>
        <time>2016-11-27T10:48:03.000Z</time>
      </trkpt>
      <trkpt lat="46.046" lon="4.54566">
        <ele>623</ele>
        <time>2016-11-27T10:48:04.000Z</time>
      </trkpt>
      <trkpt lat="46.04599" lon="4.54565">
        <ele>621</ele>
        <time>2016-11-27T10:48:05.000Z</time>
      </trkpt>
      <trkpt lat="46.04599" lon="4.54563">
        <ele>621</ele>
        <time>2016-11-27T10:48:06.000Z</time>
      </trkpt>
      <trkpt lat="46.04598" lon="4.54561">
        <ele>621</ele>
        <time>2016-11-27T10:48:07.000Z</time>
      </trkpt>
      <trkpt lat="46.04597" lon="4.54559">
        <ele>621</ele>
        <time>2016-11-27T10:48:08.000Z</time>
      </trkpt>
      <trkpt lat="46.04597" lon="4.54557">
        <ele>621</ele>
        <time>2016-11-27T10:48:09.000Z</time>
      </trkpt>
      <trkpt lat="46.04596" lon="4.54556">
        <ele>621</ele>
        <time>2016-11-27T10:48:10.000Z</time>
      </trkpt>
      <trkpt lat="46.04597" lon="4.54553">
        <ele>622</ele>
        <time>2016-11-27T10:48:11.000Z</time>
      </trkpt>
      <trkpt lat="46.04597" lon="4.5455">
        <ele>623</ele>
        <time>2016-11-27T10:48:12.000Z</time>
      </trkpt>
      <trkpt lat="46.04597" lon="4.54548">
        <ele>623</ele>
        <time>2016-11-27T10:48:13.000Z</time>
      </trkpt>
      <trkpt lat="46.04597" lon="4.54547">
        <ele>624</ele>
        <time>2016-11-27T10:48:14.000Z</time>
      </trkpt>
      <trkpt lat="46.04597" lon="4.54545">
        <ele>625</ele>
        <time>2016-11-27T10:48:15.000Z</time>
      </trkpt>
      <trkpt lat="46.04597" lon="4.54544">
        <ele>626</ele>
        <time>2016-11-27T10:48:16.000Z</time>
      </trkpt>
      <trkpt lat="46.04596" lon="4.54543">
        <ele>626</ele>
        <time>2016-11-27T10:48:17.000Z</time>
      </trkpt>
      <trkpt lat="46.04596" lon="4.54541">
        <ele>627</ele>
        <time>2016-11-27T10:48:18.000Z</time>
      </trkpt>
      <trkpt lat="46.04595" lon="4.5454">
        <ele>628</ele>
        <time>2016-11-27T10:48:19.000Z</time>
      </trkpt>
      <trkpt lat="46.04595" lon="4.54539">
        <ele>630</ele>
        <time>2016-11-27T10:48:20.000Z</time>
      </trkpt>
      <trkpt lat="46.04594" lon="4.54538">
        <ele>631</ele>
        <time>2016-11-27T10:48:21.000Z</time>
      </trkpt>
      <trkpt lat="46.04594" lon="4.54537">
        <ele>632</ele>
        <time>2016-11-27T10:48:22.000Z</time>
      </trkpt>
      <trkpt lat="46.04593" lon="4.54537">
        <ele>633</ele>
        <time>2016-11-27T10:48:23.000Z</time>
      </trkpt>
      <trkpt lat="46.04593" lon="4.54536">
        <ele>633</ele>
        <time>2016-11-27T10:48:24.000Z</time>
      </trkpt>
      <trkpt lat="46.04593" lon="4.54535">
        <ele>634</ele>
        <time>2016-11-27T10:48:25.000Z</time>
      </trkpt>
      <trkpt lat="46.04593" lon="4.54533">
        <ele>635</ele>
        <time>2016-11-27T10:48:26.000Z</time>
      </trkpt>
      <trkpt lat="46.04593" lon="4.54531">
        <ele>636</ele>
        <time>2016-11-27T10:48:27.000Z</time>
      </trkpt>
      <trkpt lat="46.04593" lon="4.5453">
        <ele>636</ele>
        <time>2016-11-27T10:48:28.000Z</time>
      </trkpt>
      <trkpt lat="46.04592" lon="4.54529">
        <ele>638</ele>
        <time>2016-11-27T10:48:29.000Z</time>
      </trkpt>
      <trkpt lat="46.04592" lon="4.54528">
        <ele>639</ele>
        <time>2016-11-27T10:48:30.000Z</time>
      </trkpt>
      <trkpt lat="46.04591" lon="4.54527">
        <ele>640</ele>
        <time>2016-11-27T10:48:31.000Z</time>
      </trkpt>
      <trkpt lat="46.04591" lon="4.54527">
        <ele>641</ele>
        <time>2016-11-27T10:48:32.000Z</time>
      </trkpt>
      <trkpt lat="46.04591" lon="4.54526">
        <ele>641</ele>
        <time>2016-11-27T10:48:33.000Z</time>
      </trkpt>
      <trkpt lat="46.0459" lon="4.54526">
        <ele>642</ele>
        <time>2016-11-27T10:48:34.000Z</time>
      </trkpt>
      <trkpt lat="46.0459" lon="4.54525">
        <ele>644</ele>
        <time>2016-11-27T10:48:35.000Z</time>
      </trkpt>
      <trkpt lat="46.04589" lon="4.54524">
        <ele>644</ele>
        <time>2016-11-27T10:48:36.000Z</time>
      </trkpt>
      <trkpt lat="46.04589" lon="4.54524">
        <ele>644</ele>
        <time>2016-11-27T10:48:37.000Z</time>
      </trkpt>
      <trkpt lat="46.04589" lon="4.54523">
        <ele>644</ele>
        <time>2016-11-27T10:48:38.000Z</time>
      </trkpt>
      <trkpt lat="46.04588" lon="4.54522">
        <ele>644</ele>
        <time>2016-11-27T10:48:39.000Z</time>
      </trkpt>
      <trkpt lat="46.04588" lon="4.54521">
        <ele>644</ele>
        <time>2016-11-27T10:48:40.000Z</time>
      </trkpt>
      <trkpt lat="46.04587" lon="4.5452">
        <ele>645</ele>
        <time>2016-11-27T10:48:41.000Z</time>
      </trkpt>
      <trkpt lat="46.04587" lon="4.54518">
        <ele>646</ele>
        <time>2016-11-27T10:48:42.000Z</time>
      </trkpt>
      <trkpt lat="46.04587" lon="4.54516">
        <ele>646</ele>
        <time>2016-11-27T10:48:43.000Z</time>
      </trkpt>
      <trkpt lat="46.04587" lon="4.54515">
        <ele>647</ele>
        <time>2016-11-27T10:48:44.000Z</time>
      </trkpt>
      <trkpt lat="46.04588" lon="4.54514">
        <ele>646</ele>
        <time>2016-11-27T10:48:45.000Z</time>
      </trkpt>
      <trkpt lat="46.04588" lon="4.54514">
        <ele>646</ele>
        <time>2016-11-27T10:48:46.000Z</time>
      </trkpt>
      <trkpt lat="46.04588" lon="4.54514">
        <ele>647</ele>
        <time>2016-11-27T10:48:47.000Z</time>
      </trkpt>
      <trkpt lat="46.04588" lon="4.54514">
        <ele>646</ele>
        <time>2016-11-27T10:48:48.000Z</time>
      </trkpt>
      <trkpt lat="46.04588" lon="4.54514">
        <ele>647</ele>
        <time>2016-11-27T10:48:49.000Z</time>
      </trkpt>
      <trkpt lat="46.04587" lon="4.54514">
        <ele>648</ele>
        <time>2016-11-27T10:48:50.000Z</time>
      </trkpt>
      <trkpt lat="46.04587" lon="4.54514">
        <ele>648</ele>
        <time>2016-11-27T10:48:51.000Z</time>
      </trkpt>
      <trkpt lat="46.04587" lon="4.54515">
        <ele>648</ele>
        <time>2016-11-27T10:48:52.000Z</time>
      </trkpt>
      <trkpt lat="46.04586" lon="4.54515">
        <ele>648</ele>
        <time>2016-11-27T10:48:53.000Z</time>
      </trkpt>
      <trkpt lat="46.04586" lon="4.54515">
        <ele>648</ele>
        <time>2016-11-27T10:48:54.000Z</time>
      </trkpt>
      <trkpt lat="46.04586" lon="4.54515">
        <ele>648</ele>
        <time>2016-11-27T10:48:55.000Z</time>
      </trkpt>
      <trkpt lat="46.04586" lon="4.54515">
        <ele>648</ele>
        <time>2016-11-27T10:48:56.000Z</time>
      </trkpt>
      <trkpt lat="46.04586" lon="4.54515">
        <ele>648</ele>
        <time>2016-11-27T10:48:57.000Z</time>
      </trkpt>
      <trkpt lat="46.04585" lon="4.54515">
        <ele>648</ele>
        <time>2016-11-27T10:48:58.000Z</time>
      </trkpt>
      <trkpt lat="46.04585" lon="4.54515">
        <ele>649</ele>
        <time>2016-11-27T10:48:59.000Z</time>
      </trkpt>
      <trkpt lat="46.04585" lon="4.54515">
        <ele>649</ele>
        <time>2016-11-27T10:49:00.000Z</time>
      </trkpt>
      <trkpt lat="46.04585" lon="4.54515">
        <ele>649</ele>
        <time>2016-11-27T10:49:01.000Z</time>
      </trkpt>
      <trkpt lat="46.04585" lon="4.54514">
        <ele>649</ele>
        <time>2016-11-27T10:49:02.000Z</time>
      </trkpt>
      <trkpt lat="46.04585" lon="4.54514">
        <ele>649</ele>
        <time>2016-11-27T10:49:03.000Z</time>
      </trkpt>
      <trkpt lat="46.04585" lon="4.54514">
        <ele>649</ele>
        <time>2016-11-27T10:49:04.000Z</time>
      </trkpt>
      <trkpt lat="46.04585" lon="4.54514">
        <ele>650</ele>
        <time>2016-11-27T10:49:05.000Z</time>
      </trkpt>
      <trkpt lat="46.04584" lon="4.54514">
        <ele>649</ele>
        <time>2016-11-27T10:49:06.000Z</time>
      </trkpt>
      <trkpt lat="46.04584" lon="4.54514">
        <ele>649</ele>
        <time>2016-11-27T10:49:07.000Z</time>
      </trkpt>
      <trkpt lat="46.04583" lon="4.54515">
        <ele>650</ele>
        <time>2016-11-27T10:49:08.000Z</time>
      </trkpt>
      <trkpt lat="46.04582" lon="4.54514">
        <ele>650</ele>
        <time>2016-11-27T10:49:09.000Z</time>
      </trkpt>
      <trkpt lat="46.04582" lon="4.54514">
        <ele>648</ele>
        <time>2016-11-27T10:49:10.000Z</time>
      </trkpt>
      <trkpt lat="46.04581" lon="4.54513">
        <ele>648</ele>
        <time>2016-11-27T10:49:11.000Z</time>
      </trkpt>
      <trkpt lat="46.0458" lon="4.54511">
        <ele>648</ele>
        <time>2016-11-27T10:49:12.000Z</time>
      </trkpt>
      <trkpt lat="46.0458" lon="4.5451">
        <ele>647</ele>
        <time>2016-11-27T10:49:13.000Z</time>
      </trkpt>
      <trkpt lat="46.04579" lon="4.54508">
        <ele>648</ele>
        <time>2016-11-27T10:49:14.000Z</time>
      </trkpt>
      <trkpt lat="46.04578" lon="4.54507">
        <ele>648</ele>
        <time>2016-11-27T10:49:15.000Z</time>
      </trkpt>
      <trkpt lat="46.04578" lon="4.54506">
        <ele>648</ele>
        <time>2016-11-27T10:49:16.000Z</time>
      </trkpt>
      <trkpt lat="46.04577" lon="4.54505">
        <ele>647</ele>
        <time>2016-11-27T10:49:17.000Z</time>
      </trkpt>
      <trkpt lat="46.04577" lon="4.54504">
        <ele>647</ele>
        <time>2016-11-27T10:49:18.000Z</time>
      </trkpt>
      <trkpt lat="46.04576" lon="4.54504">
        <ele>647</ele>
        <time>2016-11-27T10:49:19.000Z</time>
      </trkpt>
      <trkpt lat="46.04575" lon="4.54503">
        <ele>647</ele>
        <time>2016-11-27T10:49:20.000Z</time>
      </trkpt>
      <trkpt lat="46.04574" lon="4.54502">
        <ele>647</ele>
        <time>2016-11-27T10:49:21.000Z</time>
      </trkpt>
      <trkpt lat="46.04574" lon="4.54501">
        <ele>646</ele>
        <time>2016-11-27T10:49:22.000Z</time>
      </trkpt>
      <trkpt lat="46.04573" lon="4.54499">
        <ele>646</ele>
        <time>2016-11-27T10:49:23.000Z</time>
      </trkpt>
      <trkpt lat="46.04573" lon="4.54498">
        <ele>646</ele>
        <time>2016-11-27T10:49:24.000Z</time>
      </trkpt>
      <trkpt lat="46.04572" lon="4.54497">
        <ele>646</ele>
        <time>2016-11-27T10:49:25.000Z</time>
      </trkpt>
      <trkpt lat="46.04572" lon="4.54497">
        <ele>646</ele>
        <time>2016-11-27T10:49:26.000Z</time>
      </trkpt>
      <trkpt lat="46.04571" lon="4.54496">
        <ele>646</ele>
        <time>2016-11-27T10:49:27.000Z</time>
      </trkpt>
      <trkpt lat="46.0457" lon="4.54495">
        <ele>646</ele>
        <time>2016-11-27T10:49:28.000Z</time>
      </trkpt>
      <trkpt lat="46.04569" lon="4.54494">
        <ele>645</ele>
        <time>2016-11-27T10:49:29.000Z</time>
      </trkpt>
      <trkpt lat="46.04568" lon="4.54493">
        <ele>645</ele>
        <time>2016-11-27T10:49:30.000Z</time>
      </trkpt>
      <trkpt lat="46.04567" lon="4.54492">
        <ele>645</ele>
        <time>2016-11-27T10:49:31.000Z</time>
      </trkpt>
      <trkpt lat="46.04566" lon="4.54492">
        <ele>644</ele>
        <time>2016-11-27T10:49:32.000Z</time>
      </trkpt>
      <trkpt lat="46.04565" lon="4.54492">
        <ele>644</ele>
        <time>2016-11-27T10:49:33.000Z</time>
      </trkpt>
      <trkpt lat="46.04564" lon="4.54491">
        <ele>644</ele>
        <time>2016-11-27T10:49:34.000Z</time>
      </trkpt>
      <trkpt lat="46.04563" lon="4.5449">
        <ele>644</ele>
        <time>2016-11-27T10:49:35.000Z</time>
      </trkpt>
      <trkpt lat="46.04562" lon="4.5449">
        <ele>643</ele>
        <time>2016-11-27T10:49:36.000Z</time>
      </trkpt>
      <trkpt lat="46.04561" lon="4.54488">
        <ele>643</ele>
        <time>2016-11-27T10:49:37.000Z</time>
      </trkpt>
      <trkpt lat="46.0456" lon="4.54487">
        <ele>643</ele>
        <time>2016-11-27T10:49:38.000Z</time>
      </trkpt>
      <trkpt lat="46.0456" lon="4.54485">
        <ele>643</ele>
        <time>2016-11-27T10:49:39.000Z</time>
      </trkpt>
      <trkpt lat="46.04558" lon="4.54483">
        <ele>641</ele>
        <time>2016-11-27T10:49:40.000Z</time>
      </trkpt>
      <trkpt lat="46.04557" lon="4.54481">
        <ele>640</ele>
        <time>2016-11-27T10:49:41.000Z</time>
      </trkpt>
      <trkpt lat="46.04556" lon="4.5448">
        <ele>640</ele>
        <time>2016-11-27T10:49:42.000Z</time>
      </trkpt>
      <trkpt lat="46.04554" lon="4.54478">
        <ele>639</ele>
        <time>2016-11-27T10:49:43.000Z</time>
      </trkpt>
      <trkpt lat="46.04553" lon="4.54477">
        <ele>639</ele>
        <time>2016-11-27T10:49:44.000Z</time>
      </trkpt>
      <trkpt lat="46.04552" lon="4.54476">
        <ele>639</ele>
        <time>2016-11-27T10:49:45.000Z</time>
      </trkpt>
      <trkpt lat="46.04551" lon="4.54475">
        <ele>638</ele>
        <time>2016-11-27T10:49:46.000Z</time>
      </trkpt>
      <trkpt lat="46.0455" lon="4.54474">
        <ele>640</ele>
        <time>2016-11-27T10:49:47.000Z</time>
      </trkpt>
      <trkpt lat="46.04549" lon="4.54473">
        <ele>640</ele>
        <time>2016-11-27T10:49:48.000Z</time>
      </trkpt>
      <trkpt lat="46.04548" lon="4.54473">
        <ele>641</ele>
        <time>2016-11-27T10:49:49.000Z</time>
      </trkpt>
      <trkpt lat="46.04546" lon="4.54472">
        <ele>643</ele>
        <time>2016-11-27T10:49:50.000Z</time>
      </trkpt>
      <trkpt lat="46.04545" lon="4.54472">
        <ele>644</ele>
        <time>2016-11-27T10:49:51.000Z</time>
      </trkpt>
      <trkpt lat="46.04544" lon="4.54472">
        <ele>644</ele>
        <time>2016-11-27T10:49:52.000Z</time>
      </trkpt>
      <trkpt lat="46.04543" lon="4.54472">
        <ele>645</ele>
        <time>2016-11-27T10:49:53.000Z</time>
      </trkpt>
      <trkpt lat="46.04542" lon="4.54472">
        <ele>646</ele>
        <time>2016-11-27T10:49:54.000Z</time>
      </trkpt>
      <trkpt lat="46.04541" lon="4.54472">
        <ele>646</ele>
        <time>2016-11-27T10:49:55.000Z</time>
      </trkpt>
      <trkpt lat="46.0454" lon="4.54471">
        <ele>646</ele>
        <time>2016-11-27T10:49:56.000Z</time>
      </trkpt>
      <trkpt lat="46.04539" lon="4.5447">
        <ele>647</ele>
        <time>2016-11-27T10:49:57.000Z</time>
      </trkpt>
      <trkpt lat="46.04538" lon="4.5447">
        <ele>648</ele>
        <time>2016-11-27T10:49:58.000Z</time>
      </trkpt>
      <trkpt lat="46.04537" lon="4.5447">
        <ele>649</ele>
        <time>2016-11-27T10:49:59.000Z</time>
      </trkpt>
      <trkpt lat="46.04536" lon="4.5447">
        <ele>648</ele>
        <time>2016-11-27T10:50:00.000Z</time>
      </trkpt>
      <trkpt lat="46.04536" lon="4.54469">
        <ele>648</ele>
        <time>2016-11-27T10:50:01.000Z</time>
      </trkpt>
      <trkpt lat="46.04534" lon="4.54468">
        <ele>647</ele>
        <time>2016-11-27T10:50:02.000Z</time>
      </trkpt>
      <trkpt lat="46.04533" lon="4.54467">
        <ele>646</ele>
        <time>2016-11-27T10:50:03.000Z</time>
      </trkpt>
      <trkpt lat="46.04532" lon="4.54465">
        <ele>642</ele>
        <time>2016-11-27T10:50:04.000Z</time>
      </trkpt>
      <trkpt lat="46.0453" lon="4.54463">
        <ele>642</ele>
        <time>2016-11-27T10:50:05.000Z</time>
      </trkpt>
      <trkpt lat="46.04529" lon="4.54462">
        <ele>642</ele>
        <time>2016-11-27T10:50:06.000Z</time>
      </trkpt>
      <trkpt lat="46.04527" lon="4.54461">
        <ele>642</ele>
        <time>2016-11-27T10:50:07.000Z</time>
      </trkpt>
      <trkpt lat="46.04525" lon="4.54459">
        <ele>641</ele>
        <time>2016-11-27T10:50:08.000Z</time>
      </trkpt>
      <trkpt lat="46.04523" lon="4.54458">
        <ele>640</ele>
        <time>2016-11-27T10:50:09.000Z</time>
      </trkpt>
      <trkpt lat="46.04522" lon="4.54456">
        <ele>640</ele>
        <time>2016-11-27T10:50:10.000Z</time>
      </trkpt>
      <trkpt lat="46.04521" lon="4.54454">
        <ele>639</ele>
        <time>2016-11-27T10:50:11.000Z</time>
      </trkpt>
      <trkpt lat="46.0452" lon="4.54453">
        <ele>639</ele>
        <time>2016-11-27T10:50:12.000Z</time>
      </trkpt>
      <trkpt lat="46.04518" lon="4.54452">
        <ele>638</ele>
        <time>2016-11-27T10:50:13.000Z</time>
      </trkpt>
      <trkpt lat="46.04518" lon="4.54452">
        <ele>638</ele>
        <time>2016-11-27T10:50:14.000Z</time>
      </trkpt>
      <trkpt lat="46.04517" lon="4.54452">
        <ele>639</ele>
        <time>2016-11-27T10:50:15.000Z</time>
      </trkpt>
      <trkpt lat="46.04516" lon="4.54452">
        <ele>639</ele>
        <time>2016-11-27T10:50:16.000Z</time>
      </trkpt>
      <trkpt lat="46.04516" lon="4.54451">
        <ele>638</ele>
        <time>2016-11-27T10:50:17.000Z</time>
      </trkpt>
      <trkpt lat="46.04515" lon="4.54451">
        <ele>638</ele>
        <time>2016-11-27T10:50:18.000Z</time>
      </trkpt>
      <trkpt lat="46.04515" lon="4.54451">
        <ele>638</ele>
        <time>2016-11-27T10:50:19.000Z</time>
      </trkpt>
      <trkpt lat="46.04515" lon="4.5445">
        <ele>638</ele>
        <time>2016-11-27T10:50:20.000Z</time>
      </trkpt>
      <trkpt lat="46.04515" lon="4.5445">
        <ele>639</ele>
        <time>2016-11-27T10:50:21.000Z</time>
      </trkpt>
      <trkpt lat="46.04514" lon="4.5445">
        <ele>640</ele>
        <time>2016-11-27T10:50:22.000Z</time>
      </trkpt>
      <trkpt lat="46.04514" lon="4.54451">
        <ele>641</ele>
        <time>2016-11-27T10:50:23.000Z</time>
      </trkpt>
      <trkpt lat="46.04513" lon="4.54451">
        <ele>642</ele>
        <time>2016-11-27T10:50:24.000Z</time>
      </trkpt>
      <trkpt lat="46.04513" lon="4.54452">
        <ele>643</ele>
        <time>2016-11-27T10:50:25.000Z</time>
      </trkpt>
      <trkpt lat="46.04513" lon="4.54453">
        <ele>643</ele>
        <time>2016-11-27T10:50:26.000Z</time>
      </trkpt>
      <trkpt lat="46.04512" lon="4.54453">
        <ele>643</ele>
        <time>2016-11-27T10:50:27.000Z</time>
      </trkpt>
      <trkpt lat="46.04512" lon="4.54453">
        <ele>643</ele>
        <time>2016-11-27T10:50:28.000Z</time>
      </trkpt>
      <trkpt lat="46.04512" lon="4.54453">
        <ele>643</ele>
        <time>2016-11-27T10:50:29.000Z</time>
      </trkpt>
      <trkpt lat="46.04512" lon="4.54453">
        <ele>644</ele>
        <time>2016-11-27T10:50:30.000Z</time>
      </trkpt>
      <trkpt lat="46.04512" lon="4.54453">
        <ele>644</ele>
        <time>2016-11-27T10:50:31.000Z</time>
      </trkpt>
      <trkpt lat="46.04512" lon="4.54453">
        <ele>645</ele>
        <time>2016-11-27T10:50:32.000Z</time>
      </trkpt>
      <trkpt lat="46.04512" lon="4.54454">
        <ele>645</ele>
        <time>2016-11-27T10:50:33.000Z</time>
      </trkpt>
      <trkpt lat="46.04512" lon="4.54454">
        <ele>646</ele>
        <time>2016-11-27T10:50:34.000Z</time>
      </trkpt>
      <trkpt lat="46.04511" lon="4.54454">
        <ele>646</ele>
        <time>2016-11-27T10:50:35.000Z</time>
      </trkpt>
      <trkpt lat="46.04511" lon="4.54455">
        <ele>647</ele>
        <time>2016-11-27T10:50:36.000Z</time>
      </trkpt>
      <trkpt lat="46.04511" lon="4.54455">
        <ele>648</ele>
        <time>2016-11-27T10:50:37.000Z</time>
      </trkpt>
      <trkpt lat="46.04511" lon="4.54456">
        <ele>648</ele>
        <time>2016-11-27T10:50:38.000Z</time>
      </trkpt>
      <trkpt lat="46.0451" lon="4.54456">
        <ele>648</ele>
        <time>2016-11-27T10:50:39.000Z</time>
      </trkpt>
      <trkpt lat="46.0451" lon="4.54457">
        <ele>648</ele>
        <time>2016-11-27T10:50:40.000Z</time>
      </trkpt>
      <trkpt lat="46.0451" lon="4.54457">
        <ele>648</ele>
        <time>2016-11-27T10:50:41.000Z</time>
      </trkpt>
      <trkpt lat="46.0451" lon="4.54457">
        <ele>648</ele>
        <time>2016-11-27T10:50:42.000Z</time>
      </trkpt>
      <trkpt lat="46.0451" lon="4.54457">
        <ele>648</ele>
        <time>2016-11-27T10:50:43.000Z</time>
      </trkpt>
      <trkpt lat="46.0451" lon="4.54456">
        <ele>648</ele>
        <time>2016-11-27T10:50:44.000Z</time>
      </trkpt>
      <trkpt lat="46.0451" lon="4.54456">
        <ele>647</ele>
        <time>2016-11-27T10:50:45.000Z</time>
      </trkpt>
      <trkpt lat="46.0451" lon="4.54456">
        <ele>647</ele>
        <time>2016-11-27T10:50:46.000Z</time>
      </trkpt>
      <trkpt lat="46.0451" lon="4.54456">
        <ele>647</ele>
        <time>2016-11-27T10:50:47.000Z</time>
      </trkpt>
      <trkpt lat="46.0451" lon="4.54456">
        <ele>647</ele>
        <time>2016-11-27T10:50:48.000Z</time>
      </trkpt>
      <trkpt lat="46.0451" lon="4.54456">
        <ele>646</ele>
        <time>2016-11-27T10:50:49.000Z</time>
      </trkpt>
      <trkpt lat="46.0451" lon="4.54457">
        <ele>646</ele>
        <time>2016-11-27T10:50:50.000Z</time>
      </trkpt>
      <trkpt lat="46.0451" lon="4.54457">
        <ele>646</ele>
        <time>2016-11-27T10:50:51.000Z</time>
      </trkpt>
      <trkpt lat="46.0451" lon="4.54457">
        <ele>645</ele>
        <time>2016-11-27T10:50:52.000Z</time>
      </trkpt>
      <trkpt lat="46.0451" lon="4.54458">
        <ele>645</ele>
        <time>2016-11-27T10:50:53.000Z</time>
      </trkpt>
      <trkpt lat="46.04511" lon="4.54459">
        <ele>644</ele>
        <time>2016-11-27T10:50:54.000Z</time>
      </trkpt>
      <trkpt lat="46.04512" lon="4.54461">
        <ele>643</ele>
        <time>2016-11-27T10:50:55.000Z</time>
      </trkpt>
      <trkpt lat="46.04512" lon="4.54463">
        <ele>642</ele>
        <time>2016-11-27T10:50:56.000Z</time>
      </trkpt>
      <trkpt lat="46.04513" lon="4.54466">
        <ele>640</ele>
        <time>2016-11-27T10:50:57.000Z</time>
      </trkpt>
      <trkpt lat="46.04514" lon="4.54469">
        <ele>639</ele>
        <time>2016-11-27T10:50:58.000Z</time>
      </trkpt>
      <trkpt lat="46.04514" lon="4.54472">
        <ele>637</ele>
        <time>2016-11-27T10:50:59.000Z</time>
      </trkpt>
      <trkpt lat="46.04514" lon="4.54475">
        <ele>635</ele>
        <time>2016-11-27T10:51:00.000Z</time>
      </trkpt>
      <trkpt lat="46.04515" lon="4.54478">
        <ele>634</ele>
        <time>2016-11-27T10:51:01.000Z</time>
      </trkpt>
      <trkpt lat="46.04515" lon="4.54481">
        <ele>632</ele>
        <time>2016-11-27T10:51:02.000Z</time>
      </trkpt>
      <trkpt lat="46.04516" lon="4.54484">
        <ele>629</ele>
        <time>2016-11-27T10:51:03.000Z</time>
      </trkpt>
      <trkpt lat="46.04517" lon="4.54486">
        <ele>627</ele>
        <time>2016-11-27T10:51:04.000Z</time>
      </trkpt>
      <trkpt lat="46.04518" lon="4.54488">
        <ele>626</ele>
        <time>2016-11-27T10:51:05.000Z</time>
      </trkpt>
      <trkpt lat="46.04519" lon="4.54491">
        <ele>624</ele>
        <time>2016-11-27T10:51:06.000Z</time>
      </trkpt>
      <trkpt lat="46.0452" lon="4.54494">
        <ele>622</ele>
        <time>2016-11-27T10:51:07.000Z</time>
      </trkpt>
      <trkpt lat="46.04521" lon="4.54498">
        <ele>621</ele>
        <time>2016-11-27T10:51:08.000Z</time>
      </trkpt>
      <trkpt lat="46.04521" lon="4.54503">
        <ele>621</ele>
        <time>2016-11-27T10:51:09.000Z</time>
      </trkpt>
      <trkpt lat="46.04521" lon="4.54506">
        <ele>617</ele>
        <time>2016-11-27T10:51:10.000Z</time>
      </trkpt>
      <trkpt lat="46.04522" lon="4.54508">
        <ele>619</ele>
        <time>2016-11-27T10:51:11.000Z</time>
      </trkpt>
      <trkpt lat="46.04523" lon="4.54509">
        <ele>618</ele>
        <time>2016-11-27T10:51:12.000Z</time>
      </trkpt>
      <trkpt lat="46.04523" lon="4.54512">
        <ele>616</ele>
        <time>2016-11-27T10:51:13.000Z</time>
      </trkpt>
      <trkpt lat="46.04523" lon="4.54514">
        <ele>614</ele>
        <time>2016-11-27T10:51:14.000Z</time>
      </trkpt>
      <trkpt lat="46.04524" lon="4.54516">
        <ele>612</ele>
        <time>2016-11-27T10:51:15.000Z</time>
      </trkpt>
      <trkpt lat="46.04525" lon="4.54519">
        <ele>611</ele>
        <time>2016-11-27T10:51:16.000Z</time>
      </trkpt>
      <trkpt lat="46.04526" lon="4.54521">
        <ele>610</ele>
        <time>2016-11-27T10:51:17.000Z</time>
      </trkpt>
      <trkpt lat="46.04527" lon="4.54524">
        <ele>609</ele>
        <time>2016-11-27T10:51:18.000Z</time>
      </trkpt>
      <trkpt lat="46.04527" lon="4.54527">
        <ele>608</ele>
        <time>2016-11-27T10:51:19.000Z</time>
      </trkpt>
      <trkpt lat="46.04527" lon="4.5453">
        <ele>607</ele>
        <time>2016-11-27T10:51:20.000Z</time>
      </trkpt>
      <trkpt lat="46.04528" lon="4.54533">
        <ele>605</ele>
        <time>2016-11-27T10:51:21.000Z</time>
      </trkpt>
      <trkpt lat="46.04528" lon="4.54536">
        <ele>605</ele>
        <time>2016-11-27T10:51:22.000Z</time>
      </trkpt>
      <trkpt lat="46.04528" lon="4.5454">
        <ele>603</ele>
        <time>2016-11-27T10:51:23.000Z</time>
      </trkpt>
      <trkpt lat="46.04528" lon="4.54543">
        <ele>602</ele>
        <time>2016-11-27T10:51:24.000Z</time>
      </trkpt>
      <trkpt lat="46.04528" lon="4.54546">
        <ele>600</ele>
        <time>2016-11-27T10:51:25.000Z</time>
      </trkpt>
      <trkpt lat="46.04528" lon="4.54549">
        <ele>598</ele>
        <time>2016-11-27T10:51:26.000Z</time>
      </trkpt>
      <trkpt lat="46.04528" lon="4.54553">
        <ele>596</ele>
        <time>2016-11-27T10:51:27.000Z</time>
      </trkpt>
      <trkpt lat="46.04528" lon="4.54556">
        <ele>595</ele>
        <time>2016-11-27T10:51:28.000Z</time>
      </trkpt>
      <trkpt lat="46.04529" lon="4.5456">
        <ele>593</ele>
        <time>2016-11-27T10:51:29.000Z</time>
      </trkpt>
      <trkpt lat="46.04529" lon="4.54564">
        <ele>592</ele>
        <time>2016-11-27T10:51:30.000Z</time>
      </trkpt>
      <trkpt lat="46.0453" lon="4.54567">
        <ele>591</ele>
        <time>2016-11-27T10:51:31.000Z</time>
      </trkpt>
      <trkpt lat="46.0453" lon="4.54571">
        <ele>589</ele>
        <time>2016-11-27T10:51:32.000Z</time>
      </trkpt>
      <trkpt lat="46.0453" lon="4.54575">
        <ele>588</ele>
        <time>2016-11-27T10:51:33.000Z</time>
      </trkpt>
      <trkpt lat="46.0453" lon="4.54578">
        <ele>588</ele>
        <time>2016-11-27T10:51:34.000Z</time>
      </trkpt>
      <trkpt lat="46.04531" lon="4.54583">
        <ele>587</ele>
        <time>2016-11-27T10:51:35.000Z</time>
      </trkpt>
      <trkpt lat="46.04531" lon="4.54588">
        <ele>587</ele>
        <time>2016-11-27T10:51:36.000Z</time>
      </trkpt>
      <trkpt lat="46.04531" lon="4.54593">
        <ele>587</ele>
        <time>2016-11-27T10:51:37.000Z</time>
      </trkpt>
      <trkpt lat="46.04531" lon="4.54598">
        <ele>586</ele>
        <time>2016-11-27T10:51:38.000Z</time>
      </trkpt>
      <trkpt lat="46.0453" lon="4.54603">
        <ele>585</ele>
        <time>2016-11-27T10:51:39.000Z</time>
      </trkpt>
      <trkpt lat="46.0453" lon="4.54609">
        <ele>584</ele>
        <time>2016-11-27T10:51:40.000Z</time>
      </trkpt>
      <trkpt lat="46.0453" lon="4.54614">
        <ele>582</ele>
        <time>2016-11-27T10:51:41.000Z</time>
      </trkpt>
      <trkpt lat="46.0453" lon="4.5462">
        <ele>581</ele>
        <time>2016-11-27T10:51:42.000Z</time>
      </trkpt>
      <trkpt lat="46.0453" lon="4.54625">
        <ele>580</ele>
        <time>2016-11-27T10:51:43.000Z</time>
      </trkpt>
      <trkpt lat="46.04529" lon="4.5463">
        <ele>580</ele>
        <time>2016-11-27T10:51:44.000Z</time>
      </trkpt>
      <trkpt lat="46.04528" lon="4.54636">
        <ele>580</ele>
        <time>2016-11-27T10:51:45.000Z</time>
      </trkpt>
      <trkpt lat="46.04527" lon="4.54642">
        <ele>581</ele>
        <time>2016-11-27T10:51:46.000Z</time>
      </trkpt>
      <trkpt lat="46.04525" lon="4.54647">
        <ele>582</ele>
        <time>2016-11-27T10:51:47.000Z</time>
      </trkpt>
      <trkpt lat="46.04525" lon="4.54649">
        <ele>581</ele>
        <time>2016-11-27T10:51:48.000Z</time>
      </trkpt>
      <trkpt lat="46.04524" lon="4.54651">
        <ele>580</ele>
        <time>2016-11-27T10:51:49.000Z</time>
      </trkpt>
      <trkpt lat="46.04524" lon="4.54652">
        <ele>580</ele>
        <time>2016-11-27T10:51:50.000Z</time>
      </trkpt>
      <trkpt lat="46.04523" lon="4.54654">
        <ele>581</ele>
        <time>2016-11-27T10:51:51.000Z</time>
      </trkpt>
      <trkpt lat="46.04523" lon="4.54656">
        <ele>581</ele>
        <time>2016-11-27T10:51:52.000Z</time>
      </trkpt>
      <trkpt lat="46.04522" lon="4.54657">
        <ele>581</ele>
        <time>2016-11-27T10:51:53.000Z</time>
      </trkpt>
      <trkpt lat="46.04522" lon="4.54659">
        <ele>581</ele>
        <time>2016-11-27T10:51:54.000Z</time>
      </trkpt>
      <trkpt lat="46.04522" lon="4.5466">
        <ele>580</ele>
        <time>2016-11-27T10:51:55.000Z</time>
      </trkpt>
      <trkpt lat="46.04522" lon="4.54662">
        <ele>579</ele>
        <time>2016-11-27T10:51:56.000Z</time>
      </trkpt>
      <trkpt lat="46.04523" lon="4.54664">
        <ele>579</ele>
        <time>2016-11-27T10:51:57.000Z</time>
      </trkpt>
      <trkpt lat="46.04523" lon="4.54665">
        <ele>579</ele>
        <time>2016-11-27T10:51:58.000Z</time>
      </trkpt>
      <trkpt lat="46.04523" lon="4.54667">
        <ele>579</ele>
        <time>2016-11-27T10:51:59.000Z</time>
      </trkpt>
      <trkpt lat="46.04523" lon="4.54667">
        <ele>579</ele>
        <time>2016-11-27T10:52:00.000Z</time>
      </trkpt>
      <trkpt lat="46.04523" lon="4.54667">
        <ele>579</ele>
        <time>2016-11-27T10:52:01.000Z</time>
      </trkpt>
      <trkpt lat="46.04523" lon="4.54667">
        <ele>578</ele>
        <time>2016-11-27T10:52:02.000Z</time>
      </trkpt>
      <trkpt lat="46.04524" lon="4.54668">
        <ele>578</ele>
        <time>2016-11-27T10:52:03.000Z</time>
      </trkpt>
      <trkpt lat="46.04525" lon="4.54668">
        <ele>578</ele>
        <time>2016-11-27T10:52:04.000Z</time>
      </trkpt>
      <trkpt lat="46.04526" lon="4.54668">
        <ele>578</ele>
        <time>2016-11-27T10:52:05.000Z</time>
      </trkpt>
      <trkpt lat="46.04526" lon="4.54668">
        <ele>578</ele>
        <time>2016-11-27T10:52:06.000Z</time>
      </trkpt>
      <trkpt lat="46.04527" lon="4.54668">
        <ele>578</ele>
        <time>2016-11-27T10:52:07.000Z</time>
      </trkpt>
      <trkpt lat="46.04527" lon="4.54668">
        <ele>579</ele>
        <time>2016-11-27T10:52:08.000Z</time>
      </trkpt>
      <trkpt lat="46.04527" lon="4.54668">
        <ele>579</ele>
        <time>2016-11-27T10:52:09.000Z</time>
      </trkpt>
      <trkpt lat="46.04527" lon="4.54668">
        <ele>579</ele>
        <time>2016-11-27T10:52:10.000Z</time>
      </trkpt>
      <trkpt lat="46.04528" lon="4.54668">
        <ele>578</ele>
        <time>2016-11-27T10:52:11.000Z</time>
      </trkpt>
      <trkpt lat="46.04529" lon="4.54668">
        <ele>576</ele>
        <time>2016-11-27T10:52:12.000Z</time>
      </trkpt>
      <trkpt lat="46.04531" lon="4.54669">
        <ele>576</ele>
        <time>2016-11-27T10:52:13.000Z</time>
      </trkpt>
      <trkpt lat="46.04532" lon="4.54669">
        <ele>575</ele>
        <time>2016-11-27T10:52:14.000Z</time>
      </trkpt>
      <trkpt lat="46.04533" lon="4.54671">
        <ele>574</ele>
        <time>2016-11-27T10:52:15.000Z</time>
      </trkpt>
      <trkpt lat="46.04533" lon="4.54675">
        <ele>573</ele>
        <time>2016-11-27T10:52:16.000Z</time>
      </trkpt>
      <trkpt lat="46.04532" lon="4.54678">
        <ele>574</ele>
        <time>2016-11-27T10:52:17.000Z</time>
      </trkpt>
      <trkpt lat="46.04531" lon="4.54679">
        <ele>573</ele>
        <time>2016-11-27T10:52:18.000Z</time>
      </trkpt>
      <trkpt lat="46.0453" lon="4.54681">
        <ele>573</ele>
        <time>2016-11-27T10:52:19.000Z</time>
      </trkpt>
      <trkpt lat="46.04528" lon="4.54682">
        <ele>573</ele>
        <time>2016-11-27T10:52:20.000Z</time>
      </trkpt>
      <trkpt lat="46.04527" lon="4.54685">
        <ele>573</ele>
        <time>2016-11-27T10:52:21.000Z</time>
      </trkpt>
      <trkpt lat="46.04526" lon="4.54688">
        <ele>573</ele>
        <time>2016-11-27T10:52:22.000Z</time>
      </trkpt>
      <trkpt lat="46.04524" lon="4.5469">
        <ele>573</ele>
        <time>2016-11-27T10:52:23.000Z</time>
      </trkpt>
      <trkpt lat="46.04523" lon="4.54693">
        <ele>572</ele>
        <time>2016-11-27T10:52:24.000Z</time>
      </trkpt>
      <trkpt lat="46.04522" lon="4.54696">
        <ele>572</ele>
        <time>2016-11-27T10:52:25.000Z</time>
      </trkpt>
      <trkpt lat="46.0452" lon="4.54698">
        <ele>572</ele>
        <time>2016-11-27T10:52:26.000Z</time>
      </trkpt>
      <trkpt lat="46.04519" lon="4.54702">
        <ele>572</ele>
        <time>2016-11-27T10:52:27.000Z</time>
      </trkpt>
      <trkpt lat="46.04519" lon="4.54705">
        <ele>572</ele>
        <time>2016-11-27T10:52:28.000Z</time>
      </trkpt>
      <trkpt lat="46.04518" lon="4.54709">
        <ele>572</ele>
        <time>2016-11-27T10:52:29.000Z</time>
      </trkpt>
      <trkpt lat="46.04517" lon="4.54712">
        <ele>572</ele>
        <time>2016-11-27T10:52:30.000Z</time>
      </trkpt>
      <trkpt lat="46.04516" lon="4.54716">
        <ele>572</ele>
        <time>2016-11-27T10:52:31.000Z</time>
      </trkpt>
      <trkpt lat="46.04515" lon="4.5472">
        <ele>572</ele>
        <time>2016-11-27T10:52:32.000Z</time>
      </trkpt>
      <trkpt lat="46.04514" lon="4.54723">
        <ele>573</ele>
        <time>2016-11-27T10:52:33.000Z</time>
      </trkpt>
      <trkpt lat="46.04513" lon="4.54727">
        <ele>573</ele>
        <time>2016-11-27T10:52:34.000Z</time>
      </trkpt>
      <trkpt lat="46.04512" lon="4.5473">
        <ele>573</ele>
        <time>2016-11-27T10:52:35.000Z</time>
      </trkpt>
      <trkpt lat="46.04511" lon="4.54734">
        <ele>573</ele>
        <time>2016-11-27T10:52:36.000Z</time>
      </trkpt>
      <trkpt lat="46.0451" lon="4.54737">
        <ele>573</ele>
        <time>2016-11-27T10:52:37.000Z</time>
      </trkpt>
      <trkpt lat="46.04509" lon="4.54741">
        <ele>573</ele>
        <time>2016-11-27T10:52:38.000Z</time>
      </trkpt>
      <trkpt lat="46.04508" lon="4.54744">
        <ele>573</ele>
        <time>2016-11-27T10:52:39.000Z</time>
      </trkpt>
      <trkpt lat="46.04508" lon="4.54748">
        <ele>574</ele>
        <time>2016-11-27T10:52:40.000Z</time>
      </trkpt>
      <trkpt lat="46.04507" lon="4.54752">
        <ele>574</ele>
        <time>2016-11-27T10:52:41.000Z</time>
      </trkpt>
      <trkpt lat="46.04505" lon="4.54755">
        <ele>573</ele>
        <time>2016-11-27T10:52:42.000Z</time>
      </trkpt>
      <trkpt lat="46.04504" lon="4.54759">
        <ele>573</ele>
        <time>2016-11-27T10:52:43.000Z</time>
      </trkpt>
      <trkpt lat="46.04503" lon="4.54762">
        <ele>573</ele>
        <time>2016-11-27T10:52:44.000Z</time>
      </trkpt>
      <trkpt lat="46.04502" lon="4.54766">
        <ele>573</ele>
        <time>2016-11-27T10:52:45.000Z</time>
      </trkpt>
      <trkpt lat="46.04501" lon="4.54769">
        <ele>573</ele>
        <time>2016-11-27T10:52:46.000Z</time>
      </trkpt>
      <trkpt lat="46.045" lon="4.54772">
        <ele>573</ele>
        <time>2016-11-27T10:52:47.000Z</time>
      </trkpt>
      <trkpt lat="46.04499" lon="4.54775">
        <ele>574</ele>
        <time>2016-11-27T10:52:48.000Z</time>
      </trkpt>
      <trkpt lat="46.04498" lon="4.54778">
        <ele>573</ele>
        <time>2016-11-27T10:52:49.000Z</time>
      </trkpt>
      <trkpt lat="46.04496" lon="4.54781">
        <ele>574</ele>
        <time>2016-11-27T10:52:50.000Z</time>
      </trkpt>
      <trkpt lat="46.04495" lon="4.54784">
        <ele>574</ele>
        <time>2016-11-27T10:52:51.000Z</time>
      </trkpt>
      <trkpt lat="46.04494" lon="4.54787">
        <ele>574</ele>
        <time>2016-11-27T10:52:52.000Z</time>
      </trkpt>
      <trkpt lat="46.04493" lon="4.54789">
        <ele>574</ele>
        <time>2016-11-27T10:52:53.000Z</time>
      </trkpt>
      <trkpt lat="46.04491" lon="4.54792">
        <ele>575</ele>
        <time>2016-11-27T10:52:54.000Z</time>
      </trkpt>
      <trkpt lat="46.0449" lon="4.54795">
        <ele>575</ele>
        <time>2016-11-27T10:52:55.000Z</time>
      </trkpt>
      <trkpt lat="46.04489" lon="4.54798">
        <ele>576</ele>
        <time>2016-11-27T10:52:56.000Z</time>
      </trkpt>
      <trkpt lat="46.04487" lon="4.54801">
        <ele>576</ele>
        <time>2016-11-27T10:52:57.000Z</time>
      </trkpt>
      <trkpt lat="46.04485" lon="4.54804">
        <ele>576</ele>
        <time>2016-11-27T10:52:58.000Z</time>
      </trkpt>
      <trkpt lat="46.04484" lon="4.54806">
        <ele>576</ele>
        <time>2016-11-27T10:52:59.000Z</time>
      </trkpt>
      <trkpt lat="46.04482" lon="4.54809">
        <ele>577</ele>
        <time>2016-11-27T10:53:00.000Z</time>
      </trkpt>
      <trkpt lat="46.04481" lon="4.54811">
        <ele>577</ele>
        <time>2016-11-27T10:53:01.000Z</time>
      </trkpt>
      <trkpt lat="46.04479" lon="4.54813">
        <ele>577</ele>
        <time>2016-11-27T10:53:02.000Z</time>
      </trkpt>
      <trkpt lat="46.04477" lon="4.54815">
        <ele>578</ele>
        <time>2016-11-27T10:53:03.000Z</time>
      </trkpt>
      <trkpt lat="46.04476" lon="4.54817">
        <ele>578</ele>
        <time>2016-11-27T10:53:04.000Z</time>
      </trkpt>
      <trkpt lat="46.04474" lon="4.54819">
        <ele>578</ele>
        <time>2016-11-27T10:53:05.000Z</time>
      </trkpt>
      <trkpt lat="46.04471" lon="4.54821">
        <ele>578</ele>
        <time>2016-11-27T10:53:06.000Z</time>
      </trkpt>
      <trkpt lat="46.04469" lon="4.54823">
        <ele>579</ele>
        <time>2016-11-27T10:53:07.000Z</time>
      </trkpt>
      <trkpt lat="46.04467" lon="4.54825">
        <ele>578</ele>
        <time>2016-11-27T10:53:08.000Z</time>
      </trkpt>
      <trkpt lat="46.04465" lon="4.54826">
        <ele>578</ele>
        <time>2016-11-27T10:53:09.000Z</time>
      </trkpt>
      <trkpt lat="46.04463" lon="4.54828">
        <ele>579</ele>
        <time>2016-11-27T10:53:10.000Z</time>
      </trkpt>
      <trkpt lat="46.04461" lon="4.5483">
        <ele>579</ele>
        <time>2016-11-27T10:53:11.000Z</time>
      </trkpt>
      <trkpt lat="46.04459" lon="4.54831">
        <ele>579</ele>
        <time>2016-11-27T10:53:12.000Z</time>
      </trkpt>
      <trkpt lat="46.04458" lon="4.54833">
        <ele>579</ele>
        <time>2016-11-27T10:53:13.000Z</time>
      </trkpt>
      <trkpt lat="46.04456" lon="4.54835">
        <ele>579</ele>
        <time>2016-11-27T10:53:14.000Z</time>
      </trkpt>
      <trkpt lat="46.04454" lon="4.54837">
        <ele>579</ele>
        <time>2016-11-27T10:53:15.000Z</time>
      </trkpt>
      <trkpt lat="46.04453" lon="4.54839">
        <ele>579</ele>
        <time>2016-11-27T10:53:16.000Z</time>
      </trkpt>
      <trkpt lat="46.04451" lon="4.54841">
        <ele>579</ele>
        <time>2016-11-27T10:53:17.000Z</time>
      </trkpt>
      <trkpt lat="46.04449" lon="4.54844">
        <ele>579</ele>
        <time>2016-11-27T10:53:18.000Z</time>
      </trkpt>
      <trkpt lat="46.04448" lon="4.54847">
        <ele>579</ele>
        <time>2016-11-27T10:53:19.000Z</time>
      </trkpt>
      <trkpt lat="46.04447" lon="4.54851">
        <ele>581</ele>
        <time>2016-11-27T10:53:20.000Z</time>
      </trkpt>
      <trkpt lat="46.04445" lon="4.54855">
        <ele>581</ele>
        <time>2016-11-27T10:53:21.000Z</time>
      </trkpt>
      <trkpt lat="46.04445" lon="4.54859">
        <ele>582</ele>
        <time>2016-11-27T10:53:22.000Z</time>
      </trkpt>
      <trkpt lat="46.04444" lon="4.54863">
        <ele>583</ele>
        <time>2016-11-27T10:53:23.000Z</time>
      </trkpt>
      <trkpt lat="46.04444" lon="4.54867">
        <ele>583</ele>
        <time>2016-11-27T10:53:24.000Z</time>
      </trkpt>
      <trkpt lat="46.04445" lon="4.5487">
        <ele>583</ele>
        <time>2016-11-27T10:53:25.000Z</time>
      </trkpt>
      <trkpt lat="46.04445" lon="4.54873">
        <ele>583</ele>
        <time>2016-11-27T10:53:26.000Z</time>
      </trkpt>
      <trkpt lat="46.04445" lon="4.54877">
        <ele>583</ele>
        <time>2016-11-27T10:53:27.000Z</time>
      </trkpt>
      <trkpt lat="46.04446" lon="4.5488">
        <ele>583</ele>
        <time>2016-11-27T10:53:28.000Z</time>
      </trkpt>
      <trkpt lat="46.04446" lon="4.54884">
        <ele>583</ele>
        <time>2016-11-27T10:53:29.000Z</time>
      </trkpt>
      <trkpt lat="46.04447" lon="4.54888">
        <ele>583</ele>
        <time>2016-11-27T10:53:30.000Z</time>
      </trkpt>
      <trkpt lat="46.04448" lon="4.54892">
        <ele>583</ele>
        <time>2016-11-27T10:53:31.000Z</time>
      </trkpt>
      <trkpt lat="46.04448" lon="4.54895">
        <ele>584</ele>
        <time>2016-11-27T10:53:32.000Z</time>
      </trkpt>
      <trkpt lat="46.04449" lon="4.54899">
        <ele>583</ele>
        <time>2016-11-27T10:53:33.000Z</time>
      </trkpt>
      <trkpt lat="46.04449" lon="4.54902">
        <ele>584</ele>
        <time>2016-11-27T10:53:34.000Z</time>
      </trkpt>
      <trkpt lat="46.04449" lon="4.54905">
        <ele>583</ele>
        <time>2016-11-27T10:53:35.000Z</time>
      </trkpt>
      <trkpt lat="46.04449" lon="4.54909">
        <ele>583</ele>
        <time>2016-11-27T10:53:36.000Z</time>
      </trkpt>
      <trkpt lat="46.0445" lon="4.54912">
        <ele>583</ele>
        <time>2016-11-27T10:53:37.000Z</time>
      </trkpt>
      <trkpt lat="46.0445" lon="4.54915">
        <ele>583</ele>
        <time>2016-11-27T10:53:38.000Z</time>
      </trkpt>
      <trkpt lat="46.0445" lon="4.54919">
        <ele>583</ele>
        <time>2016-11-27T10:53:39.000Z</time>
      </trkpt>
      <trkpt lat="46.0445" lon="4.54923">
        <ele>584</ele>
        <time>2016-11-27T10:53:40.000Z</time>
      </trkpt>
      <trkpt lat="46.0445" lon="4.54927">
        <ele>584</ele>
        <time>2016-11-27T10:53:41.000Z</time>
      </trkpt>
      <trkpt lat="46.0445" lon="4.5493">
        <ele>584</ele>
        <time>2016-11-27T10:53:42.000Z</time>
      </trkpt>
      <trkpt lat="46.0445" lon="4.54934">
        <ele>585</ele>
        <time>2016-11-27T10:53:43.000Z</time>
      </trkpt>
      <trkpt lat="46.0445" lon="4.54937">
        <ele>585</ele>
        <time>2016-11-27T10:53:44.000Z</time>
      </trkpt>
      <trkpt lat="46.0445" lon="4.54941">
        <ele>586</ele>
        <time>2016-11-27T10:53:45.000Z</time>
      </trkpt>
      <trkpt lat="46.0445" lon="4.54944">
        <ele>587</ele>
        <time>2016-11-27T10:53:46.000Z</time>
      </trkpt>
      <trkpt lat="46.0445" lon="4.54948">
        <ele>586</ele>
        <time>2016-11-27T10:53:47.000Z</time>
      </trkpt>
      <trkpt lat="46.0445" lon="4.54951">
        <ele>587</ele>
        <time>2016-11-27T10:53:48.000Z</time>
      </trkpt>
      <trkpt lat="46.04449" lon="4.54954">
        <ele>587</ele>
        <time>2016-11-27T10:53:49.000Z</time>
      </trkpt>
      <trkpt lat="46.04449" lon="4.54958">
        <ele>588</ele>
        <time>2016-11-27T10:53:50.000Z</time>
      </trkpt>
      <trkpt lat="46.04449" lon="4.54961">
        <ele>588</ele>
        <time>2016-11-27T10:53:51.000Z</time>
      </trkpt>
      <trkpt lat="46.04448" lon="4.54964">
        <ele>589</ele>
        <time>2016-11-27T10:53:52.000Z</time>
      </trkpt>
      <trkpt lat="46.04448" lon="4.54968">
        <ele>589</ele>
        <time>2016-11-27T10:53:53.000Z</time>
      </trkpt>
      <trkpt lat="46.04447" lon="4.54972">
        <ele>589</ele>
        <time>2016-11-27T10:53:54.000Z</time>
      </trkpt>
      <trkpt lat="46.04445" lon="4.54975">
        <ele>590</ele>
        <time>2016-11-27T10:53:55.000Z</time>
      </trkpt>
      <trkpt lat="46.04444" lon="4.54979">
        <ele>590</ele>
        <time>2016-11-27T10:53:56.000Z</time>
      </trkpt>
      <trkpt lat="46.04443" lon="4.54983">
        <ele>591</ele>
        <time>2016-11-27T10:53:57.000Z</time>
      </trkpt>
      <trkpt lat="46.04442" lon="4.54986">
        <ele>591</ele>
        <time>2016-11-27T10:53:58.000Z</time>
      </trkpt>
      <trkpt lat="46.04441" lon="4.5499">
        <ele>592</ele>
        <time>2016-11-27T10:53:59.000Z</time>
      </trkpt>
      <trkpt lat="46.0444" lon="4.54994">
        <ele>593</ele>
        <time>2016-11-27T10:54:00.000Z</time>
      </trkpt>
      <trkpt lat="46.04439" lon="4.54997">
        <ele>593</ele>
        <time>2016-11-27T10:54:01.000Z</time>
      </trkpt>
      <trkpt lat="46.04438" lon="4.55">
        <ele>594</ele>
        <time>2016-11-27T10:54:02.000Z</time>
      </trkpt>
      <trkpt lat="46.04437" lon="4.55003">
        <ele>595</ele>
        <time>2016-11-27T10:54:03.000Z</time>
      </trkpt>
      <trkpt lat="46.04436" lon="4.55006">
        <ele>596</ele>
        <time>2016-11-27T10:54:04.000Z</time>
      </trkpt>
      <trkpt lat="46.04434" lon="4.5501">
        <ele>597</ele>
        <time>2016-11-27T10:54:05.000Z</time>
      </trkpt>
      <trkpt lat="46.04433" lon="4.55013">
        <ele>597</ele>
        <time>2016-11-27T10:54:06.000Z</time>
      </trkpt>
      <trkpt lat="46.04432" lon="4.55016">
        <ele>597</ele>
        <time>2016-11-27T10:54:07.000Z</time>
      </trkpt>
      <trkpt lat="46.0443" lon="4.55019">
        <ele>598</ele>
        <time>2016-11-27T10:54:08.000Z</time>
      </trkpt>
      <trkpt lat="46.04429" lon="4.55023">
        <ele>598</ele>
        <time>2016-11-27T10:54:09.000Z</time>
      </trkpt>
      <trkpt lat="46.04428" lon="4.55026">
        <ele>598</ele>
        <time>2016-11-27T10:54:10.000Z</time>
      </trkpt>
      <trkpt lat="46.04426" lon="4.55029">
        <ele>598</ele>
        <time>2016-11-27T10:54:11.000Z</time>
      </trkpt>
      <trkpt lat="46.04425" lon="4.55032">
        <ele>598</ele>
        <time>2016-11-27T10:54:12.000Z</time>
      </trkpt>
      <trkpt lat="46.04424" lon="4.55035">
        <ele>598</ele>
        <time>2016-11-27T10:54:13.000Z</time>
      </trkpt>
      <trkpt lat="46.04422" lon="4.55038">
        <ele>598</ele>
        <time>2016-11-27T10:54:14.000Z</time>
      </trkpt>
      <trkpt lat="46.04421" lon="4.55041">
        <ele>598</ele>
        <time>2016-11-27T10:54:15.000Z</time>
      </trkpt>
      <trkpt lat="46.04419" lon="4.55045">
        <ele>599</ele>
        <time>2016-11-27T10:54:16.000Z</time>
      </trkpt>
      <trkpt lat="46.04417" lon="4.55048">
        <ele>598</ele>
        <time>2016-11-27T10:54:17.000Z</time>
      </trkpt>
      <trkpt lat="46.04415" lon="4.55051">
        <ele>598</ele>
        <time>2016-11-27T10:54:18.000Z</time>
      </trkpt>
      <trkpt lat="46.04414" lon="4.55055">
        <ele>598</ele>
        <time>2016-11-27T10:54:19.000Z</time>
      </trkpt>
      <trkpt lat="46.04412" lon="4.55058">
        <ele>599</ele>
        <time>2016-11-27T10:54:20.000Z</time>
      </trkpt>
      <trkpt lat="46.04411" lon="4.55061">
        <ele>599</ele>
        <time>2016-11-27T10:54:21.000Z</time>
      </trkpt>
      <trkpt lat="46.04409" lon="4.55065">
        <ele>599</ele>
        <time>2016-11-27T10:54:22.000Z</time>
      </trkpt>
      <trkpt lat="46.04408" lon="4.55068">
        <ele>599</ele>
        <time>2016-11-27T10:54:23.000Z</time>
      </trkpt>
      <trkpt lat="46.04407" lon="4.55071">
        <ele>599</ele>
        <time>2016-11-27T10:54:24.000Z</time>
      </trkpt>
      <trkpt lat="46.04405" lon="4.55075">
        <ele>600</ele>
        <time>2016-11-27T10:54:25.000Z</time>
      </trkpt>
      <trkpt lat="46.04404" lon="4.55078">
        <ele>599</ele>
        <time>2016-11-27T10:54:26.000Z</time>
      </trkpt>
      <trkpt lat="46.04404" lon="4.55082">
        <ele>600</ele>
        <time>2016-11-27T10:54:27.000Z</time>
      </trkpt>
      <trkpt lat="46.04403" lon="4.55085">
        <ele>600</ele>
        <time>2016-11-27T10:54:28.000Z</time>
      </trkpt>
      <trkpt lat="46.04402" lon="4.55088">
        <ele>600</ele>
        <time>2016-11-27T10:54:29.000Z</time>
      </trkpt>
      <trkpt lat="46.04401" lon="4.55092">
        <ele>601</ele>
        <time>2016-11-27T10:54:30.000Z</time>
      </trkpt>
      <trkpt lat="46.044" lon="4.55095">
        <ele>600</ele>
        <time>2016-11-27T10:54:31.000Z</time>
      </trkpt>
      <trkpt lat="46.04399" lon="4.55099">
        <ele>600</ele>
        <time>2016-11-27T10:54:32.000Z</time>
      </trkpt>
      <trkpt lat="46.04398" lon="4.55103">
        <ele>599</ele>
        <time>2016-11-27T10:54:33.000Z</time>
      </trkpt>
      <trkpt lat="46.04397" lon="4.55107">
        <ele>599</ele>
        <time>2016-11-27T10:54:34.000Z</time>
      </trkpt>
      <trkpt lat="46.04396" lon="4.55111">
        <ele>598</ele>
        <time>2016-11-27T10:54:35.000Z</time>
      </trkpt>
      <trkpt lat="46.04395" lon="4.55115">
        <ele>598</ele>
        <time>2016-11-27T10:54:36.000Z</time>
      </trkpt>
      <trkpt lat="46.04394" lon="4.55118">
        <ele>598</ele>
        <time>2016-11-27T10:54:37.000Z</time>
      </trkpt>
      <trkpt lat="46.04393" lon="4.55122">
        <ele>598</ele>
        <time>2016-11-27T10:54:38.000Z</time>
      </trkpt>
      <trkpt lat="46.04392" lon="4.55126">
        <ele>597</ele>
        <time>2016-11-27T10:54:39.000Z</time>
      </trkpt>
      <trkpt lat="46.04391" lon="4.5513">
        <ele>597</ele>
        <time>2016-11-27T10:54:40.000Z</time>
      </trkpt>
      <trkpt lat="46.0439" lon="4.55133">
        <ele>596</ele>
        <time>2016-11-27T10:54:41.000Z</time>
      </trkpt>
      <trkpt lat="46.04389" lon="4.55136">
        <ele>597</ele>
        <time>2016-11-27T10:54:42.000Z</time>
      </trkpt>
      <trkpt lat="46.04388" lon="4.55139">
        <ele>596</ele>
        <time>2016-11-27T10:54:43.000Z</time>
      </trkpt>
      <trkpt lat="46.04387" lon="4.55143">
        <ele>596</ele>
        <time>2016-11-27T10:54:44.000Z</time>
      </trkpt>
      <trkpt lat="46.04386" lon="4.55146">
        <ele>595</ele>
        <time>2016-11-27T10:54:45.000Z</time>
      </trkpt>
      <trkpt lat="46.04384" lon="4.5515">
        <ele>594</ele>
        <time>2016-11-27T10:54:46.000Z</time>
      </trkpt>
      <trkpt lat="46.04383" lon="4.55153">
        <ele>594</ele>
        <time>2016-11-27T10:54:47.000Z</time>
      </trkpt>
      <trkpt lat="46.04381" lon="4.55157">
        <ele>594</ele>
        <time>2016-11-27T10:54:48.000Z</time>
      </trkpt>
      <trkpt lat="46.0438" lon="4.5516">
        <ele>594</ele>
        <time>2016-11-27T10:54:49.000Z</time>
      </trkpt>
      <trkpt lat="46.04379" lon="4.55163">
        <ele>593</ele>
        <time>2016-11-27T10:54:50.000Z</time>
      </trkpt>
      <trkpt lat="46.04378" lon="4.55167">
        <ele>593</ele>
        <time>2016-11-27T10:54:51.000Z</time>
      </trkpt>
      <trkpt lat="46.04377" lon="4.5517">
        <ele>593</ele>
        <time>2016-11-27T10:54:52.000Z</time>
      </trkpt>
      <trkpt lat="46.04376" lon="4.55174">
        <ele>593</ele>
        <time>2016-11-27T10:54:53.000Z</time>
      </trkpt>
      <trkpt lat="46.04375" lon="4.55177">
        <ele>593</ele>
        <time>2016-11-27T10:54:54.000Z</time>
      </trkpt>
      <trkpt lat="46.04374" lon="4.5518">
        <ele>593</ele>
        <time>2016-11-27T10:54:55.000Z</time>
      </trkpt>
      <trkpt lat="46.04373" lon="4.55184">
        <ele>592</ele>
        <time>2016-11-27T10:54:56.000Z</time>
      </trkpt>
      <trkpt lat="46.04373" lon="4.55187">
        <ele>592</ele>
        <time>2016-11-27T10:54:57.000Z</time>
      </trkpt>
      <trkpt lat="46.04372" lon="4.5519">
        <ele>592</ele>
        <time>2016-11-27T10:54:58.000Z</time>
      </trkpt>
      <trkpt lat="46.04371" lon="4.55193">
        <ele>591</ele>
        <time>2016-11-27T10:54:59.000Z</time>
      </trkpt>
      <trkpt lat="46.0437" lon="4.55196">
        <ele>591</ele>
        <time>2016-11-27T10:55:00.000Z</time>
      </trkpt>
      <trkpt lat="46.04369" lon="4.55199">
        <ele>591</ele>
        <time>2016-11-27T10:55:01.000Z</time>
      </trkpt>
      <trkpt lat="46.04368" lon="4.55202">
        <ele>591</ele>
        <time>2016-11-27T10:55:02.000Z</time>
      </trkpt>
      <trkpt lat="46.04367" lon="4.55206">
        <ele>592</ele>
        <time>2016-11-27T10:55:03.000Z</time>
      </trkpt>
      <trkpt lat="46.04367" lon="4.5521">
        <ele>593</ele>
        <time>2016-11-27T10:55:04.000Z</time>
      </trkpt>
      <trkpt lat="46.04366" lon="4.55215">
        <ele>594</ele>
        <time>2016-11-27T10:55:05.000Z</time>
      </trkpt>
      <trkpt lat="46.04365" lon="4.55219">
        <ele>594</ele>
        <time>2016-11-27T10:55:06.000Z</time>
      </trkpt>
      <trkpt lat="46.04365" lon="4.55224">
        <ele>594</ele>
        <time>2016-11-27T10:55:07.000Z</time>
      </trkpt>
      <trkpt lat="46.04364" lon="4.55228">
        <ele>595</ele>
        <time>2016-11-27T10:55:08.000Z</time>
      </trkpt>
      <trkpt lat="46.04364" lon="4.55231">
        <ele>595</ele>
        <time>2016-11-27T10:55:09.000Z</time>
      </trkpt>
      <trkpt lat="46.04363" lon="4.55235">
        <ele>595</ele>
        <time>2016-11-27T10:55:10.000Z</time>
      </trkpt>
      <trkpt lat="46.04363" lon="4.55239">
        <ele>596</ele>
        <time>2016-11-27T10:55:11.000Z</time>
      </trkpt>
      <trkpt lat="46.04362" lon="4.55243">
        <ele>596</ele>
        <time>2016-11-27T10:55:12.000Z</time>
      </trkpt>
      <trkpt lat="46.04361" lon="4.55247">
        <ele>596</ele>
        <time>2016-11-27T10:55:13.000Z</time>
      </trkpt>
      <trkpt lat="46.0436" lon="4.55251">
        <ele>596</ele>
        <time>2016-11-27T10:55:14.000Z</time>
      </trkpt>
      <trkpt lat="46.0436" lon="4.55254">
        <ele>596</ele>
        <time>2016-11-27T10:55:15.000Z</time>
      </trkpt>
      <trkpt lat="46.04359" lon="4.55257">
        <ele>596</ele>
        <time>2016-11-27T10:55:16.000Z</time>
      </trkpt>
      <trkpt lat="46.04358" lon="4.55261">
        <ele>596</ele>
        <time>2016-11-27T10:55:17.000Z</time>
      </trkpt>
      <trkpt lat="46.04358" lon="4.55264">
        <ele>596</ele>
        <time>2016-11-27T10:55:18.000Z</time>
      </trkpt>
      <trkpt lat="46.04358" lon="4.55268">
        <ele>596</ele>
        <time>2016-11-27T10:55:19.000Z</time>
      </trkpt>
      <trkpt lat="46.04358" lon="4.55272">
        <ele>597</ele>
        <time>2016-11-27T10:55:20.000Z</time>
      </trkpt>
      <trkpt lat="46.04357" lon="4.55275">
        <ele>597</ele>
        <time>2016-11-27T10:55:21.000Z</time>
      </trkpt>
      <trkpt lat="46.04357" lon="4.55279">
        <ele>597</ele>
        <time>2016-11-27T10:55:22.000Z</time>
      </trkpt>
      <trkpt lat="46.04356" lon="4.55282">
        <ele>598</ele>
        <time>2016-11-27T10:55:23.000Z</time>
      </trkpt>
      <trkpt lat="46.04356" lon="4.55286">
        <ele>599</ele>
        <time>2016-11-27T10:55:24.000Z</time>
      </trkpt>
      <trkpt lat="46.04355" lon="4.5529">
        <ele>599</ele>
        <time>2016-11-27T10:55:25.000Z</time>
      </trkpt>
      <trkpt lat="46.04354" lon="4.55295">
        <ele>599</ele>
        <time>2016-11-27T10:55:26.000Z</time>
      </trkpt>
      <trkpt lat="46.04353" lon="4.55299">
        <ele>599</ele>
        <time>2016-11-27T10:55:27.000Z</time>
      </trkpt>
      <trkpt lat="46.04352" lon="4.55302">
        <ele>600</ele>
        <time>2016-11-27T10:55:28.000Z</time>
      </trkpt>
      <trkpt lat="46.04351" lon="4.55306">
        <ele>600</ele>
        <time>2016-11-27T10:55:29.000Z</time>
      </trkpt>
      <trkpt lat="46.0435" lon="4.5531">
        <ele>600</ele>
        <time>2016-11-27T10:55:30.000Z</time>
      </trkpt>
      <trkpt lat="46.04348" lon="4.55313">
        <ele>600</ele>
        <time>2016-11-27T10:55:31.000Z</time>
      </trkpt>
      <trkpt lat="46.04347" lon="4.55317">
        <ele>601</ele>
        <time>2016-11-27T10:55:32.000Z</time>
      </trkpt>
      <trkpt lat="46.04346" lon="4.55321">
        <ele>601</ele>
        <time>2016-11-27T10:55:33.000Z</time>
      </trkpt>
      <trkpt lat="46.04345" lon="4.55324">
        <ele>601</ele>
        <time>2016-11-27T10:55:34.000Z</time>
      </trkpt>
      <trkpt lat="46.04343" lon="4.55327">
        <ele>601</ele>
        <time>2016-11-27T10:55:35.000Z</time>
      </trkpt>
      <trkpt lat="46.04341" lon="4.5533">
        <ele>602</ele>
        <time>2016-11-27T10:55:36.000Z</time>
      </trkpt>
      <trkpt lat="46.04339" lon="4.55333">
        <ele>601</ele>
        <time>2016-11-27T10:55:37.000Z</time>
      </trkpt>
      <trkpt lat="46.04336" lon="4.55336">
        <ele>599</ele>
        <time>2016-11-27T10:55:38.000Z</time>
      </trkpt>
      <trkpt lat="46.04333" lon="4.55338">
        <ele>598</ele>
        <time>2016-11-27T10:55:39.000Z</time>
      </trkpt>
      <trkpt lat="46.0433" lon="4.55339">
        <ele>599</ele>
        <time>2016-11-27T10:55:40.000Z</time>
      </trkpt>
      <trkpt lat="46.04327" lon="4.55341">
        <ele>599</ele>
        <time>2016-11-27T10:55:41.000Z</time>
      </trkpt>
      <trkpt lat="46.04324" lon="4.55341">
        <ele>598</ele>
        <time>2016-11-27T10:55:42.000Z</time>
      </trkpt>
      <trkpt lat="46.04321" lon="4.55342">
        <ele>599</ele>
        <time>2016-11-27T10:55:43.000Z</time>
      </trkpt>
      <trkpt lat="46.04318" lon="4.55342">
        <ele>598</ele>
        <time>2016-11-27T10:55:44.000Z</time>
      </trkpt>
      <trkpt lat="46.04315" lon="4.55341">
        <ele>598</ele>
        <time>2016-11-27T10:55:45.000Z</time>
      </trkpt>
      <trkpt lat="46.04313" lon="4.5534">
        <ele>598</ele>
        <time>2016-11-27T10:55:46.000Z</time>
      </trkpt>
      <trkpt lat="46.0431" lon="4.55339">
        <ele>598</ele>
        <time>2016-11-27T10:55:47.000Z</time>
      </trkpt>
      <trkpt lat="46.04307" lon="4.55338">
        <ele>598</ele>
        <time>2016-11-27T10:55:48.000Z</time>
      </trkpt>
      <trkpt lat="46.04305" lon="4.55337">
        <ele>598</ele>
        <time>2016-11-27T10:55:49.000Z</time>
      </trkpt>
      <trkpt lat="46.04302" lon="4.55336">
        <ele>598</ele>
        <time>2016-11-27T10:55:50.000Z</time>
      </trkpt>
      <trkpt lat="46.043" lon="4.55335">
        <ele>598</ele>
        <time>2016-11-27T10:55:51.000Z</time>
      </trkpt>
      <trkpt lat="46.04297" lon="4.55334">
        <ele>598</ele>
        <time>2016-11-27T10:55:52.000Z</time>
      </trkpt>
      <trkpt lat="46.04294" lon="4.55333">
        <ele>598</ele>
        <time>2016-11-27T10:55:53.000Z</time>
      </trkpt>
      <trkpt lat="46.04292" lon="4.55332">
        <ele>598</ele>
        <time>2016-11-27T10:55:54.000Z</time>
      </trkpt>
      <trkpt lat="46.0429" lon="4.5533">
        <ele>598</ele>
        <time>2016-11-27T10:55:55.000Z</time>
      </trkpt>
      <trkpt lat="46.04287" lon="4.55329">
        <ele>599</ele>
        <time>2016-11-27T10:55:56.000Z</time>
      </trkpt>
      <trkpt lat="46.04285" lon="4.55328">
        <ele>599</ele>
        <time>2016-11-27T10:55:57.000Z</time>
      </trkpt>
      <trkpt lat="46.04282" lon="4.55327">
        <ele>599</ele>
        <time>2016-11-27T10:55:58.000Z</time>
      </trkpt>
      <trkpt lat="46.04279" lon="4.55326">
        <ele>599</ele>
        <time>2016-11-27T10:55:59.000Z</time>
      </trkpt>
      <trkpt lat="46.04277" lon="4.55326">
        <ele>599</ele>
        <time>2016-11-27T10:56:00.000Z</time>
      </trkpt>
      <trkpt lat="46.04275" lon="4.55325">
        <ele>599</ele>
        <time>2016-11-27T10:56:01.000Z</time>
      </trkpt>
      <trkpt lat="46.04272" lon="4.55324">
        <ele>599</ele>
        <time>2016-11-27T10:56:02.000Z</time>
      </trkpt>
      <trkpt lat="46.0427" lon="4.55323">
        <ele>600</ele>
        <time>2016-11-27T10:56:03.000Z</time>
      </trkpt>
      <trkpt lat="46.04269" lon="4.55321">
        <ele>600</ele>
        <time>2016-11-27T10:56:04.000Z</time>
      </trkpt>
      <trkpt lat="46.04269" lon="4.55321">
        <ele>599</ele>
        <time>2016-11-27T10:56:05.000Z</time>
      </trkpt>
      <trkpt lat="46.04269" lon="4.55321">
        <ele>598</ele>
        <time>2016-11-27T10:56:06.000Z</time>
      </trkpt>
      <trkpt lat="46.0427" lon="4.55321">
        <ele>598</ele>
        <time>2016-11-27T10:56:07.000Z</time>
      </trkpt>
      <trkpt lat="46.04271" lon="4.55322">
        <ele>597</ele>
        <time>2016-11-27T10:56:08.000Z</time>
      </trkpt>
      <trkpt lat="46.04272" lon="4.55322">
        <ele>597</ele>
        <time>2016-11-27T10:56:09.000Z</time>
      </trkpt>
      <trkpt lat="46.04272" lon="4.55322">
        <ele>597</ele>
        <time>2016-11-27T10:56:10.000Z</time>
      </trkpt>
      <trkpt lat="46.04273" lon="4.55322">
        <ele>596</ele>
        <time>2016-11-27T10:56:11.000Z</time>
      </trkpt>
      <trkpt lat="46.04273" lon="4.55322">
        <ele>596</ele>
        <time>2016-11-27T10:56:12.000Z</time>
      </trkpt>
      <trkpt lat="46.04274" lon="4.55323">
        <ele>595</ele>
        <time>2016-11-27T10:56:13.000Z</time>
      </trkpt>
      <trkpt lat="46.04276" lon="4.55323">
        <ele>595</ele>
        <time>2016-11-27T10:56:14.000Z</time>
      </trkpt>
      <trkpt lat="46.04277" lon="4.55324">
        <ele>595</ele>
        <time>2016-11-27T10:56:15.000Z</time>
      </trkpt>
      <trkpt lat="46.04279" lon="4.55325">
        <ele>595</ele>
        <time>2016-11-27T10:56:16.000Z</time>
      </trkpt>
      <trkpt lat="46.04282" lon="4.55326">
        <ele>595</ele>
        <time>2016-11-27T10:56:17.000Z</time>
      </trkpt>
      <trkpt lat="46.04285" lon="4.55327">
        <ele>595</ele>
        <time>2016-11-27T10:56:18.000Z</time>
      </trkpt>
      <trkpt lat="46.04288" lon="4.55329">
        <ele>595</ele>
        <time>2016-11-27T10:56:19.000Z</time>
      </trkpt>
      <trkpt lat="46.0429" lon="4.55331">
        <ele>594</ele>
        <time>2016-11-27T10:56:20.000Z</time>
      </trkpt>
      <trkpt lat="46.04293" lon="4.55332">
        <ele>594</ele>
        <time>2016-11-27T10:56:21.000Z</time>
      </trkpt>
      <trkpt lat="46.04296" lon="4.55333">
        <ele>595</ele>
        <time>2016-11-27T10:56:22.000Z</time>
      </trkpt>
      <trkpt lat="46.04299" lon="4.55335">
        <ele>595</ele>
        <time>2016-11-27T10:56:23.000Z</time>
      </trkpt>
      <trkpt lat="46.04302" lon="4.55336">
        <ele>595</ele>
        <time>2016-11-27T10:56:24.000Z</time>
      </trkpt>
      <trkpt lat="46.04304" lon="4.55338">
        <ele>595</ele>
        <time>2016-11-27T10:56:25.000Z</time>
      </trkpt>
      <trkpt lat="46.04307" lon="4.55339">
        <ele>595</ele>
        <time>2016-11-27T10:56:26.000Z</time>
      </trkpt>
      <trkpt lat="46.04309" lon="4.55339">
        <ele>595</ele>
        <time>2016-11-27T10:56:27.000Z</time>
      </trkpt>
      <trkpt lat="46.0431" lon="4.5534">
        <ele>596</ele>
        <time>2016-11-27T10:56:28.000Z</time>
      </trkpt>
      <trkpt lat="46.0431" lon="4.55341">
        <ele>595</ele>
        <time>2016-11-27T10:56:29.000Z</time>
      </trkpt>
      <trkpt lat="46.0431" lon="4.55341">
        <ele>595</ele>
        <time>2016-11-27T10:56:30.000Z</time>
      </trkpt>
      <trkpt lat="46.0431" lon="4.55341">
        <ele>595</ele>
        <time>2016-11-27T10:56:31.000Z</time>
      </trkpt>
      <trkpt lat="46.04311" lon="4.55341">
        <ele>596</ele>
        <time>2016-11-27T10:56:32.000Z</time>
      </trkpt>
      <trkpt lat="46.04311" lon="4.55342">
        <ele>595</ele>
        <time>2016-11-27T10:56:33.000Z</time>
      </trkpt>
      <trkpt lat="46.04312" lon="4.55342">
        <ele>596</ele>
        <time>2016-11-27T10:56:34.000Z</time>
      </trkpt>
      <trkpt lat="46.04314" lon="4.55342">
        <ele>596</ele>
        <time>2016-11-27T10:56:35.000Z</time>
      </trkpt>
      <trkpt lat="46.04316" lon="4.55343">
        <ele>596</ele>
        <time>2016-11-27T10:56:36.000Z</time>
      </trkpt>
      <trkpt lat="46.04318" lon="4.55343">
        <ele>596</ele>
        <time>2016-11-27T10:56:37.000Z</time>
      </trkpt>
      <trkpt lat="46.04321" lon="4.55342">
        <ele>596</ele>
        <time>2016-11-27T10:56:38.000Z</time>
      </trkpt>
      <trkpt lat="46.04324" lon="4.55341">
        <ele>596</ele>
        <time>2016-11-27T10:56:39.000Z</time>
      </trkpt>
      <trkpt lat="46.04327" lon="4.5534">
        <ele>596</ele>
        <time>2016-11-27T10:56:40.000Z</time>
      </trkpt>
      <trkpt lat="46.0433" lon="4.55339">
        <ele>596</ele>
        <time>2016-11-27T10:56:41.000Z</time>
      </trkpt>
      <trkpt lat="46.04332" lon="4.55338">
        <ele>596</ele>
        <time>2016-11-27T10:56:42.000Z</time>
      </trkpt>
      <trkpt lat="46.04334" lon="4.55336">
        <ele>596</ele>
        <time>2016-11-27T10:56:43.000Z</time>
      </trkpt>
      <trkpt lat="46.04335" lon="4.55335">
        <ele>596</ele>
        <time>2016-11-27T10:56:44.000Z</time>
      </trkpt>
      <trkpt lat="46.04334" lon="4.55333">
        <ele>596</ele>
        <time>2016-11-27T10:56:45.000Z</time>
      </trkpt>
      <trkpt lat="46.04333" lon="4.55332">
        <ele>596</ele>
        <time>2016-11-27T10:56:46.000Z</time>
      </trkpt>
      <trkpt lat="46.04332" lon="4.55332">
        <ele>596</ele>
        <time>2016-11-27T10:56:47.000Z</time>
      </trkpt>
      <trkpt lat="46.0433" lon="4.55333">
        <ele>596</ele>
        <time>2016-11-27T10:56:48.000Z</time>
      </trkpt>
      <trkpt lat="46.04329" lon="4.55334">
        <ele>596</ele>
        <time>2016-11-27T10:56:49.000Z</time>
      </trkpt>
      <trkpt lat="46.04328" lon="4.55334">
        <ele>596</ele>
        <time>2016-11-27T10:56:50.000Z</time>
      </trkpt>
      <trkpt lat="46.04328" lon="4.55334">
        <ele>595</ele>
        <time>2016-11-27T10:56:51.000Z</time>
      </trkpt>
      <trkpt lat="46.04328" lon="4.55333">
        <ele>595</ele>
        <time>2016-11-27T10:56:52.000Z</time>
      </trkpt>
      <trkpt lat="46.04328" lon="4.55332">
        <ele>595</ele>
        <time>2016-11-27T10:56:53.000Z</time>
      </trkpt>
      <trkpt lat="46.04327" lon="4.55331">
        <ele>595</ele>
        <time>2016-11-27T10:56:54.000Z</time>
      </trkpt>
      <trkpt lat="46.04327" lon="4.5533">
        <ele>596</ele>
        <time>2016-11-27T10:56:55.000Z</time>
      </trkpt>
      <trkpt lat="46.04327" lon="4.55328">
        <ele>596</ele>
        <time>2016-11-27T10:56:56.000Z</time>
      </trkpt>
      <trkpt lat="46.04327" lon="4.55327">
        <ele>597</ele>
        <time>2016-11-27T10:56:57.000Z</time>
      </trkpt>
      <trkpt lat="46.04326" lon="4.55325">
        <ele>597</ele>
        <time>2016-11-27T10:56:58.000Z</time>
      </trkpt>
      <trkpt lat="46.04326" lon="4.55324">
        <ele>597</ele>
        <time>2016-11-27T10:56:59.000Z</time>
      </trkpt>
      <trkpt lat="46.04325" lon="4.55322">
        <ele>597</ele>
        <time>2016-11-27T10:57:00.000Z</time>
      </trkpt>
      <trkpt lat="46.04325" lon="4.55321">
        <ele>597</ele>
        <time>2016-11-27T10:57:01.000Z</time>
      </trkpt>
      <trkpt lat="46.04325" lon="4.5532">
        <ele>597</ele>
        <time>2016-11-27T10:57:02.000Z</time>
      </trkpt>
      <trkpt lat="46.04324" lon="4.55319">
        <ele>597</ele>
        <time>2016-11-27T10:57:03.000Z</time>
      </trkpt>
      <trkpt lat="46.04323" lon="4.55317">
        <ele>597</ele>
        <time>2016-11-27T10:57:04.000Z</time>
      </trkpt>
      <trkpt lat="46.04323" lon="4.55316">
        <ele>598</ele>
        <time>2016-11-27T10:57:05.000Z</time>
      </trkpt>
      <trkpt lat="46.04322" lon="4.55315">
        <ele>597</ele>
        <time>2016-11-27T10:57:06.000Z</time>
      </trkpt>
      <trkpt lat="46.04322" lon="4.55313">
        <ele>597</ele>
        <time>2016-11-27T10:57:07.000Z</time>
      </trkpt>
      <trkpt lat="46.04321" lon="4.55312">
        <ele>598</ele>
        <time>2016-11-27T10:57:08.000Z</time>
      </trkpt>
      <trkpt lat="46.0432" lon="4.5531">
        <ele>599</ele>
        <time>2016-11-27T10:57:09.000Z</time>
      </trkpt>
      <trkpt lat="46.0432" lon="4.55309">
        <ele>599</ele>
        <time>2016-11-27T10:57:10.000Z</time>
      </trkpt>
      <trkpt lat="46.04319" lon="4.55307">
        <ele>600</ele>
        <time>2016-11-27T10:57:11.000Z</time>
      </trkpt>
      <trkpt lat="46.04319" lon="4.55306">
        <ele>601</ele>
        <time>2016-11-27T10:57:12.000Z</time>
      </trkpt>
      <trkpt lat="46.04318" lon="4.55305">
        <ele>601</ele>
        <time>2016-11-27T10:57:13.000Z</time>
      </trkpt>
      <trkpt lat="46.04318" lon="4.55303">
        <ele>601</ele>
        <time>2016-11-27T10:57:14.000Z</time>
      </trkpt>
      <trkpt lat="46.04317" lon="4.55302">
        <ele>602</ele>
        <time>2016-11-27T10:57:15.000Z</time>
      </trkpt>
      <trkpt lat="46.04316" lon="4.553">
        <ele>603</ele>
        <time>2016-11-27T10:57:16.000Z</time>
      </trkpt>
      <trkpt lat="46.04316" lon="4.55299">
        <ele>603</ele>
        <time>2016-11-27T10:57:17.000Z</time>
      </trkpt>
      <trkpt lat="46.04315" lon="4.55298">
        <ele>604</ele>
        <time>2016-11-27T10:57:18.000Z</time>
      </trkpt>
      <trkpt lat="46.04314" lon="4.55296">
        <ele>604</ele>
        <time>2016-11-27T10:57:19.000Z</time>
      </trkpt>
      <trkpt lat="46.04313" lon="4.55295">
        <ele>605</ele>
        <time>2016-11-27T10:57:20.000Z</time>
      </trkpt>
      <trkpt lat="46.04312" lon="4.55293">
        <ele>605</ele>
        <time>2016-11-27T10:57:21.000Z</time>
      </trkpt>
      <trkpt lat="46.04311" lon="4.55292">
        <ele>605</ele>
        <time>2016-11-27T10:57:22.000Z</time>
      </trkpt>
      <trkpt lat="46.04311" lon="4.55291">
        <ele>606</ele>
        <time>2016-11-27T10:57:23.000Z</time>
      </trkpt>
      <trkpt lat="46.0431" lon="4.5529">
        <ele>606</ele>
        <time>2016-11-27T10:57:24.000Z</time>
      </trkpt>
      <trkpt lat="46.0431" lon="4.55289">
        <ele>606</ele>
        <time>2016-11-27T10:57:25.000Z</time>
      </trkpt>
      <trkpt lat="46.04309" lon="4.55288">
        <ele>606</ele>
        <time>2016-11-27T10:57:26.000Z</time>
      </trkpt>
      <trkpt lat="46.04308" lon="4.55286">
        <ele>607</ele>
        <time>2016-11-27T10:57:27.000Z</time>
      </trkpt>
      <trkpt lat="46.04308" lon="4.55285">
        <ele>607</ele>
        <time>2016-11-27T10:57:28.000Z</time>
      </trkpt>
      <trkpt lat="46.04307" lon="4.55283">
        <ele>608</ele>
        <time>2016-11-27T10:57:29.000Z</time>
      </trkpt>
      <trkpt lat="46.04306" lon="4.55282">
        <ele>609</ele>
        <time>2016-11-27T10:57:30.000Z</time>
      </trkpt>
      <trkpt lat="46.04305" lon="4.5528">
        <ele>609</ele>
        <time>2016-11-27T10:57:31.000Z</time>
      </trkpt>
      <trkpt lat="46.04304" lon="4.55279">
        <ele>610</ele>
        <time>2016-11-27T10:57:32.000Z</time>
      </trkpt>
      <trkpt lat="46.04304" lon="4.55278">
        <ele>611</ele>
        <time>2016-11-27T10:57:33.000Z</time>
      </trkpt>
      <trkpt lat="46.04303" lon="4.55277">
        <ele>611</ele>
        <time>2016-11-27T10:57:34.000Z</time>
      </trkpt>
      <trkpt lat="46.04302" lon="4.55276">
        <ele>612</ele>
        <time>2016-11-27T10:57:35.000Z</time>
      </trkpt>
      <trkpt lat="46.04302" lon="4.55275">
        <ele>612</ele>
        <time>2016-11-27T10:57:36.000Z</time>
      </trkpt>
      <trkpt lat="46.04301" lon="4.55273">
        <ele>613</ele>
        <time>2016-11-27T10:57:37.000Z</time>
      </trkpt>
      <trkpt lat="46.04301" lon="4.55272">
        <ele>613</ele>
        <time>2016-11-27T10:57:38.000Z</time>
      </trkpt>
      <trkpt lat="46.043" lon="4.55271">
        <ele>613</ele>
        <time>2016-11-27T10:57:39.000Z</time>
      </trkpt>
      <trkpt lat="46.04299" lon="4.5527">
        <ele>613</ele>
        <time>2016-11-27T10:57:40.000Z</time>
      </trkpt>
      <trkpt lat="46.04299" lon="4.55269">
        <ele>613</ele>
        <time>2016-11-27T10:57:41.000Z</time>
      </trkpt>
      <trkpt lat="46.04298" lon="4.55268">
        <ele>614</ele>
        <time>2016-11-27T10:57:42.000Z</time>
      </trkpt>
      <trkpt lat="46.04298" lon="4.55267">
        <ele>614</ele>
        <time>2016-11-27T10:57:43.000Z</time>
      </trkpt>
      <trkpt lat="46.04298" lon="4.55266">
        <ele>614</ele>
        <time>2016-11-27T10:57:44.000Z</time>
      </trkpt>
      <trkpt lat="46.04297" lon="4.55264">
        <ele>615</ele>
        <time>2016-11-27T10:57:45.000Z</time>
      </trkpt>
      <trkpt lat="46.04297" lon="4.55262">
        <ele>616</ele>
        <time>2016-11-27T10:57:46.000Z</time>
      </trkpt>
      <trkpt lat="46.04297" lon="4.5526">
        <ele>618</ele>
        <time>2016-11-27T10:57:47.000Z</time>
      </trkpt>
      <trkpt lat="46.04297" lon="4.55258">
        <ele>618</ele>
        <time>2016-11-27T10:57:48.000Z</time>
      </trkpt>
      <trkpt lat="46.04297" lon="4.55257">
        <ele>619</ele>
        <time>2016-11-27T10:57:49.000Z</time>
      </trkpt>
      <trkpt lat="46.04297" lon="4.55256">
        <ele>619</ele>
        <time>2016-11-27T10:57:50.000Z</time>
      </trkpt>
      <trkpt lat="46.04296" lon="4.55255">
        <ele>620</ele>
        <time>2016-11-27T10:57:51.000Z</time>
      </trkpt>
      <trkpt lat="46.04296" lon="4.55254">
        <ele>621</ele>
        <time>2016-11-27T10:57:52.000Z</time>
      </trkpt>
      <trkpt lat="46.04296" lon="4.55253">
        <ele>622</ele>
        <time>2016-11-27T10:57:53.000Z</time>
      </trkpt>
      <trkpt lat="46.04295" lon="4.55252">
        <ele>622</ele>
        <time>2016-11-27T10:57:54.000Z</time>
      </trkpt>
      <trkpt lat="46.04295" lon="4.55251">
        <ele>622</ele>
        <time>2016-11-27T10:57:55.000Z</time>
      </trkpt>
      <trkpt lat="46.04295" lon="4.5525">
        <ele>621</ele>
        <time>2016-11-27T10:57:56.000Z</time>
      </trkpt>
      <trkpt lat="46.04294" lon="4.55248">
        <ele>621</ele>
        <time>2016-11-27T10:57:57.000Z</time>
      </trkpt>
      <trkpt lat="46.04294" lon="4.55247">
        <ele>621</ele>
        <time>2016-11-27T10:57:58.000Z</time>
      </trkpt>
      <trkpt lat="46.04294" lon="4.55246">
        <ele>622</ele>
        <time>2016-11-27T10:57:59.000Z</time>
      </trkpt>
      <trkpt lat="46.04293" lon="4.55245">
        <ele>622</ele>
        <time>2016-11-27T10:58:00.000Z</time>
      </trkpt>
      <trkpt lat="46.04293" lon="4.55244">
        <ele>623</ele>
        <time>2016-11-27T10:58:01.000Z</time>
      </trkpt>
      <trkpt lat="46.04293" lon="4.55243">
        <ele>624</ele>
        <time>2016-11-27T10:58:02.000Z</time>
      </trkpt>
      <trkpt lat="46.04293" lon="4.55241">
        <ele>625</ele>
        <time>2016-11-27T10:58:03.000Z</time>
      </trkpt>
      <trkpt lat="46.04292" lon="4.5524">
        <ele>625</ele>
        <time>2016-11-27T10:58:04.000Z</time>
      </trkpt>
      <trkpt lat="46.04292" lon="4.55239">
        <ele>625</ele>
        <time>2016-11-27T10:58:05.000Z</time>
      </trkpt>
      <trkpt lat="46.04291" lon="4.55238">
        <ele>626</ele>
        <time>2016-11-27T10:58:06.000Z</time>
      </trkpt>
      <trkpt lat="46.04291" lon="4.55237">
        <ele>626</ele>
        <time>2016-11-27T10:58:07.000Z</time>
      </trkpt>
      <trkpt lat="46.04291" lon="4.55235">
        <ele>626</ele>
        <time>2016-11-27T10:58:08.000Z</time>
      </trkpt>
      <trkpt lat="46.0429" lon="4.55234">
        <ele>627</ele>
        <time>2016-11-27T10:58:09.000Z</time>
      </trkpt>
      <trkpt lat="46.0429" lon="4.55233">
        <ele>628</ele>
        <time>2016-11-27T10:58:10.000Z</time>
      </trkpt>
      <trkpt lat="46.0429" lon="4.55231">
        <ele>628</ele>
        <time>2016-11-27T10:58:11.000Z</time>
      </trkpt>
      <trkpt lat="46.04289" lon="4.5523">
        <ele>628</ele>
        <time>2016-11-27T10:58:12.000Z</time>
      </trkpt>
      <trkpt lat="46.04289" lon="4.55229">
        <ele>628</ele>
        <time>2016-11-27T10:58:13.000Z</time>
      </trkpt>
      <trkpt lat="46.04288" lon="4.55227">
        <ele>629</ele>
        <time>2016-11-27T10:58:14.000Z</time>
      </trkpt>
      <trkpt lat="46.04288" lon="4.55226">
        <ele>629</ele>
        <time>2016-11-27T10:58:15.000Z</time>
      </trkpt>
      <trkpt lat="46.04287" lon="4.55224">
        <ele>629</ele>
        <time>2016-11-27T10:58:16.000Z</time>
      </trkpt>
      <trkpt lat="46.04287" lon="4.55223">
        <ele>629</ele>
        <time>2016-11-27T10:58:17.000Z</time>
      </trkpt>
      <trkpt lat="46.04285" lon="4.55221">
        <ele>629</ele>
        <time>2016-11-27T10:58:18.000Z</time>
      </trkpt>
      <trkpt lat="46.04285" lon="4.55219">
        <ele>628</ele>
        <time>2016-11-27T10:58:19.000Z</time>
      </trkpt>
      <trkpt lat="46.04284" lon="4.55218">
        <ele>628</ele>
        <time>2016-11-27T10:58:20.000Z</time>
      </trkpt>
      <trkpt lat="46.04284" lon="4.55216">
        <ele>628</ele>
        <time>2016-11-27T10:58:21.000Z</time>
      </trkpt>
      <trkpt lat="46.04283" lon="4.55215">
        <ele>628</ele>
        <time>2016-11-27T10:58:22.000Z</time>
      </trkpt>
      <trkpt lat="46.04283" lon="4.55214">
        <ele>629</ele>
        <time>2016-11-27T10:58:23.000Z</time>
      </trkpt>
      <trkpt lat="46.04282" lon="4.55213">
        <ele>630</ele>
        <time>2016-11-27T10:58:24.000Z</time>
      </trkpt>
      <trkpt lat="46.04281" lon="4.55212">
        <ele>630</ele>
        <time>2016-11-27T10:58:25.000Z</time>
      </trkpt>
      <trkpt lat="46.04281" lon="4.55212">
        <ele>630</ele>
        <time>2016-11-27T10:58:26.000Z</time>
      </trkpt>
      <trkpt lat="46.0428" lon="4.55211">
        <ele>630</ele>
        <time>2016-11-27T10:58:27.000Z</time>
      </trkpt>
      <trkpt lat="46.04279" lon="4.5521">
        <ele>631</ele>
        <time>2016-11-27T10:58:28.000Z</time>
      </trkpt>
      <trkpt lat="46.04279" lon="4.55209">
        <ele>632</ele>
        <time>2016-11-27T10:58:29.000Z</time>
      </trkpt>
      <trkpt lat="46.04278" lon="4.55208">
        <ele>633</ele>
        <time>2016-11-27T10:58:30.000Z</time>
      </trkpt>
      <trkpt lat="46.04277" lon="4.55206">
        <ele>632</ele>
        <time>2016-11-27T10:58:31.000Z</time>
      </trkpt>
      <trkpt lat="46.04276" lon="4.55204">
        <ele>632</ele>
        <time>2016-11-27T10:58:32.000Z</time>
      </trkpt>
      <trkpt lat="46.04276" lon="4.55203">
        <ele>632</ele>
        <time>2016-11-27T10:58:33.000Z</time>
      </trkpt>
      <trkpt lat="46.04275" lon="4.55202">
        <ele>633</ele>
        <time>2016-11-27T10:58:34.000Z</time>
      </trkpt>
      <trkpt lat="46.04274" lon="4.55202">
        <ele>634</ele>
        <time>2016-11-27T10:58:35.000Z</time>
      </trkpt>
      <trkpt lat="46.04273" lon="4.55201">
        <ele>634</ele>
        <time>2016-11-27T10:58:36.000Z</time>
      </trkpt>
      <trkpt lat="46.04273" lon="4.552">
        <ele>634</ele>
        <time>2016-11-27T10:58:37.000Z</time>
      </trkpt>
      <trkpt lat="46.04272" lon="4.55198">
        <ele>634</ele>
        <time>2016-11-27T10:58:38.000Z</time>
      </trkpt>
      <trkpt lat="46.04272" lon="4.55197">
        <ele>635</ele>
        <time>2016-11-27T10:58:39.000Z</time>
      </trkpt>
      <trkpt lat="46.04271" lon="4.55197">
        <ele>635</ele>
        <time>2016-11-27T10:58:40.000Z</time>
      </trkpt>
      <trkpt lat="46.04271" lon="4.55195">
        <ele>635</ele>
        <time>2016-11-27T10:58:41.000Z</time>
      </trkpt>
      <trkpt lat="46.0427" lon="4.55194">
        <ele>635</ele>
        <time>2016-11-27T10:58:42.000Z</time>
      </trkpt>
      <trkpt lat="46.04269" lon="4.55193">
        <ele>635</ele>
        <time>2016-11-27T10:58:43.000Z</time>
      </trkpt>
      <trkpt lat="46.04269" lon="4.55191">
        <ele>635</ele>
        <time>2016-11-27T10:58:44.000Z</time>
      </trkpt>
      <trkpt lat="46.04268" lon="4.5519">
        <ele>635</ele>
        <time>2016-11-27T10:58:45.000Z</time>
      </trkpt>
      <trkpt lat="46.04267" lon="4.55188">
        <ele>636</ele>
        <time>2016-11-27T10:58:46.000Z</time>
      </trkpt>
      <trkpt lat="46.04266" lon="4.55187">
        <ele>637</ele>
        <time>2016-11-27T10:58:47.000Z</time>
      </trkpt>
      <trkpt lat="46.04265" lon="4.55185">
        <ele>636</ele>
        <time>2016-11-27T10:58:48.000Z</time>
      </trkpt>
      <trkpt lat="46.04264" lon="4.55183">
        <ele>636</ele>
        <time>2016-11-27T10:58:49.000Z</time>
      </trkpt>
      <trkpt lat="46.04263" lon="4.55182">
        <ele>636</ele>
        <time>2016-11-27T10:58:50.000Z</time>
      </trkpt>
      <trkpt lat="46.04262" lon="4.55181">
        <ele>637</ele>
        <time>2016-11-27T10:58:51.000Z</time>
      </trkpt>
      <trkpt lat="46.04262" lon="4.5518">
        <ele>637</ele>
        <time>2016-11-27T10:58:52.000Z</time>
      </trkpt>
      <trkpt lat="46.04261" lon="4.55179">
        <ele>637</ele>
        <time>2016-11-27T10:58:53.000Z</time>
      </trkpt>
      <trkpt lat="46.0426" lon="4.55179">
        <ele>638</ele>
        <time>2016-11-27T10:58:54.000Z</time>
      </trkpt>
      <trkpt lat="46.04259" lon="4.55178">
        <ele>638</ele>
        <time>2016-11-27T10:58:55.000Z</time>
      </trkpt>
      <trkpt lat="46.04258" lon="4.55178">
        <ele>638</ele>
        <time>2016-11-27T10:58:56.000Z</time>
      </trkpt>
      <trkpt lat="46.04258" lon="4.55177">
        <ele>638</ele>
        <time>2016-11-27T10:58:57.000Z</time>
      </trkpt>
      <trkpt lat="46.04257" lon="4.55177">
        <ele>639</ele>
        <time>2016-11-27T10:58:58.000Z</time>
      </trkpt>
      <trkpt lat="46.04256" lon="4.55176">
        <ele>639</ele>
        <time>2016-11-27T10:58:59.000Z</time>
      </trkpt>
      <trkpt lat="46.04256" lon="4.55175">
        <ele>640</ele>
        <time>2016-11-27T10:59:00.000Z</time>
      </trkpt>
      <trkpt lat="46.04256" lon="4.55173">
        <ele>640</ele>
        <time>2016-11-27T10:59:01.000Z</time>
      </trkpt>
      <trkpt lat="46.04255" lon="4.55172">
        <ele>640</ele>
        <time>2016-11-27T10:59:02.000Z</time>
      </trkpt>
      <trkpt lat="46.04255" lon="4.55171">
        <ele>641</ele>
        <time>2016-11-27T10:59:03.000Z</time>
      </trkpt>
      <trkpt lat="46.04255" lon="4.5517">
        <ele>641</ele>
        <time>2016-11-27T10:59:04.000Z</time>
      </trkpt>
      <trkpt lat="46.04255" lon="4.55169">
        <ele>641</ele>
        <time>2016-11-27T10:59:05.000Z</time>
      </trkpt>
      <trkpt lat="46.04254" lon="4.55168">
        <ele>642</ele>
        <time>2016-11-27T10:59:06.000Z</time>
      </trkpt>
      <trkpt lat="46.04254" lon="4.55167">
        <ele>642</ele>
        <time>2016-11-27T10:59:07.000Z</time>
      </trkpt>
      <trkpt lat="46.04254" lon="4.55166">
        <ele>642</ele>
        <time>2016-11-27T10:59:08.000Z</time>
      </trkpt>
      <trkpt lat="46.04254" lon="4.55164">
        <ele>643</ele>
        <time>2016-11-27T10:59:09.000Z</time>
      </trkpt>
      <trkpt lat="46.04254" lon="4.55163">
        <ele>644</ele>
        <time>2016-11-27T10:59:10.000Z</time>
      </trkpt>
      <trkpt lat="46.04253" lon="4.55163">
        <ele>644</ele>
        <time>2016-11-27T10:59:11.000Z</time>
      </trkpt>
      <trkpt lat="46.04253" lon="4.55162">
        <ele>644</ele>
        <time>2016-11-27T10:59:12.000Z</time>
      </trkpt>
      <trkpt lat="46.04253" lon="4.55161">
        <ele>644</ele>
        <time>2016-11-27T10:59:13.000Z</time>
      </trkpt>
      <trkpt lat="46.04252" lon="4.5516">
        <ele>645</ele>
        <time>2016-11-27T10:59:14.000Z</time>
      </trkpt>
      <trkpt lat="46.04251" lon="4.55159">
        <ele>645</ele>
        <time>2016-11-27T10:59:15.000Z</time>
      </trkpt>
      <trkpt lat="46.04251" lon="4.55158">
        <ele>645</ele>
        <time>2016-11-27T10:59:16.000Z</time>
      </trkpt>
      <trkpt lat="46.04251" lon="4.55157">
        <ele>646</ele>
        <time>2016-11-27T10:59:17.000Z</time>
      </trkpt>
      <trkpt lat="46.0425" lon="4.55157">
        <ele>647</ele>
        <time>2016-11-27T10:59:18.000Z</time>
      </trkpt>
      <trkpt lat="46.0425" lon="4.55157">
        <ele>647</ele>
        <time>2016-11-27T10:59:19.000Z</time>
      </trkpt>
      <trkpt lat="46.0425" lon="4.55156">
        <ele>648</ele>
        <time>2016-11-27T10:59:20.000Z</time>
      </trkpt>
      <trkpt lat="46.0425" lon="4.55156">
        <ele>648</ele>
        <time>2016-11-27T10:59:21.000Z</time>
      </trkpt>
      <trkpt lat="46.0425" lon="4.55155">
        <ele>648</ele>
        <time>2016-11-27T10:59:22.000Z</time>
      </trkpt>
      <trkpt lat="46.0425" lon="4.55154">
        <ele>648</ele>
        <time>2016-11-27T10:59:23.000Z</time>
      </trkpt>
      <trkpt lat="46.0425" lon="4.55153">
        <ele>648</ele>
        <time>2016-11-27T10:59:24.000Z</time>
      </trkpt>
      <trkpt lat="46.0425" lon="4.55153">
        <ele>648</ele>
        <time>2016-11-27T10:59:25.000Z</time>
      </trkpt>
      <trkpt lat="46.04249" lon="4.55152">
        <ele>648</ele>
        <time>2016-11-27T10:59:26.000Z</time>
      </trkpt>
      <trkpt lat="46.04248" lon="4.55151">
        <ele>648</ele>
        <time>2016-11-27T10:59:27.000Z</time>
      </trkpt>
      <trkpt lat="46.04247" lon="4.5515">
        <ele>648</ele>
        <time>2016-11-27T10:59:28.000Z</time>
      </trkpt>
      <trkpt lat="46.04247" lon="4.5515">
        <ele>649</ele>
        <time>2016-11-27T10:59:29.000Z</time>
      </trkpt>
      <trkpt lat="46.04246" lon="4.55148">
        <ele>650</ele>
        <time>2016-11-27T10:59:30.000Z</time>
      </trkpt>
      <trkpt lat="46.04246" lon="4.55147">
        <ele>650</ele>
        <time>2016-11-27T10:59:31.000Z</time>
      </trkpt>
      <trkpt lat="46.04245" lon="4.55146">
        <ele>650</ele>
        <time>2016-11-27T10:59:32.000Z</time>
      </trkpt>
      <trkpt lat="46.04245" lon="4.55145">
        <ele>650</ele>
        <time>2016-11-27T10:59:33.000Z</time>
      </trkpt>
      <trkpt lat="46.04244" lon="4.55144">
        <ele>651</ele>
        <time>2016-11-27T10:59:34.000Z</time>
      </trkpt>
      <trkpt lat="46.04244" lon="4.55142">
        <ele>650</ele>
        <time>2016-11-27T10:59:35.000Z</time>
      </trkpt>
      <trkpt lat="46.04243" lon="4.55141">
        <ele>650</ele>
        <time>2016-11-27T10:59:36.000Z</time>
      </trkpt>
      <trkpt lat="46.04243" lon="4.5514">
        <ele>650</ele>
        <time>2016-11-27T10:59:37.000Z</time>
      </trkpt>
      <trkpt lat="46.04242" lon="4.55139">
        <ele>650</ele>
        <time>2016-11-27T10:59:38.000Z</time>
      </trkpt>
      <trkpt lat="46.04242" lon="4.55139">
        <ele>650</ele>
        <time>2016-11-27T10:59:39.000Z</time>
      </trkpt>
      <trkpt lat="46.04241" lon="4.55138">
        <ele>650</ele>
        <time>2016-11-27T10:59:40.000Z</time>
      </trkpt>
      <trkpt lat="46.04241" lon="4.55137">
        <ele>650</ele>
        <time>2016-11-27T10:59:41.000Z</time>
      </trkpt>
      <trkpt lat="46.04241" lon="4.55137">
        <ele>651</ele>
        <time>2016-11-27T10:59:42.000Z</time>
      </trkpt>
      <trkpt lat="46.0424" lon="4.55136">
        <ele>651</ele>
        <time>2016-11-27T10:59:43.000Z</time>
      </trkpt>
      <trkpt lat="46.0424" lon="4.55135">
        <ele>651</ele>
        <time>2016-11-27T10:59:44.000Z</time>
      </trkpt>
      <trkpt lat="46.0424" lon="4.55135">
        <ele>651</ele>
        <time>2016-11-27T10:59:45.000Z</time>
      </trkpt>
      <trkpt lat="46.0424" lon="4.55134">
        <ele>652</ele>
        <time>2016-11-27T10:59:46.000Z</time>
      </trkpt>
      <trkpt lat="46.0424" lon="4.55133">
        <ele>652</ele>
        <time>2016-11-27T10:59:47.000Z</time>
      </trkpt>
      <trkpt lat="46.0424" lon="4.55132">
        <ele>652</ele>
        <time>2016-11-27T10:59:48.000Z</time>
      </trkpt>
      <trkpt lat="46.04239" lon="4.55131">
        <ele>653</ele>
        <time>2016-11-27T10:59:49.000Z</time>
      </trkpt>
      <trkpt lat="46.04239" lon="4.5513">
        <ele>653</ele>
        <time>2016-11-27T10:59:50.000Z</time>
      </trkpt>
      <trkpt lat="46.04239" lon="4.5513">
        <ele>653</ele>
        <time>2016-11-27T10:59:51.000Z</time>
      </trkpt>
      <trkpt lat="46.04238" lon="4.55129">
        <ele>653</ele>
        <time>2016-11-27T10:59:52.000Z</time>
      </trkpt>
      <trkpt lat="46.04238" lon="4.55128">
        <ele>653</ele>
        <time>2016-11-27T10:59:53.000Z</time>
      </trkpt>
      <trkpt lat="46.04238" lon="4.55127">
        <ele>653</ele>
        <time>2016-11-27T10:59:54.000Z</time>
      </trkpt>
      <trkpt lat="46.04238" lon="4.55126">
        <ele>654</ele>
        <time>2016-11-27T10:59:55.000Z</time>
      </trkpt>
      <trkpt lat="46.04237" lon="4.55126">
        <ele>654</ele>
        <time>2016-11-27T10:59:56.000Z</time>
      </trkpt>
      <trkpt lat="46.04237" lon="4.55125">
        <ele>655</ele>
        <time>2016-11-27T10:59:57.000Z</time>
      </trkpt>
      <trkpt lat="46.04237" lon="4.55125">
        <ele>655</ele>
        <time>2016-11-27T10:59:58.000Z</time>
      </trkpt>
      <trkpt lat="46.04236" lon="4.55124">
        <ele>655</ele>
        <time>2016-11-27T10:59:59.000Z</time>
      </trkpt>
      <trkpt lat="46.04235" lon="4.55123">
        <ele>655</ele>
        <time>2016-11-27T11:00:00.000Z</time>
      </trkpt>
      <trkpt lat="46.04235" lon="4.55122">
        <ele>655</ele>
        <time>2016-11-27T11:00:01.000Z</time>
      </trkpt>
      <trkpt lat="46.04234" lon="4.55121">
        <ele>655</ele>
        <time>2016-11-27T11:00:02.000Z</time>
      </trkpt>
      <trkpt lat="46.04234" lon="4.5512">
        <ele>654</ele>
        <time>2016-11-27T11:00:03.000Z</time>
      </trkpt>
      <trkpt lat="46.04233" lon="4.5512">
        <ele>654</ele>
        <time>2016-11-27T11:00:04.000Z</time>
      </trkpt>
      <trkpt lat="46.04232" lon="4.55119">
        <ele>655</ele>
        <time>2016-11-27T11:00:05.000Z</time>
      </trkpt>
      <trkpt lat="46.04232" lon="4.55118">
        <ele>655</ele>
        <time>2016-11-27T11:00:06.000Z</time>
      </trkpt>
      <trkpt lat="46.04232" lon="4.55117">
        <ele>656</ele>
        <time>2016-11-27T11:00:07.000Z</time>
      </trkpt>
      <trkpt lat="46.04231" lon="4.55116">
        <ele>656</ele>
        <time>2016-11-27T11:00:08.000Z</time>
      </trkpt>
      <trkpt lat="46.04231" lon="4.55115">
        <ele>657</ele>
        <time>2016-11-27T11:00:09.000Z</time>
      </trkpt>
      <trkpt lat="46.04231" lon="4.55113">
        <ele>657</ele>
        <time>2016-11-27T11:00:10.000Z</time>
      </trkpt>
      <trkpt lat="46.0423" lon="4.55113">
        <ele>658</ele>
        <time>2016-11-27T11:00:11.000Z</time>
      </trkpt>
      <trkpt lat="46.0423" lon="4.55112">
        <ele>658</ele>
        <time>2016-11-27T11:00:12.000Z</time>
      </trkpt>
      <trkpt lat="46.04229" lon="4.55111">
        <ele>659</ele>
        <time>2016-11-27T11:00:13.000Z</time>
      </trkpt>
      <trkpt lat="46.04229" lon="4.55111">
        <ele>659</ele>
        <time>2016-11-27T11:00:14.000Z</time>
      </trkpt>
      <trkpt lat="46.04228" lon="4.5511">
        <ele>659</ele>
        <time>2016-11-27T11:00:15.000Z</time>
      </trkpt>
      <trkpt lat="46.04228" lon="4.55109">
        <ele>660</ele>
        <time>2016-11-27T11:00:16.000Z</time>
      </trkpt>
      <trkpt lat="46.04227" lon="4.55108">
        <ele>660</ele>
        <time>2016-11-27T11:00:17.000Z</time>
      </trkpt>
      <trkpt lat="46.04226" lon="4.55107">
        <ele>661</ele>
        <time>2016-11-27T11:00:18.000Z</time>
      </trkpt>
      <trkpt lat="46.04225" lon="4.55106">
        <ele>661</ele>
        <time>2016-11-27T11:00:19.000Z</time>
      </trkpt>
      <trkpt lat="46.04224" lon="4.55105">
        <ele>660</ele>
        <time>2016-11-27T11:00:20.000Z</time>
      </trkpt>
      <trkpt lat="46.04224" lon="4.55103">
        <ele>661</ele>
        <time>2016-11-27T11:00:21.000Z</time>
      </trkpt>
      <trkpt lat="46.04224" lon="4.55102">
        <ele>663</ele>
        <time>2016-11-27T11:00:22.000Z</time>
      </trkpt>
      <trkpt lat="46.04224" lon="4.551">
        <ele>663</ele>
        <time>2016-11-27T11:00:23.000Z</time>
      </trkpt>
      <trkpt lat="46.04224" lon="4.55098">
        <ele>663</ele>
        <time>2016-11-27T11:00:24.000Z</time>
      </trkpt>
      <trkpt lat="46.04223" lon="4.55096">
        <ele>664</ele>
        <time>2016-11-27T11:00:25.000Z</time>
      </trkpt>
      <trkpt lat="46.04223" lon="4.55094">
        <ele>665</ele>
        <time>2016-11-27T11:00:26.000Z</time>
      </trkpt>
      <trkpt lat="46.04223" lon="4.55093">
        <ele>665</ele>
        <time>2016-11-27T11:00:27.000Z</time>
      </trkpt>
      <trkpt lat="46.04223" lon="4.55092">
        <ele>666</ele>
        <time>2016-11-27T11:00:28.000Z</time>
      </trkpt>
      <trkpt lat="46.04223" lon="4.55091">
        <ele>667</ele>
        <time>2016-11-27T11:00:29.000Z</time>
      </trkpt>
      <trkpt lat="46.04223" lon="4.5509">
        <ele>668</ele>
        <time>2016-11-27T11:00:30.000Z</time>
      </trkpt>
      <trkpt lat="46.04222" lon="4.55089">
        <ele>667</ele>
        <time>2016-11-27T11:00:31.000Z</time>
      </trkpt>
      <trkpt lat="46.04222" lon="4.55088">
        <ele>668</ele>
        <time>2016-11-27T11:00:32.000Z</time>
      </trkpt>
      <trkpt lat="46.04222" lon="4.55087">
        <ele>669</ele>
        <time>2016-11-27T11:00:33.000Z</time>
      </trkpt>
      <trkpt lat="46.04222" lon="4.55085">
        <ele>669</ele>
        <time>2016-11-27T11:00:34.000Z</time>
      </trkpt>
      <trkpt lat="46.04222" lon="4.55084">
        <ele>669</ele>
        <time>2016-11-27T11:00:35.000Z</time>
      </trkpt>
      <trkpt lat="46.04222" lon="4.55082">
        <ele>670</ele>
        <time>2016-11-27T11:00:36.000Z</time>
      </trkpt>
      <trkpt lat="46.04222" lon="4.5508">
        <ele>671</ele>
        <time>2016-11-27T11:00:37.000Z</time>
      </trkpt>
      <trkpt lat="46.04222" lon="4.55079">
        <ele>671</ele>
        <time>2016-11-27T11:00:38.000Z</time>
      </trkpt>
      <trkpt lat="46.04222" lon="4.55078">
        <ele>671</ele>
        <time>2016-11-27T11:00:39.000Z</time>
      </trkpt>
      <trkpt lat="46.04221" lon="4.55077">
        <ele>672</ele>
        <time>2016-11-27T11:00:40.000Z</time>
      </trkpt>
      <trkpt lat="46.04221" lon="4.55075">
        <ele>672</ele>
        <time>2016-11-27T11:00:41.000Z</time>
      </trkpt>
      <trkpt lat="46.04221" lon="4.55074">
        <ele>672</ele>
        <time>2016-11-27T11:00:42.000Z</time>
      </trkpt>
      <trkpt lat="46.04221" lon="4.55073">
        <ele>672</ele>
        <time>2016-11-27T11:00:43.000Z</time>
      </trkpt>
      <trkpt lat="46.04221" lon="4.55072">
        <ele>672</ele>
        <time>2016-11-27T11:00:44.000Z</time>
      </trkpt>
      <trkpt lat="46.04221" lon="4.55071">
        <ele>673</ele>
        <time>2016-11-27T11:00:45.000Z</time>
      </trkpt>
      <trkpt lat="46.04221" lon="4.55069">
        <ele>673</ele>
        <time>2016-11-27T11:00:46.000Z</time>
      </trkpt>
      <trkpt lat="46.04221" lon="4.55067">
        <ele>674</ele>
        <time>2016-11-27T11:00:47.000Z</time>
      </trkpt>
      <trkpt lat="46.04221" lon="4.55065">
        <ele>674</ele>
        <time>2016-11-27T11:00:48.000Z</time>
      </trkpt>
      <trkpt lat="46.04222" lon="4.55063">
        <ele>675</ele>
        <time>2016-11-27T11:00:49.000Z</time>
      </trkpt>
      <trkpt lat="46.04222" lon="4.55062">
        <ele>675</ele>
        <time>2016-11-27T11:00:50.000Z</time>
      </trkpt>
      <trkpt lat="46.04222" lon="4.55061">
        <ele>676</ele>
        <time>2016-11-27T11:00:51.000Z</time>
      </trkpt>
      <trkpt lat="46.04222" lon="4.55059">
        <ele>676</ele>
        <time>2016-11-27T11:00:52.000Z</time>
      </trkpt>
      <trkpt lat="46.04222" lon="4.55058">
        <ele>677</ele>
        <time>2016-11-27T11:00:53.000Z</time>
      </trkpt>
      <trkpt lat="46.04222" lon="4.55057">
        <ele>676</ele>
        <time>2016-11-27T11:00:54.000Z</time>
      </trkpt>
      <trkpt lat="46.04222" lon="4.55056">
        <ele>676</ele>
        <time>2016-11-27T11:00:55.000Z</time>
      </trkpt>
      <trkpt lat="46.04222" lon="4.55055">
        <ele>677</ele>
        <time>2016-11-27T11:00:56.000Z</time>
      </trkpt>
      <trkpt lat="46.04222" lon="4.55053">
        <ele>678</ele>
        <time>2016-11-27T11:00:57.000Z</time>
      </trkpt>
      <trkpt lat="46.04222" lon="4.55052">
        <ele>679</ele>
        <time>2016-11-27T11:00:58.000Z</time>
      </trkpt>
      <trkpt lat="46.04222" lon="4.55051">
        <ele>679</ele>
        <time>2016-11-27T11:00:59.000Z</time>
      </trkpt>
      <trkpt lat="46.04222" lon="4.55049">
        <ele>680</ele>
        <time>2016-11-27T11:01:00.000Z</time>
      </trkpt>
      <trkpt lat="46.04222" lon="4.55048">
        <ele>681</ele>
        <time>2016-11-27T11:01:01.000Z</time>
      </trkpt>
      <trkpt lat="46.04222" lon="4.55047">
        <ele>682</ele>
        <time>2016-11-27T11:01:02.000Z</time>
      </trkpt>
      <trkpt lat="46.04222" lon="4.55046">
        <ele>682</ele>
        <time>2016-11-27T11:01:03.000Z</time>
      </trkpt>
      <trkpt lat="46.04222" lon="4.55044">
        <ele>682</ele>
        <time>2016-11-27T11:01:04.000Z</time>
      </trkpt>
      <trkpt lat="46.04222" lon="4.55042">
        <ele>682</ele>
        <time>2016-11-27T11:01:05.000Z</time>
      </trkpt>
      <trkpt lat="46.04221" lon="4.55041">
        <ele>682</ele>
        <time>2016-11-27T11:01:06.000Z</time>
      </trkpt>
      <trkpt lat="46.04221" lon="4.55039">
        <ele>682</ele>
        <time>2016-11-27T11:01:07.000Z</time>
      </trkpt>
      <trkpt lat="46.04221" lon="4.55038">
        <ele>682</ele>
        <time>2016-11-27T11:01:08.000Z</time>
      </trkpt>
      <trkpt lat="46.0422" lon="4.55036">
        <ele>683</ele>
        <time>2016-11-27T11:01:09.000Z</time>
      </trkpt>
      <trkpt lat="46.0422" lon="4.55034">
        <ele>684</ele>
        <time>2016-11-27T11:01:10.000Z</time>
      </trkpt>
      <trkpt lat="46.04219" lon="4.55033">
        <ele>684</ele>
        <time>2016-11-27T11:01:11.000Z</time>
      </trkpt>
      <trkpt lat="46.04219" lon="4.55031">
        <ele>684</ele>
        <time>2016-11-27T11:01:12.000Z</time>
      </trkpt>
      <trkpt lat="46.04218" lon="4.5503">
        <ele>685</ele>
        <time>2016-11-27T11:01:13.000Z</time>
      </trkpt>
      <trkpt lat="46.04218" lon="4.55028">
        <ele>685</ele>
        <time>2016-11-27T11:01:14.000Z</time>
      </trkpt>
      <trkpt lat="46.04217" lon="4.55027">
        <ele>685</ele>
        <time>2016-11-27T11:01:15.000Z</time>
      </trkpt>
      <trkpt lat="46.04217" lon="4.55025">
        <ele>685</ele>
        <time>2016-11-27T11:01:16.000Z</time>
      </trkpt>
      <trkpt lat="46.04217" lon="4.55024">
        <ele>685</ele>
        <time>2016-11-27T11:01:17.000Z</time>
      </trkpt>
      <trkpt lat="46.04217" lon="4.55023">
        <ele>685</ele>
        <time>2016-11-27T11:01:18.000Z</time>
      </trkpt>
      <trkpt lat="46.04217" lon="4.55022">
        <ele>685</ele>
        <time>2016-11-27T11:01:19.000Z</time>
      </trkpt>
      <trkpt lat="46.04216" lon="4.55021">
        <ele>685</ele>
        <time>2016-11-27T11:01:20.000Z</time>
      </trkpt>
      <trkpt lat="46.04216" lon="4.5502">
        <ele>685</ele>
        <time>2016-11-27T11:01:21.000Z</time>
      </trkpt>
      <trkpt lat="46.04216" lon="4.55019">
        <ele>685</ele>
        <time>2016-11-27T11:01:22.000Z</time>
      </trkpt>
      <trkpt lat="46.04215" lon="4.55017">
        <ele>685</ele>
        <time>2016-11-27T11:01:23.000Z</time>
      </trkpt>
      <trkpt lat="46.04215" lon="4.55016">
        <ele>685</ele>
        <time>2016-11-27T11:01:24.000Z</time>
      </trkpt>
      <trkpt lat="46.04214" lon="4.55015">
        <ele>685</ele>
        <time>2016-11-27T11:01:25.000Z</time>
      </trkpt>
      <trkpt lat="46.04214" lon="4.55014">
        <ele>685</ele>
        <time>2016-11-27T11:01:26.000Z</time>
      </trkpt>
      <trkpt lat="46.04214" lon="4.55013">
        <ele>685</ele>
        <time>2016-11-27T11:01:27.000Z</time>
      </trkpt>
      <trkpt lat="46.04213" lon="4.55012">
        <ele>685</ele>
        <time>2016-11-27T11:01:28.000Z</time>
      </trkpt>
      <trkpt lat="46.04212" lon="4.55012">
        <ele>686</ele>
        <time>2016-11-27T11:01:29.000Z</time>
      </trkpt>
      <trkpt lat="46.04212" lon="4.55012">
        <ele>686</ele>
        <time>2016-11-27T11:01:30.000Z</time>
      </trkpt>
      <trkpt lat="46.04211" lon="4.55011">
        <ele>686</ele>
        <time>2016-11-27T11:01:31.000Z</time>
      </trkpt>
      <trkpt lat="46.04211" lon="4.5501">
        <ele>687</ele>
        <time>2016-11-27T11:01:32.000Z</time>
      </trkpt>
      <trkpt lat="46.04211" lon="4.5501">
        <ele>687</ele>
        <time>2016-11-27T11:01:33.000Z</time>
      </trkpt>
      <trkpt lat="46.0421" lon="4.55008">
        <ele>686</ele>
        <time>2016-11-27T11:01:34.000Z</time>
      </trkpt>
      <trkpt lat="46.0421" lon="4.55007">
        <ele>686</ele>
        <time>2016-11-27T11:01:35.000Z</time>
      </trkpt>
      <trkpt lat="46.0421" lon="4.55006">
        <ele>686</ele>
        <time>2016-11-27T11:01:36.000Z</time>
      </trkpt>
      <trkpt lat="46.0421" lon="4.55005">
        <ele>687</ele>
        <time>2016-11-27T11:01:37.000Z</time>
      </trkpt>
      <trkpt lat="46.04209" lon="4.55004">
        <ele>687</ele>
        <time>2016-11-27T11:01:38.000Z</time>
      </trkpt>
      <trkpt lat="46.0421" lon="4.55003">
        <ele>687</ele>
        <time>2016-11-27T11:01:39.000Z</time>
      </trkpt>
      <trkpt lat="46.0421" lon="4.55001">
        <ele>688</ele>
        <time>2016-11-27T11:01:40.000Z</time>
      </trkpt>
      <trkpt lat="46.0421" lon="4.55">
        <ele>688</ele>
        <time>2016-11-27T11:01:41.000Z</time>
      </trkpt>
      <trkpt lat="46.0421" lon="4.54999">
        <ele>688</ele>
        <time>2016-11-27T11:01:42.000Z</time>
      </trkpt>
      <trkpt lat="46.0421" lon="4.54998">
        <ele>689</ele>
        <time>2016-11-27T11:01:43.000Z</time>
      </trkpt>
      <trkpt lat="46.0421" lon="4.54996">
        <ele>689</ele>
        <time>2016-11-27T11:01:44.000Z</time>
      </trkpt>
      <trkpt lat="46.0421" lon="4.54995">
        <ele>689</ele>
        <time>2016-11-27T11:01:45.000Z</time>
      </trkpt>
      <trkpt lat="46.04209" lon="4.54993">
        <ele>690</ele>
        <time>2016-11-27T11:01:46.000Z</time>
      </trkpt>
      <trkpt lat="46.04209" lon="4.54992">
        <ele>690</ele>
        <time>2016-11-27T11:01:47.000Z</time>
      </trkpt>
      <trkpt lat="46.04209" lon="4.5499">
        <ele>690</ele>
        <time>2016-11-27T11:01:48.000Z</time>
      </trkpt>
      <trkpt lat="46.04209" lon="4.54989">
        <ele>690</ele>
        <time>2016-11-27T11:01:49.000Z</time>
      </trkpt>
      <trkpt lat="46.04209" lon="4.54987">
        <ele>691</ele>
        <time>2016-11-27T11:01:50.000Z</time>
      </trkpt>
      <trkpt lat="46.04209" lon="4.54986">
        <ele>691</ele>
        <time>2016-11-27T11:01:51.000Z</time>
      </trkpt>
      <trkpt lat="46.04209" lon="4.54985">
        <ele>691</ele>
        <time>2016-11-27T11:01:52.000Z</time>
      </trkpt>
      <trkpt lat="46.04208" lon="4.54984">
        <ele>691</ele>
        <time>2016-11-27T11:01:53.000Z</time>
      </trkpt>
      <trkpt lat="46.04207" lon="4.54983">
        <ele>691</ele>
        <time>2016-11-27T11:01:54.000Z</time>
      </trkpt>
      <trkpt lat="46.04207" lon="4.54982">
        <ele>691</ele>
        <time>2016-11-27T11:01:55.000Z</time>
      </trkpt>
      <trkpt lat="46.04206" lon="4.54981">
        <ele>691</ele>
        <time>2016-11-27T11:01:56.000Z</time>
      </trkpt>
      <trkpt lat="46.04206" lon="4.5498">
        <ele>691</ele>
        <time>2016-11-27T11:01:57.000Z</time>
      </trkpt>
      <trkpt lat="46.04206" lon="4.54979">
        <ele>691</ele>
        <time>2016-11-27T11:01:58.000Z</time>
      </trkpt>
      <trkpt lat="46.04205" lon="4.54978">
        <ele>692</ele>
        <time>2016-11-27T11:01:59.000Z</time>
      </trkpt>
      <trkpt lat="46.04205" lon="4.54976">
        <ele>692</ele>
        <time>2016-11-27T11:02:00.000Z</time>
      </trkpt>
      <trkpt lat="46.04205" lon="4.54976">
        <ele>693</ele>
        <time>2016-11-27T11:02:01.000Z</time>
      </trkpt>
      <trkpt lat="46.04205" lon="4.54975">
        <ele>693</ele>
        <time>2016-11-27T11:02:02.000Z</time>
      </trkpt>
      <trkpt lat="46.04204" lon="4.54973">
        <ele>693</ele>
        <time>2016-11-27T11:02:03.000Z</time>
      </trkpt>
      <trkpt lat="46.04204" lon="4.54972">
        <ele>693</ele>
        <time>2016-11-27T11:02:04.000Z</time>
      </trkpt>
      <trkpt lat="46.04204" lon="4.54971">
        <ele>694</ele>
        <time>2016-11-27T11:02:05.000Z</time>
      </trkpt>
      <trkpt lat="46.04204" lon="4.5497">
        <ele>694</ele>
        <time>2016-11-27T11:02:06.000Z</time>
      </trkpt>
      <trkpt lat="46.04204" lon="4.54969">
        <ele>694</ele>
        <time>2016-11-27T11:02:07.000Z</time>
      </trkpt>
      <trkpt lat="46.04203" lon="4.54967">
        <ele>695</ele>
        <time>2016-11-27T11:02:08.000Z</time>
      </trkpt>
      <trkpt lat="46.04203" lon="4.54966">
        <ele>695</ele>
        <time>2016-11-27T11:02:09.000Z</time>
      </trkpt>
      <trkpt lat="46.04202" lon="4.54965">
        <ele>696</ele>
        <time>2016-11-27T11:02:10.000Z</time>
      </trkpt>
      <trkpt lat="46.04202" lon="4.54963">
        <ele>696</ele>
        <time>2016-11-27T11:02:11.000Z</time>
      </trkpt>
      <trkpt lat="46.04202" lon="4.54961">
        <ele>697</ele>
        <time>2016-11-27T11:02:12.000Z</time>
      </trkpt>
      <trkpt lat="46.04202" lon="4.54959">
        <ele>697</ele>
        <time>2016-11-27T11:02:13.000Z</time>
      </trkpt>
      <trkpt lat="46.04202" lon="4.54957">
        <ele>697</ele>
        <time>2016-11-27T11:02:14.000Z</time>
      </trkpt>
      <trkpt lat="46.04201" lon="4.54955">
        <ele>697</ele>
        <time>2016-11-27T11:02:15.000Z</time>
      </trkpt>
      <trkpt lat="46.04201" lon="4.54953">
        <ele>698</ele>
        <time>2016-11-27T11:02:16.000Z</time>
      </trkpt>
      <trkpt lat="46.04201" lon="4.54951">
        <ele>700</ele>
        <time>2016-11-27T11:02:17.000Z</time>
      </trkpt>
      <trkpt lat="46.04201" lon="4.54949">
        <ele>700</ele>
        <time>2016-11-27T11:02:18.000Z</time>
      </trkpt>
      <trkpt lat="46.04201" lon="4.54947">
        <ele>700</ele>
        <time>2016-11-27T11:02:19.000Z</time>
      </trkpt>
      <trkpt lat="46.04201" lon="4.54946">
        <ele>701</ele>
        <time>2016-11-27T11:02:20.000Z</time>
      </trkpt>
      <trkpt lat="46.042" lon="4.54944">
        <ele>701</ele>
        <time>2016-11-27T11:02:21.000Z</time>
      </trkpt>
      <trkpt lat="46.04199" lon="4.54942">
        <ele>701</ele>
        <time>2016-11-27T11:02:22.000Z</time>
      </trkpt>
      <trkpt lat="46.04198" lon="4.54941">
        <ele>701</ele>
        <time>2016-11-27T11:02:23.000Z</time>
      </trkpt>
      <trkpt lat="46.04198" lon="4.5494">
        <ele>702</ele>
        <time>2016-11-27T11:02:24.000Z</time>
      </trkpt>
      <trkpt lat="46.04197" lon="4.54939">
        <ele>701</ele>
        <time>2016-11-27T11:02:25.000Z</time>
      </trkpt>
      <trkpt lat="46.04196" lon="4.54938">
        <ele>701</ele>
        <time>2016-11-27T11:02:26.000Z</time>
      </trkpt>
      <trkpt lat="46.04195" lon="4.54937">
        <ele>701</ele>
        <time>2016-11-27T11:02:27.000Z</time>
      </trkpt>
      <trkpt lat="46.04195" lon="4.54936">
        <ele>702</ele>
        <time>2016-11-27T11:02:28.000Z</time>
      </trkpt>
      <trkpt lat="46.04194" lon="4.54935">
        <ele>702</ele>
        <time>2016-11-27T11:02:29.000Z</time>
      </trkpt>
      <trkpt lat="46.04194" lon="4.54934">
        <ele>703</ele>
        <time>2016-11-27T11:02:30.000Z</time>
      </trkpt>
      <trkpt lat="46.04193" lon="4.54933">
        <ele>703</ele>
        <time>2016-11-27T11:02:31.000Z</time>
      </trkpt>
      <trkpt lat="46.04193" lon="4.54932">
        <ele>703</ele>
        <time>2016-11-27T11:02:32.000Z</time>
      </trkpt>
      <trkpt lat="46.04192" lon="4.54932">
        <ele>704</ele>
        <time>2016-11-27T11:02:33.000Z</time>
      </trkpt>
      <trkpt lat="46.04192" lon="4.54931">
        <ele>704</ele>
        <time>2016-11-27T11:02:34.000Z</time>
      </trkpt>
      <trkpt lat="46.04192" lon="4.54931">
        <ele>704</ele>
        <time>2016-11-27T11:02:35.000Z</time>
      </trkpt>
      <trkpt lat="46.04191" lon="4.5493">
        <ele>704</ele>
        <time>2016-11-27T11:02:36.000Z</time>
      </trkpt>
      <trkpt lat="46.04191" lon="4.54929">
        <ele>704</ele>
        <time>2016-11-27T11:02:37.000Z</time>
      </trkpt>
      <trkpt lat="46.0419" lon="4.54928">
        <ele>705</ele>
        <time>2016-11-27T11:02:38.000Z</time>
      </trkpt>
      <trkpt lat="46.0419" lon="4.54927">
        <ele>706</ele>
        <time>2016-11-27T11:02:39.000Z</time>
      </trkpt>
      <trkpt lat="46.0419" lon="4.54925">
        <ele>706</ele>
        <time>2016-11-27T11:02:40.000Z</time>
      </trkpt>
      <trkpt lat="46.0419" lon="4.54924">
        <ele>706</ele>
        <time>2016-11-27T11:02:41.000Z</time>
      </trkpt>
      <trkpt lat="46.04189" lon="4.54923">
        <ele>706</ele>
        <time>2016-11-27T11:02:42.000Z</time>
      </trkpt>
      <trkpt lat="46.04189" lon="4.54922">
        <ele>706</ele>
        <time>2016-11-27T11:02:43.000Z</time>
      </trkpt>
      <trkpt lat="46.04188" lon="4.54921">
        <ele>706</ele>
        <time>2016-11-27T11:02:44.000Z</time>
      </trkpt>
      <trkpt lat="46.04188" lon="4.5492">
        <ele>706</ele>
        <time>2016-11-27T11:02:45.000Z</time>
      </trkpt>
      <trkpt lat="46.04187" lon="4.54919">
        <ele>706</ele>
        <time>2016-11-27T11:02:46.000Z</time>
      </trkpt>
      <trkpt lat="46.04187" lon="4.54918">
        <ele>706</ele>
        <time>2016-11-27T11:02:47.000Z</time>
      </trkpt>
      <trkpt lat="46.04186" lon="4.54916">
        <ele>705</ele>
        <time>2016-11-27T11:02:48.000Z</time>
      </trkpt>
      <trkpt lat="46.04185" lon="4.54915">
        <ele>706</ele>
        <time>2016-11-27T11:02:49.000Z</time>
      </trkpt>
      <trkpt lat="46.04184" lon="4.54914">
        <ele>705</ele>
        <time>2016-11-27T11:02:50.000Z</time>
      </trkpt>
      <trkpt lat="46.04183" lon="4.54914">
        <ele>706</ele>
        <time>2016-11-27T11:02:51.000Z</time>
      </trkpt>
      <trkpt lat="46.04182" lon="4.54914">
        <ele>706</ele>
        <time>2016-11-27T11:02:52.000Z</time>
      </trkpt>
      <trkpt lat="46.04181" lon="4.54914">
        <ele>706</ele>
        <time>2016-11-27T11:02:53.000Z</time>
      </trkpt>
      <trkpt lat="46.0418" lon="4.54913">
        <ele>707</ele>
        <time>2016-11-27T11:02:54.000Z</time>
      </trkpt>
      <trkpt lat="46.0418" lon="4.54913">
        <ele>708</ele>
        <time>2016-11-27T11:02:55.000Z</time>
      </trkpt>
      <trkpt lat="46.04179" lon="4.54913">
        <ele>709</ele>
        <time>2016-11-27T11:02:56.000Z</time>
      </trkpt>
      <trkpt lat="46.04179" lon="4.54912">
        <ele>709</ele>
        <time>2016-11-27T11:02:57.000Z</time>
      </trkpt>
      <trkpt lat="46.04178" lon="4.54912">
        <ele>709</ele>
        <time>2016-11-27T11:02:58.000Z</time>
      </trkpt>
      <trkpt lat="46.04177" lon="4.54912">
        <ele>710</ele>
        <time>2016-11-27T11:02:59.000Z</time>
      </trkpt>
      <trkpt lat="46.04177" lon="4.5491">
        <ele>710</ele>
        <time>2016-11-27T11:03:00.000Z</time>
      </trkpt>
      <trkpt lat="46.04177" lon="4.5491">
        <ele>710</ele>
        <time>2016-11-27T11:03:01.000Z</time>
      </trkpt>
      <trkpt lat="46.04177" lon="4.54909">
        <ele>710</ele>
        <time>2016-11-27T11:03:02.000Z</time>
      </trkpt>
      <trkpt lat="46.04176" lon="4.54908">
        <ele>710</ele>
        <time>2016-11-27T11:03:03.000Z</time>
      </trkpt>
      <trkpt lat="46.04176" lon="4.54908">
        <ele>710</ele>
        <time>2016-11-27T11:03:04.000Z</time>
      </trkpt>
      <trkpt lat="46.04175" lon="4.54907">
        <ele>710</ele>
        <time>2016-11-27T11:03:05.000Z</time>
      </trkpt>
      <trkpt lat="46.04175" lon="4.54907">
        <ele>711</ele>
        <time>2016-11-27T11:03:06.000Z</time>
      </trkpt>
      <trkpt lat="46.04175" lon="4.54907">
        <ele>711</ele>
        <time>2016-11-27T11:03:07.000Z</time>
      </trkpt>
      <trkpt lat="46.04175" lon="4.54907">
        <ele>711</ele>
        <time>2016-11-27T11:03:08.000Z</time>
      </trkpt>
      <trkpt lat="46.04175" lon="4.54907">
        <ele>711</ele>
        <time>2016-11-27T11:03:09.000Z</time>
      </trkpt>
      <trkpt lat="46.04175" lon="4.54907">
        <ele>711</ele>
        <time>2016-11-27T11:03:10.000Z</time>
      </trkpt>
      <trkpt lat="46.04175" lon="4.54906">
        <ele>711</ele>
        <time>2016-11-27T11:03:11.000Z</time>
      </trkpt>
      <trkpt lat="46.04176" lon="4.54906">
        <ele>712</ele>
        <time>2016-11-27T11:03:12.000Z</time>
      </trkpt>
      <trkpt lat="46.04176" lon="4.54905">
        <ele>712</ele>
        <time>2016-11-27T11:03:13.000Z</time>
      </trkpt>
      <trkpt lat="46.04176" lon="4.54905">
        <ele>712</ele>
        <time>2016-11-27T11:03:14.000Z</time>
      </trkpt>
      <trkpt lat="46.04176" lon="4.54905">
        <ele>712</ele>
        <time>2016-11-27T11:03:15.000Z</time>
      </trkpt>
      <trkpt lat="46.04176" lon="4.54905">
        <ele>712</ele>
        <time>2016-11-27T11:03:16.000Z</time>
      </trkpt>
      <trkpt lat="46.04176" lon="4.54905">
        <ele>712</ele>
        <time>2016-11-27T11:03:17.000Z</time>
      </trkpt>
      <trkpt lat="46.04176" lon="4.54905">
        <ele>713</ele>
        <time>2016-11-27T11:03:18.000Z</time>
      </trkpt>
      <trkpt lat="46.04176" lon="4.54905">
        <ele>713</ele>
        <time>2016-11-27T11:03:19.000Z</time>
      </trkpt>
      <trkpt lat="46.04176" lon="4.54905">
        <ele>714</ele>
        <time>2016-11-27T11:03:20.000Z</time>
      </trkpt>
      <trkpt lat="46.04176" lon="4.54905">
        <ele>714</ele>
        <time>2016-11-27T11:03:21.000Z</time>
      </trkpt>
      <trkpt lat="46.04176" lon="4.54905">
        <ele>714</ele>
        <time>2016-11-27T11:03:22.000Z</time>
      </trkpt>
      <trkpt lat="46.04177" lon="4.54904">
        <ele>715</ele>
        <time>2016-11-27T11:03:23.000Z</time>
      </trkpt>
      <trkpt lat="46.04177" lon="4.54904">
        <ele>715</ele>
        <time>2016-11-27T11:03:24.000Z</time>
      </trkpt>
      <trkpt lat="46.04177" lon="4.54903">
        <ele>715</ele>
        <time>2016-11-27T11:03:25.000Z</time>
      </trkpt>
      <trkpt lat="46.04178" lon="4.54903">
        <ele>716</ele>
        <time>2016-11-27T11:03:26.000Z</time>
      </trkpt>
      <trkpt lat="46.04178" lon="4.54903">
        <ele>716</ele>
        <time>2016-11-27T11:03:27.000Z</time>
      </trkpt>
      <trkpt lat="46.04178" lon="4.54902">
        <ele>716</ele>
        <time>2016-11-27T11:03:28.000Z</time>
      </trkpt>
      <trkpt lat="46.04178" lon="4.54902">
        <ele>716</ele>
        <time>2016-11-27T11:03:29.000Z</time>
      </trkpt>
      <trkpt lat="46.04178" lon="4.54901">
        <ele>716</ele>
        <time>2016-11-27T11:03:30.000Z</time>
      </trkpt>
      <trkpt lat="46.04178" lon="4.54901">
        <ele>716</ele>
        <time>2016-11-27T11:03:31.000Z</time>
      </trkpt>
      <trkpt lat="46.04178" lon="4.549">
        <ele>716</ele>
        <time>2016-11-27T11:03:32.000Z</time>
      </trkpt>
      <trkpt lat="46.04178" lon="4.549">
        <ele>716</ele>
        <time>2016-11-27T11:03:33.000Z</time>
      </trkpt>
      <trkpt lat="46.04178" lon="4.54899">
        <ele>716</ele>
        <time>2016-11-27T11:03:34.000Z</time>
      </trkpt>
      <trkpt lat="46.04178" lon="4.54899">
        <ele>716</ele>
        <time>2016-11-27T11:03:35.000Z</time>
      </trkpt>
      <trkpt lat="46.04178" lon="4.54899">
        <ele>716</ele>
        <time>2016-11-27T11:03:36.000Z</time>
      </trkpt>
      <trkpt lat="46.04178" lon="4.54899">
        <ele>716</ele>
        <time>2016-11-27T11:03:37.000Z</time>
      </trkpt>
      <trkpt lat="46.04178" lon="4.54899">
        <ele>716</ele>
        <time>2016-11-27T11:03:38.000Z</time>
      </trkpt>
      <trkpt lat="46.04178" lon="4.54899">
        <ele>716</ele>
        <time>2016-11-27T11:03:39.000Z</time>
      </trkpt>
      <trkpt lat="46.04178" lon="4.54899">
        <ele>716</ele>
        <time>2016-11-27T11:03:40.000Z</time>
      </trkpt>
      <trkpt lat="46.04178" lon="4.549">
        <ele>716</ele>
        <time>2016-11-27T11:03:41.000Z</time>
      </trkpt>
      <trkpt lat="46.04178" lon="4.549">
        <ele>716</ele>
        <time>2016-11-27T11:03:42.000Z</time>
      </trkpt>
      <trkpt lat="46.04177" lon="4.549">
        <ele>716</ele>
        <time>2016-11-27T11:03:43.000Z</time>
      </trkpt>
      <trkpt lat="46.04176" lon="4.549">
        <ele>717</ele>
        <time>2016-11-27T11:03:44.000Z</time>
      </trkpt>
      <trkpt lat="46.04175" lon="4.549">
        <ele>717</ele>
        <time>2016-11-27T11:03:45.000Z</time>
      </trkpt>
      <trkpt lat="46.04175" lon="4.549">
        <ele>717</ele>
        <time>2016-11-27T11:03:46.000Z</time>
      </trkpt>
      <trkpt lat="46.04174" lon="4.549">
        <ele>717</ele>
        <time>2016-11-27T11:03:47.000Z</time>
      </trkpt>
      <trkpt lat="46.04173" lon="4.549">
        <ele>717</ele>
        <time>2016-11-27T11:03:48.000Z</time>
      </trkpt>
      <trkpt lat="46.04172" lon="4.549">
        <ele>718</ele>
        <time>2016-11-27T11:03:49.000Z</time>
      </trkpt>
      <trkpt lat="46.04171" lon="4.549">
        <ele>718</ele>
        <time>2016-11-27T11:03:50.000Z</time>
      </trkpt>
      <trkpt lat="46.0417" lon="4.549">
        <ele>718</ele>
        <time>2016-11-27T11:03:51.000Z</time>
      </trkpt>
      <trkpt lat="46.04169" lon="4.549">
        <ele>718</ele>
        <time>2016-11-27T11:03:52.000Z</time>
      </trkpt>
      <trkpt lat="46.04168" lon="4.549">
        <ele>719</ele>
        <time>2016-11-27T11:03:53.000Z</time>
      </trkpt>
      <trkpt lat="46.04167" lon="4.54901">
        <ele>719</ele>
        <time>2016-11-27T11:03:54.000Z</time>
      </trkpt>
      <trkpt lat="46.04166" lon="4.54901">
        <ele>719</ele>
        <time>2016-11-27T11:03:55.000Z</time>
      </trkpt>
      <trkpt lat="46.04165" lon="4.54902">
        <ele>720</ele>
        <time>2016-11-27T11:03:56.000Z</time>
      </trkpt>
      <trkpt lat="46.04165" lon="4.54903">
        <ele>719</ele>
        <time>2016-11-27T11:03:57.000Z</time>
      </trkpt>
      <trkpt lat="46.04164" lon="4.54905">
        <ele>719</ele>
        <time>2016-11-27T11:03:58.000Z</time>
      </trkpt>
      <trkpt lat="46.04163" lon="4.54907">
        <ele>719</ele>
        <time>2016-11-27T11:03:59.000Z</time>
      </trkpt>
      <trkpt lat="46.04162" lon="4.54908">
        <ele>720</ele>
        <time>2016-11-27T11:04:00.000Z</time>
      </trkpt>
      <trkpt lat="46.04162" lon="4.5491">
        <ele>720</ele>
        <time>2016-11-27T11:04:01.000Z</time>
      </trkpt>
      <trkpt lat="46.04161" lon="4.54911">
        <ele>720</ele>
        <time>2016-11-27T11:04:02.000Z</time>
      </trkpt>
      <trkpt lat="46.04161" lon="4.54913">
        <ele>721</ele>
        <time>2016-11-27T11:04:03.000Z</time>
      </trkpt>
      <trkpt lat="46.0416" lon="4.54915">
        <ele>721</ele>
        <time>2016-11-27T11:04:04.000Z</time>
      </trkpt>
      <trkpt lat="46.0416" lon="4.54916">
        <ele>722</ele>
        <time>2016-11-27T11:04:05.000Z</time>
      </trkpt>
      <trkpt lat="46.04158" lon="4.54917">
        <ele>721</ele>
        <time>2016-11-27T11:04:06.000Z</time>
      </trkpt>
      <trkpt lat="46.04157" lon="4.54918">
        <ele>720</ele>
        <time>2016-11-27T11:04:07.000Z</time>
      </trkpt>
      <trkpt lat="46.04155" lon="4.54918">
        <ele>720</ele>
        <time>2016-11-27T11:04:08.000Z</time>
      </trkpt>
      <trkpt lat="46.04154" lon="4.54919">
        <ele>720</ele>
        <time>2016-11-27T11:04:09.000Z</time>
      </trkpt>
      <trkpt lat="46.04152" lon="4.5492">
        <ele>720</ele>
        <time>2016-11-27T11:04:10.000Z</time>
      </trkpt>
      <trkpt lat="46.04151" lon="4.54921">
        <ele>721</ele>
        <time>2016-11-27T11:04:11.000Z</time>
      </trkpt>
      <trkpt lat="46.0415" lon="4.54922">
        <ele>721</ele>
        <time>2016-11-27T11:04:12.000Z</time>
      </trkpt>
      <trkpt lat="46.04149" lon="4.54922">
        <ele>721</ele>
        <time>2016-11-27T11:04:13.000Z</time>
      </trkpt>
      <trkpt lat="46.04148" lon="4.54922">
        <ele>721</ele>
        <time>2016-11-27T11:04:14.000Z</time>
      </trkpt>
      <trkpt lat="46.04146" lon="4.54922">
        <ele>720</ele>
        <time>2016-11-27T11:04:15.000Z</time>
      </trkpt>
      <trkpt lat="46.04145" lon="4.54922">
        <ele>720</ele>
        <time>2016-11-27T11:04:16.000Z</time>
      </trkpt>
      <trkpt lat="46.04143" lon="4.54922">
        <ele>720</ele>
        <time>2016-11-27T11:04:17.000Z</time>
      </trkpt>
      <trkpt lat="46.04142" lon="4.54922">
        <ele>719</ele>
        <time>2016-11-27T11:04:18.000Z</time>
      </trkpt>
      <trkpt lat="46.04141" lon="4.54922">
        <ele>720</ele>
        <time>2016-11-27T11:04:19.000Z</time>
      </trkpt>
      <trkpt lat="46.0414" lon="4.54921">
        <ele>720</ele>
        <time>2016-11-27T11:04:20.000Z</time>
      </trkpt>
      <trkpt lat="46.04139" lon="4.54921">
        <ele>720</ele>
        <time>2016-11-27T11:04:21.000Z</time>
      </trkpt>
      <trkpt lat="46.04137" lon="4.54921">
        <ele>720</ele>
        <time>2016-11-27T11:04:22.000Z</time>
      </trkpt>
      <trkpt lat="46.04136" lon="4.54921">
        <ele>721</ele>
        <time>2016-11-27T11:04:23.000Z</time>
      </trkpt>
      <trkpt lat="46.04135" lon="4.54921">
        <ele>720</ele>
        <time>2016-11-27T11:04:24.000Z</time>
      </trkpt>
      <trkpt lat="46.04134" lon="4.5492">
        <ele>720</ele>
        <time>2016-11-27T11:04:25.000Z</time>
      </trkpt>
      <trkpt lat="46.04133" lon="4.5492">
        <ele>720</ele>
        <time>2016-11-27T11:04:26.000Z</time>
      </trkpt>
      <trkpt lat="46.04132" lon="4.5492">
        <ele>720</ele>
        <time>2016-11-27T11:04:27.000Z</time>
      </trkpt>
      <trkpt lat="46.04131" lon="4.54919">
        <ele>721</ele>
        <time>2016-11-27T11:04:28.000Z</time>
      </trkpt>
      <trkpt lat="46.04129" lon="4.5492">
        <ele>720</ele>
        <time>2016-11-27T11:04:29.000Z</time>
      </trkpt>
      <trkpt lat="46.04128" lon="4.5492">
        <ele>720</ele>
        <time>2016-11-27T11:04:30.000Z</time>
      </trkpt>
      <trkpt lat="46.04127" lon="4.5492">
        <ele>721</ele>
        <time>2016-11-27T11:04:31.000Z</time>
      </trkpt>
      <trkpt lat="46.04125" lon="4.54919">
        <ele>720</ele>
        <time>2016-11-27T11:04:32.000Z</time>
      </trkpt>
      <trkpt lat="46.04124" lon="4.54919">
        <ele>720</ele>
        <time>2016-11-27T11:04:33.000Z</time>
      </trkpt>
      <trkpt lat="46.04123" lon="4.54919">
        <ele>720</ele>
        <time>2016-11-27T11:04:34.000Z</time>
      </trkpt>
      <trkpt lat="46.04122" lon="4.5492">
        <ele>720</ele>
        <time>2016-11-27T11:04:35.000Z</time>
      </trkpt>
      <trkpt lat="46.04121" lon="4.54919">
        <ele>720</ele>
        <time>2016-11-27T11:04:36.000Z</time>
      </trkpt>
      <trkpt lat="46.04119" lon="4.54918">
        <ele>719</ele>
        <time>2016-11-27T11:04:37.000Z</time>
      </trkpt>
      <trkpt lat="46.04118" lon="4.54918">
        <ele>719</ele>
        <time>2016-11-27T11:04:38.000Z</time>
      </trkpt>
      <trkpt lat="46.04117" lon="4.54918">
        <ele>719</ele>
        <time>2016-11-27T11:04:39.000Z</time>
      </trkpt>
      <trkpt lat="46.04115" lon="4.54918">
        <ele>719</ele>
        <time>2016-11-27T11:04:40.000Z</time>
      </trkpt>
      <trkpt lat="46.04114" lon="4.54918">
        <ele>719</ele>
        <time>2016-11-27T11:04:41.000Z</time>
      </trkpt>
      <trkpt lat="46.04112" lon="4.54918">
        <ele>719</ele>
        <time>2016-11-27T11:04:42.000Z</time>
      </trkpt>
      <trkpt lat="46.0411" lon="4.54918">
        <ele>719</ele>
        <time>2016-11-27T11:04:43.000Z</time>
      </trkpt>
      <trkpt lat="46.04109" lon="4.54918">
        <ele>720</ele>
        <time>2016-11-27T11:04:44.000Z</time>
      </trkpt>
      <trkpt lat="46.04107" lon="4.54918">
        <ele>720</ele>
        <time>2016-11-27T11:04:45.000Z</time>
      </trkpt>
      <trkpt lat="46.04106" lon="4.54919">
        <ele>719</ele>
        <time>2016-11-27T11:04:46.000Z</time>
      </trkpt>
      <trkpt lat="46.04105" lon="4.54919">
        <ele>720</ele>
        <time>2016-11-27T11:04:47.000Z</time>
      </trkpt>
      <trkpt lat="46.04104" lon="4.5492">
        <ele>720</ele>
        <time>2016-11-27T11:04:48.000Z</time>
      </trkpt>
      <trkpt lat="46.04103" lon="4.54922">
        <ele>720</ele>
        <time>2016-11-27T11:04:49.000Z</time>
      </trkpt>
      <trkpt lat="46.04101" lon="4.54923">
        <ele>719</ele>
        <time>2016-11-27T11:04:50.000Z</time>
      </trkpt>
      <trkpt lat="46.041" lon="4.54924">
        <ele>718</ele>
        <time>2016-11-27T11:04:51.000Z</time>
      </trkpt>
      <trkpt lat="46.04099" lon="4.54924">
        <ele>718</ele>
        <time>2016-11-27T11:04:52.000Z</time>
      </trkpt>
      <trkpt lat="46.04097" lon="4.54924">
        <ele>717</ele>
        <time>2016-11-27T11:04:53.000Z</time>
      </trkpt>
      <trkpt lat="46.04096" lon="4.54924">
        <ele>717</ele>
        <time>2016-11-27T11:04:54.000Z</time>
      </trkpt>
      <trkpt lat="46.04095" lon="4.54924">
        <ele>717</ele>
        <time>2016-11-27T11:04:55.000Z</time>
      </trkpt>
      <trkpt lat="46.04094" lon="4.54924">
        <ele>717</ele>
        <time>2016-11-27T11:04:56.000Z</time>
      </trkpt>
      <trkpt lat="46.04093" lon="4.54924">
        <ele>718</ele>
        <time>2016-11-27T11:04:57.000Z</time>
      </trkpt>
      <trkpt lat="46.04092" lon="4.54924">
        <ele>718</ele>
        <time>2016-11-27T11:04:58.000Z</time>
      </trkpt>
      <trkpt lat="46.04092" lon="4.54925">
        <ele>719</ele>
        <time>2016-11-27T11:04:59.000Z</time>
      </trkpt>
      <trkpt lat="46.04091" lon="4.54926">
        <ele>720</ele>
        <time>2016-11-27T11:05:00.000Z</time>
      </trkpt>
      <trkpt lat="46.0409" lon="4.54928">
        <ele>720</ele>
        <time>2016-11-27T11:05:01.000Z</time>
      </trkpt>
      <trkpt lat="46.04089" lon="4.54929">
        <ele>720</ele>
        <time>2016-11-27T11:05:02.000Z</time>
      </trkpt>
      <trkpt lat="46.04088" lon="4.54929">
        <ele>720</ele>
        <time>2016-11-27T11:05:03.000Z</time>
      </trkpt>
      <trkpt lat="46.04087" lon="4.54929">
        <ele>719</ele>
        <time>2016-11-27T11:05:04.000Z</time>
      </trkpt>
      <trkpt lat="46.04086" lon="4.54929">
        <ele>719</ele>
        <time>2016-11-27T11:05:05.000Z</time>
      </trkpt>
      <trkpt lat="46.04084" lon="4.54928">
        <ele>718</ele>
        <time>2016-11-27T11:05:06.000Z</time>
      </trkpt>
      <trkpt lat="46.04082" lon="4.54929">
        <ele>718</ele>
        <time>2016-11-27T11:05:07.000Z</time>
      </trkpt>
      <trkpt lat="46.04079" lon="4.54929">
        <ele>716</ele>
        <time>2016-11-27T11:05:08.000Z</time>
      </trkpt>
      <trkpt lat="46.04076" lon="4.54928">
        <ele>716</ele>
        <time>2016-11-27T11:05:09.000Z</time>
      </trkpt>
      <trkpt lat="46.04073" lon="4.54928">
        <ele>715</ele>
        <time>2016-11-27T11:05:10.000Z</time>
      </trkpt>
      <trkpt lat="46.04071" lon="4.54929">
        <ele>714</ele>
        <time>2016-11-27T11:05:11.000Z</time>
      </trkpt>
      <trkpt lat="46.04069" lon="4.5493">
        <ele>714</ele>
        <time>2016-11-27T11:05:12.000Z</time>
      </trkpt>
      <trkpt lat="46.04067" lon="4.54931">
        <ele>715</ele>
        <time>2016-11-27T11:05:13.000Z</time>
      </trkpt>
      <trkpt lat="46.04065" lon="4.54932">
        <ele>715</ele>
        <time>2016-11-27T11:05:14.000Z</time>
      </trkpt>
      <trkpt lat="46.04064" lon="4.54933">
        <ele>715</ele>
        <time>2016-11-27T11:05:15.000Z</time>
      </trkpt>
      <trkpt lat="46.04062" lon="4.54932">
        <ele>714</ele>
        <time>2016-11-27T11:05:16.000Z</time>
      </trkpt>
      <trkpt lat="46.0406" lon="4.54931">
        <ele>714</ele>
        <time>2016-11-27T11:05:17.000Z</time>
      </trkpt>
      <trkpt lat="46.0406" lon="4.5493">
        <ele>715</ele>
        <time>2016-11-27T11:05:18.000Z</time>
      </trkpt>
      <trkpt lat="46.04059" lon="4.5493">
        <ele>716</ele>
        <time>2016-11-27T11:05:19.000Z</time>
      </trkpt>
      <trkpt lat="46.04059" lon="4.5493">
        <ele>716</ele>
        <time>2016-11-27T11:05:20.000Z</time>
      </trkpt>
      <trkpt lat="46.04058" lon="4.5493">
        <ele>717</ele>
        <time>2016-11-27T11:05:21.000Z</time>
      </trkpt>
      <trkpt lat="46.04058" lon="4.54929">
        <ele>717</ele>
        <time>2016-11-27T11:05:22.000Z</time>
      </trkpt>
      <trkpt lat="46.04057" lon="4.5493">
        <ele>718</ele>
        <time>2016-11-27T11:05:23.000Z</time>
      </trkpt>
      <trkpt lat="46.04057" lon="4.5493">
        <ele>718</ele>
        <time>2016-11-27T11:05:24.000Z</time>
      </trkpt>
      <trkpt lat="46.04057" lon="4.5493">
        <ele>718</ele>
        <time>2016-11-27T11:05:25.000Z</time>
      </trkpt>
      <trkpt lat="46.04056" lon="4.5493">
        <ele>719</ele>
        <time>2016-11-27T11:05:26.000Z</time>
      </trkpt>
      <trkpt lat="46.04057" lon="4.5493">
        <ele>719</ele>
        <time>2016-11-27T11:05:27.000Z</time>
      </trkpt>
      <trkpt lat="46.04057" lon="4.5493">
        <ele>720</ele>
        <time>2016-11-27T11:05:28.000Z</time>
      </trkpt>
      <trkpt lat="46.04057" lon="4.5493">
        <ele>719</ele>
        <time>2016-11-27T11:05:29.000Z</time>
      </trkpt>
      <trkpt lat="46.04057" lon="4.5493">
        <ele>720</ele>
        <time>2016-11-27T11:05:30.000Z</time>
      </trkpt>
      <trkpt lat="46.04057" lon="4.5493">
        <ele>720</ele>
        <time>2016-11-27T11:05:31.000Z</time>
      </trkpt>
      <trkpt lat="46.04057" lon="4.54931">
        <ele>720</ele>
        <time>2016-11-27T11:05:32.000Z</time>
      </trkpt>
      <trkpt lat="46.04057" lon="4.54931">
        <ele>720</ele>
        <time>2016-11-27T11:05:33.000Z</time>
      </trkpt>
      <trkpt lat="46.04057" lon="4.54931">
        <ele>721</ele>
        <time>2016-11-27T11:05:34.000Z</time>
      </trkpt>
      <trkpt lat="46.04057" lon="4.54931">
        <ele>721</ele>
        <time>2016-11-27T11:05:35.000Z</time>
      </trkpt>
      <trkpt lat="46.04057" lon="4.54931">
        <ele>722</ele>
        <time>2016-11-27T11:05:36.000Z</time>
      </trkpt>
      <trkpt lat="46.04057" lon="4.54931">
        <ele>722</ele>
        <time>2016-11-27T11:05:37.000Z</time>
      </trkpt>
      <trkpt lat="46.04057" lon="4.54931">
        <ele>722</ele>
        <time>2016-11-27T11:05:38.000Z</time>
      </trkpt>
      <trkpt lat="46.04057" lon="4.54931">
        <ele>722</ele>
        <time>2016-11-27T11:05:39.000Z</time>
      </trkpt>
      <trkpt lat="46.04057" lon="4.5493">
        <ele>722</ele>
        <time>2016-11-27T11:05:40.000Z</time>
      </trkpt>
      <trkpt lat="46.04057" lon="4.5493">
        <ele>722</ele>
        <time>2016-11-27T11:05:41.000Z</time>
      </trkpt>
      <trkpt lat="46.04057" lon="4.5493">
        <ele>722</ele>
        <time>2016-11-27T11:05:42.000Z</time>
      </trkpt>
      <trkpt lat="46.04057" lon="4.54929">
        <ele>722</ele>
        <time>2016-11-27T11:05:43.000Z</time>
      </trkpt>
      <trkpt lat="46.04057" lon="4.54929">
        <ele>722</ele>
        <time>2016-11-27T11:05:44.000Z</time>
      </trkpt>
      <trkpt lat="46.04057" lon="4.54929">
        <ele>722</ele>
        <time>2016-11-27T11:05:45.000Z</time>
      </trkpt>
      <trkpt lat="46.04057" lon="4.54929">
        <ele>722</ele>
        <time>2016-11-27T11:05:46.000Z</time>
      </trkpt>
      <trkpt lat="46.04057" lon="4.54929">
        <ele>723</ele>
        <time>2016-11-27T11:05:47.000Z</time>
      </trkpt>
      <trkpt lat="46.04057" lon="4.54929">
        <ele>723</ele>
        <time>2016-11-27T11:05:48.000Z</time>
      </trkpt>
      <trkpt lat="46.04057" lon="4.54928">
        <ele>723</ele>
        <time>2016-11-27T11:05:49.000Z</time>
      </trkpt>
      <trkpt lat="46.04057" lon="4.54928">
        <ele>723</ele>
        <time>2016-11-27T11:05:50.000Z</time>
      </trkpt>
      <trkpt lat="46.04057" lon="4.54928">
        <ele>723</ele>
        <time>2016-11-27T11:05:51.000Z</time>
      </trkpt>
      <trkpt lat="46.04057" lon="4.54928">
        <ele>723</ele>
        <time>2016-11-27T11:05:52.000Z</time>
      </trkpt>
      <trkpt lat="46.04057" lon="4.54928">
        <ele>724</ele>
        <time>2016-11-27T11:05:53.000Z</time>
      </trkpt>
      <trkpt lat="46.04056" lon="4.54928">
        <ele>723</ele>
        <time>2016-11-27T11:05:54.000Z</time>
      </trkpt>
      <trkpt lat="46.04056" lon="4.54928">
        <ele>724</ele>
        <time>2016-11-27T11:05:55.000Z</time>
      </trkpt>
      <trkpt lat="46.04056" lon="4.54927">
        <ele>724</ele>
        <time>2016-11-27T11:05:56.000Z</time>
      </trkpt>
      <trkpt lat="46.04056" lon="4.54927">
        <ele>724</ele>
        <time>2016-11-27T11:05:57.000Z</time>
      </trkpt>
      <trkpt lat="46.04056" lon="4.54927">
        <ele>724</ele>
        <time>2016-11-27T11:05:58.000Z</time>
      </trkpt>
      <trkpt lat="46.04056" lon="4.54927">
        <ele>723</ele>
        <time>2016-11-27T11:05:59.000Z</time>
      </trkpt>
      <trkpt lat="46.04056" lon="4.54928">
        <ele>723</ele>
        <time>2016-11-27T11:06:00.000Z</time>
      </trkpt>
      <trkpt lat="46.04056" lon="4.54928">
        <ele>723</ele>
        <time>2016-11-27T11:06:01.000Z</time>
      </trkpt>
      <trkpt lat="46.04056" lon="4.54928">
        <ele>723</ele>
        <time>2016-11-27T11:06:02.000Z</time>
      </trkpt>
      <trkpt lat="46.04056" lon="4.54928">
        <ele>723</ele>
        <time>2016-11-27T11:06:03.000Z</time>
      </trkpt>
      <trkpt lat="46.04056" lon="4.54928">
        <ele>723</ele>
        <time>2016-11-27T11:06:04.000Z</time>
      </trkpt>
      <trkpt lat="46.04056" lon="4.54928">
        <ele>724</ele>
        <time>2016-11-27T11:06:05.000Z</time>
      </trkpt>
      <trkpt lat="46.04056" lon="4.54928">
        <ele>724</ele>
        <time>2016-11-27T11:06:06.000Z</time>
      </trkpt>
      <trkpt lat="46.04056" lon="4.54928">
        <ele>724</ele>
        <time>2016-11-27T11:06:07.000Z</time>
      </trkpt>
      <trkpt lat="46.04056" lon="4.54928">
        <ele>724</ele>
        <time>2016-11-27T11:06:08.000Z</time>
      </trkpt>
      <trkpt lat="46.04056" lon="4.54928">
        <ele>724</ele>
        <time>2016-11-27T11:06:09.000Z</time>
      </trkpt>
      <trkpt lat="46.04056" lon="4.54928">
        <ele>724</ele>
        <time>2016-11-27T11:06:10.000Z</time>
      </trkpt>
      <trkpt lat="46.04056" lon="4.54928">
        <ele>724</ele>
        <time>2016-11-27T11:06:11.000Z</time>
      </trkpt>
      <trkpt lat="46.04056" lon="4.54927">
        <ele>724</ele>
        <time>2016-11-27T11:06:12.000Z</time>
      </trkpt>
      <trkpt lat="46.04056" lon="4.54927">
        <ele>724</ele>
        <time>2016-11-27T11:06:13.000Z</time>
      </trkpt>
      <trkpt lat="46.04057" lon="4.54927">
        <ele>724</ele>
        <time>2016-11-27T11:06:14.000Z</time>
      </trkpt>
      <trkpt lat="46.04057" lon="4.54927">
        <ele>724</ele>
        <time>2016-11-27T11:06:15.000Z</time>
      </trkpt>
      <trkpt lat="46.04057" lon="4.54927">
        <ele>724</ele>
        <time>2016-11-27T11:06:16.000Z</time>
      </trkpt>
      <trkpt lat="46.04057" lon="4.54927">
        <ele>724</ele>
        <time>2016-11-27T11:06:17.000Z</time>
      </trkpt>
      <trkpt lat="46.04057" lon="4.54927">
        <ele>723</ele>
        <time>2016-11-27T11:06:18.000Z</time>
      </trkpt>
      <trkpt lat="46.04057" lon="4.54927">
        <ele>723</ele>
        <time>2016-11-27T11:06:19.000Z</time>
      </trkpt>
      <trkpt lat="46.04056" lon="4.54927">
        <ele>723</ele>
        <time>2016-11-27T11:06:20.000Z</time>
      </trkpt>
      <trkpt lat="46.04056" lon="4.54927">
        <ele>723</ele>
        <time>2016-11-27T11:06:21.000Z</time>
      </trkpt>
      <trkpt lat="46.04056" lon="4.54927">
        <ele>723</ele>
        <time>2016-11-27T11:06:22.000Z</time>
      </trkpt>
      <trkpt lat="46.04056" lon="4.54927">
        <ele>723</ele>
        <time>2016-11-27T11:06:23.000Z</time>
      </trkpt>
      <trkpt lat="46.04056" lon="4.54927">
        <ele>724</ele>
        <time>2016-11-27T11:06:24.000Z</time>
      </trkpt>
      <trkpt lat="46.04056" lon="4.54927">
        <ele>723</ele>
        <time>2016-11-27T11:06:25.000Z</time>
      </trkpt>
      <trkpt lat="46.04057" lon="4.54928">
        <ele>722</ele>
        <time>2016-11-27T11:06:26.000Z</time>
      </trkpt>
      <trkpt lat="46.04058" lon="4.54929">
        <ele>722</ele>
        <time>2016-11-27T11:06:27.000Z</time>
      </trkpt>
      <trkpt lat="46.04058" lon="4.54929">
        <ele>722</ele>
        <time>2016-11-27T11:06:28.000Z</time>
      </trkpt>
      <trkpt lat="46.04059" lon="4.54929">
        <ele>721</ele>
        <time>2016-11-27T11:06:29.000Z</time>
      </trkpt>
      <trkpt lat="46.0406" lon="4.5493">
        <ele>721</ele>
        <time>2016-11-27T11:06:30.000Z</time>
      </trkpt>
      <trkpt lat="46.0406" lon="4.5493">
        <ele>720</ele>
        <time>2016-11-27T11:06:31.000Z</time>
      </trkpt>
      <trkpt lat="46.04061" lon="4.5493">
        <ele>720</ele>
        <time>2016-11-27T11:06:32.000Z</time>
      </trkpt>
      <trkpt lat="46.04061" lon="4.5493">
        <ele>720</ele>
        <time>2016-11-27T11:06:33.000Z</time>
      </trkpt>
      <trkpt lat="46.04062" lon="4.5493">
        <ele>720</ele>
        <time>2016-11-27T11:06:34.000Z</time>
      </trkpt>
      <trkpt lat="46.04062" lon="4.54931">
        <ele>720</ele>
        <time>2016-11-27T11:06:35.000Z</time>
      </trkpt>
      <trkpt lat="46.04063" lon="4.54931">
        <ele>721</ele>
        <time>2016-11-27T11:06:36.000Z</time>
      </trkpt>
      <trkpt lat="46.04063" lon="4.54931">
        <ele>720</ele>
        <time>2016-11-27T11:06:37.000Z</time>
      </trkpt>
      <trkpt lat="46.04064" lon="4.54933">
        <ele>719</ele>
        <time>2016-11-27T11:06:38.000Z</time>
      </trkpt>
      <trkpt lat="46.04065" lon="4.54934">
        <ele>718</ele>
        <time>2016-11-27T11:06:39.000Z</time>
      </trkpt>
      <trkpt lat="46.04066" lon="4.54935">
        <ele>716</ele>
        <time>2016-11-27T11:06:40.000Z</time>
      </trkpt>
      <trkpt lat="46.04067" lon="4.54936">
        <ele>716</ele>
        <time>2016-11-27T11:06:41.000Z</time>
      </trkpt>
      <trkpt lat="46.04067" lon="4.54937">
        <ele>716</ele>
        <time>2016-11-27T11:06:42.000Z</time>
      </trkpt>
      <trkpt lat="46.04068" lon="4.54938">
        <ele>715</ele>
        <time>2016-11-27T11:06:43.000Z</time>
      </trkpt>
      <trkpt lat="46.04069" lon="4.54939">
        <ele>715</ele>
        <time>2016-11-27T11:06:44.000Z</time>
      </trkpt>
      <trkpt lat="46.04071" lon="4.5494">
        <ele>714</ele>
        <time>2016-11-27T11:06:45.000Z</time>
      </trkpt>
      <trkpt lat="46.04072" lon="4.54941">
        <ele>714</ele>
        <time>2016-11-27T11:06:46.000Z</time>
      </trkpt>
      <trkpt lat="46.04073" lon="4.54943">
        <ele>713</ele>
        <time>2016-11-27T11:06:47.000Z</time>
      </trkpt>
      <trkpt lat="46.04073" lon="4.54945">
        <ele>712</ele>
        <time>2016-11-27T11:06:48.000Z</time>
      </trkpt>
      <trkpt lat="46.04074" lon="4.54946">
        <ele>711</ele>
        <time>2016-11-27T11:06:49.000Z</time>
      </trkpt>
      <trkpt lat="46.04074" lon="4.54948">
        <ele>712</ele>
        <time>2016-11-27T11:06:50.000Z</time>
      </trkpt>
      <trkpt lat="46.04075" lon="4.54949">
        <ele>711</ele>
        <time>2016-11-27T11:06:51.000Z</time>
      </trkpt>
      <trkpt lat="46.04076" lon="4.5495">
        <ele>710</ele>
        <time>2016-11-27T11:06:52.000Z</time>
      </trkpt>
      <trkpt lat="46.04077" lon="4.5495">
        <ele>711</ele>
        <time>2016-11-27T11:06:53.000Z</time>
      </trkpt>
      <trkpt lat="46.04077" lon="4.54951">
        <ele>711</ele>
        <time>2016-11-27T11:06:54.000Z</time>
      </trkpt>
      <trkpt lat="46.04078" lon="4.54951">
        <ele>710</ele>
        <time>2016-11-27T11:06:55.000Z</time>
      </trkpt>
      <trkpt lat="46.04079" lon="4.54951">
        <ele>710</ele>
        <time>2016-11-27T11:06:56.000Z</time>
      </trkpt>
      <trkpt lat="46.04079" lon="4.54951">
        <ele>709</ele>
        <time>2016-11-27T11:06:57.000Z</time>
      </trkpt>
      <trkpt lat="46.0408" lon="4.54951">
        <ele>709</ele>
        <time>2016-11-27T11:06:58.000Z</time>
      </trkpt>
      <trkpt lat="46.0408" lon="4.54952">
        <ele>708</ele>
        <time>2016-11-27T11:06:59.000Z</time>
      </trkpt>
      <trkpt lat="46.04081" lon="4.54953">
        <ele>708</ele>
        <time>2016-11-27T11:07:00.000Z</time>
      </trkpt>
      <trkpt lat="46.04082" lon="4.54954">
        <ele>707</ele>
        <time>2016-11-27T11:07:01.000Z</time>
      </trkpt>
      <trkpt lat="46.04083" lon="4.54955">
        <ele>707</ele>
        <time>2016-11-27T11:07:02.000Z</time>
      </trkpt>
      <trkpt lat="46.04083" lon="4.54955">
        <ele>706</ele>
        <time>2016-11-27T11:07:03.000Z</time>
      </trkpt>
      <trkpt lat="46.04083" lon="4.54956">
        <ele>705</ele>
        <time>2016-11-27T11:07:04.000Z</time>
      </trkpt>
      <trkpt lat="46.04084" lon="4.54957">
        <ele>704</ele>
        <time>2016-11-27T11:07:05.000Z</time>
      </trkpt>
      <trkpt lat="46.04084" lon="4.54958">
        <ele>705</ele>
        <time>2016-11-27T11:07:06.000Z</time>
      </trkpt>
      <trkpt lat="46.04085" lon="4.54959">
        <ele>705</ele>
        <time>2016-11-27T11:07:07.000Z</time>
      </trkpt>
      <trkpt lat="46.04085" lon="4.54959">
        <ele>705</ele>
        <time>2016-11-27T11:07:08.000Z</time>
      </trkpt>
      <trkpt lat="46.04086" lon="4.5496">
        <ele>705</ele>
        <time>2016-11-27T11:07:09.000Z</time>
      </trkpt>
      <trkpt lat="46.04087" lon="4.5496">
        <ele>705</ele>
        <time>2016-11-27T11:07:10.000Z</time>
      </trkpt>
      <trkpt lat="46.04088" lon="4.5496">
        <ele>706</ele>
        <time>2016-11-27T11:07:11.000Z</time>
      </trkpt>
      <trkpt lat="46.04089" lon="4.54961">
        <ele>707</ele>
        <time>2016-11-27T11:07:12.000Z</time>
      </trkpt>
      <trkpt lat="46.0409" lon="4.54961">
        <ele>707</ele>
        <time>2016-11-27T11:07:13.000Z</time>
      </trkpt>
      <trkpt lat="46.04091" lon="4.54961">
        <ele>707</ele>
        <time>2016-11-27T11:07:14.000Z</time>
      </trkpt>
      <trkpt lat="46.04092" lon="4.54961">
        <ele>707</ele>
        <time>2016-11-27T11:07:15.000Z</time>
      </trkpt>
      <trkpt lat="46.04092" lon="4.54961">
        <ele>708</ele>
        <time>2016-11-27T11:07:16.000Z</time>
      </trkpt>
      <trkpt lat="46.04093" lon="4.54962">
        <ele>708</ele>
        <time>2016-11-27T11:07:17.000Z</time>
      </trkpt>
      <trkpt lat="46.04094" lon="4.54962">
        <ele>708</ele>
        <time>2016-11-27T11:07:18.000Z</time>
      </trkpt>
      <trkpt lat="46.04094" lon="4.54963">
        <ele>707</ele>
        <time>2016-11-27T11:07:19.000Z</time>
      </trkpt>
      <trkpt lat="46.04095" lon="4.54964">
        <ele>706</ele>
        <time>2016-11-27T11:07:20.000Z</time>
      </trkpt>
      <trkpt lat="46.04096" lon="4.54965">
        <ele>705</ele>
        <time>2016-11-27T11:07:21.000Z</time>
      </trkpt>
      <trkpt lat="46.04097" lon="4.54966">
        <ele>705</ele>
        <time>2016-11-27T11:07:22.000Z</time>
      </trkpt>
      <trkpt lat="46.04098" lon="4.54966">
        <ele>705</ele>
        <time>2016-11-27T11:07:23.000Z</time>
      </trkpt>
      <trkpt lat="46.04098" lon="4.54967">
        <ele>704</ele>
        <time>2016-11-27T11:07:24.000Z</time>
      </trkpt>
      <trkpt lat="46.04099" lon="4.54968">
        <ele>704</ele>
        <time>2016-11-27T11:07:25.000Z</time>
      </trkpt>
      <trkpt lat="46.04101" lon="4.54969">
        <ele>704</ele>
        <time>2016-11-27T11:07:26.000Z</time>
      </trkpt>
      <trkpt lat="46.04102" lon="4.5497">
        <ele>703</ele>
        <time>2016-11-27T11:07:27.000Z</time>
      </trkpt>
      <trkpt lat="46.04103" lon="4.5497">
        <ele>703</ele>
        <time>2016-11-27T11:07:28.000Z</time>
      </trkpt>
      <trkpt lat="46.04104" lon="4.5497">
        <ele>703</ele>
        <time>2016-11-27T11:07:29.000Z</time>
      </trkpt>
      <trkpt lat="46.04105" lon="4.5497">
        <ele>703</ele>
        <time>2016-11-27T11:07:30.000Z</time>
      </trkpt>
      <trkpt lat="46.04106" lon="4.54971">
        <ele>702</ele>
        <time>2016-11-27T11:07:31.000Z</time>
      </trkpt>
      <trkpt lat="46.04106" lon="4.54971">
        <ele>702</ele>
        <time>2016-11-27T11:07:32.000Z</time>
      </trkpt>
      <trkpt lat="46.04108" lon="4.54971">
        <ele>703</ele>
        <time>2016-11-27T11:07:33.000Z</time>
      </trkpt>
      <trkpt lat="46.04109" lon="4.54972">
        <ele>702</ele>
        <time>2016-11-27T11:07:34.000Z</time>
      </trkpt>
      <trkpt lat="46.0411" lon="4.54972">
        <ele>703</ele>
        <time>2016-11-27T11:07:35.000Z</time>
      </trkpt>
      <trkpt lat="46.04112" lon="4.54972">
        <ele>704</ele>
        <time>2016-11-27T11:07:36.000Z</time>
      </trkpt>
      <trkpt lat="46.04113" lon="4.54972">
        <ele>705</ele>
        <time>2016-11-27T11:07:37.000Z</time>
      </trkpt>
      <trkpt lat="46.04115" lon="4.54972">
        <ele>706</ele>
        <time>2016-11-27T11:07:38.000Z</time>
      </trkpt>
      <trkpt lat="46.04116" lon="4.54973">
        <ele>706</ele>
        <time>2016-11-27T11:07:39.000Z</time>
      </trkpt>
      <trkpt lat="46.04117" lon="4.54973">
        <ele>707</ele>
        <time>2016-11-27T11:07:40.000Z</time>
      </trkpt>
      <trkpt lat="46.04118" lon="4.54973">
        <ele>707</ele>
        <time>2016-11-27T11:07:41.000Z</time>
      </trkpt>
      <trkpt lat="46.0412" lon="4.54973">
        <ele>707</ele>
        <time>2016-11-27T11:07:42.000Z</time>
      </trkpt>
      <trkpt lat="46.04121" lon="4.54973">
        <ele>707</ele>
        <time>2016-11-27T11:07:43.000Z</time>
      </trkpt>
      <trkpt lat="46.04122" lon="4.54973">
        <ele>707</ele>
        <time>2016-11-27T11:07:44.000Z</time>
      </trkpt>
      <trkpt lat="46.04123" lon="4.54973">
        <ele>707</ele>
        <time>2016-11-27T11:07:45.000Z</time>
      </trkpt>
      <trkpt lat="46.04124" lon="4.54973">
        <ele>708</ele>
        <time>2016-11-27T11:07:46.000Z</time>
      </trkpt>
      <trkpt lat="46.04125" lon="4.54973">
        <ele>708</ele>
        <time>2016-11-27T11:07:47.000Z</time>
      </trkpt>
      <trkpt lat="46.04127" lon="4.54973">
        <ele>707</ele>
        <time>2016-11-27T11:07:48.000Z</time>
      </trkpt>
      <trkpt lat="46.04128" lon="4.54974">
        <ele>707</ele>
        <time>2016-11-27T11:07:49.000Z</time>
      </trkpt>
      <trkpt lat="46.04129" lon="4.54974">
        <ele>707</ele>
        <time>2016-11-27T11:07:50.000Z</time>
      </trkpt>
      <trkpt lat="46.04129" lon="4.54975">
        <ele>708</ele>
        <time>2016-11-27T11:07:51.000Z</time>
      </trkpt>
      <trkpt lat="46.0413" lon="4.54975">
        <ele>708</ele>
        <time>2016-11-27T11:07:52.000Z</time>
      </trkpt>
      <trkpt lat="46.04131" lon="4.54975">
        <ele>707</ele>
        <time>2016-11-27T11:07:53.000Z</time>
      </trkpt>
      <trkpt lat="46.04131" lon="4.54976">
        <ele>706</ele>
        <time>2016-11-27T11:07:54.000Z</time>
      </trkpt>
      <trkpt lat="46.04132" lon="4.54976">
        <ele>706</ele>
        <time>2016-11-27T11:07:55.000Z</time>
      </trkpt>
      <trkpt lat="46.04133" lon="4.54975">
        <ele>706</ele>
        <time>2016-11-27T11:07:56.000Z</time>
      </trkpt>
      <trkpt lat="46.04134" lon="4.54975">
        <ele>707</ele>
        <time>2016-11-27T11:07:57.000Z</time>
      </trkpt>
      <trkpt lat="46.04134" lon="4.54975">
        <ele>707</ele>
        <time>2016-11-27T11:07:58.000Z</time>
      </trkpt>
      <trkpt lat="46.04135" lon="4.54975">
        <ele>707</ele>
        <time>2016-11-27T11:07:59.000Z</time>
      </trkpt>
      <trkpt lat="46.04137" lon="4.54975">
        <ele>707</ele>
        <time>2016-11-27T11:08:00.000Z</time>
      </trkpt>
      <trkpt lat="46.04138" lon="4.54975">
        <ele>707</ele>
        <time>2016-11-27T11:08:01.000Z</time>
      </trkpt>
      <trkpt lat="46.04139" lon="4.54976">
        <ele>707</ele>
        <time>2016-11-27T11:08:02.000Z</time>
      </trkpt>
      <trkpt lat="46.0414" lon="4.54976">
        <ele>707</ele>
        <time>2016-11-27T11:08:03.000Z</time>
      </trkpt>
      <trkpt lat="46.04141" lon="4.54977">
        <ele>708</ele>
        <time>2016-11-27T11:08:04.000Z</time>
      </trkpt>
      <trkpt lat="46.04142" lon="4.54978">
        <ele>707</ele>
        <time>2016-11-27T11:08:05.000Z</time>
      </trkpt>
      <trkpt lat="46.04143" lon="4.54978">
        <ele>707</ele>
        <time>2016-11-27T11:08:06.000Z</time>
      </trkpt>
      <trkpt lat="46.04144" lon="4.54979">
        <ele>707</ele>
        <time>2016-11-27T11:08:07.000Z</time>
      </trkpt>
      <trkpt lat="46.04145" lon="4.54979">
        <ele>707</ele>
        <time>2016-11-27T11:08:08.000Z</time>
      </trkpt>
      <trkpt lat="46.04146" lon="4.54979">
        <ele>708</ele>
        <time>2016-11-27T11:08:09.000Z</time>
      </trkpt>
      <trkpt lat="46.04147" lon="4.54979">
        <ele>708</ele>
        <time>2016-11-27T11:08:10.000Z</time>
      </trkpt>
      <trkpt lat="46.04148" lon="4.54979">
        <ele>707</ele>
        <time>2016-11-27T11:08:11.000Z</time>
      </trkpt>
      <trkpt lat="46.04148" lon="4.54979">
        <ele>707</ele>
        <time>2016-11-27T11:08:12.000Z</time>
      </trkpt>
      <trkpt lat="46.04149" lon="4.54979">
        <ele>707</ele>
        <time>2016-11-27T11:08:13.000Z</time>
      </trkpt>
      <trkpt lat="46.0415" lon="4.54979">
        <ele>706</ele>
        <time>2016-11-27T11:08:14.000Z</time>
      </trkpt>
      <trkpt lat="46.04151" lon="4.54979">
        <ele>706</ele>
        <time>2016-11-27T11:08:15.000Z</time>
      </trkpt>
      <trkpt lat="46.04153" lon="4.5498">
        <ele>705</ele>
        <time>2016-11-27T11:08:16.000Z</time>
      </trkpt>
      <trkpt lat="46.04154" lon="4.54981">
        <ele>703</ele>
        <time>2016-11-27T11:08:17.000Z</time>
      </trkpt>
      <trkpt lat="46.04156" lon="4.54982">
        <ele>703</ele>
        <time>2016-11-27T11:08:18.000Z</time>
      </trkpt>
      <trkpt lat="46.04157" lon="4.54983">
        <ele>703</ele>
        <time>2016-11-27T11:08:19.000Z</time>
      </trkpt>
      <trkpt lat="46.04158" lon="4.54983">
        <ele>703</ele>
        <time>2016-11-27T11:08:20.000Z</time>
      </trkpt>
      <trkpt lat="46.04159" lon="4.54984">
        <ele>704</ele>
        <time>2016-11-27T11:08:21.000Z</time>
      </trkpt>
      <trkpt lat="46.0416" lon="4.54984">
        <ele>704</ele>
        <time>2016-11-27T11:08:22.000Z</time>
      </trkpt>
      <trkpt lat="46.04162" lon="4.54984">
        <ele>704</ele>
        <time>2016-11-27T11:08:23.000Z</time>
      </trkpt>
      <trkpt lat="46.04162" lon="4.54985">
        <ele>703</ele>
        <time>2016-11-27T11:08:24.000Z</time>
      </trkpt>
      <trkpt lat="46.04163" lon="4.54985">
        <ele>704</ele>
        <time>2016-11-27T11:08:25.000Z</time>
      </trkpt>
      <trkpt lat="46.04164" lon="4.54986">
        <ele>703</ele>
        <time>2016-11-27T11:08:26.000Z</time>
      </trkpt>
      <trkpt lat="46.04166" lon="4.54986">
        <ele>703</ele>
        <time>2016-11-27T11:08:27.000Z</time>
      </trkpt>
      <trkpt lat="46.04167" lon="4.54986">
        <ele>701</ele>
        <time>2016-11-27T11:08:28.000Z</time>
      </trkpt>
      <trkpt lat="46.04168" lon="4.54986">
        <ele>702</ele>
        <time>2016-11-27T11:08:29.000Z</time>
      </trkpt>
      <trkpt lat="46.04168" lon="4.54986">
        <ele>700</ele>
        <time>2016-11-27T11:08:30.000Z</time>
      </trkpt>
      <trkpt lat="46.04169" lon="4.54986">
        <ele>700</ele>
        <time>2016-11-27T11:08:31.000Z</time>
      </trkpt>
      <trkpt lat="46.04171" lon="4.54986">
        <ele>701</ele>
        <time>2016-11-27T11:08:32.000Z</time>
      </trkpt>
      <trkpt lat="46.04172" lon="4.54987">
        <ele>701</ele>
        <time>2016-11-27T11:08:33.000Z</time>
      </trkpt>
      <trkpt lat="46.04174" lon="4.54987">
        <ele>702</ele>
        <time>2016-11-27T11:08:34.000Z</time>
      </trkpt>
      <trkpt lat="46.04175" lon="4.54987">
        <ele>701</ele>
        <time>2016-11-27T11:08:35.000Z</time>
      </trkpt>
      <trkpt lat="46.04177" lon="4.54988">
        <ele>701</ele>
        <time>2016-11-27T11:08:36.000Z</time>
      </trkpt>
      <trkpt lat="46.04179" lon="4.54988">
        <ele>700</ele>
        <time>2016-11-27T11:08:37.000Z</time>
      </trkpt>
      <trkpt lat="46.0418" lon="4.54989">
        <ele>700</ele>
        <time>2016-11-27T11:08:38.000Z</time>
      </trkpt>
      <trkpt lat="46.04182" lon="4.54989">
        <ele>700</ele>
        <time>2016-11-27T11:08:39.000Z</time>
      </trkpt>
      <trkpt lat="46.04184" lon="4.54989">
        <ele>700</ele>
        <time>2016-11-27T11:08:40.000Z</time>
      </trkpt>
      <trkpt lat="46.04185" lon="4.54989">
        <ele>701</ele>
        <time>2016-11-27T11:08:41.000Z</time>
      </trkpt>
      <trkpt lat="46.04187" lon="4.54988">
        <ele>701</ele>
        <time>2016-11-27T11:08:42.000Z</time>
      </trkpt>
      <trkpt lat="46.04188" lon="4.54988">
        <ele>700</ele>
        <time>2016-11-27T11:08:43.000Z</time>
      </trkpt>
      <trkpt lat="46.04189" lon="4.54988">
        <ele>700</ele>
        <time>2016-11-27T11:08:44.000Z</time>
      </trkpt>
      <trkpt lat="46.0419" lon="4.54987">
        <ele>700</ele>
        <time>2016-11-27T11:08:45.000Z</time>
      </trkpt>
      <trkpt lat="46.04191" lon="4.54986">
        <ele>700</ele>
        <time>2016-11-27T11:08:46.000Z</time>
      </trkpt>
      <trkpt lat="46.04191" lon="4.54985">
        <ele>701</ele>
        <time>2016-11-27T11:08:47.000Z</time>
      </trkpt>
      <trkpt lat="46.04192" lon="4.54984">
        <ele>701</ele>
        <time>2016-11-27T11:08:48.000Z</time>
      </trkpt>
      <trkpt lat="46.04192" lon="4.54984">
        <ele>701</ele>
        <time>2016-11-27T11:08:49.000Z</time>
      </trkpt>
      <trkpt lat="46.04193" lon="4.54983">
        <ele>701</ele>
        <time>2016-11-27T11:08:50.000Z</time>
      </trkpt>
      <trkpt lat="46.04194" lon="4.54983">
        <ele>701</ele>
        <time>2016-11-27T11:08:51.000Z</time>
      </trkpt>
      <trkpt lat="46.04194" lon="4.54982">
        <ele>701</ele>
        <time>2016-11-27T11:08:52.000Z</time>
      </trkpt>
      <trkpt lat="46.04195" lon="4.54982">
        <ele>701</ele>
        <time>2016-11-27T11:08:53.000Z</time>
      </trkpt>
      <trkpt lat="46.04195" lon="4.54981">
        <ele>700</ele>
        <time>2016-11-27T11:08:54.000Z</time>
      </trkpt>
      <trkpt lat="46.04196" lon="4.54981">
        <ele>700</ele>
        <time>2016-11-27T11:08:55.000Z</time>
      </trkpt>
      <trkpt lat="46.04197" lon="4.5498">
        <ele>700</ele>
        <time>2016-11-27T11:08:56.000Z</time>
      </trkpt>
      <trkpt lat="46.04198" lon="4.54978">
        <ele>701</ele>
        <time>2016-11-27T11:08:57.000Z</time>
      </trkpt>
      <trkpt lat="46.04199" lon="4.54977">
        <ele>700</ele>
        <time>2016-11-27T11:08:58.000Z</time>
      </trkpt>
      <trkpt lat="46.042" lon="4.54977">
        <ele>699</ele>
        <time>2016-11-27T11:08:59.000Z</time>
      </trkpt>
      <trkpt lat="46.04201" lon="4.54977">
        <ele>697</ele>
        <time>2016-11-27T11:09:00.000Z</time>
      </trkpt>
      <trkpt lat="46.04203" lon="4.54978">
        <ele>695</ele>
        <time>2016-11-27T11:09:01.000Z</time>
      </trkpt>
      <trkpt lat="46.04204" lon="4.5498">
        <ele>695</ele>
        <time>2016-11-27T11:09:02.000Z</time>
      </trkpt>
      <trkpt lat="46.04206" lon="4.54982">
        <ele>693</ele>
        <time>2016-11-27T11:09:03.000Z</time>
      </trkpt>
      <trkpt lat="46.04207" lon="4.54984">
        <ele>692</ele>
        <time>2016-11-27T11:09:04.000Z</time>
      </trkpt>
      <trkpt lat="46.04208" lon="4.54986">
        <ele>692</ele>
        <time>2016-11-27T11:09:05.000Z</time>
      </trkpt>
      <trkpt lat="46.04209" lon="4.54988">
        <ele>691</ele>
        <time>2016-11-27T11:09:06.000Z</time>
      </trkpt>
      <trkpt lat="46.04209" lon="4.5499">
        <ele>690</ele>
        <time>2016-11-27T11:09:07.000Z</time>
      </trkpt>
      <trkpt lat="46.0421" lon="4.54991">
        <ele>689</ele>
        <time>2016-11-27T11:09:08.000Z</time>
      </trkpt>
      <trkpt lat="46.0421" lon="4.54993">
        <ele>687</ele>
        <time>2016-11-27T11:09:09.000Z</time>
      </trkpt>
      <trkpt lat="46.0421" lon="4.54995">
        <ele>686</ele>
        <time>2016-11-27T11:09:10.000Z</time>
      </trkpt>
      <trkpt lat="46.04211" lon="4.54996">
        <ele>686</ele>
        <time>2016-11-27T11:09:11.000Z</time>
      </trkpt>
      <trkpt lat="46.04211" lon="4.54998">
        <ele>685</ele>
        <time>2016-11-27T11:09:12.000Z</time>
      </trkpt>
      <trkpt lat="46.04212" lon="4.54999">
        <ele>684</ele>
        <time>2016-11-27T11:09:13.000Z</time>
      </trkpt>
      <trkpt lat="46.04212" lon="4.55001">
        <ele>683</ele>
        <time>2016-11-27T11:09:14.000Z</time>
      </trkpt>
      <trkpt lat="46.04213" lon="4.55002">
        <ele>682</ele>
        <time>2016-11-27T11:09:15.000Z</time>
      </trkpt>
      <trkpt lat="46.04214" lon="4.55004">
        <ele>681</ele>
        <time>2016-11-27T11:09:16.000Z</time>
      </trkpt>
      <trkpt lat="46.04214" lon="4.55006">
        <ele>681</ele>
        <time>2016-11-27T11:09:17.000Z</time>
      </trkpt>
      <trkpt lat="46.04215" lon="4.55007">
        <ele>680</ele>
        <time>2016-11-27T11:09:18.000Z</time>
      </trkpt>
      <trkpt lat="46.04216" lon="4.55009">
        <ele>678</ele>
        <time>2016-11-27T11:09:19.000Z</time>
      </trkpt>
      <trkpt lat="46.04216" lon="4.55011">
        <ele>678</ele>
        <time>2016-11-27T11:09:20.000Z</time>
      </trkpt>
      <trkpt lat="46.04217" lon="4.55012">
        <ele>677</ele>
        <time>2016-11-27T11:09:21.000Z</time>
      </trkpt>
      <trkpt lat="46.04218" lon="4.55014">
        <ele>677</ele>
        <time>2016-11-27T11:09:22.000Z</time>
      </trkpt>
      <trkpt lat="46.04218" lon="4.55015">
        <ele>677</ele>
        <time>2016-11-27T11:09:23.000Z</time>
      </trkpt>
      <trkpt lat="46.04219" lon="4.55016">
        <ele>677</ele>
        <time>2016-11-27T11:09:24.000Z</time>
      </trkpt>
      <trkpt lat="46.04219" lon="4.55017">
        <ele>677</ele>
        <time>2016-11-27T11:09:25.000Z</time>
      </trkpt>
      <trkpt lat="46.0422" lon="4.55018">
        <ele>677</ele>
        <time>2016-11-27T11:09:26.000Z</time>
      </trkpt>
      <trkpt lat="46.0422" lon="4.55019">
        <ele>677</ele>
        <time>2016-11-27T11:09:27.000Z</time>
      </trkpt>
      <trkpt lat="46.04221" lon="4.5502">
        <ele>676</ele>
        <time>2016-11-27T11:09:28.000Z</time>
      </trkpt>
      <trkpt lat="46.04221" lon="4.55021">
        <ele>676</ele>
        <time>2016-11-27T11:09:29.000Z</time>
      </trkpt>
      <trkpt lat="46.04221" lon="4.55022">
        <ele>676</ele>
        <time>2016-11-27T11:09:30.000Z</time>
      </trkpt>
      <trkpt lat="46.04222" lon="4.55023">
        <ele>677</ele>
        <time>2016-11-27T11:09:31.000Z</time>
      </trkpt>
      <trkpt lat="46.04222" lon="4.55024">
        <ele>677</ele>
        <time>2016-11-27T11:09:32.000Z</time>
      </trkpt>
      <trkpt lat="46.04222" lon="4.55026">
        <ele>676</ele>
        <time>2016-11-27T11:09:33.000Z</time>
      </trkpt>
      <trkpt lat="46.04222" lon="4.55028">
        <ele>676</ele>
        <time>2016-11-27T11:09:34.000Z</time>
      </trkpt>
      <trkpt lat="46.04221" lon="4.5503">
        <ele>674</ele>
        <time>2016-11-27T11:09:35.000Z</time>
      </trkpt>
      <trkpt lat="46.04221" lon="4.55032">
        <ele>674</ele>
        <time>2016-11-27T11:09:36.000Z</time>
      </trkpt>
      <trkpt lat="46.04222" lon="4.55033">
        <ele>674</ele>
        <time>2016-11-27T11:09:37.000Z</time>
      </trkpt>
      <trkpt lat="46.04222" lon="4.55035">
        <ele>673</ele>
        <time>2016-11-27T11:09:38.000Z</time>
      </trkpt>
      <trkpt lat="46.04222" lon="4.55037">
        <ele>673</ele>
        <time>2016-11-27T11:09:39.000Z</time>
      </trkpt>
      <trkpt lat="46.04222" lon="4.55039">
        <ele>673</ele>
        <time>2016-11-27T11:09:40.000Z</time>
      </trkpt>
      <trkpt lat="46.04222" lon="4.55041">
        <ele>673</ele>
        <time>2016-11-27T11:09:41.000Z</time>
      </trkpt>
      <trkpt lat="46.04222" lon="4.55043">
        <ele>673</ele>
        <time>2016-11-27T11:09:42.000Z</time>
      </trkpt>
      <trkpt lat="46.04223" lon="4.55045">
        <ele>673</ele>
        <time>2016-11-27T11:09:43.000Z</time>
      </trkpt>
      <trkpt lat="46.04223" lon="4.55046">
        <ele>673</ele>
        <time>2016-11-27T11:09:44.000Z</time>
      </trkpt>
      <trkpt lat="46.04223" lon="4.55047">
        <ele>673</ele>
        <time>2016-11-27T11:09:45.000Z</time>
      </trkpt>
      <trkpt lat="46.04224" lon="4.55047">
        <ele>673</ele>
        <time>2016-11-27T11:09:46.000Z</time>
      </trkpt>
      <trkpt lat="46.04225" lon="4.55048">
        <ele>673</ele>
        <time>2016-11-27T11:09:47.000Z</time>
      </trkpt>
      <trkpt lat="46.04226" lon="4.55048">
        <ele>673</ele>
        <time>2016-11-27T11:09:48.000Z</time>
      </trkpt>
      <trkpt lat="46.04227" lon="4.55049">
        <ele>672</ele>
        <time>2016-11-27T11:09:49.000Z</time>
      </trkpt>
      <trkpt lat="46.04228" lon="4.55051">
        <ele>671</ele>
        <time>2016-11-27T11:09:50.000Z</time>
      </trkpt>
      <trkpt lat="46.04229" lon="4.55052">
        <ele>670</ele>
        <time>2016-11-27T11:09:51.000Z</time>
      </trkpt>
      <trkpt lat="46.04231" lon="4.55053">
        <ele>669</ele>
        <time>2016-11-27T11:09:52.000Z</time>
      </trkpt>
      <trkpt lat="46.04232" lon="4.55054">
        <ele>667</ele>
        <time>2016-11-27T11:09:53.000Z</time>
      </trkpt>
      <trkpt lat="46.04233" lon="4.55055">
        <ele>666</ele>
        <time>2016-11-27T11:09:54.000Z</time>
      </trkpt>
      <trkpt lat="46.04234" lon="4.55056">
        <ele>665</ele>
        <time>2016-11-27T11:09:55.000Z</time>
      </trkpt>
      <trkpt lat="46.04236" lon="4.55056">
        <ele>664</ele>
        <time>2016-11-27T11:09:56.000Z</time>
      </trkpt>
      <trkpt lat="46.04237" lon="4.55055">
        <ele>664</ele>
        <time>2016-11-27T11:09:57.000Z</time>
      </trkpt>
      <trkpt lat="46.04239" lon="4.55055">
        <ele>664</ele>
        <time>2016-11-27T11:09:58.000Z</time>
      </trkpt>
      <trkpt lat="46.0424" lon="4.55055">
        <ele>664</ele>
        <time>2016-11-27T11:09:59.000Z</time>
      </trkpt>
      <trkpt lat="46.04241" lon="4.55055">
        <ele>664</ele>
        <time>2016-11-27T11:10:00.000Z</time>
      </trkpt>
      <trkpt lat="46.04242" lon="4.55055">
        <ele>665</ele>
        <time>2016-11-27T11:10:01.000Z</time>
      </trkpt>
      <trkpt lat="46.04242" lon="4.55055">
        <ele>665</ele>
        <time>2016-11-27T11:10:02.000Z</time>
      </trkpt>
      <trkpt lat="46.04242" lon="4.55054">
        <ele>664</ele>
        <time>2016-11-27T11:10:03.000Z</time>
      </trkpt>
      <trkpt lat="46.04243" lon="4.55054">
        <ele>664</ele>
        <time>2016-11-27T11:10:04.000Z</time>
      </trkpt>
      <trkpt lat="46.04244" lon="4.55054">
        <ele>664</ele>
        <time>2016-11-27T11:10:05.000Z</time>
      </trkpt>
      <trkpt lat="46.04245" lon="4.55054">
        <ele>664</ele>
        <time>2016-11-27T11:10:06.000Z</time>
      </trkpt>
      <trkpt lat="46.04246" lon="4.55053">
        <ele>664</ele>
        <time>2016-11-27T11:10:07.000Z</time>
      </trkpt>
      <trkpt lat="46.04246" lon="4.55053">
        <ele>664</ele>
        <time>2016-11-27T11:10:08.000Z</time>
      </trkpt>
      <trkpt lat="46.04246" lon="4.55053">
        <ele>664</ele>
        <time>2016-11-27T11:10:09.000Z</time>
      </trkpt>
      <trkpt lat="46.04247" lon="4.55053">
        <ele>664</ele>
        <time>2016-11-27T11:10:10.000Z</time>
      </trkpt>
      <trkpt lat="46.04247" lon="4.55053">
        <ele>664</ele>
        <time>2016-11-27T11:10:11.000Z</time>
      </trkpt>
      <trkpt lat="46.04247" lon="4.55053">
        <ele>664</ele>
        <time>2016-11-27T11:10:12.000Z</time>
      </trkpt>
      <trkpt lat="46.04247" lon="4.55053">
        <ele>664</ele>
        <time>2016-11-27T11:10:13.000Z</time>
      </trkpt>
      <trkpt lat="46.04247" lon="4.55052">
        <ele>664</ele>
        <time>2016-11-27T11:10:14.000Z</time>
      </trkpt>
      <trkpt lat="46.04247" lon="4.55052">
        <ele>664</ele>
        <time>2016-11-27T11:10:15.000Z</time>
      </trkpt>
      <trkpt lat="46.04247" lon="4.55052">
        <ele>663</ele>
        <time>2016-11-27T11:10:16.000Z</time>
      </trkpt>
      <trkpt lat="46.04247" lon="4.55053">
        <ele>664</ele>
        <time>2016-11-27T11:10:17.000Z</time>
      </trkpt>
      <trkpt lat="46.04247" lon="4.55053">
        <ele>664</ele>
        <time>2016-11-27T11:10:18.000Z</time>
      </trkpt>
      <trkpt lat="46.04247" lon="4.55054">
        <ele>664</ele>
        <time>2016-11-27T11:10:19.000Z</time>
      </trkpt>
      <trkpt lat="46.04247" lon="4.55055">
        <ele>665</ele>
        <time>2016-11-27T11:10:20.000Z</time>
      </trkpt>
      <trkpt lat="46.04247" lon="4.55056">
        <ele>665</ele>
        <time>2016-11-27T11:10:21.000Z</time>
      </trkpt>
      <trkpt lat="46.04247" lon="4.55057">
        <ele>665</ele>
        <time>2016-11-27T11:10:22.000Z</time>
      </trkpt>
      <trkpt lat="46.04246" lon="4.55058">
        <ele>664</ele>
        <time>2016-11-27T11:10:23.000Z</time>
      </trkpt>
      <trkpt lat="46.04246" lon="4.55059">
        <ele>665</ele>
        <time>2016-11-27T11:10:24.000Z</time>
      </trkpt>
      <trkpt lat="46.04245" lon="4.55061">
        <ele>665</ele>
        <time>2016-11-27T11:10:25.000Z</time>
      </trkpt>
      <trkpt lat="46.04244" lon="4.55062">
        <ele>664</ele>
        <time>2016-11-27T11:10:26.000Z</time>
      </trkpt>
      <trkpt lat="46.04243" lon="4.55062">
        <ele>664</ele>
        <time>2016-11-27T11:10:27.000Z</time>
      </trkpt>
      <trkpt lat="46.04242" lon="4.55063">
        <ele>664</ele>
        <time>2016-11-27T11:10:28.000Z</time>
      </trkpt>
      <trkpt lat="46.04242" lon="4.55063">
        <ele>664</ele>
        <time>2016-11-27T11:10:29.000Z</time>
      </trkpt>
      <trkpt lat="46.04241" lon="4.55064">
        <ele>664</ele>
        <time>2016-11-27T11:10:30.000Z</time>
      </trkpt>
      <trkpt lat="46.0424" lon="4.55064">
        <ele>663</ele>
        <time>2016-11-27T11:10:31.000Z</time>
      </trkpt>
      <trkpt lat="46.04239" lon="4.55064">
        <ele>664</ele>
        <time>2016-11-27T11:10:32.000Z</time>
      </trkpt>
      <trkpt lat="46.04239" lon="4.55064">
        <ele>664</ele>
        <time>2016-11-27T11:10:33.000Z</time>
      </trkpt>
      <trkpt lat="46.04238" lon="4.55064">
        <ele>664</ele>
        <time>2016-11-27T11:10:34.000Z</time>
      </trkpt>
      <trkpt lat="46.04237" lon="4.55065">
        <ele>664</ele>
        <time>2016-11-27T11:10:35.000Z</time>
      </trkpt>
      <trkpt lat="46.04237" lon="4.55065">
        <ele>664</ele>
        <time>2016-11-27T11:10:36.000Z</time>
      </trkpt>
      <trkpt lat="46.04236" lon="4.55065">
        <ele>664</ele>
        <time>2016-11-27T11:10:37.000Z</time>
      </trkpt>
      <trkpt lat="46.04235" lon="4.55065">
        <ele>665</ele>
        <time>2016-11-27T11:10:38.000Z</time>
      </trkpt>
      <trkpt lat="46.04234" lon="4.55065">
        <ele>665</ele>
        <time>2016-11-27T11:10:39.000Z</time>
      </trkpt>
      <trkpt lat="46.04234" lon="4.55064">
        <ele>665</ele>
        <time>2016-11-27T11:10:40.000Z</time>
      </trkpt>
      <trkpt lat="46.04234" lon="4.55064">
        <ele>665</ele>
        <time>2016-11-27T11:10:41.000Z</time>
      </trkpt>
      <trkpt lat="46.04234" lon="4.55063">
        <ele>665</ele>
        <time>2016-11-27T11:10:42.000Z</time>
      </trkpt>
      <trkpt lat="46.04233" lon="4.55062">
        <ele>665</ele>
        <time>2016-11-27T11:10:43.000Z</time>
      </trkpt>
      <trkpt lat="46.04233" lon="4.55061">
        <ele>665</ele>
        <time>2016-11-27T11:10:44.000Z</time>
      </trkpt>
      <trkpt lat="46.04232" lon="4.5506">
        <ele>665</ele>
        <time>2016-11-27T11:10:45.000Z</time>
      </trkpt>
      <trkpt lat="46.04231" lon="4.55059">
        <ele>664</ele>
        <time>2016-11-27T11:10:46.000Z</time>
      </trkpt>
      <trkpt lat="46.0423" lon="4.55059">
        <ele>664</ele>
        <time>2016-11-27T11:10:47.000Z</time>
      </trkpt>
      <trkpt lat="46.04229" lon="4.55058">
        <ele>665</ele>
        <time>2016-11-27T11:10:48.000Z</time>
      </trkpt>
      <trkpt lat="46.04229" lon="4.55058">
        <ele>665</ele>
        <time>2016-11-27T11:10:49.000Z</time>
      </trkpt>
      <trkpt lat="46.04228" lon="4.55057">
        <ele>666</ele>
        <time>2016-11-27T11:10:50.000Z</time>
      </trkpt>
      <trkpt lat="46.04228" lon="4.55057">
        <ele>666</ele>
        <time>2016-11-27T11:10:51.000Z</time>
      </trkpt>
      <trkpt lat="46.04227" lon="4.55057">
        <ele>667</ele>
        <time>2016-11-27T11:10:52.000Z</time>
      </trkpt>
      <trkpt lat="46.04225" lon="4.55057">
        <ele>667</ele>
        <time>2016-11-27T11:10:53.000Z</time>
      </trkpt>
      <trkpt lat="46.04224" lon="4.55057">
        <ele>668</ele>
        <time>2016-11-27T11:10:54.000Z</time>
      </trkpt>
      <trkpt lat="46.04224" lon="4.55057">
        <ele>669</ele>
        <time>2016-11-27T11:10:55.000Z</time>
      </trkpt>
      <trkpt lat="46.04223" lon="4.55057">
        <ele>670</ele>
        <time>2016-11-27T11:10:56.000Z</time>
      </trkpt>
      <trkpt lat="46.04223" lon="4.55056">
        <ele>670</ele>
        <time>2016-11-27T11:10:57.000Z</time>
      </trkpt>
      <trkpt lat="46.04222" lon="4.55055">
        <ele>669</ele>
        <time>2016-11-27T11:10:58.000Z</time>
      </trkpt>
      <trkpt lat="46.04222" lon="4.55054">
        <ele>670</ele>
        <time>2016-11-27T11:10:59.000Z</time>
      </trkpt>
      <trkpt lat="46.04222" lon="4.55053">
        <ele>669</ele>
        <time>2016-11-27T11:11:00.000Z</time>
      </trkpt>
      <trkpt lat="46.04222" lon="4.55051">
        <ele>670</ele>
        <time>2016-11-27T11:11:01.000Z</time>
      </trkpt>
      <trkpt lat="46.04222" lon="4.5505">
        <ele>671</ele>
        <time>2016-11-27T11:11:02.000Z</time>
      </trkpt>
      <trkpt lat="46.04222" lon="4.5505">
        <ele>671</ele>
        <time>2016-11-27T11:11:03.000Z</time>
      </trkpt>
      <trkpt lat="46.04222" lon="4.55049">
        <ele>672</ele>
        <time>2016-11-27T11:11:04.000Z</time>
      </trkpt>
      <trkpt lat="46.04221" lon="4.55049">
        <ele>672</ele>
        <time>2016-11-27T11:11:05.000Z</time>
      </trkpt>
      <trkpt lat="46.04221" lon="4.55049">
        <ele>672</ele>
        <time>2016-11-27T11:11:06.000Z</time>
      </trkpt>
      <trkpt lat="46.04221" lon="4.55047">
        <ele>671</ele>
        <time>2016-11-27T11:11:07.000Z</time>
      </trkpt>
      <trkpt lat="46.04221" lon="4.55046">
        <ele>672</ele>
        <time>2016-11-27T11:11:08.000Z</time>
      </trkpt>
      <trkpt lat="46.04221" lon="4.55045">
        <ele>672</ele>
        <time>2016-11-27T11:11:09.000Z</time>
      </trkpt>
      <trkpt lat="46.04221" lon="4.55044">
        <ele>673</ele>
        <time>2016-11-27T11:11:10.000Z</time>
      </trkpt>
      <trkpt lat="46.04221" lon="4.55043">
        <ele>673</ele>
        <time>2016-11-27T11:11:11.000Z</time>
      </trkpt>
      <trkpt lat="46.04221" lon="4.55042">
        <ele>674</ele>
        <time>2016-11-27T11:11:12.000Z</time>
      </trkpt>
      <trkpt lat="46.04221" lon="4.55042">
        <ele>674</ele>
        <time>2016-11-27T11:11:13.000Z</time>
      </trkpt>
      <trkpt lat="46.04221" lon="4.55041">
        <ele>674</ele>
        <time>2016-11-27T11:11:14.000Z</time>
      </trkpt>
      <trkpt lat="46.04221" lon="4.5504">
        <ele>675</ele>
        <time>2016-11-27T11:11:15.000Z</time>
      </trkpt>
      <trkpt lat="46.04221" lon="4.5504">
        <ele>676</ele>
        <time>2016-11-27T11:11:16.000Z</time>
      </trkpt>
      <trkpt lat="46.04221" lon="4.55039">
        <ele>676</ele>
        <time>2016-11-27T11:11:17.000Z</time>
      </trkpt>
      <trkpt lat="46.04221" lon="4.55039">
        <ele>677</ele>
        <time>2016-11-27T11:11:18.000Z</time>
      </trkpt>
      <trkpt lat="46.04221" lon="4.55038">
        <ele>677</ele>
        <time>2016-11-27T11:11:19.000Z</time>
      </trkpt>
      <trkpt lat="46.04221" lon="4.55038">
        <ele>677</ele>
        <time>2016-11-27T11:11:20.000Z</time>
      </trkpt>
      <trkpt lat="46.04221" lon="4.55037">
        <ele>678</ele>
        <time>2016-11-27T11:11:21.000Z</time>
      </trkpt>
      <trkpt lat="46.04221" lon="4.55036">
        <ele>679</ele>
        <time>2016-11-27T11:11:22.000Z</time>
      </trkpt>
      <trkpt lat="46.04221" lon="4.55036">
        <ele>679</ele>
        <time>2016-11-27T11:11:23.000Z</time>
      </trkpt>
      <trkpt lat="46.04221" lon="4.55035">
        <ele>680</ele>
        <time>2016-11-27T11:11:24.000Z</time>
      </trkpt>
      <trkpt lat="46.04221" lon="4.55034">
        <ele>680</ele>
        <time>2016-11-27T11:11:25.000Z</time>
      </trkpt>
      <trkpt lat="46.0422" lon="4.55033">
        <ele>681</ele>
        <time>2016-11-27T11:11:26.000Z</time>
      </trkpt>
      <trkpt lat="46.0422" lon="4.55032">
        <ele>682</ele>
        <time>2016-11-27T11:11:27.000Z</time>
      </trkpt>
      <trkpt lat="46.0422" lon="4.55031">
        <ele>682</ele>
        <time>2016-11-27T11:11:28.000Z</time>
      </trkpt>
      <trkpt lat="46.04219" lon="4.5503">
        <ele>682</ele>
        <time>2016-11-27T11:11:29.000Z</time>
      </trkpt>
      <trkpt lat="46.04219" lon="4.55029">
        <ele>682</ele>
        <time>2016-11-27T11:11:30.000Z</time>
      </trkpt>
      <trkpt lat="46.04219" lon="4.55028">
        <ele>682</ele>
        <time>2016-11-27T11:11:31.000Z</time>
      </trkpt>
      <trkpt lat="46.04218" lon="4.55027">
        <ele>683</ele>
        <time>2016-11-27T11:11:32.000Z</time>
      </trkpt>
      <trkpt lat="46.04218" lon="4.55027">
        <ele>683</ele>
        <time>2016-11-27T11:11:33.000Z</time>
      </trkpt>
      <trkpt lat="46.04218" lon="4.55026">
        <ele>684</ele>
        <time>2016-11-27T11:11:34.000Z</time>
      </trkpt>
      <trkpt lat="46.04218" lon="4.55026">
        <ele>684</ele>
        <time>2016-11-27T11:11:35.000Z</time>
      </trkpt>
      <trkpt lat="46.04217" lon="4.55025">
        <ele>684</ele>
        <time>2016-11-27T11:11:36.000Z</time>
      </trkpt>
      <trkpt lat="46.04217" lon="4.55024">
        <ele>685</ele>
        <time>2016-11-27T11:11:37.000Z</time>
      </trkpt>
      <trkpt lat="46.04217" lon="4.55024">
        <ele>685</ele>
        <time>2016-11-27T11:11:38.000Z</time>
      </trkpt>
      <trkpt lat="46.04217" lon="4.55023">
        <ele>685</ele>
        <time>2016-11-27T11:11:39.000Z</time>
      </trkpt>
      <trkpt lat="46.04217" lon="4.55021">
        <ele>686</ele>
        <time>2016-11-27T11:11:40.000Z</time>
      </trkpt>
      <trkpt lat="46.04216" lon="4.5502">
        <ele>685</ele>
        <time>2016-11-27T11:11:41.000Z</time>
      </trkpt>
      <trkpt lat="46.04216" lon="4.5502">
        <ele>686</ele>
        <time>2016-11-27T11:11:42.000Z</time>
      </trkpt>
      <trkpt lat="46.04216" lon="4.55019">
        <ele>686</ele>
        <time>2016-11-27T11:11:43.000Z</time>
      </trkpt>
      <trkpt lat="46.04216" lon="4.55018">
        <ele>686</ele>
        <time>2016-11-27T11:11:44.000Z</time>
      </trkpt>
      <trkpt lat="46.04216" lon="4.55017">
        <ele>686</ele>
        <time>2016-11-27T11:11:45.000Z</time>
      </trkpt>
      <trkpt lat="46.04215" lon="4.55016">
        <ele>686</ele>
        <time>2016-11-27T11:11:46.000Z</time>
      </trkpt>
      <trkpt lat="46.04215" lon="4.55016">
        <ele>686</ele>
        <time>2016-11-27T11:11:47.000Z</time>
      </trkpt>
      <trkpt lat="46.04214" lon="4.55015">
        <ele>685</ele>
        <time>2016-11-27T11:11:48.000Z</time>
      </trkpt>
      <trkpt lat="46.04214" lon="4.55013">
        <ele>685</ele>
        <time>2016-11-27T11:11:49.000Z</time>
      </trkpt>
      <trkpt lat="46.04214" lon="4.55012">
        <ele>686</ele>
        <time>2016-11-27T11:11:50.000Z</time>
      </trkpt>
      <trkpt lat="46.04213" lon="4.55011">
        <ele>686</ele>
        <time>2016-11-27T11:11:51.000Z</time>
      </trkpt>
      <trkpt lat="46.04213" lon="4.55011">
        <ele>686</ele>
        <time>2016-11-27T11:11:52.000Z</time>
      </trkpt>
      <trkpt lat="46.04212" lon="4.5501">
        <ele>686</ele>
        <time>2016-11-27T11:11:53.000Z</time>
      </trkpt>
      <trkpt lat="46.04212" lon="4.55008">
        <ele>686</ele>
        <time>2016-11-27T11:11:54.000Z</time>
      </trkpt>
      <trkpt lat="46.04212" lon="4.55007">
        <ele>687</ele>
        <time>2016-11-27T11:11:55.000Z</time>
      </trkpt>
      <trkpt lat="46.04212" lon="4.55006">
        <ele>687</ele>
        <time>2016-11-27T11:11:56.000Z</time>
      </trkpt>
      <trkpt lat="46.04212" lon="4.55005">
        <ele>687</ele>
        <time>2016-11-27T11:11:57.000Z</time>
      </trkpt>
      <trkpt lat="46.04212" lon="4.55004">
        <ele>688</ele>
        <time>2016-11-27T11:11:58.000Z</time>
      </trkpt>
      <trkpt lat="46.04212" lon="4.55003">
        <ele>688</ele>
        <time>2016-11-27T11:11:59.000Z</time>
      </trkpt>
      <trkpt lat="46.04212" lon="4.55003">
        <ele>688</ele>
        <time>2016-11-27T11:12:00.000Z</time>
      </trkpt>
      <trkpt lat="46.04212" lon="4.55001">
        <ele>688</ele>
        <time>2016-11-27T11:12:01.000Z</time>
      </trkpt>
      <trkpt lat="46.04212" lon="4.55">
        <ele>689</ele>
        <time>2016-11-27T11:12:02.000Z</time>
      </trkpt>
      <trkpt lat="46.04212" lon="4.54998">
        <ele>688</ele>
        <time>2016-11-27T11:12:03.000Z</time>
      </trkpt>
      <trkpt lat="46.04212" lon="4.54997">
        <ele>688</ele>
        <time>2016-11-27T11:12:04.000Z</time>
      </trkpt>
      <trkpt lat="46.04212" lon="4.54997">
        <ele>688</ele>
        <time>2016-11-27T11:12:05.000Z</time>
      </trkpt>
      <trkpt lat="46.04212" lon="4.54996">
        <ele>689</ele>
        <time>2016-11-27T11:12:06.000Z</time>
      </trkpt>
      <trkpt lat="46.04212" lon="4.54995">
        <ele>690</ele>
        <time>2016-11-27T11:12:07.000Z</time>
      </trkpt>
      <trkpt lat="46.04212" lon="4.54994">
        <ele>690</ele>
        <time>2016-11-27T11:12:08.000Z</time>
      </trkpt>
      <trkpt lat="46.04212" lon="4.54994">
        <ele>690</ele>
        <time>2016-11-27T11:12:09.000Z</time>
      </trkpt>
      <trkpt lat="46.04212" lon="4.54993">
        <ele>691</ele>
        <time>2016-11-27T11:12:10.000Z</time>
      </trkpt>
      <trkpt lat="46.04212" lon="4.54992">
        <ele>692</ele>
        <time>2016-11-27T11:12:11.000Z</time>
      </trkpt>
      <trkpt lat="46.04211" lon="4.54991">
        <ele>693</ele>
        <time>2016-11-27T11:12:12.000Z</time>
      </trkpt>
      <trkpt lat="46.04211" lon="4.5499">
        <ele>693</ele>
        <time>2016-11-27T11:12:13.000Z</time>
      </trkpt>
      <trkpt lat="46.04211" lon="4.54989">
        <ele>694</ele>
        <time>2016-11-27T11:12:14.000Z</time>
      </trkpt>
      <trkpt lat="46.0421" lon="4.54988">
        <ele>694</ele>
        <time>2016-11-27T11:12:15.000Z</time>
      </trkpt>
      <trkpt lat="46.0421" lon="4.54987">
        <ele>694</ele>
        <time>2016-11-27T11:12:16.000Z</time>
      </trkpt>
      <trkpt lat="46.0421" lon="4.54987">
        <ele>694</ele>
        <time>2016-11-27T11:12:17.000Z</time>
      </trkpt>
      <trkpt lat="46.04209" lon="4.54986">
        <ele>694</ele>
        <time>2016-11-27T11:12:18.000Z</time>
      </trkpt>
      <trkpt lat="46.04209" lon="4.54985">
        <ele>694</ele>
        <time>2016-11-27T11:12:19.000Z</time>
      </trkpt>
      <trkpt lat="46.04208" lon="4.54984">
        <ele>694</ele>
        <time>2016-11-27T11:12:20.000Z</time>
      </trkpt>
      <trkpt lat="46.04208" lon="4.54983">
        <ele>694</ele>
        <time>2016-11-27T11:12:21.000Z</time>
      </trkpt>
      <trkpt lat="46.04208" lon="4.54982">
        <ele>695</ele>
        <time>2016-11-27T11:12:22.000Z</time>
      </trkpt>
      <trkpt lat="46.04208" lon="4.5498">
        <ele>695</ele>
        <time>2016-11-27T11:12:23.000Z</time>
      </trkpt>
      <trkpt lat="46.04208" lon="4.54979">
        <ele>696</ele>
        <time>2016-11-27T11:12:24.000Z</time>
      </trkpt>
      <trkpt lat="46.04207" lon="4.54978">
        <ele>696</ele>
        <time>2016-11-27T11:12:25.000Z</time>
      </trkpt>
      <trkpt lat="46.04207" lon="4.54977">
        <ele>696</ele>
        <time>2016-11-27T11:12:26.000Z</time>
      </trkpt>
      <trkpt lat="46.04207" lon="4.54976">
        <ele>696</ele>
        <time>2016-11-27T11:12:27.000Z</time>
      </trkpt>
      <trkpt lat="46.04206" lon="4.54976">
        <ele>697</ele>
        <time>2016-11-27T11:12:28.000Z</time>
      </trkpt>
      <trkpt lat="46.04206" lon="4.54975">
        <ele>697</ele>
        <time>2016-11-27T11:12:29.000Z</time>
      </trkpt>
      <trkpt lat="46.04206" lon="4.54974">
        <ele>697</ele>
        <time>2016-11-27T11:12:30.000Z</time>
      </trkpt>
      <trkpt lat="46.04205" lon="4.54973">
        <ele>697</ele>
        <time>2016-11-27T11:12:31.000Z</time>
      </trkpt>
      <trkpt lat="46.04205" lon="4.54972">
        <ele>697</ele>
        <time>2016-11-27T11:12:32.000Z</time>
      </trkpt>
      <trkpt lat="46.04205" lon="4.54971">
        <ele>697</ele>
        <time>2016-11-27T11:12:33.000Z</time>
      </trkpt>
      <trkpt lat="46.04204" lon="4.5497">
        <ele>698</ele>
        <time>2016-11-27T11:12:34.000Z</time>
      </trkpt>
      <trkpt lat="46.04204" lon="4.54969">
        <ele>698</ele>
        <time>2016-11-27T11:12:35.000Z</time>
      </trkpt>
      <trkpt lat="46.04204" lon="4.54968">
        <ele>699</ele>
        <time>2016-11-27T11:12:36.000Z</time>
      </trkpt>
      <trkpt lat="46.04204" lon="4.54967">
        <ele>699</ele>
        <time>2016-11-27T11:12:37.000Z</time>
      </trkpt>
      <trkpt lat="46.04203" lon="4.54966">
        <ele>699</ele>
        <time>2016-11-27T11:12:38.000Z</time>
      </trkpt>
      <trkpt lat="46.04203" lon="4.54966">
        <ele>700</ele>
        <time>2016-11-27T11:12:39.000Z</time>
      </trkpt>
      <trkpt lat="46.04203" lon="4.54965">
        <ele>700</ele>
        <time>2016-11-27T11:12:40.000Z</time>
      </trkpt>
      <trkpt lat="46.04203" lon="4.54964">
        <ele>699</ele>
        <time>2016-11-27T11:12:41.000Z</time>
      </trkpt>
      <trkpt lat="46.04203" lon="4.54963">
        <ele>699</ele>
        <time>2016-11-27T11:12:42.000Z</time>
      </trkpt>
      <trkpt lat="46.04203" lon="4.54961">
        <ele>699</ele>
        <time>2016-11-27T11:12:43.000Z</time>
      </trkpt>
      <trkpt lat="46.04202" lon="4.5496">
        <ele>700</ele>
        <time>2016-11-27T11:12:44.000Z</time>
      </trkpt>
      <trkpt lat="46.04202" lon="4.54959">
        <ele>700</ele>
        <time>2016-11-27T11:12:45.000Z</time>
      </trkpt>
      <trkpt lat="46.04202" lon="4.54957">
        <ele>700</ele>
        <time>2016-11-27T11:12:46.000Z</time>
      </trkpt>
      <trkpt lat="46.04202" lon="4.54955">
        <ele>702</ele>
        <time>2016-11-27T11:12:47.000Z</time>
      </trkpt>
      <trkpt lat="46.04202" lon="4.54954">
        <ele>702</ele>
        <time>2016-11-27T11:12:48.000Z</time>
      </trkpt>
      <trkpt lat="46.04202" lon="4.54952">
        <ele>703</ele>
        <time>2016-11-27T11:12:49.000Z</time>
      </trkpt>
      <trkpt lat="46.04201" lon="4.54951">
        <ele>703</ele>
        <time>2016-11-27T11:12:50.000Z</time>
      </trkpt>
      <trkpt lat="46.04201" lon="4.54951">
        <ele>703</ele>
        <time>2016-11-27T11:12:51.000Z</time>
      </trkpt>
      <trkpt lat="46.04201" lon="4.5495">
        <ele>704</ele>
        <time>2016-11-27T11:12:52.000Z</time>
      </trkpt>
      <trkpt lat="46.04201" lon="4.54949">
        <ele>704</ele>
        <time>2016-11-27T11:12:53.000Z</time>
      </trkpt>
      <trkpt lat="46.042" lon="4.54948">
        <ele>704</ele>
        <time>2016-11-27T11:12:54.000Z</time>
      </trkpt>
      <trkpt lat="46.042" lon="4.54947">
        <ele>704</ele>
        <time>2016-11-27T11:12:55.000Z</time>
      </trkpt>
      <trkpt lat="46.042" lon="4.54946">
        <ele>704</ele>
        <time>2016-11-27T11:12:56.000Z</time>
      </trkpt>
      <trkpt lat="46.04199" lon="4.54944">
        <ele>704</ele>
        <time>2016-11-27T11:12:57.000Z</time>
      </trkpt>
      <trkpt lat="46.04199" lon="4.54943">
        <ele>704</ele>
        <time>2016-11-27T11:12:58.000Z</time>
      </trkpt>
      <trkpt lat="46.04199" lon="4.54942">
        <ele>705</ele>
        <time>2016-11-27T11:12:59.000Z</time>
      </trkpt>
      <trkpt lat="46.04198" lon="4.54941">
        <ele>705</ele>
        <time>2016-11-27T11:13:00.000Z</time>
      </trkpt>
      <trkpt lat="46.04198" lon="4.5494">
        <ele>705</ele>
        <time>2016-11-27T11:13:01.000Z</time>
      </trkpt>
      <trkpt lat="46.04197" lon="4.54939">
        <ele>705</ele>
        <time>2016-11-27T11:13:02.000Z</time>
      </trkpt>
      <trkpt lat="46.04197" lon="4.54938">
        <ele>705</ele>
        <time>2016-11-27T11:13:03.000Z</time>
      </trkpt>
      <trkpt lat="46.04196" lon="4.54937">
        <ele>704</ele>
        <time>2016-11-27T11:13:04.000Z</time>
      </trkpt>
      <trkpt lat="46.04196" lon="4.54936">
        <ele>705</ele>
        <time>2016-11-27T11:13:05.000Z</time>
      </trkpt>
      <trkpt lat="46.04195" lon="4.54935">
        <ele>705</ele>
        <time>2016-11-27T11:13:06.000Z</time>
      </trkpt>
      <trkpt lat="46.04195" lon="4.54934">
        <ele>705</ele>
        <time>2016-11-27T11:13:07.000Z</time>
      </trkpt>
      <trkpt lat="46.04194" lon="4.54933">
        <ele>704</ele>
        <time>2016-11-27T11:13:08.000Z</time>
      </trkpt>
      <trkpt lat="46.04194" lon="4.54932">
        <ele>704</ele>
        <time>2016-11-27T11:13:09.000Z</time>
      </trkpt>
      <trkpt lat="46.04194" lon="4.54931">
        <ele>704</ele>
        <time>2016-11-27T11:13:10.000Z</time>
      </trkpt>
      <trkpt lat="46.04193" lon="4.54931">
        <ele>704</ele>
        <time>2016-11-27T11:13:11.000Z</time>
      </trkpt>
      <trkpt lat="46.04193" lon="4.5493">
        <ele>704</ele>
        <time>2016-11-27T11:13:12.000Z</time>
      </trkpt>
      <trkpt lat="46.04192" lon="4.54929">
        <ele>704</ele>
        <time>2016-11-27T11:13:13.000Z</time>
      </trkpt>
      <trkpt lat="46.04192" lon="4.54928">
        <ele>704</ele>
        <time>2016-11-27T11:13:14.000Z</time>
      </trkpt>
      <trkpt lat="46.04191" lon="4.54927">
        <ele>705</ele>
        <time>2016-11-27T11:13:15.000Z</time>
      </trkpt>
      <trkpt lat="46.0419" lon="4.54926">
        <ele>706</ele>
        <time>2016-11-27T11:13:16.000Z</time>
      </trkpt>
      <trkpt lat="46.0419" lon="4.54925">
        <ele>706</ele>
        <time>2016-11-27T11:13:17.000Z</time>
      </trkpt>
      <trkpt lat="46.04189" lon="4.54924">
        <ele>707</ele>
        <time>2016-11-27T11:13:18.000Z</time>
      </trkpt>
      <trkpt lat="46.0419" lon="4.54923">
        <ele>709</ele>
        <time>2016-11-27T11:13:19.000Z</time>
      </trkpt>
      <trkpt lat="46.04189" lon="4.54922">
        <ele>709</ele>
        <time>2016-11-27T11:13:20.000Z</time>
      </trkpt>
      <trkpt lat="46.0419" lon="4.5492">
        <ele>709</ele>
        <time>2016-11-27T11:13:21.000Z</time>
      </trkpt>
      <trkpt lat="46.0419" lon="4.54918">
        <ele>708</ele>
        <time>2016-11-27T11:13:22.000Z</time>
      </trkpt>
      <trkpt lat="46.0419" lon="4.54916">
        <ele>707</ele>
        <time>2016-11-27T11:13:23.000Z</time>
      </trkpt>
      <trkpt lat="46.0419" lon="4.54914">
        <ele>707</ele>
        <time>2016-11-27T11:13:24.000Z</time>
      </trkpt>
      <trkpt lat="46.0419" lon="4.54912">
        <ele>707</ele>
        <time>2016-11-27T11:13:25.000Z</time>
      </trkpt>
      <trkpt lat="46.0419" lon="4.5491">
        <ele>707</ele>
        <time>2016-11-27T11:13:26.000Z</time>
      </trkpt>
      <trkpt lat="46.04189" lon="4.54909">
        <ele>707</ele>
        <time>2016-11-27T11:13:27.000Z</time>
      </trkpt>
      <trkpt lat="46.04189" lon="4.54909">
        <ele>707</ele>
        <time>2016-11-27T11:13:28.000Z</time>
      </trkpt>
      <trkpt lat="46.04188" lon="4.54908">
        <ele>707</ele>
        <time>2016-11-27T11:13:29.000Z</time>
      </trkpt>
      <trkpt lat="46.04188" lon="4.54907">
        <ele>707</ele>
        <time>2016-11-27T11:13:30.000Z</time>
      </trkpt>
      <trkpt lat="46.04187" lon="4.54905">
        <ele>707</ele>
        <time>2016-11-27T11:13:31.000Z</time>
      </trkpt>
      <trkpt lat="46.04187" lon="4.54905">
        <ele>706</ele>
        <time>2016-11-27T11:13:32.000Z</time>
      </trkpt>
      <trkpt lat="46.04186" lon="4.54903">
        <ele>707</ele>
        <time>2016-11-27T11:13:33.000Z</time>
      </trkpt>
      <trkpt lat="46.04186" lon="4.54902">
        <ele>708</ele>
        <time>2016-11-27T11:13:34.000Z</time>
      </trkpt>
      <trkpt lat="46.04186" lon="4.54901">
        <ele>707</ele>
        <time>2016-11-27T11:13:35.000Z</time>
      </trkpt>
      <trkpt lat="46.04185" lon="4.549">
        <ele>707</ele>
        <time>2016-11-27T11:13:36.000Z</time>
      </trkpt>
      <trkpt lat="46.04185" lon="4.54899">
        <ele>708</ele>
        <time>2016-11-27T11:13:37.000Z</time>
      </trkpt>
      <trkpt lat="46.04185" lon="4.54897">
        <ele>708</ele>
        <time>2016-11-27T11:13:38.000Z</time>
      </trkpt>
      <trkpt lat="46.04184" lon="4.54896">
        <ele>708</ele>
        <time>2016-11-27T11:13:39.000Z</time>
      </trkpt>
      <trkpt lat="46.04184" lon="4.54895">
        <ele>709</ele>
        <time>2016-11-27T11:13:40.000Z</time>
      </trkpt>
      <trkpt lat="46.04184" lon="4.54893">
        <ele>709</ele>
        <time>2016-11-27T11:13:41.000Z</time>
      </trkpt>
      <trkpt lat="46.04183" lon="4.54892">
        <ele>710</ele>
        <time>2016-11-27T11:13:42.000Z</time>
      </trkpt>
      <trkpt lat="46.04183" lon="4.54891">
        <ele>710</ele>
        <time>2016-11-27T11:13:43.000Z</time>
      </trkpt>
      <trkpt lat="46.04182" lon="4.54889">
        <ele>709</ele>
        <time>2016-11-27T11:13:44.000Z</time>
      </trkpt>
      <trkpt lat="46.04182" lon="4.54887">
        <ele>709</ele>
        <time>2016-11-27T11:13:45.000Z</time>
      </trkpt>
      <trkpt lat="46.04182" lon="4.54885">
        <ele>710</ele>
        <time>2016-11-27T11:13:46.000Z</time>
      </trkpt>
      <trkpt lat="46.04181" lon="4.54884">
        <ele>710</ele>
        <time>2016-11-27T11:13:47.000Z</time>
      </trkpt>
      <trkpt lat="46.04181" lon="4.54882">
        <ele>710</ele>
        <time>2016-11-27T11:13:48.000Z</time>
      </trkpt>
      <trkpt lat="46.04181" lon="4.54881">
        <ele>711</ele>
        <time>2016-11-27T11:13:49.000Z</time>
      </trkpt>
      <trkpt lat="46.0418" lon="4.54879">
        <ele>712</ele>
        <time>2016-11-27T11:13:50.000Z</time>
      </trkpt>
      <trkpt lat="46.0418" lon="4.54878">
        <ele>713</ele>
        <time>2016-11-27T11:13:51.000Z</time>
      </trkpt>
      <trkpt lat="46.0418" lon="4.54876">
        <ele>713</ele>
        <time>2016-11-27T11:13:52.000Z</time>
      </trkpt>
      <trkpt lat="46.0418" lon="4.54875">
        <ele>714</ele>
        <time>2016-11-27T11:13:53.000Z</time>
      </trkpt>
      <trkpt lat="46.0418" lon="4.54874">
        <ele>715</ele>
        <time>2016-11-27T11:13:54.000Z</time>
      </trkpt>
      <trkpt lat="46.0418" lon="4.54872">
        <ele>715</ele>
        <time>2016-11-27T11:13:55.000Z</time>
      </trkpt>
      <trkpt lat="46.04179" lon="4.54871">
        <ele>713</ele>
        <time>2016-11-27T11:13:56.000Z</time>
      </trkpt>
      <trkpt lat="46.04179" lon="4.5487">
        <ele>713</ele>
        <time>2016-11-27T11:13:57.000Z</time>
      </trkpt>
      <trkpt lat="46.04179" lon="4.54869">
        <ele>714</ele>
        <time>2016-11-27T11:13:58.000Z</time>
      </trkpt>
      <trkpt lat="46.04178" lon="4.54868">
        <ele>714</ele>
        <time>2016-11-27T11:13:59.000Z</time>
      </trkpt>
      <trkpt lat="46.04178" lon="4.54866">
        <ele>715</ele>
        <time>2016-11-27T11:14:00.000Z</time>
      </trkpt>
      <trkpt lat="46.04178" lon="4.54865">
        <ele>715</ele>
        <time>2016-11-27T11:14:01.000Z</time>
      </trkpt>
      <trkpt lat="46.04177" lon="4.54863">
        <ele>716</ele>
        <time>2016-11-27T11:14:02.000Z</time>
      </trkpt>
      <trkpt lat="46.04177" lon="4.54862">
        <ele>717</ele>
        <time>2016-11-27T11:14:03.000Z</time>
      </trkpt>
      <trkpt lat="46.04176" lon="4.54861">
        <ele>716</ele>
        <time>2016-11-27T11:14:04.000Z</time>
      </trkpt>
      <trkpt lat="46.04176" lon="4.5486">
        <ele>717</ele>
        <time>2016-11-27T11:14:05.000Z</time>
      </trkpt>
      <trkpt lat="46.04176" lon="4.54859">
        <ele>718</ele>
        <time>2016-11-27T11:14:06.000Z</time>
      </trkpt>
      <trkpt lat="46.04175" lon="4.54858">
        <ele>718</ele>
        <time>2016-11-27T11:14:07.000Z</time>
      </trkpt>
      <trkpt lat="46.04175" lon="4.54856">
        <ele>717</ele>
        <time>2016-11-27T11:14:08.000Z</time>
      </trkpt>
      <trkpt lat="46.04175" lon="4.54855">
        <ele>717</ele>
        <time>2016-11-27T11:14:09.000Z</time>
      </trkpt>
      <trkpt lat="46.04174" lon="4.54853">
        <ele>717</ele>
        <time>2016-11-27T11:14:10.000Z</time>
      </trkpt>
      <trkpt lat="46.04174" lon="4.54852">
        <ele>717</ele>
        <time>2016-11-27T11:14:11.000Z</time>
      </trkpt>
      <trkpt lat="46.04174" lon="4.54851">
        <ele>717</ele>
        <time>2016-11-27T11:14:12.000Z</time>
      </trkpt>
      <trkpt lat="46.04174" lon="4.5485">
        <ele>717</ele>
        <time>2016-11-27T11:14:13.000Z</time>
      </trkpt>
      <trkpt lat="46.04174" lon="4.54848">
        <ele>717</ele>
        <time>2016-11-27T11:14:14.000Z</time>
      </trkpt>
      <trkpt lat="46.04173" lon="4.54847">
        <ele>717</ele>
        <time>2016-11-27T11:14:15.000Z</time>
      </trkpt>
      <trkpt lat="46.04173" lon="4.54846">
        <ele>717</ele>
        <time>2016-11-27T11:14:16.000Z</time>
      </trkpt>
      <trkpt lat="46.04173" lon="4.54844">
        <ele>717</ele>
        <time>2016-11-27T11:14:17.000Z</time>
      </trkpt>
      <trkpt lat="46.04173" lon="4.54842">
        <ele>717</ele>
        <time>2016-11-27T11:14:18.000Z</time>
      </trkpt>
      <trkpt lat="46.04173" lon="4.5484">
        <ele>717</ele>
        <time>2016-11-27T11:14:19.000Z</time>
      </trkpt>
      <trkpt lat="46.04173" lon="4.54838">
        <ele>717</ele>
        <time>2016-11-27T11:14:20.000Z</time>
      </trkpt>
      <trkpt lat="46.04173" lon="4.54837">
        <ele>717</ele>
        <time>2016-11-27T11:14:21.000Z</time>
      </trkpt>
      <trkpt lat="46.04173" lon="4.54836">
        <ele>717</ele>
        <time>2016-11-27T11:14:22.000Z</time>
      </trkpt>
      <trkpt lat="46.04173" lon="4.54835">
        <ele>718</ele>
        <time>2016-11-27T11:14:23.000Z</time>
      </trkpt>
      <trkpt lat="46.04173" lon="4.54834">
        <ele>718</ele>
        <time>2016-11-27T11:14:24.000Z</time>
      </trkpt>
      <trkpt lat="46.04173" lon="4.54832">
        <ele>717</ele>
        <time>2016-11-27T11:14:25.000Z</time>
      </trkpt>
      <trkpt lat="46.04172" lon="4.54831">
        <ele>718</ele>
        <time>2016-11-27T11:14:26.000Z</time>
      </trkpt>
      <trkpt lat="46.04172" lon="4.54829">
        <ele>717</ele>
        <time>2016-11-27T11:14:27.000Z</time>
      </trkpt>
      <trkpt lat="46.04172" lon="4.54827">
        <ele>716</ele>
        <time>2016-11-27T11:14:28.000Z</time>
      </trkpt>
      <trkpt lat="46.04173" lon="4.54825">
        <ele>716</ele>
        <time>2016-11-27T11:14:29.000Z</time>
      </trkpt>
      <trkpt lat="46.04173" lon="4.54823">
        <ele>716</ele>
        <time>2016-11-27T11:14:30.000Z</time>
      </trkpt>
      <trkpt lat="46.04173" lon="4.54821">
        <ele>718</ele>
        <time>2016-11-27T11:14:31.000Z</time>
      </trkpt>
      <trkpt lat="46.04173" lon="4.54819">
        <ele>718</ele>
        <time>2016-11-27T11:14:32.000Z</time>
      </trkpt>
      <trkpt lat="46.04173" lon="4.54816">
        <ele>718</ele>
        <time>2016-11-27T11:14:33.000Z</time>
      </trkpt>
      <trkpt lat="46.04173" lon="4.54815">
        <ele>719</ele>
        <time>2016-11-27T11:14:34.000Z</time>
      </trkpt>
      <trkpt lat="46.04173" lon="4.54812">
        <ele>719</ele>
        <time>2016-11-27T11:14:35.000Z</time>
      </trkpt>
      <trkpt lat="46.04173" lon="4.5481">
        <ele>719</ele>
        <time>2016-11-27T11:14:36.000Z</time>
      </trkpt>
      <trkpt lat="46.04173" lon="4.54807">
        <ele>718</ele>
        <time>2016-11-27T11:14:37.000Z</time>
      </trkpt>
      <trkpt lat="46.04173" lon="4.54805">
        <ele>718</ele>
        <time>2016-11-27T11:14:38.000Z</time>
      </trkpt>
      <trkpt lat="46.04173" lon="4.54803">
        <ele>718</ele>
        <time>2016-11-27T11:14:39.000Z</time>
      </trkpt>
      <trkpt lat="46.04173" lon="4.548">
        <ele>717</ele>
        <time>2016-11-27T11:14:40.000Z</time>
      </trkpt>
      <trkpt lat="46.04173" lon="4.54798">
        <ele>717</ele>
        <time>2016-11-27T11:14:41.000Z</time>
      </trkpt>
      <trkpt lat="46.04173" lon="4.54796">
        <ele>717</ele>
        <time>2016-11-27T11:14:42.000Z</time>
      </trkpt>
      <trkpt lat="46.04173" lon="4.54794">
        <ele>717</ele>
        <time>2016-11-27T11:14:43.000Z</time>
      </trkpt>
      <trkpt lat="46.04173" lon="4.54793">
        <ele>716</ele>
        <time>2016-11-27T11:14:44.000Z</time>
      </trkpt>
      <trkpt lat="46.04173" lon="4.54791">
        <ele>716</ele>
        <time>2016-11-27T11:14:45.000Z</time>
      </trkpt>
      <trkpt lat="46.04174" lon="4.54789">
        <ele>716</ele>
        <time>2016-11-27T11:14:46.000Z</time>
      </trkpt>
      <trkpt lat="46.04174" lon="4.54787">
        <ele>716</ele>
        <time>2016-11-27T11:14:47.000Z</time>
      </trkpt>
      <trkpt lat="46.04175" lon="4.54785">
        <ele>717</ele>
        <time>2016-11-27T11:14:48.000Z</time>
      </trkpt>
      <trkpt lat="46.04175" lon="4.54782">
        <ele>717</ele>
        <time>2016-11-27T11:14:49.000Z</time>
      </trkpt>
      <trkpt lat="46.04175" lon="4.5478">
        <ele>718</ele>
        <time>2016-11-27T11:14:50.000Z</time>
      </trkpt>
      <trkpt lat="46.04175" lon="4.54778">
        <ele>718</ele>
        <time>2016-11-27T11:14:51.000Z</time>
      </trkpt>
      <trkpt lat="46.04175" lon="4.54776">
        <ele>719</ele>
        <time>2016-11-27T11:14:52.000Z</time>
      </trkpt>
      <trkpt lat="46.04175" lon="4.54775">
        <ele>719</ele>
        <time>2016-11-27T11:14:53.000Z</time>
      </trkpt>
      <trkpt lat="46.04175" lon="4.54773">
        <ele>719</ele>
        <time>2016-11-27T11:14:54.000Z</time>
      </trkpt>
      <trkpt lat="46.04175" lon="4.54771">
        <ele>719</ele>
        <time>2016-11-27T11:14:55.000Z</time>
      </trkpt>
      <trkpt lat="46.04175" lon="4.5477">
        <ele>719</ele>
        <time>2016-11-27T11:14:56.000Z</time>
      </trkpt>
      <trkpt lat="46.04175" lon="4.54769">
        <ele>720</ele>
        <time>2016-11-27T11:14:57.000Z</time>
      </trkpt>
      <trkpt lat="46.04175" lon="4.54768">
        <ele>720</ele>
        <time>2016-11-27T11:14:58.000Z</time>
      </trkpt>
      <trkpt lat="46.04175" lon="4.54767">
        <ele>720</ele>
        <time>2016-11-27T11:14:59.000Z</time>
      </trkpt>
      <trkpt lat="46.04174" lon="4.54766">
        <ele>720</ele>
        <time>2016-11-27T11:15:00.000Z</time>
      </trkpt>
      <trkpt lat="46.04174" lon="4.54765">
        <ele>721</ele>
        <time>2016-11-27T11:15:01.000Z</time>
      </trkpt>
      <trkpt lat="46.04173" lon="4.54764">
        <ele>722</ele>
        <time>2016-11-27T11:15:02.000Z</time>
      </trkpt>
      <trkpt lat="46.04172" lon="4.54764">
        <ele>722</ele>
        <time>2016-11-27T11:15:03.000Z</time>
      </trkpt>
      <trkpt lat="46.04171" lon="4.54763">
        <ele>722</ele>
        <time>2016-11-27T11:15:04.000Z</time>
      </trkpt>
      <trkpt lat="46.0417" lon="4.54761">
        <ele>721</ele>
        <time>2016-11-27T11:15:05.000Z</time>
      </trkpt>
      <trkpt lat="46.0417" lon="4.54759">
        <ele>721</ele>
        <time>2016-11-27T11:15:06.000Z</time>
      </trkpt>
      <trkpt lat="46.0417" lon="4.54757">
        <ele>721</ele>
        <time>2016-11-27T11:15:07.000Z</time>
      </trkpt>
      <trkpt lat="46.04171" lon="4.54755">
        <ele>721</ele>
        <time>2016-11-27T11:15:08.000Z</time>
      </trkpt>
      <trkpt lat="46.04171" lon="4.54753">
        <ele>722</ele>
        <time>2016-11-27T11:15:09.000Z</time>
      </trkpt>
      <trkpt lat="46.0417" lon="4.54752">
        <ele>722</ele>
        <time>2016-11-27T11:15:10.000Z</time>
      </trkpt>
      <trkpt lat="46.0417" lon="4.54751">
        <ele>724</ele>
        <time>2016-11-27T11:15:11.000Z</time>
      </trkpt>
      <trkpt lat="46.04169" lon="4.5475">
        <ele>724</ele>
        <time>2016-11-27T11:15:12.000Z</time>
      </trkpt>
      <trkpt lat="46.04168" lon="4.54749">
        <ele>724</ele>
        <time>2016-11-27T11:15:13.000Z</time>
      </trkpt>
      <trkpt lat="46.04167" lon="4.54748">
        <ele>724</ele>
        <time>2016-11-27T11:15:14.000Z</time>
      </trkpt>
      <trkpt lat="46.04166" lon="4.54747">
        <ele>725</ele>
        <time>2016-11-27T11:15:15.000Z</time>
      </trkpt>
      <trkpt lat="46.04165" lon="4.54745">
        <ele>725</ele>
        <time>2016-11-27T11:15:16.000Z</time>
      </trkpt>
      <trkpt lat="46.04164" lon="4.54743">
        <ele>725</ele>
        <time>2016-11-27T11:15:17.000Z</time>
      </trkpt>
      <trkpt lat="46.04164" lon="4.54741">
        <ele>724</ele>
        <time>2016-11-27T11:15:18.000Z</time>
      </trkpt>
      <trkpt lat="46.04165" lon="4.54738">
        <ele>724</ele>
        <time>2016-11-27T11:15:19.000Z</time>
      </trkpt>
      <trkpt lat="46.04165" lon="4.54735">
        <ele>724</ele>
        <time>2016-11-27T11:15:20.000Z</time>
      </trkpt>
      <trkpt lat="46.04165" lon="4.54733">
        <ele>724</ele>
        <time>2016-11-27T11:15:21.000Z</time>
      </trkpt>
      <trkpt lat="46.04165" lon="4.54731">
        <ele>724</ele>
        <time>2016-11-27T11:15:22.000Z</time>
      </trkpt>
      <trkpt lat="46.04165" lon="4.54729">
        <ele>724</ele>
        <time>2016-11-27T11:15:23.000Z</time>
      </trkpt>
      <trkpt lat="46.04165" lon="4.54727">
        <ele>724</ele>
        <time>2016-11-27T11:15:24.000Z</time>
      </trkpt>
      <trkpt lat="46.04165" lon="4.54725">
        <ele>724</ele>
        <time>2016-11-27T11:15:25.000Z</time>
      </trkpt>
      <trkpt lat="46.04165" lon="4.54723">
        <ele>724</ele>
        <time>2016-11-27T11:15:26.000Z</time>
      </trkpt>
      <trkpt lat="46.04164" lon="4.54721">
        <ele>724</ele>
        <time>2016-11-27T11:15:27.000Z</time>
      </trkpt>
      <trkpt lat="46.04164" lon="4.54719">
        <ele>725</ele>
        <time>2016-11-27T11:15:28.000Z</time>
      </trkpt>
      <trkpt lat="46.04164" lon="4.54716">
        <ele>726</ele>
        <time>2016-11-27T11:15:29.000Z</time>
      </trkpt>
      <trkpt lat="46.04164" lon="4.54714">
        <ele>726</ele>
        <time>2016-11-27T11:15:30.000Z</time>
      </trkpt>
      <trkpt lat="46.04164" lon="4.54712">
        <ele>726</ele>
        <time>2016-11-27T11:15:31.000Z</time>
      </trkpt>
      <trkpt lat="46.04164" lon="4.5471">
        <ele>726</ele>
        <time>2016-11-27T11:15:32.000Z</time>
      </trkpt>
      <trkpt lat="46.04164" lon="4.54708">
        <ele>726</ele>
        <time>2016-11-27T11:15:33.000Z</time>
      </trkpt>
      <trkpt lat="46.04164" lon="4.54707">
        <ele>726</ele>
        <time>2016-11-27T11:15:34.000Z</time>
      </trkpt>
      <trkpt lat="46.04164" lon="4.54705">
        <ele>726</ele>
        <time>2016-11-27T11:15:35.000Z</time>
      </trkpt>
      <trkpt lat="46.04163" lon="4.54704">
        <ele>726</ele>
        <time>2016-11-27T11:15:36.000Z</time>
      </trkpt>
      <trkpt lat="46.04163" lon="4.54703">
        <ele>725</ele>
        <time>2016-11-27T11:15:37.000Z</time>
      </trkpt>
      <trkpt lat="46.04163" lon="4.54702">
        <ele>725</ele>
        <time>2016-11-27T11:15:38.000Z</time>
      </trkpt>
      <trkpt lat="46.04162" lon="4.54701">
        <ele>726</ele>
        <time>2016-11-27T11:15:39.000Z</time>
      </trkpt>
      <trkpt lat="46.04161" lon="4.547">
        <ele>728</ele>
        <time>2016-11-27T11:15:40.000Z</time>
      </trkpt>
      <trkpt lat="46.0416" lon="4.54699">
        <ele>728</ele>
        <time>2016-11-27T11:15:41.000Z</time>
      </trkpt>
      <trkpt lat="46.04158" lon="4.54698">
        <ele>728</ele>
        <time>2016-11-27T11:15:42.000Z</time>
      </trkpt>
      <trkpt lat="46.04157" lon="4.54698">
        <ele>728</ele>
        <time>2016-11-27T11:15:43.000Z</time>
      </trkpt>
      <trkpt lat="46.04155" lon="4.54698">
        <ele>729</ele>
        <time>2016-11-27T11:15:44.000Z</time>
      </trkpt>
      <trkpt lat="46.04154" lon="4.54698">
        <ele>729</ele>
        <time>2016-11-27T11:15:45.000Z</time>
      </trkpt>
      <trkpt lat="46.04153" lon="4.54698">
        <ele>729</ele>
        <time>2016-11-27T11:15:46.000Z</time>
      </trkpt>
      <trkpt lat="46.04152" lon="4.54698">
        <ele>730</ele>
        <time>2016-11-27T11:15:47.000Z</time>
      </trkpt>
      <trkpt lat="46.04151" lon="4.54698">
        <ele>730</ele>
        <time>2016-11-27T11:15:48.000Z</time>
      </trkpt>
      <trkpt lat="46.0415" lon="4.54698">
        <ele>730</ele>
        <time>2016-11-27T11:15:49.000Z</time>
      </trkpt>
      <trkpt lat="46.0415" lon="4.54698">
        <ele>730</ele>
        <time>2016-11-27T11:15:50.000Z</time>
      </trkpt>
      <trkpt lat="46.04149" lon="4.54698">
        <ele>730</ele>
        <time>2016-11-27T11:15:51.000Z</time>
      </trkpt>
      <trkpt lat="46.04149" lon="4.54698">
        <ele>730</ele>
        <time>2016-11-27T11:15:52.000Z</time>
      </trkpt>
      <trkpt lat="46.04148" lon="4.54699">
        <ele>731</ele>
        <time>2016-11-27T11:15:53.000Z</time>
      </trkpt>
      <trkpt lat="46.04148" lon="4.54699">
        <ele>731</ele>
        <time>2016-11-27T11:15:54.000Z</time>
      </trkpt>
      <trkpt lat="46.04147" lon="4.54699">
        <ele>731</ele>
        <time>2016-11-27T11:15:55.000Z</time>
      </trkpt>
      <trkpt lat="46.04147" lon="4.54699">
        <ele>731</ele>
        <time>2016-11-27T11:15:56.000Z</time>
      </trkpt>
      <trkpt lat="46.04148" lon="4.54698">
        <ele>731</ele>
        <time>2016-11-27T11:15:57.000Z</time>
      </trkpt>
      <trkpt lat="46.04148" lon="4.54698">
        <ele>731</ele>
        <time>2016-11-27T11:15:58.000Z</time>
      </trkpt>
      <trkpt lat="46.04148" lon="4.54698">
        <ele>731</ele>
        <time>2016-11-27T11:15:59.000Z</time>
      </trkpt>
      <trkpt lat="46.04147" lon="4.54697">
        <ele>731</ele>
        <time>2016-11-27T11:16:00.000Z</time>
      </trkpt>
      <trkpt lat="46.04147" lon="4.54697">
        <ele>731</ele>
        <time>2016-11-27T11:16:01.000Z</time>
      </trkpt>
      <trkpt lat="46.04148" lon="4.54698">
        <ele>731</ele>
        <time>2016-11-27T11:16:02.000Z</time>
      </trkpt>
      <trkpt lat="46.04148" lon="4.54698">
        <ele>731</ele>
        <time>2016-11-27T11:16:03.000Z</time>
      </trkpt>
      <trkpt lat="46.04148" lon="4.54697">
        <ele>731</ele>
        <time>2016-11-27T11:16:04.000Z</time>
      </trkpt>
      <trkpt lat="46.04148" lon="4.54698">
        <ele>731</ele>
        <time>2016-11-27T11:16:05.000Z</time>
      </trkpt>
      <trkpt lat="46.04148" lon="4.54698">
        <ele>731</ele>
        <time>2016-11-27T11:16:06.000Z</time>
      </trkpt>
      <trkpt lat="46.04148" lon="4.54698">
        <ele>731</ele>
        <time>2016-11-27T11:16:07.000Z</time>
      </trkpt>
      <trkpt lat="46.04148" lon="4.54698">
        <ele>731</ele>
        <time>2016-11-27T11:16:08.000Z</time>
      </trkpt>
      <trkpt lat="46.04148" lon="4.54698">
        <ele>731</ele>
        <time>2016-11-27T11:16:09.000Z</time>
      </trkpt>
      <trkpt lat="46.04147" lon="4.54698">
        <ele>731</ele>
        <time>2016-11-27T11:16:10.000Z</time>
      </trkpt>
      <trkpt lat="46.04147" lon="4.54698">
        <ele>731</ele>
        <time>2016-11-27T11:16:11.000Z</time>
      </trkpt>
      <trkpt lat="46.04147" lon="4.54698">
        <ele>731</ele>
        <time>2016-11-27T11:16:12.000Z</time>
      </trkpt>
      <trkpt lat="46.04147" lon="4.54698">
        <ele>731</ele>
        <time>2016-11-27T11:16:13.000Z</time>
      </trkpt>
      <trkpt lat="46.04147" lon="4.54698">
        <ele>731</ele>
        <time>2016-11-27T11:16:14.000Z</time>
      </trkpt>
      <trkpt lat="46.04147" lon="4.54698">
        <ele>731</ele>
        <time>2016-11-27T11:16:15.000Z</time>
      </trkpt>
      <trkpt lat="46.04147" lon="4.54698">
        <ele>731</ele>
        <time>2016-11-27T11:16:16.000Z</time>
      </trkpt>
      <trkpt lat="46.04147" lon="4.54698">
        <ele>731</ele>
        <time>2016-11-27T11:16:17.000Z</time>
      </trkpt>
      <trkpt lat="46.04147" lon="4.54698">
        <ele>731</ele>
        <time>2016-11-27T11:16:18.000Z</time>
      </trkpt>
      <trkpt lat="46.04147" lon="4.54697">
        <ele>731</ele>
        <time>2016-11-27T11:16:19.000Z</time>
      </trkpt>
      <trkpt lat="46.04147" lon="4.54696">
        <ele>731</ele>
        <time>2016-11-27T11:16:20.000Z</time>
      </trkpt>
      <trkpt lat="46.04147" lon="4.54694">
        <ele>730</ele>
        <time>2016-11-27T11:16:21.000Z</time>
      </trkpt>
      <trkpt lat="46.04147" lon="4.54693">
        <ele>730</ele>
        <time>2016-11-27T11:16:22.000Z</time>
      </trkpt>
      <trkpt lat="46.04146" lon="4.54692">
        <ele>730</ele>
        <time>2016-11-27T11:16:23.000Z</time>
      </trkpt>
      <trkpt lat="46.04146" lon="4.5469">
        <ele>730</ele>
        <time>2016-11-27T11:16:24.000Z</time>
      </trkpt>
      <trkpt lat="46.04145" lon="4.54689">
        <ele>730</ele>
        <time>2016-11-27T11:16:25.000Z</time>
      </trkpt>
      <trkpt lat="46.04145" lon="4.54686">
        <ele>730</ele>
        <time>2016-11-27T11:16:26.000Z</time>
      </trkpt>
      <trkpt lat="46.04144" lon="4.54684">
        <ele>731</ele>
        <time>2016-11-27T11:16:27.000Z</time>
      </trkpt>
      <trkpt lat="46.04143" lon="4.54681">
        <ele>731</ele>
        <time>2016-11-27T11:16:28.000Z</time>
      </trkpt>
      <trkpt lat="46.04141" lon="4.54678">
        <ele>732</ele>
        <time>2016-11-27T11:16:29.000Z</time>
      </trkpt>
      <trkpt lat="46.04139" lon="4.54675">
        <ele>731</ele>
        <time>2016-11-27T11:16:30.000Z</time>
      </trkpt>
      <trkpt lat="46.04137" lon="4.54672">
        <ele>732</ele>
        <time>2016-11-27T11:16:31.000Z</time>
      </trkpt>
      <trkpt lat="46.04135" lon="4.54669">
        <ele>732</ele>
        <time>2016-11-27T11:16:32.000Z</time>
      </trkpt>
      <trkpt lat="46.04133" lon="4.54666">
        <ele>732</ele>
        <time>2016-11-27T11:16:33.000Z</time>
      </trkpt>
      <trkpt lat="46.0413" lon="4.54663">
        <ele>732</ele>
        <time>2016-11-27T11:16:34.000Z</time>
      </trkpt>
      <trkpt lat="46.04128" lon="4.54661">
        <ele>731</ele>
        <time>2016-11-27T11:16:35.000Z</time>
      </trkpt>
      <trkpt lat="46.04126" lon="4.54658">
        <ele>731</ele>
        <time>2016-11-27T11:16:36.000Z</time>
      </trkpt>
      <trkpt lat="46.04124" lon="4.54656">
        <ele>731</ele>
        <time>2016-11-27T11:16:37.000Z</time>
      </trkpt>
      <trkpt lat="46.04122" lon="4.54653">
        <ele>730</ele>
        <time>2016-11-27T11:16:38.000Z</time>
      </trkpt>
      <trkpt lat="46.04119" lon="4.54651">
        <ele>730</ele>
        <time>2016-11-27T11:16:39.000Z</time>
      </trkpt>
      <trkpt lat="46.04117" lon="4.54649">
        <ele>730</ele>
        <time>2016-11-27T11:16:40.000Z</time>
      </trkpt>
      <trkpt lat="46.04114" lon="4.54646">
        <ele>729</ele>
        <time>2016-11-27T11:16:41.000Z</time>
      </trkpt>
      <trkpt lat="46.04112" lon="4.54644">
        <ele>728</ele>
        <time>2016-11-27T11:16:42.000Z</time>
      </trkpt>
      <trkpt lat="46.04109" lon="4.54641">
        <ele>728</ele>
        <time>2016-11-27T11:16:43.000Z</time>
      </trkpt>
      <trkpt lat="46.04107" lon="4.54638">
        <ele>728</ele>
        <time>2016-11-27T11:16:44.000Z</time>
      </trkpt>
      <trkpt lat="46.04105" lon="4.54635">
        <ele>726</ele>
        <time>2016-11-27T11:16:45.000Z</time>
      </trkpt>
      <trkpt lat="46.04103" lon="4.54632">
        <ele>725</ele>
        <time>2016-11-27T11:16:46.000Z</time>
      </trkpt>
      <trkpt lat="46.041" lon="4.54629">
        <ele>725</ele>
        <time>2016-11-27T11:16:47.000Z</time>
      </trkpt>
      <trkpt lat="46.04098" lon="4.54626">
        <ele>724</ele>
        <time>2016-11-27T11:16:48.000Z</time>
      </trkpt>
      <trkpt lat="46.04096" lon="4.54622">
        <ele>723</ele>
        <time>2016-11-27T11:16:49.000Z</time>
      </trkpt>
      <trkpt lat="46.04093" lon="4.54619">
        <ele>723</ele>
        <time>2016-11-27T11:16:50.000Z</time>
      </trkpt>
      <trkpt lat="46.04091" lon="4.54615">
        <ele>722</ele>
        <time>2016-11-27T11:16:51.000Z</time>
      </trkpt>
      <trkpt lat="46.04088" lon="4.54612">
        <ele>722</ele>
        <time>2016-11-27T11:16:52.000Z</time>
      </trkpt>
      <trkpt lat="46.04086" lon="4.54608">
        <ele>721</ele>
        <time>2016-11-27T11:16:53.000Z</time>
      </trkpt>
      <trkpt lat="46.04084" lon="4.54605">
        <ele>720</ele>
        <time>2016-11-27T11:16:54.000Z</time>
      </trkpt>
      <trkpt lat="46.04082" lon="4.54601">
        <ele>720</ele>
        <time>2016-11-27T11:16:55.000Z</time>
      </trkpt>
      <trkpt lat="46.0408" lon="4.54598">
        <ele>719</ele>
        <time>2016-11-27T11:16:56.000Z</time>
      </trkpt>
      <trkpt lat="46.04078" lon="4.54595">
        <ele>719</ele>
        <time>2016-11-27T11:16:57.000Z</time>
      </trkpt>
      <trkpt lat="46.04076" lon="4.54593">
        <ele>718</ele>
        <time>2016-11-27T11:16:58.000Z</time>
      </trkpt>
      <trkpt lat="46.04073" lon="4.5459">
        <ele>718</ele>
        <time>2016-11-27T11:16:59.000Z</time>
      </trkpt>
      <trkpt lat="46.04071" lon="4.54587">
        <ele>717</ele>
        <time>2016-11-27T11:17:00.000Z</time>
      </trkpt>
      <trkpt lat="46.04069" lon="4.54585">
        <ele>717</ele>
        <time>2016-11-27T11:17:01.000Z</time>
      </trkpt>
      <trkpt lat="46.04067" lon="4.54582">
        <ele>716</ele>
        <time>2016-11-27T11:17:02.000Z</time>
      </trkpt>
      <trkpt lat="46.04064" lon="4.5458">
        <ele>715</ele>
        <time>2016-11-27T11:17:03.000Z</time>
      </trkpt>
      <trkpt lat="46.04062" lon="4.54577">
        <ele>715</ele>
        <time>2016-11-27T11:17:04.000Z</time>
      </trkpt>
      <trkpt lat="46.0406" lon="4.54574">
        <ele>715</ele>
        <time>2016-11-27T11:17:05.000Z</time>
      </trkpt>
      <trkpt lat="46.04057" lon="4.54571">
        <ele>714</ele>
        <time>2016-11-27T11:17:06.000Z</time>
      </trkpt>
      <trkpt lat="46.04055" lon="4.54568">
        <ele>713</ele>
        <time>2016-11-27T11:17:07.000Z</time>
      </trkpt>
      <trkpt lat="46.04053" lon="4.54565">
        <ele>713</ele>
        <time>2016-11-27T11:17:08.000Z</time>
      </trkpt>
      <trkpt lat="46.04051" lon="4.54562">
        <ele>713</ele>
        <time>2016-11-27T11:17:09.000Z</time>
      </trkpt>
      <trkpt lat="46.04049" lon="4.54558">
        <ele>712</ele>
        <time>2016-11-27T11:17:10.000Z</time>
      </trkpt>
      <trkpt lat="46.04047" lon="4.54555">
        <ele>711</ele>
        <time>2016-11-27T11:17:11.000Z</time>
      </trkpt>
      <trkpt lat="46.04044" lon="4.54553">
        <ele>710</ele>
        <time>2016-11-27T11:17:12.000Z</time>
      </trkpt>
      <trkpt lat="46.04042" lon="4.54551">
        <ele>709</ele>
        <time>2016-11-27T11:17:13.000Z</time>
      </trkpt>
      <trkpt lat="46.04039" lon="4.54549">
        <ele>709</ele>
        <time>2016-11-27T11:17:14.000Z</time>
      </trkpt>
      <trkpt lat="46.04036" lon="4.54547">
        <ele>708</ele>
        <time>2016-11-27T11:17:15.000Z</time>
      </trkpt>
      <trkpt lat="46.04034" lon="4.54545">
        <ele>707</ele>
        <time>2016-11-27T11:17:16.000Z</time>
      </trkpt>
      <trkpt lat="46.04031" lon="4.54544">
        <ele>706</ele>
        <time>2016-11-27T11:17:17.000Z</time>
      </trkpt>
      <trkpt lat="46.04028" lon="4.54542">
        <ele>706</ele>
        <time>2016-11-27T11:17:18.000Z</time>
      </trkpt>
      <trkpt lat="46.04026" lon="4.5454">
        <ele>704</ele>
        <time>2016-11-27T11:17:19.000Z</time>
      </trkpt>
      <trkpt lat="46.04023" lon="4.54537">
        <ele>704</ele>
        <time>2016-11-27T11:17:20.000Z</time>
      </trkpt>
      <trkpt lat="46.0402" lon="4.54535">
        <ele>703</ele>
        <time>2016-11-27T11:17:21.000Z</time>
      </trkpt>
      <trkpt lat="46.04017" lon="4.54532">
        <ele>702</ele>
        <time>2016-11-27T11:17:22.000Z</time>
      </trkpt>
      <trkpt lat="46.04015" lon="4.5453">
        <ele>702</ele>
        <time>2016-11-27T11:17:23.000Z</time>
      </trkpt>
      <trkpt lat="46.04012" lon="4.54528">
        <ele>701</ele>
        <time>2016-11-27T11:17:24.000Z</time>
      </trkpt>
      <trkpt lat="46.0401" lon="4.54525">
        <ele>700</ele>
        <time>2016-11-27T11:17:25.000Z</time>
      </trkpt>
      <trkpt lat="46.04008" lon="4.54522">
        <ele>700</ele>
        <time>2016-11-27T11:17:26.000Z</time>
      </trkpt>
      <trkpt lat="46.04007" lon="4.5452">
        <ele>700</ele>
        <time>2016-11-27T11:17:27.000Z</time>
      </trkpt>
      <trkpt lat="46.04006" lon="4.54518">
        <ele>700</ele>
        <time>2016-11-27T11:17:28.000Z</time>
      </trkpt>
      <trkpt lat="46.04005" lon="4.54516">
        <ele>700</ele>
        <time>2016-11-27T11:17:29.000Z</time>
      </trkpt>
      <trkpt lat="46.04004" lon="4.54514">
        <ele>700</ele>
        <time>2016-11-27T11:17:30.000Z</time>
      </trkpt>
      <trkpt lat="46.04003" lon="4.54512">
        <ele>700</ele>
        <time>2016-11-27T11:17:31.000Z</time>
      </trkpt>
      <trkpt lat="46.04002" lon="4.5451">
        <ele>700</ele>
        <time>2016-11-27T11:17:32.000Z</time>
      </trkpt>
      <trkpt lat="46.04" lon="4.54508">
        <ele>701</ele>
        <time>2016-11-27T11:17:33.000Z</time>
      </trkpt>
      <trkpt lat="46.03999" lon="4.54506">
        <ele>701</ele>
        <time>2016-11-27T11:17:34.000Z</time>
      </trkpt>
      <trkpt lat="46.03998" lon="4.54503">
        <ele>702</ele>
        <time>2016-11-27T11:17:35.000Z</time>
      </trkpt>
      <trkpt lat="46.03997" lon="4.54501">
        <ele>702</ele>
        <time>2016-11-27T11:17:36.000Z</time>
      </trkpt>
      <trkpt lat="46.03995" lon="4.54498">
        <ele>703</ele>
        <time>2016-11-27T11:17:37.000Z</time>
      </trkpt>
      <trkpt lat="46.03994" lon="4.54496">
        <ele>703</ele>
        <time>2016-11-27T11:17:38.000Z</time>
      </trkpt>
      <trkpt lat="46.03992" lon="4.54493">
        <ele>704</ele>
        <time>2016-11-27T11:17:39.000Z</time>
      </trkpt>
      <trkpt lat="46.0399" lon="4.54491">
        <ele>705</ele>
        <time>2016-11-27T11:17:40.000Z</time>
      </trkpt>
      <trkpt lat="46.03989" lon="4.54488">
        <ele>704</ele>
        <time>2016-11-27T11:17:41.000Z</time>
      </trkpt>
      <trkpt lat="46.03987" lon="4.54485">
        <ele>705</ele>
        <time>2016-11-27T11:17:42.000Z</time>
      </trkpt>
      <trkpt lat="46.03986" lon="4.54482">
        <ele>705</ele>
        <time>2016-11-27T11:17:43.000Z</time>
      </trkpt>
      <trkpt lat="46.03984" lon="4.54479">
        <ele>705</ele>
        <time>2016-11-27T11:17:44.000Z</time>
      </trkpt>
      <trkpt lat="46.03982" lon="4.54476">
        <ele>706</ele>
        <time>2016-11-27T11:17:45.000Z</time>
      </trkpt>
      <trkpt lat="46.03981" lon="4.54474">
        <ele>706</ele>
        <time>2016-11-27T11:17:46.000Z</time>
      </trkpt>
      <trkpt lat="46.03979" lon="4.5447">
        <ele>706</ele>
        <time>2016-11-27T11:17:47.000Z</time>
      </trkpt>
      <trkpt lat="46.03977" lon="4.54467">
        <ele>707</ele>
        <time>2016-11-27T11:17:48.000Z</time>
      </trkpt>
      <trkpt lat="46.03976" lon="4.54464">
        <ele>707</ele>
        <time>2016-11-27T11:17:49.000Z</time>
      </trkpt>
      <trkpt lat="46.03974" lon="4.54461">
        <ele>707</ele>
        <time>2016-11-27T11:17:50.000Z</time>
      </trkpt>
      <trkpt lat="46.03973" lon="4.54458">
        <ele>707</ele>
        <time>2016-11-27T11:17:51.000Z</time>
      </trkpt>
      <trkpt lat="46.03972" lon="4.54454">
        <ele>707</ele>
        <time>2016-11-27T11:17:52.000Z</time>
      </trkpt>
      <trkpt lat="46.0397" lon="4.54451">
        <ele>706</ele>
        <time>2016-11-27T11:17:53.000Z</time>
      </trkpt>
      <trkpt lat="46.03969" lon="4.54447">
        <ele>707</ele>
        <time>2016-11-27T11:17:54.000Z</time>
      </trkpt>
      <trkpt lat="46.03968" lon="4.54443">
        <ele>708</ele>
        <time>2016-11-27T11:17:55.000Z</time>
      </trkpt>
      <trkpt lat="46.03967" lon="4.5444">
        <ele>708</ele>
        <time>2016-11-27T11:17:56.000Z</time>
      </trkpt>
      <trkpt lat="46.03967" lon="4.54436">
        <ele>708</ele>
        <time>2016-11-27T11:17:57.000Z</time>
      </trkpt>
      <trkpt lat="46.03966" lon="4.54432">
        <ele>708</ele>
        <time>2016-11-27T11:17:58.000Z</time>
      </trkpt>
      <trkpt lat="46.03966" lon="4.54428">
        <ele>708</ele>
        <time>2016-11-27T11:17:59.000Z</time>
      </trkpt>
      <trkpt lat="46.03965" lon="4.54424">
        <ele>708</ele>
        <time>2016-11-27T11:18:00.000Z</time>
      </trkpt>
      <trkpt lat="46.03965" lon="4.54421">
        <ele>707</ele>
        <time>2016-11-27T11:18:01.000Z</time>
      </trkpt>
      <trkpt lat="46.03965" lon="4.54417">
        <ele>707</ele>
        <time>2016-11-27T11:18:02.000Z</time>
      </trkpt>
      <trkpt lat="46.03965" lon="4.54413">
        <ele>707</ele>
        <time>2016-11-27T11:18:03.000Z</time>
      </trkpt>
      <trkpt lat="46.03965" lon="4.54409">
        <ele>706</ele>
        <time>2016-11-27T11:18:04.000Z</time>
      </trkpt>
      <trkpt lat="46.03965" lon="4.54405">
        <ele>705</ele>
        <time>2016-11-27T11:18:05.000Z</time>
      </trkpt>
      <trkpt lat="46.03965" lon="4.54401">
        <ele>705</ele>
        <time>2016-11-27T11:18:06.000Z</time>
      </trkpt>
      <trkpt lat="46.03965" lon="4.54397">
        <ele>704</ele>
        <time>2016-11-27T11:18:07.000Z</time>
      </trkpt>
      <trkpt lat="46.03965" lon="4.54394">
        <ele>703</ele>
        <time>2016-11-27T11:18:08.000Z</time>
      </trkpt>
      <trkpt lat="46.03965" lon="4.5439">
        <ele>702</ele>
        <time>2016-11-27T11:18:09.000Z</time>
      </trkpt>
      <trkpt lat="46.03965" lon="4.54387">
        <ele>702</ele>
        <time>2016-11-27T11:18:10.000Z</time>
      </trkpt>
      <trkpt lat="46.03966" lon="4.54383">
        <ele>702</ele>
        <time>2016-11-27T11:18:11.000Z</time>
      </trkpt>
      <trkpt lat="46.03966" lon="4.54379">
        <ele>701</ele>
        <time>2016-11-27T11:18:12.000Z</time>
      </trkpt>
      <trkpt lat="46.03966" lon="4.54376">
        <ele>702</ele>
        <time>2016-11-27T11:18:13.000Z</time>
      </trkpt>
      <trkpt lat="46.03966" lon="4.54372">
        <ele>703</ele>
        <time>2016-11-27T11:18:14.000Z</time>
      </trkpt>
      <trkpt lat="46.03967" lon="4.54367">
        <ele>703</ele>
        <time>2016-11-27T11:18:15.000Z</time>
      </trkpt>
      <trkpt lat="46.03967" lon="4.54363">
        <ele>703</ele>
        <time>2016-11-27T11:18:16.000Z</time>
      </trkpt>
      <trkpt lat="46.03968" lon="4.54359">
        <ele>702</ele>
        <time>2016-11-27T11:18:17.000Z</time>
      </trkpt>
      <trkpt lat="46.03968" lon="4.54355">
        <ele>702</ele>
        <time>2016-11-27T11:18:18.000Z</time>
      </trkpt>
      <trkpt lat="46.03968" lon="4.54351">
        <ele>702</ele>
        <time>2016-11-27T11:18:19.000Z</time>
      </trkpt>
      <trkpt lat="46.03969" lon="4.54347">
        <ele>702</ele>
        <time>2016-11-27T11:18:20.000Z</time>
      </trkpt>
      <trkpt lat="46.03969" lon="4.54343">
        <ele>703</ele>
        <time>2016-11-27T11:18:21.000Z</time>
      </trkpt>
      <trkpt lat="46.03969" lon="4.5434">
        <ele>703</ele>
        <time>2016-11-27T11:18:22.000Z</time>
      </trkpt>
      <trkpt lat="46.0397" lon="4.54336">
        <ele>703</ele>
        <time>2016-11-27T11:18:23.000Z</time>
      </trkpt>
      <trkpt lat="46.0397" lon="4.54333">
        <ele>702</ele>
        <time>2016-11-27T11:18:24.000Z</time>
      </trkpt>
      <trkpt lat="46.0397" lon="4.54329">
        <ele>703</ele>
        <time>2016-11-27T11:18:25.000Z</time>
      </trkpt>
      <trkpt lat="46.0397" lon="4.54325">
        <ele>705</ele>
        <time>2016-11-27T11:18:26.000Z</time>
      </trkpt>
      <trkpt lat="46.0397" lon="4.54322">
        <ele>705</ele>
        <time>2016-11-27T11:18:27.000Z</time>
      </trkpt>
      <trkpt lat="46.03969" lon="4.54318">
        <ele>706</ele>
        <time>2016-11-27T11:18:28.000Z</time>
      </trkpt>
      <trkpt lat="46.03969" lon="4.54314">
        <ele>708</ele>
        <time>2016-11-27T11:18:29.000Z</time>
      </trkpt>
      <trkpt lat="46.03968" lon="4.5431">
        <ele>709</ele>
        <time>2016-11-27T11:18:30.000Z</time>
      </trkpt>
      <trkpt lat="46.03968" lon="4.54306">
        <ele>710</ele>
        <time>2016-11-27T11:18:31.000Z</time>
      </trkpt>
      <trkpt lat="46.03967" lon="4.54303">
        <ele>711</ele>
        <time>2016-11-27T11:18:32.000Z</time>
      </trkpt>
      <trkpt lat="46.03967" lon="4.54299">
        <ele>711</ele>
        <time>2016-11-27T11:18:33.000Z</time>
      </trkpt>
      <trkpt lat="46.03966" lon="4.54296">
        <ele>712</ele>
        <time>2016-11-27T11:18:34.000Z</time>
      </trkpt>
      <trkpt lat="46.03966" lon="4.54293">
        <ele>713</ele>
        <time>2016-11-27T11:18:35.000Z</time>
      </trkpt>
      <trkpt lat="46.03965" lon="4.5429">
        <ele>714</ele>
        <time>2016-11-27T11:18:36.000Z</time>
      </trkpt>
      <trkpt lat="46.03964" lon="4.54287">
        <ele>715</ele>
        <time>2016-11-27T11:18:37.000Z</time>
      </trkpt>
      <trkpt lat="46.03963" lon="4.54284">
        <ele>714</ele>
        <time>2016-11-27T11:18:38.000Z</time>
      </trkpt>
      <trkpt lat="46.03962" lon="4.54282">
        <ele>715</ele>
        <time>2016-11-27T11:18:39.000Z</time>
      </trkpt>
      <trkpt lat="46.03961" lon="4.54279">
        <ele>716</ele>
        <time>2016-11-27T11:18:40.000Z</time>
      </trkpt>
      <trkpt lat="46.0396" lon="4.54277">
        <ele>716</ele>
        <time>2016-11-27T11:18:41.000Z</time>
      </trkpt>
      <trkpt lat="46.03959" lon="4.54274">
        <ele>715</ele>
        <time>2016-11-27T11:18:42.000Z</time>
      </trkpt>
      <trkpt lat="46.03958" lon="4.54272">
        <ele>716</ele>
        <time>2016-11-27T11:18:43.000Z</time>
      </trkpt>
      <trkpt lat="46.03957" lon="4.54269">
        <ele>717</ele>
        <time>2016-11-27T11:18:44.000Z</time>
      </trkpt>
      <trkpt lat="46.03956" lon="4.54267">
        <ele>717</ele>
        <time>2016-11-27T11:18:45.000Z</time>
      </trkpt>
      <trkpt lat="46.03955" lon="4.54264">
        <ele>717</ele>
        <time>2016-11-27T11:18:46.000Z</time>
      </trkpt>
      <trkpt lat="46.03954" lon="4.54261">
        <ele>717</ele>
        <time>2016-11-27T11:18:47.000Z</time>
      </trkpt>
      <trkpt lat="46.03953" lon="4.54259">
        <ele>718</ele>
        <time>2016-11-27T11:18:48.000Z</time>
      </trkpt>
      <trkpt lat="46.03952" lon="4.54256">
        <ele>717</ele>
        <time>2016-11-27T11:18:49.000Z</time>
      </trkpt>
      <trkpt lat="46.03951" lon="4.54254">
        <ele>718</ele>
        <time>2016-11-27T11:18:50.000Z</time>
      </trkpt>
      <trkpt lat="46.0395" lon="4.54252">
        <ele>719</ele>
        <time>2016-11-27T11:18:51.000Z</time>
      </trkpt>
      <trkpt lat="46.03949" lon="4.5425">
        <ele>719</ele>
        <time>2016-11-27T11:18:52.000Z</time>
      </trkpt>
      <trkpt lat="46.03948" lon="4.54247">
        <ele>719</ele>
        <time>2016-11-27T11:18:53.000Z</time>
      </trkpt>
      <trkpt lat="46.03946" lon="4.54245">
        <ele>719</ele>
        <time>2016-11-27T11:18:54.000Z</time>
      </trkpt>
      <trkpt lat="46.03945" lon="4.54243">
        <ele>719</ele>
        <time>2016-11-27T11:18:55.000Z</time>
      </trkpt>
      <trkpt lat="46.03944" lon="4.54241">
        <ele>719</ele>
        <time>2016-11-27T11:18:56.000Z</time>
      </trkpt>
      <trkpt lat="46.03943" lon="4.54238">
        <ele>719</ele>
        <time>2016-11-27T11:18:57.000Z</time>
      </trkpt>
      <trkpt lat="46.03942" lon="4.54236">
        <ele>719</ele>
        <time>2016-11-27T11:18:58.000Z</time>
      </trkpt>
      <trkpt lat="46.03941" lon="4.54233">
        <ele>719</ele>
        <time>2016-11-27T11:18:59.000Z</time>
      </trkpt>
      <trkpt lat="46.0394" lon="4.54231">
        <ele>719</ele>
        <time>2016-11-27T11:19:00.000Z</time>
      </trkpt>
      <trkpt lat="46.03939" lon="4.54228">
        <ele>720</ele>
        <time>2016-11-27T11:19:01.000Z</time>
      </trkpt>
      <trkpt lat="46.03938" lon="4.54226">
        <ele>720</ele>
        <time>2016-11-27T11:19:02.000Z</time>
      </trkpt>
      <trkpt lat="46.03937" lon="4.54223">
        <ele>720</ele>
        <time>2016-11-27T11:19:03.000Z</time>
      </trkpt>
      <trkpt lat="46.03935" lon="4.54221">
        <ele>720</ele>
        <time>2016-11-27T11:19:04.000Z</time>
      </trkpt>
      <trkpt lat="46.03934" lon="4.54218">
        <ele>720</ele>
        <time>2016-11-27T11:19:05.000Z</time>
      </trkpt>
      <trkpt lat="46.03933" lon="4.54216">
        <ele>721</ele>
        <time>2016-11-27T11:19:06.000Z</time>
      </trkpt>
      <trkpt lat="46.03932" lon="4.54214">
        <ele>721</ele>
        <time>2016-11-27T11:19:07.000Z</time>
      </trkpt>
      <trkpt lat="46.0393" lon="4.54211">
        <ele>721</ele>
        <time>2016-11-27T11:19:08.000Z</time>
      </trkpt>
      <trkpt lat="46.03929" lon="4.54209">
        <ele>721</ele>
        <time>2016-11-27T11:19:09.000Z</time>
      </trkpt>
      <trkpt lat="46.03928" lon="4.54207">
        <ele>720</ele>
        <time>2016-11-27T11:19:10.000Z</time>
      </trkpt>
      <trkpt lat="46.03926" lon="4.54205">
        <ele>721</ele>
        <time>2016-11-27T11:19:11.000Z</time>
      </trkpt>
      <trkpt lat="46.03925" lon="4.54203">
        <ele>721</ele>
        <time>2016-11-27T11:19:12.000Z</time>
      </trkpt>
      <trkpt lat="46.03924" lon="4.54201">
        <ele>721</ele>
        <time>2016-11-27T11:19:13.000Z</time>
      </trkpt>
      <trkpt lat="46.03922" lon="4.54199">
        <ele>721</ele>
        <time>2016-11-27T11:19:14.000Z</time>
      </trkpt>
      <trkpt lat="46.03921" lon="4.54197">
        <ele>722</ele>
        <time>2016-11-27T11:19:15.000Z</time>
      </trkpt>
      <trkpt lat="46.0392" lon="4.54195">
        <ele>722</ele>
        <time>2016-11-27T11:19:16.000Z</time>
      </trkpt>
      <trkpt lat="46.03919" lon="4.54193">
        <ele>722</ele>
        <time>2016-11-27T11:19:17.000Z</time>
      </trkpt>
      <trkpt lat="46.03918" lon="4.54192">
        <ele>723</ele>
        <time>2016-11-27T11:19:18.000Z</time>
      </trkpt>
      <trkpt lat="46.03916" lon="4.5419">
        <ele>723</ele>
        <time>2016-11-27T11:19:19.000Z</time>
      </trkpt>
      <trkpt lat="46.03915" lon="4.54188">
        <ele>723</ele>
        <time>2016-11-27T11:19:20.000Z</time>
      </trkpt>
      <trkpt lat="46.03914" lon="4.54187">
        <ele>724</ele>
        <time>2016-11-27T11:19:21.000Z</time>
      </trkpt>
      <trkpt lat="46.03912" lon="4.54185">
        <ele>724</ele>
        <time>2016-11-27T11:19:22.000Z</time>
      </trkpt>
      <trkpt lat="46.03911" lon="4.54184">
        <ele>723</ele>
        <time>2016-11-27T11:19:23.000Z</time>
      </trkpt>
      <trkpt lat="46.0391" lon="4.54182">
        <ele>724</ele>
        <time>2016-11-27T11:19:24.000Z</time>
      </trkpt>
      <trkpt lat="46.03909" lon="4.5418">
        <ele>724</ele>
        <time>2016-11-27T11:19:25.000Z</time>
      </trkpt>
      <trkpt lat="46.03907" lon="4.54179">
        <ele>724</ele>
        <time>2016-11-27T11:19:26.000Z</time>
      </trkpt>
      <trkpt lat="46.03906" lon="4.54178">
        <ele>724</ele>
        <time>2016-11-27T11:19:27.000Z</time>
      </trkpt>
      <trkpt lat="46.03904" lon="4.54176">
        <ele>723</ele>
        <time>2016-11-27T11:19:28.000Z</time>
      </trkpt>
      <trkpt lat="46.03903" lon="4.54174">
        <ele>724</ele>
        <time>2016-11-27T11:19:29.000Z</time>
      </trkpt>
      <trkpt lat="46.03901" lon="4.54172">
        <ele>724</ele>
        <time>2016-11-27T11:19:30.000Z</time>
      </trkpt>
      <trkpt lat="46.039" lon="4.5417">
        <ele>724</ele>
        <time>2016-11-27T11:19:31.000Z</time>
      </trkpt>
      <trkpt lat="46.03898" lon="4.54168">
        <ele>724</ele>
        <time>2016-11-27T11:19:32.000Z</time>
      </trkpt>
      <trkpt lat="46.03897" lon="4.54167">
        <ele>724</ele>
        <time>2016-11-27T11:19:33.000Z</time>
      </trkpt>
      <trkpt lat="46.03895" lon="4.54166">
        <ele>725</ele>
        <time>2016-11-27T11:19:34.000Z</time>
      </trkpt>
      <trkpt lat="46.03894" lon="4.54164">
        <ele>725</ele>
        <time>2016-11-27T11:19:35.000Z</time>
      </trkpt>
      <trkpt lat="46.03892" lon="4.54163">
        <ele>725</ele>
        <time>2016-11-27T11:19:36.000Z</time>
      </trkpt>
      <trkpt lat="46.03891" lon="4.54161">
        <ele>725</ele>
        <time>2016-11-27T11:19:37.000Z</time>
      </trkpt>
      <trkpt lat="46.03889" lon="4.54159">
        <ele>726</ele>
        <time>2016-11-27T11:19:38.000Z</time>
      </trkpt>
      <trkpt lat="46.03888" lon="4.54157">
        <ele>726</ele>
        <time>2016-11-27T11:19:39.000Z</time>
      </trkpt>
      <trkpt lat="46.03887" lon="4.54156">
        <ele>726</ele>
        <time>2016-11-27T11:19:40.000Z</time>
      </trkpt>
      <trkpt lat="46.03885" lon="4.54154">
        <ele>727</ele>
        <time>2016-11-27T11:19:41.000Z</time>
      </trkpt>
      <trkpt lat="46.03884" lon="4.54153">
        <ele>727</ele>
        <time>2016-11-27T11:19:42.000Z</time>
      </trkpt>
      <trkpt lat="46.03882" lon="4.54151">
        <ele>728</ele>
        <time>2016-11-27T11:19:43.000Z</time>
      </trkpt>
      <trkpt lat="46.03881" lon="4.5415">
        <ele>729</ele>
        <time>2016-11-27T11:19:44.000Z</time>
      </trkpt>
      <trkpt lat="46.03879" lon="4.54148">
        <ele>729</ele>
        <time>2016-11-27T11:19:45.000Z</time>
      </trkpt>
      <trkpt lat="46.03877" lon="4.54147">
        <ele>729</ele>
        <time>2016-11-27T11:19:46.000Z</time>
      </trkpt>
      <trkpt lat="46.03876" lon="4.54145">
        <ele>730</ele>
        <time>2016-11-27T11:19:47.000Z</time>
      </trkpt>
      <trkpt lat="46.03874" lon="4.54144">
        <ele>729</ele>
        <time>2016-11-27T11:19:48.000Z</time>
      </trkpt>
      <trkpt lat="46.03873" lon="4.54143">
        <ele>729</ele>
        <time>2016-11-27T11:19:49.000Z</time>
      </trkpt>
      <trkpt lat="46.03872" lon="4.54141">
        <ele>730</ele>
        <time>2016-11-27T11:19:50.000Z</time>
      </trkpt>
      <trkpt lat="46.0387" lon="4.5414">
        <ele>730</ele>
        <time>2016-11-27T11:19:51.000Z</time>
      </trkpt>
      <trkpt lat="46.03869" lon="4.54139">
        <ele>730</ele>
        <time>2016-11-27T11:19:52.000Z</time>
      </trkpt>
      <trkpt lat="46.03868" lon="4.54137">
        <ele>730</ele>
        <time>2016-11-27T11:19:53.000Z</time>
      </trkpt>
      <trkpt lat="46.03867" lon="4.54135">
        <ele>730</ele>
        <time>2016-11-27T11:19:54.000Z</time>
      </trkpt>
      <trkpt lat="46.03866" lon="4.54134">
        <ele>730</ele>
        <time>2016-11-27T11:19:55.000Z</time>
      </trkpt>
      <trkpt lat="46.03864" lon="4.54132">
        <ele>731</ele>
        <time>2016-11-27T11:19:56.000Z</time>
      </trkpt>
      <trkpt lat="46.03863" lon="4.54131">
        <ele>731</ele>
        <time>2016-11-27T11:19:57.000Z</time>
      </trkpt>
      <trkpt lat="46.03862" lon="4.5413">
        <ele>731</ele>
        <time>2016-11-27T11:19:58.000Z</time>
      </trkpt>
      <trkpt lat="46.0386" lon="4.54128">
        <ele>731</ele>
        <time>2016-11-27T11:19:59.000Z</time>
      </trkpt>
      <trkpt lat="46.03858" lon="4.54127">
        <ele>732</ele>
        <time>2016-11-27T11:20:00.000Z</time>
      </trkpt>
      <trkpt lat="46.03857" lon="4.54125">
        <ele>732</ele>
        <time>2016-11-27T11:20:01.000Z</time>
      </trkpt>
      <trkpt lat="46.03855" lon="4.54124">
        <ele>732</ele>
        <time>2016-11-27T11:20:02.000Z</time>
      </trkpt>
      <trkpt lat="46.03854" lon="4.54122">
        <ele>732</ele>
        <time>2016-11-27T11:20:03.000Z</time>
      </trkpt>
      <trkpt lat="46.03853" lon="4.54121">
        <ele>733</ele>
        <time>2016-11-27T11:20:04.000Z</time>
      </trkpt>
      <trkpt lat="46.03852" lon="4.5412">
        <ele>733</ele>
        <time>2016-11-27T11:20:05.000Z</time>
      </trkpt>
      <trkpt lat="46.0385" lon="4.54118">
        <ele>733</ele>
        <time>2016-11-27T11:20:06.000Z</time>
      </trkpt>
      <trkpt lat="46.03849" lon="4.54117">
        <ele>733</ele>
        <time>2016-11-27T11:20:07.000Z</time>
      </trkpt>
      <trkpt lat="46.03848" lon="4.54115">
        <ele>734</ele>
        <time>2016-11-27T11:20:08.000Z</time>
      </trkpt>
      <trkpt lat="46.03847" lon="4.54113">
        <ele>734</ele>
        <time>2016-11-27T11:20:09.000Z</time>
      </trkpt>
      <trkpt lat="46.03846" lon="4.54112">
        <ele>735</ele>
        <time>2016-11-27T11:20:10.000Z</time>
      </trkpt>
      <trkpt lat="46.03844" lon="4.54111">
        <ele>735</ele>
        <time>2016-11-27T11:20:11.000Z</time>
      </trkpt>
      <trkpt lat="46.03843" lon="4.54109">
        <ele>736</ele>
        <time>2016-11-27T11:20:12.000Z</time>
      </trkpt>
      <trkpt lat="46.03842" lon="4.54108">
        <ele>736</ele>
        <time>2016-11-27T11:20:13.000Z</time>
      </trkpt>
      <trkpt lat="46.03841" lon="4.54106">
        <ele>736</ele>
        <time>2016-11-27T11:20:14.000Z</time>
      </trkpt>
      <trkpt lat="46.0384" lon="4.54105">
        <ele>736</ele>
        <time>2016-11-27T11:20:15.000Z</time>
      </trkpt>
      <trkpt lat="46.03839" lon="4.54104">
        <ele>735</ele>
        <time>2016-11-27T11:20:16.000Z</time>
      </trkpt>
      <trkpt lat="46.03837" lon="4.54102">
        <ele>736</ele>
        <time>2016-11-27T11:20:17.000Z</time>
      </trkpt>
      <trkpt lat="46.03836" lon="4.54101">
        <ele>736</ele>
        <time>2016-11-27T11:20:18.000Z</time>
      </trkpt>
      <trkpt lat="46.03835" lon="4.54099">
        <ele>735</ele>
        <time>2016-11-27T11:20:19.000Z</time>
      </trkpt>
      <trkpt lat="46.03833" lon="4.54097">
        <ele>735</ele>
        <time>2016-11-27T11:20:20.000Z</time>
      </trkpt>
      <trkpt lat="46.03832" lon="4.54096">
        <ele>736</ele>
        <time>2016-11-27T11:20:21.000Z</time>
      </trkpt>
      <trkpt lat="46.03831" lon="4.54094">
        <ele>736</ele>
        <time>2016-11-27T11:20:22.000Z</time>
      </trkpt>
      <trkpt lat="46.0383" lon="4.54092">
        <ele>737</ele>
        <time>2016-11-27T11:20:23.000Z</time>
      </trkpt>
      <trkpt lat="46.03829" lon="4.54091">
        <ele>737</ele>
        <time>2016-11-27T11:20:24.000Z</time>
      </trkpt>
      <trkpt lat="46.03828" lon="4.54089">
        <ele>737</ele>
        <time>2016-11-27T11:20:25.000Z</time>
      </trkpt>
      <trkpt lat="46.03826" lon="4.54088">
        <ele>738</ele>
        <time>2016-11-27T11:20:26.000Z</time>
      </trkpt>
      <trkpt lat="46.03825" lon="4.54086">
        <ele>738</ele>
        <time>2016-11-27T11:20:27.000Z</time>
      </trkpt>
      <trkpt lat="46.03824" lon="4.54084">
        <ele>739</ele>
        <time>2016-11-27T11:20:28.000Z</time>
      </trkpt>
      <trkpt lat="46.03823" lon="4.54083">
        <ele>739</ele>
        <time>2016-11-27T11:20:29.000Z</time>
      </trkpt>
      <trkpt lat="46.03822" lon="4.54081">
        <ele>739</ele>
        <time>2016-11-27T11:20:30.000Z</time>
      </trkpt>
      <trkpt lat="46.03821" lon="4.5408">
        <ele>740</ele>
        <time>2016-11-27T11:20:31.000Z</time>
      </trkpt>
      <trkpt lat="46.0382" lon="4.54078">
        <ele>740</ele>
        <time>2016-11-27T11:20:32.000Z</time>
      </trkpt>
      <trkpt lat="46.03819" lon="4.54077">
        <ele>740</ele>
        <time>2016-11-27T11:20:33.000Z</time>
      </trkpt>
      <trkpt lat="46.03818" lon="4.54076">
        <ele>740</ele>
        <time>2016-11-27T11:20:34.000Z</time>
      </trkpt>
      <trkpt lat="46.03817" lon="4.54074">
        <ele>741</ele>
        <time>2016-11-27T11:20:35.000Z</time>
      </trkpt>
      <trkpt lat="46.03816" lon="4.54073">
        <ele>741</ele>
        <time>2016-11-27T11:20:36.000Z</time>
      </trkpt>
      <trkpt lat="46.03814" lon="4.54072">
        <ele>741</ele>
        <time>2016-11-27T11:20:37.000Z</time>
      </trkpt>
      <trkpt lat="46.03813" lon="4.5407">
        <ele>741</ele>
        <time>2016-11-27T11:20:38.000Z</time>
      </trkpt>
      <trkpt lat="46.03812" lon="4.54069">
        <ele>742</ele>
        <time>2016-11-27T11:20:39.000Z</time>
      </trkpt>
      <trkpt lat="46.03811" lon="4.54067">
        <ele>742</ele>
        <time>2016-11-27T11:20:40.000Z</time>
      </trkpt>
      <trkpt lat="46.0381" lon="4.54066">
        <ele>743</ele>
        <time>2016-11-27T11:20:41.000Z</time>
      </trkpt>
      <trkpt lat="46.03809" lon="4.54064">
        <ele>743</ele>
        <time>2016-11-27T11:20:42.000Z</time>
      </trkpt>
      <trkpt lat="46.03808" lon="4.54063">
        <ele>743</ele>
        <time>2016-11-27T11:20:43.000Z</time>
      </trkpt>
      <trkpt lat="46.03807" lon="4.54062">
        <ele>743</ele>
        <time>2016-11-27T11:20:44.000Z</time>
      </trkpt>
      <trkpt lat="46.03806" lon="4.5406">
        <ele>743</ele>
        <time>2016-11-27T11:20:45.000Z</time>
      </trkpt>
      <trkpt lat="46.03805" lon="4.54059">
        <ele>744</ele>
        <time>2016-11-27T11:20:46.000Z</time>
      </trkpt>
      <trkpt lat="46.03804" lon="4.54057">
        <ele>744</ele>
        <time>2016-11-27T11:20:47.000Z</time>
      </trkpt>
      <trkpt lat="46.03803" lon="4.54056">
        <ele>744</ele>
        <time>2016-11-27T11:20:48.000Z</time>
      </trkpt>
      <trkpt lat="46.03802" lon="4.54055">
        <ele>744</ele>
        <time>2016-11-27T11:20:49.000Z</time>
      </trkpt>
      <trkpt lat="46.03801" lon="4.54053">
        <ele>745</ele>
        <time>2016-11-27T11:20:50.000Z</time>
      </trkpt>
      <trkpt lat="46.038" lon="4.54052">
        <ele>745</ele>
        <time>2016-11-27T11:20:51.000Z</time>
      </trkpt>
      <trkpt lat="46.03799" lon="4.54051">
        <ele>745</ele>
        <time>2016-11-27T11:20:52.000Z</time>
      </trkpt>
      <trkpt lat="46.03798" lon="4.5405">
        <ele>746</ele>
        <time>2016-11-27T11:20:53.000Z</time>
      </trkpt>
      <trkpt lat="46.03797" lon="4.54048">
        <ele>746</ele>
        <time>2016-11-27T11:20:54.000Z</time>
      </trkpt>
      <trkpt lat="46.03796" lon="4.54047">
        <ele>746</ele>
        <time>2016-11-27T11:20:55.000Z</time>
      </trkpt>
      <trkpt lat="46.03795" lon="4.54046">
        <ele>747</ele>
        <time>2016-11-27T11:20:56.000Z</time>
      </trkpt>
      <trkpt lat="46.03794" lon="4.54045">
        <ele>747</ele>
        <time>2016-11-27T11:20:57.000Z</time>
      </trkpt>
      <trkpt lat="46.03793" lon="4.54043">
        <ele>747</ele>
        <time>2016-11-27T11:20:58.000Z</time>
      </trkpt>
      <trkpt lat="46.03792" lon="4.54042">
        <ele>747</ele>
        <time>2016-11-27T11:20:59.000Z</time>
      </trkpt>
      <trkpt lat="46.03791" lon="4.54041">
        <ele>747</ele>
        <time>2016-11-27T11:21:00.000Z</time>
      </trkpt>
      <trkpt lat="46.03791" lon="4.54039">
        <ele>747</ele>
        <time>2016-11-27T11:21:01.000Z</time>
      </trkpt>
      <trkpt lat="46.0379" lon="4.54038">
        <ele>747</ele>
        <time>2016-11-27T11:21:02.000Z</time>
      </trkpt>
      <trkpt lat="46.03789" lon="4.54037">
        <ele>746</ele>
        <time>2016-11-27T11:21:03.000Z</time>
      </trkpt>
      <trkpt lat="46.03788" lon="4.54035">
        <ele>747</ele>
        <time>2016-11-27T11:21:04.000Z</time>
      </trkpt>
      <trkpt lat="46.03787" lon="4.54034">
        <ele>747</ele>
        <time>2016-11-27T11:21:05.000Z</time>
      </trkpt>
      <trkpt lat="46.03786" lon="4.54033">
        <ele>747</ele>
        <time>2016-11-27T11:21:06.000Z</time>
      </trkpt>
      <trkpt lat="46.03785" lon="4.54031">
        <ele>748</ele>
        <time>2016-11-27T11:21:07.000Z</time>
      </trkpt>
      <trkpt lat="46.03784" lon="4.5403">
        <ele>748</ele>
        <time>2016-11-27T11:21:08.000Z</time>
      </trkpt>
      <trkpt lat="46.03783" lon="4.54029">
        <ele>748</ele>
        <time>2016-11-27T11:21:09.000Z</time>
      </trkpt>
      <trkpt lat="46.03782" lon="4.54028">
        <ele>748</ele>
        <time>2016-11-27T11:21:10.000Z</time>
      </trkpt>
      <trkpt lat="46.03781" lon="4.54027">
        <ele>748</ele>
        <time>2016-11-27T11:21:11.000Z</time>
      </trkpt>
      <trkpt lat="46.0378" lon="4.54025">
        <ele>748</ele>
        <time>2016-11-27T11:21:12.000Z</time>
      </trkpt>
      <trkpt lat="46.03779" lon="4.54024">
        <ele>749</ele>
        <time>2016-11-27T11:21:13.000Z</time>
      </trkpt>
      <trkpt lat="46.03778" lon="4.54023">
        <ele>749</ele>
        <time>2016-11-27T11:21:14.000Z</time>
      </trkpt>
      <trkpt lat="46.03777" lon="4.54021">
        <ele>749</ele>
        <time>2016-11-27T11:21:15.000Z</time>
      </trkpt>
      <trkpt lat="46.03776" lon="4.5402">
        <ele>749</ele>
        <time>2016-11-27T11:21:16.000Z</time>
      </trkpt>
      <trkpt lat="46.03775" lon="4.54018">
        <ele>749</ele>
        <time>2016-11-27T11:21:17.000Z</time>
      </trkpt>
      <trkpt lat="46.03774" lon="4.54017">
        <ele>750</ele>
        <time>2016-11-27T11:21:18.000Z</time>
      </trkpt>
      <trkpt lat="46.03773" lon="4.54015">
        <ele>750</ele>
        <time>2016-11-27T11:21:19.000Z</time>
      </trkpt>
      <trkpt lat="46.03772" lon="4.54014">
        <ele>750</ele>
        <time>2016-11-27T11:21:20.000Z</time>
      </trkpt>
      <trkpt lat="46.03771" lon="4.54012">
        <ele>750</ele>
        <time>2016-11-27T11:21:21.000Z</time>
      </trkpt>
      <trkpt lat="46.0377" lon="4.54011">
        <ele>750</ele>
        <time>2016-11-27T11:21:22.000Z</time>
      </trkpt>
      <trkpt lat="46.03768" lon="4.54009">
        <ele>750</ele>
        <time>2016-11-27T11:21:23.000Z</time>
      </trkpt>
      <trkpt lat="46.03767" lon="4.54008">
        <ele>750</ele>
        <time>2016-11-27T11:21:24.000Z</time>
      </trkpt>
      <trkpt lat="46.03766" lon="4.54006">
        <ele>750</ele>
        <time>2016-11-27T11:21:25.000Z</time>
      </trkpt>
      <trkpt lat="46.03765" lon="4.54005">
        <ele>750</ele>
        <time>2016-11-27T11:21:26.000Z</time>
      </trkpt>
      <trkpt lat="46.03764" lon="4.54004">
        <ele>750</ele>
        <time>2016-11-27T11:21:27.000Z</time>
      </trkpt>
      <trkpt lat="46.03763" lon="4.54002">
        <ele>751</ele>
        <time>2016-11-27T11:21:28.000Z</time>
      </trkpt>
      <trkpt lat="46.03762" lon="4.54">
        <ele>751</ele>
        <time>2016-11-27T11:21:29.000Z</time>
      </trkpt>
      <trkpt lat="46.03761" lon="4.53999">
        <ele>751</ele>
        <time>2016-11-27T11:21:30.000Z</time>
      </trkpt>
      <trkpt lat="46.0376" lon="4.53997">
        <ele>751</ele>
        <time>2016-11-27T11:21:31.000Z</time>
      </trkpt>
      <trkpt lat="46.03759" lon="4.53996">
        <ele>751</ele>
        <time>2016-11-27T11:21:32.000Z</time>
      </trkpt>
      <trkpt lat="46.03758" lon="4.53994">
        <ele>751</ele>
        <time>2016-11-27T11:21:33.000Z</time>
      </trkpt>
      <trkpt lat="46.03757" lon="4.53992">
        <ele>751</ele>
        <time>2016-11-27T11:21:34.000Z</time>
      </trkpt>
      <trkpt lat="46.03756" lon="4.5399">
        <ele>751</ele>
        <time>2016-11-27T11:21:35.000Z</time>
      </trkpt>
      <trkpt lat="46.03755" lon="4.53989">
        <ele>751</ele>
        <time>2016-11-27T11:21:36.000Z</time>
      </trkpt>
      <trkpt lat="46.03754" lon="4.53987">
        <ele>752</ele>
        <time>2016-11-27T11:21:37.000Z</time>
      </trkpt>
      <trkpt lat="46.03753" lon="4.53985">
        <ele>752</ele>
        <time>2016-11-27T11:21:38.000Z</time>
      </trkpt>
      <trkpt lat="46.03752" lon="4.53984">
        <ele>752</ele>
        <time>2016-11-27T11:21:39.000Z</time>
      </trkpt>
      <trkpt lat="46.03751" lon="4.53982">
        <ele>752</ele>
        <time>2016-11-27T11:21:40.000Z</time>
      </trkpt>
      <trkpt lat="46.03751" lon="4.5398">
        <ele>752</ele>
        <time>2016-11-27T11:21:41.000Z</time>
      </trkpt>
      <trkpt lat="46.0375" lon="4.53978">
        <ele>752</ele>
        <time>2016-11-27T11:21:42.000Z</time>
      </trkpt>
      <trkpt lat="46.0375" lon="4.53976">
        <ele>752</ele>
        <time>2016-11-27T11:21:43.000Z</time>
      </trkpt>
      <trkpt lat="46.03749" lon="4.53974">
        <ele>752</ele>
        <time>2016-11-27T11:21:44.000Z</time>
      </trkpt>
      <trkpt lat="46.03749" lon="4.53972">
        <ele>752</ele>
        <time>2016-11-27T11:21:45.000Z</time>
      </trkpt>
      <trkpt lat="46.03748" lon="4.5397">
        <ele>752</ele>
        <time>2016-11-27T11:21:46.000Z</time>
      </trkpt>
      <trkpt lat="46.03748" lon="4.53968">
        <ele>752</ele>
        <time>2016-11-27T11:21:47.000Z</time>
      </trkpt>
      <trkpt lat="46.03748" lon="4.53966">
        <ele>753</ele>
        <time>2016-11-27T11:21:48.000Z</time>
      </trkpt>
      <trkpt lat="46.03747" lon="4.53964">
        <ele>753</ele>
        <time>2016-11-27T11:21:49.000Z</time>
      </trkpt>
      <trkpt lat="46.03747" lon="4.53962">
        <ele>753</ele>
        <time>2016-11-27T11:21:50.000Z</time>
      </trkpt>
      <trkpt lat="46.03747" lon="4.5396">
        <ele>753</ele>
        <time>2016-11-27T11:21:51.000Z</time>
      </trkpt>
      <trkpt lat="46.03747" lon="4.53957">
        <ele>753</ele>
        <time>2016-11-27T11:21:52.000Z</time>
      </trkpt>
      <trkpt lat="46.03747" lon="4.53955">
        <ele>753</ele>
        <time>2016-11-27T11:21:53.000Z</time>
      </trkpt>
      <trkpt lat="46.03747" lon="4.53953">
        <ele>753</ele>
        <time>2016-11-27T11:21:54.000Z</time>
      </trkpt>
      <trkpt lat="46.03747" lon="4.53951">
        <ele>753</ele>
        <time>2016-11-27T11:21:55.000Z</time>
      </trkpt>
      <trkpt lat="46.03747" lon="4.53949">
        <ele>753</ele>
        <time>2016-11-27T11:21:56.000Z</time>
      </trkpt>
      <trkpt lat="46.03747" lon="4.53947">
        <ele>753</ele>
        <time>2016-11-27T11:21:57.000Z</time>
      </trkpt>
      <trkpt lat="46.03747" lon="4.53945">
        <ele>753</ele>
        <time>2016-11-27T11:21:58.000Z</time>
      </trkpt>
      <trkpt lat="46.03747" lon="4.53942">
        <ele>753</ele>
        <time>2016-11-27T11:21:59.000Z</time>
      </trkpt>
      <trkpt lat="46.03747" lon="4.5394">
        <ele>754</ele>
        <time>2016-11-27T11:22:00.000Z</time>
      </trkpt>
      <trkpt lat="46.03747" lon="4.53938">
        <ele>753</ele>
        <time>2016-11-27T11:22:01.000Z</time>
      </trkpt>
      <trkpt lat="46.03748" lon="4.53936">
        <ele>754</ele>
        <time>2016-11-27T11:22:02.000Z</time>
      </trkpt>
      <trkpt lat="46.03748" lon="4.53934">
        <ele>753</ele>
        <time>2016-11-27T11:22:03.000Z</time>
      </trkpt>
      <trkpt lat="46.03748" lon="4.53932">
        <ele>753</ele>
        <time>2016-11-27T11:22:04.000Z</time>
      </trkpt>
      <trkpt lat="46.03748" lon="4.5393">
        <ele>753</ele>
        <time>2016-11-27T11:22:05.000Z</time>
      </trkpt>
      <trkpt lat="46.03749" lon="4.53928">
        <ele>753</ele>
        <time>2016-11-27T11:22:06.000Z</time>
      </trkpt>
      <trkpt lat="46.03749" lon="4.53926">
        <ele>753</ele>
        <time>2016-11-27T11:22:07.000Z</time>
      </trkpt>
      <trkpt lat="46.03749" lon="4.53924">
        <ele>753</ele>
        <time>2016-11-27T11:22:08.000Z</time>
      </trkpt>
      <trkpt lat="46.0375" lon="4.53922">
        <ele>754</ele>
        <time>2016-11-27T11:22:09.000Z</time>
      </trkpt>
      <trkpt lat="46.0375" lon="4.5392">
        <ele>754</ele>
        <time>2016-11-27T11:22:10.000Z</time>
      </trkpt>
      <trkpt lat="46.03751" lon="4.53917">
        <ele>754</ele>
        <time>2016-11-27T11:22:11.000Z</time>
      </trkpt>
      <trkpt lat="46.03751" lon="4.53915">
        <ele>754</ele>
        <time>2016-11-27T11:22:12.000Z</time>
      </trkpt>
      <trkpt lat="46.03752" lon="4.53913">
        <ele>754</ele>
        <time>2016-11-27T11:22:13.000Z</time>
      </trkpt>
      <trkpt lat="46.03752" lon="4.53911">
        <ele>754</ele>
        <time>2016-11-27T11:22:14.000Z</time>
      </trkpt>
      <trkpt lat="46.03753" lon="4.53909">
        <ele>754</ele>
        <time>2016-11-27T11:22:15.000Z</time>
      </trkpt>
      <trkpt lat="46.03753" lon="4.53907">
        <ele>754</ele>
        <time>2016-11-27T11:22:16.000Z</time>
      </trkpt>
      <trkpt lat="46.03753" lon="4.53905">
        <ele>754</ele>
        <time>2016-11-27T11:22:17.000Z</time>
      </trkpt>
      <trkpt lat="46.03754" lon="4.53903">
        <ele>754</ele>
        <time>2016-11-27T11:22:18.000Z</time>
      </trkpt>
      <trkpt lat="46.03754" lon="4.53901">
        <ele>754</ele>
        <time>2016-11-27T11:22:19.000Z</time>
      </trkpt>
      <trkpt lat="46.03755" lon="4.53899">
        <ele>754</ele>
        <time>2016-11-27T11:22:20.000Z</time>
      </trkpt>
      <trkpt lat="46.03756" lon="4.53897">
        <ele>754</ele>
        <time>2016-11-27T11:22:21.000Z</time>
      </trkpt>
      <trkpt lat="46.03756" lon="4.53895">
        <ele>754</ele>
        <time>2016-11-27T11:22:22.000Z</time>
      </trkpt>
      <trkpt lat="46.03757" lon="4.53893">
        <ele>754</ele>
        <time>2016-11-27T11:22:23.000Z</time>
      </trkpt>
      <trkpt lat="46.03757" lon="4.53891">
        <ele>754</ele>
        <time>2016-11-27T11:22:24.000Z</time>
      </trkpt>
      <trkpt lat="46.03758" lon="4.53889">
        <ele>753</ele>
        <time>2016-11-27T11:22:25.000Z</time>
      </trkpt>
      <trkpt lat="46.03758" lon="4.53887">
        <ele>754</ele>
        <time>2016-11-27T11:22:26.000Z</time>
      </trkpt>
      <trkpt lat="46.03759" lon="4.53884">
        <ele>754</ele>
        <time>2016-11-27T11:22:27.000Z</time>
      </trkpt>
      <trkpt lat="46.0376" lon="4.53882">
        <ele>754</ele>
        <time>2016-11-27T11:22:28.000Z</time>
      </trkpt>
      <trkpt lat="46.03761" lon="4.5388">
        <ele>753</ele>
        <time>2016-11-27T11:22:29.000Z</time>
      </trkpt>
      <trkpt lat="46.03762" lon="4.53878">
        <ele>753</ele>
        <time>2016-11-27T11:22:30.000Z</time>
      </trkpt>
      <trkpt lat="46.03764" lon="4.53876">
        <ele>753</ele>
        <time>2016-11-27T11:22:31.000Z</time>
      </trkpt>
      <trkpt lat="46.03766" lon="4.53873">
        <ele>753</ele>
        <time>2016-11-27T11:22:32.000Z</time>
      </trkpt>
      <trkpt lat="46.03767" lon="4.53871">
        <ele>753</ele>
        <time>2016-11-27T11:22:33.000Z</time>
      </trkpt>
      <trkpt lat="46.0377" lon="4.53868">
        <ele>753</ele>
        <time>2016-11-27T11:22:34.000Z</time>
      </trkpt>
      <trkpt lat="46.03772" lon="4.53865">
        <ele>753</ele>
        <time>2016-11-27T11:22:35.000Z</time>
      </trkpt>
      <trkpt lat="46.03774" lon="4.53862">
        <ele>753</ele>
        <time>2016-11-27T11:22:36.000Z</time>
      </trkpt>
      <trkpt lat="46.03776" lon="4.5386">
        <ele>753</ele>
        <time>2016-11-27T11:22:37.000Z</time>
      </trkpt>
      <trkpt lat="46.03779" lon="4.53857">
        <ele>754</ele>
        <time>2016-11-27T11:22:38.000Z</time>
      </trkpt>
      <trkpt lat="46.03781" lon="4.53854">
        <ele>753</ele>
        <time>2016-11-27T11:22:39.000Z</time>
      </trkpt>
      <trkpt lat="46.03784" lon="4.53852">
        <ele>754</ele>
        <time>2016-11-27T11:22:40.000Z</time>
      </trkpt>
      <trkpt lat="46.03787" lon="4.53849">
        <ele>754</ele>
        <time>2016-11-27T11:22:41.000Z</time>
      </trkpt>
      <trkpt lat="46.03789" lon="4.53847">
        <ele>753</ele>
        <time>2016-11-27T11:22:42.000Z</time>
      </trkpt>
      <trkpt lat="46.03792" lon="4.53845">
        <ele>753</ele>
        <time>2016-11-27T11:22:43.000Z</time>
      </trkpt>
      <trkpt lat="46.03795" lon="4.53843">
        <ele>753</ele>
        <time>2016-11-27T11:22:44.000Z</time>
      </trkpt>
      <trkpt lat="46.03798" lon="4.53841">
        <ele>752</ele>
        <time>2016-11-27T11:22:45.000Z</time>
      </trkpt>
      <trkpt lat="46.038" lon="4.53838">
        <ele>752</ele>
        <time>2016-11-27T11:22:46.000Z</time>
      </trkpt>
      <trkpt lat="46.03803" lon="4.53836">
        <ele>753</ele>
        <time>2016-11-27T11:22:47.000Z</time>
      </trkpt>
      <trkpt lat="46.03806" lon="4.53834">
        <ele>753</ele>
        <time>2016-11-27T11:22:48.000Z</time>
      </trkpt>
      <trkpt lat="46.03809" lon="4.53832">
        <ele>752</ele>
        <time>2016-11-27T11:22:49.000Z</time>
      </trkpt>
      <trkpt lat="46.03812" lon="4.53829">
        <ele>752</ele>
        <time>2016-11-27T11:22:50.000Z</time>
      </trkpt>
      <trkpt lat="46.03815" lon="4.53827">
        <ele>752</ele>
        <time>2016-11-27T11:22:51.000Z</time>
      </trkpt>
      <trkpt lat="46.03817" lon="4.53825">
        <ele>752</ele>
        <time>2016-11-27T11:22:52.000Z</time>
      </trkpt>
      <trkpt lat="46.0382" lon="4.53823">
        <ele>751</ele>
        <time>2016-11-27T11:22:53.000Z</time>
      </trkpt>
      <trkpt lat="46.03823" lon="4.53821">
        <ele>750</ele>
        <time>2016-11-27T11:22:54.000Z</time>
      </trkpt>
      <trkpt lat="46.03826" lon="4.53819">
        <ele>750</ele>
        <time>2016-11-27T11:22:55.000Z</time>
      </trkpt>
      <trkpt lat="46.03829" lon="4.53817">
        <ele>749</ele>
        <time>2016-11-27T11:22:56.000Z</time>
      </trkpt>
      <trkpt lat="46.03832" lon="4.53815">
        <ele>749</ele>
        <time>2016-11-27T11:22:57.000Z</time>
      </trkpt>
      <trkpt lat="46.03835" lon="4.53813">
        <ele>749</ele>
        <time>2016-11-27T11:22:58.000Z</time>
      </trkpt>
      <trkpt lat="46.03838" lon="4.53811">
        <ele>749</ele>
        <time>2016-11-27T11:22:59.000Z</time>
      </trkpt>
      <trkpt lat="46.0384" lon="4.53809">
        <ele>749</ele>
        <time>2016-11-27T11:23:00.000Z</time>
      </trkpt>
      <trkpt lat="46.03843" lon="4.53807">
        <ele>748</ele>
        <time>2016-11-27T11:23:01.000Z</time>
      </trkpt>
      <trkpt lat="46.03846" lon="4.53805">
        <ele>747</ele>
        <time>2016-11-27T11:23:02.000Z</time>
      </trkpt>
      <trkpt lat="46.03848" lon="4.53803">
        <ele>747</ele>
        <time>2016-11-27T11:23:03.000Z</time>
      </trkpt>
      <trkpt lat="46.0385" lon="4.538">
        <ele>746</ele>
        <time>2016-11-27T11:23:04.000Z</time>
      </trkpt>
      <trkpt lat="46.03853" lon="4.53798">
        <ele>746</ele>
        <time>2016-11-27T11:23:05.000Z</time>
      </trkpt>
      <trkpt lat="46.03855" lon="4.53795">
        <ele>746</ele>
        <time>2016-11-27T11:23:06.000Z</time>
      </trkpt>
      <trkpt lat="46.03858" lon="4.53792">
        <ele>746</ele>
        <time>2016-11-27T11:23:07.000Z</time>
      </trkpt>
      <trkpt lat="46.0386" lon="4.53789">
        <ele>745</ele>
        <time>2016-11-27T11:23:08.000Z</time>
      </trkpt>
      <trkpt lat="46.03863" lon="4.53786">
        <ele>745</ele>
        <time>2016-11-27T11:23:09.000Z</time>
      </trkpt>
      <trkpt lat="46.03865" lon="4.53783">
        <ele>744</ele>
        <time>2016-11-27T11:23:10.000Z</time>
      </trkpt>
      <trkpt lat="46.03868" lon="4.5378">
        <ele>744</ele>
        <time>2016-11-27T11:23:11.000Z</time>
      </trkpt>
      <trkpt lat="46.0387" lon="4.53777">
        <ele>744</ele>
        <time>2016-11-27T11:23:12.000Z</time>
      </trkpt>
      <trkpt lat="46.03872" lon="4.53774">
        <ele>743</ele>
        <time>2016-11-27T11:23:13.000Z</time>
      </trkpt>
      <trkpt lat="46.03875" lon="4.53771">
        <ele>743</ele>
        <time>2016-11-27T11:23:14.000Z</time>
      </trkpt>
      <trkpt lat="46.03878" lon="4.53768">
        <ele>741</ele>
        <time>2016-11-27T11:23:15.000Z</time>
      </trkpt>
      <trkpt lat="46.03881" lon="4.53766">
        <ele>741</ele>
        <time>2016-11-27T11:23:16.000Z</time>
      </trkpt>
      <trkpt lat="46.03884" lon="4.53763">
        <ele>740</ele>
        <time>2016-11-27T11:23:17.000Z</time>
      </trkpt>
      <trkpt lat="46.03886" lon="4.5376">
        <ele>740</ele>
        <time>2016-11-27T11:23:18.000Z</time>
      </trkpt>
      <trkpt lat="46.03889" lon="4.53758">
        <ele>740</ele>
        <time>2016-11-27T11:23:19.000Z</time>
      </trkpt>
      <trkpt lat="46.03892" lon="4.53755">
        <ele>739</ele>
        <time>2016-11-27T11:23:20.000Z</time>
      </trkpt>
      <trkpt lat="46.03895" lon="4.53752">
        <ele>739</ele>
        <time>2016-11-27T11:23:21.000Z</time>
      </trkpt>
      <trkpt lat="46.03897" lon="4.5375">
        <ele>739</ele>
        <time>2016-11-27T11:23:22.000Z</time>
      </trkpt>
      <trkpt lat="46.039" lon="4.53748">
        <ele>739</ele>
        <time>2016-11-27T11:23:23.000Z</time>
      </trkpt>
      <trkpt lat="46.03902" lon="4.53747">
        <ele>739</ele>
        <time>2016-11-27T11:23:24.000Z</time>
      </trkpt>
      <trkpt lat="46.03905" lon="4.53745">
        <ele>739</ele>
        <time>2016-11-27T11:23:25.000Z</time>
      </trkpt>
      <trkpt lat="46.03907" lon="4.53744">
        <ele>738</ele>
        <time>2016-11-27T11:23:26.000Z</time>
      </trkpt>
      <trkpt lat="46.0391" lon="4.53742">
        <ele>739</ele>
        <time>2016-11-27T11:23:27.000Z</time>
      </trkpt>
      <trkpt lat="46.03912" lon="4.53741">
        <ele>739</ele>
        <time>2016-11-27T11:23:28.000Z</time>
      </trkpt>
      <trkpt lat="46.03915" lon="4.5374">
        <ele>739</ele>
        <time>2016-11-27T11:23:29.000Z</time>
      </trkpt>
      <trkpt lat="46.03918" lon="4.53738">
        <ele>739</ele>
        <time>2016-11-27T11:23:30.000Z</time>
      </trkpt>
      <trkpt lat="46.0392" lon="4.53736">
        <ele>739</ele>
        <time>2016-11-27T11:23:31.000Z</time>
      </trkpt>
      <trkpt lat="46.03923" lon="4.53735">
        <ele>739</ele>
        <time>2016-11-27T11:23:32.000Z</time>
      </trkpt>
      <trkpt lat="46.03925" lon="4.53734">
        <ele>738</ele>
        <time>2016-11-27T11:23:33.000Z</time>
      </trkpt>
      <trkpt lat="46.03928" lon="4.53734">
        <ele>737</ele>
        <time>2016-11-27T11:23:34.000Z</time>
      </trkpt>
      <trkpt lat="46.0393" lon="4.53734">
        <ele>736</ele>
        <time>2016-11-27T11:23:35.000Z</time>
      </trkpt>
      <trkpt lat="46.03933" lon="4.53734">
        <ele>736</ele>
        <time>2016-11-27T11:23:36.000Z</time>
      </trkpt>
      <trkpt lat="46.03935" lon="4.53733">
        <ele>735</ele>
        <time>2016-11-27T11:23:37.000Z</time>
      </trkpt>
      <trkpt lat="46.03937" lon="4.53733">
        <ele>735</ele>
        <time>2016-11-27T11:23:38.000Z</time>
      </trkpt>
      <trkpt lat="46.0394" lon="4.53732">
        <ele>734</ele>
        <time>2016-11-27T11:23:39.000Z</time>
      </trkpt>
      <trkpt lat="46.03943" lon="4.53732">
        <ele>734</ele>
        <time>2016-11-27T11:23:40.000Z</time>
      </trkpt>
      <trkpt lat="46.03947" lon="4.53732">
        <ele>733</ele>
        <time>2016-11-27T11:23:41.000Z</time>
      </trkpt>
      <trkpt lat="46.0395" lon="4.53732">
        <ele>731</ele>
        <time>2016-11-27T11:23:42.000Z</time>
      </trkpt>
      <trkpt lat="46.03954" lon="4.53732">
        <ele>730</ele>
        <time>2016-11-27T11:23:43.000Z</time>
      </trkpt>
      <trkpt lat="46.03957" lon="4.53732">
        <ele>730</ele>
        <time>2016-11-27T11:23:44.000Z</time>
      </trkpt>
      <trkpt lat="46.03959" lon="4.53731">
        <ele>729</ele>
        <time>2016-11-27T11:23:45.000Z</time>
      </trkpt>
      <trkpt lat="46.03962" lon="4.53731">
        <ele>728</ele>
        <time>2016-11-27T11:23:46.000Z</time>
      </trkpt>
      <trkpt lat="46.03965" lon="4.53731">
        <ele>728</ele>
        <time>2016-11-27T11:23:47.000Z</time>
      </trkpt>
      <trkpt lat="46.03968" lon="4.53731">
        <ele>727</ele>
        <time>2016-11-27T11:23:48.000Z</time>
      </trkpt>
      <trkpt lat="46.03971" lon="4.53731">
        <ele>727</ele>
        <time>2016-11-27T11:23:49.000Z</time>
      </trkpt>
      <trkpt lat="46.03974" lon="4.53731">
        <ele>728</ele>
        <time>2016-11-27T11:23:50.000Z</time>
      </trkpt>
      <trkpt lat="46.03976" lon="4.53731">
        <ele>727</ele>
        <time>2016-11-27T11:23:51.000Z</time>
      </trkpt>
      <trkpt lat="46.03979" lon="4.53731">
        <ele>726</ele>
        <time>2016-11-27T11:23:52.000Z</time>
      </trkpt>
      <trkpt lat="46.03981" lon="4.53731">
        <ele>725</ele>
        <time>2016-11-27T11:23:53.000Z</time>
      </trkpt>
      <trkpt lat="46.03984" lon="4.53731">
        <ele>725</ele>
        <time>2016-11-27T11:23:54.000Z</time>
      </trkpt>
      <trkpt lat="46.03987" lon="4.5373">
        <ele>724</ele>
        <time>2016-11-27T11:23:55.000Z</time>
      </trkpt>
      <trkpt lat="46.0399" lon="4.5373">
        <ele>723</ele>
        <time>2016-11-27T11:23:56.000Z</time>
      </trkpt>
      <trkpt lat="46.03993" lon="4.5373">
        <ele>723</ele>
        <time>2016-11-27T11:23:57.000Z</time>
      </trkpt>
      <trkpt lat="46.03995" lon="4.53729">
        <ele>721</ele>
        <time>2016-11-27T11:23:58.000Z</time>
      </trkpt>
      <trkpt lat="46.03998" lon="4.53726">
        <ele>721</ele>
        <time>2016-11-27T11:23:59.000Z</time>
      </trkpt>
      <trkpt lat="46.04" lon="4.53724">
        <ele>722</ele>
        <time>2016-11-27T11:24:00.000Z</time>
      </trkpt>
      <trkpt lat="46.04002" lon="4.5372">
        <ele>723</ele>
        <time>2016-11-27T11:24:01.000Z</time>
      </trkpt>
      <trkpt lat="46.04005" lon="4.53717">
        <ele>724</ele>
        <time>2016-11-27T11:24:02.000Z</time>
      </trkpt>
      <trkpt lat="46.04007" lon="4.53714">
        <ele>724</ele>
        <time>2016-11-27T11:24:03.000Z</time>
      </trkpt>
      <trkpt lat="46.04009" lon="4.5371">
        <ele>725</ele>
        <time>2016-11-27T11:24:04.000Z</time>
      </trkpt>
      <trkpt lat="46.04012" lon="4.53706">
        <ele>725</ele>
        <time>2016-11-27T11:24:05.000Z</time>
      </trkpt>
      <trkpt lat="46.04014" lon="4.53703">
        <ele>725</ele>
        <time>2016-11-27T11:24:06.000Z</time>
      </trkpt>
      <trkpt lat="46.04017" lon="4.537">
        <ele>725</ele>
        <time>2016-11-27T11:24:07.000Z</time>
      </trkpt>
      <trkpt lat="46.04019" lon="4.53695">
        <ele>727</ele>
        <time>2016-11-27T11:24:08.000Z</time>
      </trkpt>
      <trkpt lat="46.04021" lon="4.53691">
        <ele>727</ele>
        <time>2016-11-27T11:24:09.000Z</time>
      </trkpt>
      <trkpt lat="46.04023" lon="4.53687">
        <ele>727</ele>
        <time>2016-11-27T11:24:10.000Z</time>
      </trkpt>
      <trkpt lat="46.04025" lon="4.53683">
        <ele>727</ele>
        <time>2016-11-27T11:24:11.000Z</time>
      </trkpt>
      <trkpt lat="46.04026" lon="4.5368">
        <ele>727</ele>
        <time>2016-11-27T11:24:12.000Z</time>
      </trkpt>
      <trkpt lat="46.04028" lon="4.53676">
        <ele>727</ele>
        <time>2016-11-27T11:24:13.000Z</time>
      </trkpt>
      <trkpt lat="46.04029" lon="4.53672">
        <ele>726</ele>
        <time>2016-11-27T11:24:14.000Z</time>
      </trkpt>
      <trkpt lat="46.04029" lon="4.53668">
        <ele>728</ele>
        <time>2016-11-27T11:24:15.000Z</time>
      </trkpt>
      <trkpt lat="46.0403" lon="4.53663">
        <ele>729</ele>
        <time>2016-11-27T11:24:16.000Z</time>
      </trkpt>
      <trkpt lat="46.0403" lon="4.53658">
        <ele>729</ele>
        <time>2016-11-27T11:24:17.000Z</time>
      </trkpt>
      <trkpt lat="46.04031" lon="4.53654">
        <ele>728</ele>
        <time>2016-11-27T11:24:18.000Z</time>
      </trkpt>
      <trkpt lat="46.04032" lon="4.5365">
        <ele>728</ele>
        <time>2016-11-27T11:24:19.000Z</time>
      </trkpt>
      <trkpt lat="46.04033" lon="4.53647">
        <ele>728</ele>
        <time>2016-11-27T11:24:20.000Z</time>
      </trkpt>
      <trkpt lat="46.04034" lon="4.53643">
        <ele>728</ele>
        <time>2016-11-27T11:24:21.000Z</time>
      </trkpt>
      <trkpt lat="46.04035" lon="4.53638">
        <ele>729</ele>
        <time>2016-11-27T11:24:22.000Z</time>
      </trkpt>
      <trkpt lat="46.04035" lon="4.53633">
        <ele>729</ele>
        <time>2016-11-27T11:24:23.000Z</time>
      </trkpt>
      <trkpt lat="46.04036" lon="4.53629">
        <ele>729</ele>
        <time>2016-11-27T11:24:24.000Z</time>
      </trkpt>
      <trkpt lat="46.04036" lon="4.53625">
        <ele>729</ele>
        <time>2016-11-27T11:24:25.000Z</time>
      </trkpt>
      <trkpt lat="46.04036" lon="4.53621">
        <ele>729</ele>
        <time>2016-11-27T11:24:26.000Z</time>
      </trkpt>
      <trkpt lat="46.04037" lon="4.53617">
        <ele>729</ele>
        <time>2016-11-27T11:24:27.000Z</time>
      </trkpt>
      <trkpt lat="46.04037" lon="4.53612">
        <ele>729</ele>
        <time>2016-11-27T11:24:28.000Z</time>
      </trkpt>
      <trkpt lat="46.04038" lon="4.53608">
        <ele>730</ele>
        <time>2016-11-27T11:24:29.000Z</time>
      </trkpt>
      <trkpt lat="46.04038" lon="4.53603">
        <ele>729</ele>
        <time>2016-11-27T11:24:30.000Z</time>
      </trkpt>
      <trkpt lat="46.04038" lon="4.53599">
        <ele>730</ele>
        <time>2016-11-27T11:24:31.000Z</time>
      </trkpt>
      <trkpt lat="46.04039" lon="4.53595">
        <ele>730</ele>
        <time>2016-11-27T11:24:32.000Z</time>
      </trkpt>
      <trkpt lat="46.04039" lon="4.5359">
        <ele>730</ele>
        <time>2016-11-27T11:24:33.000Z</time>
      </trkpt>
      <trkpt lat="46.04039" lon="4.53586">
        <ele>729</ele>
        <time>2016-11-27T11:24:34.000Z</time>
      </trkpt>
      <trkpt lat="46.04039" lon="4.53582">
        <ele>730</ele>
        <time>2016-11-27T11:24:35.000Z</time>
      </trkpt>
      <trkpt lat="46.04039" lon="4.53578">
        <ele>729</ele>
        <time>2016-11-27T11:24:36.000Z</time>
      </trkpt>
      <trkpt lat="46.0404" lon="4.53574">
        <ele>729</ele>
        <time>2016-11-27T11:24:37.000Z</time>
      </trkpt>
      <trkpt lat="46.0404" lon="4.5357">
        <ele>728</ele>
        <time>2016-11-27T11:24:38.000Z</time>
      </trkpt>
      <trkpt lat="46.0404" lon="4.53566">
        <ele>729</ele>
        <time>2016-11-27T11:24:39.000Z</time>
      </trkpt>
      <trkpt lat="46.0404" lon="4.53561">
        <ele>730</ele>
        <time>2016-11-27T11:24:40.000Z</time>
      </trkpt>
      <trkpt lat="46.0404" lon="4.53557">
        <ele>731</ele>
        <time>2016-11-27T11:24:41.000Z</time>
      </trkpt>
      <trkpt lat="46.0404" lon="4.53553">
        <ele>731</ele>
        <time>2016-11-27T11:24:42.000Z</time>
      </trkpt>
      <trkpt lat="46.0404" lon="4.53549">
        <ele>730</ele>
        <time>2016-11-27T11:24:43.000Z</time>
      </trkpt>
      <trkpt lat="46.04041" lon="4.53545">
        <ele>730</ele>
        <time>2016-11-27T11:24:44.000Z</time>
      </trkpt>
      <trkpt lat="46.04041" lon="4.53541">
        <ele>731</ele>
        <time>2016-11-27T11:24:45.000Z</time>
      </trkpt>
      <trkpt lat="46.04041" lon="4.53537">
        <ele>732</ele>
        <time>2016-11-27T11:24:46.000Z</time>
      </trkpt>
      <trkpt lat="46.04041" lon="4.53533">
        <ele>730</ele>
        <time>2016-11-27T11:24:47.000Z</time>
      </trkpt>
      <trkpt lat="46.04042" lon="4.53529">
        <ele>729</ele>
        <time>2016-11-27T11:24:48.000Z</time>
      </trkpt>
      <trkpt lat="46.04043" lon="4.53525">
        <ele>729</ele>
        <time>2016-11-27T11:24:49.000Z</time>
      </trkpt>
      <trkpt lat="46.04044" lon="4.5352">
        <ele>728</ele>
        <time>2016-11-27T11:24:50.000Z</time>
      </trkpt>
      <trkpt lat="46.04045" lon="4.53515">
        <ele>730</ele>
        <time>2016-11-27T11:24:51.000Z</time>
      </trkpt>
      <trkpt lat="46.04046" lon="4.53511">
        <ele>729</ele>
        <time>2016-11-27T11:24:52.000Z</time>
      </trkpt>
      <trkpt lat="46.04047" lon="4.53506">
        <ele>730</ele>
        <time>2016-11-27T11:24:53.000Z</time>
      </trkpt>
      <trkpt lat="46.04048" lon="4.53502">
        <ele>729</ele>
        <time>2016-11-27T11:24:54.000Z</time>
      </trkpt>
      <trkpt lat="46.04049" lon="4.53498">
        <ele>727</ele>
        <time>2016-11-27T11:24:55.000Z</time>
      </trkpt>
      <trkpt lat="46.04051" lon="4.53494">
        <ele>727</ele>
        <time>2016-11-27T11:24:56.000Z</time>
      </trkpt>
      <trkpt lat="46.04052" lon="4.5349">
        <ele>728</ele>
        <time>2016-11-27T11:24:57.000Z</time>
      </trkpt>
      <trkpt lat="46.04053" lon="4.53486">
        <ele>727</ele>
        <time>2016-11-27T11:24:58.000Z</time>
      </trkpt>
      <trkpt lat="46.04054" lon="4.53482">
        <ele>726</ele>
        <time>2016-11-27T11:24:59.000Z</time>
      </trkpt>
      <trkpt lat="46.04055" lon="4.53478">
        <ele>727</ele>
        <time>2016-11-27T11:25:00.000Z</time>
      </trkpt>
      <trkpt lat="46.04055" lon="4.53474">
        <ele>727</ele>
        <time>2016-11-27T11:25:01.000Z</time>
      </trkpt>
      <trkpt lat="46.04056" lon="4.53469">
        <ele>727</ele>
        <time>2016-11-27T11:25:02.000Z</time>
      </trkpt>
      <trkpt lat="46.04057" lon="4.53466">
        <ele>726</ele>
        <time>2016-11-27T11:25:03.000Z</time>
      </trkpt>
      <trkpt lat="46.04058" lon="4.53462">
        <ele>726</ele>
        <time>2016-11-27T11:25:04.000Z</time>
      </trkpt>
      <trkpt lat="46.0406" lon="4.53458">
        <ele>725</ele>
        <time>2016-11-27T11:25:05.000Z</time>
      </trkpt>
      <trkpt lat="46.04061" lon="4.53455">
        <ele>724</ele>
        <time>2016-11-27T11:25:06.000Z</time>
      </trkpt>
      <trkpt lat="46.04062" lon="4.53451">
        <ele>724</ele>
        <time>2016-11-27T11:25:07.000Z</time>
      </trkpt>
      <trkpt lat="46.04064" lon="4.53448">
        <ele>725</ele>
        <time>2016-11-27T11:25:08.000Z</time>
      </trkpt>
      <trkpt lat="46.04065" lon="4.53445">
        <ele>725</ele>
        <time>2016-11-27T11:25:09.000Z</time>
      </trkpt>
      <trkpt lat="46.04067" lon="4.53442">
        <ele>724</ele>
        <time>2016-11-27T11:25:10.000Z</time>
      </trkpt>
      <trkpt lat="46.04068" lon="4.53439">
        <ele>724</ele>
        <time>2016-11-27T11:25:11.000Z</time>
      </trkpt>
      <trkpt lat="46.04069" lon="4.53435">
        <ele>723</ele>
        <time>2016-11-27T11:25:12.000Z</time>
      </trkpt>
      <trkpt lat="46.0407" lon="4.53431">
        <ele>723</ele>
        <time>2016-11-27T11:25:13.000Z</time>
      </trkpt>
      <trkpt lat="46.04071" lon="4.53427">
        <ele>722</ele>
        <time>2016-11-27T11:25:14.000Z</time>
      </trkpt>
      <trkpt lat="46.04073" lon="4.53424">
        <ele>722</ele>
        <time>2016-11-27T11:25:15.000Z</time>
      </trkpt>
      <trkpt lat="46.04074" lon="4.5342">
        <ele>722</ele>
        <time>2016-11-27T11:25:16.000Z</time>
      </trkpt>
      <trkpt lat="46.04075" lon="4.53417">
        <ele>722</ele>
        <time>2016-11-27T11:25:17.000Z</time>
      </trkpt>
      <trkpt lat="46.04076" lon="4.53412">
        <ele>722</ele>
        <time>2016-11-27T11:25:18.000Z</time>
      </trkpt>
      <trkpt lat="46.04077" lon="4.53408">
        <ele>723</ele>
        <time>2016-11-27T11:25:19.000Z</time>
      </trkpt>
      <trkpt lat="46.04078" lon="4.53404">
        <ele>722</ele>
        <time>2016-11-27T11:25:20.000Z</time>
      </trkpt>
      <trkpt lat="46.04079" lon="4.534">
        <ele>722</ele>
        <time>2016-11-27T11:25:21.000Z</time>
      </trkpt>
      <trkpt lat="46.04081" lon="4.53396">
        <ele>721</ele>
        <time>2016-11-27T11:25:22.000Z</time>
      </trkpt>
      <trkpt lat="46.04082" lon="4.53393">
        <ele>719</ele>
        <time>2016-11-27T11:25:23.000Z</time>
      </trkpt>
      <trkpt lat="46.04084" lon="4.5339">
        <ele>719</ele>
        <time>2016-11-27T11:25:24.000Z</time>
      </trkpt>
      <trkpt lat="46.04085" lon="4.53386">
        <ele>719</ele>
        <time>2016-11-27T11:25:25.000Z</time>
      </trkpt>
      <trkpt lat="46.04087" lon="4.53383">
        <ele>719</ele>
        <time>2016-11-27T11:25:26.000Z</time>
      </trkpt>
      <trkpt lat="46.04089" lon="4.5338">
        <ele>718</ele>
        <time>2016-11-27T11:25:27.000Z</time>
      </trkpt>
      <trkpt lat="46.04091" lon="4.53377">
        <ele>717</ele>
        <time>2016-11-27T11:25:28.000Z</time>
      </trkpt>
      <trkpt lat="46.04093" lon="4.53374">
        <ele>716</ele>
        <time>2016-11-27T11:25:29.000Z</time>
      </trkpt>
      <trkpt lat="46.04095" lon="4.53371">
        <ele>717</ele>
        <time>2016-11-27T11:25:30.000Z</time>
      </trkpt>
      <trkpt lat="46.04097" lon="4.53368">
        <ele>718</ele>
        <time>2016-11-27T11:25:31.000Z</time>
      </trkpt>
      <trkpt lat="46.04099" lon="4.53366">
        <ele>719</ele>
        <time>2016-11-27T11:25:32.000Z</time>
      </trkpt>
      <trkpt lat="46.04101" lon="4.53363">
        <ele>719</ele>
        <time>2016-11-27T11:25:33.000Z</time>
      </trkpt>
      <trkpt lat="46.04104" lon="4.53362">
        <ele>720</ele>
        <time>2016-11-27T11:25:34.000Z</time>
      </trkpt>
      <trkpt lat="46.04106" lon="4.5336">
        <ele>720</ele>
        <time>2016-11-27T11:25:35.000Z</time>
      </trkpt>
      <trkpt lat="46.04109" lon="4.5336">
        <ele>720</ele>
        <time>2016-11-27T11:25:36.000Z</time>
      </trkpt>
      <trkpt lat="46.04111" lon="4.53359">
        <ele>720</ele>
        <time>2016-11-27T11:25:37.000Z</time>
      </trkpt>
      <trkpt lat="46.04113" lon="4.53359">
        <ele>720</ele>
        <time>2016-11-27T11:25:38.000Z</time>
      </trkpt>
      <trkpt lat="46.04116" lon="4.5336">
        <ele>720</ele>
        <time>2016-11-27T11:25:39.000Z</time>
      </trkpt>
      <trkpt lat="46.04118" lon="4.5336">
        <ele>721</ele>
        <time>2016-11-27T11:25:40.000Z</time>
      </trkpt>
      <trkpt lat="46.04121" lon="4.5336">
        <ele>722</ele>
        <time>2016-11-27T11:25:41.000Z</time>
      </trkpt>
      <trkpt lat="46.04123" lon="4.53361">
        <ele>722</ele>
        <time>2016-11-27T11:25:42.000Z</time>
      </trkpt>
      <trkpt lat="46.04125" lon="4.53362">
        <ele>722</ele>
        <time>2016-11-27T11:25:43.000Z</time>
      </trkpt>
      <trkpt lat="46.04127" lon="4.53363">
        <ele>722</ele>
        <time>2016-11-27T11:25:44.000Z</time>
      </trkpt>
      <trkpt lat="46.04129" lon="4.53364">
        <ele>722</ele>
        <time>2016-11-27T11:25:45.000Z</time>
      </trkpt>
      <trkpt lat="46.04131" lon="4.53365">
        <ele>722</ele>
        <time>2016-11-27T11:25:46.000Z</time>
      </trkpt>
      <trkpt lat="46.04133" lon="4.53367">
        <ele>722</ele>
        <time>2016-11-27T11:25:47.000Z</time>
      </trkpt>
      <trkpt lat="46.04135" lon="4.53369">
        <ele>722</ele>
        <time>2016-11-27T11:25:48.000Z</time>
      </trkpt>
      <trkpt lat="46.04136" lon="4.53371">
        <ele>722</ele>
        <time>2016-11-27T11:25:49.000Z</time>
      </trkpt>
      <trkpt lat="46.04138" lon="4.53373">
        <ele>721</ele>
        <time>2016-11-27T11:25:50.000Z</time>
      </trkpt>
      <trkpt lat="46.0414" lon="4.53375">
        <ele>721</ele>
        <time>2016-11-27T11:25:51.000Z</time>
      </trkpt>
      <trkpt lat="46.04142" lon="4.53378">
        <ele>720</ele>
        <time>2016-11-27T11:25:52.000Z</time>
      </trkpt>
      <trkpt lat="46.04145" lon="4.5338">
        <ele>719</ele>
        <time>2016-11-27T11:25:53.000Z</time>
      </trkpt>
      <trkpt lat="46.04147" lon="4.53383">
        <ele>719</ele>
        <time>2016-11-27T11:25:54.000Z</time>
      </trkpt>
      <trkpt lat="46.04149" lon="4.53385">
        <ele>718</ele>
        <time>2016-11-27T11:25:55.000Z</time>
      </trkpt>
      <trkpt lat="46.04151" lon="4.53387">
        <ele>717</ele>
        <time>2016-11-27T11:25:56.000Z</time>
      </trkpt>
      <trkpt lat="46.04153" lon="4.53389">
        <ele>717</ele>
        <time>2016-11-27T11:25:57.000Z</time>
      </trkpt>
      <trkpt lat="46.04155" lon="4.53392">
        <ele>717</ele>
        <time>2016-11-27T11:25:58.000Z</time>
      </trkpt>
      <trkpt lat="46.04157" lon="4.53394">
        <ele>717</ele>
        <time>2016-11-27T11:25:59.000Z</time>
      </trkpt>
      <trkpt lat="46.04159" lon="4.53396">
        <ele>717</ele>
        <time>2016-11-27T11:26:00.000Z</time>
      </trkpt>
      <trkpt lat="46.04161" lon="4.53399">
        <ele>716</ele>
        <time>2016-11-27T11:26:01.000Z</time>
      </trkpt>
      <trkpt lat="46.04163" lon="4.53402">
        <ele>716</ele>
        <time>2016-11-27T11:26:02.000Z</time>
      </trkpt>
      <trkpt lat="46.04164" lon="4.53405">
        <ele>715</ele>
        <time>2016-11-27T11:26:03.000Z</time>
      </trkpt>
      <trkpt lat="46.04166" lon="4.53407">
        <ele>715</ele>
        <time>2016-11-27T11:26:04.000Z</time>
      </trkpt>
      <trkpt lat="46.04167" lon="4.53409">
        <ele>714</ele>
        <time>2016-11-27T11:26:05.000Z</time>
      </trkpt>
      <trkpt lat="46.04169" lon="4.53412">
        <ele>714</ele>
        <time>2016-11-27T11:26:06.000Z</time>
      </trkpt>
      <trkpt lat="46.0417" lon="4.53414">
        <ele>713</ele>
        <time>2016-11-27T11:26:07.000Z</time>
      </trkpt>
      <trkpt lat="46.04172" lon="4.53416">
        <ele>714</ele>
        <time>2016-11-27T11:26:08.000Z</time>
      </trkpt>
      <trkpt lat="46.04174" lon="4.53418">
        <ele>714</ele>
        <time>2016-11-27T11:26:09.000Z</time>
      </trkpt>
      <trkpt lat="46.04176" lon="4.5342">
        <ele>714</ele>
        <time>2016-11-27T11:26:10.000Z</time>
      </trkpt>
      <trkpt lat="46.04178" lon="4.53422">
        <ele>714</ele>
        <time>2016-11-27T11:26:11.000Z</time>
      </trkpt>
      <trkpt lat="46.04179" lon="4.53424">
        <ele>714</ele>
        <time>2016-11-27T11:26:12.000Z</time>
      </trkpt>
      <trkpt lat="46.04181" lon="4.53426">
        <ele>714</ele>
        <time>2016-11-27T11:26:13.000Z</time>
      </trkpt>
      <trkpt lat="46.04183" lon="4.53429">
        <ele>714</ele>
        <time>2016-11-27T11:26:14.000Z</time>
      </trkpt>
      <trkpt lat="46.04184" lon="4.53431">
        <ele>714</ele>
        <time>2016-11-27T11:26:15.000Z</time>
      </trkpt>
      <trkpt lat="46.04186" lon="4.53433">
        <ele>714</ele>
        <time>2016-11-27T11:26:16.000Z</time>
      </trkpt>
      <trkpt lat="46.04188" lon="4.53435">
        <ele>715</ele>
        <time>2016-11-27T11:26:17.000Z</time>
      </trkpt>
      <trkpt lat="46.04191" lon="4.53436">
        <ele>715</ele>
        <time>2016-11-27T11:26:18.000Z</time>
      </trkpt>
      <trkpt lat="46.04193" lon="4.53438">
        <ele>715</ele>
        <time>2016-11-27T11:26:19.000Z</time>
      </trkpt>
      <trkpt lat="46.04195" lon="4.5344">
        <ele>714</ele>
        <time>2016-11-27T11:26:20.000Z</time>
      </trkpt>
      <trkpt lat="46.04197" lon="4.53442">
        <ele>715</ele>
        <time>2016-11-27T11:26:21.000Z</time>
      </trkpt>
      <trkpt lat="46.042" lon="4.53444">
        <ele>716</ele>
        <time>2016-11-27T11:26:22.000Z</time>
      </trkpt>
      <trkpt lat="46.04203" lon="4.53446">
        <ele>717</ele>
        <time>2016-11-27T11:26:23.000Z</time>
      </trkpt>
      <trkpt lat="46.04206" lon="4.53448">
        <ele>718</ele>
        <time>2016-11-27T11:26:24.000Z</time>
      </trkpt>
      <trkpt lat="46.04208" lon="4.5345">
        <ele>718</ele>
        <time>2016-11-27T11:26:25.000Z</time>
      </trkpt>
      <trkpt lat="46.04211" lon="4.53451">
        <ele>719</ele>
        <time>2016-11-27T11:26:26.000Z</time>
      </trkpt>
      <trkpt lat="46.04213" lon="4.53453">
        <ele>719</ele>
        <time>2016-11-27T11:26:27.000Z</time>
      </trkpt>
      <trkpt lat="46.04214" lon="4.53453">
        <ele>720</ele>
        <time>2016-11-27T11:26:28.000Z</time>
      </trkpt>
      <trkpt lat="46.04215" lon="4.53453">
        <ele>720</ele>
        <time>2016-11-27T11:26:29.000Z</time>
      </trkpt>
      <trkpt lat="46.04216" lon="4.53454">
        <ele>720</ele>
        <time>2016-11-27T11:26:30.000Z</time>
      </trkpt>
      <trkpt lat="46.04218" lon="4.53455">
        <ele>721</ele>
        <time>2016-11-27T11:26:31.000Z</time>
      </trkpt>
      <trkpt lat="46.04219" lon="4.53456">
        <ele>722</ele>
        <time>2016-11-27T11:26:32.000Z</time>
      </trkpt>
      <trkpt lat="46.04221" lon="4.53457">
        <ele>722</ele>
        <time>2016-11-27T11:26:33.000Z</time>
      </trkpt>
      <trkpt lat="46.04222" lon="4.53458">
        <ele>723</ele>
        <time>2016-11-27T11:26:34.000Z</time>
      </trkpt>
      <trkpt lat="46.04223" lon="4.53459">
        <ele>723</ele>
        <time>2016-11-27T11:26:35.000Z</time>
      </trkpt>
      <trkpt lat="46.04225" lon="4.5346">
        <ele>723</ele>
        <time>2016-11-27T11:26:36.000Z</time>
      </trkpt>
      <trkpt lat="46.04226" lon="4.53461">
        <ele>723</ele>
        <time>2016-11-27T11:26:37.000Z</time>
      </trkpt>
      <trkpt lat="46.04228" lon="4.53462">
        <ele>724</ele>
        <time>2016-11-27T11:26:38.000Z</time>
      </trkpt>
      <trkpt lat="46.04229" lon="4.53463">
        <ele>724</ele>
        <time>2016-11-27T11:26:39.000Z</time>
      </trkpt>
      <trkpt lat="46.04231" lon="4.53464">
        <ele>724</ele>
        <time>2016-11-27T11:26:40.000Z</time>
      </trkpt>
      <trkpt lat="46.04232" lon="4.53465">
        <ele>724</ele>
        <time>2016-11-27T11:26:41.000Z</time>
      </trkpt>
      <trkpt lat="46.04232" lon="4.53466">
        <ele>724</ele>
        <time>2016-11-27T11:26:42.000Z</time>
      </trkpt>
      <trkpt lat="46.04233" lon="4.53467">
        <ele>724</ele>
        <time>2016-11-27T11:26:43.000Z</time>
      </trkpt>
      <trkpt lat="46.04234" lon="4.53468">
        <ele>725</ele>
        <time>2016-11-27T11:26:44.000Z</time>
      </trkpt>
      <trkpt lat="46.04235" lon="4.53469">
        <ele>725</ele>
        <time>2016-11-27T11:26:45.000Z</time>
      </trkpt>
      <trkpt lat="46.04236" lon="4.5347">
        <ele>725</ele>
        <time>2016-11-27T11:26:46.000Z</time>
      </trkpt>
      <trkpt lat="46.04237" lon="4.53471">
        <ele>726</ele>
        <time>2016-11-27T11:26:47.000Z</time>
      </trkpt>
      <trkpt lat="46.04237" lon="4.53473">
        <ele>726</ele>
        <time>2016-11-27T11:26:48.000Z</time>
      </trkpt>
      <trkpt lat="46.04238" lon="4.53474">
        <ele>726</ele>
        <time>2016-11-27T11:26:49.000Z</time>
      </trkpt>
      <trkpt lat="46.04239" lon="4.53474">
        <ele>726</ele>
        <time>2016-11-27T11:26:50.000Z</time>
      </trkpt>
      <trkpt lat="46.0424" lon="4.53475">
        <ele>726</ele>
        <time>2016-11-27T11:26:51.000Z</time>
      </trkpt>
      <trkpt lat="46.04241" lon="4.53476">
        <ele>726</ele>
        <time>2016-11-27T11:26:52.000Z</time>
      </trkpt>
      <trkpt lat="46.04241" lon="4.53478">
        <ele>727</ele>
        <time>2016-11-27T11:26:53.000Z</time>
      </trkpt>
      <trkpt lat="46.04242" lon="4.53479">
        <ele>727</ele>
        <time>2016-11-27T11:26:54.000Z</time>
      </trkpt>
      <trkpt lat="46.04243" lon="4.5348">
        <ele>727</ele>
        <time>2016-11-27T11:26:55.000Z</time>
      </trkpt>
      <trkpt lat="46.04244" lon="4.5348">
        <ele>727</ele>
        <time>2016-11-27T11:26:56.000Z</time>
      </trkpt>
      <trkpt lat="46.04244" lon="4.53481">
        <ele>727</ele>
        <time>2016-11-27T11:26:57.000Z</time>
      </trkpt>
      <trkpt lat="46.04245" lon="4.53482">
        <ele>727</ele>
        <time>2016-11-27T11:26:58.000Z</time>
      </trkpt>
      <trkpt lat="46.04244" lon="4.53482">
        <ele>727</ele>
        <time>2016-11-27T11:26:59.000Z</time>
      </trkpt>
      <trkpt lat="46.04244" lon="4.53483">
        <ele>727</ele>
        <time>2016-11-27T11:27:00.000Z</time>
      </trkpt>
      <trkpt lat="46.04244" lon="4.53483">
        <ele>727</ele>
        <time>2016-11-27T11:27:01.000Z</time>
      </trkpt>
      <trkpt lat="46.04244" lon="4.53483">
        <ele>728</ele>
        <time>2016-11-27T11:27:02.000Z</time>
      </trkpt>
      <trkpt lat="46.04244" lon="4.53483">
        <ele>729</ele>
        <time>2016-11-27T11:27:03.000Z</time>
      </trkpt>
      <trkpt lat="46.04243" lon="4.53482">
        <ele>730</ele>
        <time>2016-11-27T11:27:04.000Z</time>
      </trkpt>
      <trkpt lat="46.04243" lon="4.53482">
        <ele>730</ele>
        <time>2016-11-27T11:27:05.000Z</time>
      </trkpt>
      <trkpt lat="46.04243" lon="4.53482">
        <ele>730</ele>
        <time>2016-11-27T11:27:06.000Z</time>
      </trkpt>
      <trkpt lat="46.04243" lon="4.53483">
        <ele>730</ele>
        <time>2016-11-27T11:27:07.000Z</time>
      </trkpt>
      <trkpt lat="46.04242" lon="4.53484">
        <ele>731</ele>
        <time>2016-11-27T11:27:08.000Z</time>
      </trkpt>
      <trkpt lat="46.04242" lon="4.53484">
        <ele>730</ele>
        <time>2016-11-27T11:27:09.000Z</time>
      </trkpt>
      <trkpt lat="46.04243" lon="4.53486">
        <ele>730</ele>
        <time>2016-11-27T11:27:10.000Z</time>
      </trkpt>
      <trkpt lat="46.04243" lon="4.53487">
        <ele>730</ele>
        <time>2016-11-27T11:27:11.000Z</time>
      </trkpt>
      <trkpt lat="46.04243" lon="4.53488">
        <ele>731</ele>
        <time>2016-11-27T11:27:12.000Z</time>
      </trkpt>
      <trkpt lat="46.04243" lon="4.53489">
        <ele>730</ele>
        <time>2016-11-27T11:27:13.000Z</time>
      </trkpt>
      <trkpt lat="46.04244" lon="4.53489">
        <ele>731</ele>
        <time>2016-11-27T11:27:14.000Z</time>
      </trkpt>
      <trkpt lat="46.04244" lon="4.5349">
        <ele>732</ele>
        <time>2016-11-27T11:27:15.000Z</time>
      </trkpt>
      <trkpt lat="46.04244" lon="4.5349">
        <ele>732</ele>
        <time>2016-11-27T11:27:16.000Z</time>
      </trkpt>
      <trkpt lat="46.04245" lon="4.53491">
        <ele>733</ele>
        <time>2016-11-27T11:27:17.000Z</time>
      </trkpt>
      <trkpt lat="46.04245" lon="4.53492">
        <ele>733</ele>
        <time>2016-11-27T11:27:18.000Z</time>
      </trkpt>
      <trkpt lat="46.04245" lon="4.53492">
        <ele>734</ele>
        <time>2016-11-27T11:27:19.000Z</time>
      </trkpt>
      <trkpt lat="46.04245" lon="4.53493">
        <ele>736</ele>
        <time>2016-11-27T11:27:20.000Z</time>
      </trkpt>
      <trkpt lat="46.04245" lon="4.53493">
        <ele>736</ele>
        <time>2016-11-27T11:27:21.000Z</time>
      </trkpt>
      <trkpt lat="46.04246" lon="4.53494">
        <ele>736</ele>
        <time>2016-11-27T11:27:22.000Z</time>
      </trkpt>
      <trkpt lat="46.04246" lon="4.53495">
        <ele>737</ele>
        <time>2016-11-27T11:27:23.000Z</time>
      </trkpt>
      <trkpt lat="46.04247" lon="4.53496">
        <ele>738</ele>
        <time>2016-11-27T11:27:24.000Z</time>
      </trkpt>
      <trkpt lat="46.04247" lon="4.53497">
        <ele>739</ele>
        <time>2016-11-27T11:27:25.000Z</time>
      </trkpt>
      <trkpt lat="46.04247" lon="4.53498">
        <ele>739</ele>
        <time>2016-11-27T11:27:26.000Z</time>
      </trkpt>
      <trkpt lat="46.04247" lon="4.53499">
        <ele>739</ele>
        <time>2016-11-27T11:27:27.000Z</time>
      </trkpt>
      <trkpt lat="46.04246" lon="4.53499">
        <ele>741</ele>
        <time>2016-11-27T11:27:28.000Z</time>
      </trkpt>
      <trkpt lat="46.04244" lon="4.53499">
        <ele>742</ele>
        <time>2016-11-27T11:27:29.000Z</time>
      </trkpt>
      <trkpt lat="46.04242" lon="4.53499">
        <ele>743</ele>
        <time>2016-11-27T11:27:30.000Z</time>
      </trkpt>
      <trkpt lat="46.04241" lon="4.53499">
        <ele>743</ele>
        <time>2016-11-27T11:27:31.000Z</time>
      </trkpt>
      <trkpt lat="46.0424" lon="4.53499">
        <ele>744</ele>
        <time>2016-11-27T11:27:32.000Z</time>
      </trkpt>
      <trkpt lat="46.04239" lon="4.535">
        <ele>745</ele>
        <time>2016-11-27T11:27:33.000Z</time>
      </trkpt>
      <trkpt lat="46.04238" lon="4.535">
        <ele>745</ele>
        <time>2016-11-27T11:27:34.000Z</time>
      </trkpt>
      <trkpt lat="46.04236" lon="4.535">
        <ele>747</ele>
        <time>2016-11-27T11:27:35.000Z</time>
      </trkpt>
      <trkpt lat="46.04236" lon="4.535">
        <ele>748</ele>
        <time>2016-11-27T11:27:36.000Z</time>
      </trkpt>
      <trkpt lat="46.04235" lon="4.535">
        <ele>748</ele>
        <time>2016-11-27T11:27:37.000Z</time>
      </trkpt>
      <trkpt lat="46.04234" lon="4.53499">
        <ele>749</ele>
        <time>2016-11-27T11:27:38.000Z</time>
      </trkpt>
      <trkpt lat="46.04233" lon="4.53499">
        <ele>749</ele>
        <time>2016-11-27T11:27:39.000Z</time>
      </trkpt>
      <trkpt lat="46.04233" lon="4.53499">
        <ele>749</ele>
        <time>2016-11-27T11:27:40.000Z</time>
      </trkpt>
      <trkpt lat="46.04232" lon="4.53499">
        <ele>750</ele>
        <time>2016-11-27T11:27:41.000Z</time>
      </trkpt>
      <trkpt lat="46.04232" lon="4.535">
        <ele>750</ele>
        <time>2016-11-27T11:27:42.000Z</time>
      </trkpt>
      <trkpt lat="46.04231" lon="4.53501">
        <ele>750</ele>
        <time>2016-11-27T11:27:43.000Z</time>
      </trkpt>
      <trkpt lat="46.0423" lon="4.53501">
        <ele>750</ele>
        <time>2016-11-27T11:27:44.000Z</time>
      </trkpt>
      <trkpt lat="46.04229" lon="4.53502">
        <ele>750</ele>
        <time>2016-11-27T11:27:45.000Z</time>
      </trkpt>
      <trkpt lat="46.04229" lon="4.53503">
        <ele>750</ele>
        <time>2016-11-27T11:27:46.000Z</time>
      </trkpt>
      <trkpt lat="46.04228" lon="4.53504">
        <ele>749</ele>
        <time>2016-11-27T11:27:47.000Z</time>
      </trkpt>
      <trkpt lat="46.04228" lon="4.53505">
        <ele>749</ele>
        <time>2016-11-27T11:27:48.000Z</time>
      </trkpt>
      <trkpt lat="46.04227" lon="4.53505">
        <ele>750</ele>
        <time>2016-11-27T11:27:49.000Z</time>
      </trkpt>
      <trkpt lat="46.04227" lon="4.53505">
        <ele>750</ele>
        <time>2016-11-27T11:27:50.000Z</time>
      </trkpt>
      <trkpt lat="46.04226" lon="4.53506">
        <ele>750</ele>
        <time>2016-11-27T11:27:51.000Z</time>
      </trkpt>
      <trkpt lat="46.04226" lon="4.53506">
        <ele>750</ele>
        <time>2016-11-27T11:27:52.000Z</time>
      </trkpt>
      <trkpt lat="46.04225" lon="4.53507">
        <ele>748</ele>
        <time>2016-11-27T11:27:53.000Z</time>
      </trkpt>
      <trkpt lat="46.04224" lon="4.53509">
        <ele>746</ele>
        <time>2016-11-27T11:27:54.000Z</time>
      </trkpt>
      <trkpt lat="46.04223" lon="4.53511">
        <ele>746</ele>
        <time>2016-11-27T11:27:55.000Z</time>
      </trkpt>
      <trkpt lat="46.04222" lon="4.53512">
        <ele>747</ele>
        <time>2016-11-27T11:27:56.000Z</time>
      </trkpt>
      <trkpt lat="46.04221" lon="4.53512">
        <ele>747</ele>
        <time>2016-11-27T11:27:57.000Z</time>
      </trkpt>
      <trkpt lat="46.04221" lon="4.53512">
        <ele>747</ele>
        <time>2016-11-27T11:27:58.000Z</time>
      </trkpt>
      <trkpt lat="46.04221" lon="4.53512">
        <ele>747</ele>
        <time>2016-11-27T11:27:59.000Z</time>
      </trkpt>
      <trkpt lat="46.04221" lon="4.53512">
        <ele>747</ele>
        <time>2016-11-27T11:28:00.000Z</time>
      </trkpt>
      <trkpt lat="46.04221" lon="4.53512">
        <ele>747</ele>
        <time>2016-11-27T11:28:01.000Z</time>
      </trkpt>
      <trkpt lat="46.04221" lon="4.53512">
        <ele>747</ele>
        <time>2016-11-27T11:28:02.000Z</time>
      </trkpt>
      <trkpt lat="46.04221" lon="4.53512">
        <ele>747</ele>
        <time>2016-11-27T11:28:03.000Z</time>
      </trkpt>
      <trkpt lat="46.0422" lon="4.53511">
        <ele>748</ele>
        <time>2016-11-27T11:28:04.000Z</time>
      </trkpt>
      <trkpt lat="46.0422" lon="4.53511">
        <ele>748</ele>
        <time>2016-11-27T11:28:05.000Z</time>
      </trkpt>
      <trkpt lat="46.0422" lon="4.53511">
        <ele>748</ele>
        <time>2016-11-27T11:28:06.000Z</time>
      </trkpt>
      <trkpt lat="46.0422" lon="4.5351">
        <ele>748</ele>
        <time>2016-11-27T11:28:07.000Z</time>
      </trkpt>
      <trkpt lat="46.0422" lon="4.5351">
        <ele>748</ele>
        <time>2016-11-27T11:28:08.000Z</time>
      </trkpt>
      <trkpt lat="46.0422" lon="4.5351">
        <ele>748</ele>
        <time>2016-11-27T11:28:09.000Z</time>
      </trkpt>
      <trkpt lat="46.04219" lon="4.53509">
        <ele>748</ele>
        <time>2016-11-27T11:28:10.000Z</time>
      </trkpt>
      <trkpt lat="46.04219" lon="4.53509">
        <ele>748</ele>
        <time>2016-11-27T11:28:11.000Z</time>
      </trkpt>
      <trkpt lat="46.04219" lon="4.53509">
        <ele>748</ele>
        <time>2016-11-27T11:28:12.000Z</time>
      </trkpt>
      <trkpt lat="46.04219" lon="4.53508">
        <ele>748</ele>
        <time>2016-11-27T11:28:13.000Z</time>
      </trkpt>
      <trkpt lat="46.04219" lon="4.53508">
        <ele>748</ele>
        <time>2016-11-27T11:28:14.000Z</time>
      </trkpt>
      <trkpt lat="46.04218" lon="4.53508">
        <ele>748</ele>
        <time>2016-11-27T11:28:15.000Z</time>
      </trkpt>
      <trkpt lat="46.04218" lon="4.53508">
        <ele>748</ele>
        <time>2016-11-27T11:28:16.000Z</time>
      </trkpt>
      <trkpt lat="46.04218" lon="4.53508">
        <ele>748</ele>
        <time>2016-11-27T11:28:17.000Z</time>
      </trkpt>
      <trkpt lat="46.04218" lon="4.53508">
        <ele>748</ele>
        <time>2016-11-27T11:28:18.000Z</time>
      </trkpt>
      <trkpt lat="46.04218" lon="4.53508">
        <ele>748</ele>
        <time>2016-11-27T11:28:19.000Z</time>
      </trkpt>
      <trkpt lat="46.04218" lon="4.53508">
        <ele>747</ele>
        <time>2016-11-27T11:28:20.000Z</time>
      </trkpt>
      <trkpt lat="46.04218" lon="4.53509">
        <ele>747</ele>
        <time>2016-11-27T11:28:21.000Z</time>
      </trkpt>
      <trkpt lat="46.04218" lon="4.53509">
        <ele>746</ele>
        <time>2016-11-27T11:28:22.000Z</time>
      </trkpt>
      <trkpt lat="46.04218" lon="4.53509">
        <ele>746</ele>
        <time>2016-11-27T11:28:23.000Z</time>
      </trkpt>
      <trkpt lat="46.04218" lon="4.5351">
        <ele>746</ele>
        <time>2016-11-27T11:28:24.000Z</time>
      </trkpt>
      <trkpt lat="46.04218" lon="4.53509">
        <ele>747</ele>
        <time>2016-11-27T11:28:25.000Z</time>
      </trkpt>
      <trkpt lat="46.04218" lon="4.53509">
        <ele>747</ele>
        <time>2016-11-27T11:28:26.000Z</time>
      </trkpt>
      <trkpt lat="46.04218" lon="4.53509">
        <ele>747</ele>
        <time>2016-11-27T11:28:27.000Z</time>
      </trkpt>
      <trkpt lat="46.04218" lon="4.53509">
        <ele>747</ele>
        <time>2016-11-27T11:28:28.000Z</time>
      </trkpt>
      <trkpt lat="46.04218" lon="4.53509">
        <ele>747</ele>
        <time>2016-11-27T11:28:29.000Z</time>
      </trkpt>
      <trkpt lat="46.04218" lon="4.53509">
        <ele>747</ele>
        <time>2016-11-27T11:28:30.000Z</time>
      </trkpt>
      <trkpt lat="46.04218" lon="4.53508">
        <ele>747</ele>
        <time>2016-11-27T11:28:31.000Z</time>
      </trkpt>
      <trkpt lat="46.04218" lon="4.53508">
        <ele>747</ele>
        <time>2016-11-27T11:28:32.000Z</time>
      </trkpt>
      <trkpt lat="46.04218" lon="4.53508">
        <ele>747</ele>
        <time>2016-11-27T11:28:33.000Z</time>
      </trkpt>
      <trkpt lat="46.04218" lon="4.53508">
        <ele>747</ele>
        <time>2016-11-27T11:28:34.000Z</time>
      </trkpt>
      <trkpt lat="46.04217" lon="4.53508">
        <ele>747</ele>
        <time>2016-11-27T11:28:35.000Z</time>
      </trkpt>
      <trkpt lat="46.04217" lon="4.53508">
        <ele>747</ele>
        <time>2016-11-27T11:28:36.000Z</time>
      </trkpt>
      <trkpt lat="46.04217" lon="4.53508">
        <ele>746</ele>
        <time>2016-11-27T11:28:37.000Z</time>
      </trkpt>
      <trkpt lat="46.04217" lon="4.53508">
        <ele>746</ele>
        <time>2016-11-27T11:28:38.000Z</time>
      </trkpt>
      <trkpt lat="46.04217" lon="4.53508">
        <ele>746</ele>
        <time>2016-11-27T11:28:39.000Z</time>
      </trkpt>
      <trkpt lat="46.04216" lon="4.53507">
        <ele>747</ele>
        <time>2016-11-27T11:28:40.000Z</time>
      </trkpt>
      <trkpt lat="46.04216" lon="4.53507">
        <ele>746</ele>
        <time>2016-11-27T11:28:41.000Z</time>
      </trkpt>
      <trkpt lat="46.04216" lon="4.53507">
        <ele>746</ele>
        <time>2016-11-27T11:28:42.000Z</time>
      </trkpt>
      <trkpt lat="46.04216" lon="4.53506">
        <ele>747</ele>
        <time>2016-11-27T11:28:43.000Z</time>
      </trkpt>
      <trkpt lat="46.04216" lon="4.53506">
        <ele>747</ele>
        <time>2016-11-27T11:28:44.000Z</time>
      </trkpt>
      <trkpt lat="46.04216" lon="4.53505">
        <ele>747</ele>
        <time>2016-11-27T11:28:45.000Z</time>
      </trkpt>
      <trkpt lat="46.04216" lon="4.53505">
        <ele>747</ele>
        <time>2016-11-27T11:28:46.000Z</time>
      </trkpt>
      <trkpt lat="46.04216" lon="4.53504">
        <ele>748</ele>
        <time>2016-11-27T11:28:47.000Z</time>
      </trkpt>
      <trkpt lat="46.04216" lon="4.53503">
        <ele>748</ele>
        <time>2016-11-27T11:28:48.000Z</time>
      </trkpt>
      <trkpt lat="46.04216" lon="4.53503">
        <ele>749</ele>
        <time>2016-11-27T11:28:49.000Z</time>
      </trkpt>
      <trkpt lat="46.04216" lon="4.53502">
        <ele>749</ele>
        <time>2016-11-27T11:28:50.000Z</time>
      </trkpt>
      <trkpt lat="46.04216" lon="4.53502">
        <ele>749</ele>
        <time>2016-11-27T11:28:51.000Z</time>
      </trkpt>
      <trkpt lat="46.04216" lon="4.53501">
        <ele>748</ele>
        <time>2016-11-27T11:28:52.000Z</time>
      </trkpt>
      <trkpt lat="46.04216" lon="4.535">
        <ele>747</ele>
        <time>2016-11-27T11:28:53.000Z</time>
      </trkpt>
      <trkpt lat="46.04216" lon="4.53499">
        <ele>747</ele>
        <time>2016-11-27T11:28:54.000Z</time>
      </trkpt>
      <trkpt lat="46.04216" lon="4.53499">
        <ele>747</ele>
        <time>2016-11-27T11:28:55.000Z</time>
      </trkpt>
      <trkpt lat="46.04216" lon="4.53498">
        <ele>747</ele>
        <time>2016-11-27T11:28:56.000Z</time>
      </trkpt>
      <trkpt lat="46.04216" lon="4.53498">
        <ele>747</ele>
        <time>2016-11-27T11:28:57.000Z</time>
      </trkpt>
      <trkpt lat="46.04216" lon="4.53498">
        <ele>746</ele>
        <time>2016-11-27T11:28:58.000Z</time>
      </trkpt>
      <trkpt lat="46.04216" lon="4.53497">
        <ele>745</ele>
        <time>2016-11-27T11:28:59.000Z</time>
      </trkpt>
      <trkpt lat="46.04216" lon="4.53497">
        <ele>744</ele>
        <time>2016-11-27T11:29:00.000Z</time>
      </trkpt>
      <trkpt lat="46.04217" lon="4.53496">
        <ele>745</ele>
        <time>2016-11-27T11:29:01.000Z</time>
      </trkpt>
      <trkpt lat="46.04218" lon="4.53496">
        <ele>744</ele>
        <time>2016-11-27T11:29:02.000Z</time>
      </trkpt>
      <trkpt lat="46.04218" lon="4.53495">
        <ele>743</ele>
        <time>2016-11-27T11:29:03.000Z</time>
      </trkpt>
      <trkpt lat="46.04218" lon="4.53494">
        <ele>743</ele>
        <time>2016-11-27T11:29:04.000Z</time>
      </trkpt>
      <trkpt lat="46.04218" lon="4.53493">
        <ele>743</ele>
        <time>2016-11-27T11:29:05.000Z</time>
      </trkpt>
      <trkpt lat="46.04218" lon="4.53492">
        <ele>743</ele>
        <time>2016-11-27T11:29:06.000Z</time>
      </trkpt>
      <trkpt lat="46.04219" lon="4.53491">
        <ele>743</ele>
        <time>2016-11-27T11:29:07.000Z</time>
      </trkpt>
      <trkpt lat="46.04219" lon="4.5349">
        <ele>743</ele>
        <time>2016-11-27T11:29:08.000Z</time>
      </trkpt>
      <trkpt lat="46.0422" lon="4.5349">
        <ele>741</ele>
        <time>2016-11-27T11:29:09.000Z</time>
      </trkpt>
      <trkpt lat="46.0422" lon="4.53489">
        <ele>741</ele>
        <time>2016-11-27T11:29:10.000Z</time>
      </trkpt>
      <trkpt lat="46.0422" lon="4.53488">
        <ele>741</ele>
        <time>2016-11-27T11:29:11.000Z</time>
      </trkpt>
      <trkpt lat="46.04221" lon="4.53487">
        <ele>741</ele>
        <time>2016-11-27T11:29:12.000Z</time>
      </trkpt>
      <trkpt lat="46.04221" lon="4.53485">
        <ele>741</ele>
        <time>2016-11-27T11:29:13.000Z</time>
      </trkpt>
      <trkpt lat="46.04221" lon="4.53484">
        <ele>740</ele>
        <time>2016-11-27T11:29:14.000Z</time>
      </trkpt>
      <trkpt lat="46.04222" lon="4.53483">
        <ele>739</ele>
        <time>2016-11-27T11:29:15.000Z</time>
      </trkpt>
      <trkpt lat="46.04223" lon="4.53481">
        <ele>738</ele>
        <time>2016-11-27T11:29:16.000Z</time>
      </trkpt>
      <trkpt lat="46.04223" lon="4.5348">
        <ele>737</ele>
        <time>2016-11-27T11:29:17.000Z</time>
      </trkpt>
      <trkpt lat="46.04223" lon="4.53478">
        <ele>738</ele>
        <time>2016-11-27T11:29:18.000Z</time>
      </trkpt>
      <trkpt lat="46.04224" lon="4.53477">
        <ele>737</ele>
        <time>2016-11-27T11:29:19.000Z</time>
      </trkpt>
      <trkpt lat="46.04224" lon="4.53475">
        <ele>736</ele>
        <time>2016-11-27T11:29:20.000Z</time>
      </trkpt>
      <trkpt lat="46.04225" lon="4.53474">
        <ele>736</ele>
        <time>2016-11-27T11:29:21.000Z</time>
      </trkpt>
      <trkpt lat="46.04225" lon="4.53472">
        <ele>735</ele>
        <time>2016-11-27T11:29:22.000Z</time>
      </trkpt>
      <trkpt lat="46.04225" lon="4.53472">
        <ele>734</ele>
        <time>2016-11-27T11:29:23.000Z</time>
      </trkpt>
      <trkpt lat="46.04225" lon="4.53471">
        <ele>733</ele>
        <time>2016-11-27T11:29:24.000Z</time>
      </trkpt>
      <trkpt lat="46.04225" lon="4.5347">
        <ele>733</ele>
        <time>2016-11-27T11:29:25.000Z</time>
      </trkpt>
      <trkpt lat="46.04225" lon="4.5347">
        <ele>731</ele>
        <time>2016-11-27T11:29:26.000Z</time>
      </trkpt>
      <trkpt lat="46.04225" lon="4.53468">
        <ele>732</ele>
        <time>2016-11-27T11:29:27.000Z</time>
      </trkpt>
      <trkpt lat="46.04225" lon="4.53467">
        <ele>731</ele>
        <time>2016-11-27T11:29:28.000Z</time>
      </trkpt>
      <trkpt lat="46.04225" lon="4.53464">
        <ele>730</ele>
        <time>2016-11-27T11:29:29.000Z</time>
      </trkpt>
      <trkpt lat="46.04224" lon="4.53462">
        <ele>730</ele>
        <time>2016-11-27T11:29:30.000Z</time>
      </trkpt>
      <trkpt lat="46.04223" lon="4.53461">
        <ele>730</ele>
        <time>2016-11-27T11:29:31.000Z</time>
      </trkpt>
      <trkpt lat="46.04222" lon="4.5346">
        <ele>729</ele>
        <time>2016-11-27T11:29:32.000Z</time>
      </trkpt>
      <trkpt lat="46.04221" lon="4.53459">
        <ele>729</ele>
        <time>2016-11-27T11:29:33.000Z</time>
      </trkpt>
      <trkpt lat="46.0422" lon="4.53458">
        <ele>729</ele>
        <time>2016-11-27T11:29:34.000Z</time>
      </trkpt>
      <trkpt lat="46.0422" lon="4.53457">
        <ele>729</ele>
        <time>2016-11-27T11:29:35.000Z</time>
      </trkpt>
      <trkpt lat="46.04219" lon="4.53456">
        <ele>728</ele>
        <time>2016-11-27T11:29:36.000Z</time>
      </trkpt>
      <trkpt lat="46.04218" lon="4.53455">
        <ele>727</ele>
        <time>2016-11-27T11:29:37.000Z</time>
      </trkpt>
      <trkpt lat="46.04216" lon="4.53455">
        <ele>727</ele>
        <time>2016-11-27T11:29:38.000Z</time>
      </trkpt>
      <trkpt lat="46.04215" lon="4.53454">
        <ele>726</ele>
        <time>2016-11-27T11:29:39.000Z</time>
      </trkpt>
      <trkpt lat="46.04214" lon="4.53454">
        <ele>726</ele>
        <time>2016-11-27T11:29:40.000Z</time>
      </trkpt>
      <trkpt lat="46.04213" lon="4.53453">
        <ele>725</ele>
        <time>2016-11-27T11:29:41.000Z</time>
      </trkpt>
      <trkpt lat="46.04212" lon="4.53452">
        <ele>725</ele>
        <time>2016-11-27T11:29:42.000Z</time>
      </trkpt>
      <trkpt lat="46.04211" lon="4.53451">
        <ele>725</ele>
        <time>2016-11-27T11:29:43.000Z</time>
      </trkpt>
      <trkpt lat="46.04211" lon="4.5345">
        <ele>724</ele>
        <time>2016-11-27T11:29:44.000Z</time>
      </trkpt>
      <trkpt lat="46.0421" lon="4.5345">
        <ele>724</ele>
        <time>2016-11-27T11:29:45.000Z</time>
      </trkpt>
      <trkpt lat="46.04209" lon="4.53449">
        <ele>724</ele>
        <time>2016-11-27T11:29:46.000Z</time>
      </trkpt>
      <trkpt lat="46.04208" lon="4.53449">
        <ele>724</ele>
        <time>2016-11-27T11:29:47.000Z</time>
      </trkpt>
      <trkpt lat="46.04207" lon="4.53448">
        <ele>724</ele>
        <time>2016-11-27T11:29:48.000Z</time>
      </trkpt>
      <trkpt lat="46.04206" lon="4.53448">
        <ele>724</ele>
        <time>2016-11-27T11:29:49.000Z</time>
      </trkpt>
      <trkpt lat="46.04205" lon="4.53447">
        <ele>724</ele>
        <time>2016-11-27T11:29:50.000Z</time>
      </trkpt>
      <trkpt lat="46.04204" lon="4.53447">
        <ele>724</ele>
        <time>2016-11-27T11:29:51.000Z</time>
      </trkpt>
      <trkpt lat="46.04203" lon="4.53446">
        <ele>724</ele>
        <time>2016-11-27T11:29:52.000Z</time>
      </trkpt>
      <trkpt lat="46.04202" lon="4.53445">
        <ele>723</ele>
        <time>2016-11-27T11:29:53.000Z</time>
      </trkpt>
      <trkpt lat="46.04201" lon="4.53444">
        <ele>723</ele>
        <time>2016-11-27T11:29:54.000Z</time>
      </trkpt>
      <trkpt lat="46.042" lon="4.53443">
        <ele>723</ele>
        <time>2016-11-27T11:29:55.000Z</time>
      </trkpt>
      <trkpt lat="46.04199" lon="4.53442">
        <ele>723</ele>
        <time>2016-11-27T11:29:56.000Z</time>
      </trkpt>
      <trkpt lat="46.04197" lon="4.5344">
        <ele>724</ele>
        <time>2016-11-27T11:29:57.000Z</time>
      </trkpt>
      <trkpt lat="46.04195" lon="4.53439">
        <ele>724</ele>
        <time>2016-11-27T11:29:58.000Z</time>
      </trkpt>
      <trkpt lat="46.04194" lon="4.53437">
        <ele>724</ele>
        <time>2016-11-27T11:29:59.000Z</time>
      </trkpt>
      <trkpt lat="46.04192" lon="4.53436">
        <ele>724</ele>
        <time>2016-11-27T11:30:00.000Z</time>
      </trkpt>
      <trkpt lat="46.0419" lon="4.53434">
        <ele>724</ele>
        <time>2016-11-27T11:30:01.000Z</time>
      </trkpt>
      <trkpt lat="46.04188" lon="4.53431">
        <ele>723</ele>
        <time>2016-11-27T11:30:02.000Z</time>
      </trkpt>
      <trkpt lat="46.04186" lon="4.53429">
        <ele>723</ele>
        <time>2016-11-27T11:30:03.000Z</time>
      </trkpt>
      <trkpt lat="46.04184" lon="4.53427">
        <ele>722</ele>
        <time>2016-11-27T11:30:04.000Z</time>
      </trkpt>
      <trkpt lat="46.04183" lon="4.53425">
        <ele>722</ele>
        <time>2016-11-27T11:30:05.000Z</time>
      </trkpt>
      <trkpt lat="46.04181" lon="4.53423">
        <ele>721</ele>
        <time>2016-11-27T11:30:06.000Z</time>
      </trkpt>
      <trkpt lat="46.04179" lon="4.53421">
        <ele>720</ele>
        <time>2016-11-27T11:30:07.000Z</time>
      </trkpt>
      <trkpt lat="46.04177" lon="4.53418">
        <ele>720</ele>
        <time>2016-11-27T11:30:08.000Z</time>
      </trkpt>
      <trkpt lat="46.04175" lon="4.53417">
        <ele>719</ele>
        <time>2016-11-27T11:30:09.000Z</time>
      </trkpt>
      <trkpt lat="46.04173" lon="4.53414">
        <ele>719</ele>
        <time>2016-11-27T11:30:10.000Z</time>
      </trkpt>
      <trkpt lat="46.04171" lon="4.53412">
        <ele>719</ele>
        <time>2016-11-27T11:30:11.000Z</time>
      </trkpt>
      <trkpt lat="46.04169" lon="4.53409">
        <ele>719</ele>
        <time>2016-11-27T11:30:12.000Z</time>
      </trkpt>
      <trkpt lat="46.04166" lon="4.53406">
        <ele>719</ele>
        <time>2016-11-27T11:30:13.000Z</time>
      </trkpt>
      <trkpt lat="46.04164" lon="4.53403">
        <ele>720</ele>
        <time>2016-11-27T11:30:14.000Z</time>
      </trkpt>
      <trkpt lat="46.04161" lon="4.534">
        <ele>719</ele>
        <time>2016-11-27T11:30:15.000Z</time>
      </trkpt>
      <trkpt lat="46.04159" lon="4.53396">
        <ele>719</ele>
        <time>2016-11-27T11:30:16.000Z</time>
      </trkpt>
      <trkpt lat="46.04156" lon="4.53393">
        <ele>719</ele>
        <time>2016-11-27T11:30:17.000Z</time>
      </trkpt>
      <trkpt lat="46.04154" lon="4.5339">
        <ele>719</ele>
        <time>2016-11-27T11:30:18.000Z</time>
      </trkpt>
      <trkpt lat="46.04151" lon="4.53388">
        <ele>719</ele>
        <time>2016-11-27T11:30:19.000Z</time>
      </trkpt>
      <trkpt lat="46.04149" lon="4.53385">
        <ele>719</ele>
        <time>2016-11-27T11:30:20.000Z</time>
      </trkpt>
      <trkpt lat="46.04146" lon="4.53383">
        <ele>719</ele>
        <time>2016-11-27T11:30:21.000Z</time>
      </trkpt>
      <trkpt lat="46.04144" lon="4.53381">
        <ele>719</ele>
        <time>2016-11-27T11:30:22.000Z</time>
      </trkpt>
      <trkpt lat="46.04142" lon="4.53379">
        <ele>719</ele>
        <time>2016-11-27T11:30:23.000Z</time>
      </trkpt>
      <trkpt lat="46.0414" lon="4.53377">
        <ele>719</ele>
        <time>2016-11-27T11:30:24.000Z</time>
      </trkpt>
      <trkpt lat="46.04137" lon="4.53376">
        <ele>719</ele>
        <time>2016-11-27T11:30:25.000Z</time>
      </trkpt>
      <trkpt lat="46.04135" lon="4.53374">
        <ele>718</ele>
        <time>2016-11-27T11:30:26.000Z</time>
      </trkpt>
      <trkpt lat="46.04132" lon="4.53372">
        <ele>718</ele>
        <time>2016-11-27T11:30:27.000Z</time>
      </trkpt>
      <trkpt lat="46.0413" lon="4.53371">
        <ele>718</ele>
        <time>2016-11-27T11:30:28.000Z</time>
      </trkpt>
      <trkpt lat="46.04127" lon="4.53369">
        <ele>717</ele>
        <time>2016-11-27T11:30:29.000Z</time>
      </trkpt>
      <trkpt lat="46.04125" lon="4.53368">
        <ele>717</ele>
        <time>2016-11-27T11:30:30.000Z</time>
      </trkpt>
      <trkpt lat="46.04123" lon="4.53366">
        <ele>717</ele>
        <time>2016-11-27T11:30:31.000Z</time>
      </trkpt>
      <trkpt lat="46.0412" lon="4.53365">
        <ele>717</ele>
        <time>2016-11-27T11:30:32.000Z</time>
      </trkpt>
      <trkpt lat="46.04118" lon="4.53363">
        <ele>716</ele>
        <time>2016-11-27T11:30:33.000Z</time>
      </trkpt>
      <trkpt lat="46.04115" lon="4.53362">
        <ele>716</ele>
        <time>2016-11-27T11:30:34.000Z</time>
      </trkpt>
      <trkpt lat="46.04112" lon="4.53362">
        <ele>717</ele>
        <time>2016-11-27T11:30:35.000Z</time>
      </trkpt>
      <trkpt lat="46.04109" lon="4.53362">
        <ele>717</ele>
        <time>2016-11-27T11:30:36.000Z</time>
      </trkpt>
      <trkpt lat="46.04106" lon="4.53362">
        <ele>717</ele>
        <time>2016-11-27T11:30:37.000Z</time>
      </trkpt>
      <trkpt lat="46.04104" lon="4.53362">
        <ele>717</ele>
        <time>2016-11-27T11:30:38.000Z</time>
      </trkpt>
      <trkpt lat="46.04101" lon="4.53363">
        <ele>717</ele>
        <time>2016-11-27T11:30:39.000Z</time>
      </trkpt>
      <trkpt lat="46.04098" lon="4.53365">
        <ele>718</ele>
        <time>2016-11-27T11:30:40.000Z</time>
      </trkpt>
      <trkpt lat="46.04096" lon="4.53366">
        <ele>719</ele>
        <time>2016-11-27T11:30:41.000Z</time>
      </trkpt>
      <trkpt lat="46.04094" lon="4.53368">
        <ele>719</ele>
        <time>2016-11-27T11:30:42.000Z</time>
      </trkpt>
      <trkpt lat="46.04092" lon="4.5337">
        <ele>720</ele>
        <time>2016-11-27T11:30:43.000Z</time>
      </trkpt>
      <trkpt lat="46.0409" lon="4.53373">
        <ele>721</ele>
        <time>2016-11-27T11:30:44.000Z</time>
      </trkpt>
      <trkpt lat="46.04088" lon="4.53376">
        <ele>721</ele>
        <time>2016-11-27T11:30:45.000Z</time>
      </trkpt>
      <trkpt lat="46.04086" lon="4.53379">
        <ele>721</ele>
        <time>2016-11-27T11:30:46.000Z</time>
      </trkpt>
      <trkpt lat="46.04085" lon="4.53382">
        <ele>722</ele>
        <time>2016-11-27T11:30:47.000Z</time>
      </trkpt>
      <trkpt lat="46.04083" lon="4.53385">
        <ele>722</ele>
        <time>2016-11-27T11:30:48.000Z</time>
      </trkpt>
      <trkpt lat="46.04082" lon="4.53388">
        <ele>722</ele>
        <time>2016-11-27T11:30:49.000Z</time>
      </trkpt>
      <trkpt lat="46.04081" lon="4.53391">
        <ele>722</ele>
        <time>2016-11-27T11:30:50.000Z</time>
      </trkpt>
      <trkpt lat="46.0408" lon="4.53394">
        <ele>723</ele>
        <time>2016-11-27T11:30:51.000Z</time>
      </trkpt>
      <trkpt lat="46.04079" lon="4.53398">
        <ele>723</ele>
        <time>2016-11-27T11:30:52.000Z</time>
      </trkpt>
      <trkpt lat="46.04078" lon="4.53401">
        <ele>723</ele>
        <time>2016-11-27T11:30:53.000Z</time>
      </trkpt>
      <trkpt lat="46.04077" lon="4.53404">
        <ele>724</ele>
        <time>2016-11-27T11:30:54.000Z</time>
      </trkpt>
      <trkpt lat="46.04075" lon="4.53407">
        <ele>725</ele>
        <time>2016-11-27T11:30:55.000Z</time>
      </trkpt>
      <trkpt lat="46.04074" lon="4.5341">
        <ele>724</ele>
        <time>2016-11-27T11:30:56.000Z</time>
      </trkpt>
      <trkpt lat="46.04074" lon="4.53413">
        <ele>724</ele>
        <time>2016-11-27T11:30:57.000Z</time>
      </trkpt>
      <trkpt lat="46.04073" lon="4.53416">
        <ele>724</ele>
        <time>2016-11-27T11:30:58.000Z</time>
      </trkpt>
      <trkpt lat="46.04072" lon="4.53419">
        <ele>725</ele>
        <time>2016-11-27T11:30:59.000Z</time>
      </trkpt>
      <trkpt lat="46.04071" lon="4.53422">
        <ele>725</ele>
        <time>2016-11-27T11:31:00.000Z</time>
      </trkpt>
      <trkpt lat="46.04071" lon="4.53425">
        <ele>725</ele>
        <time>2016-11-27T11:31:01.000Z</time>
      </trkpt>
      <trkpt lat="46.0407" lon="4.53428">
        <ele>725</ele>
        <time>2016-11-27T11:31:02.000Z</time>
      </trkpt>
      <trkpt lat="46.04069" lon="4.53431">
        <ele>725</ele>
        <time>2016-11-27T11:31:03.000Z</time>
      </trkpt>
      <trkpt lat="46.04068" lon="4.53434">
        <ele>725</ele>
        <time>2016-11-27T11:31:04.000Z</time>
      </trkpt>
      <trkpt lat="46.04067" lon="4.53437">
        <ele>725</ele>
        <time>2016-11-27T11:31:05.000Z</time>
      </trkpt>
      <trkpt lat="46.04066" lon="4.53439">
        <ele>725</ele>
        <time>2016-11-27T11:31:06.000Z</time>
      </trkpt>
      <trkpt lat="46.04064" lon="4.53442">
        <ele>725</ele>
        <time>2016-11-27T11:31:07.000Z</time>
      </trkpt>
      <trkpt lat="46.04064" lon="4.53445">
        <ele>726</ele>
        <time>2016-11-27T11:31:08.000Z</time>
      </trkpt>
      <trkpt lat="46.04063" lon="4.53449">
        <ele>726</ele>
        <time>2016-11-27T11:31:09.000Z</time>
      </trkpt>
      <trkpt lat="46.04062" lon="4.53452">
        <ele>725</ele>
        <time>2016-11-27T11:31:10.000Z</time>
      </trkpt>
      <trkpt lat="46.04062" lon="4.53456">
        <ele>724</ele>
        <time>2016-11-27T11:31:11.000Z</time>
      </trkpt>
      <trkpt lat="46.04061" lon="4.5346">
        <ele>723</ele>
        <time>2016-11-27T11:31:12.000Z</time>
      </trkpt>
      <trkpt lat="46.04061" lon="4.53463">
        <ele>723</ele>
        <time>2016-11-27T11:31:13.000Z</time>
      </trkpt>
      <trkpt lat="46.0406" lon="4.53467">
        <ele>722</ele>
        <time>2016-11-27T11:31:14.000Z</time>
      </trkpt>
      <trkpt lat="46.04059" lon="4.53471">
        <ele>721</ele>
        <time>2016-11-27T11:31:15.000Z</time>
      </trkpt>
      <trkpt lat="46.04058" lon="4.53475">
        <ele>721</ele>
        <time>2016-11-27T11:31:16.000Z</time>
      </trkpt>
      <trkpt lat="46.04057" lon="4.53478">
        <ele>719</ele>
        <time>2016-11-27T11:31:17.000Z</time>
      </trkpt>
      <trkpt lat="46.04057" lon="4.53481">
        <ele>719</ele>
        <time>2016-11-27T11:31:18.000Z</time>
      </trkpt>
      <trkpt lat="46.04056" lon="4.53485">
        <ele>719</ele>
        <time>2016-11-27T11:31:19.000Z</time>
      </trkpt>
      <trkpt lat="46.04055" lon="4.53488">
        <ele>719</ele>
        <time>2016-11-27T11:31:20.000Z</time>
      </trkpt>
      <trkpt lat="46.04055" lon="4.53491">
        <ele>719</ele>
        <time>2016-11-27T11:31:21.000Z</time>
      </trkpt>
      <trkpt lat="46.04054" lon="4.53495">
        <ele>718</ele>
        <time>2016-11-27T11:31:22.000Z</time>
      </trkpt>
      <trkpt lat="46.04053" lon="4.53498">
        <ele>718</ele>
        <time>2016-11-27T11:31:23.000Z</time>
      </trkpt>
      <trkpt lat="46.04053" lon="4.53502">
        <ele>717</ele>
        <time>2016-11-27T11:31:24.000Z</time>
      </trkpt>
      <trkpt lat="46.04053" lon="4.53505">
        <ele>717</ele>
        <time>2016-11-27T11:31:25.000Z</time>
      </trkpt>
      <trkpt lat="46.04052" lon="4.53509">
        <ele>717</ele>
        <time>2016-11-27T11:31:26.000Z</time>
      </trkpt>
      <trkpt lat="46.04052" lon="4.53512">
        <ele>716</ele>
        <time>2016-11-27T11:31:27.000Z</time>
      </trkpt>
      <trkpt lat="46.04051" lon="4.53516">
        <ele>715</ele>
        <time>2016-11-27T11:31:28.000Z</time>
      </trkpt>
      <trkpt lat="46.04051" lon="4.53519">
        <ele>715</ele>
        <time>2016-11-27T11:31:29.000Z</time>
      </trkpt>
      <trkpt lat="46.04051" lon="4.53522">
        <ele>715</ele>
        <time>2016-11-27T11:31:30.000Z</time>
      </trkpt>
      <trkpt lat="46.0405" lon="4.53525">
        <ele>716</ele>
        <time>2016-11-27T11:31:31.000Z</time>
      </trkpt>
      <trkpt lat="46.0405" lon="4.53528">
        <ele>715</ele>
        <time>2016-11-27T11:31:32.000Z</time>
      </trkpt>
      <trkpt lat="46.0405" lon="4.53531">
        <ele>715</ele>
        <time>2016-11-27T11:31:33.000Z</time>
      </trkpt>
      <trkpt lat="46.0405" lon="4.53534">
        <ele>715</ele>
        <time>2016-11-27T11:31:34.000Z</time>
      </trkpt>
      <trkpt lat="46.0405" lon="4.53537">
        <ele>715</ele>
        <time>2016-11-27T11:31:35.000Z</time>
      </trkpt>
      <trkpt lat="46.04049" lon="4.5354">
        <ele>715</ele>
        <time>2016-11-27T11:31:36.000Z</time>
      </trkpt>
      <trkpt lat="46.04049" lon="4.53542">
        <ele>715</ele>
        <time>2016-11-27T11:31:37.000Z</time>
      </trkpt>
      <trkpt lat="46.04048" lon="4.53545">
        <ele>715</ele>
        <time>2016-11-27T11:31:38.000Z</time>
      </trkpt>
      <trkpt lat="46.04048" lon="4.53548">
        <ele>715</ele>
        <time>2016-11-27T11:31:39.000Z</time>
      </trkpt>
      <trkpt lat="46.04047" lon="4.53551">
        <ele>714</ele>
        <time>2016-11-27T11:31:40.000Z</time>
      </trkpt>
      <trkpt lat="46.04047" lon="4.53555">
        <ele>714</ele>
        <time>2016-11-27T11:31:41.000Z</time>
      </trkpt>
      <trkpt lat="46.04047" lon="4.53558">
        <ele>716</ele>
        <time>2016-11-27T11:31:42.000Z</time>
      </trkpt>
      <trkpt lat="46.04047" lon="4.53562">
        <ele>716</ele>
        <time>2016-11-27T11:31:43.000Z</time>
      </trkpt>
      <trkpt lat="46.04047" lon="4.53566">
        <ele>718</ele>
        <time>2016-11-27T11:31:44.000Z</time>
      </trkpt>
      <trkpt lat="46.04047" lon="4.53569">
        <ele>717</ele>
        <time>2016-11-27T11:31:45.000Z</time>
      </trkpt>
      <trkpt lat="46.04048" lon="4.53573">
        <ele>717</ele>
        <time>2016-11-27T11:31:46.000Z</time>
      </trkpt>
      <trkpt lat="46.04048" lon="4.53577">
        <ele>718</ele>
        <time>2016-11-27T11:31:47.000Z</time>
      </trkpt>
      <trkpt lat="46.04047" lon="4.5358">
        <ele>718</ele>
        <time>2016-11-27T11:31:48.000Z</time>
      </trkpt>
      <trkpt lat="46.04047" lon="4.53584">
        <ele>717</ele>
        <time>2016-11-27T11:31:49.000Z</time>
      </trkpt>
      <trkpt lat="46.04047" lon="4.53587">
        <ele>718</ele>
        <time>2016-11-27T11:31:50.000Z</time>
      </trkpt>
      <trkpt lat="46.04046" lon="4.5359">
        <ele>717</ele>
        <time>2016-11-27T11:31:51.000Z</time>
      </trkpt>
      <trkpt lat="46.04046" lon="4.53593">
        <ele>718</ele>
        <time>2016-11-27T11:31:52.000Z</time>
      </trkpt>
      <trkpt lat="46.04046" lon="4.53597">
        <ele>718</ele>
        <time>2016-11-27T11:31:53.000Z</time>
      </trkpt>
      <trkpt lat="46.04045" lon="4.536">
        <ele>719</ele>
        <time>2016-11-27T11:31:54.000Z</time>
      </trkpt>
      <trkpt lat="46.04045" lon="4.53603">
        <ele>719</ele>
        <time>2016-11-27T11:31:55.000Z</time>
      </trkpt>
      <trkpt lat="46.04044" lon="4.53606">
        <ele>720</ele>
        <time>2016-11-27T11:31:56.000Z</time>
      </trkpt>
      <trkpt lat="46.04044" lon="4.53609">
        <ele>721</ele>
        <time>2016-11-27T11:31:57.000Z</time>
      </trkpt>
      <trkpt lat="46.04043" lon="4.53612">
        <ele>722</ele>
        <time>2016-11-27T11:31:58.000Z</time>
      </trkpt>
      <trkpt lat="46.04042" lon="4.53615">
        <ele>722</ele>
        <time>2016-11-27T11:31:59.000Z</time>
      </trkpt>
      <trkpt lat="46.04041" lon="4.53618">
        <ele>724</ele>
        <time>2016-11-27T11:32:00.000Z</time>
      </trkpt>
      <trkpt lat="46.04041" lon="4.53621">
        <ele>723</ele>
        <time>2016-11-27T11:32:01.000Z</time>
      </trkpt>
      <trkpt lat="46.0404" lon="4.53623">
        <ele>723</ele>
        <time>2016-11-27T11:32:02.000Z</time>
      </trkpt>
      <trkpt lat="46.0404" lon="4.53627">
        <ele>723</ele>
        <time>2016-11-27T11:32:03.000Z</time>
      </trkpt>
      <trkpt lat="46.0404" lon="4.5363">
        <ele>723</ele>
        <time>2016-11-27T11:32:04.000Z</time>
      </trkpt>
      <trkpt lat="46.0404" lon="4.53633">
        <ele>723</ele>
        <time>2016-11-27T11:32:05.000Z</time>
      </trkpt>
      <trkpt lat="46.0404" lon="4.53636">
        <ele>723</ele>
        <time>2016-11-27T11:32:06.000Z</time>
      </trkpt>
      <trkpt lat="46.04039" lon="4.53639">
        <ele>722</ele>
        <time>2016-11-27T11:32:07.000Z</time>
      </trkpt>
      <trkpt lat="46.04038" lon="4.53642">
        <ele>722</ele>
        <time>2016-11-27T11:32:08.000Z</time>
      </trkpt>
      <trkpt lat="46.04038" lon="4.53645">
        <ele>722</ele>
        <time>2016-11-27T11:32:09.000Z</time>
      </trkpt>
      <trkpt lat="46.04038" lon="4.53649">
        <ele>722</ele>
        <time>2016-11-27T11:32:10.000Z</time>
      </trkpt>
      <trkpt lat="46.04037" lon="4.53652">
        <ele>724</ele>
        <time>2016-11-27T11:32:11.000Z</time>
      </trkpt>
      <trkpt lat="46.04037" lon="4.53656">
        <ele>725</ele>
        <time>2016-11-27T11:32:12.000Z</time>
      </trkpt>
      <trkpt lat="46.04036" lon="4.53659">
        <ele>725</ele>
        <time>2016-11-27T11:32:13.000Z</time>
      </trkpt>
      <trkpt lat="46.04036" lon="4.53661">
        <ele>726</ele>
        <time>2016-11-27T11:32:14.000Z</time>
      </trkpt>
      <trkpt lat="46.04034" lon="4.53664">
        <ele>728</ele>
        <time>2016-11-27T11:32:15.000Z</time>
      </trkpt>
      <trkpt lat="46.04033" lon="4.53667">
        <ele>731</ele>
        <time>2016-11-27T11:32:16.000Z</time>
      </trkpt>
      <trkpt lat="46.04031" lon="4.53669">
        <ele>731</ele>
        <time>2016-11-27T11:32:17.000Z</time>
      </trkpt>
      <trkpt lat="46.04029" lon="4.53672">
        <ele>732</ele>
        <time>2016-11-27T11:32:18.000Z</time>
      </trkpt>
      <trkpt lat="46.04028" lon="4.53674">
        <ele>732</ele>
        <time>2016-11-27T11:32:19.000Z</time>
      </trkpt>
      <trkpt lat="46.04028" lon="4.53677">
        <ele>732</ele>
        <time>2016-11-27T11:32:20.000Z</time>
      </trkpt>
      <trkpt lat="46.04027" lon="4.5368">
        <ele>732</ele>
        <time>2016-11-27T11:32:21.000Z</time>
      </trkpt>
      <trkpt lat="46.04027" lon="4.53682">
        <ele>732</ele>
        <time>2016-11-27T11:32:22.000Z</time>
      </trkpt>
      <trkpt lat="46.04027" lon="4.53685">
        <ele>731</ele>
        <time>2016-11-27T11:32:23.000Z</time>
      </trkpt>
      <trkpt lat="46.04026" lon="4.53688">
        <ele>732</ele>
        <time>2016-11-27T11:32:24.000Z</time>
      </trkpt>
      <trkpt lat="46.04025" lon="4.5369">
        <ele>732</ele>
        <time>2016-11-27T11:32:25.000Z</time>
      </trkpt>
      <trkpt lat="46.04024" lon="4.53693">
        <ele>733</ele>
        <time>2016-11-27T11:32:26.000Z</time>
      </trkpt>
      <trkpt lat="46.04023" lon="4.53695">
        <ele>734</ele>
        <time>2016-11-27T11:32:27.000Z</time>
      </trkpt>
      <trkpt lat="46.04022" lon="4.53697">
        <ele>735</ele>
        <time>2016-11-27T11:32:28.000Z</time>
      </trkpt>
      <trkpt lat="46.04021" lon="4.537">
        <ele>736</ele>
        <time>2016-11-27T11:32:29.000Z</time>
      </trkpt>
      <trkpt lat="46.0402" lon="4.53703">
        <ele>737</ele>
        <time>2016-11-27T11:32:30.000Z</time>
      </trkpt>
      <trkpt lat="46.04018" lon="4.53705">
        <ele>738</ele>
        <time>2016-11-27T11:32:31.000Z</time>
      </trkpt>
      <trkpt lat="46.04017" lon="4.53708">
        <ele>738</ele>
        <time>2016-11-27T11:32:32.000Z</time>
      </trkpt>
      <trkpt lat="46.04016" lon="4.53711">
        <ele>738</ele>
        <time>2016-11-27T11:32:33.000Z</time>
      </trkpt>
      <trkpt lat="46.04015" lon="4.53713">
        <ele>739</ele>
        <time>2016-11-27T11:32:34.000Z</time>
      </trkpt>
      <trkpt lat="46.04013" lon="4.53715">
        <ele>739</ele>
        <time>2016-11-27T11:32:35.000Z</time>
      </trkpt>
      <trkpt lat="46.04012" lon="4.53716">
        <ele>739</ele>
        <time>2016-11-27T11:32:36.000Z</time>
      </trkpt>
      <trkpt lat="46.04011" lon="4.53717">
        <ele>739</ele>
        <time>2016-11-27T11:32:37.000Z</time>
      </trkpt>
      <trkpt lat="46.0401" lon="4.53717">
        <ele>740</ele>
        <time>2016-11-27T11:32:38.000Z</time>
      </trkpt>
      <trkpt lat="46.04008" lon="4.53718">
        <ele>741</ele>
        <time>2016-11-27T11:32:39.000Z</time>
      </trkpt>
      <trkpt lat="46.04006" lon="4.53719">
        <ele>742</ele>
        <time>2016-11-27T11:32:40.000Z</time>
      </trkpt>
      <trkpt lat="46.04004" lon="4.53719">
        <ele>743</ele>
        <time>2016-11-27T11:32:41.000Z</time>
      </trkpt>
      <trkpt lat="46.04002" lon="4.5372">
        <ele>745</ele>
        <time>2016-11-27T11:32:42.000Z</time>
      </trkpt>
      <trkpt lat="46.04" lon="4.53719">
        <ele>745</ele>
        <time>2016-11-27T11:32:43.000Z</time>
      </trkpt>
      <trkpt lat="46.03997" lon="4.53718">
        <ele>748</ele>
        <time>2016-11-27T11:32:44.000Z</time>
      </trkpt>
      <trkpt lat="46.03995" lon="4.53717">
        <ele>749</ele>
        <time>2016-11-27T11:32:45.000Z</time>
      </trkpt>
      <trkpt lat="46.03993" lon="4.53717">
        <ele>748</ele>
        <time>2016-11-27T11:32:46.000Z</time>
      </trkpt>
      <trkpt lat="46.03991" lon="4.53717">
        <ele>747</ele>
        <time>2016-11-27T11:32:47.000Z</time>
      </trkpt>
      <trkpt lat="46.03989" lon="4.53718">
        <ele>747</ele>
        <time>2016-11-27T11:32:48.000Z</time>
      </trkpt>
      <trkpt lat="46.03987" lon="4.53718">
        <ele>746</ele>
        <time>2016-11-27T11:32:49.000Z</time>
      </trkpt>
      <trkpt lat="46.03986" lon="4.53718">
        <ele>745</ele>
        <time>2016-11-27T11:32:50.000Z</time>
      </trkpt>
      <trkpt lat="46.03984" lon="4.53718">
        <ele>745</ele>
        <time>2016-11-27T11:32:51.000Z</time>
      </trkpt>
      <trkpt lat="46.03982" lon="4.53718">
        <ele>745</ele>
        <time>2016-11-27T11:32:52.000Z</time>
      </trkpt>
      <trkpt lat="46.03979" lon="4.53718">
        <ele>745</ele>
        <time>2016-11-27T11:32:53.000Z</time>
      </trkpt>
      <trkpt lat="46.03977" lon="4.53717">
        <ele>745</ele>
        <time>2016-11-27T11:32:54.000Z</time>
      </trkpt>
      <trkpt lat="46.03974" lon="4.53718">
        <ele>745</ele>
        <time>2016-11-27T11:32:55.000Z</time>
      </trkpt>
      <trkpt lat="46.03972" lon="4.53717">
        <ele>747</ele>
        <time>2016-11-27T11:32:56.000Z</time>
      </trkpt>
      <trkpt lat="46.03969" lon="4.53718">
        <ele>748</ele>
        <time>2016-11-27T11:32:57.000Z</time>
      </trkpt>
      <trkpt lat="46.03966" lon="4.53717">
        <ele>750</ele>
        <time>2016-11-27T11:32:58.000Z</time>
      </trkpt>
      <trkpt lat="46.03964" lon="4.53717">
        <ele>749</ele>
        <time>2016-11-27T11:32:59.000Z</time>
      </trkpt>
      <trkpt lat="46.03961" lon="4.53717">
        <ele>750</ele>
        <time>2016-11-27T11:33:00.000Z</time>
      </trkpt>
      <trkpt lat="46.03959" lon="4.53717">
        <ele>752</ele>
        <time>2016-11-27T11:33:01.000Z</time>
      </trkpt>
      <trkpt lat="46.03956" lon="4.53717">
        <ele>753</ele>
        <time>2016-11-27T11:33:02.000Z</time>
      </trkpt>
      <trkpt lat="46.03954" lon="4.53717">
        <ele>753</ele>
        <time>2016-11-27T11:33:03.000Z</time>
      </trkpt>
      <trkpt lat="46.03952" lon="4.53717">
        <ele>754</ele>
        <time>2016-11-27T11:33:04.000Z</time>
      </trkpt>
      <trkpt lat="46.03949" lon="4.53717">
        <ele>755</ele>
        <time>2016-11-27T11:33:05.000Z</time>
      </trkpt>
      <trkpt lat="46.03947" lon="4.53717">
        <ele>755</ele>
        <time>2016-11-27T11:33:06.000Z</time>
      </trkpt>
      <trkpt lat="46.03945" lon="4.53718">
        <ele>754</ele>
        <time>2016-11-27T11:33:07.000Z</time>
      </trkpt>
      <trkpt lat="46.03943" lon="4.53719">
        <ele>754</ele>
        <time>2016-11-27T11:33:08.000Z</time>
      </trkpt>
      <trkpt lat="46.03941" lon="4.5372">
        <ele>753</ele>
        <time>2016-11-27T11:33:09.000Z</time>
      </trkpt>
      <trkpt lat="46.03939" lon="4.53722">
        <ele>753</ele>
        <time>2016-11-27T11:33:10.000Z</time>
      </trkpt>
      <trkpt lat="46.03937" lon="4.53723">
        <ele>752</ele>
        <time>2016-11-27T11:33:11.000Z</time>
      </trkpt>
      <trkpt lat="46.03935" lon="4.53724">
        <ele>750</ele>
        <time>2016-11-27T11:33:12.000Z</time>
      </trkpt>
      <trkpt lat="46.03933" lon="4.53726">
        <ele>748</ele>
        <time>2016-11-27T11:33:13.000Z</time>
      </trkpt>
      <trkpt lat="46.03931" lon="4.53728">
        <ele>746</ele>
        <time>2016-11-27T11:33:14.000Z</time>
      </trkpt>
      <trkpt lat="46.03929" lon="4.53729">
        <ele>745</ele>
        <time>2016-11-27T11:33:15.000Z</time>
      </trkpt>
      <trkpt lat="46.03928" lon="4.53731">
        <ele>743</ele>
        <time>2016-11-27T11:33:16.000Z</time>
      </trkpt>
      <trkpt lat="46.03926" lon="4.53732">
        <ele>743</ele>
        <time>2016-11-27T11:33:17.000Z</time>
      </trkpt>
      <trkpt lat="46.03923" lon="4.53733">
        <ele>742</ele>
        <time>2016-11-27T11:33:18.000Z</time>
      </trkpt>
      <trkpt lat="46.03921" lon="4.53735">
        <ele>741</ele>
        <time>2016-11-27T11:33:19.000Z</time>
      </trkpt>
      <trkpt lat="46.03919" lon="4.53737">
        <ele>741</ele>
        <time>2016-11-27T11:33:20.000Z</time>
      </trkpt>
      <trkpt lat="46.03917" lon="4.53739">
        <ele>741</ele>
        <time>2016-11-27T11:33:21.000Z</time>
      </trkpt>
      <trkpt lat="46.03915" lon="4.53741">
        <ele>741</ele>
        <time>2016-11-27T11:33:22.000Z</time>
      </trkpt>
      <trkpt lat="46.03913" lon="4.53742">
        <ele>741</ele>
        <time>2016-11-27T11:33:23.000Z</time>
      </trkpt>
      <trkpt lat="46.0391" lon="4.53744">
        <ele>741</ele>
        <time>2016-11-27T11:33:24.000Z</time>
      </trkpt>
      <trkpt lat="46.03908" lon="4.53745">
        <ele>741</ele>
        <time>2016-11-27T11:33:25.000Z</time>
      </trkpt>
      <trkpt lat="46.03906" lon="4.53746">
        <ele>742</ele>
        <time>2016-11-27T11:33:26.000Z</time>
      </trkpt>
      <trkpt lat="46.03904" lon="4.53747">
        <ele>741</ele>
        <time>2016-11-27T11:33:27.000Z</time>
      </trkpt>
      <trkpt lat="46.03903" lon="4.53746">
        <ele>741</ele>
        <time>2016-11-27T11:33:28.000Z</time>
      </trkpt>
      <trkpt lat="46.03902" lon="4.53746">
        <ele>741</ele>
        <time>2016-11-27T11:33:29.000Z</time>
      </trkpt>
      <trkpt lat="46.03902" lon="4.53745">
        <ele>742</ele>
        <time>2016-11-27T11:33:30.000Z</time>
      </trkpt>
      <trkpt lat="46.03902" lon="4.53745">
        <ele>741</ele>
        <time>2016-11-27T11:33:31.000Z</time>
      </trkpt>
      <trkpt lat="46.03902" lon="4.53745">
        <ele>742</ele>
        <time>2016-11-27T11:33:32.000Z</time>
      </trkpt>
      <trkpt lat="46.03902" lon="4.53744">
        <ele>742</ele>
        <time>2016-11-27T11:33:33.000Z</time>
      </trkpt>
      <trkpt lat="46.03901" lon="4.53743">
        <ele>742</ele>
        <time>2016-11-27T11:33:34.000Z</time>
      </trkpt>
      <trkpt lat="46.03901" lon="4.53742">
        <ele>742</ele>
        <time>2016-11-27T11:33:35.000Z</time>
      </trkpt>
      <trkpt lat="46.03902" lon="4.53741">
        <ele>742</ele>
        <time>2016-11-27T11:33:36.000Z</time>
      </trkpt>
      <trkpt lat="46.03902" lon="4.5374">
        <ele>742</ele>
        <time>2016-11-27T11:33:37.000Z</time>
      </trkpt>
      <trkpt lat="46.03902" lon="4.5374">
        <ele>742</ele>
        <time>2016-11-27T11:33:38.000Z</time>
      </trkpt>
      <trkpt lat="46.03902" lon="4.5374">
        <ele>742</ele>
        <time>2016-11-27T11:33:39.000Z</time>
      </trkpt>
      <trkpt lat="46.03901" lon="4.5374">
        <ele>742</ele>
        <time>2016-11-27T11:33:40.000Z</time>
      </trkpt>
      <trkpt lat="46.03901" lon="4.53739">
        <ele>742</ele>
        <time>2016-11-27T11:33:41.000Z</time>
      </trkpt>
      <trkpt lat="46.039" lon="4.53739">
        <ele>743</ele>
        <time>2016-11-27T11:33:42.000Z</time>
      </trkpt>
      <trkpt lat="46.039" lon="4.53739">
        <ele>743</ele>
        <time>2016-11-27T11:33:43.000Z</time>
      </trkpt>
      <trkpt lat="46.039" lon="4.53739">
        <ele>742</ele>
        <time>2016-11-27T11:33:44.000Z</time>
      </trkpt>
      <trkpt lat="46.039" lon="4.53739">
        <ele>742</ele>
        <time>2016-11-27T11:33:45.000Z</time>
      </trkpt>
      <trkpt lat="46.039" lon="4.53739">
        <ele>742</ele>
        <time>2016-11-27T11:33:46.000Z</time>
      </trkpt>
      <trkpt lat="46.039" lon="4.53739">
        <ele>741</ele>
        <time>2016-11-27T11:33:47.000Z</time>
      </trkpt>
      <trkpt lat="46.039" lon="4.53739">
        <ele>741</ele>
        <time>2016-11-27T11:33:48.000Z</time>
      </trkpt>
      <trkpt lat="46.039" lon="4.53739">
        <ele>741</ele>
        <time>2016-11-27T11:33:49.000Z</time>
      </trkpt>
      <trkpt lat="46.039" lon="4.5374">
        <ele>740</ele>
        <time>2016-11-27T11:33:50.000Z</time>
      </trkpt>
      <trkpt lat="46.039" lon="4.5374">
        <ele>740</ele>
        <time>2016-11-27T11:33:51.000Z</time>
      </trkpt>
      <trkpt lat="46.039" lon="4.5374">
        <ele>740</ele>
        <time>2016-11-27T11:33:52.000Z</time>
      </trkpt>
      <trkpt lat="46.039" lon="4.5374">
        <ele>740</ele>
        <time>2016-11-27T11:33:53.000Z</time>
      </trkpt>
      <trkpt lat="46.039" lon="4.5374">
        <ele>740</ele>
        <time>2016-11-27T11:33:54.000Z</time>
      </trkpt>
      <trkpt lat="46.039" lon="4.5374">
        <ele>741</ele>
        <time>2016-11-27T11:33:55.000Z</time>
      </trkpt>
      <trkpt lat="46.039" lon="4.5374">
        <ele>741</ele>
        <time>2016-11-27T11:33:56.000Z</time>
      </trkpt>
      <trkpt lat="46.039" lon="4.5374">
        <ele>741</ele>
        <time>2016-11-27T11:33:57.000Z</time>
      </trkpt>
      <trkpt lat="46.039" lon="4.5374">
        <ele>741</ele>
        <time>2016-11-27T11:33:58.000Z</time>
      </trkpt>
      <trkpt lat="46.03901" lon="4.53738">
        <ele>742</ele>
        <time>2016-11-27T11:33:59.000Z</time>
      </trkpt>
      <trkpt lat="46.03902" lon="4.53736">
        <ele>742</ele>
        <time>2016-11-27T11:34:00.000Z</time>
      </trkpt>
      <trkpt lat="46.03903" lon="4.53734">
        <ele>743</ele>
        <time>2016-11-27T11:34:01.000Z</time>
      </trkpt>
      <trkpt lat="46.03904" lon="4.53733">
        <ele>743</ele>
        <time>2016-11-27T11:34:02.000Z</time>
      </trkpt>
      <trkpt lat="46.03905" lon="4.53732">
        <ele>742</ele>
        <time>2016-11-27T11:34:03.000Z</time>
      </trkpt>
      <trkpt lat="46.03906" lon="4.53731">
        <ele>742</ele>
        <time>2016-11-27T11:34:04.000Z</time>
      </trkpt>
      <trkpt lat="46.03908" lon="4.5373">
        <ele>741</ele>
        <time>2016-11-27T11:34:05.000Z</time>
      </trkpt>
      <trkpt lat="46.0391" lon="4.53729">
        <ele>742</ele>
        <time>2016-11-27T11:34:06.000Z</time>
      </trkpt>
      <trkpt lat="46.03911" lon="4.53728">
        <ele>742</ele>
        <time>2016-11-27T11:34:07.000Z</time>
      </trkpt>
      <trkpt lat="46.03913" lon="4.53726">
        <ele>743</ele>
        <time>2016-11-27T11:34:08.000Z</time>
      </trkpt>
      <trkpt lat="46.03915" lon="4.53724">
        <ele>743</ele>
        <time>2016-11-27T11:34:09.000Z</time>
      </trkpt>
      <trkpt lat="46.03917" lon="4.53722">
        <ele>743</ele>
        <time>2016-11-27T11:34:10.000Z</time>
      </trkpt>
      <trkpt lat="46.03919" lon="4.53721">
        <ele>743</ele>
        <time>2016-11-27T11:34:11.000Z</time>
      </trkpt>
      <trkpt lat="46.03921" lon="4.53721">
        <ele>742</ele>
        <time>2016-11-27T11:34:12.000Z</time>
      </trkpt>
      <trkpt lat="46.03923" lon="4.53719">
        <ele>742</ele>
        <time>2016-11-27T11:34:13.000Z</time>
      </trkpt>
      <trkpt lat="46.03925" lon="4.53718">
        <ele>741</ele>
        <time>2016-11-27T11:34:14.000Z</time>
      </trkpt>
      <trkpt lat="46.03927" lon="4.53717">
        <ele>740</ele>
        <time>2016-11-27T11:34:15.000Z</time>
      </trkpt>
      <trkpt lat="46.03929" lon="4.53716">
        <ele>738</ele>
        <time>2016-11-27T11:34:16.000Z</time>
      </trkpt>
      <trkpt lat="46.03931" lon="4.53715">
        <ele>736</ele>
        <time>2016-11-27T11:34:17.000Z</time>
      </trkpt>
      <trkpt lat="46.03933" lon="4.53715">
        <ele>735</ele>
        <time>2016-11-27T11:34:18.000Z</time>
      </trkpt>
      <trkpt lat="46.03934" lon="4.53714">
        <ele>735</ele>
        <time>2016-11-27T11:34:19.000Z</time>
      </trkpt>
      <trkpt lat="46.03935" lon="4.53713">
        <ele>734</ele>
        <time>2016-11-27T11:34:20.000Z</time>
      </trkpt>
      <trkpt lat="46.03935" lon="4.53711">
        <ele>733</ele>
        <time>2016-11-27T11:34:21.000Z</time>
      </trkpt>
      <trkpt lat="46.03934" lon="4.5371">
        <ele>734</ele>
        <time>2016-11-27T11:34:22.000Z</time>
      </trkpt>
      <trkpt lat="46.03934" lon="4.53709">
        <ele>733</ele>
        <time>2016-11-27T11:34:23.000Z</time>
      </trkpt>
      <trkpt lat="46.03933" lon="4.53708">
        <ele>732</ele>
        <time>2016-11-27T11:34:24.000Z</time>
      </trkpt>
      <trkpt lat="46.03933" lon="4.53707">
        <ele>731</ele>
        <time>2016-11-27T11:34:25.000Z</time>
      </trkpt>
      <trkpt lat="46.03931" lon="4.53705">
        <ele>730</ele>
        <time>2016-11-27T11:34:26.000Z</time>
      </trkpt>
      <trkpt lat="46.0393" lon="4.53704">
        <ele>729</ele>
        <time>2016-11-27T11:34:27.000Z</time>
      </trkpt>
      <trkpt lat="46.03928" lon="4.53703">
        <ele>728</ele>
        <time>2016-11-27T11:34:28.000Z</time>
      </trkpt>
      <trkpt lat="46.03926" lon="4.53701">
        <ele>728</ele>
        <time>2016-11-27T11:34:29.000Z</time>
      </trkpt>
      <trkpt lat="46.03923" lon="4.53699">
        <ele>727</ele>
        <time>2016-11-27T11:34:30.000Z</time>
      </trkpt>
      <trkpt lat="46.03921" lon="4.53698">
        <ele>725</ele>
        <time>2016-11-27T11:34:31.000Z</time>
      </trkpt>
      <trkpt lat="46.03918" lon="4.53696">
        <ele>725</ele>
        <time>2016-11-27T11:34:32.000Z</time>
      </trkpt>
      <trkpt lat="46.03916" lon="4.53695">
        <ele>724</ele>
        <time>2016-11-27T11:34:33.000Z</time>
      </trkpt>
      <trkpt lat="46.03913" lon="4.53694">
        <ele>724</ele>
        <time>2016-11-27T11:34:34.000Z</time>
      </trkpt>
      <trkpt lat="46.03911" lon="4.53692">
        <ele>724</ele>
        <time>2016-11-27T11:34:35.000Z</time>
      </trkpt>
      <trkpt lat="46.03908" lon="4.53691">
        <ele>724</ele>
        <time>2016-11-27T11:34:36.000Z</time>
      </trkpt>
      <trkpt lat="46.03906" lon="4.5369">
        <ele>723</ele>
        <time>2016-11-27T11:34:37.000Z</time>
      </trkpt>
      <trkpt lat="46.03903" lon="4.53689">
        <ele>722</ele>
        <time>2016-11-27T11:34:38.000Z</time>
      </trkpt>
      <trkpt lat="46.03901" lon="4.53689">
        <ele>721</ele>
        <time>2016-11-27T11:34:39.000Z</time>
      </trkpt>
      <trkpt lat="46.03898" lon="4.53688">
        <ele>721</ele>
        <time>2016-11-27T11:34:40.000Z</time>
      </trkpt>
      <trkpt lat="46.03895" lon="4.53686">
        <ele>721</ele>
        <time>2016-11-27T11:34:41.000Z</time>
      </trkpt>
      <trkpt lat="46.03892" lon="4.53684">
        <ele>722</ele>
        <time>2016-11-27T11:34:42.000Z</time>
      </trkpt>
      <trkpt lat="46.0389" lon="4.53682">
        <ele>722</ele>
        <time>2016-11-27T11:34:43.000Z</time>
      </trkpt>
      <trkpt lat="46.03888" lon="4.53681">
        <ele>720</ele>
        <time>2016-11-27T11:34:44.000Z</time>
      </trkpt>
      <trkpt lat="46.03886" lon="4.53679">
        <ele>719</ele>
        <time>2016-11-27T11:34:45.000Z</time>
      </trkpt>
      <trkpt lat="46.03884" lon="4.53679">
        <ele>720</ele>
        <time>2016-11-27T11:34:46.000Z</time>
      </trkpt>
      <trkpt lat="46.03883" lon="4.53678">
        <ele>720</ele>
        <time>2016-11-27T11:34:47.000Z</time>
      </trkpt>
      <trkpt lat="46.03881" lon="4.53678">
        <ele>721</ele>
        <time>2016-11-27T11:34:48.000Z</time>
      </trkpt>
      <trkpt lat="46.0388" lon="4.53678">
        <ele>721</ele>
        <time>2016-11-27T11:34:49.000Z</time>
      </trkpt>
      <trkpt lat="46.03879" lon="4.53677">
        <ele>721</ele>
        <time>2016-11-27T11:34:50.000Z</time>
      </trkpt>
      <trkpt lat="46.03878" lon="4.53677">
        <ele>721</ele>
        <time>2016-11-27T11:34:51.000Z</time>
      </trkpt>
      <trkpt lat="46.03877" lon="4.53677">
        <ele>720</ele>
        <time>2016-11-27T11:34:52.000Z</time>
      </trkpt>
      <trkpt lat="46.03876" lon="4.53678">
        <ele>720</ele>
        <time>2016-11-27T11:34:53.000Z</time>
      </trkpt>
      <trkpt lat="46.03875" lon="4.53678">
        <ele>719</ele>
        <time>2016-11-27T11:34:54.000Z</time>
      </trkpt>
      <trkpt lat="46.03874" lon="4.53679">
        <ele>719</ele>
        <time>2016-11-27T11:34:55.000Z</time>
      </trkpt>
      <trkpt lat="46.03873" lon="4.53679">
        <ele>719</ele>
        <time>2016-11-27T11:34:56.000Z</time>
      </trkpt>
      <trkpt lat="46.03872" lon="4.5368">
        <ele>720</ele>
        <time>2016-11-27T11:34:57.000Z</time>
      </trkpt>
      <trkpt lat="46.03872" lon="4.5368">
        <ele>720</ele>
        <time>2016-11-27T11:34:58.000Z</time>
      </trkpt>
      <trkpt lat="46.03872" lon="4.53681">
        <ele>720</ele>
        <time>2016-11-27T11:34:59.000Z</time>
      </trkpt>
      <trkpt lat="46.03872" lon="4.53681">
        <ele>720</ele>
        <time>2016-11-27T11:35:00.000Z</time>
      </trkpt>
      <trkpt lat="46.03872" lon="4.53682">
        <ele>719</ele>
        <time>2016-11-27T11:35:01.000Z</time>
      </trkpt>
      <trkpt lat="46.03872" lon="4.53683">
        <ele>719</ele>
        <time>2016-11-27T11:35:02.000Z</time>
      </trkpt>
      <trkpt lat="46.03871" lon="4.53683">
        <ele>720</ele>
        <time>2016-11-27T11:35:03.000Z</time>
      </trkpt>
      <trkpt lat="46.03871" lon="4.53684">
        <ele>720</ele>
        <time>2016-11-27T11:35:04.000Z</time>
      </trkpt>
      <trkpt lat="46.0387" lon="4.53685">
        <ele>721</ele>
        <time>2016-11-27T11:35:05.000Z</time>
      </trkpt>
      <trkpt lat="46.03869" lon="4.53686">
        <ele>721</ele>
        <time>2016-11-27T11:35:06.000Z</time>
      </trkpt>
      <trkpt lat="46.03868" lon="4.53687">
        <ele>720</ele>
        <time>2016-11-27T11:35:07.000Z</time>
      </trkpt>
      <trkpt lat="46.03867" lon="4.53688">
        <ele>722</ele>
        <time>2016-11-27T11:35:08.000Z</time>
      </trkpt>
      <trkpt lat="46.03866" lon="4.53689">
        <ele>721</ele>
        <time>2016-11-27T11:35:09.000Z</time>
      </trkpt>
      <trkpt lat="46.03865" lon="4.53689">
        <ele>721</ele>
        <time>2016-11-27T11:35:10.000Z</time>
      </trkpt>
      <trkpt lat="46.03864" lon="4.53689">
        <ele>721</ele>
        <time>2016-11-27T11:35:11.000Z</time>
      </trkpt>
      <trkpt lat="46.03863" lon="4.53689">
        <ele>721</ele>
        <time>2016-11-27T11:35:12.000Z</time>
      </trkpt>
      <trkpt lat="46.03863" lon="4.53689">
        <ele>721</ele>
        <time>2016-11-27T11:35:13.000Z</time>
      </trkpt>
      <trkpt lat="46.03862" lon="4.5369">
        <ele>720</ele>
        <time>2016-11-27T11:35:14.000Z</time>
      </trkpt>
      <trkpt lat="46.03862" lon="4.5369">
        <ele>720</ele>
        <time>2016-11-27T11:35:15.000Z</time>
      </trkpt>
      <trkpt lat="46.03861" lon="4.53691">
        <ele>718</ele>
        <time>2016-11-27T11:35:16.000Z</time>
      </trkpt>
      <trkpt lat="46.03859" lon="4.53692">
        <ele>718</ele>
        <time>2016-11-27T11:35:17.000Z</time>
      </trkpt>
      <trkpt lat="46.03858" lon="4.53694">
        <ele>717</ele>
        <time>2016-11-27T11:35:18.000Z</time>
      </trkpt>
      <trkpt lat="46.03857" lon="4.53695">
        <ele>717</ele>
        <time>2016-11-27T11:35:19.000Z</time>
      </trkpt>
      <trkpt lat="46.03856" lon="4.53696">
        <ele>717</ele>
        <time>2016-11-27T11:35:20.000Z</time>
      </trkpt>
      <trkpt lat="46.03855" lon="4.53698">
        <ele>717</ele>
        <time>2016-11-27T11:35:21.000Z</time>
      </trkpt>
      <trkpt lat="46.03854" lon="4.537">
        <ele>716</ele>
        <time>2016-11-27T11:35:22.000Z</time>
      </trkpt>
      <trkpt lat="46.03853" lon="4.53701">
        <ele>716</ele>
        <time>2016-11-27T11:35:23.000Z</time>
      </trkpt>
      <trkpt lat="46.03852" lon="4.53703">
        <ele>714</ele>
        <time>2016-11-27T11:35:24.000Z</time>
      </trkpt>
      <trkpt lat="46.03851" lon="4.53704">
        <ele>715</ele>
        <time>2016-11-27T11:35:25.000Z</time>
      </trkpt>
      <trkpt lat="46.0385" lon="4.53706">
        <ele>714</ele>
        <time>2016-11-27T11:35:26.000Z</time>
      </trkpt>
      <trkpt lat="46.03848" lon="4.53706">
        <ele>714</ele>
        <time>2016-11-27T11:35:27.000Z</time>
      </trkpt>
      <trkpt lat="46.03846" lon="4.53707">
        <ele>715</ele>
        <time>2016-11-27T11:35:28.000Z</time>
      </trkpt>
      <trkpt lat="46.03845" lon="4.53706">
        <ele>714</ele>
        <time>2016-11-27T11:35:29.000Z</time>
      </trkpt>
      <trkpt lat="46.03844" lon="4.53706">
        <ele>713</ele>
        <time>2016-11-27T11:35:30.000Z</time>
      </trkpt>
      <trkpt lat="46.03844" lon="4.53707">
        <ele>713</ele>
        <time>2016-11-27T11:35:31.000Z</time>
      </trkpt>
      <trkpt lat="46.03843" lon="4.53709">
        <ele>713</ele>
        <time>2016-11-27T11:35:32.000Z</time>
      </trkpt>
      <trkpt lat="46.03842" lon="4.5371">
        <ele>713</ele>
        <time>2016-11-27T11:35:33.000Z</time>
      </trkpt>
      <trkpt lat="46.03841" lon="4.53711">
        <ele>713</ele>
        <time>2016-11-27T11:35:34.000Z</time>
      </trkpt>
      <trkpt lat="46.0384" lon="4.53712">
        <ele>713</ele>
        <time>2016-11-27T11:35:35.000Z</time>
      </trkpt>
      <trkpt lat="46.03839" lon="4.53713">
        <ele>712</ele>
        <time>2016-11-27T11:35:36.000Z</time>
      </trkpt>
      <trkpt lat="46.03837" lon="4.53714">
        <ele>711</ele>
        <time>2016-11-27T11:35:37.000Z</time>
      </trkpt>
      <trkpt lat="46.03835" lon="4.53715">
        <ele>712</ele>
        <time>2016-11-27T11:35:38.000Z</time>
      </trkpt>
      <trkpt lat="46.03832" lon="4.53715">
        <ele>714</ele>
        <time>2016-11-27T11:35:39.000Z</time>
      </trkpt>
      <trkpt lat="46.03829" lon="4.53715">
        <ele>714</ele>
        <time>2016-11-27T11:35:40.000Z</time>
      </trkpt>
      <trkpt lat="46.03826" lon="4.53715">
        <ele>716</ele>
        <time>2016-11-27T11:35:41.000Z</time>
      </trkpt>
      <trkpt lat="46.03823" lon="4.53715">
        <ele>718</ele>
        <time>2016-11-27T11:35:42.000Z</time>
      </trkpt>
      <trkpt lat="46.0382" lon="4.53715">
        <ele>718</ele>
        <time>2016-11-27T11:35:43.000Z</time>
      </trkpt>
      <trkpt lat="46.03817" lon="4.53715">
        <ele>718</ele>
        <time>2016-11-27T11:35:44.000Z</time>
      </trkpt>
      <trkpt lat="46.03815" lon="4.53715">
        <ele>719</ele>
        <time>2016-11-27T11:35:45.000Z</time>
      </trkpt>
      <trkpt lat="46.03812" lon="4.53714">
        <ele>719</ele>
        <time>2016-11-27T11:35:46.000Z</time>
      </trkpt>
      <trkpt lat="46.0381" lon="4.53713">
        <ele>718</ele>
        <time>2016-11-27T11:35:47.000Z</time>
      </trkpt>
      <trkpt lat="46.03807" lon="4.53711">
        <ele>720</ele>
        <time>2016-11-27T11:35:48.000Z</time>
      </trkpt>
      <trkpt lat="46.03805" lon="4.5371">
        <ele>719</ele>
        <time>2016-11-27T11:35:49.000Z</time>
      </trkpt>
      <trkpt lat="46.03803" lon="4.53709">
        <ele>720</ele>
        <time>2016-11-27T11:35:50.000Z</time>
      </trkpt>
      <trkpt lat="46.03801" lon="4.53708">
        <ele>719</ele>
        <time>2016-11-27T11:35:51.000Z</time>
      </trkpt>
      <trkpt lat="46.03799" lon="4.53707">
        <ele>719</ele>
        <time>2016-11-27T11:35:52.000Z</time>
      </trkpt>
      <trkpt lat="46.03797" lon="4.53707">
        <ele>718</ele>
        <time>2016-11-27T11:35:53.000Z</time>
      </trkpt>
      <trkpt lat="46.03795" lon="4.53706">
        <ele>717</ele>
        <time>2016-11-27T11:35:54.000Z</time>
      </trkpt>
      <trkpt lat="46.03793" lon="4.53704">
        <ele>718</ele>
        <time>2016-11-27T11:35:55.000Z</time>
      </trkpt>
      <trkpt lat="46.03791" lon="4.53703">
        <ele>717</ele>
        <time>2016-11-27T11:35:56.000Z</time>
      </trkpt>
      <trkpt lat="46.0379" lon="4.53702">
        <ele>716</ele>
        <time>2016-11-27T11:35:57.000Z</time>
      </trkpt>
      <trkpt lat="46.03788" lon="4.53701">
        <ele>717</ele>
        <time>2016-11-27T11:35:58.000Z</time>
      </trkpt>
      <trkpt lat="46.03787" lon="4.53702">
        <ele>716</ele>
        <time>2016-11-27T11:35:59.000Z</time>
      </trkpt>
      <trkpt lat="46.03786" lon="4.53702">
        <ele>716</ele>
        <time>2016-11-27T11:36:00.000Z</time>
      </trkpt>
      <trkpt lat="46.03784" lon="4.53702">
        <ele>716</ele>
        <time>2016-11-27T11:36:01.000Z</time>
      </trkpt>
      <trkpt lat="46.03783" lon="4.53702">
        <ele>717</ele>
        <time>2016-11-27T11:36:02.000Z</time>
      </trkpt>
      <trkpt lat="46.03781" lon="4.53701">
        <ele>717</ele>
        <time>2016-11-27T11:36:03.000Z</time>
      </trkpt>
      <trkpt lat="46.03779" lon="4.537">
        <ele>716</ele>
        <time>2016-11-27T11:36:04.000Z</time>
      </trkpt>
      <trkpt lat="46.03778" lon="4.537">
        <ele>717</ele>
        <time>2016-11-27T11:36:05.000Z</time>
      </trkpt>
      <trkpt lat="46.03777" lon="4.537">
        <ele>717</ele>
        <time>2016-11-27T11:36:06.000Z</time>
      </trkpt>
      <trkpt lat="46.03777" lon="4.537">
        <ele>718</ele>
        <time>2016-11-27T11:36:07.000Z</time>
      </trkpt>
      <trkpt lat="46.03777" lon="4.537">
        <ele>718</ele>
        <time>2016-11-27T11:36:08.000Z</time>
      </trkpt>
      <trkpt lat="46.03776" lon="4.537">
        <ele>718</ele>
        <time>2016-11-27T11:36:09.000Z</time>
      </trkpt>
      <trkpt lat="46.03775" lon="4.53699">
        <ele>719</ele>
        <time>2016-11-27T11:36:10.000Z</time>
      </trkpt>
      <trkpt lat="46.03774" lon="4.53699">
        <ele>719</ele>
        <time>2016-11-27T11:36:11.000Z</time>
      </trkpt>
      <trkpt lat="46.03773" lon="4.53699">
        <ele>720</ele>
        <time>2016-11-27T11:36:12.000Z</time>
      </trkpt>
      <trkpt lat="46.03772" lon="4.53698">
        <ele>721</ele>
        <time>2016-11-27T11:36:13.000Z</time>
      </trkpt>
      <trkpt lat="46.03771" lon="4.53698">
        <ele>721</ele>
        <time>2016-11-27T11:36:14.000Z</time>
      </trkpt>
      <trkpt lat="46.0377" lon="4.53697">
        <ele>721</ele>
        <time>2016-11-27T11:36:15.000Z</time>
      </trkpt>
      <trkpt lat="46.03768" lon="4.53697">
        <ele>722</ele>
        <time>2016-11-27T11:36:16.000Z</time>
      </trkpt>
      <trkpt lat="46.03767" lon="4.53696">
        <ele>722</ele>
        <time>2016-11-27T11:36:17.000Z</time>
      </trkpt>
      <trkpt lat="46.03766" lon="4.53696">
        <ele>722</ele>
        <time>2016-11-27T11:36:18.000Z</time>
      </trkpt>
      <trkpt lat="46.03764" lon="4.53696">
        <ele>722</ele>
        <time>2016-11-27T11:36:19.000Z</time>
      </trkpt>
      <trkpt lat="46.03762" lon="4.53696">
        <ele>722</ele>
        <time>2016-11-27T11:36:20.000Z</time>
      </trkpt>
      <trkpt lat="46.03761" lon="4.53696">
        <ele>721</ele>
        <time>2016-11-27T11:36:21.000Z</time>
      </trkpt>
      <trkpt lat="46.0376" lon="4.53696">
        <ele>721</ele>
        <time>2016-11-27T11:36:22.000Z</time>
      </trkpt>
      <trkpt lat="46.03759" lon="4.53696">
        <ele>721</ele>
        <time>2016-11-27T11:36:23.000Z</time>
      </trkpt>
      <trkpt lat="46.03758" lon="4.53695">
        <ele>720</ele>
        <time>2016-11-27T11:36:24.000Z</time>
      </trkpt>
      <trkpt lat="46.03757" lon="4.53695">
        <ele>720</ele>
        <time>2016-11-27T11:36:25.000Z</time>
      </trkpt>
      <trkpt lat="46.03756" lon="4.53694">
        <ele>720</ele>
        <time>2016-11-27T11:36:26.000Z</time>
      </trkpt>
      <trkpt lat="46.03754" lon="4.53693">
        <ele>721</ele>
        <time>2016-11-27T11:36:27.000Z</time>
      </trkpt>
      <trkpt lat="46.03753" lon="4.53692">
        <ele>720</ele>
        <time>2016-11-27T11:36:28.000Z</time>
      </trkpt>
      <trkpt lat="46.0375" lon="4.53691">
        <ele>720</ele>
        <time>2016-11-27T11:36:29.000Z</time>
      </trkpt>
      <trkpt lat="46.03748" lon="4.53689">
        <ele>720</ele>
        <time>2016-11-27T11:36:30.000Z</time>
      </trkpt>
      <trkpt lat="46.03747" lon="4.53688">
        <ele>720</ele>
        <time>2016-11-27T11:36:31.000Z</time>
      </trkpt>
      <trkpt lat="46.03746" lon="4.53687">
        <ele>720</ele>
        <time>2016-11-27T11:36:32.000Z</time>
      </trkpt>
      <trkpt lat="46.03745" lon="4.53686">
        <ele>720</ele>
        <time>2016-11-27T11:36:33.000Z</time>
      </trkpt>
      <trkpt lat="46.03744" lon="4.53684">
        <ele>720</ele>
        <time>2016-11-27T11:36:34.000Z</time>
      </trkpt>
      <trkpt lat="46.03742" lon="4.53683">
        <ele>719</ele>
        <time>2016-11-27T11:36:35.000Z</time>
      </trkpt>
      <trkpt lat="46.0374" lon="4.53681">
        <ele>718</ele>
        <time>2016-11-27T11:36:36.000Z</time>
      </trkpt>
      <trkpt lat="46.03739" lon="4.5368">
        <ele>718</ele>
        <time>2016-11-27T11:36:37.000Z</time>
      </trkpt>
      <trkpt lat="46.03738" lon="4.53678">
        <ele>717</ele>
        <time>2016-11-27T11:36:38.000Z</time>
      </trkpt>
      <trkpt lat="46.03737" lon="4.53676">
        <ele>717</ele>
        <time>2016-11-27T11:36:39.000Z</time>
      </trkpt>
      <trkpt lat="46.03736" lon="4.53674">
        <ele>716</ele>
        <time>2016-11-27T11:36:40.000Z</time>
      </trkpt>
      <trkpt lat="46.03735" lon="4.53672">
        <ele>715</ele>
        <time>2016-11-27T11:36:41.000Z</time>
      </trkpt>
      <trkpt lat="46.03734" lon="4.53671">
        <ele>715</ele>
        <time>2016-11-27T11:36:42.000Z</time>
      </trkpt>
      <trkpt lat="46.03734" lon="4.5367">
        <ele>715</ele>
        <time>2016-11-27T11:36:43.000Z</time>
      </trkpt>
      <trkpt lat="46.03733" lon="4.5367">
        <ele>715</ele>
        <time>2016-11-27T11:36:44.000Z</time>
      </trkpt>
      <trkpt lat="46.03733" lon="4.53669">
        <ele>715</ele>
        <time>2016-11-27T11:36:45.000Z</time>
      </trkpt>
      <trkpt lat="46.03733" lon="4.53668">
        <ele>714</ele>
        <time>2016-11-27T11:36:46.000Z</time>
      </trkpt>
      <trkpt lat="46.03732" lon="4.53666">
        <ele>713</ele>
        <time>2016-11-27T11:36:47.000Z</time>
      </trkpt>
      <trkpt lat="46.03731" lon="4.53663">
        <ele>713</ele>
        <time>2016-11-27T11:36:48.000Z</time>
      </trkpt>
      <trkpt lat="46.0373" lon="4.5366">
        <ele>713</ele>
        <time>2016-11-27T11:36:49.000Z</time>
      </trkpt>
      <trkpt lat="46.0373" lon="4.53656">
        <ele>713</ele>
        <time>2016-11-27T11:36:50.000Z</time>
      </trkpt>
      <trkpt lat="46.03729" lon="4.53654">
        <ele>713</ele>
        <time>2016-11-27T11:36:51.000Z</time>
      </trkpt>
      <trkpt lat="46.03728" lon="4.53652">
        <ele>712</ele>
        <time>2016-11-27T11:36:52.000Z</time>
      </trkpt>
      <trkpt lat="46.03727" lon="4.53651">
        <ele>712</ele>
        <time>2016-11-27T11:36:53.000Z</time>
      </trkpt>
      <trkpt lat="46.03727" lon="4.5365">
        <ele>712</ele>
        <time>2016-11-27T11:36:54.000Z</time>
      </trkpt>
      <trkpt lat="46.03726" lon="4.53649">
        <ele>711</ele>
        <time>2016-11-27T11:36:55.000Z</time>
      </trkpt>
      <trkpt lat="46.03725" lon="4.53647">
        <ele>711</ele>
        <time>2016-11-27T11:36:56.000Z</time>
      </trkpt>
      <trkpt lat="46.03724" lon="4.53646">
        <ele>710</ele>
        <time>2016-11-27T11:36:57.000Z</time>
      </trkpt>
      <trkpt lat="46.03724" lon="4.53645">
        <ele>710</ele>
        <time>2016-11-27T11:36:58.000Z</time>
      </trkpt>
      <trkpt lat="46.03723" lon="4.53644">
        <ele>709</ele>
        <time>2016-11-27T11:36:59.000Z</time>
      </trkpt>
      <trkpt lat="46.03723" lon="4.53643">
        <ele>709</ele>
        <time>2016-11-27T11:37:00.000Z</time>
      </trkpt>
      <trkpt lat="46.03722" lon="4.53642">
        <ele>708</ele>
        <time>2016-11-27T11:37:01.000Z</time>
      </trkpt>
      <trkpt lat="46.03722" lon="4.53641">
        <ele>708</ele>
        <time>2016-11-27T11:37:02.000Z</time>
      </trkpt>
      <trkpt lat="46.03722" lon="4.53639">
        <ele>708</ele>
        <time>2016-11-27T11:37:03.000Z</time>
      </trkpt>
      <trkpt lat="46.03721" lon="4.53638">
        <ele>708</ele>
        <time>2016-11-27T11:37:04.000Z</time>
      </trkpt>
      <trkpt lat="46.03721" lon="4.53637">
        <ele>708</ele>
        <time>2016-11-27T11:37:05.000Z</time>
      </trkpt>
      <trkpt lat="46.03721" lon="4.53637">
        <ele>707</ele>
        <time>2016-11-27T11:37:06.000Z</time>
      </trkpt>
      <trkpt lat="46.03721" lon="4.53636">
        <ele>707</ele>
        <time>2016-11-27T11:37:07.000Z</time>
      </trkpt>
      <trkpt lat="46.0372" lon="4.53635">
        <ele>707</ele>
        <time>2016-11-27T11:37:08.000Z</time>
      </trkpt>
      <trkpt lat="46.0372" lon="4.53634">
        <ele>709</ele>
        <time>2016-11-27T11:37:09.000Z</time>
      </trkpt>
      <trkpt lat="46.03719" lon="4.53632">
        <ele>710</ele>
        <time>2016-11-27T11:37:10.000Z</time>
      </trkpt>
      <trkpt lat="46.03719" lon="4.5363">
        <ele>710</ele>
        <time>2016-11-27T11:37:11.000Z</time>
      </trkpt>
      <trkpt lat="46.0372" lon="4.53628">
        <ele>710</ele>
        <time>2016-11-27T11:37:12.000Z</time>
      </trkpt>
      <trkpt lat="46.0372" lon="4.53627">
        <ele>710</ele>
        <time>2016-11-27T11:37:13.000Z</time>
      </trkpt>
      <trkpt lat="46.0372" lon="4.53627">
        <ele>710</ele>
        <time>2016-11-27T11:37:14.000Z</time>
      </trkpt>
      <trkpt lat="46.0372" lon="4.53626">
        <ele>710</ele>
        <time>2016-11-27T11:37:15.000Z</time>
      </trkpt>
      <trkpt lat="46.0372" lon="4.53626">
        <ele>709</ele>
        <time>2016-11-27T11:37:16.000Z</time>
      </trkpt>
      <trkpt lat="46.0372" lon="4.53625">
        <ele>709</ele>
        <time>2016-11-27T11:37:17.000Z</time>
      </trkpt>
      <trkpt lat="46.0372" lon="4.53625">
        <ele>709</ele>
        <time>2016-11-27T11:37:18.000Z</time>
      </trkpt>
      <trkpt lat="46.0372" lon="4.53625">
        <ele>709</ele>
        <time>2016-11-27T11:37:19.000Z</time>
      </trkpt>
      <trkpt lat="46.0372" lon="4.53624">
        <ele>708</ele>
        <time>2016-11-27T11:37:20.000Z</time>
      </trkpt>
      <trkpt lat="46.0372" lon="4.53624">
        <ele>708</ele>
        <time>2016-11-27T11:37:21.000Z</time>
      </trkpt>
      <trkpt lat="46.0372" lon="4.53623">
        <ele>708</ele>
        <time>2016-11-27T11:37:22.000Z</time>
      </trkpt>
      <trkpt lat="46.0372" lon="4.53623">
        <ele>708</ele>
        <time>2016-11-27T11:37:23.000Z</time>
      </trkpt>
      <trkpt lat="46.0372" lon="4.53623">
        <ele>708</ele>
        <time>2016-11-27T11:37:24.000Z</time>
      </trkpt>
      <trkpt lat="46.0372" lon="4.53622">
        <ele>709</ele>
        <time>2016-11-27T11:37:25.000Z</time>
      </trkpt>
      <trkpt lat="46.0372" lon="4.5362">
        <ele>708</ele>
        <time>2016-11-27T11:37:26.000Z</time>
      </trkpt>
      <trkpt lat="46.0372" lon="4.53618">
        <ele>709</ele>
        <time>2016-11-27T11:37:27.000Z</time>
      </trkpt>
      <trkpt lat="46.03721" lon="4.53616">
        <ele>708</ele>
        <time>2016-11-27T11:37:28.000Z</time>
      </trkpt>
      <trkpt lat="46.03722" lon="4.53615">
        <ele>708</ele>
        <time>2016-11-27T11:37:29.000Z</time>
      </trkpt>
      <trkpt lat="46.03724" lon="4.53613">
        <ele>708</ele>
        <time>2016-11-27T11:37:30.000Z</time>
      </trkpt>
      <trkpt lat="46.03725" lon="4.53612">
        <ele>707</ele>
        <time>2016-11-27T11:37:31.000Z</time>
      </trkpt>
      <trkpt lat="46.03725" lon="4.5361">
        <ele>706</ele>
        <time>2016-11-27T11:37:32.000Z</time>
      </trkpt>
      <trkpt lat="46.03726" lon="4.53609">
        <ele>707</ele>
        <time>2016-11-27T11:37:33.000Z</time>
      </trkpt>
      <trkpt lat="46.03727" lon="4.53607">
        <ele>706</ele>
        <time>2016-11-27T11:37:34.000Z</time>
      </trkpt>
      <trkpt lat="46.03727" lon="4.53606">
        <ele>706</ele>
        <time>2016-11-27T11:37:35.000Z</time>
      </trkpt>
      <trkpt lat="46.03728" lon="4.53604">
        <ele>705</ele>
        <time>2016-11-27T11:37:36.000Z</time>
      </trkpt>
      <trkpt lat="46.03728" lon="4.53602">
        <ele>704</ele>
        <time>2016-11-27T11:37:37.000Z</time>
      </trkpt>
      <trkpt lat="46.03729" lon="4.53601">
        <ele>704</ele>
        <time>2016-11-27T11:37:38.000Z</time>
      </trkpt>
      <trkpt lat="46.03729" lon="4.53598">
        <ele>703</ele>
        <time>2016-11-27T11:37:39.000Z</time>
      </trkpt>
      <trkpt lat="46.03729" lon="4.53596">
        <ele>702</ele>
        <time>2016-11-27T11:37:40.000Z</time>
      </trkpt>
      <trkpt lat="46.03729" lon="4.53593">
        <ele>701</ele>
        <time>2016-11-27T11:37:41.000Z</time>
      </trkpt>
      <trkpt lat="46.03729" lon="4.53591">
        <ele>700</ele>
        <time>2016-11-27T11:37:42.000Z</time>
      </trkpt>
      <trkpt lat="46.03729" lon="4.53589">
        <ele>700</ele>
        <time>2016-11-27T11:37:43.000Z</time>
      </trkpt>
      <trkpt lat="46.03729" lon="4.53586">
        <ele>699</ele>
        <time>2016-11-27T11:37:44.000Z</time>
      </trkpt>
      <trkpt lat="46.03729" lon="4.53584">
        <ele>699</ele>
        <time>2016-11-27T11:37:45.000Z</time>
      </trkpt>
      <trkpt lat="46.03729" lon="4.53582">
        <ele>699</ele>
        <time>2016-11-27T11:37:46.000Z</time>
      </trkpt>
      <trkpt lat="46.03729" lon="4.5358">
        <ele>699</ele>
        <time>2016-11-27T11:37:47.000Z</time>
      </trkpt>
      <trkpt lat="46.03728" lon="4.53578">
        <ele>699</ele>
        <time>2016-11-27T11:37:48.000Z</time>
      </trkpt>
      <trkpt lat="46.03728" lon="4.53576">
        <ele>699</ele>
        <time>2016-11-27T11:37:49.000Z</time>
      </trkpt>
      <trkpt lat="46.03728" lon="4.53574">
        <ele>698</ele>
        <time>2016-11-27T11:37:50.000Z</time>
      </trkpt>
      <trkpt lat="46.03728" lon="4.53572">
        <ele>696</ele>
        <time>2016-11-27T11:37:51.000Z</time>
      </trkpt>
      <trkpt lat="46.03728" lon="4.5357">
        <ele>696</ele>
        <time>2016-11-27T11:37:52.000Z</time>
      </trkpt>
      <trkpt lat="46.03728" lon="4.53568">
        <ele>696</ele>
        <time>2016-11-27T11:37:53.000Z</time>
      </trkpt>
      <trkpt lat="46.03729" lon="4.53565">
        <ele>695</ele>
        <time>2016-11-27T11:37:54.000Z</time>
      </trkpt>
      <trkpt lat="46.03729" lon="4.53562">
        <ele>695</ele>
        <time>2016-11-27T11:37:55.000Z</time>
      </trkpt>
      <trkpt lat="46.03729" lon="4.5356">
        <ele>694</ele>
        <time>2016-11-27T11:37:56.000Z</time>
      </trkpt>
      <trkpt lat="46.03729" lon="4.53557">
        <ele>693</ele>
        <time>2016-11-27T11:37:57.000Z</time>
      </trkpt>
      <trkpt lat="46.03729" lon="4.53555">
        <ele>692</ele>
        <time>2016-11-27T11:37:58.000Z</time>
      </trkpt>
      <trkpt lat="46.03729" lon="4.53551">
        <ele>691</ele>
        <time>2016-11-27T11:37:59.000Z</time>
      </trkpt>
      <trkpt lat="46.03729" lon="4.53548">
        <ele>689</ele>
        <time>2016-11-27T11:38:00.000Z</time>
      </trkpt>
      <trkpt lat="46.0373" lon="4.53544">
        <ele>688</ele>
        <time>2016-11-27T11:38:01.000Z</time>
      </trkpt>
      <trkpt lat="46.03731" lon="4.5354">
        <ele>688</ele>
        <time>2016-11-27T11:38:02.000Z</time>
      </trkpt>
      <trkpt lat="46.03732" lon="4.53537">
        <ele>689</ele>
        <time>2016-11-27T11:38:03.000Z</time>
      </trkpt>
      <trkpt lat="46.03732" lon="4.53536">
        <ele>689</ele>
        <time>2016-11-27T11:38:04.000Z</time>
      </trkpt>
      <trkpt lat="46.03732" lon="4.53535">
        <ele>689</ele>
        <time>2016-11-27T11:38:05.000Z</time>
      </trkpt>
      <trkpt lat="46.03732" lon="4.53535">
        <ele>689</ele>
        <time>2016-11-27T11:38:06.000Z</time>
      </trkpt>
      <trkpt lat="46.03732" lon="4.53534">
        <ele>688</ele>
        <time>2016-11-27T11:38:07.000Z</time>
      </trkpt>
      <trkpt lat="46.03732" lon="4.53532">
        <ele>689</ele>
        <time>2016-11-27T11:38:08.000Z</time>
      </trkpt>
      <trkpt lat="46.03732" lon="4.53531">
        <ele>689</ele>
        <time>2016-11-27T11:38:09.000Z</time>
      </trkpt>
      <trkpt lat="46.03733" lon="4.53528">
        <ele>688</ele>
        <time>2016-11-27T11:38:10.000Z</time>
      </trkpt>
      <trkpt lat="46.03734" lon="4.53527">
        <ele>689</ele>
        <time>2016-11-27T11:38:11.000Z</time>
      </trkpt>
      <trkpt lat="46.03735" lon="4.53525">
        <ele>688</ele>
        <time>2016-11-27T11:38:12.000Z</time>
      </trkpt>
      <trkpt lat="46.03735" lon="4.53524">
        <ele>688</ele>
        <time>2016-11-27T11:38:13.000Z</time>
      </trkpt>
      <trkpt lat="46.03736" lon="4.53524">
        <ele>688</ele>
        <time>2016-11-27T11:38:14.000Z</time>
      </trkpt>
      <trkpt lat="46.03737" lon="4.53523">
        <ele>689</ele>
        <time>2016-11-27T11:38:15.000Z</time>
      </trkpt>
      <trkpt lat="46.03737" lon="4.53522">
        <ele>690</ele>
        <time>2016-11-27T11:38:16.000Z</time>
      </trkpt>
      <trkpt lat="46.03738" lon="4.53521">
        <ele>690</ele>
        <time>2016-11-27T11:38:17.000Z</time>
      </trkpt>
      <trkpt lat="46.03738" lon="4.5352">
        <ele>690</ele>
        <time>2016-11-27T11:38:18.000Z</time>
      </trkpt>
      <trkpt lat="46.03738" lon="4.5352">
        <ele>691</ele>
        <time>2016-11-27T11:38:19.000Z</time>
      </trkpt>
      <trkpt lat="46.03738" lon="4.5352">
        <ele>691</ele>
        <time>2016-11-27T11:38:20.000Z</time>
      </trkpt>
      <trkpt lat="46.03738" lon="4.53519">
        <ele>691</ele>
        <time>2016-11-27T11:38:21.000Z</time>
      </trkpt>
      <trkpt lat="46.03738" lon="4.53519">
        <ele>691</ele>
        <time>2016-11-27T11:38:22.000Z</time>
      </trkpt>
      <trkpt lat="46.03738" lon="4.53518">
        <ele>690</ele>
        <time>2016-11-27T11:38:23.000Z</time>
      </trkpt>
      <trkpt lat="46.03739" lon="4.53518">
        <ele>690</ele>
        <time>2016-11-27T11:38:24.000Z</time>
      </trkpt>
      <trkpt lat="46.03739" lon="4.53518">
        <ele>690</ele>
        <time>2016-11-27T11:38:25.000Z</time>
      </trkpt>
      <trkpt lat="46.0374" lon="4.53518">
        <ele>690</ele>
        <time>2016-11-27T11:38:26.000Z</time>
      </trkpt>
      <trkpt lat="46.03741" lon="4.53517">
        <ele>690</ele>
        <time>2016-11-27T11:38:27.000Z</time>
      </trkpt>
      <trkpt lat="46.03741" lon="4.53516">
        <ele>690</ele>
        <time>2016-11-27T11:38:28.000Z</time>
      </trkpt>
      <trkpt lat="46.03742" lon="4.53516">
        <ele>689</ele>
        <time>2016-11-27T11:38:29.000Z</time>
      </trkpt>
      <trkpt lat="46.03742" lon="4.53516">
        <ele>689</ele>
        <time>2016-11-27T11:38:30.000Z</time>
      </trkpt>
      <trkpt lat="46.03742" lon="4.53516">
        <ele>689</ele>
        <time>2016-11-27T11:38:31.000Z</time>
      </trkpt>
      <trkpt lat="46.03742" lon="4.53516">
        <ele>690</ele>
        <time>2016-11-27T11:38:32.000Z</time>
      </trkpt>
      <trkpt lat="46.03742" lon="4.53516">
        <ele>690</ele>
        <time>2016-11-27T11:38:33.000Z</time>
      </trkpt>
      <trkpt lat="46.03742" lon="4.53516">
        <ele>690</ele>
        <time>2016-11-27T11:38:34.000Z</time>
      </trkpt>
      <trkpt lat="46.03742" lon="4.53516">
        <ele>690</ele>
        <time>2016-11-27T11:38:35.000Z</time>
      </trkpt>
      <trkpt lat="46.03743" lon="4.53516">
        <ele>690</ele>
        <time>2016-11-27T11:38:36.000Z</time>
      </trkpt>
      <trkpt lat="46.03743" lon="4.53516">
        <ele>690</ele>
        <time>2016-11-27T11:38:37.000Z</time>
      </trkpt>
      <trkpt lat="46.03742" lon="4.53516">
        <ele>690</ele>
        <time>2016-11-27T11:38:38.000Z</time>
      </trkpt>
      <trkpt lat="46.03742" lon="4.53516">
        <ele>691</ele>
        <time>2016-11-27T11:38:39.000Z</time>
      </trkpt>
      <trkpt lat="46.03741" lon="4.53514">
        <ele>692</ele>
        <time>2016-11-27T11:38:40.000Z</time>
      </trkpt>
      <trkpt lat="46.03739" lon="4.53514">
        <ele>692</ele>
        <time>2016-11-27T11:38:41.000Z</time>
      </trkpt>
      <trkpt lat="46.03738" lon="4.53512">
        <ele>691</ele>
        <time>2016-11-27T11:38:42.000Z</time>
      </trkpt>
      <trkpt lat="46.03737" lon="4.53511">
        <ele>692</ele>
        <time>2016-11-27T11:38:43.000Z</time>
      </trkpt>
      <trkpt lat="46.03736" lon="4.5351">
        <ele>692</ele>
        <time>2016-11-27T11:38:44.000Z</time>
      </trkpt>
      <trkpt lat="46.03736" lon="4.53509">
        <ele>692</ele>
        <time>2016-11-27T11:38:45.000Z</time>
      </trkpt>
      <trkpt lat="46.03735" lon="4.53507">
        <ele>692</ele>
        <time>2016-11-27T11:38:46.000Z</time>
      </trkpt>
      <trkpt lat="46.03735" lon="4.53506">
        <ele>691</ele>
        <time>2016-11-27T11:38:47.000Z</time>
      </trkpt>
      <trkpt lat="46.03735" lon="4.53505">
        <ele>691</ele>
        <time>2016-11-27T11:38:48.000Z</time>
      </trkpt>
      <trkpt lat="46.03735" lon="4.53504">
        <ele>691</ele>
        <time>2016-11-27T11:38:49.000Z</time>
      </trkpt>
      <trkpt lat="46.03734" lon="4.53503">
        <ele>690</ele>
        <time>2016-11-27T11:38:50.000Z</time>
      </trkpt>
      <trkpt lat="46.03734" lon="4.53501">
        <ele>689</ele>
        <time>2016-11-27T11:38:51.000Z</time>
      </trkpt>
      <trkpt lat="46.03734" lon="4.535">
        <ele>688</ele>
        <time>2016-11-27T11:38:52.000Z</time>
      </trkpt>
      <trkpt lat="46.03734" lon="4.53499">
        <ele>688</ele>
        <time>2016-11-27T11:38:53.000Z</time>
      </trkpt>
      <trkpt lat="46.03734" lon="4.53499">
        <ele>688</ele>
        <time>2016-11-27T11:38:54.000Z</time>
      </trkpt>
      <trkpt lat="46.03734" lon="4.53498">
        <ele>688</ele>
        <time>2016-11-27T11:38:55.000Z</time>
      </trkpt>
      <trkpt lat="46.03733" lon="4.53498">
        <ele>688</ele>
        <time>2016-11-27T11:38:56.000Z</time>
      </trkpt>
      <trkpt lat="46.03733" lon="4.53497">
        <ele>688</ele>
        <time>2016-11-27T11:38:57.000Z</time>
      </trkpt>
      <trkpt lat="46.03733" lon="4.53497">
        <ele>688</ele>
        <time>2016-11-27T11:38:58.000Z</time>
      </trkpt>
      <trkpt lat="46.03732" lon="4.53496">
        <ele>689</ele>
        <time>2016-11-27T11:38:59.000Z</time>
      </trkpt>
      <trkpt lat="46.03732" lon="4.53496">
        <ele>688</ele>
        <time>2016-11-27T11:39:00.000Z</time>
      </trkpt>
      <trkpt lat="46.03732" lon="4.53495">
        <ele>688</ele>
        <time>2016-11-27T11:39:01.000Z</time>
      </trkpt>
      <trkpt lat="46.03732" lon="4.53494">
        <ele>689</ele>
        <time>2016-11-27T11:39:02.000Z</time>
      </trkpt>
      <trkpt lat="46.03731" lon="4.53493">
        <ele>688</ele>
        <time>2016-11-27T11:39:03.000Z</time>
      </trkpt>
      <trkpt lat="46.03731" lon="4.53491">
        <ele>688</ele>
        <time>2016-11-27T11:39:04.000Z</time>
      </trkpt>
      <trkpt lat="46.03731" lon="4.53489">
        <ele>688</ele>
        <time>2016-11-27T11:39:05.000Z</time>
      </trkpt>
      <trkpt lat="46.03731" lon="4.53487">
        <ele>688</ele>
        <time>2016-11-27T11:39:06.000Z</time>
      </trkpt>
      <trkpt lat="46.03731" lon="4.53484">
        <ele>687</ele>
        <time>2016-11-27T11:39:07.000Z</time>
      </trkpt>
      <trkpt lat="46.0373" lon="4.53482">
        <ele>686</ele>
        <time>2016-11-27T11:39:08.000Z</time>
      </trkpt>
      <trkpt lat="46.0373" lon="4.5348">
        <ele>684</ele>
        <time>2016-11-27T11:39:09.000Z</time>
      </trkpt>
      <trkpt lat="46.03729" lon="4.53478">
        <ele>683</ele>
        <time>2016-11-27T11:39:10.000Z</time>
      </trkpt>
      <trkpt lat="46.03728" lon="4.53476">
        <ele>682</ele>
        <time>2016-11-27T11:39:11.000Z</time>
      </trkpt>
      <trkpt lat="46.03728" lon="4.53472">
        <ele>680</ele>
        <time>2016-11-27T11:39:12.000Z</time>
      </trkpt>
      <trkpt lat="46.03728" lon="4.53469">
        <ele>679</ele>
        <time>2016-11-27T11:39:13.000Z</time>
      </trkpt>
      <trkpt lat="46.03729" lon="4.53465">
        <ele>677</ele>
        <time>2016-11-27T11:39:14.000Z</time>
      </trkpt>
      <trkpt lat="46.03729" lon="4.53461">
        <ele>676</ele>
        <time>2016-11-27T11:39:15.000Z</time>
      </trkpt>
      <trkpt lat="46.03728" lon="4.53458">
        <ele>675</ele>
        <time>2016-11-27T11:39:16.000Z</time>
      </trkpt>
      <trkpt lat="46.03727" lon="4.53454">
        <ele>672</ele>
        <time>2016-11-27T11:39:17.000Z</time>
      </trkpt>
      <trkpt lat="46.03725" lon="4.5345">
        <ele>670</ele>
        <time>2016-11-27T11:39:18.000Z</time>
      </trkpt>
      <trkpt lat="46.03723" lon="4.53446">
        <ele>667</ele>
        <time>2016-11-27T11:39:19.000Z</time>
      </trkpt>
      <trkpt lat="46.03721" lon="4.53443">
        <ele>666</ele>
        <time>2016-11-27T11:39:20.000Z</time>
      </trkpt>
      <trkpt lat="46.0372" lon="4.5344">
        <ele>665</ele>
        <time>2016-11-27T11:39:21.000Z</time>
      </trkpt>
      <trkpt lat="46.03718" lon="4.53438">
        <ele>663</ele>
        <time>2016-11-27T11:39:22.000Z</time>
      </trkpt>
      <trkpt lat="46.03716" lon="4.53436">
        <ele>661</ele>
        <time>2016-11-27T11:39:23.000Z</time>
      </trkpt>
      <trkpt lat="46.03714" lon="4.53435">
        <ele>661</ele>
        <time>2016-11-27T11:39:24.000Z</time>
      </trkpt>
      <trkpt lat="46.03713" lon="4.53434">
        <ele>661</ele>
        <time>2016-11-27T11:39:25.000Z</time>
      </trkpt>
      <trkpt lat="46.03712" lon="4.53433">
        <ele>660</ele>
        <time>2016-11-27T11:39:26.000Z</time>
      </trkpt>
      <trkpt lat="46.0371" lon="4.53432">
        <ele>660</ele>
        <time>2016-11-27T11:39:27.000Z</time>
      </trkpt>
      <trkpt lat="46.03709" lon="4.53431">
        <ele>661</ele>
        <time>2016-11-27T11:39:28.000Z</time>
      </trkpt>
      <trkpt lat="46.03707" lon="4.53429">
        <ele>662</ele>
        <time>2016-11-27T11:39:29.000Z</time>
      </trkpt>
      <trkpt lat="46.03706" lon="4.53428">
        <ele>661</ele>
        <time>2016-11-27T11:39:30.000Z</time>
      </trkpt>
      <trkpt lat="46.03704" lon="4.53427">
        <ele>662</ele>
        <time>2016-11-27T11:39:31.000Z</time>
      </trkpt>
      <trkpt lat="46.03703" lon="4.53426">
        <ele>662</ele>
        <time>2016-11-27T11:39:32.000Z</time>
      </trkpt>
      <trkpt lat="46.03702" lon="4.53424">
        <ele>662</ele>
        <time>2016-11-27T11:39:33.000Z</time>
      </trkpt>
      <trkpt lat="46.037" lon="4.53422">
        <ele>662</ele>
        <time>2016-11-27T11:39:34.000Z</time>
      </trkpt>
      <trkpt lat="46.03699" lon="4.53421">
        <ele>663</ele>
        <time>2016-11-27T11:39:35.000Z</time>
      </trkpt>
      <trkpt lat="46.03698" lon="4.53419">
        <ele>664</ele>
        <time>2016-11-27T11:39:36.000Z</time>
      </trkpt>
      <trkpt lat="46.03696" lon="4.53417">
        <ele>665</ele>
        <time>2016-11-27T11:39:37.000Z</time>
      </trkpt>
      <trkpt lat="46.03695" lon="4.53415">
        <ele>665</ele>
        <time>2016-11-27T11:39:38.000Z</time>
      </trkpt>
      <trkpt lat="46.03693" lon="4.53414">
        <ele>665</ele>
        <time>2016-11-27T11:39:39.000Z</time>
      </trkpt>
      <trkpt lat="46.03692" lon="4.53412">
        <ele>664</ele>
        <time>2016-11-27T11:39:40.000Z</time>
      </trkpt>
      <trkpt lat="46.03691" lon="4.53411">
        <ele>664</ele>
        <time>2016-11-27T11:39:41.000Z</time>
      </trkpt>
      <trkpt lat="46.03689" lon="4.5341">
        <ele>664</ele>
        <time>2016-11-27T11:39:42.000Z</time>
      </trkpt>
      <trkpt lat="46.03688" lon="4.53409">
        <ele>664</ele>
        <time>2016-11-27T11:39:43.000Z</time>
      </trkpt>
      <trkpt lat="46.03687" lon="4.53408">
        <ele>664</ele>
        <time>2016-11-27T11:39:44.000Z</time>
      </trkpt>
      <trkpt lat="46.03685" lon="4.53408">
        <ele>663</ele>
        <time>2016-11-27T11:39:45.000Z</time>
      </trkpt>
      <trkpt lat="46.03683" lon="4.53407">
        <ele>663</ele>
        <time>2016-11-27T11:39:46.000Z</time>
      </trkpt>
      <trkpt lat="46.03682" lon="4.53407">
        <ele>663</ele>
        <time>2016-11-27T11:39:47.000Z</time>
      </trkpt>
      <trkpt lat="46.0368" lon="4.53406">
        <ele>663</ele>
        <time>2016-11-27T11:39:48.000Z</time>
      </trkpt>
      <trkpt lat="46.03678" lon="4.53406">
        <ele>663</ele>
        <time>2016-11-27T11:39:49.000Z</time>
      </trkpt>
      <trkpt lat="46.03677" lon="4.53405">
        <ele>662</ele>
        <time>2016-11-27T11:39:50.000Z</time>
      </trkpt>
      <trkpt lat="46.03675" lon="4.53404">
        <ele>662</ele>
        <time>2016-11-27T11:39:51.000Z</time>
      </trkpt>
      <trkpt lat="46.03673" lon="4.53404">
        <ele>662</ele>
        <time>2016-11-27T11:39:52.000Z</time>
      </trkpt>
      <trkpt lat="46.03672" lon="4.53403">
        <ele>662</ele>
        <time>2016-11-27T11:39:53.000Z</time>
      </trkpt>
      <trkpt lat="46.0367" lon="4.53402">
        <ele>661</ele>
        <time>2016-11-27T11:39:54.000Z</time>
      </trkpt>
      <trkpt lat="46.03669" lon="4.53401">
        <ele>661</ele>
        <time>2016-11-27T11:39:55.000Z</time>
      </trkpt>
      <trkpt lat="46.03667" lon="4.534">
        <ele>661</ele>
        <time>2016-11-27T11:39:56.000Z</time>
      </trkpt>
      <trkpt lat="46.03666" lon="4.53399">
        <ele>661</ele>
        <time>2016-11-27T11:39:57.000Z</time>
      </trkpt>
      <trkpt lat="46.03665" lon="4.53398">
        <ele>660</ele>
        <time>2016-11-27T11:39:58.000Z</time>
      </trkpt>
      <trkpt lat="46.03663" lon="4.53397">
        <ele>660</ele>
        <time>2016-11-27T11:39:59.000Z</time>
      </trkpt>
      <trkpt lat="46.03662" lon="4.53396">
        <ele>660</ele>
        <time>2016-11-27T11:40:00.000Z</time>
      </trkpt>
      <trkpt lat="46.03661" lon="4.53395">
        <ele>659</ele>
        <time>2016-11-27T11:40:01.000Z</time>
      </trkpt>
      <trkpt lat="46.03659" lon="4.53394">
        <ele>659</ele>
        <time>2016-11-27T11:40:02.000Z</time>
      </trkpt>
      <trkpt lat="46.03658" lon="4.53393">
        <ele>659</ele>
        <time>2016-11-27T11:40:03.000Z</time>
      </trkpt>
      <trkpt lat="46.03657" lon="4.53392">
        <ele>660</ele>
        <time>2016-11-27T11:40:04.000Z</time>
      </trkpt>
      <trkpt lat="46.03656" lon="4.53391">
        <ele>659</ele>
        <time>2016-11-27T11:40:05.000Z</time>
      </trkpt>
      <trkpt lat="46.03656" lon="4.53391">
        <ele>659</ele>
        <time>2016-11-27T11:40:06.000Z</time>
      </trkpt>
      <trkpt lat="46.03655" lon="4.5339">
        <ele>659</ele>
        <time>2016-11-27T11:40:07.000Z</time>
      </trkpt>
      <trkpt lat="46.03655" lon="4.53389">
        <ele>659</ele>
        <time>2016-11-27T11:40:08.000Z</time>
      </trkpt>
      <trkpt lat="46.03654" lon="4.53389">
        <ele>659</ele>
        <time>2016-11-27T11:40:09.000Z</time>
      </trkpt>
      <trkpt lat="46.03654" lon="4.53389">
        <ele>658</ele>
        <time>2016-11-27T11:40:10.000Z</time>
      </trkpt>
      <trkpt lat="46.03653" lon="4.53388">
        <ele>659</ele>
        <time>2016-11-27T11:40:11.000Z</time>
      </trkpt>
      <trkpt lat="46.03653" lon="4.53388">
        <ele>658</ele>
        <time>2016-11-27T11:40:12.000Z</time>
      </trkpt>
      <trkpt lat="46.03653" lon="4.53387">
        <ele>658</ele>
        <time>2016-11-27T11:40:13.000Z</time>
      </trkpt>
      <trkpt lat="46.03653" lon="4.53387">
        <ele>658</ele>
        <time>2016-11-27T11:40:14.000Z</time>
      </trkpt>
      <trkpt lat="46.03653" lon="4.53387">
        <ele>659</ele>
        <time>2016-11-27T11:40:15.000Z</time>
      </trkpt>
      <trkpt lat="46.03654" lon="4.53386">
        <ele>660</ele>
        <time>2016-11-27T11:40:16.000Z</time>
      </trkpt>
      <trkpt lat="46.03654" lon="4.53386">
        <ele>660</ele>
        <time>2016-11-27T11:40:17.000Z</time>
      </trkpt>
      <trkpt lat="46.03654" lon="4.53385">
        <ele>661</ele>
        <time>2016-11-27T11:40:18.000Z</time>
      </trkpt>
      <trkpt lat="46.03654" lon="4.53385">
        <ele>661</ele>
        <time>2016-11-27T11:40:19.000Z</time>
      </trkpt>
      <trkpt lat="46.03654" lon="4.53385">
        <ele>661</ele>
        <time>2016-11-27T11:40:20.000Z</time>
      </trkpt>
      <trkpt lat="46.03654" lon="4.53385">
        <ele>662</ele>
        <time>2016-11-27T11:40:21.000Z</time>
      </trkpt>
      <trkpt lat="46.03654" lon="4.53384">
        <ele>662</ele>
        <time>2016-11-27T11:40:22.000Z</time>
      </trkpt>
      <trkpt lat="46.03654" lon="4.53384">
        <ele>663</ele>
        <time>2016-11-27T11:40:23.000Z</time>
      </trkpt>
      <trkpt lat="46.03654" lon="4.53383">
        <ele>663</ele>
        <time>2016-11-27T11:40:24.000Z</time>
      </trkpt>
      <trkpt lat="46.03654" lon="4.53383">
        <ele>663</ele>
        <time>2016-11-27T11:40:25.000Z</time>
      </trkpt>
      <trkpt lat="46.03654" lon="4.53383">
        <ele>664</ele>
        <time>2016-11-27T11:40:26.000Z</time>
      </trkpt>
      <trkpt lat="46.03654" lon="4.53383">
        <ele>664</ele>
        <time>2016-11-27T11:40:27.000Z</time>
      </trkpt>
      <trkpt lat="46.03654" lon="4.53382">
        <ele>664</ele>
        <time>2016-11-27T11:40:28.000Z</time>
      </trkpt>
      <trkpt lat="46.03653" lon="4.53382">
        <ele>664</ele>
        <time>2016-11-27T11:40:29.000Z</time>
      </trkpt>
      <trkpt lat="46.03653" lon="4.53381">
        <ele>665</ele>
        <time>2016-11-27T11:40:30.000Z</time>
      </trkpt>
      <trkpt lat="46.03653" lon="4.53381">
        <ele>665</ele>
        <time>2016-11-27T11:40:31.000Z</time>
      </trkpt>
      <trkpt lat="46.03653" lon="4.53381">
        <ele>665</ele>
        <time>2016-11-27T11:40:32.000Z</time>
      </trkpt>
      <trkpt lat="46.03653" lon="4.53381">
        <ele>666</ele>
        <time>2016-11-27T11:40:33.000Z</time>
      </trkpt>
      <trkpt lat="46.03653" lon="4.5338">
        <ele>666</ele>
        <time>2016-11-27T11:40:34.000Z</time>
      </trkpt>
      <trkpt lat="46.03653" lon="4.5338">
        <ele>666</ele>
        <time>2016-11-27T11:40:35.000Z</time>
      </trkpt>
      <trkpt lat="46.03653" lon="4.5338">
        <ele>667</ele>
        <time>2016-11-27T11:40:36.000Z</time>
      </trkpt>
      <trkpt lat="46.03653" lon="4.53379">
        <ele>666</ele>
        <time>2016-11-27T11:40:37.000Z</time>
      </trkpt>
      <trkpt lat="46.03653" lon="4.53379">
        <ele>667</ele>
        <time>2016-11-27T11:40:38.000Z</time>
      </trkpt>
      <trkpt lat="46.03653" lon="4.53379">
        <ele>668</ele>
        <time>2016-11-27T11:40:39.000Z</time>
      </trkpt>
      <trkpt lat="46.03652" lon="4.53379">
        <ele>668</ele>
        <time>2016-11-27T11:40:40.000Z</time>
      </trkpt>
      <trkpt lat="46.03652" lon="4.53378">
        <ele>668</ele>
        <time>2016-11-27T11:40:41.000Z</time>
      </trkpt>
      <trkpt lat="46.03652" lon="4.53378">
        <ele>669</ele>
        <time>2016-11-27T11:40:42.000Z</time>
      </trkpt>
      <trkpt lat="46.03652" lon="4.53378">
        <ele>669</ele>
        <time>2016-11-27T11:40:43.000Z</time>
      </trkpt>
      <trkpt lat="46.03652" lon="4.53378">
        <ele>668</ele>
        <time>2016-11-27T11:40:44.000Z</time>
      </trkpt>
      <trkpt lat="46.03652" lon="4.53378">
        <ele>669</ele>
        <time>2016-11-27T11:40:45.000Z</time>
      </trkpt>
      <trkpt lat="46.03652" lon="4.53378">
        <ele>669</ele>
        <time>2016-11-27T11:40:46.000Z</time>
      </trkpt>
      <trkpt lat="46.03652" lon="4.53378">
        <ele>668</ele>
        <time>2016-11-27T11:40:47.000Z</time>
      </trkpt>
      <trkpt lat="46.03652" lon="4.53378">
        <ele>668</ele>
        <time>2016-11-27T11:40:48.000Z</time>
      </trkpt>
      <trkpt lat="46.03652" lon="4.53378">
        <ele>668</ele>
        <time>2016-11-27T11:40:49.000Z</time>
      </trkpt>
      <trkpt lat="46.03651" lon="4.53377">
        <ele>668</ele>
        <time>2016-11-27T11:40:50.000Z</time>
      </trkpt>
      <trkpt lat="46.03651" lon="4.53377">
        <ele>668</ele>
        <time>2016-11-27T11:40:51.000Z</time>
      </trkpt>
      <trkpt lat="46.03651" lon="4.53377">
        <ele>668</ele>
        <time>2016-11-27T11:40:52.000Z</time>
      </trkpt>
      <trkpt lat="46.03651" lon="4.53376">
        <ele>668</ele>
        <time>2016-11-27T11:40:53.000Z</time>
      </trkpt>
      <trkpt lat="46.0365" lon="4.53376">
        <ele>668</ele>
        <time>2016-11-27T11:40:54.000Z</time>
      </trkpt>
      <trkpt lat="46.03649" lon="4.53376">
        <ele>668</ele>
        <time>2016-11-27T11:40:55.000Z</time>
      </trkpt>
      <trkpt lat="46.03649" lon="4.53376">
        <ele>668</ele>
        <time>2016-11-27T11:40:56.000Z</time>
      </trkpt>
      <trkpt lat="46.03648" lon="4.53375">
        <ele>668</ele>
        <time>2016-11-27T11:40:57.000Z</time>
      </trkpt>
      <trkpt lat="46.03648" lon="4.53375">
        <ele>668</ele>
        <time>2016-11-27T11:40:58.000Z</time>
      </trkpt>
      <trkpt lat="46.03647" lon="4.53374">
        <ele>668</ele>
        <time>2016-11-27T11:40:59.000Z</time>
      </trkpt>
      <trkpt lat="46.03646" lon="4.53373">
        <ele>669</ele>
        <time>2016-11-27T11:41:00.000Z</time>
      </trkpt>
      <trkpt lat="46.03645" lon="4.53372">
        <ele>669</ele>
        <time>2016-11-27T11:41:01.000Z</time>
      </trkpt>
      <trkpt lat="46.03644" lon="4.5337">
        <ele>669</ele>
        <time>2016-11-27T11:41:02.000Z</time>
      </trkpt>
      <trkpt lat="46.03643" lon="4.53369">
        <ele>670</ele>
        <time>2016-11-27T11:41:03.000Z</time>
      </trkpt>
      <trkpt lat="46.03642" lon="4.53368">
        <ele>670</ele>
        <time>2016-11-27T11:41:04.000Z</time>
      </trkpt>
      <trkpt lat="46.03641" lon="4.53366">
        <ele>670</ele>
        <time>2016-11-27T11:41:05.000Z</time>
      </trkpt>
      <trkpt lat="46.0364" lon="4.53365">
        <ele>670</ele>
        <time>2016-11-27T11:41:06.000Z</time>
      </trkpt>
      <trkpt lat="46.03639" lon="4.53364">
        <ele>670</ele>
        <time>2016-11-27T11:41:07.000Z</time>
      </trkpt>
      <trkpt lat="46.03638" lon="4.53363">
        <ele>669</ele>
        <time>2016-11-27T11:41:08.000Z</time>
      </trkpt>
      <trkpt lat="46.03638" lon="4.53362">
        <ele>669</ele>
        <time>2016-11-27T11:41:09.000Z</time>
      </trkpt>
      <trkpt lat="46.03637" lon="4.53361">
        <ele>669</ele>
        <time>2016-11-27T11:41:10.000Z</time>
      </trkpt>
      <trkpt lat="46.03636" lon="4.5336">
        <ele>669</ele>
        <time>2016-11-27T11:41:11.000Z</time>
      </trkpt>
      <trkpt lat="46.03635" lon="4.53359">
        <ele>669</ele>
        <time>2016-11-27T11:41:12.000Z</time>
      </trkpt>
      <trkpt lat="46.03634" lon="4.53359">
        <ele>669</ele>
        <time>2016-11-27T11:41:13.000Z</time>
      </trkpt>
      <trkpt lat="46.03633" lon="4.53359">
        <ele>668</ele>
        <time>2016-11-27T11:41:14.000Z</time>
      </trkpt>
      <trkpt lat="46.03633" lon="4.53358">
        <ele>667</ele>
        <time>2016-11-27T11:41:15.000Z</time>
      </trkpt>
      <trkpt lat="46.03631" lon="4.53358">
        <ele>668</ele>
        <time>2016-11-27T11:41:16.000Z</time>
      </trkpt>
      <trkpt lat="46.0363" lon="4.53356">
        <ele>669</ele>
        <time>2016-11-27T11:41:17.000Z</time>
      </trkpt>
      <trkpt lat="46.03629" lon="4.53355">
        <ele>670</ele>
        <time>2016-11-27T11:41:18.000Z</time>
      </trkpt>
      <trkpt lat="46.03628" lon="4.53354">
        <ele>670</ele>
        <time>2016-11-27T11:41:19.000Z</time>
      </trkpt>
      <trkpt lat="46.03628" lon="4.53353">
        <ele>670</ele>
        <time>2016-11-27T11:41:20.000Z</time>
      </trkpt>
      <trkpt lat="46.03627" lon="4.53352">
        <ele>670</ele>
        <time>2016-11-27T11:41:21.000Z</time>
      </trkpt>
      <trkpt lat="46.03626" lon="4.53352">
        <ele>670</ele>
        <time>2016-11-27T11:41:22.000Z</time>
      </trkpt>
      <trkpt lat="46.03626" lon="4.53352">
        <ele>669</ele>
        <time>2016-11-27T11:41:23.000Z</time>
      </trkpt>
      <trkpt lat="46.03625" lon="4.53351">
        <ele>670</ele>
        <time>2016-11-27T11:41:24.000Z</time>
      </trkpt>
      <trkpt lat="46.03624" lon="4.53351">
        <ele>669</ele>
        <time>2016-11-27T11:41:25.000Z</time>
      </trkpt>
      <trkpt lat="46.03624" lon="4.5335">
        <ele>668</ele>
        <time>2016-11-27T11:41:26.000Z</time>
      </trkpt>
      <trkpt lat="46.03624" lon="4.5335">
        <ele>668</ele>
        <time>2016-11-27T11:41:27.000Z</time>
      </trkpt>
      <trkpt lat="46.03624" lon="4.53349">
        <ele>667</ele>
        <time>2016-11-27T11:41:28.000Z</time>
      </trkpt>
      <trkpt lat="46.03624" lon="4.53348">
        <ele>662</ele>
        <time>2016-11-27T11:41:29.000Z</time>
      </trkpt>
      <trkpt lat="46.03624" lon="4.53347">
        <ele>658</ele>
        <time>2016-11-27T11:41:30.000Z</time>
      </trkpt>
      <trkpt lat="46.03625" lon="4.53347">
        <ele>656</ele>
        <time>2016-11-27T11:41:31.000Z</time>
      </trkpt>
      <trkpt lat="46.03626" lon="4.53346">
        <ele>655</ele>
        <time>2016-11-27T11:41:32.000Z</time>
      </trkpt>
      <trkpt lat="46.03627" lon="4.53345">
        <ele>655</ele>
        <time>2016-11-27T11:41:33.000Z</time>
      </trkpt>
      <trkpt lat="46.03628" lon="4.53344">
        <ele>655</ele>
        <time>2016-11-27T11:41:34.000Z</time>
      </trkpt>
      <trkpt lat="46.03628" lon="4.53344">
        <ele>655</ele>
        <time>2016-11-27T11:41:35.000Z</time>
      </trkpt>
      <trkpt lat="46.03629" lon="4.53342">
        <ele>655</ele>
        <time>2016-11-27T11:41:36.000Z</time>
      </trkpt>
      <trkpt lat="46.03629" lon="4.53341">
        <ele>655</ele>
        <time>2016-11-27T11:41:37.000Z</time>
      </trkpt>
      <trkpt lat="46.0363" lon="4.53339">
        <ele>655</ele>
        <time>2016-11-27T11:41:38.000Z</time>
      </trkpt>
      <trkpt lat="46.0363" lon="4.53338">
        <ele>655</ele>
        <time>2016-11-27T11:41:39.000Z</time>
      </trkpt>
      <trkpt lat="46.0363" lon="4.53336">
        <ele>655</ele>
        <time>2016-11-27T11:41:40.000Z</time>
      </trkpt>
      <trkpt lat="46.03631" lon="4.53335">
        <ele>655</ele>
        <time>2016-11-27T11:41:41.000Z</time>
      </trkpt>
      <trkpt lat="46.03632" lon="4.53333">
        <ele>655</ele>
        <time>2016-11-27T11:41:42.000Z</time>
      </trkpt>
      <trkpt lat="46.03633" lon="4.53332">
        <ele>654</ele>
        <time>2016-11-27T11:41:43.000Z</time>
      </trkpt>
      <trkpt lat="46.03634" lon="4.53331">
        <ele>653</ele>
        <time>2016-11-27T11:41:44.000Z</time>
      </trkpt>
      <trkpt lat="46.03634" lon="4.5333">
        <ele>652</ele>
        <time>2016-11-27T11:41:45.000Z</time>
      </trkpt>
      <trkpt lat="46.03635" lon="4.53329">
        <ele>652</ele>
        <time>2016-11-27T11:41:46.000Z</time>
      </trkpt>
      <trkpt lat="46.03635" lon="4.53328">
        <ele>653</ele>
        <time>2016-11-27T11:41:47.000Z</time>
      </trkpt>
      <trkpt lat="46.03636" lon="4.53326">
        <ele>651</ele>
        <time>2016-11-27T11:41:48.000Z</time>
      </trkpt>
      <trkpt lat="46.03636" lon="4.53325">
        <ele>651</ele>
        <time>2016-11-27T11:41:49.000Z</time>
      </trkpt>
      <trkpt lat="46.03635" lon="4.53324">
        <ele>650</ele>
        <time>2016-11-27T11:41:50.000Z</time>
      </trkpt>
      <trkpt lat="46.03635" lon="4.53323">
        <ele>650</ele>
        <time>2016-11-27T11:41:51.000Z</time>
      </trkpt>
      <trkpt lat="46.03635" lon="4.53323">
        <ele>650</ele>
        <time>2016-11-27T11:41:52.000Z</time>
      </trkpt>
      <trkpt lat="46.03634" lon="4.53322">
        <ele>650</ele>
        <time>2016-11-27T11:41:53.000Z</time>
      </trkpt>
      <trkpt lat="46.03634" lon="4.53322">
        <ele>650</ele>
        <time>2016-11-27T11:41:54.000Z</time>
      </trkpt>
      <trkpt lat="46.03634" lon="4.53321">
        <ele>650</ele>
        <time>2016-11-27T11:41:55.000Z</time>
      </trkpt>
      <trkpt lat="46.03634" lon="4.53321">
        <ele>650</ele>
        <time>2016-11-27T11:41:56.000Z</time>
      </trkpt>
      <trkpt lat="46.03634" lon="4.53321">
        <ele>650</ele>
        <time>2016-11-27T11:41:57.000Z</time>
      </trkpt>
      <trkpt lat="46.03634" lon="4.53321">
        <ele>649</ele>
        <time>2016-11-27T11:41:58.000Z</time>
      </trkpt>
      <trkpt lat="46.03635" lon="4.5332">
        <ele>649</ele>
        <time>2016-11-27T11:41:59.000Z</time>
      </trkpt>
      <trkpt lat="46.03635" lon="4.53319">
        <ele>650</ele>
        <time>2016-11-27T11:42:00.000Z</time>
      </trkpt>
      <trkpt lat="46.03635" lon="4.53319">
        <ele>650</ele>
        <time>2016-11-27T11:42:01.000Z</time>
      </trkpt>
      <trkpt lat="46.03636" lon="4.53319">
        <ele>650</ele>
        <time>2016-11-27T11:42:02.000Z</time>
      </trkpt>
      <trkpt lat="46.03636" lon="4.53318">
        <ele>650</ele>
        <time>2016-11-27T11:42:03.000Z</time>
      </trkpt>
      <trkpt lat="46.03636" lon="4.53318">
        <ele>650</ele>
        <time>2016-11-27T11:42:04.000Z</time>
      </trkpt>
      <trkpt lat="46.03636" lon="4.53318">
        <ele>650</ele>
        <time>2016-11-27T11:42:05.000Z</time>
      </trkpt>
      <trkpt lat="46.03637" lon="4.53317">
        <ele>650</ele>
        <time>2016-11-27T11:42:06.000Z</time>
      </trkpt>
      <trkpt lat="46.03637" lon="4.53317">
        <ele>650</ele>
        <time>2016-11-27T11:42:07.000Z</time>
      </trkpt>
      <trkpt lat="46.03638" lon="4.53317">
        <ele>647</ele>
        <time>2016-11-27T11:42:08.000Z</time>
      </trkpt>
      <trkpt lat="46.03638" lon="4.53316">
        <ele>646</ele>
        <time>2016-11-27T11:42:09.000Z</time>
      </trkpt>
      <trkpt lat="46.03639" lon="4.53315">
        <ele>646</ele>
        <time>2016-11-27T11:42:10.000Z</time>
      </trkpt>
      <trkpt lat="46.0364" lon="4.53313">
        <ele>646</ele>
        <time>2016-11-27T11:42:11.000Z</time>
      </trkpt>
      <trkpt lat="46.0364" lon="4.53311">
        <ele>646</ele>
        <time>2016-11-27T11:42:12.000Z</time>
      </trkpt>
      <trkpt lat="46.03641" lon="4.5331">
        <ele>646</ele>
        <time>2016-11-27T11:42:13.000Z</time>
      </trkpt>
      <trkpt lat="46.0364" lon="4.53308">
        <ele>646</ele>
        <time>2016-11-27T11:42:14.000Z</time>
      </trkpt>
      <trkpt lat="46.0364" lon="4.53306">
        <ele>647</ele>
        <time>2016-11-27T11:42:15.000Z</time>
      </trkpt>
      <trkpt lat="46.0364" lon="4.53305">
        <ele>646</ele>
        <time>2016-11-27T11:42:16.000Z</time>
      </trkpt>
      <trkpt lat="46.0364" lon="4.53303">
        <ele>644</ele>
        <time>2016-11-27T11:42:17.000Z</time>
      </trkpt>
      <trkpt lat="46.0364" lon="4.53302">
        <ele>643</ele>
        <time>2016-11-27T11:42:18.000Z</time>
      </trkpt>
      <trkpt lat="46.03641" lon="4.533">
        <ele>643</ele>
        <time>2016-11-27T11:42:19.000Z</time>
      </trkpt>
      <trkpt lat="46.03641" lon="4.53298">
        <ele>643</ele>
        <time>2016-11-27T11:42:20.000Z</time>
      </trkpt>
      <trkpt lat="46.03641" lon="4.53297">
        <ele>641</ele>
        <time>2016-11-27T11:42:21.000Z</time>
      </trkpt>
      <trkpt lat="46.03642" lon="4.53296">
        <ele>641</ele>
        <time>2016-11-27T11:42:22.000Z</time>
      </trkpt>
      <trkpt lat="46.03642" lon="4.53295">
        <ele>641</ele>
        <time>2016-11-27T11:42:23.000Z</time>
      </trkpt>
      <trkpt lat="46.03643" lon="4.53294">
        <ele>640</ele>
        <time>2016-11-27T11:42:24.000Z</time>
      </trkpt>
      <trkpt lat="46.03643" lon="4.53293">
        <ele>641</ele>
        <time>2016-11-27T11:42:25.000Z</time>
      </trkpt>
      <trkpt lat="46.03643" lon="4.53292">
        <ele>640</ele>
        <time>2016-11-27T11:42:26.000Z</time>
      </trkpt>
      <trkpt lat="46.03644" lon="4.53291">
        <ele>639</ele>
        <time>2016-11-27T11:42:27.000Z</time>
      </trkpt>
      <trkpt lat="46.03645" lon="4.5329">
        <ele>639</ele>
        <time>2016-11-27T11:42:28.000Z</time>
      </trkpt>
      <trkpt lat="46.03646" lon="4.53289">
        <ele>639</ele>
        <time>2016-11-27T11:42:29.000Z</time>
      </trkpt>
      <trkpt lat="46.03646" lon="4.53288">
        <ele>639</ele>
        <time>2016-11-27T11:42:30.000Z</time>
      </trkpt>
      <trkpt lat="46.03647" lon="4.53287">
        <ele>639</ele>
        <time>2016-11-27T11:42:31.000Z</time>
      </trkpt>
      <trkpt lat="46.03647" lon="4.53286">
        <ele>639</ele>
        <time>2016-11-27T11:42:32.000Z</time>
      </trkpt>
      <trkpt lat="46.03648" lon="4.53285">
        <ele>639</ele>
        <time>2016-11-27T11:42:33.000Z</time>
      </trkpt>
      <trkpt lat="46.03649" lon="4.53283">
        <ele>639</ele>
        <time>2016-11-27T11:42:34.000Z</time>
      </trkpt>
      <trkpt lat="46.0365" lon="4.53282">
        <ele>638</ele>
        <time>2016-11-27T11:42:35.000Z</time>
      </trkpt>
      <trkpt lat="46.03651" lon="4.5328">
        <ele>637</ele>
        <time>2016-11-27T11:42:36.000Z</time>
      </trkpt>
      <trkpt lat="46.03652" lon="4.53279">
        <ele>636</ele>
        <time>2016-11-27T11:42:37.000Z</time>
      </trkpt>
      <trkpt lat="46.03653" lon="4.53277">
        <ele>635</ele>
        <time>2016-11-27T11:42:38.000Z</time>
      </trkpt>
      <trkpt lat="46.03655" lon="4.53276">
        <ele>634</ele>
        <time>2016-11-27T11:42:39.000Z</time>
      </trkpt>
      <trkpt lat="46.03656" lon="4.53275">
        <ele>632</ele>
        <time>2016-11-27T11:42:40.000Z</time>
      </trkpt>
      <trkpt lat="46.03658" lon="4.53273">
        <ele>631</ele>
        <time>2016-11-27T11:42:41.000Z</time>
      </trkpt>
      <trkpt lat="46.0366" lon="4.53272">
        <ele>630</ele>
        <time>2016-11-27T11:42:42.000Z</time>
      </trkpt>
      <trkpt lat="46.03662" lon="4.53271">
        <ele>629</ele>
        <time>2016-11-27T11:42:43.000Z</time>
      </trkpt>
      <trkpt lat="46.03664" lon="4.53269">
        <ele>628</ele>
        <time>2016-11-27T11:42:44.000Z</time>
      </trkpt>
      <trkpt lat="46.03665" lon="4.53267">
        <ele>626</ele>
        <time>2016-11-27T11:42:45.000Z</time>
      </trkpt>
      <trkpt lat="46.03666" lon="4.53264">
        <ele>627</ele>
        <time>2016-11-27T11:42:46.000Z</time>
      </trkpt>
      <trkpt lat="46.03666" lon="4.53262">
        <ele>627</ele>
        <time>2016-11-27T11:42:47.000Z</time>
      </trkpt>
      <trkpt lat="46.03667" lon="4.5326">
        <ele>625</ele>
        <time>2016-11-27T11:42:48.000Z</time>
      </trkpt>
      <trkpt lat="46.03668" lon="4.53258">
        <ele>624</ele>
        <time>2016-11-27T11:42:49.000Z</time>
      </trkpt>
      <trkpt lat="46.03669" lon="4.53257">
        <ele>624</ele>
        <time>2016-11-27T11:42:50.000Z</time>
      </trkpt>
      <trkpt lat="46.0367" lon="4.53255">
        <ele>623</ele>
        <time>2016-11-27T11:42:51.000Z</time>
      </trkpt>
      <trkpt lat="46.03671" lon="4.53253">
        <ele>623</ele>
        <time>2016-11-27T11:42:52.000Z</time>
      </trkpt>
      <trkpt lat="46.03673" lon="4.53251">
        <ele>623</ele>
        <time>2016-11-27T11:42:53.000Z</time>
      </trkpt>
      <trkpt lat="46.03675" lon="4.5325">
        <ele>624</ele>
        <time>2016-11-27T11:42:54.000Z</time>
      </trkpt>
      <trkpt lat="46.03677" lon="4.53249">
        <ele>627</ele>
        <time>2016-11-27T11:42:55.000Z</time>
      </trkpt>
      <trkpt lat="46.03678" lon="4.53249">
        <ele>626</ele>
        <time>2016-11-27T11:42:56.000Z</time>
      </trkpt>
      <trkpt lat="46.03679" lon="4.53248">
        <ele>627</ele>
        <time>2016-11-27T11:42:57.000Z</time>
      </trkpt>
      <trkpt lat="46.03679" lon="4.53248">
        <ele>626</ele>
        <time>2016-11-27T11:42:58.000Z</time>
      </trkpt>
      <trkpt lat="46.0368" lon="4.53247">
        <ele>627</ele>
        <time>2016-11-27T11:42:59.000Z</time>
      </trkpt>
      <trkpt lat="46.03681" lon="4.53246">
        <ele>626</ele>
        <time>2016-11-27T11:43:00.000Z</time>
      </trkpt>
      <trkpt lat="46.03682" lon="4.53246">
        <ele>626</ele>
        <time>2016-11-27T11:43:01.000Z</time>
      </trkpt>
      <trkpt lat="46.03684" lon="4.53245">
        <ele>625</ele>
        <time>2016-11-27T11:43:02.000Z</time>
      </trkpt>
      <trkpt lat="46.03685" lon="4.53244">
        <ele>621</ele>
        <time>2016-11-27T11:43:03.000Z</time>
      </trkpt>
      <trkpt lat="46.03685" lon="4.53243">
        <ele>620</ele>
        <time>2016-11-27T11:43:04.000Z</time>
      </trkpt>
      <trkpt lat="46.03685" lon="4.53242">
        <ele>620</ele>
        <time>2016-11-27T11:43:05.000Z</time>
      </trkpt>
      <trkpt lat="46.03686" lon="4.53241">
        <ele>620</ele>
        <time>2016-11-27T11:43:06.000Z</time>
      </trkpt>
      <trkpt lat="46.03687" lon="4.5324">
        <ele>618</ele>
        <time>2016-11-27T11:43:07.000Z</time>
      </trkpt>
      <trkpt lat="46.03687" lon="4.53238">
        <ele>618</ele>
        <time>2016-11-27T11:43:08.000Z</time>
      </trkpt>
      <trkpt lat="46.03688" lon="4.53236">
        <ele>617</ele>
        <time>2016-11-27T11:43:09.000Z</time>
      </trkpt>
      <trkpt lat="46.03688" lon="4.53234">
        <ele>617</ele>
        <time>2016-11-27T11:43:10.000Z</time>
      </trkpt>
      <trkpt lat="46.03688" lon="4.53232">
        <ele>618</ele>
        <time>2016-11-27T11:43:11.000Z</time>
      </trkpt>
      <trkpt lat="46.03689" lon="4.53228">
        <ele>619</ele>
        <time>2016-11-27T11:43:12.000Z</time>
      </trkpt>
      <trkpt lat="46.03689" lon="4.53225">
        <ele>617</ele>
        <time>2016-11-27T11:43:13.000Z</time>
      </trkpt>
      <trkpt lat="46.03689" lon="4.53223">
        <ele>617</ele>
        <time>2016-11-27T11:43:14.000Z</time>
      </trkpt>
      <trkpt lat="46.0369" lon="4.53221">
        <ele>616</ele>
        <time>2016-11-27T11:43:15.000Z</time>
      </trkpt>
      <trkpt lat="46.03691" lon="4.53219">
        <ele>615</ele>
        <time>2016-11-27T11:43:16.000Z</time>
      </trkpt>
      <trkpt lat="46.03692" lon="4.53218">
        <ele>615</ele>
        <time>2016-11-27T11:43:17.000Z</time>
      </trkpt>
      <trkpt lat="46.03693" lon="4.53217">
        <ele>613</ele>
        <time>2016-11-27T11:43:18.000Z</time>
      </trkpt>
      <trkpt lat="46.03694" lon="4.53216">
        <ele>612</ele>
        <time>2016-11-27T11:43:19.000Z</time>
      </trkpt>
      <trkpt lat="46.03695" lon="4.53215">
        <ele>612</ele>
        <time>2016-11-27T11:43:20.000Z</time>
      </trkpt>
      <trkpt lat="46.03696" lon="4.53214">
        <ele>612</ele>
        <time>2016-11-27T11:43:21.000Z</time>
      </trkpt>
      <trkpt lat="46.03696" lon="4.53214">
        <ele>610</ele>
        <time>2016-11-27T11:43:22.000Z</time>
      </trkpt>
      <trkpt lat="46.03695" lon="4.53213">
        <ele>610</ele>
        <time>2016-11-27T11:43:23.000Z</time>
      </trkpt>
      <trkpt lat="46.03694" lon="4.53212">
        <ele>608</ele>
        <time>2016-11-27T11:43:24.000Z</time>
      </trkpt>
      <trkpt lat="46.03694" lon="4.5321">
        <ele>607</ele>
        <time>2016-11-27T11:43:25.000Z</time>
      </trkpt>
      <trkpt lat="46.03694" lon="4.5321">
        <ele>606</ele>
        <time>2016-11-27T11:43:26.000Z</time>
      </trkpt>
      <trkpt lat="46.03695" lon="4.5321">
        <ele>605</ele>
        <time>2016-11-27T11:43:27.000Z</time>
      </trkpt>
      <trkpt lat="46.03695" lon="4.53209">
        <ele>605</ele>
        <time>2016-11-27T11:43:28.000Z</time>
      </trkpt>
      <trkpt lat="46.03695" lon="4.53208">
        <ele>604</ele>
        <time>2016-11-27T11:43:29.000Z</time>
      </trkpt>
      <trkpt lat="46.03696" lon="4.53207">
        <ele>602</ele>
        <time>2016-11-27T11:43:30.000Z</time>
      </trkpt>
      <trkpt lat="46.03696" lon="4.53206">
        <ele>602</ele>
        <time>2016-11-27T11:43:31.000Z</time>
      </trkpt>
      <trkpt lat="46.03697" lon="4.53205">
        <ele>600</ele>
        <time>2016-11-27T11:43:32.000Z</time>
      </trkpt>
      <trkpt lat="46.03698" lon="4.53204">
        <ele>599</ele>
        <time>2016-11-27T11:43:33.000Z</time>
      </trkpt>
      <trkpt lat="46.03699" lon="4.53203">
        <ele>599</ele>
        <time>2016-11-27T11:43:34.000Z</time>
      </trkpt>
      <trkpt lat="46.037" lon="4.53201">
        <ele>598</ele>
        <time>2016-11-27T11:43:35.000Z</time>
      </trkpt>
      <trkpt lat="46.03701" lon="4.53199">
        <ele>597</ele>
        <time>2016-11-27T11:43:36.000Z</time>
      </trkpt>
      <trkpt lat="46.03701" lon="4.53197">
        <ele>595</ele>
        <time>2016-11-27T11:43:37.000Z</time>
      </trkpt>
      <trkpt lat="46.03701" lon="4.53194">
        <ele>595</ele>
        <time>2016-11-27T11:43:38.000Z</time>
      </trkpt>
      <trkpt lat="46.03702" lon="4.53192">
        <ele>595</ele>
        <time>2016-11-27T11:43:39.000Z</time>
      </trkpt>
      <trkpt lat="46.03702" lon="4.53191">
        <ele>595</ele>
        <time>2016-11-27T11:43:40.000Z</time>
      </trkpt>
      <trkpt lat="46.03702" lon="4.53191">
        <ele>594</ele>
        <time>2016-11-27T11:43:41.000Z</time>
      </trkpt>
      <trkpt lat="46.03702" lon="4.53191">
        <ele>594</ele>
        <time>2016-11-27T11:43:42.000Z</time>
      </trkpt>
      <trkpt lat="46.03702" lon="4.5319">
        <ele>594</ele>
        <time>2016-11-27T11:43:43.000Z</time>
      </trkpt>
      <trkpt lat="46.03702" lon="4.53189">
        <ele>594</ele>
        <time>2016-11-27T11:43:44.000Z</time>
      </trkpt>
      <trkpt lat="46.03702" lon="4.53189">
        <ele>592</ele>
        <time>2016-11-27T11:43:45.000Z</time>
      </trkpt>
      <trkpt lat="46.03702" lon="4.53188">
        <ele>591</ele>
        <time>2016-11-27T11:43:46.000Z</time>
      </trkpt>
      <trkpt lat="46.03701" lon="4.53188">
        <ele>590</ele>
        <time>2016-11-27T11:43:47.000Z</time>
      </trkpt>
      <trkpt lat="46.037" lon="4.53188">
        <ele>590</ele>
        <time>2016-11-27T11:43:48.000Z</time>
      </trkpt>
      <trkpt lat="46.037" lon="4.53187">
        <ele>590</ele>
        <time>2016-11-27T11:43:49.000Z</time>
      </trkpt>
      <trkpt lat="46.03699" lon="4.53187">
        <ele>590</ele>
        <time>2016-11-27T11:43:50.000Z</time>
      </trkpt>
      <trkpt lat="46.03698" lon="4.53186">
        <ele>589</ele>
        <time>2016-11-27T11:43:51.000Z</time>
      </trkpt>
      <trkpt lat="46.03697" lon="4.53186">
        <ele>588</ele>
        <time>2016-11-27T11:43:52.000Z</time>
      </trkpt>
      <trkpt lat="46.03696" lon="4.53185">
        <ele>588</ele>
        <time>2016-11-27T11:43:53.000Z</time>
      </trkpt>
      <trkpt lat="46.03696" lon="4.53185">
        <ele>587</ele>
        <time>2016-11-27T11:43:54.000Z</time>
      </trkpt>
      <trkpt lat="46.03695" lon="4.53184">
        <ele>586</ele>
        <time>2016-11-27T11:43:55.000Z</time>
      </trkpt>
      <trkpt lat="46.03694" lon="4.53184">
        <ele>585</ele>
        <time>2016-11-27T11:43:56.000Z</time>
      </trkpt>
      <trkpt lat="46.03693" lon="4.53184">
        <ele>584</ele>
        <time>2016-11-27T11:43:57.000Z</time>
      </trkpt>
      <trkpt lat="46.03693" lon="4.53183">
        <ele>584</ele>
        <time>2016-11-27T11:43:58.000Z</time>
      </trkpt>
      <trkpt lat="46.03692" lon="4.53182">
        <ele>583</ele>
        <time>2016-11-27T11:43:59.000Z</time>
      </trkpt>
      <trkpt lat="46.03691" lon="4.53182">
        <ele>582</ele>
        <time>2016-11-27T11:44:00.000Z</time>
      </trkpt>
      <trkpt lat="46.03691" lon="4.53181">
        <ele>581</ele>
        <time>2016-11-27T11:44:01.000Z</time>
      </trkpt>
      <trkpt lat="46.0369" lon="4.5318">
        <ele>579</ele>
        <time>2016-11-27T11:44:02.000Z</time>
      </trkpt>
      <trkpt lat="46.0369" lon="4.53179">
        <ele>579</ele>
        <time>2016-11-27T11:44:03.000Z</time>
      </trkpt>
      <trkpt lat="46.03689" lon="4.53178">
        <ele>579</ele>
        <time>2016-11-27T11:44:04.000Z</time>
      </trkpt>
      <trkpt lat="46.03689" lon="4.53177">
        <ele>581</ele>
        <time>2016-11-27T11:44:05.000Z</time>
      </trkpt>
      <trkpt lat="46.03689" lon="4.53175">
        <ele>582</ele>
        <time>2016-11-27T11:44:06.000Z</time>
      </trkpt>
      <trkpt lat="46.03689" lon="4.53174">
        <ele>582</ele>
        <time>2016-11-27T11:44:07.000Z</time>
      </trkpt>
      <trkpt lat="46.03688" lon="4.53172">
        <ele>583</ele>
        <time>2016-11-27T11:44:08.000Z</time>
      </trkpt>
      <trkpt lat="46.03688" lon="4.53171">
        <ele>583</ele>
        <time>2016-11-27T11:44:09.000Z</time>
      </trkpt>
      <trkpt lat="46.03688" lon="4.5317">
        <ele>582</ele>
        <time>2016-11-27T11:44:10.000Z</time>
      </trkpt>
      <trkpt lat="46.03687" lon="4.53169">
        <ele>583</ele>
        <time>2016-11-27T11:44:11.000Z</time>
      </trkpt>
      <trkpt lat="46.03687" lon="4.53168">
        <ele>583</ele>
        <time>2016-11-27T11:44:12.000Z</time>
      </trkpt>
      <trkpt lat="46.03686" lon="4.53167">
        <ele>582</ele>
        <time>2016-11-27T11:44:13.000Z</time>
      </trkpt>
      <trkpt lat="46.03686" lon="4.53166">
        <ele>582</ele>
        <time>2016-11-27T11:44:14.000Z</time>
      </trkpt>
      <trkpt lat="46.03686" lon="4.53164">
        <ele>580</ele>
        <time>2016-11-27T11:44:15.000Z</time>
      </trkpt>
      <trkpt lat="46.03686" lon="4.53163">
        <ele>581</ele>
        <time>2016-11-27T11:44:16.000Z</time>
      </trkpt>
      <trkpt lat="46.03685" lon="4.53161">
        <ele>581</ele>
        <time>2016-11-27T11:44:17.000Z</time>
      </trkpt>
      <trkpt lat="46.03685" lon="4.53159">
        <ele>580</ele>
        <time>2016-11-27T11:44:18.000Z</time>
      </trkpt>
      <trkpt lat="46.03684" lon="4.53158">
        <ele>580</ele>
        <time>2016-11-27T11:44:19.000Z</time>
      </trkpt>
      <trkpt lat="46.03684" lon="4.53156">
        <ele>581</ele>
        <time>2016-11-27T11:44:20.000Z</time>
      </trkpt>
      <trkpt lat="46.03684" lon="4.53155">
        <ele>579</ele>
        <time>2016-11-27T11:44:21.000Z</time>
      </trkpt>
      <trkpt lat="46.03684" lon="4.53155">
        <ele>578</ele>
        <time>2016-11-27T11:44:22.000Z</time>
      </trkpt>
      <trkpt lat="46.03684" lon="4.53154">
        <ele>578</ele>
        <time>2016-11-27T11:44:23.000Z</time>
      </trkpt>
      <trkpt lat="46.03684" lon="4.53154">
        <ele>577</ele>
        <time>2016-11-27T11:44:24.000Z</time>
      </trkpt>
      <trkpt lat="46.03684" lon="4.53153">
        <ele>576</ele>
        <time>2016-11-27T11:44:25.000Z</time>
      </trkpt>
      <trkpt lat="46.03683" lon="4.53152">
        <ele>576</ele>
        <time>2016-11-27T11:44:26.000Z</time>
      </trkpt>
      <trkpt lat="46.03683" lon="4.5315">
        <ele>576</ele>
        <time>2016-11-27T11:44:27.000Z</time>
      </trkpt>
      <trkpt lat="46.03683" lon="4.53149">
        <ele>577</ele>
        <time>2016-11-27T11:44:28.000Z</time>
      </trkpt>
      <trkpt lat="46.03683" lon="4.53147">
        <ele>577</ele>
        <time>2016-11-27T11:44:29.000Z</time>
      </trkpt>
      <trkpt lat="46.03683" lon="4.53145">
        <ele>577</ele>
        <time>2016-11-27T11:44:30.000Z</time>
      </trkpt>
      <trkpt lat="46.03683" lon="4.53143">
        <ele>578</ele>
        <time>2016-11-27T11:44:31.000Z</time>
      </trkpt>
      <trkpt lat="46.03683" lon="4.53141">
        <ele>578</ele>
        <time>2016-11-27T11:44:32.000Z</time>
      </trkpt>
      <trkpt lat="46.03682" lon="4.53139">
        <ele>578</ele>
        <time>2016-11-27T11:44:33.000Z</time>
      </trkpt>
      <trkpt lat="46.03682" lon="4.53137">
        <ele>577</ele>
        <time>2016-11-27T11:44:34.000Z</time>
      </trkpt>
      <trkpt lat="46.03681" lon="4.53135">
        <ele>577</ele>
        <time>2016-11-27T11:44:35.000Z</time>
      </trkpt>
      <trkpt lat="46.03681" lon="4.53133">
        <ele>577</ele>
        <time>2016-11-27T11:44:36.000Z</time>
      </trkpt>
      <trkpt lat="46.03681" lon="4.53131">
        <ele>576</ele>
        <time>2016-11-27T11:44:37.000Z</time>
      </trkpt>
      <trkpt lat="46.0368" lon="4.53129">
        <ele>575</ele>
        <time>2016-11-27T11:44:38.000Z</time>
      </trkpt>
      <trkpt lat="46.0368" lon="4.53127">
        <ele>575</ele>
        <time>2016-11-27T11:44:39.000Z</time>
      </trkpt>
      <trkpt lat="46.0368" lon="4.53125">
        <ele>575</ele>
        <time>2016-11-27T11:44:40.000Z</time>
      </trkpt>
      <trkpt lat="46.0368" lon="4.53125">
        <ele>576</ele>
        <time>2016-11-27T11:44:41.000Z</time>
      </trkpt>
      <trkpt lat="46.0368" lon="4.53124">
        <ele>576</ele>
        <time>2016-11-27T11:44:42.000Z</time>
      </trkpt>
      <trkpt lat="46.03679" lon="4.53123">
        <ele>577</ele>
        <time>2016-11-27T11:44:43.000Z</time>
      </trkpt>
      <trkpt lat="46.03679" lon="4.53122">
        <ele>577</ele>
        <time>2016-11-27T11:44:44.000Z</time>
      </trkpt>
      <trkpt lat="46.03679" lon="4.53121">
        <ele>577</ele>
        <time>2016-11-27T11:44:45.000Z</time>
      </trkpt>
      <trkpt lat="46.03679" lon="4.53121">
        <ele>577</ele>
        <time>2016-11-27T11:44:46.000Z</time>
      </trkpt>
      <trkpt lat="46.03679" lon="4.53121">
        <ele>577</ele>
        <time>2016-11-27T11:44:47.000Z</time>
      </trkpt>
      <trkpt lat="46.03679" lon="4.53121">
        <ele>577</ele>
        <time>2016-11-27T11:44:48.000Z</time>
      </trkpt>
      <trkpt lat="46.03679" lon="4.53121">
        <ele>576</ele>
        <time>2016-11-27T11:44:49.000Z</time>
      </trkpt>
      <trkpt lat="46.03679" lon="4.53121">
        <ele>577</ele>
        <time>2016-11-27T11:44:50.000Z</time>
      </trkpt>
      <trkpt lat="46.03679" lon="4.53121">
        <ele>577</ele>
        <time>2016-11-27T11:44:51.000Z</time>
      </trkpt>
      <trkpt lat="46.03679" lon="4.53121">
        <ele>577</ele>
        <time>2016-11-27T11:44:52.000Z</time>
      </trkpt>
      <trkpt lat="46.0368" lon="4.53121">
        <ele>577</ele>
        <time>2016-11-27T11:44:53.000Z</time>
      </trkpt>
      <trkpt lat="46.0368" lon="4.5312">
        <ele>576</ele>
        <time>2016-11-27T11:44:54.000Z</time>
      </trkpt>
      <trkpt lat="46.0368" lon="4.5312">
        <ele>577</ele>
        <time>2016-11-27T11:44:55.000Z</time>
      </trkpt>
      <trkpt lat="46.0368" lon="4.5312">
        <ele>577</ele>
        <time>2016-11-27T11:44:56.000Z</time>
      </trkpt>
      <trkpt lat="46.0368" lon="4.5312">
        <ele>577</ele>
        <time>2016-11-27T11:44:57.000Z</time>
      </trkpt>
      <trkpt lat="46.0368" lon="4.5312">
        <ele>577</ele>
        <time>2016-11-27T11:44:58.000Z</time>
      </trkpt>
      <trkpt lat="46.0368" lon="4.53119">
        <ele>579</ele>
        <time>2016-11-27T11:44:59.000Z</time>
      </trkpt>
      <trkpt lat="46.03679" lon="4.53118">
        <ele>579</ele>
        <time>2016-11-27T11:45:00.000Z</time>
      </trkpt>
      <trkpt lat="46.03679" lon="4.53116">
        <ele>580</ele>
        <time>2016-11-27T11:45:01.000Z</time>
      </trkpt>
      <trkpt lat="46.03678" lon="4.53114">
        <ele>580</ele>
        <time>2016-11-27T11:45:02.000Z</time>
      </trkpt>
      <trkpt lat="46.03677" lon="4.53112">
        <ele>580</ele>
        <time>2016-11-27T11:45:03.000Z</time>
      </trkpt>
      <trkpt lat="46.03677" lon="4.5311">
        <ele>579</ele>
        <time>2016-11-27T11:45:04.000Z</time>
      </trkpt>
      <trkpt lat="46.03677" lon="4.53108">
        <ele>580</ele>
        <time>2016-11-27T11:45:05.000Z</time>
      </trkpt>
      <trkpt lat="46.03676" lon="4.53107">
        <ele>579</ele>
        <time>2016-11-27T11:45:06.000Z</time>
      </trkpt>
      <trkpt lat="46.03676" lon="4.53104">
        <ele>580</ele>
        <time>2016-11-27T11:45:07.000Z</time>
      </trkpt>
      <trkpt lat="46.03675" lon="4.53102">
        <ele>579</ele>
        <time>2016-11-27T11:45:08.000Z</time>
      </trkpt>
      <trkpt lat="46.03673" lon="4.53099">
        <ele>579</ele>
        <time>2016-11-27T11:45:09.000Z</time>
      </trkpt>
      <trkpt lat="46.03672" lon="4.53095">
        <ele>580</ele>
        <time>2016-11-27T11:45:10.000Z</time>
      </trkpt>
      <trkpt lat="46.0367" lon="4.53091">
        <ele>581</ele>
        <time>2016-11-27T11:45:11.000Z</time>
      </trkpt>
      <trkpt lat="46.03668" lon="4.53087">
        <ele>581</ele>
        <time>2016-11-27T11:45:12.000Z</time>
      </trkpt>
      <trkpt lat="46.03666" lon="4.53084">
        <ele>581</ele>
        <time>2016-11-27T11:45:13.000Z</time>
      </trkpt>
      <trkpt lat="46.03664" lon="4.5308">
        <ele>580</ele>
        <time>2016-11-27T11:45:14.000Z</time>
      </trkpt>
      <trkpt lat="46.03662" lon="4.53077">
        <ele>580</ele>
        <time>2016-11-27T11:45:15.000Z</time>
      </trkpt>
      <trkpt lat="46.0366" lon="4.53074">
        <ele>579</ele>
        <time>2016-11-27T11:45:16.000Z</time>
      </trkpt>
      <trkpt lat="46.03658" lon="4.5307">
        <ele>579</ele>
        <time>2016-11-27T11:45:17.000Z</time>
      </trkpt>
      <trkpt lat="46.03656" lon="4.53067">
        <ele>578</ele>
        <time>2016-11-27T11:45:18.000Z</time>
      </trkpt>
      <trkpt lat="46.03654" lon="4.53064">
        <ele>579</ele>
        <time>2016-11-27T11:45:19.000Z</time>
      </trkpt>
      <trkpt lat="46.03651" lon="4.53061">
        <ele>579</ele>
        <time>2016-11-27T11:45:20.000Z</time>
      </trkpt>
      <trkpt lat="46.03649" lon="4.53057">
        <ele>579</ele>
        <time>2016-11-27T11:45:21.000Z</time>
      </trkpt>
      <trkpt lat="46.03647" lon="4.53054">
        <ele>579</ele>
        <time>2016-11-27T11:45:22.000Z</time>
      </trkpt>
      <trkpt lat="46.03645" lon="4.53052">
        <ele>579</ele>
        <time>2016-11-27T11:45:23.000Z</time>
      </trkpt>
      <trkpt lat="46.03642" lon="4.53049">
        <ele>579</ele>
        <time>2016-11-27T11:45:24.000Z</time>
      </trkpt>
      <trkpt lat="46.0364" lon="4.53047">
        <ele>578</ele>
        <time>2016-11-27T11:45:25.000Z</time>
      </trkpt>
      <trkpt lat="46.03637" lon="4.53044">
        <ele>578</ele>
        <time>2016-11-27T11:45:26.000Z</time>
      </trkpt>
      <trkpt lat="46.03635" lon="4.53041">
        <ele>577</ele>
        <time>2016-11-27T11:45:27.000Z</time>
      </trkpt>
      <trkpt lat="46.03632" lon="4.53039">
        <ele>577</ele>
        <time>2016-11-27T11:45:28.000Z</time>
      </trkpt>
      <trkpt lat="46.0363" lon="4.53036">
        <ele>576</ele>
        <time>2016-11-27T11:45:29.000Z</time>
      </trkpt>
      <trkpt lat="46.03627" lon="4.53033">
        <ele>576</ele>
        <time>2016-11-27T11:45:30.000Z</time>
      </trkpt>
      <trkpt lat="46.03625" lon="4.5303">
        <ele>577</ele>
        <time>2016-11-27T11:45:31.000Z</time>
      </trkpt>
      <trkpt lat="46.03622" lon="4.53027">
        <ele>577</ele>
        <time>2016-11-27T11:45:32.000Z</time>
      </trkpt>
      <trkpt lat="46.0362" lon="4.53025">
        <ele>576</ele>
        <time>2016-11-27T11:45:33.000Z</time>
      </trkpt>
      <trkpt lat="46.03617" lon="4.53023">
        <ele>576</ele>
        <time>2016-11-27T11:45:34.000Z</time>
      </trkpt>
      <trkpt lat="46.03615" lon="4.53021">
        <ele>575</ele>
        <time>2016-11-27T11:45:35.000Z</time>
      </trkpt>
      <trkpt lat="46.03613" lon="4.5302">
        <ele>575</ele>
        <time>2016-11-27T11:45:36.000Z</time>
      </trkpt>
      <trkpt lat="46.03611" lon="4.53018">
        <ele>575</ele>
        <time>2016-11-27T11:45:37.000Z</time>
      </trkpt>
      <trkpt lat="46.03608" lon="4.53016">
        <ele>575</ele>
        <time>2016-11-27T11:45:38.000Z</time>
      </trkpt>
      <trkpt lat="46.03606" lon="4.53015">
        <ele>574</ele>
        <time>2016-11-27T11:45:39.000Z</time>
      </trkpt>
      <trkpt lat="46.03603" lon="4.53013">
        <ele>573</ele>
        <time>2016-11-27T11:45:40.000Z</time>
      </trkpt>
      <trkpt lat="46.036" lon="4.53012">
        <ele>573</ele>
        <time>2016-11-27T11:45:41.000Z</time>
      </trkpt>
      <trkpt lat="46.03598" lon="4.5301">
        <ele>573</ele>
        <time>2016-11-27T11:45:42.000Z</time>
      </trkpt>
      <trkpt lat="46.03595" lon="4.53009">
        <ele>573</ele>
        <time>2016-11-27T11:45:43.000Z</time>
      </trkpt>
      <trkpt lat="46.03592" lon="4.53007">
        <ele>573</ele>
        <time>2016-11-27T11:45:44.000Z</time>
      </trkpt>
      <trkpt lat="46.03589" lon="4.53006">
        <ele>573</ele>
        <time>2016-11-27T11:45:45.000Z</time>
      </trkpt>
      <trkpt lat="46.03586" lon="4.53006">
        <ele>573</ele>
        <time>2016-11-27T11:45:46.000Z</time>
      </trkpt>
      <trkpt lat="46.03583" lon="4.53005">
        <ele>572</ele>
        <time>2016-11-27T11:45:47.000Z</time>
      </trkpt>
      <trkpt lat="46.0358" lon="4.53005">
        <ele>572</ele>
        <time>2016-11-27T11:45:48.000Z</time>
      </trkpt>
      <trkpt lat="46.03577" lon="4.53003">
        <ele>573</ele>
        <time>2016-11-27T11:45:49.000Z</time>
      </trkpt>
      <trkpt lat="46.03574" lon="4.53002">
        <ele>572</ele>
        <time>2016-11-27T11:45:50.000Z</time>
      </trkpt>
      <trkpt lat="46.03571" lon="4.53001">
        <ele>572</ele>
        <time>2016-11-27T11:45:51.000Z</time>
      </trkpt>
      <trkpt lat="46.03568" lon="4.53001">
        <ele>572</ele>
        <time>2016-11-27T11:45:52.000Z</time>
      </trkpt>
      <trkpt lat="46.03565" lon="4.53002">
        <ele>572</ele>
        <time>2016-11-27T11:45:53.000Z</time>
      </trkpt>
      <trkpt lat="46.03563" lon="4.53002">
        <ele>573</ele>
        <time>2016-11-27T11:45:54.000Z</time>
      </trkpt>
      <trkpt lat="46.0356" lon="4.53002">
        <ele>573</ele>
        <time>2016-11-27T11:45:55.000Z</time>
      </trkpt>
      <trkpt lat="46.03557" lon="4.53002">
        <ele>573</ele>
        <time>2016-11-27T11:45:56.000Z</time>
      </trkpt>
      <trkpt lat="46.03554" lon="4.53002">
        <ele>574</ele>
        <time>2016-11-27T11:45:57.000Z</time>
      </trkpt>
      <trkpt lat="46.03551" lon="4.53002">
        <ele>574</ele>
        <time>2016-11-27T11:45:58.000Z</time>
      </trkpt>
      <trkpt lat="46.03548" lon="4.53002">
        <ele>574</ele>
        <time>2016-11-27T11:45:59.000Z</time>
      </trkpt>
      <trkpt lat="46.03545" lon="4.53003">
        <ele>574</ele>
        <time>2016-11-27T11:46:00.000Z</time>
      </trkpt>
      <trkpt lat="46.03542" lon="4.53002">
        <ele>574</ele>
        <time>2016-11-27T11:46:01.000Z</time>
      </trkpt>
      <trkpt lat="46.03539" lon="4.53002">
        <ele>574</ele>
        <time>2016-11-27T11:46:02.000Z</time>
      </trkpt>
      <trkpt lat="46.03536" lon="4.53002">
        <ele>574</ele>
        <time>2016-11-27T11:46:03.000Z</time>
      </trkpt>
      <trkpt lat="46.03534" lon="4.53001">
        <ele>575</ele>
        <time>2016-11-27T11:46:04.000Z</time>
      </trkpt>
      <trkpt lat="46.03531" lon="4.53001">
        <ele>576</ele>
        <time>2016-11-27T11:46:05.000Z</time>
      </trkpt>
      <trkpt lat="46.03529" lon="4.53001">
        <ele>577</ele>
        <time>2016-11-27T11:46:06.000Z</time>
      </trkpt>
      <trkpt lat="46.03526" lon="4.53">
        <ele>579</ele>
        <time>2016-11-27T11:46:07.000Z</time>
      </trkpt>
      <trkpt lat="46.03523" lon="4.53">
        <ele>580</ele>
        <time>2016-11-27T11:46:08.000Z</time>
      </trkpt>
      <trkpt lat="46.0352" lon="4.52999">
        <ele>581</ele>
        <time>2016-11-27T11:46:09.000Z</time>
      </trkpt>
      <trkpt lat="46.03518" lon="4.52999">
        <ele>581</ele>
        <time>2016-11-27T11:46:10.000Z</time>
      </trkpt>
      <trkpt lat="46.03515" lon="4.52997">
        <ele>583</ele>
        <time>2016-11-27T11:46:11.000Z</time>
      </trkpt>
      <trkpt lat="46.03513" lon="4.52996">
        <ele>584</ele>
        <time>2016-11-27T11:46:12.000Z</time>
      </trkpt>
      <trkpt lat="46.03511" lon="4.52994">
        <ele>584</ele>
        <time>2016-11-27T11:46:13.000Z</time>
      </trkpt>
      <trkpt lat="46.0351" lon="4.52991">
        <ele>584</ele>
        <time>2016-11-27T11:46:14.000Z</time>
      </trkpt>
      <trkpt lat="46.03508" lon="4.52988">
        <ele>585</ele>
        <time>2016-11-27T11:46:15.000Z</time>
      </trkpt>
      <trkpt lat="46.03507" lon="4.52984">
        <ele>585</ele>
        <time>2016-11-27T11:46:16.000Z</time>
      </trkpt>
      <trkpt lat="46.03506" lon="4.5298">
        <ele>586</ele>
        <time>2016-11-27T11:46:17.000Z</time>
      </trkpt>
      <trkpt lat="46.03506" lon="4.52975">
        <ele>588</ele>
        <time>2016-11-27T11:46:18.000Z</time>
      </trkpt>
      <trkpt lat="46.03506" lon="4.52971">
        <ele>588</ele>
        <time>2016-11-27T11:46:19.000Z</time>
      </trkpt>
      <trkpt lat="46.03505" lon="4.52967">
        <ele>587</ele>
        <time>2016-11-27T11:46:20.000Z</time>
      </trkpt>
      <trkpt lat="46.03505" lon="4.52962">
        <ele>588</ele>
        <time>2016-11-27T11:46:21.000Z</time>
      </trkpt>
      <trkpt lat="46.03504" lon="4.52958">
        <ele>589</ele>
        <time>2016-11-27T11:46:22.000Z</time>
      </trkpt>
      <trkpt lat="46.03504" lon="4.52953">
        <ele>587</ele>
        <time>2016-11-27T11:46:23.000Z</time>
      </trkpt>
      <trkpt lat="46.03503" lon="4.52949">
        <ele>587</ele>
        <time>2016-11-27T11:46:24.000Z</time>
      </trkpt>
      <trkpt lat="46.03503" lon="4.52946">
        <ele>586</ele>
        <time>2016-11-27T11:46:25.000Z</time>
      </trkpt>
      <trkpt lat="46.03503" lon="4.52943">
        <ele>584</ele>
        <time>2016-11-27T11:46:26.000Z</time>
      </trkpt>
      <trkpt lat="46.03502" lon="4.52939">
        <ele>584</ele>
        <time>2016-11-27T11:46:27.000Z</time>
      </trkpt>
      <trkpt lat="46.03502" lon="4.52936">
        <ele>583</ele>
        <time>2016-11-27T11:46:28.000Z</time>
      </trkpt>
      <trkpt lat="46.03502" lon="4.52933">
        <ele>583</ele>
        <time>2016-11-27T11:46:29.000Z</time>
      </trkpt>
      <trkpt lat="46.03502" lon="4.52929">
        <ele>581</ele>
        <time>2016-11-27T11:46:30.000Z</time>
      </trkpt>
      <trkpt lat="46.03501" lon="4.52926">
        <ele>579</ele>
        <time>2016-11-27T11:46:31.000Z</time>
      </trkpt>
      <trkpt lat="46.03501" lon="4.52922">
        <ele>577</ele>
        <time>2016-11-27T11:46:32.000Z</time>
      </trkpt>
      <trkpt lat="46.035" lon="4.52918">
        <ele>576</ele>
        <time>2016-11-27T11:46:33.000Z</time>
      </trkpt>
      <trkpt lat="46.03499" lon="4.52914">
        <ele>575</ele>
        <time>2016-11-27T11:46:34.000Z</time>
      </trkpt>
      <trkpt lat="46.03497" lon="4.5291">
        <ele>575</ele>
        <time>2016-11-27T11:46:35.000Z</time>
      </trkpt>
      <trkpt lat="46.03496" lon="4.52906">
        <ele>573</ele>
        <time>2016-11-27T11:46:36.000Z</time>
      </trkpt>
      <trkpt lat="46.03494" lon="4.52902">
        <ele>571</ele>
        <time>2016-11-27T11:46:37.000Z</time>
      </trkpt>
      <trkpt lat="46.03492" lon="4.52898">
        <ele>571</ele>
        <time>2016-11-27T11:46:38.000Z</time>
      </trkpt>
      <trkpt lat="46.03491" lon="4.52894">
        <ele>570</ele>
        <time>2016-11-27T11:46:39.000Z</time>
      </trkpt>
      <trkpt lat="46.0349" lon="4.52889">
        <ele>569</ele>
        <time>2016-11-27T11:46:40.000Z</time>
      </trkpt>
      <trkpt lat="46.03489" lon="4.52885">
        <ele>569</ele>
        <time>2016-11-27T11:46:41.000Z</time>
      </trkpt>
      <trkpt lat="46.03488" lon="4.5288">
        <ele>569</ele>
        <time>2016-11-27T11:46:42.000Z</time>
      </trkpt>
      <trkpt lat="46.03486" lon="4.52877">
        <ele>569</ele>
        <time>2016-11-27T11:46:43.000Z</time>
      </trkpt>
      <trkpt lat="46.03485" lon="4.52873">
        <ele>569</ele>
        <time>2016-11-27T11:46:44.000Z</time>
      </trkpt>
      <trkpt lat="46.03482" lon="4.5287">
        <ele>568</ele>
        <time>2016-11-27T11:46:45.000Z</time>
      </trkpt>
      <trkpt lat="46.0348" lon="4.52866">
        <ele>567</ele>
        <time>2016-11-27T11:46:46.000Z</time>
      </trkpt>
      <trkpt lat="46.03478" lon="4.52862">
        <ele>568</ele>
        <time>2016-11-27T11:46:47.000Z</time>
      </trkpt>
      <trkpt lat="46.03477" lon="4.52859">
        <ele>568</ele>
        <time>2016-11-27T11:46:48.000Z</time>
      </trkpt>
      <trkpt lat="46.03475" lon="4.52855">
        <ele>569</ele>
        <time>2016-11-27T11:46:49.000Z</time>
      </trkpt>
      <trkpt lat="46.03474" lon="4.52851">
        <ele>568</ele>
        <time>2016-11-27T11:46:50.000Z</time>
      </trkpt>
      <trkpt lat="46.03473" lon="4.52848">
        <ele>567</ele>
        <time>2016-11-27T11:46:51.000Z</time>
      </trkpt>
      <trkpt lat="46.03471" lon="4.52844">
        <ele>568</ele>
        <time>2016-11-27T11:46:52.000Z</time>
      </trkpt>
      <trkpt lat="46.0347" lon="4.5284">
        <ele>567</ele>
        <time>2016-11-27T11:46:53.000Z</time>
      </trkpt>
      <trkpt lat="46.03469" lon="4.52837">
        <ele>566</ele>
        <time>2016-11-27T11:46:54.000Z</time>
      </trkpt>
      <trkpt lat="46.03467" lon="4.52833">
        <ele>566</ele>
        <time>2016-11-27T11:46:55.000Z</time>
      </trkpt>
      <trkpt lat="46.03466" lon="4.5283">
        <ele>565</ele>
        <time>2016-11-27T11:46:56.000Z</time>
      </trkpt>
      <trkpt lat="46.03465" lon="4.52827">
        <ele>564</ele>
        <time>2016-11-27T11:46:57.000Z</time>
      </trkpt>
      <trkpt lat="46.03465" lon="4.52823">
        <ele>563</ele>
        <time>2016-11-27T11:46:58.000Z</time>
      </trkpt>
      <trkpt lat="46.03464" lon="4.5282">
        <ele>563</ele>
        <time>2016-11-27T11:46:59.000Z</time>
      </trkpt>
      <trkpt lat="46.03463" lon="4.52816">
        <ele>562</ele>
        <time>2016-11-27T11:47:00.000Z</time>
      </trkpt>
      <trkpt lat="46.03462" lon="4.52813">
        <ele>562</ele>
        <time>2016-11-27T11:47:01.000Z</time>
      </trkpt>
      <trkpt lat="46.03461" lon="4.52809">
        <ele>562</ele>
        <time>2016-11-27T11:47:02.000Z</time>
      </trkpt>
      <trkpt lat="46.0346" lon="4.52805">
        <ele>562</ele>
        <time>2016-11-27T11:47:03.000Z</time>
      </trkpt>
      <trkpt lat="46.03458" lon="4.52801">
        <ele>561</ele>
        <time>2016-11-27T11:47:04.000Z</time>
      </trkpt>
      <trkpt lat="46.03457" lon="4.52797">
        <ele>561</ele>
        <time>2016-11-27T11:47:05.000Z</time>
      </trkpt>
      <trkpt lat="46.03456" lon="4.52793">
        <ele>561</ele>
        <time>2016-11-27T11:47:06.000Z</time>
      </trkpt>
      <trkpt lat="46.03455" lon="4.5279">
        <ele>560</ele>
        <time>2016-11-27T11:47:07.000Z</time>
      </trkpt>
      <trkpt lat="46.03454" lon="4.52786">
        <ele>560</ele>
        <time>2016-11-27T11:47:08.000Z</time>
      </trkpt>
      <trkpt lat="46.03452" lon="4.52783">
        <ele>559</ele>
        <time>2016-11-27T11:47:09.000Z</time>
      </trkpt>
      <trkpt lat="46.03451" lon="4.5278">
        <ele>559</ele>
        <time>2016-11-27T11:47:10.000Z</time>
      </trkpt>
      <trkpt lat="46.0345" lon="4.52776">
        <ele>560</ele>
        <time>2016-11-27T11:47:11.000Z</time>
      </trkpt>
      <trkpt lat="46.03449" lon="4.52772">
        <ele>560</ele>
        <time>2016-11-27T11:47:12.000Z</time>
      </trkpt>
      <trkpt lat="46.03448" lon="4.52767">
        <ele>561</ele>
        <time>2016-11-27T11:47:13.000Z</time>
      </trkpt>
      <trkpt lat="46.03447" lon="4.52763">
        <ele>561</ele>
        <time>2016-11-27T11:47:14.000Z</time>
      </trkpt>
      <trkpt lat="46.03446" lon="4.52758">
        <ele>561</ele>
        <time>2016-11-27T11:47:15.000Z</time>
      </trkpt>
      <trkpt lat="46.03445" lon="4.52754">
        <ele>561</ele>
        <time>2016-11-27T11:47:16.000Z</time>
      </trkpt>
      <trkpt lat="46.03444" lon="4.52751">
        <ele>561</ele>
        <time>2016-11-27T11:47:17.000Z</time>
      </trkpt>
      <trkpt lat="46.03443" lon="4.52748">
        <ele>560</ele>
        <time>2016-11-27T11:47:18.000Z</time>
      </trkpt>
      <trkpt lat="46.03442" lon="4.52744">
        <ele>560</ele>
        <time>2016-11-27T11:47:19.000Z</time>
      </trkpt>
      <trkpt lat="46.03441" lon="4.52741">
        <ele>560</ele>
        <time>2016-11-27T11:47:20.000Z</time>
      </trkpt>
      <trkpt lat="46.03439" lon="4.52737">
        <ele>560</ele>
        <time>2016-11-27T11:47:21.000Z</time>
      </trkpt>
      <trkpt lat="46.03438" lon="4.52734">
        <ele>558</ele>
        <time>2016-11-27T11:47:22.000Z</time>
      </trkpt>
      <trkpt lat="46.03437" lon="4.52731">
        <ele>557</ele>
        <time>2016-11-27T11:47:23.000Z</time>
      </trkpt>
      <trkpt lat="46.03436" lon="4.52728">
        <ele>556</ele>
        <time>2016-11-27T11:47:24.000Z</time>
      </trkpt>
      <trkpt lat="46.03435" lon="4.52725">
        <ele>556</ele>
        <time>2016-11-27T11:47:25.000Z</time>
      </trkpt>
      <trkpt lat="46.03434" lon="4.52722">
        <ele>555</ele>
        <time>2016-11-27T11:47:26.000Z</time>
      </trkpt>
      <trkpt lat="46.03433" lon="4.52719">
        <ele>554</ele>
        <time>2016-11-27T11:47:27.000Z</time>
      </trkpt>
      <trkpt lat="46.03431" lon="4.52716">
        <ele>554</ele>
        <time>2016-11-27T11:47:28.000Z</time>
      </trkpt>
      <trkpt lat="46.0343" lon="4.52713">
        <ele>552</ele>
        <time>2016-11-27T11:47:29.000Z</time>
      </trkpt>
      <trkpt lat="46.0343" lon="4.5271">
        <ele>552</ele>
        <time>2016-11-27T11:47:30.000Z</time>
      </trkpt>
      <trkpt lat="46.03429" lon="4.52706">
        <ele>551</ele>
        <time>2016-11-27T11:47:31.000Z</time>
      </trkpt>
      <trkpt lat="46.03428" lon="4.52703">
        <ele>550</ele>
        <time>2016-11-27T11:47:32.000Z</time>
      </trkpt>
      <trkpt lat="46.03428" lon="4.527">
        <ele>549</ele>
        <time>2016-11-27T11:47:33.000Z</time>
      </trkpt>
      <trkpt lat="46.03427" lon="4.52697">
        <ele>549</ele>
        <time>2016-11-27T11:47:34.000Z</time>
      </trkpt>
      <trkpt lat="46.03426" lon="4.52694">
        <ele>549</ele>
        <time>2016-11-27T11:47:35.000Z</time>
      </trkpt>
      <trkpt lat="46.03425" lon="4.52691">
        <ele>549</ele>
        <time>2016-11-27T11:47:36.000Z</time>
      </trkpt>
      <trkpt lat="46.03425" lon="4.52688">
        <ele>548</ele>
        <time>2016-11-27T11:47:37.000Z</time>
      </trkpt>
      <trkpt lat="46.03424" lon="4.52684">
        <ele>548</ele>
        <time>2016-11-27T11:47:38.000Z</time>
      </trkpt>
      <trkpt lat="46.03422" lon="4.5268">
        <ele>549</ele>
        <time>2016-11-27T11:47:39.000Z</time>
      </trkpt>
      <trkpt lat="46.03422" lon="4.52676">
        <ele>550</ele>
        <time>2016-11-27T11:47:40.000Z</time>
      </trkpt>
      <trkpt lat="46.03422" lon="4.52671">
        <ele>551</ele>
        <time>2016-11-27T11:47:41.000Z</time>
      </trkpt>
      <trkpt lat="46.03421" lon="4.52666">
        <ele>550</ele>
        <time>2016-11-27T11:47:42.000Z</time>
      </trkpt>
      <trkpt lat="46.03421" lon="4.52662">
        <ele>549</ele>
        <time>2016-11-27T11:47:43.000Z</time>
      </trkpt>
      <trkpt lat="46.0342" lon="4.52657">
        <ele>551</ele>
        <time>2016-11-27T11:47:44.000Z</time>
      </trkpt>
      <trkpt lat="46.03419" lon="4.52653">
        <ele>550</ele>
        <time>2016-11-27T11:47:45.000Z</time>
      </trkpt>
      <trkpt lat="46.03419" lon="4.52648">
        <ele>551</ele>
        <time>2016-11-27T11:47:46.000Z</time>
      </trkpt>
      <trkpt lat="46.03419" lon="4.52644">
        <ele>551</ele>
        <time>2016-11-27T11:47:47.000Z</time>
      </trkpt>
      <trkpt lat="46.03419" lon="4.5264">
        <ele>551</ele>
        <time>2016-11-27T11:47:48.000Z</time>
      </trkpt>
      <trkpt lat="46.03419" lon="4.52636">
        <ele>549</ele>
        <time>2016-11-27T11:47:49.000Z</time>
      </trkpt>
      <trkpt lat="46.03418" lon="4.52632">
        <ele>549</ele>
        <time>2016-11-27T11:47:50.000Z</time>
      </trkpt>
      <trkpt lat="46.03418" lon="4.52629">
        <ele>549</ele>
        <time>2016-11-27T11:47:51.000Z</time>
      </trkpt>
      <trkpt lat="46.03418" lon="4.52625">
        <ele>548</ele>
        <time>2016-11-27T11:47:52.000Z</time>
      </trkpt>
      <trkpt lat="46.03418" lon="4.52621">
        <ele>547</ele>
        <time>2016-11-27T11:47:53.000Z</time>
      </trkpt>
      <trkpt lat="46.03418" lon="4.52617">
        <ele>547</ele>
        <time>2016-11-27T11:47:54.000Z</time>
      </trkpt>
      <trkpt lat="46.03417" lon="4.52613">
        <ele>547</ele>
        <time>2016-11-27T11:47:55.000Z</time>
      </trkpt>
      <trkpt lat="46.03417" lon="4.52609">
        <ele>547</ele>
        <time>2016-11-27T11:47:56.000Z</time>
      </trkpt>
      <trkpt lat="46.03417" lon="4.52604">
        <ele>547</ele>
        <time>2016-11-27T11:47:57.000Z</time>
      </trkpt>
      <trkpt lat="46.03417" lon="4.52599">
        <ele>547</ele>
        <time>2016-11-27T11:47:58.000Z</time>
      </trkpt>
      <trkpt lat="46.03417" lon="4.52593">
        <ele>547</ele>
        <time>2016-11-27T11:47:59.000Z</time>
      </trkpt>
      <trkpt lat="46.03417" lon="4.52588">
        <ele>549</ele>
        <time>2016-11-27T11:48:00.000Z</time>
      </trkpt>
      <trkpt lat="46.03417" lon="4.52583">
        <ele>550</ele>
        <time>2016-11-27T11:48:01.000Z</time>
      </trkpt>
      <trkpt lat="46.03417" lon="4.52578">
        <ele>550</ele>
        <time>2016-11-27T11:48:02.000Z</time>
      </trkpt>
      <trkpt lat="46.03417" lon="4.52574">
        <ele>550</ele>
        <time>2016-11-27T11:48:03.000Z</time>
      </trkpt>
      <trkpt lat="46.03417" lon="4.5257">
        <ele>551</ele>
        <time>2016-11-27T11:48:04.000Z</time>
      </trkpt>
      <trkpt lat="46.03418" lon="4.52565">
        <ele>551</ele>
        <time>2016-11-27T11:48:05.000Z</time>
      </trkpt>
      <trkpt lat="46.03418" lon="4.52561">
        <ele>551</ele>
        <time>2016-11-27T11:48:06.000Z</time>
      </trkpt>
      <trkpt lat="46.03419" lon="4.52556">
        <ele>553</ele>
        <time>2016-11-27T11:48:07.000Z</time>
      </trkpt>
      <trkpt lat="46.0342" lon="4.52552">
        <ele>553</ele>
        <time>2016-11-27T11:48:08.000Z</time>
      </trkpt>
      <trkpt lat="46.0342" lon="4.52547">
        <ele>553</ele>
        <time>2016-11-27T11:48:09.000Z</time>
      </trkpt>
      <trkpt lat="46.03421" lon="4.52543">
        <ele>554</ele>
        <time>2016-11-27T11:48:10.000Z</time>
      </trkpt>
      <trkpt lat="46.03421" lon="4.52538">
        <ele>554</ele>
        <time>2016-11-27T11:48:11.000Z</time>
      </trkpt>
      <trkpt lat="46.03422" lon="4.52534">
        <ele>553</ele>
        <time>2016-11-27T11:48:12.000Z</time>
      </trkpt>
      <trkpt lat="46.03422" lon="4.5253">
        <ele>553</ele>
        <time>2016-11-27T11:48:13.000Z</time>
      </trkpt>
      <trkpt lat="46.03423" lon="4.52525">
        <ele>553</ele>
        <time>2016-11-27T11:48:14.000Z</time>
      </trkpt>
      <trkpt lat="46.03423" lon="4.52521">
        <ele>553</ele>
        <time>2016-11-27T11:48:15.000Z</time>
      </trkpt>
      <trkpt lat="46.03423" lon="4.52517">
        <ele>553</ele>
        <time>2016-11-27T11:48:16.000Z</time>
      </trkpt>
      <trkpt lat="46.03424" lon="4.52513">
        <ele>553</ele>
        <time>2016-11-27T11:48:17.000Z</time>
      </trkpt>
      <trkpt lat="46.03424" lon="4.52509">
        <ele>553</ele>
        <time>2016-11-27T11:48:18.000Z</time>
      </trkpt>
      <trkpt lat="46.03424" lon="4.52504">
        <ele>554</ele>
        <time>2016-11-27T11:48:19.000Z</time>
      </trkpt>
      <trkpt lat="46.03424" lon="4.525">
        <ele>554</ele>
        <time>2016-11-27T11:48:20.000Z</time>
      </trkpt>
      <trkpt lat="46.03424" lon="4.52496">
        <ele>555</ele>
        <time>2016-11-27T11:48:21.000Z</time>
      </trkpt>
      <trkpt lat="46.03425" lon="4.52491">
        <ele>554</ele>
        <time>2016-11-27T11:48:22.000Z</time>
      </trkpt>
      <trkpt lat="46.03425" lon="4.52487">
        <ele>554</ele>
        <time>2016-11-27T11:48:23.000Z</time>
      </trkpt>
      <trkpt lat="46.03426" lon="4.52484">
        <ele>554</ele>
        <time>2016-11-27T11:48:24.000Z</time>
      </trkpt>
      <trkpt lat="46.03426" lon="4.52482">
        <ele>554</ele>
        <time>2016-11-27T11:48:25.000Z</time>
      </trkpt>
      <trkpt lat="46.03427" lon="4.52479">
        <ele>554</ele>
        <time>2016-11-27T11:48:26.000Z</time>
      </trkpt>
      <trkpt lat="46.03427" lon="4.52477">
        <ele>554</ele>
        <time>2016-11-27T11:48:27.000Z</time>
      </trkpt>
      <trkpt lat="46.03427" lon="4.52475">
        <ele>553</ele>
        <time>2016-11-27T11:48:28.000Z</time>
      </trkpt>
      <trkpt lat="46.03427" lon="4.52472">
        <ele>553</ele>
        <time>2016-11-27T11:48:29.000Z</time>
      </trkpt>
      <trkpt lat="46.03427" lon="4.52469">
        <ele>554</ele>
        <time>2016-11-27T11:48:30.000Z</time>
      </trkpt>
      <trkpt lat="46.03428" lon="4.52466">
        <ele>554</ele>
        <time>2016-11-27T11:48:31.000Z</time>
      </trkpt>
      <trkpt lat="46.03428" lon="4.52464">
        <ele>555</ele>
        <time>2016-11-27T11:48:32.000Z</time>
      </trkpt>
      <trkpt lat="46.03428" lon="4.52462">
        <ele>555</ele>
        <time>2016-11-27T11:48:33.000Z</time>
      </trkpt>
      <trkpt lat="46.03428" lon="4.52461">
        <ele>555</ele>
        <time>2016-11-27T11:48:34.000Z</time>
      </trkpt>
      <trkpt lat="46.03428" lon="4.5246">
        <ele>555</ele>
        <time>2016-11-27T11:48:35.000Z</time>
      </trkpt>
      <trkpt lat="46.03428" lon="4.52459">
        <ele>555</ele>
        <time>2016-11-27T11:48:36.000Z</time>
      </trkpt>
      <trkpt lat="46.03428" lon="4.52458">
        <ele>555</ele>
        <time>2016-11-27T11:48:37.000Z</time>
      </trkpt>
      <trkpt lat="46.03428" lon="4.52457">
        <ele>555</ele>
        <time>2016-11-27T11:48:38.000Z</time>
      </trkpt>
      <trkpt lat="46.03429" lon="4.52457">
        <ele>554</ele>
        <time>2016-11-27T11:48:39.000Z</time>
      </trkpt>
      <trkpt lat="46.03429" lon="4.52457">
        <ele>553</ele>
        <time>2016-11-27T11:48:40.000Z</time>
      </trkpt>
      <trkpt lat="46.0343" lon="4.52458">
        <ele>552</ele>
        <time>2016-11-27T11:48:41.000Z</time>
      </trkpt>
      <trkpt lat="46.0343" lon="4.52458">
        <ele>552</ele>
        <time>2016-11-27T11:48:42.000Z</time>
      </trkpt>
      <trkpt lat="46.03431" lon="4.52458">
        <ele>551</ele>
        <time>2016-11-27T11:48:43.000Z</time>
      </trkpt>
      <trkpt lat="46.03433" lon="4.52459">
        <ele>551</ele>
        <time>2016-11-27T11:48:44.000Z</time>
      </trkpt>
      <trkpt lat="46.03434" lon="4.52459">
        <ele>550</ele>
        <time>2016-11-27T11:48:45.000Z</time>
      </trkpt>
      <trkpt lat="46.03436" lon="4.5246">
        <ele>550</ele>
        <time>2016-11-27T11:48:46.000Z</time>
      </trkpt>
      <trkpt lat="46.03437" lon="4.5246">
        <ele>549</ele>
        <time>2016-11-27T11:48:47.000Z</time>
      </trkpt>
      <trkpt lat="46.03438" lon="4.52461">
        <ele>549</ele>
        <time>2016-11-27T11:48:48.000Z</time>
      </trkpt>
      <trkpt lat="46.0344" lon="4.52461">
        <ele>547</ele>
        <time>2016-11-27T11:48:49.000Z</time>
      </trkpt>
      <trkpt lat="46.03441" lon="4.52462">
        <ele>546</ele>
        <time>2016-11-27T11:48:50.000Z</time>
      </trkpt>
      <trkpt lat="46.03443" lon="4.52462">
        <ele>545</ele>
        <time>2016-11-27T11:48:51.000Z</time>
      </trkpt>
      <trkpt lat="46.03445" lon="4.52463">
        <ele>544</ele>
        <time>2016-11-27T11:48:52.000Z</time>
      </trkpt>
      <trkpt lat="46.03446" lon="4.52463">
        <ele>544</ele>
        <time>2016-11-27T11:48:53.000Z</time>
      </trkpt>
      <trkpt lat="46.03448" lon="4.52462">
        <ele>543</ele>
        <time>2016-11-27T11:48:54.000Z</time>
      </trkpt>
      <trkpt lat="46.03449" lon="4.52462">
        <ele>542</ele>
        <time>2016-11-27T11:48:55.000Z</time>
      </trkpt>
      <trkpt lat="46.0345" lon="4.52461">
        <ele>542</ele>
        <time>2016-11-27T11:48:56.000Z</time>
      </trkpt>
      <trkpt lat="46.03451" lon="4.52459">
        <ele>541</ele>
        <time>2016-11-27T11:48:57.000Z</time>
      </trkpt>
      <trkpt lat="46.03453" lon="4.52459">
        <ele>540</ele>
        <time>2016-11-27T11:48:58.000Z</time>
      </trkpt>
      <trkpt lat="46.03454" lon="4.52459">
        <ele>540</ele>
        <time>2016-11-27T11:48:59.000Z</time>
      </trkpt>
      <trkpt lat="46.03455" lon="4.5246">
        <ele>539</ele>
        <time>2016-11-27T11:49:00.000Z</time>
      </trkpt>
      <trkpt lat="46.03456" lon="4.5246">
        <ele>539</ele>
        <time>2016-11-27T11:49:01.000Z</time>
      </trkpt>
      <trkpt lat="46.03457" lon="4.5246">
        <ele>539</ele>
        <time>2016-11-27T11:49:02.000Z</time>
      </trkpt>
      <trkpt lat="46.03458" lon="4.5246">
        <ele>539</ele>
        <time>2016-11-27T11:49:03.000Z</time>
      </trkpt>
      <trkpt lat="46.03459" lon="4.52459">
        <ele>538</ele>
        <time>2016-11-27T11:49:04.000Z</time>
      </trkpt>
      <trkpt lat="46.0346" lon="4.52459">
        <ele>537</ele>
        <time>2016-11-27T11:49:05.000Z</time>
      </trkpt>
      <trkpt lat="46.03462" lon="4.52459">
        <ele>536</ele>
        <time>2016-11-27T11:49:06.000Z</time>
      </trkpt>
      <trkpt lat="46.03463" lon="4.5246">
        <ele>535</ele>
        <time>2016-11-27T11:49:07.000Z</time>
      </trkpt>
      <trkpt lat="46.03464" lon="4.5246">
        <ele>536</ele>
        <time>2016-11-27T11:49:08.000Z</time>
      </trkpt>
      <trkpt lat="46.03464" lon="4.5246">
        <ele>537</ele>
        <time>2016-11-27T11:49:09.000Z</time>
      </trkpt>
      <trkpt lat="46.03464" lon="4.5246">
        <ele>537</ele>
        <time>2016-11-27T11:49:10.000Z</time>
      </trkpt>
      <trkpt lat="46.03465" lon="4.5246">
        <ele>537</ele>
        <time>2016-11-27T11:49:11.000Z</time>
      </trkpt>
      <trkpt lat="46.03465" lon="4.5246">
        <ele>537</ele>
        <time>2016-11-27T11:49:12.000Z</time>
      </trkpt>
      <trkpt lat="46.03465" lon="4.52459">
        <ele>536</ele>
        <time>2016-11-27T11:49:13.000Z</time>
      </trkpt>
      <trkpt lat="46.03466" lon="4.5246">
        <ele>536</ele>
        <time>2016-11-27T11:49:14.000Z</time>
      </trkpt>
      <trkpt lat="46.03467" lon="4.5246">
        <ele>536</ele>
        <time>2016-11-27T11:49:15.000Z</time>
      </trkpt>
      <trkpt lat="46.03468" lon="4.5246">
        <ele>536</ele>
        <time>2016-11-27T11:49:16.000Z</time>
      </trkpt>
      <trkpt lat="46.03469" lon="4.5246">
        <ele>536</ele>
        <time>2016-11-27T11:49:17.000Z</time>
      </trkpt>
      <trkpt lat="46.03471" lon="4.5246">
        <ele>535</ele>
        <time>2016-11-27T11:49:18.000Z</time>
      </trkpt>
      <trkpt lat="46.03473" lon="4.5246">
        <ele>535</ele>
        <time>2016-11-27T11:49:19.000Z</time>
      </trkpt>
      <trkpt lat="46.03474" lon="4.52459">
        <ele>535</ele>
        <time>2016-11-27T11:49:20.000Z</time>
      </trkpt>
      <trkpt lat="46.03475" lon="4.52459">
        <ele>534</ele>
        <time>2016-11-27T11:49:21.000Z</time>
      </trkpt>
      <trkpt lat="46.03476" lon="4.52459">
        <ele>534</ele>
        <time>2016-11-27T11:49:22.000Z</time>
      </trkpt>
      <trkpt lat="46.03478" lon="4.52459">
        <ele>532</ele>
        <time>2016-11-27T11:49:23.000Z</time>
      </trkpt>
      <trkpt lat="46.03479" lon="4.5246">
        <ele>532</ele>
        <time>2016-11-27T11:49:24.000Z</time>
      </trkpt>
      <trkpt lat="46.03481" lon="4.52459">
        <ele>531</ele>
        <time>2016-11-27T11:49:25.000Z</time>
      </trkpt>
      <trkpt lat="46.03483" lon="4.52458">
        <ele>530</ele>
        <time>2016-11-27T11:49:26.000Z</time>
      </trkpt>
      <trkpt lat="46.03484" lon="4.52457">
        <ele>529</ele>
        <time>2016-11-27T11:49:27.000Z</time>
      </trkpt>
      <trkpt lat="46.03485" lon="4.52457">
        <ele>529</ele>
        <time>2016-11-27T11:49:28.000Z</time>
      </trkpt>
      <trkpt lat="46.03487" lon="4.52457">
        <ele>528</ele>
        <time>2016-11-27T11:49:29.000Z</time>
      </trkpt>
      <trkpt lat="46.03488" lon="4.52457">
        <ele>527</ele>
        <time>2016-11-27T11:49:30.000Z</time>
      </trkpt>
      <trkpt lat="46.03489" lon="4.52457">
        <ele>527</ele>
        <time>2016-11-27T11:49:31.000Z</time>
      </trkpt>
      <trkpt lat="46.0349" lon="4.52458">
        <ele>524</ele>
        <time>2016-11-27T11:49:32.000Z</time>
      </trkpt>
      <trkpt lat="46.03492" lon="4.5246">
        <ele>523</ele>
        <time>2016-11-27T11:49:33.000Z</time>
      </trkpt>
      <trkpt lat="46.03493" lon="4.52462">
        <ele>521</ele>
        <time>2016-11-27T11:49:34.000Z</time>
      </trkpt>
      <trkpt lat="46.03494" lon="4.52463">
        <ele>520</ele>
        <time>2016-11-27T11:49:35.000Z</time>
      </trkpt>
      <trkpt lat="46.03494" lon="4.52464">
        <ele>519</ele>
        <time>2016-11-27T11:49:36.000Z</time>
      </trkpt>
      <trkpt lat="46.03495" lon="4.52465">
        <ele>518</ele>
        <time>2016-11-27T11:49:37.000Z</time>
      </trkpt>
      <trkpt lat="46.03496" lon="4.52466">
        <ele>518</ele>
        <time>2016-11-27T11:49:38.000Z</time>
      </trkpt>
      <trkpt lat="46.03497" lon="4.52468">
        <ele>518</ele>
        <time>2016-11-27T11:49:39.000Z</time>
      </trkpt>
      <trkpt lat="46.03498" lon="4.52469">
        <ele>517</ele>
        <time>2016-11-27T11:49:40.000Z</time>
      </trkpt>
      <trkpt lat="46.03499" lon="4.5247">
        <ele>517</ele>
        <time>2016-11-27T11:49:41.000Z</time>
      </trkpt>
      <trkpt lat="46.035" lon="4.52471">
        <ele>517</ele>
        <time>2016-11-27T11:49:42.000Z</time>
      </trkpt>
      <trkpt lat="46.03501" lon="4.52471">
        <ele>517</ele>
        <time>2016-11-27T11:49:43.000Z</time>
      </trkpt>
      <trkpt lat="46.03502" lon="4.52471">
        <ele>517</ele>
        <time>2016-11-27T11:49:44.000Z</time>
      </trkpt>
      <trkpt lat="46.03502" lon="4.52471">
        <ele>516</ele>
        <time>2016-11-27T11:49:45.000Z</time>
      </trkpt>
      <trkpt lat="46.03501" lon="4.52471">
        <ele>516</ele>
        <time>2016-11-27T11:49:46.000Z</time>
      </trkpt>
      <trkpt lat="46.03501" lon="4.52472">
        <ele>516</ele>
        <time>2016-11-27T11:49:47.000Z</time>
      </trkpt>
      <trkpt lat="46.03501" lon="4.52472">
        <ele>515</ele>
        <time>2016-11-27T11:49:48.000Z</time>
      </trkpt>
      <trkpt lat="46.035" lon="4.52473">
        <ele>513</ele>
        <time>2016-11-27T11:49:49.000Z</time>
      </trkpt>
      <trkpt lat="46.03499" lon="4.52473">
        <ele>512</ele>
        <time>2016-11-27T11:49:50.000Z</time>
      </trkpt>
      <trkpt lat="46.03498" lon="4.52474">
        <ele>510</ele>
        <time>2016-11-27T11:49:51.000Z</time>
      </trkpt>
      <trkpt lat="46.03497" lon="4.52474">
        <ele>509</ele>
        <time>2016-11-27T11:49:52.000Z</time>
      </trkpt>
      <trkpt lat="46.03498" lon="4.52474">
        <ele>510</ele>
        <time>2016-11-27T11:49:53.000Z</time>
      </trkpt>
      <trkpt lat="46.03498" lon="4.52473">
        <ele>510</ele>
        <time>2016-11-27T11:49:54.000Z</time>
      </trkpt>
      <trkpt lat="46.03499" lon="4.52472">
        <ele>509</ele>
        <time>2016-11-27T11:49:55.000Z</time>
      </trkpt>
      <trkpt lat="46.03499" lon="4.52472">
        <ele>509</ele>
        <time>2016-11-27T11:49:56.000Z</time>
      </trkpt>
      <trkpt lat="46.035" lon="4.52472">
        <ele>508</ele>
        <time>2016-11-27T11:49:57.000Z</time>
      </trkpt>
      <trkpt lat="46.035" lon="4.52472">
        <ele>508</ele>
        <time>2016-11-27T11:49:58.000Z</time>
      </trkpt>
      <trkpt lat="46.03501" lon="4.52472">
        <ele>509</ele>
        <time>2016-11-27T11:49:59.000Z</time>
      </trkpt>
      <trkpt lat="46.03502" lon="4.52473">
        <ele>511</ele>
        <time>2016-11-27T11:50:00.000Z</time>
      </trkpt>
      <trkpt lat="46.03502" lon="4.52473">
        <ele>511</ele>
        <time>2016-11-27T11:50:01.000Z</time>
      </trkpt>
      <trkpt lat="46.03503" lon="4.52474">
        <ele>512</ele>
        <time>2016-11-27T11:50:02.000Z</time>
      </trkpt>
      <trkpt lat="46.03503" lon="4.52474">
        <ele>511</ele>
        <time>2016-11-27T11:50:03.000Z</time>
      </trkpt>
      <trkpt lat="46.03503" lon="4.52474">
        <ele>511</ele>
        <time>2016-11-27T11:50:04.000Z</time>
      </trkpt>
      <trkpt lat="46.03503" lon="4.52475">
        <ele>510</ele>
        <time>2016-11-27T11:50:05.000Z</time>
      </trkpt>
      <trkpt lat="46.03503" lon="4.52476">
        <ele>511</ele>
        <time>2016-11-27T11:50:06.000Z</time>
      </trkpt>
      <trkpt lat="46.03504" lon="4.52477">
        <ele>512</ele>
        <time>2016-11-27T11:50:07.000Z</time>
      </trkpt>
      <trkpt lat="46.03505" lon="4.52478">
        <ele>512</ele>
        <time>2016-11-27T11:50:08.000Z</time>
      </trkpt>
      <trkpt lat="46.03506" lon="4.52478">
        <ele>513</ele>
        <time>2016-11-27T11:50:09.000Z</time>
      </trkpt>
      <trkpt lat="46.03507" lon="4.52478">
        <ele>513</ele>
        <time>2016-11-27T11:50:10.000Z</time>
      </trkpt>
      <trkpt lat="46.03507" lon="4.52478">
        <ele>513</ele>
        <time>2016-11-27T11:50:11.000Z</time>
      </trkpt>
      <trkpt lat="46.03507" lon="4.52478">
        <ele>513</ele>
        <time>2016-11-27T11:50:12.000Z</time>
      </trkpt>
      <trkpt lat="46.03506" lon="4.52477">
        <ele>512</ele>
        <time>2016-11-27T11:50:13.000Z</time>
      </trkpt>
      <trkpt lat="46.03506" lon="4.52477">
        <ele>511</ele>
        <time>2016-11-27T11:50:14.000Z</time>
      </trkpt>
      <trkpt lat="46.03506" lon="4.52476">
        <ele>511</ele>
        <time>2016-11-27T11:50:15.000Z</time>
      </trkpt>
      <trkpt lat="46.03506" lon="4.52476">
        <ele>512</ele>
        <time>2016-11-27T11:50:16.000Z</time>
      </trkpt>
      <trkpt lat="46.03505" lon="4.52476">
        <ele>510</ele>
        <time>2016-11-27T11:50:17.000Z</time>
      </trkpt>
      <trkpt lat="46.03505" lon="4.52476">
        <ele>510</ele>
        <time>2016-11-27T11:50:18.000Z</time>
      </trkpt>
      <trkpt lat="46.03504" lon="4.52476">
        <ele>509</ele>
        <time>2016-11-27T11:50:19.000Z</time>
      </trkpt>
      <trkpt lat="46.03504" lon="4.52476">
        <ele>507</ele>
        <time>2016-11-27T11:50:20.000Z</time>
      </trkpt>
      <trkpt lat="46.03503" lon="4.52475">
        <ele>507</ele>
        <time>2016-11-27T11:50:21.000Z</time>
      </trkpt>
      <trkpt lat="46.03503" lon="4.52474">
        <ele>506</ele>
        <time>2016-11-27T11:50:22.000Z</time>
      </trkpt>
      <trkpt lat="46.03503" lon="4.52472">
        <ele>506</ele>
        <time>2016-11-27T11:50:23.000Z</time>
      </trkpt>
      <trkpt lat="46.03503" lon="4.52469">
        <ele>506</ele>
        <time>2016-11-27T11:50:24.000Z</time>
      </trkpt>
      <trkpt lat="46.03504" lon="4.52467">
        <ele>506</ele>
        <time>2016-11-27T11:50:25.000Z</time>
      </trkpt>
      <trkpt lat="46.03504" lon="4.52466">
        <ele>507</ele>
        <time>2016-11-27T11:50:26.000Z</time>
      </trkpt>
      <trkpt lat="46.03504" lon="4.52464">
        <ele>507</ele>
        <time>2016-11-27T11:50:27.000Z</time>
      </trkpt>
      <trkpt lat="46.03505" lon="4.52463">
        <ele>507</ele>
        <time>2016-11-27T11:50:28.000Z</time>
      </trkpt>
      <trkpt lat="46.03505" lon="4.52461">
        <ele>508</ele>
        <time>2016-11-27T11:50:29.000Z</time>
      </trkpt>
      <trkpt lat="46.03505" lon="4.52459">
        <ele>508</ele>
        <time>2016-11-27T11:50:30.000Z</time>
      </trkpt>
      <trkpt lat="46.03505" lon="4.52456">
        <ele>508</ele>
        <time>2016-11-27T11:50:31.000Z</time>
      </trkpt>
      <trkpt lat="46.03505" lon="4.52454">
        <ele>507</ele>
        <time>2016-11-27T11:50:32.000Z</time>
      </trkpt>
      <trkpt lat="46.03505" lon="4.52452">
        <ele>508</ele>
        <time>2016-11-27T11:50:33.000Z</time>
      </trkpt>
      <trkpt lat="46.03505" lon="4.5245">
        <ele>508</ele>
        <time>2016-11-27T11:50:34.000Z</time>
      </trkpt>
      <trkpt lat="46.03505" lon="4.52449">
        <ele>509</ele>
        <time>2016-11-27T11:50:35.000Z</time>
      </trkpt>
      <trkpt lat="46.03504" lon="4.52449">
        <ele>510</ele>
        <time>2016-11-27T11:50:36.000Z</time>
      </trkpt>
      <trkpt lat="46.03504" lon="4.52449">
        <ele>512</ele>
        <time>2016-11-27T11:50:37.000Z</time>
      </trkpt>
      <trkpt lat="46.03504" lon="4.52449">
        <ele>513</ele>
        <time>2016-11-27T11:50:38.000Z</time>
      </trkpt>
      <trkpt lat="46.03504" lon="4.52449">
        <ele>514</ele>
        <time>2016-11-27T11:50:39.000Z</time>
      </trkpt>
      <trkpt lat="46.03504" lon="4.5245">
        <ele>514</ele>
        <time>2016-11-27T11:50:40.000Z</time>
      </trkpt>
      <trkpt lat="46.03504" lon="4.52449">
        <ele>513</ele>
        <time>2016-11-27T11:50:41.000Z</time>
      </trkpt>
      <trkpt lat="46.03504" lon="4.52449">
        <ele>512</ele>
        <time>2016-11-27T11:50:42.000Z</time>
      </trkpt>
      <trkpt lat="46.03505" lon="4.52449">
        <ele>513</ele>
        <time>2016-11-27T11:50:43.000Z</time>
      </trkpt>
      <trkpt lat="46.03505" lon="4.52448">
        <ele>513</ele>
        <time>2016-11-27T11:50:44.000Z</time>
      </trkpt>
      <trkpt lat="46.03505" lon="4.52448">
        <ele>513</ele>
        <time>2016-11-27T11:50:45.000Z</time>
      </trkpt>
      <trkpt lat="46.03505" lon="4.52447">
        <ele>513</ele>
        <time>2016-11-27T11:50:46.000Z</time>
      </trkpt>
      <trkpt lat="46.03505" lon="4.52447">
        <ele>513</ele>
        <time>2016-11-27T11:50:47.000Z</time>
      </trkpt>
      <trkpt lat="46.03506" lon="4.52447">
        <ele>513</ele>
        <time>2016-11-27T11:50:48.000Z</time>
      </trkpt>
      <trkpt lat="46.03506" lon="4.52447">
        <ele>513</ele>
        <time>2016-11-27T11:50:49.000Z</time>
      </trkpt>
      <trkpt lat="46.03506" lon="4.52446">
        <ele>513</ele>
        <time>2016-11-27T11:50:50.000Z</time>
      </trkpt>
      <trkpt lat="46.03507" lon="4.52446">
        <ele>513</ele>
        <time>2016-11-27T11:50:51.000Z</time>
      </trkpt>
      <trkpt lat="46.03507" lon="4.52446">
        <ele>513</ele>
        <time>2016-11-27T11:50:52.000Z</time>
      </trkpt>
      <trkpt lat="46.03507" lon="4.52446">
        <ele>513</ele>
        <time>2016-11-27T11:50:53.000Z</time>
      </trkpt>
      <trkpt lat="46.03508" lon="4.52446">
        <ele>512</ele>
        <time>2016-11-27T11:50:54.000Z</time>
      </trkpt>
      <trkpt lat="46.03508" lon="4.52446">
        <ele>513</ele>
        <time>2016-11-27T11:50:55.000Z</time>
      </trkpt>
      <trkpt lat="46.03509" lon="4.52446">
        <ele>512</ele>
        <time>2016-11-27T11:50:56.000Z</time>
      </trkpt>
      <trkpt lat="46.03509" lon="4.52446">
        <ele>512</ele>
        <time>2016-11-27T11:50:57.000Z</time>
      </trkpt>
      <trkpt lat="46.0351" lon="4.52446">
        <ele>511</ele>
        <time>2016-11-27T11:50:58.000Z</time>
      </trkpt>
      <trkpt lat="46.0351" lon="4.52446">
        <ele>513</ele>
        <time>2016-11-27T11:50:59.000Z</time>
      </trkpt>
      <trkpt lat="46.03511" lon="4.52446">
        <ele>514</ele>
        <time>2016-11-27T11:51:00.000Z</time>
      </trkpt>
      <trkpt lat="46.03512" lon="4.52446">
        <ele>514</ele>
        <time>2016-11-27T11:51:01.000Z</time>
      </trkpt>
      <trkpt lat="46.03512" lon="4.52446">
        <ele>514</ele>
        <time>2016-11-27T11:51:02.000Z</time>
      </trkpt>
      <trkpt lat="46.03513" lon="4.52446">
        <ele>513</ele>
        <time>2016-11-27T11:51:03.000Z</time>
      </trkpt>
      <trkpt lat="46.03513" lon="4.52446">
        <ele>512</ele>
        <time>2016-11-27T11:51:04.000Z</time>
      </trkpt>
      <trkpt lat="46.03513" lon="4.52446">
        <ele>512</ele>
        <time>2016-11-27T11:51:05.000Z</time>
      </trkpt>
      <trkpt lat="46.03514" lon="4.52446">
        <ele>512</ele>
        <time>2016-11-27T11:51:06.000Z</time>
      </trkpt>
      <trkpt lat="46.03514" lon="4.52446">
        <ele>512</ele>
        <time>2016-11-27T11:51:07.000Z</time>
      </trkpt>
      <trkpt lat="46.03514" lon="4.52446">
        <ele>512</ele>
        <time>2016-11-27T11:51:08.000Z</time>
      </trkpt>
      <trkpt lat="46.03514" lon="4.52446">
        <ele>512</ele>
        <time>2016-11-27T11:51:09.000Z</time>
      </trkpt>
      <trkpt lat="46.03514" lon="4.52446">
        <ele>513</ele>
        <time>2016-11-27T11:51:10.000Z</time>
      </trkpt>
      <trkpt lat="46.03514" lon="4.52446">
        <ele>513</ele>
        <time>2016-11-27T11:51:11.000Z</time>
      </trkpt>
      <trkpt lat="46.03514" lon="4.52446">
        <ele>513</ele>
        <time>2016-11-27T11:51:12.000Z</time>
      </trkpt>
      <trkpt lat="46.03514" lon="4.52446">
        <ele>513</ele>
        <time>2016-11-27T11:51:13.000Z</time>
      </trkpt>
      <trkpt lat="46.03513" lon="4.52446">
        <ele>513</ele>
        <time>2016-11-27T11:51:14.000Z</time>
      </trkpt>
      <trkpt lat="46.03513" lon="4.52446">
        <ele>513</ele>
        <time>2016-11-27T11:51:15.000Z</time>
      </trkpt>
      <trkpt lat="46.03513" lon="4.52446">
        <ele>513</ele>
        <time>2016-11-27T11:51:16.000Z</time>
      </trkpt>
      <trkpt lat="46.03513" lon="4.52446">
        <ele>514</ele>
        <time>2016-11-27T11:51:17.000Z</time>
      </trkpt>
      <trkpt lat="46.03513" lon="4.52446">
        <ele>513</ele>
        <time>2016-11-27T11:51:18.000Z</time>
      </trkpt>
      <trkpt lat="46.03513" lon="4.52446">
        <ele>513</ele>
        <time>2016-11-27T11:51:19.000Z</time>
      </trkpt>
      <trkpt lat="46.03513" lon="4.52446">
        <ele>513</ele>
        <time>2016-11-27T11:51:20.000Z</time>
      </trkpt>
      <trkpt lat="46.03514" lon="4.52446">
        <ele>514</ele>
        <time>2016-11-27T11:51:21.000Z</time>
      </trkpt>
      <trkpt lat="46.03514" lon="4.52446">
        <ele>513</ele>
        <time>2016-11-27T11:51:22.000Z</time>
      </trkpt>
      <trkpt lat="46.03514" lon="4.52446">
        <ele>514</ele>
        <time>2016-11-27T11:51:23.000Z</time>
      </trkpt>
      <trkpt lat="46.03515" lon="4.52446">
        <ele>515</ele>
        <time>2016-11-27T11:51:24.000Z</time>
      </trkpt>
      <trkpt lat="46.03516" lon="4.52446">
        <ele>515</ele>
        <time>2016-11-27T11:51:25.000Z</time>
      </trkpt>
      <trkpt lat="46.03516" lon="4.52446">
        <ele>515</ele>
        <time>2016-11-27T11:51:26.000Z</time>
      </trkpt>
      <trkpt lat="46.03517" lon="4.52446">
        <ele>516</ele>
        <time>2016-11-27T11:51:27.000Z</time>
      </trkpt>
      <trkpt lat="46.03518" lon="4.52446">
        <ele>516</ele>
        <time>2016-11-27T11:51:28.000Z</time>
      </trkpt>
      <trkpt lat="46.03518" lon="4.52446">
        <ele>516</ele>
        <time>2016-11-27T11:51:29.000Z</time>
      </trkpt>
      <trkpt lat="46.03518" lon="4.52446">
        <ele>516</ele>
        <time>2016-11-27T11:51:30.000Z</time>
      </trkpt>
      <trkpt lat="46.03518" lon="4.52446">
        <ele>516</ele>
        <time>2016-11-27T11:51:31.000Z</time>
      </trkpt>
      <trkpt lat="46.03518" lon="4.52446">
        <ele>516</ele>
        <time>2016-11-27T11:51:32.000Z</time>
      </trkpt>
      <trkpt lat="46.03518" lon="4.52446">
        <ele>516</ele>
        <time>2016-11-27T11:51:33.000Z</time>
      </trkpt>
      <trkpt lat="46.03518" lon="4.52446">
        <ele>516</ele>
        <time>2016-11-27T11:51:34.000Z</time>
      </trkpt>
      <trkpt lat="46.03518" lon="4.52446">
        <ele>516</ele>
        <time>2016-11-27T11:51:35.000Z</time>
      </trkpt>
      <trkpt lat="46.03517" lon="4.52446">
        <ele>516</ele>
        <time>2016-11-27T11:51:36.000Z</time>
      </trkpt>
      <trkpt lat="46.03517" lon="4.52447">
        <ele>517</ele>
        <time>2016-11-27T11:51:37.000Z</time>
      </trkpt>
      <trkpt lat="46.03517" lon="4.52447">
        <ele>518</ele>
        <time>2016-11-27T11:51:38.000Z</time>
      </trkpt>
      <trkpt lat="46.03517" lon="4.52448">
        <ele>518</ele>
        <time>2016-11-27T11:51:39.000Z</time>
      </trkpt>
      <trkpt lat="46.03517" lon="4.52448">
        <ele>519</ele>
        <time>2016-11-27T11:51:40.000Z</time>
      </trkpt>
      <trkpt lat="46.03517" lon="4.52448">
        <ele>520</ele>
        <time>2016-11-27T11:51:41.000Z</time>
      </trkpt>
      <trkpt lat="46.03517" lon="4.52449">
        <ele>521</ele>
        <time>2016-11-27T11:51:42.000Z</time>
      </trkpt>
      <trkpt lat="46.03517" lon="4.52449">
        <ele>521</ele>
        <time>2016-11-27T11:51:43.000Z</time>
      </trkpt>
      <trkpt lat="46.03517" lon="4.52449">
        <ele>522</ele>
        <time>2016-11-27T11:51:44.000Z</time>
      </trkpt>
      <trkpt lat="46.03517" lon="4.52449">
        <ele>522</ele>
        <time>2016-11-27T11:51:45.000Z</time>
      </trkpt>
      <trkpt lat="46.03517" lon="4.52449">
        <ele>522</ele>
        <time>2016-11-27T11:51:46.000Z</time>
      </trkpt>
      <trkpt lat="46.03517" lon="4.52449">
        <ele>522</ele>
        <time>2016-11-27T11:51:47.000Z</time>
      </trkpt>
      <trkpt lat="46.03517" lon="4.52449">
        <ele>522</ele>
        <time>2016-11-27T11:51:48.000Z</time>
      </trkpt>
      <trkpt lat="46.03517" lon="4.52449">
        <ele>522</ele>
        <time>2016-11-27T11:51:49.000Z</time>
      </trkpt>
      <trkpt lat="46.03517" lon="4.52449">
        <ele>522</ele>
        <time>2016-11-27T11:51:50.000Z</time>
      </trkpt>
      <trkpt lat="46.03517" lon="4.52449">
        <ele>522</ele>
        <time>2016-11-27T11:51:51.000Z</time>
      </trkpt>
      <trkpt lat="46.03517" lon="4.52449">
        <ele>522</ele>
        <time>2016-11-27T11:51:52.000Z</time>
      </trkpt>
      <trkpt lat="46.03517" lon="4.52449">
        <ele>521</ele>
        <time>2016-11-27T11:51:53.000Z</time>
      </trkpt>
      <trkpt lat="46.03516" lon="4.52448">
        <ele>521</ele>
        <time>2016-11-27T11:51:54.000Z</time>
      </trkpt>
      <trkpt lat="46.03516" lon="4.52448">
        <ele>521</ele>
        <time>2016-11-27T11:51:55.000Z</time>
      </trkpt>
      <trkpt lat="46.03516" lon="4.52448">
        <ele>521</ele>
        <time>2016-11-27T11:51:56.000Z</time>
      </trkpt>
      <trkpt lat="46.03516" lon="4.52448">
        <ele>521</ele>
        <time>2016-11-27T11:51:57.000Z</time>
      </trkpt>
      <trkpt lat="46.03516" lon="4.52447">
        <ele>521</ele>
        <time>2016-11-27T11:51:58.000Z</time>
      </trkpt>
      <trkpt lat="46.03515" lon="4.52447">
        <ele>521</ele>
        <time>2016-11-27T11:51:59.000Z</time>
      </trkpt>
      <trkpt lat="46.03516" lon="4.52446">
        <ele>521</ele>
        <time>2016-11-27T11:52:00.000Z</time>
      </trkpt>
      <trkpt lat="46.03516" lon="4.52445">
        <ele>520</ele>
        <time>2016-11-27T11:52:01.000Z</time>
      </trkpt>
      <trkpt lat="46.03516" lon="4.52444">
        <ele>520</ele>
        <time>2016-11-27T11:52:02.000Z</time>
      </trkpt>
      <trkpt lat="46.03516" lon="4.52444">
        <ele>519</ele>
        <time>2016-11-27T11:52:03.000Z</time>
      </trkpt>
      <trkpt lat="46.03516" lon="4.52444">
        <ele>518</ele>
        <time>2016-11-27T11:52:04.000Z</time>
      </trkpt>
      <trkpt lat="46.03517" lon="4.52443">
        <ele>518</ele>
        <time>2016-11-27T11:52:05.000Z</time>
      </trkpt>
      <trkpt lat="46.03517" lon="4.52443">
        <ele>517</ele>
        <time>2016-11-27T11:52:06.000Z</time>
      </trkpt>
      <trkpt lat="46.03517" lon="4.52442">
        <ele>517</ele>
        <time>2016-11-27T11:52:07.000Z</time>
      </trkpt>
      <trkpt lat="46.03517" lon="4.52442">
        <ele>518</ele>
        <time>2016-11-27T11:52:08.000Z</time>
      </trkpt>
      <trkpt lat="46.03517" lon="4.52442">
        <ele>518</ele>
        <time>2016-11-27T11:52:09.000Z</time>
      </trkpt>
      <trkpt lat="46.03517" lon="4.52442">
        <ele>518</ele>
        <time>2016-11-27T11:52:10.000Z</time>
      </trkpt>
      <trkpt lat="46.03517" lon="4.52441">
        <ele>517</ele>
        <time>2016-11-27T11:52:11.000Z</time>
      </trkpt>
      <trkpt lat="46.03517" lon="4.52441">
        <ele>517</ele>
        <time>2016-11-27T11:52:12.000Z</time>
      </trkpt>
      <trkpt lat="46.03516" lon="4.52441">
        <ele>517</ele>
        <time>2016-11-27T11:52:13.000Z</time>
      </trkpt>
      <trkpt lat="46.03516" lon="4.52441">
        <ele>516</ele>
        <time>2016-11-27T11:52:14.000Z</time>
      </trkpt>
      <trkpt lat="46.03515" lon="4.52441">
        <ele>516</ele>
        <time>2016-11-27T11:52:15.000Z</time>
      </trkpt>
      <trkpt lat="46.03515" lon="4.52441">
        <ele>516</ele>
        <time>2016-11-27T11:52:16.000Z</time>
      </trkpt>
      <trkpt lat="46.03515" lon="4.52441">
        <ele>516</ele>
        <time>2016-11-27T11:52:17.000Z</time>
      </trkpt>
      <trkpt lat="46.03515" lon="4.52441">
        <ele>515</ele>
        <time>2016-11-27T11:52:18.000Z</time>
      </trkpt>
      <trkpt lat="46.03515" lon="4.52442">
        <ele>513</ele>
        <time>2016-11-27T11:52:19.000Z</time>
      </trkpt>
      <trkpt lat="46.03515" lon="4.52443">
        <ele>512</ele>
        <time>2016-11-27T11:52:20.000Z</time>
      </trkpt>
      <trkpt lat="46.03515" lon="4.52445">
        <ele>511</ele>
        <time>2016-11-27T11:52:21.000Z</time>
      </trkpt>
      <trkpt lat="46.03514" lon="4.52447">
        <ele>510</ele>
        <time>2016-11-27T11:52:22.000Z</time>
      </trkpt>
      <trkpt lat="46.03513" lon="4.52448">
        <ele>510</ele>
        <time>2016-11-27T11:52:23.000Z</time>
      </trkpt>
      <trkpt lat="46.03513" lon="4.5245">
        <ele>509</ele>
        <time>2016-11-27T11:52:24.000Z</time>
      </trkpt>
      <trkpt lat="46.03512" lon="4.52452">
        <ele>509</ele>
        <time>2016-11-27T11:52:25.000Z</time>
      </trkpt>
      <trkpt lat="46.03512" lon="4.52454">
        <ele>509</ele>
        <time>2016-11-27T11:52:26.000Z</time>
      </trkpt>
      <trkpt lat="46.03511" lon="4.52455">
        <ele>508</ele>
        <time>2016-11-27T11:52:27.000Z</time>
      </trkpt>
      <trkpt lat="46.03511" lon="4.52457">
        <ele>509</ele>
        <time>2016-11-27T11:52:28.000Z</time>
      </trkpt>
      <trkpt lat="46.03511" lon="4.52459">
        <ele>509</ele>
        <time>2016-11-27T11:52:29.000Z</time>
      </trkpt>
      <trkpt lat="46.03511" lon="4.52462">
        <ele>509</ele>
        <time>2016-11-27T11:52:30.000Z</time>
      </trkpt>
      <trkpt lat="46.03511" lon="4.52464">
        <ele>509</ele>
        <time>2016-11-27T11:52:31.000Z</time>
      </trkpt>
      <trkpt lat="46.03511" lon="4.52466">
        <ele>509</ele>
        <time>2016-11-27T11:52:32.000Z</time>
      </trkpt>
      <trkpt lat="46.03511" lon="4.52468">
        <ele>508</ele>
        <time>2016-11-27T11:52:33.000Z</time>
      </trkpt>
      <trkpt lat="46.03511" lon="4.5247">
        <ele>509</ele>
        <time>2016-11-27T11:52:34.000Z</time>
      </trkpt>
      <trkpt lat="46.0351" lon="4.52472">
        <ele>508</ele>
        <time>2016-11-27T11:52:35.000Z</time>
      </trkpt>
      <trkpt lat="46.03509" lon="4.52474">
        <ele>508</ele>
        <time>2016-11-27T11:52:36.000Z</time>
      </trkpt>
      <trkpt lat="46.03509" lon="4.52475">
        <ele>508</ele>
        <time>2016-11-27T11:52:37.000Z</time>
      </trkpt>
      <trkpt lat="46.03508" lon="4.52477">
        <ele>508</ele>
        <time>2016-11-27T11:52:38.000Z</time>
      </trkpt>
      <trkpt lat="46.03507" lon="4.52479">
        <ele>508</ele>
        <time>2016-11-27T11:52:39.000Z</time>
      </trkpt>
      <trkpt lat="46.03506" lon="4.52481">
        <ele>509</ele>
        <time>2016-11-27T11:52:40.000Z</time>
      </trkpt>
      <trkpt lat="46.03505" lon="4.52483">
        <ele>510</ele>
        <time>2016-11-27T11:52:41.000Z</time>
      </trkpt>
      <trkpt lat="46.03504" lon="4.52486">
        <ele>511</ele>
        <time>2016-11-27T11:52:42.000Z</time>
      </trkpt>
      <trkpt lat="46.03504" lon="4.52489">
        <ele>511</ele>
        <time>2016-11-27T11:52:43.000Z</time>
      </trkpt>
      <trkpt lat="46.03504" lon="4.52492">
        <ele>510</ele>
        <time>2016-11-27T11:52:44.000Z</time>
      </trkpt>
      <trkpt lat="46.03503" lon="4.52495">
        <ele>509</ele>
        <time>2016-11-27T11:52:45.000Z</time>
      </trkpt>
      <trkpt lat="46.03502" lon="4.52498">
        <ele>510</ele>
        <time>2016-11-27T11:52:46.000Z</time>
      </trkpt>
      <trkpt lat="46.03501" lon="4.52501">
        <ele>510</ele>
        <time>2016-11-27T11:52:47.000Z</time>
      </trkpt>
      <trkpt lat="46.03501" lon="4.52505">
        <ele>511</ele>
        <time>2016-11-27T11:52:48.000Z</time>
      </trkpt>
      <trkpt lat="46.035" lon="4.52507">
        <ele>511</ele>
        <time>2016-11-27T11:52:49.000Z</time>
      </trkpt>
      <trkpt lat="46.035" lon="4.52511">
        <ele>510</ele>
        <time>2016-11-27T11:52:50.000Z</time>
      </trkpt>
      <trkpt lat="46.03499" lon="4.52513">
        <ele>510</ele>
        <time>2016-11-27T11:52:51.000Z</time>
      </trkpt>
      <trkpt lat="46.03499" lon="4.52516">
        <ele>510</ele>
        <time>2016-11-27T11:52:52.000Z</time>
      </trkpt>
      <trkpt lat="46.03498" lon="4.52519">
        <ele>510</ele>
        <time>2016-11-27T11:52:53.000Z</time>
      </trkpt>
      <trkpt lat="46.03498" lon="4.52522">
        <ele>511</ele>
        <time>2016-11-27T11:52:54.000Z</time>
      </trkpt>
      <trkpt lat="46.03498" lon="4.52525">
        <ele>511</ele>
        <time>2016-11-27T11:52:55.000Z</time>
      </trkpt>
      <trkpt lat="46.03498" lon="4.52527">
        <ele>511</ele>
        <time>2016-11-27T11:52:56.000Z</time>
      </trkpt>
      <trkpt lat="46.03498" lon="4.5253">
        <ele>511</ele>
        <time>2016-11-27T11:52:57.000Z</time>
      </trkpt>
      <trkpt lat="46.03499" lon="4.52533">
        <ele>512</ele>
        <time>2016-11-27T11:52:58.000Z</time>
      </trkpt>
      <trkpt lat="46.03499" lon="4.52536">
        <ele>512</ele>
        <time>2016-11-27T11:52:59.000Z</time>
      </trkpt>
      <trkpt lat="46.035" lon="4.52539">
        <ele>511</ele>
        <time>2016-11-27T11:53:00.000Z</time>
      </trkpt>
      <trkpt lat="46.035" lon="4.52542">
        <ele>512</ele>
        <time>2016-11-27T11:53:01.000Z</time>
      </trkpt>
      <trkpt lat="46.035" lon="4.52546">
        <ele>513</ele>
        <time>2016-11-27T11:53:02.000Z</time>
      </trkpt>
      <trkpt lat="46.035" lon="4.52548">
        <ele>514</ele>
        <time>2016-11-27T11:53:03.000Z</time>
      </trkpt>
      <trkpt lat="46.035" lon="4.52549">
        <ele>512</ele>
        <time>2016-11-27T11:53:04.000Z</time>
      </trkpt>
      <trkpt lat="46.035" lon="4.52549">
        <ele>514</ele>
        <time>2016-11-27T11:53:05.000Z</time>
      </trkpt>
      <trkpt lat="46.035" lon="4.52549">
        <ele>514</ele>
        <time>2016-11-27T11:53:06.000Z</time>
      </trkpt>
      <trkpt lat="46.035" lon="4.52551">
        <ele>514</ele>
        <time>2016-11-27T11:53:07.000Z</time>
      </trkpt>
      <trkpt lat="46.035" lon="4.52553">
        <ele>514</ele>
        <time>2016-11-27T11:53:08.000Z</time>
      </trkpt>
      <trkpt lat="46.03499" lon="4.52556">
        <ele>513</ele>
        <time>2016-11-27T11:53:09.000Z</time>
      </trkpt>
      <trkpt lat="46.03499" lon="4.52558">
        <ele>513</ele>
        <time>2016-11-27T11:53:10.000Z</time>
      </trkpt>
      <trkpt lat="46.03499" lon="4.52561">
        <ele>514</ele>
        <time>2016-11-27T11:53:11.000Z</time>
      </trkpt>
      <trkpt lat="46.03499" lon="4.52563">
        <ele>514</ele>
        <time>2016-11-27T11:53:12.000Z</time>
      </trkpt>
      <trkpt lat="46.03499" lon="4.52566">
        <ele>515</ele>
        <time>2016-11-27T11:53:13.000Z</time>
      </trkpt>
      <trkpt lat="46.03499" lon="4.52568">
        <ele>517</ele>
        <time>2016-11-27T11:53:14.000Z</time>
      </trkpt>
      <trkpt lat="46.03499" lon="4.52571">
        <ele>517</ele>
        <time>2016-11-27T11:53:15.000Z</time>
      </trkpt>
      <trkpt lat="46.035" lon="4.52574">
        <ele>517</ele>
        <time>2016-11-27T11:53:16.000Z</time>
      </trkpt>
      <trkpt lat="46.035" lon="4.52577">
        <ele>517</ele>
        <time>2016-11-27T11:53:17.000Z</time>
      </trkpt>
      <trkpt lat="46.035" lon="4.52581">
        <ele>518</ele>
        <time>2016-11-27T11:53:18.000Z</time>
      </trkpt>
      <trkpt lat="46.03501" lon="4.52585">
        <ele>518</ele>
        <time>2016-11-27T11:53:19.000Z</time>
      </trkpt>
      <trkpt lat="46.03501" lon="4.52589">
        <ele>518</ele>
        <time>2016-11-27T11:53:20.000Z</time>
      </trkpt>
      <trkpt lat="46.03501" lon="4.52593">
        <ele>519</ele>
        <time>2016-11-27T11:53:21.000Z</time>
      </trkpt>
      <trkpt lat="46.03501" lon="4.52597">
        <ele>519</ele>
        <time>2016-11-27T11:53:22.000Z</time>
      </trkpt>
      <trkpt lat="46.03501" lon="4.526">
        <ele>520</ele>
        <time>2016-11-27T11:53:23.000Z</time>
      </trkpt>
      <trkpt lat="46.03501" lon="4.52602">
        <ele>520</ele>
        <time>2016-11-27T11:53:24.000Z</time>
      </trkpt>
      <trkpt lat="46.03501" lon="4.52605">
        <ele>520</ele>
        <time>2016-11-27T11:53:25.000Z</time>
      </trkpt>
      <trkpt lat="46.03501" lon="4.52608">
        <ele>522</ele>
        <time>2016-11-27T11:53:26.000Z</time>
      </trkpt>
      <trkpt lat="46.03501" lon="4.52611">
        <ele>521</ele>
        <time>2016-11-27T11:53:27.000Z</time>
      </trkpt>
      <trkpt lat="46.03502" lon="4.52614">
        <ele>520</ele>
        <time>2016-11-27T11:53:28.000Z</time>
      </trkpt>
      <trkpt lat="46.03502" lon="4.52617">
        <ele>522</ele>
        <time>2016-11-27T11:53:29.000Z</time>
      </trkpt>
      <trkpt lat="46.03502" lon="4.5262">
        <ele>521</ele>
        <time>2016-11-27T11:53:30.000Z</time>
      </trkpt>
      <trkpt lat="46.03503" lon="4.52623">
        <ele>520</ele>
        <time>2016-11-27T11:53:31.000Z</time>
      </trkpt>
      <trkpt lat="46.03503" lon="4.52627">
        <ele>520</ele>
        <time>2016-11-27T11:53:32.000Z</time>
      </trkpt>
      <trkpt lat="46.03504" lon="4.52631">
        <ele>522</ele>
        <time>2016-11-27T11:53:33.000Z</time>
      </trkpt>
      <trkpt lat="46.03506" lon="4.52634">
        <ele>522</ele>
        <time>2016-11-27T11:53:34.000Z</time>
      </trkpt>
      <trkpt lat="46.03507" lon="4.52636">
        <ele>521</ele>
        <time>2016-11-27T11:53:35.000Z</time>
      </trkpt>
      <trkpt lat="46.03508" lon="4.52639">
        <ele>521</ele>
        <time>2016-11-27T11:53:36.000Z</time>
      </trkpt>
      <trkpt lat="46.0351" lon="4.52642">
        <ele>521</ele>
        <time>2016-11-27T11:53:37.000Z</time>
      </trkpt>
      <trkpt lat="46.03512" lon="4.52645">
        <ele>521</ele>
        <time>2016-11-27T11:53:38.000Z</time>
      </trkpt>
      <trkpt lat="46.03514" lon="4.52648">
        <ele>522</ele>
        <time>2016-11-27T11:53:39.000Z</time>
      </trkpt>
      <trkpt lat="46.03515" lon="4.52651">
        <ele>522</ele>
        <time>2016-11-27T11:53:40.000Z</time>
      </trkpt>
      <trkpt lat="46.03516" lon="4.52654">
        <ele>523</ele>
        <time>2016-11-27T11:53:41.000Z</time>
      </trkpt>
      <trkpt lat="46.03518" lon="4.52657">
        <ele>523</ele>
        <time>2016-11-27T11:53:42.000Z</time>
      </trkpt>
      <trkpt lat="46.03519" lon="4.5266">
        <ele>524</ele>
        <time>2016-11-27T11:53:43.000Z</time>
      </trkpt>
      <trkpt lat="46.0352" lon="4.52662">
        <ele>525</ele>
        <time>2016-11-27T11:53:44.000Z</time>
      </trkpt>
      <trkpt lat="46.03522" lon="4.52664">
        <ele>526</ele>
        <time>2016-11-27T11:53:45.000Z</time>
      </trkpt>
      <trkpt lat="46.03523" lon="4.52667">
        <ele>527</ele>
        <time>2016-11-27T11:53:46.000Z</time>
      </trkpt>
      <trkpt lat="46.03524" lon="4.5267">
        <ele>527</ele>
        <time>2016-11-27T11:53:47.000Z</time>
      </trkpt>
      <trkpt lat="46.03526" lon="4.52674">
        <ele>526</ele>
        <time>2016-11-27T11:53:48.000Z</time>
      </trkpt>
      <trkpt lat="46.03527" lon="4.52678">
        <ele>525</ele>
        <time>2016-11-27T11:53:49.000Z</time>
      </trkpt>
      <trkpt lat="46.03528" lon="4.52681">
        <ele>525</ele>
        <time>2016-11-27T11:53:50.000Z</time>
      </trkpt>
      <trkpt lat="46.03528" lon="4.52684">
        <ele>526</ele>
        <time>2016-11-27T11:53:51.000Z</time>
      </trkpt>
      <trkpt lat="46.03529" lon="4.52687">
        <ele>526</ele>
        <time>2016-11-27T11:53:52.000Z</time>
      </trkpt>
      <trkpt lat="46.03529" lon="4.52689">
        <ele>527</ele>
        <time>2016-11-27T11:53:53.000Z</time>
      </trkpt>
      <trkpt lat="46.0353" lon="4.52692">
        <ele>527</ele>
        <time>2016-11-27T11:53:54.000Z</time>
      </trkpt>
      <trkpt lat="46.0353" lon="4.52694">
        <ele>527</ele>
        <time>2016-11-27T11:53:55.000Z</time>
      </trkpt>
      <trkpt lat="46.03531" lon="4.52697">
        <ele>527</ele>
        <time>2016-11-27T11:53:56.000Z</time>
      </trkpt>
      <trkpt lat="46.03532" lon="4.52699">
        <ele>528</ele>
        <time>2016-11-27T11:53:57.000Z</time>
      </trkpt>
      <trkpt lat="46.03533" lon="4.52702">
        <ele>529</ele>
        <time>2016-11-27T11:53:58.000Z</time>
      </trkpt>
      <trkpt lat="46.03534" lon="4.52704">
        <ele>529</ele>
        <time>2016-11-27T11:53:59.000Z</time>
      </trkpt>
      <trkpt lat="46.03535" lon="4.52706">
        <ele>530</ele>
        <time>2016-11-27T11:54:00.000Z</time>
      </trkpt>
      <trkpt lat="46.03537" lon="4.52708">
        <ele>530</ele>
        <time>2016-11-27T11:54:01.000Z</time>
      </trkpt>
      <trkpt lat="46.03539" lon="4.5271">
        <ele>530</ele>
        <time>2016-11-27T11:54:02.000Z</time>
      </trkpt>
      <trkpt lat="46.0354" lon="4.52711">
        <ele>530</ele>
        <time>2016-11-27T11:54:03.000Z</time>
      </trkpt>
      <trkpt lat="46.03542" lon="4.52713">
        <ele>529</ele>
        <time>2016-11-27T11:54:04.000Z</time>
      </trkpt>
      <trkpt lat="46.03543" lon="4.52714">
        <ele>529</ele>
        <time>2016-11-27T11:54:05.000Z</time>
      </trkpt>
      <trkpt lat="46.03544" lon="4.52715">
        <ele>528</ele>
        <time>2016-11-27T11:54:06.000Z</time>
      </trkpt>
      <trkpt lat="46.03546" lon="4.52715">
        <ele>528</ele>
        <time>2016-11-27T11:54:07.000Z</time>
      </trkpt>
      <trkpt lat="46.03548" lon="4.52714">
        <ele>528</ele>
        <time>2016-11-27T11:54:08.000Z</time>
      </trkpt>
      <trkpt lat="46.03551" lon="4.52713">
        <ele>527</ele>
        <time>2016-11-27T11:54:09.000Z</time>
      </trkpt>
      <trkpt lat="46.03553" lon="4.52713">
        <ele>526</ele>
        <time>2016-11-27T11:54:10.000Z</time>
      </trkpt>
      <trkpt lat="46.03555" lon="4.52712">
        <ele>527</ele>
        <time>2016-11-27T11:54:11.000Z</time>
      </trkpt>
      <trkpt lat="46.03556" lon="4.52712">
        <ele>527</ele>
        <time>2016-11-27T11:54:12.000Z</time>
      </trkpt>
      <trkpt lat="46.03558" lon="4.52711">
        <ele>527</ele>
        <time>2016-11-27T11:54:13.000Z</time>
      </trkpt>
      <trkpt lat="46.03559" lon="4.52711">
        <ele>528</ele>
        <time>2016-11-27T11:54:14.000Z</time>
      </trkpt>
      <trkpt lat="46.0356" lon="4.5271">
        <ele>528</ele>
        <time>2016-11-27T11:54:15.000Z</time>
      </trkpt>
      <trkpt lat="46.03562" lon="4.5271">
        <ele>528</ele>
        <time>2016-11-27T11:54:16.000Z</time>
      </trkpt>
      <trkpt lat="46.03562" lon="4.5271">
        <ele>529</ele>
        <time>2016-11-27T11:54:17.000Z</time>
      </trkpt>
      <trkpt lat="46.03564" lon="4.5271">
        <ele>530</ele>
        <time>2016-11-27T11:54:18.000Z</time>
      </trkpt>
      <trkpt lat="46.03565" lon="4.52711">
        <ele>530</ele>
        <time>2016-11-27T11:54:19.000Z</time>
      </trkpt>
      <trkpt lat="46.03566" lon="4.52711">
        <ele>531</ele>
        <time>2016-11-27T11:54:20.000Z</time>
      </trkpt>
      <trkpt lat="46.03568" lon="4.52712">
        <ele>531</ele>
        <time>2016-11-27T11:54:21.000Z</time>
      </trkpt>
      <trkpt lat="46.03569" lon="4.52713">
        <ele>532</ele>
        <time>2016-11-27T11:54:22.000Z</time>
      </trkpt>
      <trkpt lat="46.03571" lon="4.52714">
        <ele>534</ele>
        <time>2016-11-27T11:54:23.000Z</time>
      </trkpt>
      <trkpt lat="46.03573" lon="4.52716">
        <ele>533</ele>
        <time>2016-11-27T11:54:24.000Z</time>
      </trkpt>
      <trkpt lat="46.03575" lon="4.52718">
        <ele>535</ele>
        <time>2016-11-27T11:54:25.000Z</time>
      </trkpt>
      <trkpt lat="46.03577" lon="4.52719">
        <ele>535</ele>
        <time>2016-11-27T11:54:26.000Z</time>
      </trkpt>
      <trkpt lat="46.03578" lon="4.5272">
        <ele>535</ele>
        <time>2016-11-27T11:54:27.000Z</time>
      </trkpt>
      <trkpt lat="46.03579" lon="4.52721">
        <ele>535</ele>
        <time>2016-11-27T11:54:28.000Z</time>
      </trkpt>
      <trkpt lat="46.0358" lon="4.52722">
        <ele>535</ele>
        <time>2016-11-27T11:54:29.000Z</time>
      </trkpt>
      <trkpt lat="46.03581" lon="4.52723">
        <ele>536</ele>
        <time>2016-11-27T11:54:30.000Z</time>
      </trkpt>
      <trkpt lat="46.03582" lon="4.52723">
        <ele>537</ele>
        <time>2016-11-27T11:54:31.000Z</time>
      </trkpt>
      <trkpt lat="46.03583" lon="4.52724">
        <ele>536</ele>
        <time>2016-11-27T11:54:32.000Z</time>
      </trkpt>
      <trkpt lat="46.03583" lon="4.52725">
        <ele>537</ele>
        <time>2016-11-27T11:54:33.000Z</time>
      </trkpt>
      <trkpt lat="46.03584" lon="4.52726">
        <ele>537</ele>
        <time>2016-11-27T11:54:34.000Z</time>
      </trkpt>
      <trkpt lat="46.03585" lon="4.52727">
        <ele>538</ele>
        <time>2016-11-27T11:54:35.000Z</time>
      </trkpt>
      <trkpt lat="46.03586" lon="4.52728">
        <ele>539</ele>
        <time>2016-11-27T11:54:36.000Z</time>
      </trkpt>
      <trkpt lat="46.03587" lon="4.52728">
        <ele>539</ele>
        <time>2016-11-27T11:54:37.000Z</time>
      </trkpt>
      <trkpt lat="46.03588" lon="4.5273">
        <ele>540</ele>
        <time>2016-11-27T11:54:38.000Z</time>
      </trkpt>
      <trkpt lat="46.03588" lon="4.52731">
        <ele>538</ele>
        <time>2016-11-27T11:54:39.000Z</time>
      </trkpt>
      <trkpt lat="46.03588" lon="4.52733">
        <ele>537</ele>
        <time>2016-11-27T11:54:40.000Z</time>
      </trkpt>
      <trkpt lat="46.03589" lon="4.52735">
        <ele>537</ele>
        <time>2016-11-27T11:54:41.000Z</time>
      </trkpt>
      <trkpt lat="46.03589" lon="4.52737">
        <ele>538</ele>
        <time>2016-11-27T11:54:42.000Z</time>
      </trkpt>
      <trkpt lat="46.0359" lon="4.52738">
        <ele>538</ele>
        <time>2016-11-27T11:54:43.000Z</time>
      </trkpt>
      <trkpt lat="46.03591" lon="4.5274">
        <ele>537</ele>
        <time>2016-11-27T11:54:44.000Z</time>
      </trkpt>
      <trkpt lat="46.03592" lon="4.52742">
        <ele>536</ele>
        <time>2016-11-27T11:54:45.000Z</time>
      </trkpt>
      <trkpt lat="46.03592" lon="4.52743">
        <ele>535</ele>
        <time>2016-11-27T11:54:46.000Z</time>
      </trkpt>
      <trkpt lat="46.03593" lon="4.52745">
        <ele>536</ele>
        <time>2016-11-27T11:54:47.000Z</time>
      </trkpt>
      <trkpt lat="46.03594" lon="4.52747">
        <ele>536</ele>
        <time>2016-11-27T11:54:48.000Z</time>
      </trkpt>
      <trkpt lat="46.03595" lon="4.52748">
        <ele>537</ele>
        <time>2016-11-27T11:54:49.000Z</time>
      </trkpt>
      <trkpt lat="46.03597" lon="4.5275">
        <ele>539</ele>
        <time>2016-11-27T11:54:50.000Z</time>
      </trkpt>
      <trkpt lat="46.03598" lon="4.52751">
        <ele>540</ele>
        <time>2016-11-27T11:54:51.000Z</time>
      </trkpt>
      <trkpt lat="46.03599" lon="4.52753">
        <ele>541</ele>
        <time>2016-11-27T11:54:52.000Z</time>
      </trkpt>
      <trkpt lat="46.036" lon="4.52754">
        <ele>541</ele>
        <time>2016-11-27T11:54:53.000Z</time>
      </trkpt>
      <trkpt lat="46.03601" lon="4.52755">
        <ele>541</ele>
        <time>2016-11-27T11:54:54.000Z</time>
      </trkpt>
      <trkpt lat="46.03602" lon="4.52756">
        <ele>541</ele>
        <time>2016-11-27T11:54:55.000Z</time>
      </trkpt>
      <trkpt lat="46.03603" lon="4.52758">
        <ele>542</ele>
        <time>2016-11-27T11:54:56.000Z</time>
      </trkpt>
      <trkpt lat="46.03604" lon="4.52759">
        <ele>542</ele>
        <time>2016-11-27T11:54:57.000Z</time>
      </trkpt>
      <trkpt lat="46.03605" lon="4.5276">
        <ele>542</ele>
        <time>2016-11-27T11:54:58.000Z</time>
      </trkpt>
      <trkpt lat="46.03606" lon="4.52761">
        <ele>542</ele>
        <time>2016-11-27T11:54:59.000Z</time>
      </trkpt>
      <trkpt lat="46.03607" lon="4.52763">
        <ele>543</ele>
        <time>2016-11-27T11:55:00.000Z</time>
      </trkpt>
      <trkpt lat="46.03608" lon="4.52764">
        <ele>543</ele>
        <time>2016-11-27T11:55:01.000Z</time>
      </trkpt>
      <trkpt lat="46.03609" lon="4.52765">
        <ele>543</ele>
        <time>2016-11-27T11:55:02.000Z</time>
      </trkpt>
      <trkpt lat="46.0361" lon="4.52766">
        <ele>542</ele>
        <time>2016-11-27T11:55:03.000Z</time>
      </trkpt>
      <trkpt lat="46.03611" lon="4.52767">
        <ele>543</ele>
        <time>2016-11-27T11:55:04.000Z</time>
      </trkpt>
      <trkpt lat="46.03613" lon="4.52769">
        <ele>543</ele>
        <time>2016-11-27T11:55:05.000Z</time>
      </trkpt>
      <trkpt lat="46.03614" lon="4.5277">
        <ele>543</ele>
        <time>2016-11-27T11:55:06.000Z</time>
      </trkpt>
      <trkpt lat="46.03615" lon="4.52771">
        <ele>543</ele>
        <time>2016-11-27T11:55:07.000Z</time>
      </trkpt>
      <trkpt lat="46.03616" lon="4.52772">
        <ele>542</ele>
        <time>2016-11-27T11:55:08.000Z</time>
      </trkpt>
      <trkpt lat="46.03617" lon="4.52773">
        <ele>543</ele>
        <time>2016-11-27T11:55:09.000Z</time>
      </trkpt>
      <trkpt lat="46.03618" lon="4.52774">
        <ele>543</ele>
        <time>2016-11-27T11:55:10.000Z</time>
      </trkpt>
      <trkpt lat="46.03619" lon="4.52775">
        <ele>543</ele>
        <time>2016-11-27T11:55:11.000Z</time>
      </trkpt>
      <trkpt lat="46.0362" lon="4.52776">
        <ele>544</ele>
        <time>2016-11-27T11:55:12.000Z</time>
      </trkpt>
      <trkpt lat="46.03621" lon="4.52778">
        <ele>543</ele>
        <time>2016-11-27T11:55:13.000Z</time>
      </trkpt>
      <trkpt lat="46.03622" lon="4.52779">
        <ele>539</ele>
        <time>2016-11-27T11:55:14.000Z</time>
      </trkpt>
      <trkpt lat="46.03624" lon="4.52781">
        <ele>535</ele>
        <time>2016-11-27T11:55:15.000Z</time>
      </trkpt>
      <trkpt lat="46.03626" lon="4.52783">
        <ele>534</ele>
        <time>2016-11-27T11:55:16.000Z</time>
      </trkpt>
      <trkpt lat="46.03627" lon="4.52785">
        <ele>534</ele>
        <time>2016-11-27T11:55:17.000Z</time>
      </trkpt>
      <trkpt lat="46.03628" lon="4.52786">
        <ele>534</ele>
        <time>2016-11-27T11:55:18.000Z</time>
      </trkpt>
      <trkpt lat="46.03628" lon="4.52787">
        <ele>534</ele>
        <time>2016-11-27T11:55:19.000Z</time>
      </trkpt>
      <trkpt lat="46.03629" lon="4.52789">
        <ele>534</ele>
        <time>2016-11-27T11:55:20.000Z</time>
      </trkpt>
      <trkpt lat="46.0363" lon="4.5279">
        <ele>533</ele>
        <time>2016-11-27T11:55:21.000Z</time>
      </trkpt>
      <trkpt lat="46.03631" lon="4.52791">
        <ele>533</ele>
        <time>2016-11-27T11:55:22.000Z</time>
      </trkpt>
      <trkpt lat="46.03632" lon="4.52793">
        <ele>533</ele>
        <time>2016-11-27T11:55:23.000Z</time>
      </trkpt>
      <trkpt lat="46.03633" lon="4.52794">
        <ele>533</ele>
        <time>2016-11-27T11:55:24.000Z</time>
      </trkpt>
      <trkpt lat="46.03634" lon="4.52794">
        <ele>533</ele>
        <time>2016-11-27T11:55:25.000Z</time>
      </trkpt>
      <trkpt lat="46.03635" lon="4.52795">
        <ele>534</ele>
        <time>2016-11-27T11:55:26.000Z</time>
      </trkpt>
      <trkpt lat="46.03636" lon="4.52796">
        <ele>534</ele>
        <time>2016-11-27T11:55:27.000Z</time>
      </trkpt>
      <trkpt lat="46.03637" lon="4.52797">
        <ele>534</ele>
        <time>2016-11-27T11:55:28.000Z</time>
      </trkpt>
      <trkpt lat="46.03638" lon="4.52798">
        <ele>534</ele>
        <time>2016-11-27T11:55:29.000Z</time>
      </trkpt>
      <trkpt lat="46.03639" lon="4.52798">
        <ele>534</ele>
        <time>2016-11-27T11:55:30.000Z</time>
      </trkpt>
      <trkpt lat="46.0364" lon="4.52799">
        <ele>534</ele>
        <time>2016-11-27T11:55:31.000Z</time>
      </trkpt>
      <trkpt lat="46.03641" lon="4.528">
        <ele>533</ele>
        <time>2016-11-27T11:55:32.000Z</time>
      </trkpt>
      <trkpt lat="46.03642" lon="4.528">
        <ele>533</ele>
        <time>2016-11-27T11:55:33.000Z</time>
      </trkpt>
      <trkpt lat="46.03643" lon="4.52802">
        <ele>533</ele>
        <time>2016-11-27T11:55:34.000Z</time>
      </trkpt>
      <trkpt lat="46.03644" lon="4.52803">
        <ele>533</ele>
        <time>2016-11-27T11:55:35.000Z</time>
      </trkpt>
      <trkpt lat="46.03645" lon="4.52804">
        <ele>533</ele>
        <time>2016-11-27T11:55:36.000Z</time>
      </trkpt>
      <trkpt lat="46.03646" lon="4.52805">
        <ele>534</ele>
        <time>2016-11-27T11:55:37.000Z</time>
      </trkpt>
      <trkpt lat="46.03647" lon="4.52806">
        <ele>535</ele>
        <time>2016-11-27T11:55:38.000Z</time>
      </trkpt>
      <trkpt lat="46.03647" lon="4.52807">
        <ele>535</ele>
        <time>2016-11-27T11:55:39.000Z</time>
      </trkpt>
      <trkpt lat="46.03648" lon="4.52808">
        <ele>535</ele>
        <time>2016-11-27T11:55:40.000Z</time>
      </trkpt>
      <trkpt lat="46.03649" lon="4.52809">
        <ele>533</ele>
        <time>2016-11-27T11:55:41.000Z</time>
      </trkpt>
      <trkpt lat="46.0365" lon="4.5281">
        <ele>534</ele>
        <time>2016-11-27T11:55:42.000Z</time>
      </trkpt>
      <trkpt lat="46.03651" lon="4.52812">
        <ele>534</ele>
        <time>2016-11-27T11:55:43.000Z</time>
      </trkpt>
      <trkpt lat="46.03651" lon="4.52813">
        <ele>535</ele>
        <time>2016-11-27T11:55:44.000Z</time>
      </trkpt>
      <trkpt lat="46.03652" lon="4.52814">
        <ele>535</ele>
        <time>2016-11-27T11:55:45.000Z</time>
      </trkpt>
      <trkpt lat="46.03653" lon="4.52815">
        <ele>535</ele>
        <time>2016-11-27T11:55:46.000Z</time>
      </trkpt>
      <trkpt lat="46.03653" lon="4.52817">
        <ele>535</ele>
        <time>2016-11-27T11:55:47.000Z</time>
      </trkpt>
      <trkpt lat="46.03654" lon="4.52818">
        <ele>534</ele>
        <time>2016-11-27T11:55:48.000Z</time>
      </trkpt>
      <trkpt lat="46.03655" lon="4.52819">
        <ele>533</ele>
        <time>2016-11-27T11:55:49.000Z</time>
      </trkpt>
      <trkpt lat="46.03656" lon="4.5282">
        <ele>531</ele>
        <time>2016-11-27T11:55:50.000Z</time>
      </trkpt>
      <trkpt lat="46.03657" lon="4.52822">
        <ele>531</ele>
        <time>2016-11-27T11:55:51.000Z</time>
      </trkpt>
      <trkpt lat="46.03658" lon="4.52823">
        <ele>530</ele>
        <time>2016-11-27T11:55:52.000Z</time>
      </trkpt>
      <trkpt lat="46.03659" lon="4.52824">
        <ele>530</ele>
        <time>2016-11-27T11:55:53.000Z</time>
      </trkpt>
      <trkpt lat="46.0366" lon="4.52825">
        <ele>530</ele>
        <time>2016-11-27T11:55:54.000Z</time>
      </trkpt>
      <trkpt lat="46.03661" lon="4.52826">
        <ele>531</ele>
        <time>2016-11-27T11:55:55.000Z</time>
      </trkpt>
      <trkpt lat="46.03662" lon="4.52827">
        <ele>532</ele>
        <time>2016-11-27T11:55:56.000Z</time>
      </trkpt>
      <trkpt lat="46.03662" lon="4.52828">
        <ele>532</ele>
        <time>2016-11-27T11:55:57.000Z</time>
      </trkpt>
      <trkpt lat="46.03663" lon="4.52828">
        <ele>532</ele>
        <time>2016-11-27T11:55:58.000Z</time>
      </trkpt>
      <trkpt lat="46.03664" lon="4.52829">
        <ele>532</ele>
        <time>2016-11-27T11:55:59.000Z</time>
      </trkpt>
      <trkpt lat="46.03665" lon="4.5283">
        <ele>532</ele>
        <time>2016-11-27T11:56:00.000Z</time>
      </trkpt>
      <trkpt lat="46.03666" lon="4.52831">
        <ele>531</ele>
        <time>2016-11-27T11:56:01.000Z</time>
      </trkpt>
      <trkpt lat="46.03667" lon="4.52832">
        <ele>531</ele>
        <time>2016-11-27T11:56:02.000Z</time>
      </trkpt>
      <trkpt lat="46.03668" lon="4.52833">
        <ele>531</ele>
        <time>2016-11-27T11:56:03.000Z</time>
      </trkpt>
      <trkpt lat="46.03669" lon="4.52834">
        <ele>531</ele>
        <time>2016-11-27T11:56:04.000Z</time>
      </trkpt>
      <trkpt lat="46.03669" lon="4.52835">
        <ele>531</ele>
        <time>2016-11-27T11:56:05.000Z</time>
      </trkpt>
      <trkpt lat="46.0367" lon="4.52835">
        <ele>531</ele>
        <time>2016-11-27T11:56:06.000Z</time>
      </trkpt>
      <trkpt lat="46.03671" lon="4.52836">
        <ele>531</ele>
        <time>2016-11-27T11:56:07.000Z</time>
      </trkpt>
      <trkpt lat="46.03672" lon="4.52837">
        <ele>532</ele>
        <time>2016-11-27T11:56:08.000Z</time>
      </trkpt>
      <trkpt lat="46.03673" lon="4.52838">
        <ele>532</ele>
        <time>2016-11-27T11:56:09.000Z</time>
      </trkpt>
      <trkpt lat="46.03674" lon="4.52839">
        <ele>533</ele>
        <time>2016-11-27T11:56:10.000Z</time>
      </trkpt>
      <trkpt lat="46.03675" lon="4.52839">
        <ele>533</ele>
        <time>2016-11-27T11:56:11.000Z</time>
      </trkpt>
      <trkpt lat="46.03676" lon="4.5284">
        <ele>533</ele>
        <time>2016-11-27T11:56:12.000Z</time>
      </trkpt>
      <trkpt lat="46.03676" lon="4.52841">
        <ele>532</ele>
        <time>2016-11-27T11:56:13.000Z</time>
      </trkpt>
      <trkpt lat="46.03677" lon="4.52842">
        <ele>532</ele>
        <time>2016-11-27T11:56:14.000Z</time>
      </trkpt>
      <trkpt lat="46.03678" lon="4.52843">
        <ele>532</ele>
        <time>2016-11-27T11:56:15.000Z</time>
      </trkpt>
      <trkpt lat="46.03679" lon="4.52844">
        <ele>532</ele>
        <time>2016-11-27T11:56:16.000Z</time>
      </trkpt>
      <trkpt lat="46.03679" lon="4.52845">
        <ele>533</ele>
        <time>2016-11-27T11:56:17.000Z</time>
      </trkpt>
      <trkpt lat="46.0368" lon="4.52846">
        <ele>533</ele>
        <time>2016-11-27T11:56:18.000Z</time>
      </trkpt>
      <trkpt lat="46.03681" lon="4.52848">
        <ele>533</ele>
        <time>2016-11-27T11:56:19.000Z</time>
      </trkpt>
      <trkpt lat="46.03683" lon="4.52849">
        <ele>533</ele>
        <time>2016-11-27T11:56:20.000Z</time>
      </trkpt>
      <trkpt lat="46.03684" lon="4.5285">
        <ele>534</ele>
        <time>2016-11-27T11:56:21.000Z</time>
      </trkpt>
      <trkpt lat="46.03685" lon="4.5285">
        <ele>533</ele>
        <time>2016-11-27T11:56:22.000Z</time>
      </trkpt>
      <trkpt lat="46.03685" lon="4.52851">
        <ele>534</ele>
        <time>2016-11-27T11:56:23.000Z</time>
      </trkpt>
      <trkpt lat="46.03686" lon="4.52852">
        <ele>534</ele>
        <time>2016-11-27T11:56:24.000Z</time>
      </trkpt>
      <trkpt lat="46.03687" lon="4.52853">
        <ele>534</ele>
        <time>2016-11-27T11:56:25.000Z</time>
      </trkpt>
      <trkpt lat="46.03687" lon="4.52853">
        <ele>535</ele>
        <time>2016-11-27T11:56:26.000Z</time>
      </trkpt>
      <trkpt lat="46.03688" lon="4.52854">
        <ele>535</ele>
        <time>2016-11-27T11:56:27.000Z</time>
      </trkpt>
      <trkpt lat="46.03689" lon="4.52855">
        <ele>536</ele>
        <time>2016-11-27T11:56:28.000Z</time>
      </trkpt>
      <trkpt lat="46.0369" lon="4.52855">
        <ele>536</ele>
        <time>2016-11-27T11:56:29.000Z</time>
      </trkpt>
      <trkpt lat="46.03691" lon="4.52856">
        <ele>537</ele>
        <time>2016-11-27T11:56:30.000Z</time>
      </trkpt>
      <trkpt lat="46.03691" lon="4.52857">
        <ele>537</ele>
        <time>2016-11-27T11:56:31.000Z</time>
      </trkpt>
      <trkpt lat="46.03692" lon="4.52858">
        <ele>537</ele>
        <time>2016-11-27T11:56:32.000Z</time>
      </trkpt>
      <trkpt lat="46.03692" lon="4.52859">
        <ele>538</ele>
        <time>2016-11-27T11:56:33.000Z</time>
      </trkpt>
      <trkpt lat="46.03693" lon="4.5286">
        <ele>539</ele>
        <time>2016-11-27T11:56:34.000Z</time>
      </trkpt>
      <trkpt lat="46.03694" lon="4.52861">
        <ele>539</ele>
        <time>2016-11-27T11:56:35.000Z</time>
      </trkpt>
      <trkpt lat="46.03694" lon="4.52862">
        <ele>540</ele>
        <time>2016-11-27T11:56:36.000Z</time>
      </trkpt>
      <trkpt lat="46.03695" lon="4.52863">
        <ele>541</ele>
        <time>2016-11-27T11:56:37.000Z</time>
      </trkpt>
      <trkpt lat="46.03696" lon="4.52863">
        <ele>541</ele>
        <time>2016-11-27T11:56:38.000Z</time>
      </trkpt>
      <trkpt lat="46.03697" lon="4.52864">
        <ele>542</ele>
        <time>2016-11-27T11:56:39.000Z</time>
      </trkpt>
      <trkpt lat="46.03697" lon="4.52865">
        <ele>542</ele>
        <time>2016-11-27T11:56:40.000Z</time>
      </trkpt>
      <trkpt lat="46.03698" lon="4.52866">
        <ele>543</ele>
        <time>2016-11-27T11:56:41.000Z</time>
      </trkpt>
      <trkpt lat="46.03699" lon="4.52867">
        <ele>543</ele>
        <time>2016-11-27T11:56:42.000Z</time>
      </trkpt>
      <trkpt lat="46.037" lon="4.52868">
        <ele>543</ele>
        <time>2016-11-27T11:56:43.000Z</time>
      </trkpt>
      <trkpt lat="46.03701" lon="4.52869">
        <ele>544</ele>
        <time>2016-11-27T11:56:44.000Z</time>
      </trkpt>
      <trkpt lat="46.03702" lon="4.5287">
        <ele>544</ele>
        <time>2016-11-27T11:56:45.000Z</time>
      </trkpt>
      <trkpt lat="46.03703" lon="4.52871">
        <ele>545</ele>
        <time>2016-11-27T11:56:46.000Z</time>
      </trkpt>
      <trkpt lat="46.03704" lon="4.52872">
        <ele>546</ele>
        <time>2016-11-27T11:56:47.000Z</time>
      </trkpt>
      <trkpt lat="46.03704" lon="4.52873">
        <ele>546</ele>
        <time>2016-11-27T11:56:48.000Z</time>
      </trkpt>
      <trkpt lat="46.03705" lon="4.52874">
        <ele>547</ele>
        <time>2016-11-27T11:56:49.000Z</time>
      </trkpt>
      <trkpt lat="46.03706" lon="4.52875">
        <ele>547</ele>
        <time>2016-11-27T11:56:50.000Z</time>
      </trkpt>
      <trkpt lat="46.03707" lon="4.52877">
        <ele>548</ele>
        <time>2016-11-27T11:56:51.000Z</time>
      </trkpt>
      <trkpt lat="46.03707" lon="4.52878">
        <ele>549</ele>
        <time>2016-11-27T11:56:52.000Z</time>
      </trkpt>
      <trkpt lat="46.03708" lon="4.52879">
        <ele>549</ele>
        <time>2016-11-27T11:56:53.000Z</time>
      </trkpt>
      <trkpt lat="46.03709" lon="4.5288">
        <ele>551</ele>
        <time>2016-11-27T11:56:54.000Z</time>
      </trkpt>
      <trkpt lat="46.0371" lon="4.52882">
        <ele>552</ele>
        <time>2016-11-27T11:56:55.000Z</time>
      </trkpt>
      <trkpt lat="46.03711" lon="4.52884">
        <ele>552</ele>
        <time>2016-11-27T11:56:56.000Z</time>
      </trkpt>
      <trkpt lat="46.03712" lon="4.52886">
        <ele>552</ele>
        <time>2016-11-27T11:56:57.000Z</time>
      </trkpt>
      <trkpt lat="46.03713" lon="4.52887">
        <ele>554</ele>
        <time>2016-11-27T11:56:58.000Z</time>
      </trkpt>
      <trkpt lat="46.03714" lon="4.52889">
        <ele>556</ele>
        <time>2016-11-27T11:56:59.000Z</time>
      </trkpt>
      <trkpt lat="46.03715" lon="4.5289">
        <ele>557</ele>
        <time>2016-11-27T11:57:00.000Z</time>
      </trkpt>
      <trkpt lat="46.03716" lon="4.52891">
        <ele>559</ele>
        <time>2016-11-27T11:57:01.000Z</time>
      </trkpt>
      <trkpt lat="46.03717" lon="4.52892">
        <ele>558</ele>
        <time>2016-11-27T11:57:02.000Z</time>
      </trkpt>
      <trkpt lat="46.03718" lon="4.52893">
        <ele>558</ele>
        <time>2016-11-27T11:57:03.000Z</time>
      </trkpt>
      <trkpt lat="46.03719" lon="4.52894">
        <ele>559</ele>
        <time>2016-11-27T11:57:04.000Z</time>
      </trkpt>
      <trkpt lat="46.03719" lon="4.52895">
        <ele>560</ele>
        <time>2016-11-27T11:57:05.000Z</time>
      </trkpt>
      <trkpt lat="46.0372" lon="4.52897">
        <ele>562</ele>
        <time>2016-11-27T11:57:06.000Z</time>
      </trkpt>
      <trkpt lat="46.03721" lon="4.52898">
        <ele>562</ele>
        <time>2016-11-27T11:57:07.000Z</time>
      </trkpt>
      <trkpt lat="46.03722" lon="4.529">
        <ele>564</ele>
        <time>2016-11-27T11:57:08.000Z</time>
      </trkpt>
      <trkpt lat="46.03722" lon="4.52901">
        <ele>565</ele>
        <time>2016-11-27T11:57:09.000Z</time>
      </trkpt>
      <trkpt lat="46.03723" lon="4.52902">
        <ele>566</ele>
        <time>2016-11-27T11:57:10.000Z</time>
      </trkpt>
      <trkpt lat="46.03724" lon="4.52904">
        <ele>567</ele>
        <time>2016-11-27T11:57:11.000Z</time>
      </trkpt>
      <trkpt lat="46.03724" lon="4.52905">
        <ele>568</ele>
        <time>2016-11-27T11:57:12.000Z</time>
      </trkpt>
      <trkpt lat="46.03724" lon="4.52906">
        <ele>570</ele>
        <time>2016-11-27T11:57:13.000Z</time>
      </trkpt>
      <trkpt lat="46.03724" lon="4.52907">
        <ele>571</ele>
        <time>2016-11-27T11:57:14.000Z</time>
      </trkpt>
      <trkpt lat="46.03724" lon="4.52909">
        <ele>571</ele>
        <time>2016-11-27T11:57:15.000Z</time>
      </trkpt>
      <trkpt lat="46.03725" lon="4.52911">
        <ele>572</ele>
        <time>2016-11-27T11:57:16.000Z</time>
      </trkpt>
      <trkpt lat="46.03725" lon="4.52912">
        <ele>574</ele>
        <time>2016-11-27T11:57:17.000Z</time>
      </trkpt>
      <trkpt lat="46.03725" lon="4.52913">
        <ele>574</ele>
        <time>2016-11-27T11:57:18.000Z</time>
      </trkpt>
      <trkpt lat="46.03726" lon="4.52915">
        <ele>574</ele>
        <time>2016-11-27T11:57:19.000Z</time>
      </trkpt>
      <trkpt lat="46.03726" lon="4.52916">
        <ele>575</ele>
        <time>2016-11-27T11:57:20.000Z</time>
      </trkpt>
      <trkpt lat="46.03727" lon="4.52918">
        <ele>575</ele>
        <time>2016-11-27T11:57:21.000Z</time>
      </trkpt>
      <trkpt lat="46.03727" lon="4.52919">
        <ele>575</ele>
        <time>2016-11-27T11:57:22.000Z</time>
      </trkpt>
      <trkpt lat="46.03729" lon="4.52921">
        <ele>571</ele>
        <time>2016-11-27T11:57:23.000Z</time>
      </trkpt>
      <trkpt lat="46.0373" lon="4.52923">
        <ele>571</ele>
        <time>2016-11-27T11:57:24.000Z</time>
      </trkpt>
      <trkpt lat="46.03731" lon="4.52925">
        <ele>572</ele>
        <time>2016-11-27T11:57:25.000Z</time>
      </trkpt>
      <trkpt lat="46.03731" lon="4.52927">
        <ele>573</ele>
        <time>2016-11-27T11:57:26.000Z</time>
      </trkpt>
      <trkpt lat="46.03732" lon="4.52928">
        <ele>574</ele>
        <time>2016-11-27T11:57:27.000Z</time>
      </trkpt>
      <trkpt lat="46.03732" lon="4.5293">
        <ele>575</ele>
        <time>2016-11-27T11:57:28.000Z</time>
      </trkpt>
      <trkpt lat="46.03733" lon="4.52931">
        <ele>575</ele>
        <time>2016-11-27T11:57:29.000Z</time>
      </trkpt>
      <trkpt lat="46.03733" lon="4.52932">
        <ele>575</ele>
        <time>2016-11-27T11:57:30.000Z</time>
      </trkpt>
      <trkpt lat="46.03734" lon="4.52934">
        <ele>575</ele>
        <time>2016-11-27T11:57:31.000Z</time>
      </trkpt>
      <trkpt lat="46.03735" lon="4.52935">
        <ele>574</ele>
        <time>2016-11-27T11:57:32.000Z</time>
      </trkpt>
      <trkpt lat="46.03736" lon="4.52937">
        <ele>574</ele>
        <time>2016-11-27T11:57:33.000Z</time>
      </trkpt>
      <trkpt lat="46.03736" lon="4.52939">
        <ele>575</ele>
        <time>2016-11-27T11:57:34.000Z</time>
      </trkpt>
      <trkpt lat="46.03737" lon="4.52941">
        <ele>574</ele>
        <time>2016-11-27T11:57:35.000Z</time>
      </trkpt>
      <trkpt lat="46.03737" lon="4.52943">
        <ele>573</ele>
        <time>2016-11-27T11:57:36.000Z</time>
      </trkpt>
      <trkpt lat="46.03738" lon="4.52945">
        <ele>572</ele>
        <time>2016-11-27T11:57:37.000Z</time>
      </trkpt>
      <trkpt lat="46.03739" lon="4.52948">
        <ele>570</ele>
        <time>2016-11-27T11:57:38.000Z</time>
      </trkpt>
      <trkpt lat="46.0374" lon="4.52951">
        <ele>571</ele>
        <time>2016-11-27T11:57:39.000Z</time>
      </trkpt>
      <trkpt lat="46.03741" lon="4.52954">
        <ele>571</ele>
        <time>2016-11-27T11:57:40.000Z</time>
      </trkpt>
      <trkpt lat="46.03742" lon="4.52956">
        <ele>573</ele>
        <time>2016-11-27T11:57:41.000Z</time>
      </trkpt>
      <trkpt lat="46.03743" lon="4.52959">
        <ele>573</ele>
        <time>2016-11-27T11:57:42.000Z</time>
      </trkpt>
      <trkpt lat="46.03743" lon="4.52961">
        <ele>574</ele>
        <time>2016-11-27T11:57:43.000Z</time>
      </trkpt>
      <trkpt lat="46.03745" lon="4.52963">
        <ele>574</ele>
        <time>2016-11-27T11:57:44.000Z</time>
      </trkpt>
      <trkpt lat="46.03746" lon="4.52964">
        <ele>574</ele>
        <time>2016-11-27T11:57:45.000Z</time>
      </trkpt>
      <trkpt lat="46.03747" lon="4.52965">
        <ele>573</ele>
        <time>2016-11-27T11:57:46.000Z</time>
      </trkpt>
      <trkpt lat="46.03749" lon="4.52965">
        <ele>568</ele>
        <time>2016-11-27T11:57:47.000Z</time>
      </trkpt>
      <trkpt lat="46.0375" lon="4.52966">
        <ele>567</ele>
        <time>2016-11-27T11:57:48.000Z</time>
      </trkpt>
      <trkpt lat="46.03751" lon="4.52966">
        <ele>567</ele>
        <time>2016-11-27T11:57:49.000Z</time>
      </trkpt>
      <trkpt lat="46.03752" lon="4.52965">
        <ele>566</ele>
        <time>2016-11-27T11:57:50.000Z</time>
      </trkpt>
      <trkpt lat="46.03753" lon="4.52965">
        <ele>566</ele>
        <time>2016-11-27T11:57:51.000Z</time>
      </trkpt>
      <trkpt lat="46.03753" lon="4.52964">
        <ele>565</ele>
        <time>2016-11-27T11:57:52.000Z</time>
      </trkpt>
      <trkpt lat="46.03754" lon="4.52963">
        <ele>564</ele>
        <time>2016-11-27T11:57:53.000Z</time>
      </trkpt>
      <trkpt lat="46.03754" lon="4.52963">
        <ele>563</ele>
        <time>2016-11-27T11:57:54.000Z</time>
      </trkpt>
      <trkpt lat="46.03755" lon="4.52962">
        <ele>563</ele>
        <time>2016-11-27T11:57:55.000Z</time>
      </trkpt>
      <trkpt lat="46.03756" lon="4.52961">
        <ele>561</ele>
        <time>2016-11-27T11:57:56.000Z</time>
      </trkpt>
      <trkpt lat="46.03756" lon="4.5296">
        <ele>560</ele>
        <time>2016-11-27T11:57:57.000Z</time>
      </trkpt>
      <trkpt lat="46.03757" lon="4.52959">
        <ele>560</ele>
        <time>2016-11-27T11:57:58.000Z</time>
      </trkpt>
      <trkpt lat="46.03757" lon="4.52958">
        <ele>561</ele>
        <time>2016-11-27T11:57:59.000Z</time>
      </trkpt>
      <trkpt lat="46.03757" lon="4.52956">
        <ele>561</ele>
        <time>2016-11-27T11:58:00.000Z</time>
      </trkpt>
      <trkpt lat="46.03758" lon="4.52954">
        <ele>560</ele>
        <time>2016-11-27T11:58:01.000Z</time>
      </trkpt>
      <trkpt lat="46.03758" lon="4.52953">
        <ele>561</ele>
        <time>2016-11-27T11:58:02.000Z</time>
      </trkpt>
      <trkpt lat="46.03758" lon="4.52951">
        <ele>561</ele>
        <time>2016-11-27T11:58:03.000Z</time>
      </trkpt>
      <trkpt lat="46.03759" lon="4.5295">
        <ele>559</ele>
        <time>2016-11-27T11:58:04.000Z</time>
      </trkpt>
      <trkpt lat="46.0376" lon="4.52949">
        <ele>558</ele>
        <time>2016-11-27T11:58:05.000Z</time>
      </trkpt>
      <trkpt lat="46.0376" lon="4.52948">
        <ele>559</ele>
        <time>2016-11-27T11:58:06.000Z</time>
      </trkpt>
      <trkpt lat="46.0376" lon="4.52946">
        <ele>558</ele>
        <time>2016-11-27T11:58:07.000Z</time>
      </trkpt>
      <trkpt lat="46.0376" lon="4.52945">
        <ele>559</ele>
        <time>2016-11-27T11:58:08.000Z</time>
      </trkpt>
      <trkpt lat="46.0376" lon="4.52943">
        <ele>559</ele>
        <time>2016-11-27T11:58:09.000Z</time>
      </trkpt>
      <trkpt lat="46.0376" lon="4.52942">
        <ele>558</ele>
        <time>2016-11-27T11:58:10.000Z</time>
      </trkpt>
      <trkpt lat="46.0376" lon="4.52941">
        <ele>559</ele>
        <time>2016-11-27T11:58:11.000Z</time>
      </trkpt>
      <trkpt lat="46.0376" lon="4.52939">
        <ele>559</ele>
        <time>2016-11-27T11:58:12.000Z</time>
      </trkpt>
      <trkpt lat="46.0376" lon="4.52938">
        <ele>559</ele>
        <time>2016-11-27T11:58:13.000Z</time>
      </trkpt>
      <trkpt lat="46.0376" lon="4.52937">
        <ele>558</ele>
        <time>2016-11-27T11:58:14.000Z</time>
      </trkpt>
      <trkpt lat="46.0376" lon="4.52935">
        <ele>557</ele>
        <time>2016-11-27T11:58:15.000Z</time>
      </trkpt>
      <trkpt lat="46.0376" lon="4.52934">
        <ele>558</ele>
        <time>2016-11-27T11:58:16.000Z</time>
      </trkpt>
      <trkpt lat="46.0376" lon="4.52933">
        <ele>558</ele>
        <time>2016-11-27T11:58:17.000Z</time>
      </trkpt>
      <trkpt lat="46.0376" lon="4.52931">
        <ele>558</ele>
        <time>2016-11-27T11:58:18.000Z</time>
      </trkpt>
      <trkpt lat="46.03759" lon="4.5293">
        <ele>558</ele>
        <time>2016-11-27T11:58:19.000Z</time>
      </trkpt>
      <trkpt lat="46.03759" lon="4.52929">
        <ele>558</ele>
        <time>2016-11-27T11:58:20.000Z</time>
      </trkpt>
      <trkpt lat="46.03759" lon="4.52928">
        <ele>558</ele>
        <time>2016-11-27T11:58:21.000Z</time>
      </trkpt>
      <trkpt lat="46.03758" lon="4.52926">
        <ele>559</ele>
        <time>2016-11-27T11:58:22.000Z</time>
      </trkpt>
      <trkpt lat="46.03758" lon="4.52925">
        <ele>559</ele>
        <time>2016-11-27T11:58:23.000Z</time>
      </trkpt>
      <trkpt lat="46.03758" lon="4.52923">
        <ele>559</ele>
        <time>2016-11-27T11:58:24.000Z</time>
      </trkpt>
      <trkpt lat="46.03758" lon="4.52922">
        <ele>559</ele>
        <time>2016-11-27T11:58:25.000Z</time>
      </trkpt>
      <trkpt lat="46.03758" lon="4.5292">
        <ele>558</ele>
        <time>2016-11-27T11:58:26.000Z</time>
      </trkpt>
      <trkpt lat="46.03758" lon="4.52919">
        <ele>559</ele>
        <time>2016-11-27T11:58:27.000Z</time>
      </trkpt>
      <trkpt lat="46.03758" lon="4.52917">
        <ele>560</ele>
        <time>2016-11-27T11:58:28.000Z</time>
      </trkpt>
      <trkpt lat="46.03758" lon="4.52916">
        <ele>559</ele>
        <time>2016-11-27T11:58:29.000Z</time>
      </trkpt>
      <trkpt lat="46.03757" lon="4.52915">
        <ele>560</ele>
        <time>2016-11-27T11:58:30.000Z</time>
      </trkpt>
      <trkpt lat="46.03757" lon="4.52913">
        <ele>559</ele>
        <time>2016-11-27T11:58:31.000Z</time>
      </trkpt>
      <trkpt lat="46.03757" lon="4.52912">
        <ele>560</ele>
        <time>2016-11-27T11:58:32.000Z</time>
      </trkpt>
      <trkpt lat="46.03756" lon="4.5291">
        <ele>560</ele>
        <time>2016-11-27T11:58:33.000Z</time>
      </trkpt>
      <trkpt lat="46.03756" lon="4.52908">
        <ele>560</ele>
        <time>2016-11-27T11:58:34.000Z</time>
      </trkpt>
      <trkpt lat="46.03755" lon="4.52906">
        <ele>560</ele>
        <time>2016-11-27T11:58:35.000Z</time>
      </trkpt>
      <trkpt lat="46.03755" lon="4.52905">
        <ele>560</ele>
        <time>2016-11-27T11:58:36.000Z</time>
      </trkpt>
      <trkpt lat="46.03755" lon="4.52903">
        <ele>560</ele>
        <time>2016-11-27T11:58:37.000Z</time>
      </trkpt>
      <trkpt lat="46.03754" lon="4.52902">
        <ele>561</ele>
        <time>2016-11-27T11:58:38.000Z</time>
      </trkpt>
      <trkpt lat="46.03754" lon="4.529">
        <ele>561</ele>
        <time>2016-11-27T11:58:39.000Z</time>
      </trkpt>
      <trkpt lat="46.03753" lon="4.52899">
        <ele>561</ele>
        <time>2016-11-27T11:58:40.000Z</time>
      </trkpt>
      <trkpt lat="46.03753" lon="4.52897">
        <ele>562</ele>
        <time>2016-11-27T11:58:41.000Z</time>
      </trkpt>
      <trkpt lat="46.03753" lon="4.52896">
        <ele>562</ele>
        <time>2016-11-27T11:58:42.000Z</time>
      </trkpt>
      <trkpt lat="46.03752" lon="4.52894">
        <ele>562</ele>
        <time>2016-11-27T11:58:43.000Z</time>
      </trkpt>
      <trkpt lat="46.03751" lon="4.52892">
        <ele>562</ele>
        <time>2016-11-27T11:58:44.000Z</time>
      </trkpt>
      <trkpt lat="46.03751" lon="4.52891">
        <ele>562</ele>
        <time>2016-11-27T11:58:45.000Z</time>
      </trkpt>
      <trkpt lat="46.0375" lon="4.52889">
        <ele>562</ele>
        <time>2016-11-27T11:58:46.000Z</time>
      </trkpt>
      <trkpt lat="46.0375" lon="4.52888">
        <ele>562</ele>
        <time>2016-11-27T11:58:47.000Z</time>
      </trkpt>
      <trkpt lat="46.0375" lon="4.52886">
        <ele>563</ele>
        <time>2016-11-27T11:58:48.000Z</time>
      </trkpt>
      <trkpt lat="46.03749" lon="4.52884">
        <ele>563</ele>
        <time>2016-11-27T11:58:49.000Z</time>
      </trkpt>
      <trkpt lat="46.03749" lon="4.52882">
        <ele>564</ele>
        <time>2016-11-27T11:58:50.000Z</time>
      </trkpt>
      <trkpt lat="46.03748" lon="4.52881">
        <ele>564</ele>
        <time>2016-11-27T11:58:51.000Z</time>
      </trkpt>
      <trkpt lat="46.03748" lon="4.52879">
        <ele>565</ele>
        <time>2016-11-27T11:58:52.000Z</time>
      </trkpt>
      <trkpt lat="46.03747" lon="4.52877">
        <ele>565</ele>
        <time>2016-11-27T11:58:53.000Z</time>
      </trkpt>
      <trkpt lat="46.03747" lon="4.52875">
        <ele>566</ele>
        <time>2016-11-27T11:58:54.000Z</time>
      </trkpt>
      <trkpt lat="46.03747" lon="4.52874">
        <ele>566</ele>
        <time>2016-11-27T11:58:55.000Z</time>
      </trkpt>
      <trkpt lat="46.03746" lon="4.52872">
        <ele>566</ele>
        <time>2016-11-27T11:58:56.000Z</time>
      </trkpt>
      <trkpt lat="46.03746" lon="4.5287">
        <ele>566</ele>
        <time>2016-11-27T11:58:57.000Z</time>
      </trkpt>
      <trkpt lat="46.03746" lon="4.52868">
        <ele>566</ele>
        <time>2016-11-27T11:58:58.000Z</time>
      </trkpt>
      <trkpt lat="46.03746" lon="4.52867">
        <ele>566</ele>
        <time>2016-11-27T11:58:59.000Z</time>
      </trkpt>
      <trkpt lat="46.03746" lon="4.52865">
        <ele>567</ele>
        <time>2016-11-27T11:59:00.000Z</time>
      </trkpt>
      <trkpt lat="46.03745" lon="4.52864">
        <ele>567</ele>
        <time>2016-11-27T11:59:01.000Z</time>
      </trkpt>
      <trkpt lat="46.03745" lon="4.52862">
        <ele>568</ele>
        <time>2016-11-27T11:59:02.000Z</time>
      </trkpt>
      <trkpt lat="46.03745" lon="4.52861">
        <ele>567</ele>
        <time>2016-11-27T11:59:03.000Z</time>
      </trkpt>
      <trkpt lat="46.03745" lon="4.52859">
        <ele>566</ele>
        <time>2016-11-27T11:59:04.000Z</time>
      </trkpt>
      <trkpt lat="46.03745" lon="4.52857">
        <ele>565</ele>
        <time>2016-11-27T11:59:05.000Z</time>
      </trkpt>
      <trkpt lat="46.03745" lon="4.52856">
        <ele>566</ele>
        <time>2016-11-27T11:59:06.000Z</time>
      </trkpt>
      <trkpt lat="46.03745" lon="4.52854">
        <ele>565</ele>
        <time>2016-11-27T11:59:07.000Z</time>
      </trkpt>
      <trkpt lat="46.03744" lon="4.52853">
        <ele>566</ele>
        <time>2016-11-27T11:59:08.000Z</time>
      </trkpt>
      <trkpt lat="46.03744" lon="4.52851">
        <ele>565</ele>
        <time>2016-11-27T11:59:09.000Z</time>
      </trkpt>
      <trkpt lat="46.03744" lon="4.52849">
        <ele>565</ele>
        <time>2016-11-27T11:59:10.000Z</time>
      </trkpt>
      <trkpt lat="46.03744" lon="4.52848">
        <ele>566</ele>
        <time>2016-11-27T11:59:11.000Z</time>
      </trkpt>
      <trkpt lat="46.03744" lon="4.52846">
        <ele>565</ele>
        <time>2016-11-27T11:59:12.000Z</time>
      </trkpt>
      <trkpt lat="46.03744" lon="4.52845">
        <ele>565</ele>
        <time>2016-11-27T11:59:13.000Z</time>
      </trkpt>
      <trkpt lat="46.03744" lon="4.52843">
        <ele>565</ele>
        <time>2016-11-27T11:59:14.000Z</time>
      </trkpt>
      <trkpt lat="46.03744" lon="4.52842">
        <ele>565</ele>
        <time>2016-11-27T11:59:15.000Z</time>
      </trkpt>
      <trkpt lat="46.03743" lon="4.52841">
        <ele>566</ele>
        <time>2016-11-27T11:59:16.000Z</time>
      </trkpt>
      <trkpt lat="46.03743" lon="4.52839">
        <ele>567</ele>
        <time>2016-11-27T11:59:17.000Z</time>
      </trkpt>
      <trkpt lat="46.03742" lon="4.52838">
        <ele>566</ele>
        <time>2016-11-27T11:59:18.000Z</time>
      </trkpt>
      <trkpt lat="46.03742" lon="4.52836">
        <ele>566</ele>
        <time>2016-11-27T11:59:19.000Z</time>
      </trkpt>
      <trkpt lat="46.03742" lon="4.52834">
        <ele>567</ele>
        <time>2016-11-27T11:59:20.000Z</time>
      </trkpt>
      <trkpt lat="46.03742" lon="4.52833">
        <ele>568</ele>
        <time>2016-11-27T11:59:21.000Z</time>
      </trkpt>
      <trkpt lat="46.03743" lon="4.52831">
        <ele>570</ele>
        <time>2016-11-27T11:59:22.000Z</time>
      </trkpt>
      <trkpt lat="46.03743" lon="4.52831">
        <ele>570</ele>
        <time>2016-11-27T11:59:23.000Z</time>
      </trkpt>
      <trkpt lat="46.03744" lon="4.5283">
        <ele>571</ele>
        <time>2016-11-27T11:59:24.000Z</time>
      </trkpt>
      <trkpt lat="46.03745" lon="4.5283">
        <ele>572</ele>
        <time>2016-11-27T11:59:25.000Z</time>
      </trkpt>
      <trkpt lat="46.03745" lon="4.5283">
        <ele>571</ele>
        <time>2016-11-27T11:59:26.000Z</time>
      </trkpt>
      <trkpt lat="46.03747" lon="4.52831">
        <ele>569</ele>
        <time>2016-11-27T11:59:27.000Z</time>
      </trkpt>
      <trkpt lat="46.03748" lon="4.52832">
        <ele>569</ele>
        <time>2016-11-27T11:59:28.000Z</time>
      </trkpt>
      <trkpt lat="46.03749" lon="4.52833">
        <ele>570</ele>
        <time>2016-11-27T11:59:29.000Z</time>
      </trkpt>
      <trkpt lat="46.0375" lon="4.52835">
        <ele>572</ele>
        <time>2016-11-27T11:59:30.000Z</time>
      </trkpt>
      <trkpt lat="46.0375" lon="4.52837">
        <ele>572</ele>
        <time>2016-11-27T11:59:31.000Z</time>
      </trkpt>
      <trkpt lat="46.0375" lon="4.52838">
        <ele>572</ele>
        <time>2016-11-27T11:59:32.000Z</time>
      </trkpt>
      <trkpt lat="46.03751" lon="4.52839">
        <ele>572</ele>
        <time>2016-11-27T11:59:33.000Z</time>
      </trkpt>
      <trkpt lat="46.03752" lon="4.5284">
        <ele>573</ele>
        <time>2016-11-27T11:59:34.000Z</time>
      </trkpt>
      <trkpt lat="46.03753" lon="4.5284">
        <ele>573</ele>
        <time>2016-11-27T11:59:35.000Z</time>
      </trkpt>
      <trkpt lat="46.03754" lon="4.52841">
        <ele>574</ele>
        <time>2016-11-27T11:59:36.000Z</time>
      </trkpt>
      <trkpt lat="46.03754" lon="4.52842">
        <ele>574</ele>
        <time>2016-11-27T11:59:37.000Z</time>
      </trkpt>
      <trkpt lat="46.03755" lon="4.52843">
        <ele>575</ele>
        <time>2016-11-27T11:59:38.000Z</time>
      </trkpt>
      <trkpt lat="46.03756" lon="4.52843">
        <ele>575</ele>
        <time>2016-11-27T11:59:39.000Z</time>
      </trkpt>
      <trkpt lat="46.03757" lon="4.52844">
        <ele>575</ele>
        <time>2016-11-27T11:59:40.000Z</time>
      </trkpt>
      <trkpt lat="46.03758" lon="4.52845">
        <ele>576</ele>
        <time>2016-11-27T11:59:41.000Z</time>
      </trkpt>
      <trkpt lat="46.03759" lon="4.52845">
        <ele>577</ele>
        <time>2016-11-27T11:59:42.000Z</time>
      </trkpt>
      <trkpt lat="46.0376" lon="4.52846">
        <ele>579</ele>
        <time>2016-11-27T11:59:43.000Z</time>
      </trkpt>
      <trkpt lat="46.03761" lon="4.52846">
        <ele>579</ele>
        <time>2016-11-27T11:59:44.000Z</time>
      </trkpt>
      <trkpt lat="46.03762" lon="4.52847">
        <ele>581</ele>
        <time>2016-11-27T11:59:45.000Z</time>
      </trkpt>
      <trkpt lat="46.03763" lon="4.52848">
        <ele>581</ele>
        <time>2016-11-27T11:59:46.000Z</time>
      </trkpt>
      <trkpt lat="46.03764" lon="4.52848">
        <ele>581</ele>
        <time>2016-11-27T11:59:47.000Z</time>
      </trkpt>
      <trkpt lat="46.03765" lon="4.52849">
        <ele>582</ele>
        <time>2016-11-27T11:59:48.000Z</time>
      </trkpt>
      <trkpt lat="46.03766" lon="4.52849">
        <ele>583</ele>
        <time>2016-11-27T11:59:49.000Z</time>
      </trkpt>
      <trkpt lat="46.03767" lon="4.5285">
        <ele>584</ele>
        <time>2016-11-27T11:59:50.000Z</time>
      </trkpt>
      <trkpt lat="46.03767" lon="4.52851">
        <ele>584</ele>
        <time>2016-11-27T11:59:51.000Z</time>
      </trkpt>
      <trkpt lat="46.03769" lon="4.52852">
        <ele>583</ele>
        <time>2016-11-27T11:59:52.000Z</time>
      </trkpt>
      <trkpt lat="46.0377" lon="4.52854">
        <ele>583</ele>
        <time>2016-11-27T11:59:53.000Z</time>
      </trkpt>
      <trkpt lat="46.03771" lon="4.52855">
        <ele>582</ele>
        <time>2016-11-27T11:59:54.000Z</time>
      </trkpt>
      <trkpt lat="46.03772" lon="4.52856">
        <ele>582</ele>
        <time>2016-11-27T11:59:55.000Z</time>
      </trkpt>
      <trkpt lat="46.03773" lon="4.52857">
        <ele>582</ele>
        <time>2016-11-27T11:59:56.000Z</time>
      </trkpt>
      <trkpt lat="46.03774" lon="4.52858">
        <ele>581</ele>
        <time>2016-11-27T11:59:57.000Z</time>
      </trkpt>
      <trkpt lat="46.03775" lon="4.52859">
        <ele>582</ele>
        <time>2016-11-27T11:59:58.000Z</time>
      </trkpt>
      <trkpt lat="46.03776" lon="4.5286">
        <ele>581</ele>
        <time>2016-11-27T11:59:59.000Z</time>
      </trkpt>
      <trkpt lat="46.03777" lon="4.52861">
        <ele>580</ele>
        <time>2016-11-27T12:00:00.000Z</time>
      </trkpt>
      <trkpt lat="46.03777" lon="4.52863">
        <ele>580</ele>
        <time>2016-11-27T12:00:01.000Z</time>
      </trkpt>
      <trkpt lat="46.03778" lon="4.52864">
        <ele>581</ele>
        <time>2016-11-27T12:00:02.000Z</time>
      </trkpt>
      <trkpt lat="46.03779" lon="4.52866">
        <ele>581</ele>
        <time>2016-11-27T12:00:03.000Z</time>
      </trkpt>
      <trkpt lat="46.0378" lon="4.52867">
        <ele>581</ele>
        <time>2016-11-27T12:00:04.000Z</time>
      </trkpt>
      <trkpt lat="46.0378" lon="4.52868">
        <ele>582</ele>
        <time>2016-11-27T12:00:05.000Z</time>
      </trkpt>
      <trkpt lat="46.03781" lon="4.52868">
        <ele>582</ele>
        <time>2016-11-27T12:00:06.000Z</time>
      </trkpt>
      <trkpt lat="46.03782" lon="4.52869">
        <ele>582</ele>
        <time>2016-11-27T12:00:07.000Z</time>
      </trkpt>
      <trkpt lat="46.03783" lon="4.5287">
        <ele>583</ele>
        <time>2016-11-27T12:00:08.000Z</time>
      </trkpt>
      <trkpt lat="46.03784" lon="4.52871">
        <ele>583</ele>
        <time>2016-11-27T12:00:09.000Z</time>
      </trkpt>
      <trkpt lat="46.03785" lon="4.52873">
        <ele>583</ele>
        <time>2016-11-27T12:00:10.000Z</time>
      </trkpt>
      <trkpt lat="46.03786" lon="4.52874">
        <ele>583</ele>
        <time>2016-11-27T12:00:11.000Z</time>
      </trkpt>
      <trkpt lat="46.03787" lon="4.52875">
        <ele>583</ele>
        <time>2016-11-27T12:00:12.000Z</time>
      </trkpt>
      <trkpt lat="46.03787" lon="4.52877">
        <ele>583</ele>
        <time>2016-11-27T12:00:13.000Z</time>
      </trkpt>
      <trkpt lat="46.03788" lon="4.52878">
        <ele>584</ele>
        <time>2016-11-27T12:00:14.000Z</time>
      </trkpt>
      <trkpt lat="46.03789" lon="4.52879">
        <ele>584</ele>
        <time>2016-11-27T12:00:15.000Z</time>
      </trkpt>
      <trkpt lat="46.0379" lon="4.5288">
        <ele>584</ele>
        <time>2016-11-27T12:00:16.000Z</time>
      </trkpt>
      <trkpt lat="46.03791" lon="4.52882">
        <ele>584</ele>
        <time>2016-11-27T12:00:17.000Z</time>
      </trkpt>
      <trkpt lat="46.03792" lon="4.52884">
        <ele>584</ele>
        <time>2016-11-27T12:00:18.000Z</time>
      </trkpt>
      <trkpt lat="46.03793" lon="4.52885">
        <ele>585</ele>
        <time>2016-11-27T12:00:19.000Z</time>
      </trkpt>
      <trkpt lat="46.03794" lon="4.52887">
        <ele>585</ele>
        <time>2016-11-27T12:00:20.000Z</time>
      </trkpt>
      <trkpt lat="46.03795" lon="4.52888">
        <ele>586</ele>
        <time>2016-11-27T12:00:21.000Z</time>
      </trkpt>
      <trkpt lat="46.03795" lon="4.52889">
        <ele>585</ele>
        <time>2016-11-27T12:00:22.000Z</time>
      </trkpt>
      <trkpt lat="46.03796" lon="4.52891">
        <ele>586</ele>
        <time>2016-11-27T12:00:23.000Z</time>
      </trkpt>
      <trkpt lat="46.03797" lon="4.52892">
        <ele>586</ele>
        <time>2016-11-27T12:00:24.000Z</time>
      </trkpt>
      <trkpt lat="46.03797" lon="4.52894">
        <ele>585</ele>
        <time>2016-11-27T12:00:25.000Z</time>
      </trkpt>
      <trkpt lat="46.03798" lon="4.52895">
        <ele>586</ele>
        <time>2016-11-27T12:00:26.000Z</time>
      </trkpt>
      <trkpt lat="46.03799" lon="4.52897">
        <ele>586</ele>
        <time>2016-11-27T12:00:27.000Z</time>
      </trkpt>
      <trkpt lat="46.038" lon="4.52898">
        <ele>586</ele>
        <time>2016-11-27T12:00:28.000Z</time>
      </trkpt>
      <trkpt lat="46.03801" lon="4.52899">
        <ele>587</ele>
        <time>2016-11-27T12:00:29.000Z</time>
      </trkpt>
      <trkpt lat="46.03801" lon="4.529">
        <ele>588</ele>
        <time>2016-11-27T12:00:30.000Z</time>
      </trkpt>
      <trkpt lat="46.03802" lon="4.52901">
        <ele>589</ele>
        <time>2016-11-27T12:00:31.000Z</time>
      </trkpt>
      <trkpt lat="46.03802" lon="4.52902">
        <ele>590</ele>
        <time>2016-11-27T12:00:32.000Z</time>
      </trkpt>
      <trkpt lat="46.03803" lon="4.52903">
        <ele>591</ele>
        <time>2016-11-27T12:00:33.000Z</time>
      </trkpt>
      <trkpt lat="46.03803" lon="4.52905">
        <ele>592</ele>
        <time>2016-11-27T12:00:34.000Z</time>
      </trkpt>
      <trkpt lat="46.03803" lon="4.52906">
        <ele>592</ele>
        <time>2016-11-27T12:00:35.000Z</time>
      </trkpt>
      <trkpt lat="46.03804" lon="4.52906">
        <ele>593</ele>
        <time>2016-11-27T12:00:36.000Z</time>
      </trkpt>
      <trkpt lat="46.03804" lon="4.52907">
        <ele>594</ele>
        <time>2016-11-27T12:00:37.000Z</time>
      </trkpt>
      <trkpt lat="46.03805" lon="4.52908">
        <ele>594</ele>
        <time>2016-11-27T12:00:38.000Z</time>
      </trkpt>
      <trkpt lat="46.03805" lon="4.52908">
        <ele>593</ele>
        <time>2016-11-27T12:00:39.000Z</time>
      </trkpt>
      <trkpt lat="46.03806" lon="4.52909">
        <ele>593</ele>
        <time>2016-11-27T12:00:40.000Z</time>
      </trkpt>
      <trkpt lat="46.03807" lon="4.52909">
        <ele>594</ele>
        <time>2016-11-27T12:00:41.000Z</time>
      </trkpt>
      <trkpt lat="46.03808" lon="4.5291">
        <ele>595</ele>
        <time>2016-11-27T12:00:42.000Z</time>
      </trkpt>
      <trkpt lat="46.03809" lon="4.5291">
        <ele>595</ele>
        <time>2016-11-27T12:00:43.000Z</time>
      </trkpt>
      <trkpt lat="46.0381" lon="4.52911">
        <ele>596</ele>
        <time>2016-11-27T12:00:44.000Z</time>
      </trkpt>
      <trkpt lat="46.03812" lon="4.52912">
        <ele>595</ele>
        <time>2016-11-27T12:00:45.000Z</time>
      </trkpt>
      <trkpt lat="46.03813" lon="4.52912">
        <ele>594</ele>
        <time>2016-11-27T12:00:46.000Z</time>
      </trkpt>
      <trkpt lat="46.03815" lon="4.52914">
        <ele>594</ele>
        <time>2016-11-27T12:00:47.000Z</time>
      </trkpt>
      <trkpt lat="46.03816" lon="4.52915">
        <ele>594</ele>
        <time>2016-11-27T12:00:48.000Z</time>
      </trkpt>
      <trkpt lat="46.03817" lon="4.52916">
        <ele>594</ele>
        <time>2016-11-27T12:00:49.000Z</time>
      </trkpt>
      <trkpt lat="46.03818" lon="4.52917">
        <ele>594</ele>
        <time>2016-11-27T12:00:50.000Z</time>
      </trkpt>
      <trkpt lat="46.0382" lon="4.52919">
        <ele>594</ele>
        <time>2016-11-27T12:00:51.000Z</time>
      </trkpt>
      <trkpt lat="46.03821" lon="4.5292">
        <ele>594</ele>
        <time>2016-11-27T12:00:52.000Z</time>
      </trkpt>
      <trkpt lat="46.03822" lon="4.52922">
        <ele>593</ele>
        <time>2016-11-27T12:00:53.000Z</time>
      </trkpt>
      <trkpt lat="46.03824" lon="4.52923">
        <ele>593</ele>
        <time>2016-11-27T12:00:54.000Z</time>
      </trkpt>
      <trkpt lat="46.03825" lon="4.52925">
        <ele>593</ele>
        <time>2016-11-27T12:00:55.000Z</time>
      </trkpt>
      <trkpt lat="46.03826" lon="4.52926">
        <ele>592</ele>
        <time>2016-11-27T12:00:56.000Z</time>
      </trkpt>
      <trkpt lat="46.03827" lon="4.52928">
        <ele>592</ele>
        <time>2016-11-27T12:00:57.000Z</time>
      </trkpt>
      <trkpt lat="46.03828" lon="4.5293">
        <ele>593</ele>
        <time>2016-11-27T12:00:58.000Z</time>
      </trkpt>
      <trkpt lat="46.03828" lon="4.52931">
        <ele>594</ele>
        <time>2016-11-27T12:00:59.000Z</time>
      </trkpt>
      <trkpt lat="46.03829" lon="4.52933">
        <ele>593</ele>
        <time>2016-11-27T12:01:00.000Z</time>
      </trkpt>
      <trkpt lat="46.0383" lon="4.52935">
        <ele>593</ele>
        <time>2016-11-27T12:01:01.000Z</time>
      </trkpt>
      <trkpt lat="46.0383" lon="4.52937">
        <ele>593</ele>
        <time>2016-11-27T12:01:02.000Z</time>
      </trkpt>
      <trkpt lat="46.03831" lon="4.52939">
        <ele>593</ele>
        <time>2016-11-27T12:01:03.000Z</time>
      </trkpt>
      <trkpt lat="46.03831" lon="4.52941">
        <ele>592</ele>
        <time>2016-11-27T12:01:04.000Z</time>
      </trkpt>
      <trkpt lat="46.03832" lon="4.52944">
        <ele>591</ele>
        <time>2016-11-27T12:01:05.000Z</time>
      </trkpt>
      <trkpt lat="46.03832" lon="4.52946">
        <ele>591</ele>
        <time>2016-11-27T12:01:06.000Z</time>
      </trkpt>
      <trkpt lat="46.03832" lon="4.52948">
        <ele>591</ele>
        <time>2016-11-27T12:01:07.000Z</time>
      </trkpt>
      <trkpt lat="46.03832" lon="4.52949">
        <ele>591</ele>
        <time>2016-11-27T12:01:08.000Z</time>
      </trkpt>
      <trkpt lat="46.03831" lon="4.52952">
        <ele>593</ele>
        <time>2016-11-27T12:01:09.000Z</time>
      </trkpt>
      <trkpt lat="46.03831" lon="4.52954">
        <ele>594</ele>
        <time>2016-11-27T12:01:10.000Z</time>
      </trkpt>
      <trkpt lat="46.0383" lon="4.52956">
        <ele>596</ele>
        <time>2016-11-27T12:01:11.000Z</time>
      </trkpt>
      <trkpt lat="46.0383" lon="4.52958">
        <ele>596</ele>
        <time>2016-11-27T12:01:12.000Z</time>
      </trkpt>
      <trkpt lat="46.0383" lon="4.5296">
        <ele>595</ele>
        <time>2016-11-27T12:01:13.000Z</time>
      </trkpt>
      <trkpt lat="46.0383" lon="4.52962">
        <ele>595</ele>
        <time>2016-11-27T12:01:14.000Z</time>
      </trkpt>
      <trkpt lat="46.03831" lon="4.52964">
        <ele>595</ele>
        <time>2016-11-27T12:01:15.000Z</time>
      </trkpt>
      <trkpt lat="46.03831" lon="4.52966">
        <ele>594</ele>
        <time>2016-11-27T12:01:16.000Z</time>
      </trkpt>
      <trkpt lat="46.03831" lon="4.52967">
        <ele>595</ele>
        <time>2016-11-27T12:01:17.000Z</time>
      </trkpt>
      <trkpt lat="46.03831" lon="4.52969">
        <ele>596</ele>
        <time>2016-11-27T12:01:18.000Z</time>
      </trkpt>
      <trkpt lat="46.03831" lon="4.5297">
        <ele>596</ele>
        <time>2016-11-27T12:01:19.000Z</time>
      </trkpt>
      <trkpt lat="46.03831" lon="4.52973">
        <ele>596</ele>
        <time>2016-11-27T12:01:20.000Z</time>
      </trkpt>
      <trkpt lat="46.03831" lon="4.52975">
        <ele>597</ele>
        <time>2016-11-27T12:01:21.000Z</time>
      </trkpt>
      <trkpt lat="46.03831" lon="4.52977">
        <ele>597</ele>
        <time>2016-11-27T12:01:22.000Z</time>
      </trkpt>
      <trkpt lat="46.0383" lon="4.5298">
        <ele>598</ele>
        <time>2016-11-27T12:01:23.000Z</time>
      </trkpt>
      <trkpt lat="46.0383" lon="4.52982">
        <ele>598</ele>
        <time>2016-11-27T12:01:24.000Z</time>
      </trkpt>
      <trkpt lat="46.0383" lon="4.52984">
        <ele>599</ele>
        <time>2016-11-27T12:01:25.000Z</time>
      </trkpt>
      <trkpt lat="46.0383" lon="4.52986">
        <ele>599</ele>
        <time>2016-11-27T12:01:26.000Z</time>
      </trkpt>
      <trkpt lat="46.0383" lon="4.52988">
        <ele>598</ele>
        <time>2016-11-27T12:01:27.000Z</time>
      </trkpt>
      <trkpt lat="46.03829" lon="4.52991">
        <ele>598</ele>
        <time>2016-11-27T12:01:28.000Z</time>
      </trkpt>
      <trkpt lat="46.03829" lon="4.52993">
        <ele>598</ele>
        <time>2016-11-27T12:01:29.000Z</time>
      </trkpt>
      <trkpt lat="46.03829" lon="4.52995">
        <ele>597</ele>
        <time>2016-11-27T12:01:30.000Z</time>
      </trkpt>
      <trkpt lat="46.03829" lon="4.52998">
        <ele>597</ele>
        <time>2016-11-27T12:01:31.000Z</time>
      </trkpt>
      <trkpt lat="46.03829" lon="4.53">
        <ele>598</ele>
        <time>2016-11-27T12:01:32.000Z</time>
      </trkpt>
      <trkpt lat="46.03829" lon="4.53001">
        <ele>598</ele>
        <time>2016-11-27T12:01:33.000Z</time>
      </trkpt>
      <trkpt lat="46.03829" lon="4.53003">
        <ele>598</ele>
        <time>2016-11-27T12:01:34.000Z</time>
      </trkpt>
      <trkpt lat="46.03829" lon="4.53005">
        <ele>598</ele>
        <time>2016-11-27T12:01:35.000Z</time>
      </trkpt>
      <trkpt lat="46.03829" lon="4.53006">
        <ele>599</ele>
        <time>2016-11-27T12:01:36.000Z</time>
      </trkpt>
      <trkpt lat="46.03829" lon="4.53008">
        <ele>599</ele>
        <time>2016-11-27T12:01:37.000Z</time>
      </trkpt>
      <trkpt lat="46.03829" lon="4.5301">
        <ele>599</ele>
        <time>2016-11-27T12:01:38.000Z</time>
      </trkpt>
      <trkpt lat="46.03829" lon="4.53012">
        <ele>599</ele>
        <time>2016-11-27T12:01:39.000Z</time>
      </trkpt>
      <trkpt lat="46.03829" lon="4.53014">
        <ele>598</ele>
        <time>2016-11-27T12:01:40.000Z</time>
      </trkpt>
      <trkpt lat="46.03829" lon="4.53016">
        <ele>598</ele>
        <time>2016-11-27T12:01:41.000Z</time>
      </trkpt>
      <trkpt lat="46.03829" lon="4.53018">
        <ele>598</ele>
        <time>2016-11-27T12:01:42.000Z</time>
      </trkpt>
      <trkpt lat="46.03829" lon="4.5302">
        <ele>598</ele>
        <time>2016-11-27T12:01:43.000Z</time>
      </trkpt>
      <trkpt lat="46.03829" lon="4.53022">
        <ele>598</ele>
        <time>2016-11-27T12:01:44.000Z</time>
      </trkpt>
      <trkpt lat="46.03829" lon="4.53024">
        <ele>598</ele>
        <time>2016-11-27T12:01:45.000Z</time>
      </trkpt>
      <trkpt lat="46.03829" lon="4.53026">
        <ele>598</ele>
        <time>2016-11-27T12:01:46.000Z</time>
      </trkpt>
      <trkpt lat="46.03829" lon="4.53028">
        <ele>599</ele>
        <time>2016-11-27T12:01:47.000Z</time>
      </trkpt>
      <trkpt lat="46.03829" lon="4.5303">
        <ele>599</ele>
        <time>2016-11-27T12:01:48.000Z</time>
      </trkpt>
      <trkpt lat="46.03829" lon="4.53031">
        <ele>599</ele>
        <time>2016-11-27T12:01:49.000Z</time>
      </trkpt>
      <trkpt lat="46.03829" lon="4.53033">
        <ele>600</ele>
        <time>2016-11-27T12:01:50.000Z</time>
      </trkpt>
      <trkpt lat="46.03828" lon="4.53035">
        <ele>601</ele>
        <time>2016-11-27T12:01:51.000Z</time>
      </trkpt>
      <trkpt lat="46.03828" lon="4.53037">
        <ele>601</ele>
        <time>2016-11-27T12:01:52.000Z</time>
      </trkpt>
      <trkpt lat="46.03828" lon="4.53039">
        <ele>602</ele>
        <time>2016-11-27T12:01:53.000Z</time>
      </trkpt>
      <trkpt lat="46.03828" lon="4.5304">
        <ele>602</ele>
        <time>2016-11-27T12:01:54.000Z</time>
      </trkpt>
      <trkpt lat="46.03827" lon="4.53042">
        <ele>603</ele>
        <time>2016-11-27T12:01:55.000Z</time>
      </trkpt>
      <trkpt lat="46.03827" lon="4.53044">
        <ele>603</ele>
        <time>2016-11-27T12:01:56.000Z</time>
      </trkpt>
      <trkpt lat="46.03827" lon="4.53045">
        <ele>604</ele>
        <time>2016-11-27T12:01:57.000Z</time>
      </trkpt>
      <trkpt lat="46.03827" lon="4.53047">
        <ele>604</ele>
        <time>2016-11-27T12:01:58.000Z</time>
      </trkpt>
      <trkpt lat="46.03827" lon="4.53049">
        <ele>605</ele>
        <time>2016-11-27T12:01:59.000Z</time>
      </trkpt>
      <trkpt lat="46.03827" lon="4.53051">
        <ele>605</ele>
        <time>2016-11-27T12:02:00.000Z</time>
      </trkpt>
      <trkpt lat="46.03827" lon="4.53052">
        <ele>606</ele>
        <time>2016-11-27T12:02:01.000Z</time>
      </trkpt>
      <trkpt lat="46.03827" lon="4.53054">
        <ele>606</ele>
        <time>2016-11-27T12:02:02.000Z</time>
      </trkpt>
      <trkpt lat="46.03827" lon="4.53056">
        <ele>606</ele>
        <time>2016-11-27T12:02:03.000Z</time>
      </trkpt>
      <trkpt lat="46.03827" lon="4.53058">
        <ele>607</ele>
        <time>2016-11-27T12:02:04.000Z</time>
      </trkpt>
      <trkpt lat="46.03827" lon="4.53059">
        <ele>608</ele>
        <time>2016-11-27T12:02:05.000Z</time>
      </trkpt>
      <trkpt lat="46.03828" lon="4.53061">
        <ele>607</ele>
        <time>2016-11-27T12:02:06.000Z</time>
      </trkpt>
      <trkpt lat="46.03829" lon="4.53062">
        <ele>606</ele>
        <time>2016-11-27T12:02:07.000Z</time>
      </trkpt>
      <trkpt lat="46.03831" lon="4.53062">
        <ele>604</ele>
        <time>2016-11-27T12:02:08.000Z</time>
      </trkpt>
      <trkpt lat="46.03833" lon="4.53062">
        <ele>603</ele>
        <time>2016-11-27T12:02:09.000Z</time>
      </trkpt>
      <trkpt lat="46.03834" lon="4.53061">
        <ele>604</ele>
        <time>2016-11-27T12:02:10.000Z</time>
      </trkpt>
      <trkpt lat="46.03834" lon="4.5306">
        <ele>603</ele>
        <time>2016-11-27T12:02:11.000Z</time>
      </trkpt>
      <trkpt lat="46.03834" lon="4.53058">
        <ele>603</ele>
        <time>2016-11-27T12:02:12.000Z</time>
      </trkpt>
      <trkpt lat="46.03835" lon="4.53057">
        <ele>603</ele>
        <time>2016-11-27T12:02:13.000Z</time>
      </trkpt>
      <trkpt lat="46.03835" lon="4.53055">
        <ele>602</ele>
        <time>2016-11-27T12:02:14.000Z</time>
      </trkpt>
      <trkpt lat="46.03836" lon="4.53054">
        <ele>602</ele>
        <time>2016-11-27T12:02:15.000Z</time>
      </trkpt>
      <trkpt lat="46.03836" lon="4.53052">
        <ele>601</ele>
        <time>2016-11-27T12:02:16.000Z</time>
      </trkpt>
      <trkpt lat="46.03836" lon="4.5305">
        <ele>601</ele>
        <time>2016-11-27T12:02:17.000Z</time>
      </trkpt>
      <trkpt lat="46.03836" lon="4.53048">
        <ele>602</ele>
        <time>2016-11-27T12:02:18.000Z</time>
      </trkpt>
      <trkpt lat="46.03837" lon="4.53046">
        <ele>602</ele>
        <time>2016-11-27T12:02:19.000Z</time>
      </trkpt>
      <trkpt lat="46.03837" lon="4.53044">
        <ele>601</ele>
        <time>2016-11-27T12:02:20.000Z</time>
      </trkpt>
      <trkpt lat="46.03837" lon="4.53043">
        <ele>601</ele>
        <time>2016-11-27T12:02:21.000Z</time>
      </trkpt>
      <trkpt lat="46.03838" lon="4.53041">
        <ele>600</ele>
        <time>2016-11-27T12:02:22.000Z</time>
      </trkpt>
      <trkpt lat="46.03838" lon="4.53039">
        <ele>600</ele>
        <time>2016-11-27T12:02:23.000Z</time>
      </trkpt>
      <trkpt lat="46.03838" lon="4.53038">
        <ele>600</ele>
        <time>2016-11-27T12:02:24.000Z</time>
      </trkpt>
      <trkpt lat="46.03839" lon="4.53036">
        <ele>599</ele>
        <time>2016-11-27T12:02:25.000Z</time>
      </trkpt>
      <trkpt lat="46.03839" lon="4.53035">
        <ele>599</ele>
        <time>2016-11-27T12:02:26.000Z</time>
      </trkpt>
      <trkpt lat="46.0384" lon="4.53033">
        <ele>599</ele>
        <time>2016-11-27T12:02:27.000Z</time>
      </trkpt>
      <trkpt lat="46.0384" lon="4.53032">
        <ele>598</ele>
        <time>2016-11-27T12:02:28.000Z</time>
      </trkpt>
      <trkpt lat="46.03841" lon="4.5303">
        <ele>598</ele>
        <time>2016-11-27T12:02:29.000Z</time>
      </trkpt>
      <trkpt lat="46.03841" lon="4.53028">
        <ele>598</ele>
        <time>2016-11-27T12:02:30.000Z</time>
      </trkpt>
      <trkpt lat="46.03842" lon="4.53027">
        <ele>598</ele>
        <time>2016-11-27T12:02:31.000Z</time>
      </trkpt>
      <trkpt lat="46.03843" lon="4.53025">
        <ele>598</ele>
        <time>2016-11-27T12:02:32.000Z</time>
      </trkpt>
      <trkpt lat="46.03843" lon="4.53022">
        <ele>599</ele>
        <time>2016-11-27T12:02:33.000Z</time>
      </trkpt>
      <trkpt lat="46.03843" lon="4.5302">
        <ele>599</ele>
        <time>2016-11-27T12:02:34.000Z</time>
      </trkpt>
      <trkpt lat="46.03844" lon="4.53017">
        <ele>600</ele>
        <time>2016-11-27T12:02:35.000Z</time>
      </trkpt>
      <trkpt lat="46.03844" lon="4.53014">
        <ele>600</ele>
        <time>2016-11-27T12:02:36.000Z</time>
      </trkpt>
      <trkpt lat="46.03845" lon="4.53012">
        <ele>600</ele>
        <time>2016-11-27T12:02:37.000Z</time>
      </trkpt>
      <trkpt lat="46.03845" lon="4.53009">
        <ele>600</ele>
        <time>2016-11-27T12:02:38.000Z</time>
      </trkpt>
      <trkpt lat="46.03846" lon="4.53006">
        <ele>600</ele>
        <time>2016-11-27T12:02:39.000Z</time>
      </trkpt>
      <trkpt lat="46.03847" lon="4.53004">
        <ele>600</ele>
        <time>2016-11-27T12:02:40.000Z</time>
      </trkpt>
      <trkpt lat="46.03848" lon="4.53001">
        <ele>599</ele>
        <time>2016-11-27T12:02:41.000Z</time>
      </trkpt>
      <trkpt lat="46.03849" lon="4.52998">
        <ele>599</ele>
        <time>2016-11-27T12:02:42.000Z</time>
      </trkpt>
      <trkpt lat="46.0385" lon="4.52995">
        <ele>599</ele>
        <time>2016-11-27T12:02:43.000Z</time>
      </trkpt>
      <trkpt lat="46.03851" lon="4.52993">
        <ele>598</ele>
        <time>2016-11-27T12:02:44.000Z</time>
      </trkpt>
      <trkpt lat="46.03852" lon="4.52989">
        <ele>598</ele>
        <time>2016-11-27T12:02:45.000Z</time>
      </trkpt>
      <trkpt lat="46.03853" lon="4.52986">
        <ele>598</ele>
        <time>2016-11-27T12:02:46.000Z</time>
      </trkpt>
      <trkpt lat="46.03854" lon="4.52983">
        <ele>599</ele>
        <time>2016-11-27T12:02:47.000Z</time>
      </trkpt>
      <trkpt lat="46.03855" lon="4.52979">
        <ele>599</ele>
        <time>2016-11-27T12:02:48.000Z</time>
      </trkpt>
      <trkpt lat="46.03856" lon="4.52976">
        <ele>599</ele>
        <time>2016-11-27T12:02:49.000Z</time>
      </trkpt>
      <trkpt lat="46.03857" lon="4.52973">
        <ele>598</ele>
        <time>2016-11-27T12:02:50.000Z</time>
      </trkpt>
      <trkpt lat="46.03858" lon="4.5297">
        <ele>598</ele>
        <time>2016-11-27T12:02:51.000Z</time>
      </trkpt>
      <trkpt lat="46.03859" lon="4.52967">
        <ele>598</ele>
        <time>2016-11-27T12:02:52.000Z</time>
      </trkpt>
      <trkpt lat="46.0386" lon="4.52964">
        <ele>597</ele>
        <time>2016-11-27T12:02:53.000Z</time>
      </trkpt>
      <trkpt lat="46.03861" lon="4.5296">
        <ele>597</ele>
        <time>2016-11-27T12:02:54.000Z</time>
      </trkpt>
      <trkpt lat="46.03861" lon="4.52957">
        <ele>597</ele>
        <time>2016-11-27T12:02:55.000Z</time>
      </trkpt>
      <trkpt lat="46.03862" lon="4.52953">
        <ele>597</ele>
        <time>2016-11-27T12:02:56.000Z</time>
      </trkpt>
      <trkpt lat="46.03862" lon="4.5295">
        <ele>597</ele>
        <time>2016-11-27T12:02:57.000Z</time>
      </trkpt>
      <trkpt lat="46.03863" lon="4.52946">
        <ele>597</ele>
        <time>2016-11-27T12:02:58.000Z</time>
      </trkpt>
      <trkpt lat="46.03863" lon="4.52942">
        <ele>597</ele>
        <time>2016-11-27T12:02:59.000Z</time>
      </trkpt>
      <trkpt lat="46.03862" lon="4.52939">
        <ele>597</ele>
        <time>2016-11-27T12:03:00.000Z</time>
      </trkpt>
      <trkpt lat="46.03862" lon="4.52936">
        <ele>596</ele>
        <time>2016-11-27T12:03:01.000Z</time>
      </trkpt>
      <trkpt lat="46.0386" lon="4.52932">
        <ele>598</ele>
        <time>2016-11-27T12:03:02.000Z</time>
      </trkpt>
      <trkpt lat="46.03859" lon="4.52929">
        <ele>599</ele>
        <time>2016-11-27T12:03:03.000Z</time>
      </trkpt>
      <trkpt lat="46.03858" lon="4.52925">
        <ele>600</ele>
        <time>2016-11-27T12:03:04.000Z</time>
      </trkpt>
      <trkpt lat="46.03857" lon="4.52922">
        <ele>600</ele>
        <time>2016-11-27T12:03:05.000Z</time>
      </trkpt>
      <trkpt lat="46.03855" lon="4.52918">
        <ele>602</ele>
        <time>2016-11-27T12:03:06.000Z</time>
      </trkpt>
      <trkpt lat="46.03854" lon="4.52915">
        <ele>603</ele>
        <time>2016-11-27T12:03:07.000Z</time>
      </trkpt>
      <trkpt lat="46.03853" lon="4.52912">
        <ele>604</ele>
        <time>2016-11-27T12:03:08.000Z</time>
      </trkpt>
      <trkpt lat="46.03852" lon="4.5291">
        <ele>603</ele>
        <time>2016-11-27T12:03:09.000Z</time>
      </trkpt>
      <trkpt lat="46.03851" lon="4.52907">
        <ele>603</ele>
        <time>2016-11-27T12:03:10.000Z</time>
      </trkpt>
      <trkpt lat="46.0385" lon="4.52904">
        <ele>606</ele>
        <time>2016-11-27T12:03:11.000Z</time>
      </trkpt>
      <trkpt lat="46.03849" lon="4.52902">
        <ele>607</ele>
        <time>2016-11-27T12:03:12.000Z</time>
      </trkpt>
      <trkpt lat="46.03847" lon="4.52899">
        <ele>608</ele>
        <time>2016-11-27T12:03:13.000Z</time>
      </trkpt>
      <trkpt lat="46.03846" lon="4.52896">
        <ele>608</ele>
        <time>2016-11-27T12:03:14.000Z</time>
      </trkpt>
      <trkpt lat="46.03845" lon="4.52894">
        <ele>610</ele>
        <time>2016-11-27T12:03:15.000Z</time>
      </trkpt>
      <trkpt lat="46.03844" lon="4.52891">
        <ele>610</ele>
        <time>2016-11-27T12:03:16.000Z</time>
      </trkpt>
      <trkpt lat="46.03843" lon="4.52889">
        <ele>610</ele>
        <time>2016-11-27T12:03:17.000Z</time>
      </trkpt>
      <trkpt lat="46.03842" lon="4.52886">
        <ele>611</ele>
        <time>2016-11-27T12:03:18.000Z</time>
      </trkpt>
      <trkpt lat="46.03841" lon="4.52883">
        <ele>612</ele>
        <time>2016-11-27T12:03:19.000Z</time>
      </trkpt>
      <trkpt lat="46.0384" lon="4.5288">
        <ele>611</ele>
        <time>2016-11-27T12:03:20.000Z</time>
      </trkpt>
      <trkpt lat="46.03839" lon="4.52878">
        <ele>611</ele>
        <time>2016-11-27T12:03:21.000Z</time>
      </trkpt>
      <trkpt lat="46.03838" lon="4.52874">
        <ele>611</ele>
        <time>2016-11-27T12:03:22.000Z</time>
      </trkpt>
      <trkpt lat="46.03837" lon="4.52871">
        <ele>611</ele>
        <time>2016-11-27T12:03:23.000Z</time>
      </trkpt>
      <trkpt lat="46.03837" lon="4.52868">
        <ele>611</ele>
        <time>2016-11-27T12:03:24.000Z</time>
      </trkpt>
      <trkpt lat="46.03836" lon="4.52865">
        <ele>612</ele>
        <time>2016-11-27T12:03:25.000Z</time>
      </trkpt>
      <trkpt lat="46.03835" lon="4.52862">
        <ele>613</ele>
        <time>2016-11-27T12:03:26.000Z</time>
      </trkpt>
      <trkpt lat="46.03834" lon="4.52859">
        <ele>613</ele>
        <time>2016-11-27T12:03:27.000Z</time>
      </trkpt>
      <trkpt lat="46.03833" lon="4.52857">
        <ele>614</ele>
        <time>2016-11-27T12:03:28.000Z</time>
      </trkpt>
      <trkpt lat="46.03833" lon="4.52854">
        <ele>613</ele>
        <time>2016-11-27T12:03:29.000Z</time>
      </trkpt>
      <trkpt lat="46.03832" lon="4.52851">
        <ele>613</ele>
        <time>2016-11-27T12:03:30.000Z</time>
      </trkpt>
      <trkpt lat="46.03831" lon="4.52848">
        <ele>614</ele>
        <time>2016-11-27T12:03:31.000Z</time>
      </trkpt>
      <trkpt lat="46.03831" lon="4.52845">
        <ele>614</ele>
        <time>2016-11-27T12:03:32.000Z</time>
      </trkpt>
      <trkpt lat="46.0383" lon="4.52843">
        <ele>614</ele>
        <time>2016-11-27T12:03:33.000Z</time>
      </trkpt>
      <trkpt lat="46.0383" lon="4.5284">
        <ele>614</ele>
        <time>2016-11-27T12:03:34.000Z</time>
      </trkpt>
      <trkpt lat="46.03829" lon="4.52838">
        <ele>614</ele>
        <time>2016-11-27T12:03:35.000Z</time>
      </trkpt>
      <trkpt lat="46.03828" lon="4.52836">
        <ele>614</ele>
        <time>2016-11-27T12:03:36.000Z</time>
      </trkpt>
      <trkpt lat="46.03828" lon="4.52833">
        <ele>614</ele>
        <time>2016-11-27T12:03:37.000Z</time>
      </trkpt>
      <trkpt lat="46.03827" lon="4.52831">
        <ele>615</ele>
        <time>2016-11-27T12:03:38.000Z</time>
      </trkpt>
      <trkpt lat="46.03826" lon="4.52828">
        <ele>614</ele>
        <time>2016-11-27T12:03:39.000Z</time>
      </trkpt>
      <trkpt lat="46.03825" lon="4.52826">
        <ele>613</ele>
        <time>2016-11-27T12:03:40.000Z</time>
      </trkpt>
      <trkpt lat="46.03824" lon="4.52823">
        <ele>614</ele>
        <time>2016-11-27T12:03:41.000Z</time>
      </trkpt>
      <trkpt lat="46.03823" lon="4.5282">
        <ele>613</ele>
        <time>2016-11-27T12:03:42.000Z</time>
      </trkpt>
      <trkpt lat="46.03822" lon="4.52818">
        <ele>613</ele>
        <time>2016-11-27T12:03:43.000Z</time>
      </trkpt>
      <trkpt lat="46.03822" lon="4.52815">
        <ele>614</ele>
        <time>2016-11-27T12:03:44.000Z</time>
      </trkpt>
      <trkpt lat="46.03821" lon="4.52813">
        <ele>614</ele>
        <time>2016-11-27T12:03:45.000Z</time>
      </trkpt>
      <trkpt lat="46.0382" lon="4.5281">
        <ele>615</ele>
        <time>2016-11-27T12:03:46.000Z</time>
      </trkpt>
      <trkpt lat="46.03819" lon="4.52807">
        <ele>615</ele>
        <time>2016-11-27T12:03:47.000Z</time>
      </trkpt>
      <trkpt lat="46.03819" lon="4.52804">
        <ele>614</ele>
        <time>2016-11-27T12:03:48.000Z</time>
      </trkpt>
      <trkpt lat="46.03818" lon="4.52801">
        <ele>614</ele>
        <time>2016-11-27T12:03:49.000Z</time>
      </trkpt>
      <trkpt lat="46.03818" lon="4.52798">
        <ele>614</ele>
        <time>2016-11-27T12:03:50.000Z</time>
      </trkpt>
      <trkpt lat="46.03817" lon="4.52795">
        <ele>614</ele>
        <time>2016-11-27T12:03:51.000Z</time>
      </trkpt>
      <trkpt lat="46.03816" lon="4.52793">
        <ele>614</ele>
        <time>2016-11-27T12:03:52.000Z</time>
      </trkpt>
      <trkpt lat="46.03814" lon="4.5279">
        <ele>615</ele>
        <time>2016-11-27T12:03:53.000Z</time>
      </trkpt>
      <trkpt lat="46.03813" lon="4.52787">
        <ele>615</ele>
        <time>2016-11-27T12:03:54.000Z</time>
      </trkpt>
      <trkpt lat="46.03811" lon="4.52785">
        <ele>616</ele>
        <time>2016-11-27T12:03:55.000Z</time>
      </trkpt>
      <trkpt lat="46.0381" lon="4.52782">
        <ele>616</ele>
        <time>2016-11-27T12:03:56.000Z</time>
      </trkpt>
      <trkpt lat="46.03808" lon="4.52778">
        <ele>616</ele>
        <time>2016-11-27T12:03:57.000Z</time>
      </trkpt>
      <trkpt lat="46.03807" lon="4.52775">
        <ele>616</ele>
        <time>2016-11-27T12:03:58.000Z</time>
      </trkpt>
      <trkpt lat="46.03805" lon="4.52773">
        <ele>616</ele>
        <time>2016-11-27T12:03:59.000Z</time>
      </trkpt>
      <trkpt lat="46.03804" lon="4.52769">
        <ele>615</ele>
        <time>2016-11-27T12:04:00.000Z</time>
      </trkpt>
      <trkpt lat="46.03803" lon="4.52766">
        <ele>615</ele>
        <time>2016-11-27T12:04:01.000Z</time>
      </trkpt>
      <trkpt lat="46.03803" lon="4.52763">
        <ele>615</ele>
        <time>2016-11-27T12:04:02.000Z</time>
      </trkpt>
      <trkpt lat="46.03802" lon="4.5276">
        <ele>615</ele>
        <time>2016-11-27T12:04:03.000Z</time>
      </trkpt>
      <trkpt lat="46.038" lon="4.52757">
        <ele>615</ele>
        <time>2016-11-27T12:04:04.000Z</time>
      </trkpt>
      <trkpt lat="46.03799" lon="4.52754">
        <ele>615</ele>
        <time>2016-11-27T12:04:05.000Z</time>
      </trkpt>
      <trkpt lat="46.03798" lon="4.52751">
        <ele>616</ele>
        <time>2016-11-27T12:04:06.000Z</time>
      </trkpt>
      <trkpt lat="46.03797" lon="4.52748">
        <ele>616</ele>
        <time>2016-11-27T12:04:07.000Z</time>
      </trkpt>
      <trkpt lat="46.03796" lon="4.52745">
        <ele>618</ele>
        <time>2016-11-27T12:04:08.000Z</time>
      </trkpt>
      <trkpt lat="46.03795" lon="4.52742">
        <ele>618</ele>
        <time>2016-11-27T12:04:09.000Z</time>
      </trkpt>
      <trkpt lat="46.03794" lon="4.5274">
        <ele>618</ele>
        <time>2016-11-27T12:04:10.000Z</time>
      </trkpt>
      <trkpt lat="46.03793" lon="4.52737">
        <ele>618</ele>
        <time>2016-11-27T12:04:11.000Z</time>
      </trkpt>
      <trkpt lat="46.03792" lon="4.52734">
        <ele>618</ele>
        <time>2016-11-27T12:04:12.000Z</time>
      </trkpt>
      <trkpt lat="46.03791" lon="4.52731">
        <ele>618</ele>
        <time>2016-11-27T12:04:13.000Z</time>
      </trkpt>
      <trkpt lat="46.0379" lon="4.52728">
        <ele>618</ele>
        <time>2016-11-27T12:04:14.000Z</time>
      </trkpt>
      <trkpt lat="46.03789" lon="4.52725">
        <ele>618</ele>
        <time>2016-11-27T12:04:15.000Z</time>
      </trkpt>
      <trkpt lat="46.03788" lon="4.52722">
        <ele>618</ele>
        <time>2016-11-27T12:04:16.000Z</time>
      </trkpt>
      <trkpt lat="46.03788" lon="4.52719">
        <ele>618</ele>
        <time>2016-11-27T12:04:17.000Z</time>
      </trkpt>
      <trkpt lat="46.03787" lon="4.52716">
        <ele>618</ele>
        <time>2016-11-27T12:04:18.000Z</time>
      </trkpt>
      <trkpt lat="46.03786" lon="4.52712">
        <ele>618</ele>
        <time>2016-11-27T12:04:19.000Z</time>
      </trkpt>
      <trkpt lat="46.03786" lon="4.52709">
        <ele>619</ele>
        <time>2016-11-27T12:04:20.000Z</time>
      </trkpt>
      <trkpt lat="46.03785" lon="4.52706">
        <ele>619</ele>
        <time>2016-11-27T12:04:21.000Z</time>
      </trkpt>
      <trkpt lat="46.03785" lon="4.52703">
        <ele>619</ele>
        <time>2016-11-27T12:04:22.000Z</time>
      </trkpt>
      <trkpt lat="46.03784" lon="4.527">
        <ele>619</ele>
        <time>2016-11-27T12:04:23.000Z</time>
      </trkpt>
      <trkpt lat="46.03783" lon="4.52696">
        <ele>618</ele>
        <time>2016-11-27T12:04:24.000Z</time>
      </trkpt>
      <trkpt lat="46.03782" lon="4.52692">
        <ele>619</ele>
        <time>2016-11-27T12:04:25.000Z</time>
      </trkpt>
      <trkpt lat="46.03781" lon="4.52689">
        <ele>619</ele>
        <time>2016-11-27T12:04:26.000Z</time>
      </trkpt>
      <trkpt lat="46.03781" lon="4.52686">
        <ele>619</ele>
        <time>2016-11-27T12:04:27.000Z</time>
      </trkpt>
      <trkpt lat="46.0378" lon="4.52682">
        <ele>619</ele>
        <time>2016-11-27T12:04:28.000Z</time>
      </trkpt>
      <trkpt lat="46.03779" lon="4.52679">
        <ele>618</ele>
        <time>2016-11-27T12:04:29.000Z</time>
      </trkpt>
      <trkpt lat="46.03779" lon="4.52675">
        <ele>618</ele>
        <time>2016-11-27T12:04:30.000Z</time>
      </trkpt>
      <trkpt lat="46.03779" lon="4.52672">
        <ele>618</ele>
        <time>2016-11-27T12:04:31.000Z</time>
      </trkpt>
      <trkpt lat="46.03779" lon="4.52668">
        <ele>619</ele>
        <time>2016-11-27T12:04:32.000Z</time>
      </trkpt>
      <trkpt lat="46.03778" lon="4.52664">
        <ele>619</ele>
        <time>2016-11-27T12:04:33.000Z</time>
      </trkpt>
      <trkpt lat="46.03778" lon="4.5266">
        <ele>619</ele>
        <time>2016-11-27T12:04:34.000Z</time>
      </trkpt>
      <trkpt lat="46.03778" lon="4.52657">
        <ele>619</ele>
        <time>2016-11-27T12:04:35.000Z</time>
      </trkpt>
      <trkpt lat="46.03778" lon="4.52653">
        <ele>619</ele>
        <time>2016-11-27T12:04:36.000Z</time>
      </trkpt>
      <trkpt lat="46.03778" lon="4.5265">
        <ele>619</ele>
        <time>2016-11-27T12:04:37.000Z</time>
      </trkpt>
      <trkpt lat="46.03778" lon="4.52646">
        <ele>620</ele>
        <time>2016-11-27T12:04:38.000Z</time>
      </trkpt>
      <trkpt lat="46.03779" lon="4.52643">
        <ele>619</ele>
        <time>2016-11-27T12:04:39.000Z</time>
      </trkpt>
      <trkpt lat="46.03779" lon="4.5264">
        <ele>620</ele>
        <time>2016-11-27T12:04:40.000Z</time>
      </trkpt>
      <trkpt lat="46.0378" lon="4.52637">
        <ele>620</ele>
        <time>2016-11-27T12:04:41.000Z</time>
      </trkpt>
      <trkpt lat="46.0378" lon="4.52634">
        <ele>620</ele>
        <time>2016-11-27T12:04:42.000Z</time>
      </trkpt>
      <trkpt lat="46.03781" lon="4.52631">
        <ele>621</ele>
        <time>2016-11-27T12:04:43.000Z</time>
      </trkpt>
      <trkpt lat="46.03781" lon="4.52628">
        <ele>621</ele>
        <time>2016-11-27T12:04:44.000Z</time>
      </trkpt>
      <trkpt lat="46.03782" lon="4.52625">
        <ele>621</ele>
        <time>2016-11-27T12:04:45.000Z</time>
      </trkpt>
      <trkpt lat="46.03783" lon="4.52622">
        <ele>620</ele>
        <time>2016-11-27T12:04:46.000Z</time>
      </trkpt>
      <trkpt lat="46.03785" lon="4.5262">
        <ele>620</ele>
        <time>2016-11-27T12:04:47.000Z</time>
      </trkpt>
      <trkpt lat="46.03786" lon="4.52617">
        <ele>619</ele>
        <time>2016-11-27T12:04:48.000Z</time>
      </trkpt>
      <trkpt lat="46.03787" lon="4.52614">
        <ele>619</ele>
        <time>2016-11-27T12:04:49.000Z</time>
      </trkpt>
      <trkpt lat="46.03788" lon="4.52611">
        <ele>619</ele>
        <time>2016-11-27T12:04:50.000Z</time>
      </trkpt>
      <trkpt lat="46.03789" lon="4.52609">
        <ele>620</ele>
        <time>2016-11-27T12:04:51.000Z</time>
      </trkpt>
      <trkpt lat="46.0379" lon="4.52606">
        <ele>620</ele>
        <time>2016-11-27T12:04:52.000Z</time>
      </trkpt>
      <trkpt lat="46.03792" lon="4.52603">
        <ele>620</ele>
        <time>2016-11-27T12:04:53.000Z</time>
      </trkpt>
      <trkpt lat="46.03793" lon="4.52601">
        <ele>620</ele>
        <time>2016-11-27T12:04:54.000Z</time>
      </trkpt>
      <trkpt lat="46.03795" lon="4.52598">
        <ele>620</ele>
        <time>2016-11-27T12:04:55.000Z</time>
      </trkpt>
      <trkpt lat="46.03796" lon="4.52596">
        <ele>620</ele>
        <time>2016-11-27T12:04:56.000Z</time>
      </trkpt>
      <trkpt lat="46.03798" lon="4.52593">
        <ele>620</ele>
        <time>2016-11-27T12:04:57.000Z</time>
      </trkpt>
      <trkpt lat="46.03799" lon="4.52591">
        <ele>621</ele>
        <time>2016-11-27T12:04:58.000Z</time>
      </trkpt>
      <trkpt lat="46.03801" lon="4.52589">
        <ele>620</ele>
        <time>2016-11-27T12:04:59.000Z</time>
      </trkpt>
      <trkpt lat="46.03802" lon="4.52587">
        <ele>620</ele>
        <time>2016-11-27T12:05:00.000Z</time>
      </trkpt>
      <trkpt lat="46.03804" lon="4.52585">
        <ele>621</ele>
        <time>2016-11-27T12:05:01.000Z</time>
      </trkpt>
      <trkpt lat="46.03806" lon="4.52583">
        <ele>622</ele>
        <time>2016-11-27T12:05:02.000Z</time>
      </trkpt>
      <trkpt lat="46.03808" lon="4.52582">
        <ele>622</ele>
        <time>2016-11-27T12:05:03.000Z</time>
      </trkpt>
      <trkpt lat="46.0381" lon="4.5258">
        <ele>622</ele>
        <time>2016-11-27T12:05:04.000Z</time>
      </trkpt>
      <trkpt lat="46.03812" lon="4.52579">
        <ele>621</ele>
        <time>2016-11-27T12:05:05.000Z</time>
      </trkpt>
      <trkpt lat="46.03814" lon="4.52577">
        <ele>620</ele>
        <time>2016-11-27T12:05:06.000Z</time>
      </trkpt>
      <trkpt lat="46.03816" lon="4.52575">
        <ele>620</ele>
        <time>2016-11-27T12:05:07.000Z</time>
      </trkpt>
      <trkpt lat="46.03818" lon="4.52574">
        <ele>620</ele>
        <time>2016-11-27T12:05:08.000Z</time>
      </trkpt>
      <trkpt lat="46.0382" lon="4.52573">
        <ele>619</ele>
        <time>2016-11-27T12:05:09.000Z</time>
      </trkpt>
      <trkpt lat="46.03823" lon="4.52572">
        <ele>620</ele>
        <time>2016-11-27T12:05:10.000Z</time>
      </trkpt>
      <trkpt lat="46.03825" lon="4.52571">
        <ele>620</ele>
        <time>2016-11-27T12:05:11.000Z</time>
      </trkpt>
      <trkpt lat="46.03828" lon="4.5257">
        <ele>621</ele>
        <time>2016-11-27T12:05:12.000Z</time>
      </trkpt>
      <trkpt lat="46.0383" lon="4.52569">
        <ele>621</ele>
        <time>2016-11-27T12:05:13.000Z</time>
      </trkpt>
      <trkpt lat="46.03833" lon="4.52568">
        <ele>621</ele>
        <time>2016-11-27T12:05:14.000Z</time>
      </trkpt>
      <trkpt lat="46.03835" lon="4.52568">
        <ele>621</ele>
        <time>2016-11-27T12:05:15.000Z</time>
      </trkpt>
      <trkpt lat="46.03838" lon="4.52567">
        <ele>621</ele>
        <time>2016-11-27T12:05:16.000Z</time>
      </trkpt>
      <trkpt lat="46.0384" lon="4.52567">
        <ele>621</ele>
        <time>2016-11-27T12:05:17.000Z</time>
      </trkpt>
      <trkpt lat="46.03843" lon="4.52567">
        <ele>621</ele>
        <time>2016-11-27T12:05:18.000Z</time>
      </trkpt>
      <trkpt lat="46.03845" lon="4.52567">
        <ele>621</ele>
        <time>2016-11-27T12:05:19.000Z</time>
      </trkpt>
      <trkpt lat="46.03848" lon="4.52568">
        <ele>621</ele>
        <time>2016-11-27T12:05:20.000Z</time>
      </trkpt>
      <trkpt lat="46.03851" lon="4.52569">
        <ele>621</ele>
        <time>2016-11-27T12:05:21.000Z</time>
      </trkpt>
      <trkpt lat="46.03853" lon="4.52569">
        <ele>622</ele>
        <time>2016-11-27T12:05:22.000Z</time>
      </trkpt>
      <trkpt lat="46.03856" lon="4.5257">
        <ele>622</ele>
        <time>2016-11-27T12:05:23.000Z</time>
      </trkpt>
      <trkpt lat="46.03859" lon="4.5257">
        <ele>621</ele>
        <time>2016-11-27T12:05:24.000Z</time>
      </trkpt>
      <trkpt lat="46.03862" lon="4.52571">
        <ele>621</ele>
        <time>2016-11-27T12:05:25.000Z</time>
      </trkpt>
      <trkpt lat="46.03864" lon="4.52572">
        <ele>621</ele>
        <time>2016-11-27T12:05:26.000Z</time>
      </trkpt>
      <trkpt lat="46.03867" lon="4.52572">
        <ele>620</ele>
        <time>2016-11-27T12:05:27.000Z</time>
      </trkpt>
      <trkpt lat="46.03869" lon="4.52574">
        <ele>619</ele>
        <time>2016-11-27T12:05:28.000Z</time>
      </trkpt>
      <trkpt lat="46.03872" lon="4.52575">
        <ele>618</ele>
        <time>2016-11-27T12:05:29.000Z</time>
      </trkpt>
      <trkpt lat="46.03875" lon="4.52577">
        <ele>618</ele>
        <time>2016-11-27T12:05:30.000Z</time>
      </trkpt>
      <trkpt lat="46.03877" lon="4.52578">
        <ele>618</ele>
        <time>2016-11-27T12:05:31.000Z</time>
      </trkpt>
      <trkpt lat="46.0388" lon="4.52579">
        <ele>617</ele>
        <time>2016-11-27T12:05:32.000Z</time>
      </trkpt>
      <trkpt lat="46.03882" lon="4.5258">
        <ele>617</ele>
        <time>2016-11-27T12:05:33.000Z</time>
      </trkpt>
      <trkpt lat="46.03885" lon="4.5258">
        <ele>617</ele>
        <time>2016-11-27T12:05:34.000Z</time>
      </trkpt>
      <trkpt lat="46.03887" lon="4.52581">
        <ele>617</ele>
        <time>2016-11-27T12:05:35.000Z</time>
      </trkpt>
      <trkpt lat="46.03889" lon="4.52581">
        <ele>618</ele>
        <time>2016-11-27T12:05:36.000Z</time>
      </trkpt>
      <trkpt lat="46.03891" lon="4.52581">
        <ele>618</ele>
        <time>2016-11-27T12:05:37.000Z</time>
      </trkpt>
      <trkpt lat="46.03892" lon="4.52582">
        <ele>618</ele>
        <time>2016-11-27T12:05:38.000Z</time>
      </trkpt>
      <trkpt lat="46.03894" lon="4.52582">
        <ele>618</ele>
        <time>2016-11-27T12:05:39.000Z</time>
      </trkpt>
      <trkpt lat="46.03895" lon="4.52583">
        <ele>618</ele>
        <time>2016-11-27T12:05:40.000Z</time>
      </trkpt>
      <trkpt lat="46.03897" lon="4.52584">
        <ele>618</ele>
        <time>2016-11-27T12:05:41.000Z</time>
      </trkpt>
      <trkpt lat="46.03898" lon="4.52584">
        <ele>617</ele>
        <time>2016-11-27T12:05:42.000Z</time>
      </trkpt>
      <trkpt lat="46.039" lon="4.52584">
        <ele>616</ele>
        <time>2016-11-27T12:05:43.000Z</time>
      </trkpt>
      <trkpt lat="46.03901" lon="4.52584">
        <ele>616</ele>
        <time>2016-11-27T12:05:44.000Z</time>
      </trkpt>
      <trkpt lat="46.03903" lon="4.52585">
        <ele>616</ele>
        <time>2016-11-27T12:05:45.000Z</time>
      </trkpt>
      <trkpt lat="46.03905" lon="4.52586">
        <ele>617</ele>
        <time>2016-11-27T12:05:46.000Z</time>
      </trkpt>
      <trkpt lat="46.03907" lon="4.52586">
        <ele>616</ele>
        <time>2016-11-27T12:05:47.000Z</time>
      </trkpt>
      <trkpt lat="46.03909" lon="4.52588">
        <ele>616</ele>
        <time>2016-11-27T12:05:48.000Z</time>
      </trkpt>
      <trkpt lat="46.03911" lon="4.52589">
        <ele>616</ele>
        <time>2016-11-27T12:05:49.000Z</time>
      </trkpt>
      <trkpt lat="46.03913" lon="4.52591">
        <ele>616</ele>
        <time>2016-11-27T12:05:50.000Z</time>
      </trkpt>
      <trkpt lat="46.03915" lon="4.52593">
        <ele>617</ele>
        <time>2016-11-27T12:05:51.000Z</time>
      </trkpt>
      <trkpt lat="46.03918" lon="4.52594">
        <ele>617</ele>
        <time>2016-11-27T12:05:52.000Z</time>
      </trkpt>
      <trkpt lat="46.03921" lon="4.52595">
        <ele>618</ele>
        <time>2016-11-27T12:05:53.000Z</time>
      </trkpt>
      <trkpt lat="46.03923" lon="4.52597">
        <ele>619</ele>
        <time>2016-11-27T12:05:54.000Z</time>
      </trkpt>
      <trkpt lat="46.03926" lon="4.52599">
        <ele>620</ele>
        <time>2016-11-27T12:05:55.000Z</time>
      </trkpt>
      <trkpt lat="46.03929" lon="4.52601">
        <ele>621</ele>
        <time>2016-11-27T12:05:56.000Z</time>
      </trkpt>
      <trkpt lat="46.03932" lon="4.52602">
        <ele>623</ele>
        <time>2016-11-27T12:05:57.000Z</time>
      </trkpt>
      <trkpt lat="46.03936" lon="4.52604">
        <ele>625</ele>
        <time>2016-11-27T12:05:58.000Z</time>
      </trkpt>
      <trkpt lat="46.0394" lon="4.52605">
        <ele>625</ele>
        <time>2016-11-27T12:05:59.000Z</time>
      </trkpt>
      <trkpt lat="46.03944" lon="4.52606">
        <ele>627</ele>
        <time>2016-11-27T12:06:00.000Z</time>
      </trkpt>
      <trkpt lat="46.03947" lon="4.52608">
        <ele>628</ele>
        <time>2016-11-27T12:06:01.000Z</time>
      </trkpt>
      <trkpt lat="46.03951" lon="4.52609">
        <ele>630</ele>
        <time>2016-11-27T12:06:02.000Z</time>
      </trkpt>
      <trkpt lat="46.03954" lon="4.5261">
        <ele>631</ele>
        <time>2016-11-27T12:06:03.000Z</time>
      </trkpt>
      <trkpt lat="46.03957" lon="4.52611">
        <ele>630</ele>
        <time>2016-11-27T12:06:04.000Z</time>
      </trkpt>
      <trkpt lat="46.0396" lon="4.52612">
        <ele>628</ele>
        <time>2016-11-27T12:06:05.000Z</time>
      </trkpt>
      <trkpt lat="46.03963" lon="4.52613">
        <ele>628</ele>
        <time>2016-11-27T12:06:06.000Z</time>
      </trkpt>
      <trkpt lat="46.03966" lon="4.52615">
        <ele>628</ele>
        <time>2016-11-27T12:06:07.000Z</time>
      </trkpt>
      <trkpt lat="46.03969" lon="4.52616">
        <ele>628</ele>
        <time>2016-11-27T12:06:08.000Z</time>
      </trkpt>
      <trkpt lat="46.03971" lon="4.52618">
        <ele>626</ele>
        <time>2016-11-27T12:06:09.000Z</time>
      </trkpt>
      <trkpt lat="46.03974" lon="4.5262">
        <ele>626</ele>
        <time>2016-11-27T12:06:10.000Z</time>
      </trkpt>
      <trkpt lat="46.03977" lon="4.52622">
        <ele>625</ele>
        <time>2016-11-27T12:06:11.000Z</time>
      </trkpt>
      <trkpt lat="46.03979" lon="4.52624">
        <ele>625</ele>
        <time>2016-11-27T12:06:12.000Z</time>
      </trkpt>
      <trkpt lat="46.03982" lon="4.52627">
        <ele>625</ele>
        <time>2016-11-27T12:06:13.000Z</time>
      </trkpt>
      <trkpt lat="46.03985" lon="4.52629">
        <ele>625</ele>
        <time>2016-11-27T12:06:14.000Z</time>
      </trkpt>
      <trkpt lat="46.03987" lon="4.52632">
        <ele>625</ele>
        <time>2016-11-27T12:06:15.000Z</time>
      </trkpt>
      <trkpt lat="46.03989" lon="4.52635">
        <ele>626</ele>
        <time>2016-11-27T12:06:16.000Z</time>
      </trkpt>
      <trkpt lat="46.03992" lon="4.52637">
        <ele>626</ele>
        <time>2016-11-27T12:06:17.000Z</time>
      </trkpt>
      <trkpt lat="46.03994" lon="4.5264">
        <ele>626</ele>
        <time>2016-11-27T12:06:18.000Z</time>
      </trkpt>
      <trkpt lat="46.03997" lon="4.52642">
        <ele>627</ele>
        <time>2016-11-27T12:06:19.000Z</time>
      </trkpt>
      <trkpt lat="46.03999" lon="4.52644">
        <ele>627</ele>
        <time>2016-11-27T12:06:20.000Z</time>
      </trkpt>
      <trkpt lat="46.04002" lon="4.52646">
        <ele>626</ele>
        <time>2016-11-27T12:06:21.000Z</time>
      </trkpt>
      <trkpt lat="46.04004" lon="4.52648">
        <ele>625</ele>
        <time>2016-11-27T12:06:22.000Z</time>
      </trkpt>
      <trkpt lat="46.04006" lon="4.52651">
        <ele>623</ele>
        <time>2016-11-27T12:06:23.000Z</time>
      </trkpt>
      <trkpt lat="46.04008" lon="4.52653">
        <ele>622</ele>
        <time>2016-11-27T12:06:24.000Z</time>
      </trkpt>
      <trkpt lat="46.0401" lon="4.52656">
        <ele>621</ele>
        <time>2016-11-27T12:06:25.000Z</time>
      </trkpt>
      <trkpt lat="46.04012" lon="4.52658">
        <ele>621</ele>
        <time>2016-11-27T12:06:26.000Z</time>
      </trkpt>
      <trkpt lat="46.04014" lon="4.5266">
        <ele>621</ele>
        <time>2016-11-27T12:06:27.000Z</time>
      </trkpt>
      <trkpt lat="46.04016" lon="4.52662">
        <ele>622</ele>
        <time>2016-11-27T12:06:28.000Z</time>
      </trkpt>
      <trkpt lat="46.04019" lon="4.52664">
        <ele>622</ele>
        <time>2016-11-27T12:06:29.000Z</time>
      </trkpt>
      <trkpt lat="46.04021" lon="4.52666">
        <ele>622</ele>
        <time>2016-11-27T12:06:30.000Z</time>
      </trkpt>
      <trkpt lat="46.04023" lon="4.52669">
        <ele>622</ele>
        <time>2016-11-27T12:06:31.000Z</time>
      </trkpt>
      <trkpt lat="46.04025" lon="4.52671">
        <ele>622</ele>
        <time>2016-11-27T12:06:32.000Z</time>
      </trkpt>
      <trkpt lat="46.04027" lon="4.52674">
        <ele>623</ele>
        <time>2016-11-27T12:06:33.000Z</time>
      </trkpt>
      <trkpt lat="46.04029" lon="4.52676">
        <ele>624</ele>
        <time>2016-11-27T12:06:34.000Z</time>
      </trkpt>
      <trkpt lat="46.04031" lon="4.52679">
        <ele>624</ele>
        <time>2016-11-27T12:06:35.000Z</time>
      </trkpt>
      <trkpt lat="46.04033" lon="4.52681">
        <ele>624</ele>
        <time>2016-11-27T12:06:36.000Z</time>
      </trkpt>
      <trkpt lat="46.04035" lon="4.52684">
        <ele>625</ele>
        <time>2016-11-27T12:06:37.000Z</time>
      </trkpt>
      <trkpt lat="46.04037" lon="4.52686">
        <ele>626</ele>
        <time>2016-11-27T12:06:38.000Z</time>
      </trkpt>
      <trkpt lat="46.04039" lon="4.52689">
        <ele>625</ele>
        <time>2016-11-27T12:06:39.000Z</time>
      </trkpt>
      <trkpt lat="46.04041" lon="4.52691">
        <ele>626</ele>
        <time>2016-11-27T12:06:40.000Z</time>
      </trkpt>
      <trkpt lat="46.04043" lon="4.52693">
        <ele>627</ele>
        <time>2016-11-27T12:06:41.000Z</time>
      </trkpt>
      <trkpt lat="46.04044" lon="4.52695">
        <ele>627</ele>
        <time>2016-11-27T12:06:42.000Z</time>
      </trkpt>
      <trkpt lat="46.04046" lon="4.52696">
        <ele>628</ele>
        <time>2016-11-27T12:06:43.000Z</time>
      </trkpt>
      <trkpt lat="46.04048" lon="4.52698">
        <ele>628</ele>
        <time>2016-11-27T12:06:44.000Z</time>
      </trkpt>
      <trkpt lat="46.04051" lon="4.527">
        <ele>628</ele>
        <time>2016-11-27T12:06:45.000Z</time>
      </trkpt>
      <trkpt lat="46.04053" lon="4.52702">
        <ele>628</ele>
        <time>2016-11-27T12:06:46.000Z</time>
      </trkpt>
      <trkpt lat="46.04056" lon="4.52705">
        <ele>628</ele>
        <time>2016-11-27T12:06:47.000Z</time>
      </trkpt>
      <trkpt lat="46.04058" lon="4.52707">
        <ele>627</ele>
        <time>2016-11-27T12:06:48.000Z</time>
      </trkpt>
      <trkpt lat="46.0406" lon="4.5271">
        <ele>626</ele>
        <time>2016-11-27T12:06:49.000Z</time>
      </trkpt>
      <trkpt lat="46.04062" lon="4.52713">
        <ele>625</ele>
        <time>2016-11-27T12:06:50.000Z</time>
      </trkpt>
      <trkpt lat="46.04064" lon="4.52716">
        <ele>624</ele>
        <time>2016-11-27T12:06:51.000Z</time>
      </trkpt>
      <trkpt lat="46.04066" lon="4.52719">
        <ele>623</ele>
        <time>2016-11-27T12:06:52.000Z</time>
      </trkpt>
      <trkpt lat="46.04068" lon="4.52722">
        <ele>623</ele>
        <time>2016-11-27T12:06:53.000Z</time>
      </trkpt>
      <trkpt lat="46.0407" lon="4.52725">
        <ele>620</ele>
        <time>2016-11-27T12:06:54.000Z</time>
      </trkpt>
      <trkpt lat="46.04073" lon="4.52728">
        <ele>619</ele>
        <time>2016-11-27T12:06:55.000Z</time>
      </trkpt>
      <trkpt lat="46.04075" lon="4.52731">
        <ele>620</ele>
        <time>2016-11-27T12:06:56.000Z</time>
      </trkpt>
      <trkpt lat="46.04077" lon="4.52733">
        <ele>619</ele>
        <time>2016-11-27T12:06:57.000Z</time>
      </trkpt>
      <trkpt lat="46.04079" lon="4.52736">
        <ele>619</ele>
        <time>2016-11-27T12:06:58.000Z</time>
      </trkpt>
      <trkpt lat="46.04081" lon="4.52738">
        <ele>619</ele>
        <time>2016-11-27T12:06:59.000Z</time>
      </trkpt>
      <trkpt lat="46.04083" lon="4.52741">
        <ele>618</ele>
        <time>2016-11-27T12:07:00.000Z</time>
      </trkpt>
      <trkpt lat="46.04086" lon="4.52744">
        <ele>618</ele>
        <time>2016-11-27T12:07:01.000Z</time>
      </trkpt>
      <trkpt lat="46.04088" lon="4.52747">
        <ele>617</ele>
        <time>2016-11-27T12:07:02.000Z</time>
      </trkpt>
      <trkpt lat="46.0409" lon="4.5275">
        <ele>617</ele>
        <time>2016-11-27T12:07:03.000Z</time>
      </trkpt>
      <trkpt lat="46.04092" lon="4.52754">
        <ele>616</ele>
        <time>2016-11-27T12:07:04.000Z</time>
      </trkpt>
      <trkpt lat="46.04094" lon="4.52757">
        <ele>616</ele>
        <time>2016-11-27T12:07:05.000Z</time>
      </trkpt>
      <trkpt lat="46.04096" lon="4.5276">
        <ele>615</ele>
        <time>2016-11-27T12:07:06.000Z</time>
      </trkpt>
      <trkpt lat="46.04099" lon="4.52763">
        <ele>616</ele>
        <time>2016-11-27T12:07:07.000Z</time>
      </trkpt>
      <trkpt lat="46.04101" lon="4.52766">
        <ele>616</ele>
        <time>2016-11-27T12:07:08.000Z</time>
      </trkpt>
      <trkpt lat="46.04103" lon="4.52769">
        <ele>615</ele>
        <time>2016-11-27T12:07:09.000Z</time>
      </trkpt>
      <trkpt lat="46.04105" lon="4.52772">
        <ele>615</ele>
        <time>2016-11-27T12:07:10.000Z</time>
      </trkpt>
      <trkpt lat="46.04107" lon="4.52774">
        <ele>615</ele>
        <time>2016-11-27T12:07:11.000Z</time>
      </trkpt>
      <trkpt lat="46.0411" lon="4.52777">
        <ele>615</ele>
        <time>2016-11-27T12:07:12.000Z</time>
      </trkpt>
      <trkpt lat="46.04112" lon="4.5278">
        <ele>615</ele>
        <time>2016-11-27T12:07:13.000Z</time>
      </trkpt>
      <trkpt lat="46.04114" lon="4.52783">
        <ele>615</ele>
        <time>2016-11-27T12:07:14.000Z</time>
      </trkpt>
      <trkpt lat="46.04116" lon="4.52785">
        <ele>615</ele>
        <time>2016-11-27T12:07:15.000Z</time>
      </trkpt>
      <trkpt lat="46.04118" lon="4.52788">
        <ele>615</ele>
        <time>2016-11-27T12:07:16.000Z</time>
      </trkpt>
      <trkpt lat="46.0412" lon="4.5279">
        <ele>616</ele>
        <time>2016-11-27T12:07:17.000Z</time>
      </trkpt>
      <trkpt lat="46.04122" lon="4.52793">
        <ele>616</ele>
        <time>2016-11-27T12:07:18.000Z</time>
      </trkpt>
      <trkpt lat="46.04125" lon="4.52795">
        <ele>616</ele>
        <time>2016-11-27T12:07:19.000Z</time>
      </trkpt>
      <trkpt lat="46.04127" lon="4.52797">
        <ele>617</ele>
        <time>2016-11-27T12:07:20.000Z</time>
      </trkpt>
      <trkpt lat="46.0413" lon="4.52799">
        <ele>617</ele>
        <time>2016-11-27T12:07:21.000Z</time>
      </trkpt>
      <trkpt lat="46.04132" lon="4.52801">
        <ele>617</ele>
        <time>2016-11-27T12:07:22.000Z</time>
      </trkpt>
      <trkpt lat="46.04135" lon="4.52803">
        <ele>617</ele>
        <time>2016-11-27T12:07:23.000Z</time>
      </trkpt>
      <trkpt lat="46.04137" lon="4.52805">
        <ele>617</ele>
        <time>2016-11-27T12:07:24.000Z</time>
      </trkpt>
      <trkpt lat="46.0414" lon="4.52807">
        <ele>617</ele>
        <time>2016-11-27T12:07:25.000Z</time>
      </trkpt>
      <trkpt lat="46.04142" lon="4.52809">
        <ele>617</ele>
        <time>2016-11-27T12:07:26.000Z</time>
      </trkpt>
      <trkpt lat="46.04144" lon="4.52812">
        <ele>618</ele>
        <time>2016-11-27T12:07:27.000Z</time>
      </trkpt>
      <trkpt lat="46.04147" lon="4.52814">
        <ele>618</ele>
        <time>2016-11-27T12:07:28.000Z</time>
      </trkpt>
      <trkpt lat="46.04149" lon="4.52816">
        <ele>618</ele>
        <time>2016-11-27T12:07:29.000Z</time>
      </trkpt>
      <trkpt lat="46.04152" lon="4.52818">
        <ele>617</ele>
        <time>2016-11-27T12:07:30.000Z</time>
      </trkpt>
      <trkpt lat="46.04155" lon="4.5282">
        <ele>617</ele>
        <time>2016-11-27T12:07:31.000Z</time>
      </trkpt>
      <trkpt lat="46.04157" lon="4.52822">
        <ele>617</ele>
        <time>2016-11-27T12:07:32.000Z</time>
      </trkpt>
      <trkpt lat="46.0416" lon="4.52824">
        <ele>616</ele>
        <time>2016-11-27T12:07:33.000Z</time>
      </trkpt>
      <trkpt lat="46.04163" lon="4.52826">
        <ele>616</ele>
        <time>2016-11-27T12:07:34.000Z</time>
      </trkpt>
      <trkpt lat="46.04165" lon="4.52828">
        <ele>616</ele>
        <time>2016-11-27T12:07:35.000Z</time>
      </trkpt>
      <trkpt lat="46.04168" lon="4.5283">
        <ele>616</ele>
        <time>2016-11-27T12:07:36.000Z</time>
      </trkpt>
      <trkpt lat="46.0417" lon="4.52832">
        <ele>615</ele>
        <time>2016-11-27T12:07:37.000Z</time>
      </trkpt>
      <trkpt lat="46.04173" lon="4.52834">
        <ele>615</ele>
        <time>2016-11-27T12:07:38.000Z</time>
      </trkpt>
      <trkpt lat="46.04175" lon="4.52836">
        <ele>615</ele>
        <time>2016-11-27T12:07:39.000Z</time>
      </trkpt>
      <trkpt lat="46.04178" lon="4.52839">
        <ele>616</ele>
        <time>2016-11-27T12:07:40.000Z</time>
      </trkpt>
      <trkpt lat="46.0418" lon="4.5284">
        <ele>616</ele>
        <time>2016-11-27T12:07:41.000Z</time>
      </trkpt>
      <trkpt lat="46.04183" lon="4.52842">
        <ele>616</ele>
        <time>2016-11-27T12:07:42.000Z</time>
      </trkpt>
      <trkpt lat="46.04185" lon="4.52844">
        <ele>616</ele>
        <time>2016-11-27T12:07:43.000Z</time>
      </trkpt>
      <trkpt lat="46.04187" lon="4.52846">
        <ele>617</ele>
        <time>2016-11-27T12:07:44.000Z</time>
      </trkpt>
      <trkpt lat="46.0419" lon="4.52848">
        <ele>618</ele>
        <time>2016-11-27T12:07:45.000Z</time>
      </trkpt>
      <trkpt lat="46.04192" lon="4.5285">
        <ele>618</ele>
        <time>2016-11-27T12:07:46.000Z</time>
      </trkpt>
      <trkpt lat="46.04195" lon="4.52852">
        <ele>619</ele>
        <time>2016-11-27T12:07:47.000Z</time>
      </trkpt>
      <trkpt lat="46.04197" lon="4.52855">
        <ele>619</ele>
        <time>2016-11-27T12:07:48.000Z</time>
      </trkpt>
      <trkpt lat="46.04199" lon="4.52857">
        <ele>620</ele>
        <time>2016-11-27T12:07:49.000Z</time>
      </trkpt>
      <trkpt lat="46.04202" lon="4.52859">
        <ele>621</ele>
        <time>2016-11-27T12:07:50.000Z</time>
      </trkpt>
      <trkpt lat="46.04204" lon="4.5286">
        <ele>622</ele>
        <time>2016-11-27T12:07:51.000Z</time>
      </trkpt>
      <trkpt lat="46.04206" lon="4.52862">
        <ele>622</ele>
        <time>2016-11-27T12:07:52.000Z</time>
      </trkpt>
      <trkpt lat="46.04208" lon="4.52864">
        <ele>623</ele>
        <time>2016-11-27T12:07:53.000Z</time>
      </trkpt>
      <trkpt lat="46.0421" lon="4.52866">
        <ele>623</ele>
        <time>2016-11-27T12:07:54.000Z</time>
      </trkpt>
      <trkpt lat="46.04213" lon="4.52868">
        <ele>622</ele>
        <time>2016-11-27T12:07:55.000Z</time>
      </trkpt>
      <trkpt lat="46.04215" lon="4.52869">
        <ele>621</ele>
        <time>2016-11-27T12:07:56.000Z</time>
      </trkpt>
      <trkpt lat="46.04218" lon="4.5287">
        <ele>619</ele>
        <time>2016-11-27T12:07:57.000Z</time>
      </trkpt>
      <trkpt lat="46.0422" lon="4.5287">
        <ele>616</ele>
        <time>2016-11-27T12:07:58.000Z</time>
      </trkpt>
      <trkpt lat="46.04223" lon="4.52868">
        <ele>615</ele>
        <time>2016-11-27T12:07:59.000Z</time>
      </trkpt>
      <trkpt lat="46.04225" lon="4.52866">
        <ele>617</ele>
        <time>2016-11-27T12:08:00.000Z</time>
      </trkpt>
      <trkpt lat="46.04227" lon="4.52864">
        <ele>616</ele>
        <time>2016-11-27T12:08:01.000Z</time>
      </trkpt>
      <trkpt lat="46.04229" lon="4.52861">
        <ele>617</ele>
        <time>2016-11-27T12:08:02.000Z</time>
      </trkpt>
      <trkpt lat="46.0423" lon="4.52858">
        <ele>618</ele>
        <time>2016-11-27T12:08:03.000Z</time>
      </trkpt>
      <trkpt lat="46.04231" lon="4.52855">
        <ele>618</ele>
        <time>2016-11-27T12:08:04.000Z</time>
      </trkpt>
      <trkpt lat="46.04231" lon="4.52852">
        <ele>617</ele>
        <time>2016-11-27T12:08:05.000Z</time>
      </trkpt>
      <trkpt lat="46.04232" lon="4.5285">
        <ele>617</ele>
        <time>2016-11-27T12:08:06.000Z</time>
      </trkpt>
      <trkpt lat="46.04232" lon="4.52847">
        <ele>617</ele>
        <time>2016-11-27T12:08:07.000Z</time>
      </trkpt>
      <trkpt lat="46.04232" lon="4.52845">
        <ele>615</ele>
        <time>2016-11-27T12:08:08.000Z</time>
      </trkpt>
      <trkpt lat="46.04232" lon="4.52842">
        <ele>613</ele>
        <time>2016-11-27T12:08:09.000Z</time>
      </trkpt>
      <trkpt lat="46.04232" lon="4.5284">
        <ele>612</ele>
        <time>2016-11-27T12:08:10.000Z</time>
      </trkpt>
      <trkpt lat="46.04232" lon="4.52838">
        <ele>612</ele>
        <time>2016-11-27T12:08:11.000Z</time>
      </trkpt>
      <trkpt lat="46.04232" lon="4.52836">
        <ele>613</ele>
        <time>2016-11-27T12:08:12.000Z</time>
      </trkpt>
      <trkpt lat="46.04232" lon="4.52834">
        <ele>611</ele>
        <time>2016-11-27T12:08:13.000Z</time>
      </trkpt>
      <trkpt lat="46.04232" lon="4.52832">
        <ele>611</ele>
        <time>2016-11-27T12:08:14.000Z</time>
      </trkpt>
      <trkpt lat="46.04232" lon="4.5283">
        <ele>612</ele>
        <time>2016-11-27T12:08:15.000Z</time>
      </trkpt>
      <trkpt lat="46.04232" lon="4.52828">
        <ele>613</ele>
        <time>2016-11-27T12:08:16.000Z</time>
      </trkpt>
      <trkpt lat="46.04232" lon="4.52826">
        <ele>612</ele>
        <time>2016-11-27T12:08:17.000Z</time>
      </trkpt>
      <trkpt lat="46.04231" lon="4.52824">
        <ele>612</ele>
        <time>2016-11-27T12:08:18.000Z</time>
      </trkpt>
      <trkpt lat="46.04231" lon="4.52822">
        <ele>612</ele>
        <time>2016-11-27T12:08:19.000Z</time>
      </trkpt>
      <trkpt lat="46.04231" lon="4.5282">
        <ele>612</ele>
        <time>2016-11-27T12:08:20.000Z</time>
      </trkpt>
      <trkpt lat="46.04231" lon="4.52818">
        <ele>613</ele>
        <time>2016-11-27T12:08:21.000Z</time>
      </trkpt>
      <trkpt lat="46.04231" lon="4.52816">
        <ele>613</ele>
        <time>2016-11-27T12:08:22.000Z</time>
      </trkpt>
      <trkpt lat="46.04231" lon="4.52814">
        <ele>613</ele>
        <time>2016-11-27T12:08:23.000Z</time>
      </trkpt>
      <trkpt lat="46.04232" lon="4.52812">
        <ele>612</ele>
        <time>2016-11-27T12:08:24.000Z</time>
      </trkpt>
      <trkpt lat="46.04232" lon="4.52811">
        <ele>612</ele>
        <time>2016-11-27T12:08:25.000Z</time>
      </trkpt>
      <trkpt lat="46.04232" lon="4.52809">
        <ele>612</ele>
        <time>2016-11-27T12:08:26.000Z</time>
      </trkpt>
      <trkpt lat="46.04232" lon="4.52807">
        <ele>612</ele>
        <time>2016-11-27T12:08:27.000Z</time>
      </trkpt>
      <trkpt lat="46.04232" lon="4.52805">
        <ele>611</ele>
        <time>2016-11-27T12:08:28.000Z</time>
      </trkpt>
      <trkpt lat="46.04232" lon="4.52803">
        <ele>610</ele>
        <time>2016-11-27T12:08:29.000Z</time>
      </trkpt>
      <trkpt lat="46.04231" lon="4.52801">
        <ele>610</ele>
        <time>2016-11-27T12:08:30.000Z</time>
      </trkpt>
      <trkpt lat="46.04231" lon="4.52799">
        <ele>609</ele>
        <time>2016-11-27T12:08:31.000Z</time>
      </trkpt>
      <trkpt lat="46.04231" lon="4.52798">
        <ele>609</ele>
        <time>2016-11-27T12:08:32.000Z</time>
      </trkpt>
      <trkpt lat="46.04231" lon="4.52796">
        <ele>609</ele>
        <time>2016-11-27T12:08:33.000Z</time>
      </trkpt>
      <trkpt lat="46.04231" lon="4.52794">
        <ele>610</ele>
        <time>2016-11-27T12:08:34.000Z</time>
      </trkpt>
      <trkpt lat="46.0423" lon="4.52792">
        <ele>610</ele>
        <time>2016-11-27T12:08:35.000Z</time>
      </trkpt>
      <trkpt lat="46.0423" lon="4.5279">
        <ele>610</ele>
        <time>2016-11-27T12:08:36.000Z</time>
      </trkpt>
      <trkpt lat="46.0423" lon="4.52788">
        <ele>611</ele>
        <time>2016-11-27T12:08:37.000Z</time>
      </trkpt>
      <trkpt lat="46.0423" lon="4.52786">
        <ele>611</ele>
        <time>2016-11-27T12:08:38.000Z</time>
      </trkpt>
      <trkpt lat="46.0423" lon="4.52785">
        <ele>611</ele>
        <time>2016-11-27T12:08:39.000Z</time>
      </trkpt>
      <trkpt lat="46.0423" lon="4.52783">
        <ele>612</ele>
        <time>2016-11-27T12:08:40.000Z</time>
      </trkpt>
      <trkpt lat="46.04229" lon="4.52781">
        <ele>612</ele>
        <time>2016-11-27T12:08:41.000Z</time>
      </trkpt>
      <trkpt lat="46.04229" lon="4.5278">
        <ele>612</ele>
        <time>2016-11-27T12:08:42.000Z</time>
      </trkpt>
      <trkpt lat="46.04229" lon="4.52778">
        <ele>612</ele>
        <time>2016-11-27T12:08:43.000Z</time>
      </trkpt>
      <trkpt lat="46.04228" lon="4.52777">
        <ele>612</ele>
        <time>2016-11-27T12:08:44.000Z</time>
      </trkpt>
      <trkpt lat="46.04228" lon="4.52775">
        <ele>612</ele>
        <time>2016-11-27T12:08:45.000Z</time>
      </trkpt>
      <trkpt lat="46.04228" lon="4.52774">
        <ele>613</ele>
        <time>2016-11-27T12:08:46.000Z</time>
      </trkpt>
      <trkpt lat="46.04228" lon="4.52773">
        <ele>615</ele>
        <time>2016-11-27T12:08:47.000Z</time>
      </trkpt>
      <trkpt lat="46.04228" lon="4.52773">
        <ele>613</ele>
        <time>2016-11-27T12:08:48.000Z</time>
      </trkpt>
      <trkpt lat="46.04228" lon="4.52773">
        <ele>614</ele>
        <time>2016-11-27T12:08:49.000Z</time>
      </trkpt>
      <trkpt lat="46.04228" lon="4.52774">
        <ele>615</ele>
        <time>2016-11-27T12:08:50.000Z</time>
      </trkpt>
      <trkpt lat="46.04227" lon="4.52773">
        <ele>615</ele>
        <time>2016-11-27T12:08:51.000Z</time>
      </trkpt>
      <trkpt lat="46.04227" lon="4.52773">
        <ele>615</ele>
        <time>2016-11-27T12:08:52.000Z</time>
      </trkpt>
      <trkpt lat="46.04227" lon="4.52773">
        <ele>614</ele>
        <time>2016-11-27T12:08:53.000Z</time>
      </trkpt>
      <trkpt lat="46.04227" lon="4.52773">
        <ele>614</ele>
        <time>2016-11-27T12:08:54.000Z</time>
      </trkpt>
      <trkpt lat="46.04227" lon="4.52774">
        <ele>614</ele>
        <time>2016-11-27T12:08:55.000Z</time>
      </trkpt>
      <trkpt lat="46.04228" lon="4.52775">
        <ele>613</ele>
        <time>2016-11-27T12:08:56.000Z</time>
      </trkpt>
      <trkpt lat="46.04228" lon="4.52775">
        <ele>614</ele>
        <time>2016-11-27T12:08:57.000Z</time>
      </trkpt>
      <trkpt lat="46.04228" lon="4.52775">
        <ele>614</ele>
        <time>2016-11-27T12:08:58.000Z</time>
      </trkpt>
      <trkpt lat="46.04229" lon="4.52776">
        <ele>614</ele>
        <time>2016-11-27T12:08:59.000Z</time>
      </trkpt>
      <trkpt lat="46.04229" lon="4.52775">
        <ele>614</ele>
        <time>2016-11-27T12:09:00.000Z</time>
      </trkpt>
      <trkpt lat="46.04229" lon="4.52775">
        <ele>614</ele>
        <time>2016-11-27T12:09:01.000Z</time>
      </trkpt>
      <trkpt lat="46.04229" lon="4.52775">
        <ele>615</ele>
        <time>2016-11-27T12:09:02.000Z</time>
      </trkpt>
      <trkpt lat="46.0423" lon="4.52775">
        <ele>615</ele>
        <time>2016-11-27T12:09:03.000Z</time>
      </trkpt>
      <trkpt lat="46.0423" lon="4.52775">
        <ele>615</ele>
        <time>2016-11-27T12:09:04.000Z</time>
      </trkpt>
      <trkpt lat="46.0423" lon="4.52775">
        <ele>616</ele>
        <time>2016-11-27T12:09:05.000Z</time>
      </trkpt>
      <trkpt lat="46.0423" lon="4.52775">
        <ele>616</ele>
        <time>2016-11-27T12:09:06.000Z</time>
      </trkpt>
      <trkpt lat="46.0423" lon="4.52775">
        <ele>616</ele>
        <time>2016-11-27T12:09:07.000Z</time>
      </trkpt>
      <trkpt lat="46.0423" lon="4.52775">
        <ele>617</ele>
        <time>2016-11-27T12:09:08.000Z</time>
      </trkpt>
      <trkpt lat="46.0423" lon="4.52775">
        <ele>617</ele>
        <time>2016-11-27T12:09:09.000Z</time>
      </trkpt>
      <trkpt lat="46.0423" lon="4.52775">
        <ele>618</ele>
        <time>2016-11-27T12:09:10.000Z</time>
      </trkpt>
      <trkpt lat="46.0423" lon="4.52775">
        <ele>618</ele>
        <time>2016-11-27T12:09:11.000Z</time>
      </trkpt>
      <trkpt lat="46.0423" lon="4.52775">
        <ele>618</ele>
        <time>2016-11-27T12:09:12.000Z</time>
      </trkpt>
      <trkpt lat="46.0423" lon="4.52775">
        <ele>617</ele>
        <time>2016-11-27T12:09:13.000Z</time>
      </trkpt>
      <trkpt lat="46.0423" lon="4.52774">
        <ele>617</ele>
        <time>2016-11-27T12:09:14.000Z</time>
      </trkpt>
      <trkpt lat="46.0423" lon="4.52773">
        <ele>617</ele>
        <time>2016-11-27T12:09:15.000Z</time>
      </trkpt>
      <trkpt lat="46.0423" lon="4.52772">
        <ele>617</ele>
        <time>2016-11-27T12:09:16.000Z</time>
      </trkpt>
      <trkpt lat="46.04229" lon="4.5277">
        <ele>616</ele>
        <time>2016-11-27T12:09:17.000Z</time>
      </trkpt>
      <trkpt lat="46.04229" lon="4.52769">
        <ele>615</ele>
        <time>2016-11-27T12:09:18.000Z</time>
      </trkpt>
      <trkpt lat="46.04228" lon="4.52767">
        <ele>615</ele>
        <time>2016-11-27T12:09:19.000Z</time>
      </trkpt>
      <trkpt lat="46.04228" lon="4.52765">
        <ele>615</ele>
        <time>2016-11-27T12:09:20.000Z</time>
      </trkpt>
      <trkpt lat="46.04228" lon="4.52763">
        <ele>615</ele>
        <time>2016-11-27T12:09:21.000Z</time>
      </trkpt>
      <trkpt lat="46.04228" lon="4.52761">
        <ele>615</ele>
        <time>2016-11-27T12:09:22.000Z</time>
      </trkpt>
      <trkpt lat="46.04228" lon="4.52759">
        <ele>615</ele>
        <time>2016-11-27T12:09:23.000Z</time>
      </trkpt>
      <trkpt lat="46.04227" lon="4.52757">
        <ele>614</ele>
        <time>2016-11-27T12:09:24.000Z</time>
      </trkpt>
      <trkpt lat="46.04227" lon="4.52755">
        <ele>615</ele>
        <time>2016-11-27T12:09:25.000Z</time>
      </trkpt>
      <trkpt lat="46.04227" lon="4.52754">
        <ele>614</ele>
        <time>2016-11-27T12:09:26.000Z</time>
      </trkpt>
      <trkpt lat="46.04227" lon="4.52752">
        <ele>615</ele>
        <time>2016-11-27T12:09:27.000Z</time>
      </trkpt>
      <trkpt lat="46.04226" lon="4.5275">
        <ele>614</ele>
        <time>2016-11-27T12:09:28.000Z</time>
      </trkpt>
      <trkpt lat="46.04226" lon="4.52747">
        <ele>615</ele>
        <time>2016-11-27T12:09:29.000Z</time>
      </trkpt>
      <trkpt lat="46.04226" lon="4.52745">
        <ele>614</ele>
        <time>2016-11-27T12:09:30.000Z</time>
      </trkpt>
      <trkpt lat="46.04225" lon="4.52743">
        <ele>615</ele>
        <time>2016-11-27T12:09:31.000Z</time>
      </trkpt>
      <trkpt lat="46.04224" lon="4.52741">
        <ele>614</ele>
        <time>2016-11-27T12:09:32.000Z</time>
      </trkpt>
      <trkpt lat="46.04224" lon="4.52739">
        <ele>614</ele>
        <time>2016-11-27T12:09:33.000Z</time>
      </trkpt>
      <trkpt lat="46.04223" lon="4.52737">
        <ele>613</ele>
        <time>2016-11-27T12:09:34.000Z</time>
      </trkpt>
      <trkpt lat="46.04223" lon="4.52734">
        <ele>613</ele>
        <time>2016-11-27T12:09:35.000Z</time>
      </trkpt>
      <trkpt lat="46.04222" lon="4.52732">
        <ele>613</ele>
        <time>2016-11-27T12:09:36.000Z</time>
      </trkpt>
      <trkpt lat="46.04222" lon="4.5273">
        <ele>613</ele>
        <time>2016-11-27T12:09:37.000Z</time>
      </trkpt>
      <trkpt lat="46.04222" lon="4.52728">
        <ele>613</ele>
        <time>2016-11-27T12:09:38.000Z</time>
      </trkpt>
      <trkpt lat="46.04221" lon="4.52725">
        <ele>613</ele>
        <time>2016-11-27T12:09:39.000Z</time>
      </trkpt>
      <trkpt lat="46.04221" lon="4.52723">
        <ele>613</ele>
        <time>2016-11-27T12:09:40.000Z</time>
      </trkpt>
      <trkpt lat="46.04221" lon="4.5272">
        <ele>612</ele>
        <time>2016-11-27T12:09:41.000Z</time>
      </trkpt>
      <trkpt lat="46.04221" lon="4.52717">
        <ele>612</ele>
        <time>2016-11-27T12:09:42.000Z</time>
      </trkpt>
      <trkpt lat="46.04221" lon="4.52715">
        <ele>612</ele>
        <time>2016-11-27T12:09:43.000Z</time>
      </trkpt>
      <trkpt lat="46.04221" lon="4.52712">
        <ele>612</ele>
        <time>2016-11-27T12:09:44.000Z</time>
      </trkpt>
      <trkpt lat="46.0422" lon="4.5271">
        <ele>613</ele>
        <time>2016-11-27T12:09:45.000Z</time>
      </trkpt>
      <trkpt lat="46.0422" lon="4.52707">
        <ele>613</ele>
        <time>2016-11-27T12:09:46.000Z</time>
      </trkpt>
      <trkpt lat="46.0422" lon="4.52705">
        <ele>613</ele>
        <time>2016-11-27T12:09:47.000Z</time>
      </trkpt>
      <trkpt lat="46.04219" lon="4.52702">
        <ele>613</ele>
        <time>2016-11-27T12:09:48.000Z</time>
      </trkpt>
      <trkpt lat="46.04219" lon="4.527">
        <ele>613</ele>
        <time>2016-11-27T12:09:49.000Z</time>
      </trkpt>
      <trkpt lat="46.04219" lon="4.52698">
        <ele>612</ele>
        <time>2016-11-27T12:09:50.000Z</time>
      </trkpt>
      <trkpt lat="46.04219" lon="4.52695">
        <ele>613</ele>
        <time>2016-11-27T12:09:51.000Z</time>
      </trkpt>
      <trkpt lat="46.04219" lon="4.52693">
        <ele>613</ele>
        <time>2016-11-27T12:09:52.000Z</time>
      </trkpt>
      <trkpt lat="46.04219" lon="4.52691">
        <ele>613</ele>
        <time>2016-11-27T12:09:53.000Z</time>
      </trkpt>
      <trkpt lat="46.04218" lon="4.52688">
        <ele>613</ele>
        <time>2016-11-27T12:09:54.000Z</time>
      </trkpt>
      <trkpt lat="46.04218" lon="4.52686">
        <ele>613</ele>
        <time>2016-11-27T12:09:55.000Z</time>
      </trkpt>
      <trkpt lat="46.04218" lon="4.52683">
        <ele>613</ele>
        <time>2016-11-27T12:09:56.000Z</time>
      </trkpt>
      <trkpt lat="46.04218" lon="4.5268">
        <ele>613</ele>
        <time>2016-11-27T12:09:57.000Z</time>
      </trkpt>
      <trkpt lat="46.04217" lon="4.52676">
        <ele>613</ele>
        <time>2016-11-27T12:09:58.000Z</time>
      </trkpt>
      <trkpt lat="46.04217" lon="4.52672">
        <ele>614</ele>
        <time>2016-11-27T12:09:59.000Z</time>
      </trkpt>
      <trkpt lat="46.04217" lon="4.52668">
        <ele>614</ele>
        <time>2016-11-27T12:10:00.000Z</time>
      </trkpt>
      <trkpt lat="46.04217" lon="4.52664">
        <ele>614</ele>
        <time>2016-11-27T12:10:01.000Z</time>
      </trkpt>
      <trkpt lat="46.04217" lon="4.52661">
        <ele>614</ele>
        <time>2016-11-27T12:10:02.000Z</time>
      </trkpt>
      <trkpt lat="46.04217" lon="4.52657">
        <ele>614</ele>
        <time>2016-11-27T12:10:03.000Z</time>
      </trkpt>
      <trkpt lat="46.04217" lon="4.52653">
        <ele>614</ele>
        <time>2016-11-27T12:10:04.000Z</time>
      </trkpt>
      <trkpt lat="46.04216" lon="4.5265">
        <ele>614</ele>
        <time>2016-11-27T12:10:05.000Z</time>
      </trkpt>
      <trkpt lat="46.04216" lon="4.52646">
        <ele>614</ele>
        <time>2016-11-27T12:10:06.000Z</time>
      </trkpt>
      <trkpt lat="46.04216" lon="4.52643">
        <ele>614</ele>
        <time>2016-11-27T12:10:07.000Z</time>
      </trkpt>
      <trkpt lat="46.04216" lon="4.52639">
        <ele>615</ele>
        <time>2016-11-27T12:10:08.000Z</time>
      </trkpt>
      <trkpt lat="46.04216" lon="4.52636">
        <ele>614</ele>
        <time>2016-11-27T12:10:09.000Z</time>
      </trkpt>
      <trkpt lat="46.04216" lon="4.52632">
        <ele>615</ele>
        <time>2016-11-27T12:10:10.000Z</time>
      </trkpt>
      <trkpt lat="46.04216" lon="4.52629">
        <ele>615</ele>
        <time>2016-11-27T12:10:11.000Z</time>
      </trkpt>
      <trkpt lat="46.04216" lon="4.52624">
        <ele>615</ele>
        <time>2016-11-27T12:10:12.000Z</time>
      </trkpt>
      <trkpt lat="46.04215" lon="4.52621">
        <ele>615</ele>
        <time>2016-11-27T12:10:13.000Z</time>
      </trkpt>
      <trkpt lat="46.04215" lon="4.52616">
        <ele>615</ele>
        <time>2016-11-27T12:10:14.000Z</time>
      </trkpt>
      <trkpt lat="46.04215" lon="4.52613">
        <ele>615</ele>
        <time>2016-11-27T12:10:15.000Z</time>
      </trkpt>
      <trkpt lat="46.04215" lon="4.52609">
        <ele>615</ele>
        <time>2016-11-27T12:10:16.000Z</time>
      </trkpt>
      <trkpt lat="46.04215" lon="4.52605">
        <ele>615</ele>
        <time>2016-11-27T12:10:17.000Z</time>
      </trkpt>
      <trkpt lat="46.04214" lon="4.52601">
        <ele>615</ele>
        <time>2016-11-27T12:10:18.000Z</time>
      </trkpt>
      <trkpt lat="46.04214" lon="4.52598">
        <ele>616</ele>
        <time>2016-11-27T12:10:19.000Z</time>
      </trkpt>
      <trkpt lat="46.04213" lon="4.52594">
        <ele>616</ele>
        <time>2016-11-27T12:10:20.000Z</time>
      </trkpt>
      <trkpt lat="46.04213" lon="4.52591">
        <ele>617</ele>
        <time>2016-11-27T12:10:21.000Z</time>
      </trkpt>
      <trkpt lat="46.04213" lon="4.52587">
        <ele>618</ele>
        <time>2016-11-27T12:10:22.000Z</time>
      </trkpt>
      <trkpt lat="46.04212" lon="4.52584">
        <ele>618</ele>
        <time>2016-11-27T12:10:23.000Z</time>
      </trkpt>
      <trkpt lat="46.04212" lon="4.5258">
        <ele>618</ele>
        <time>2016-11-27T12:10:24.000Z</time>
      </trkpt>
      <trkpt lat="46.04213" lon="4.52576">
        <ele>619</ele>
        <time>2016-11-27T12:10:25.000Z</time>
      </trkpt>
      <trkpt lat="46.04213" lon="4.52573">
        <ele>620</ele>
        <time>2016-11-27T12:10:26.000Z</time>
      </trkpt>
      <trkpt lat="46.04213" lon="4.52569">
        <ele>620</ele>
        <time>2016-11-27T12:10:27.000Z</time>
      </trkpt>
      <trkpt lat="46.04213" lon="4.52565">
        <ele>619</ele>
        <time>2016-11-27T12:10:28.000Z</time>
      </trkpt>
      <trkpt lat="46.04213" lon="4.52561">
        <ele>619</ele>
        <time>2016-11-27T12:10:29.000Z</time>
      </trkpt>
      <trkpt lat="46.04213" lon="4.52557">
        <ele>620</ele>
        <time>2016-11-27T12:10:30.000Z</time>
      </trkpt>
      <trkpt lat="46.04213" lon="4.52552">
        <ele>620</ele>
        <time>2016-11-27T12:10:31.000Z</time>
      </trkpt>
      <trkpt lat="46.04213" lon="4.52548">
        <ele>620</ele>
        <time>2016-11-27T12:10:32.000Z</time>
      </trkpt>
      <trkpt lat="46.04213" lon="4.52544">
        <ele>620</ele>
        <time>2016-11-27T12:10:33.000Z</time>
      </trkpt>
      <trkpt lat="46.04214" lon="4.52539">
        <ele>620</ele>
        <time>2016-11-27T12:10:34.000Z</time>
      </trkpt>
      <trkpt lat="46.04214" lon="4.52535">
        <ele>620</ele>
        <time>2016-11-27T12:10:35.000Z</time>
      </trkpt>
      <trkpt lat="46.04215" lon="4.52531">
        <ele>620</ele>
        <time>2016-11-27T12:10:36.000Z</time>
      </trkpt>
      <trkpt lat="46.04216" lon="4.52527">
        <ele>620</ele>
        <time>2016-11-27T12:10:37.000Z</time>
      </trkpt>
      <trkpt lat="46.04216" lon="4.52523">
        <ele>621</ele>
        <time>2016-11-27T12:10:38.000Z</time>
      </trkpt>
      <trkpt lat="46.04217" lon="4.52519">
        <ele>621</ele>
        <time>2016-11-27T12:10:39.000Z</time>
      </trkpt>
      <trkpt lat="46.04218" lon="4.52515">
        <ele>622</ele>
        <time>2016-11-27T12:10:40.000Z</time>
      </trkpt>
      <trkpt lat="46.04219" lon="4.52511">
        <ele>622</ele>
        <time>2016-11-27T12:10:41.000Z</time>
      </trkpt>
      <trkpt lat="46.0422" lon="4.52507">
        <ele>623</ele>
        <time>2016-11-27T12:10:42.000Z</time>
      </trkpt>
      <trkpt lat="46.04221" lon="4.52504">
        <ele>623</ele>
        <time>2016-11-27T12:10:43.000Z</time>
      </trkpt>
      <trkpt lat="46.04223" lon="4.52501">
        <ele>623</ele>
        <time>2016-11-27T12:10:44.000Z</time>
      </trkpt>
      <trkpt lat="46.04224" lon="4.52498">
        <ele>624</ele>
        <time>2016-11-27T12:10:45.000Z</time>
      </trkpt>
      <trkpt lat="46.04225" lon="4.52495">
        <ele>624</ele>
        <time>2016-11-27T12:10:46.000Z</time>
      </trkpt>
      <trkpt lat="46.04227" lon="4.52492">
        <ele>623</ele>
        <time>2016-11-27T12:10:47.000Z</time>
      </trkpt>
      <trkpt lat="46.04229" lon="4.52489">
        <ele>622</ele>
        <time>2016-11-27T12:10:48.000Z</time>
      </trkpt>
      <trkpt lat="46.04231" lon="4.52486">
        <ele>622</ele>
        <time>2016-11-27T12:10:49.000Z</time>
      </trkpt>
      <trkpt lat="46.04232" lon="4.52484">
        <ele>623</ele>
        <time>2016-11-27T12:10:50.000Z</time>
      </trkpt>
      <trkpt lat="46.04234" lon="4.52481">
        <ele>622</ele>
        <time>2016-11-27T12:10:51.000Z</time>
      </trkpt>
      <trkpt lat="46.04235" lon="4.52477">
        <ele>623</ele>
        <time>2016-11-27T12:10:52.000Z</time>
      </trkpt>
      <trkpt lat="46.04236" lon="4.52474">
        <ele>623</ele>
        <time>2016-11-27T12:10:53.000Z</time>
      </trkpt>
      <trkpt lat="46.04237" lon="4.52471">
        <ele>622</ele>
        <time>2016-11-27T12:10:54.000Z</time>
      </trkpt>
      <trkpt lat="46.04237" lon="4.52467">
        <ele>622</ele>
        <time>2016-11-27T12:10:55.000Z</time>
      </trkpt>
      <trkpt lat="46.04238" lon="4.52464">
        <ele>622</ele>
        <time>2016-11-27T12:10:56.000Z</time>
      </trkpt>
      <trkpt lat="46.04239" lon="4.52461">
        <ele>622</ele>
        <time>2016-11-27T12:10:57.000Z</time>
      </trkpt>
      <trkpt lat="46.04239" lon="4.52457">
        <ele>622</ele>
        <time>2016-11-27T12:10:58.000Z</time>
      </trkpt>
      <trkpt lat="46.04238" lon="4.52454">
        <ele>621</ele>
        <time>2016-11-27T12:10:59.000Z</time>
      </trkpt>
      <trkpt lat="46.04238" lon="4.5245">
        <ele>622</ele>
        <time>2016-11-27T12:11:00.000Z</time>
      </trkpt>
      <trkpt lat="46.04238" lon="4.52446">
        <ele>623</ele>
        <time>2016-11-27T12:11:01.000Z</time>
      </trkpt>
      <trkpt lat="46.04237" lon="4.52442">
        <ele>622</ele>
        <time>2016-11-27T12:11:02.000Z</time>
      </trkpt>
      <trkpt lat="46.04237" lon="4.52439">
        <ele>623</ele>
        <time>2016-11-27T12:11:03.000Z</time>
      </trkpt>
      <trkpt lat="46.04236" lon="4.52436">
        <ele>623</ele>
        <time>2016-11-27T12:11:04.000Z</time>
      </trkpt>
      <trkpt lat="46.04236" lon="4.52433">
        <ele>623</ele>
        <time>2016-11-27T12:11:05.000Z</time>
      </trkpt>
      <trkpt lat="46.04235" lon="4.5243">
        <ele>624</ele>
        <time>2016-11-27T12:11:06.000Z</time>
      </trkpt>
      <trkpt lat="46.04234" lon="4.52426">
        <ele>625</ele>
        <time>2016-11-27T12:11:07.000Z</time>
      </trkpt>
      <trkpt lat="46.04233" lon="4.52423">
        <ele>626</ele>
        <time>2016-11-27T12:11:08.000Z</time>
      </trkpt>
      <trkpt lat="46.04232" lon="4.5242">
        <ele>626</ele>
        <time>2016-11-27T12:11:09.000Z</time>
      </trkpt>
      <trkpt lat="46.04231" lon="4.52417">
        <ele>626</ele>
        <time>2016-11-27T12:11:10.000Z</time>
      </trkpt>
      <trkpt lat="46.0423" lon="4.52415">
        <ele>627</ele>
        <time>2016-11-27T12:11:11.000Z</time>
      </trkpt>
      <trkpt lat="46.04229" lon="4.52412">
        <ele>626</ele>
        <time>2016-11-27T12:11:12.000Z</time>
      </trkpt>
      <trkpt lat="46.04228" lon="4.52409">
        <ele>627</ele>
        <time>2016-11-27T12:11:13.000Z</time>
      </trkpt>
      <trkpt lat="46.04227" lon="4.52406">
        <ele>627</ele>
        <time>2016-11-27T12:11:14.000Z</time>
      </trkpt>
      <trkpt lat="46.04226" lon="4.52403">
        <ele>627</ele>
        <time>2016-11-27T12:11:15.000Z</time>
      </trkpt>
      <trkpt lat="46.04225" lon="4.524">
        <ele>627</ele>
        <time>2016-11-27T12:11:16.000Z</time>
      </trkpt>
      <trkpt lat="46.04224" lon="4.52397">
        <ele>627</ele>
        <time>2016-11-27T12:11:17.000Z</time>
      </trkpt>
      <trkpt lat="46.04224" lon="4.52395">
        <ele>628</ele>
        <time>2016-11-27T12:11:18.000Z</time>
      </trkpt>
      <trkpt lat="46.04223" lon="4.52393">
        <ele>627</ele>
        <time>2016-11-27T12:11:19.000Z</time>
      </trkpt>
      <trkpt lat="46.04221" lon="4.52391">
        <ele>628</ele>
        <time>2016-11-27T12:11:20.000Z</time>
      </trkpt>
      <trkpt lat="46.0422" lon="4.52388">
        <ele>628</ele>
        <time>2016-11-27T12:11:21.000Z</time>
      </trkpt>
      <trkpt lat="46.04219" lon="4.52386">
        <ele>629</ele>
        <time>2016-11-27T12:11:22.000Z</time>
      </trkpt>
      <trkpt lat="46.04217" lon="4.52384">
        <ele>630</ele>
        <time>2016-11-27T12:11:23.000Z</time>
      </trkpt>
      <trkpt lat="46.04216" lon="4.52382">
        <ele>631</ele>
        <time>2016-11-27T12:11:24.000Z</time>
      </trkpt>
      <trkpt lat="46.04214" lon="4.5238">
        <ele>631</ele>
        <time>2016-11-27T12:11:25.000Z</time>
      </trkpt>
      <trkpt lat="46.04213" lon="4.52377">
        <ele>632</ele>
        <time>2016-11-27T12:11:26.000Z</time>
      </trkpt>
      <trkpt lat="46.04211" lon="4.52375">
        <ele>634</ele>
        <time>2016-11-27T12:11:27.000Z</time>
      </trkpt>
      <trkpt lat="46.04209" lon="4.52373">
        <ele>634</ele>
        <time>2016-11-27T12:11:28.000Z</time>
      </trkpt>
      <trkpt lat="46.04208" lon="4.52371">
        <ele>634</ele>
        <time>2016-11-27T12:11:29.000Z</time>
      </trkpt>
      <trkpt lat="46.04206" lon="4.52368">
        <ele>635</ele>
        <time>2016-11-27T12:11:30.000Z</time>
      </trkpt>
      <trkpt lat="46.04205" lon="4.52366">
        <ele>635</ele>
        <time>2016-11-27T12:11:31.000Z</time>
      </trkpt>
      <trkpt lat="46.04203" lon="4.52364">
        <ele>637</ele>
        <time>2016-11-27T12:11:32.000Z</time>
      </trkpt>
      <trkpt lat="46.04201" lon="4.52362">
        <ele>637</ele>
        <time>2016-11-27T12:11:33.000Z</time>
      </trkpt>
      <trkpt lat="46.042" lon="4.5236">
        <ele>639</ele>
        <time>2016-11-27T12:11:34.000Z</time>
      </trkpt>
      <trkpt lat="46.04198" lon="4.52358">
        <ele>639</ele>
        <time>2016-11-27T12:11:35.000Z</time>
      </trkpt>
      <trkpt lat="46.04197" lon="4.52356">
        <ele>640</ele>
        <time>2016-11-27T12:11:36.000Z</time>
      </trkpt>
      <trkpt lat="46.04195" lon="4.52354">
        <ele>640</ele>
        <time>2016-11-27T12:11:37.000Z</time>
      </trkpt>
      <trkpt lat="46.04194" lon="4.52351">
        <ele>640</ele>
        <time>2016-11-27T12:11:38.000Z</time>
      </trkpt>
      <trkpt lat="46.04193" lon="4.52349">
        <ele>641</ele>
        <time>2016-11-27T12:11:39.000Z</time>
      </trkpt>
      <trkpt lat="46.04191" lon="4.52346">
        <ele>641</ele>
        <time>2016-11-27T12:11:40.000Z</time>
      </trkpt>
      <trkpt lat="46.0419" lon="4.52343">
        <ele>641</ele>
        <time>2016-11-27T12:11:41.000Z</time>
      </trkpt>
      <trkpt lat="46.04189" lon="4.5234">
        <ele>641</ele>
        <time>2016-11-27T12:11:42.000Z</time>
      </trkpt>
      <trkpt lat="46.04187" lon="4.52336">
        <ele>644</ele>
        <time>2016-11-27T12:11:43.000Z</time>
      </trkpt>
      <trkpt lat="46.04186" lon="4.52334">
        <ele>644</ele>
        <time>2016-11-27T12:11:44.000Z</time>
      </trkpt>
      <trkpt lat="46.04185" lon="4.52331">
        <ele>644</ele>
        <time>2016-11-27T12:11:45.000Z</time>
      </trkpt>
      <trkpt lat="46.04184" lon="4.52328">
        <ele>644</ele>
        <time>2016-11-27T12:11:46.000Z</time>
      </trkpt>
      <trkpt lat="46.04183" lon="4.52325">
        <ele>644</ele>
        <time>2016-11-27T12:11:47.000Z</time>
      </trkpt>
      <trkpt lat="46.04182" lon="4.52323">
        <ele>644</ele>
        <time>2016-11-27T12:11:48.000Z</time>
      </trkpt>
      <trkpt lat="46.04181" lon="4.5232">
        <ele>644</ele>
        <time>2016-11-27T12:11:49.000Z</time>
      </trkpt>
      <trkpt lat="46.0418" lon="4.52317">
        <ele>644</ele>
        <time>2016-11-27T12:11:50.000Z</time>
      </trkpt>
      <trkpt lat="46.04179" lon="4.52314">
        <ele>644</ele>
        <time>2016-11-27T12:11:51.000Z</time>
      </trkpt>
      <trkpt lat="46.04178" lon="4.52312">
        <ele>643</ele>
        <time>2016-11-27T12:11:52.000Z</time>
      </trkpt>
      <trkpt lat="46.04178" lon="4.52309">
        <ele>643</ele>
        <time>2016-11-27T12:11:53.000Z</time>
      </trkpt>
      <trkpt lat="46.04177" lon="4.52306">
        <ele>643</ele>
        <time>2016-11-27T12:11:54.000Z</time>
      </trkpt>
      <trkpt lat="46.04176" lon="4.52303">
        <ele>643</ele>
        <time>2016-11-27T12:11:55.000Z</time>
      </trkpt>
      <trkpt lat="46.04175" lon="4.52301">
        <ele>644</ele>
        <time>2016-11-27T12:11:56.000Z</time>
      </trkpt>
      <trkpt lat="46.04174" lon="4.52299">
        <ele>644</ele>
        <time>2016-11-27T12:11:57.000Z</time>
      </trkpt>
      <trkpt lat="46.04173" lon="4.52296">
        <ele>643</ele>
        <time>2016-11-27T12:11:58.000Z</time>
      </trkpt>
      <trkpt lat="46.04172" lon="4.52293">
        <ele>643</ele>
        <time>2016-11-27T12:11:59.000Z</time>
      </trkpt>
      <trkpt lat="46.04171" lon="4.5229">
        <ele>643</ele>
        <time>2016-11-27T12:12:00.000Z</time>
      </trkpt>
      <trkpt lat="46.0417" lon="4.52288">
        <ele>642</ele>
        <time>2016-11-27T12:12:01.000Z</time>
      </trkpt>
      <trkpt lat="46.0417" lon="4.52285">
        <ele>642</ele>
        <time>2016-11-27T12:12:02.000Z</time>
      </trkpt>
      <trkpt lat="46.04169" lon="4.52283">
        <ele>642</ele>
        <time>2016-11-27T12:12:03.000Z</time>
      </trkpt>
      <trkpt lat="46.04168" lon="4.52281">
        <ele>642</ele>
        <time>2016-11-27T12:12:04.000Z</time>
      </trkpt>
      <trkpt lat="46.04167" lon="4.52278">
        <ele>642</ele>
        <time>2016-11-27T12:12:05.000Z</time>
      </trkpt>
      <trkpt lat="46.04166" lon="4.52275">
        <ele>642</ele>
        <time>2016-11-27T12:12:06.000Z</time>
      </trkpt>
      <trkpt lat="46.04164" lon="4.52272">
        <ele>643</ele>
        <time>2016-11-27T12:12:07.000Z</time>
      </trkpt>
      <trkpt lat="46.04163" lon="4.52269">
        <ele>642</ele>
        <time>2016-11-27T12:12:08.000Z</time>
      </trkpt>
      <trkpt lat="46.04162" lon="4.52266">
        <ele>643</ele>
        <time>2016-11-27T12:12:09.000Z</time>
      </trkpt>
      <trkpt lat="46.04161" lon="4.52263">
        <ele>643</ele>
        <time>2016-11-27T12:12:10.000Z</time>
      </trkpt>
      <trkpt lat="46.0416" lon="4.52261">
        <ele>644</ele>
        <time>2016-11-27T12:12:11.000Z</time>
      </trkpt>
      <trkpt lat="46.04159" lon="4.52258">
        <ele>645</ele>
        <time>2016-11-27T12:12:12.000Z</time>
      </trkpt>
      <trkpt lat="46.04158" lon="4.52255">
        <ele>645</ele>
        <time>2016-11-27T12:12:13.000Z</time>
      </trkpt>
      <trkpt lat="46.04157" lon="4.52252">
        <ele>646</ele>
        <time>2016-11-27T12:12:14.000Z</time>
      </trkpt>
      <trkpt lat="46.04156" lon="4.5225">
        <ele>648</ele>
        <time>2016-11-27T12:12:15.000Z</time>
      </trkpt>
      <trkpt lat="46.04155" lon="4.52247">
        <ele>648</ele>
        <time>2016-11-27T12:12:16.000Z</time>
      </trkpt>
      <trkpt lat="46.04153" lon="4.52244">
        <ele>650</ele>
        <time>2016-11-27T12:12:17.000Z</time>
      </trkpt>
      <trkpt lat="46.04152" lon="4.52241">
        <ele>651</ele>
        <time>2016-11-27T12:12:18.000Z</time>
      </trkpt>
      <trkpt lat="46.0415" lon="4.52238">
        <ele>651</ele>
        <time>2016-11-27T12:12:19.000Z</time>
      </trkpt>
      <trkpt lat="46.04149" lon="4.52235">
        <ele>650</ele>
        <time>2016-11-27T12:12:20.000Z</time>
      </trkpt>
      <trkpt lat="46.04148" lon="4.52231">
        <ele>651</ele>
        <time>2016-11-27T12:12:21.000Z</time>
      </trkpt>
      <trkpt lat="46.04148" lon="4.52228">
        <ele>651</ele>
        <time>2016-11-27T12:12:22.000Z</time>
      </trkpt>
      <trkpt lat="46.04147" lon="4.52224">
        <ele>652</ele>
        <time>2016-11-27T12:12:23.000Z</time>
      </trkpt>
      <trkpt lat="46.04146" lon="4.5222">
        <ele>652</ele>
        <time>2016-11-27T12:12:24.000Z</time>
      </trkpt>
      <trkpt lat="46.04145" lon="4.52217">
        <ele>651</ele>
        <time>2016-11-27T12:12:25.000Z</time>
      </trkpt>
      <trkpt lat="46.04144" lon="4.52213">
        <ele>651</ele>
        <time>2016-11-27T12:12:26.000Z</time>
      </trkpt>
      <trkpt lat="46.04144" lon="4.5221">
        <ele>650</ele>
        <time>2016-11-27T12:12:27.000Z</time>
      </trkpt>
      <trkpt lat="46.04143" lon="4.52207">
        <ele>650</ele>
        <time>2016-11-27T12:12:28.000Z</time>
      </trkpt>
      <trkpt lat="46.04142" lon="4.52205">
        <ele>650</ele>
        <time>2016-11-27T12:12:29.000Z</time>
      </trkpt>
      <trkpt lat="46.04141" lon="4.52202">
        <ele>650</ele>
        <time>2016-11-27T12:12:30.000Z</time>
      </trkpt>
      <trkpt lat="46.04139" lon="4.52199">
        <ele>649</ele>
        <time>2016-11-27T12:12:31.000Z</time>
      </trkpt>
      <trkpt lat="46.04138" lon="4.52196">
        <ele>649</ele>
        <time>2016-11-27T12:12:32.000Z</time>
      </trkpt>
      <trkpt lat="46.04138" lon="4.52192">
        <ele>648</ele>
        <time>2016-11-27T12:12:33.000Z</time>
      </trkpt>
      <trkpt lat="46.04137" lon="4.52187">
        <ele>648</ele>
        <time>2016-11-27T12:12:34.000Z</time>
      </trkpt>
      <trkpt lat="46.04136" lon="4.52184">
        <ele>647</ele>
        <time>2016-11-27T12:12:35.000Z</time>
      </trkpt>
      <trkpt lat="46.04136" lon="4.5218">
        <ele>648</ele>
        <time>2016-11-27T12:12:36.000Z</time>
      </trkpt>
      <trkpt lat="46.04135" lon="4.52177">
        <ele>647</ele>
        <time>2016-11-27T12:12:37.000Z</time>
      </trkpt>
      <trkpt lat="46.04133" lon="4.52174">
        <ele>649</ele>
        <time>2016-11-27T12:12:38.000Z</time>
      </trkpt>
      <trkpt lat="46.04132" lon="4.52171">
        <ele>648</ele>
        <time>2016-11-27T12:12:39.000Z</time>
      </trkpt>
      <trkpt lat="46.04131" lon="4.52168">
        <ele>649</ele>
        <time>2016-11-27T12:12:40.000Z</time>
      </trkpt>
      <trkpt lat="46.0413" lon="4.52166">
        <ele>649</ele>
        <time>2016-11-27T12:12:41.000Z</time>
      </trkpt>
      <trkpt lat="46.04129" lon="4.52163">
        <ele>649</ele>
        <time>2016-11-27T12:12:42.000Z</time>
      </trkpt>
      <trkpt lat="46.04128" lon="4.52161">
        <ele>649</ele>
        <time>2016-11-27T12:12:43.000Z</time>
      </trkpt>
      <trkpt lat="46.04126" lon="4.52158">
        <ele>649</ele>
        <time>2016-11-27T12:12:44.000Z</time>
      </trkpt>
      <trkpt lat="46.04125" lon="4.52156">
        <ele>649</ele>
        <time>2016-11-27T12:12:45.000Z</time>
      </trkpt>
      <trkpt lat="46.04124" lon="4.52153">
        <ele>650</ele>
        <time>2016-11-27T12:12:46.000Z</time>
      </trkpt>
      <trkpt lat="46.04122" lon="4.52151">
        <ele>650</ele>
        <time>2016-11-27T12:12:47.000Z</time>
      </trkpt>
      <trkpt lat="46.04121" lon="4.52148">
        <ele>649</ele>
        <time>2016-11-27T12:12:48.000Z</time>
      </trkpt>
      <trkpt lat="46.0412" lon="4.52144">
        <ele>648</ele>
        <time>2016-11-27T12:12:49.000Z</time>
      </trkpt>
      <trkpt lat="46.0412" lon="4.5214">
        <ele>647</ele>
        <time>2016-11-27T12:12:50.000Z</time>
      </trkpt>
      <trkpt lat="46.0412" lon="4.52137">
        <ele>646</ele>
        <time>2016-11-27T12:12:51.000Z</time>
      </trkpt>
      <trkpt lat="46.04119" lon="4.52133">
        <ele>646</ele>
        <time>2016-11-27T12:12:52.000Z</time>
      </trkpt>
      <trkpt lat="46.04119" lon="4.5213">
        <ele>646</ele>
        <time>2016-11-27T12:12:53.000Z</time>
      </trkpt>
      <trkpt lat="46.04118" lon="4.52127">
        <ele>645</ele>
        <time>2016-11-27T12:12:54.000Z</time>
      </trkpt>
      <trkpt lat="46.04118" lon="4.52123">
        <ele>643</ele>
        <time>2016-11-27T12:12:55.000Z</time>
      </trkpt>
      <trkpt lat="46.04118" lon="4.5212">
        <ele>643</ele>
        <time>2016-11-27T12:12:56.000Z</time>
      </trkpt>
      <trkpt lat="46.04117" lon="4.52116">
        <ele>643</ele>
        <time>2016-11-27T12:12:57.000Z</time>
      </trkpt>
      <trkpt lat="46.04117" lon="4.52113">
        <ele>644</ele>
        <time>2016-11-27T12:12:58.000Z</time>
      </trkpt>
      <trkpt lat="46.04116" lon="4.52109">
        <ele>644</ele>
        <time>2016-11-27T12:12:59.000Z</time>
      </trkpt>
      <trkpt lat="46.04115" lon="4.52106">
        <ele>644</ele>
        <time>2016-11-27T12:13:00.000Z</time>
      </trkpt>
      <trkpt lat="46.04115" lon="4.52103">
        <ele>644</ele>
        <time>2016-11-27T12:13:01.000Z</time>
      </trkpt>
      <trkpt lat="46.04115" lon="4.52099">
        <ele>645</ele>
        <time>2016-11-27T12:13:02.000Z</time>
      </trkpt>
      <trkpt lat="46.04114" lon="4.52096">
        <ele>645</ele>
        <time>2016-11-27T12:13:03.000Z</time>
      </trkpt>
      <trkpt lat="46.04113" lon="4.52092">
        <ele>645</ele>
        <time>2016-11-27T12:13:04.000Z</time>
      </trkpt>
      <trkpt lat="46.04113" lon="4.52089">
        <ele>644</ele>
        <time>2016-11-27T12:13:05.000Z</time>
      </trkpt>
      <trkpt lat="46.04113" lon="4.52085">
        <ele>644</ele>
        <time>2016-11-27T12:13:06.000Z</time>
      </trkpt>
      <trkpt lat="46.04114" lon="4.52082">
        <ele>644</ele>
        <time>2016-11-27T12:13:07.000Z</time>
      </trkpt>
      <trkpt lat="46.04114" lon="4.52079">
        <ele>644</ele>
        <time>2016-11-27T12:13:08.000Z</time>
      </trkpt>
      <trkpt lat="46.04114" lon="4.52075">
        <ele>645</ele>
        <time>2016-11-27T12:13:09.000Z</time>
      </trkpt>
      <trkpt lat="46.04115" lon="4.52072">
        <ele>645</ele>
        <time>2016-11-27T12:13:10.000Z</time>
      </trkpt>
      <trkpt lat="46.04115" lon="4.52069">
        <ele>646</ele>
        <time>2016-11-27T12:13:11.000Z</time>
      </trkpt>
      <trkpt lat="46.04116" lon="4.52067">
        <ele>649</ele>
        <time>2016-11-27T12:13:12.000Z</time>
      </trkpt>
      <trkpt lat="46.04118" lon="4.52067">
        <ele>649</ele>
        <time>2016-11-27T12:13:13.000Z</time>
      </trkpt>
      <trkpt lat="46.04119" lon="4.52069">
        <ele>650</ele>
        <time>2016-11-27T12:13:14.000Z</time>
      </trkpt>
      <trkpt lat="46.0412" lon="4.52072">
        <ele>650</ele>
        <time>2016-11-27T12:13:15.000Z</time>
      </trkpt>
      <trkpt lat="46.0412" lon="4.52076">
        <ele>650</ele>
        <time>2016-11-27T12:13:16.000Z</time>
      </trkpt>
      <trkpt lat="46.0412" lon="4.52079">
        <ele>651</ele>
        <time>2016-11-27T12:13:17.000Z</time>
      </trkpt>
      <trkpt lat="46.04121" lon="4.52082">
        <ele>651</ele>
        <time>2016-11-27T12:13:18.000Z</time>
      </trkpt>
      <trkpt lat="46.04121" lon="4.52085">
        <ele>650</ele>
        <time>2016-11-27T12:13:19.000Z</time>
      </trkpt>
      <trkpt lat="46.04121" lon="4.52088">
        <ele>650</ele>
        <time>2016-11-27T12:13:20.000Z</time>
      </trkpt>
      <trkpt lat="46.04122" lon="4.52091">
        <ele>650</ele>
        <time>2016-11-27T12:13:21.000Z</time>
      </trkpt>
      <trkpt lat="46.04122" lon="4.52094">
        <ele>650</ele>
        <time>2016-11-27T12:13:22.000Z</time>
      </trkpt>
      <trkpt lat="46.04123" lon="4.52096">
        <ele>650</ele>
        <time>2016-11-27T12:13:23.000Z</time>
      </trkpt>
      <trkpt lat="46.04124" lon="4.52099">
        <ele>649</ele>
        <time>2016-11-27T12:13:24.000Z</time>
      </trkpt>
      <trkpt lat="46.04126" lon="4.52102">
        <ele>649</ele>
        <time>2016-11-27T12:13:25.000Z</time>
      </trkpt>
      <trkpt lat="46.04127" lon="4.52105">
        <ele>649</ele>
        <time>2016-11-27T12:13:26.000Z</time>
      </trkpt>
      <trkpt lat="46.04128" lon="4.52107">
        <ele>649</ele>
        <time>2016-11-27T12:13:27.000Z</time>
      </trkpt>
      <trkpt lat="46.04129" lon="4.5211">
        <ele>649</ele>
        <time>2016-11-27T12:13:28.000Z</time>
      </trkpt>
      <trkpt lat="46.04131" lon="4.52112">
        <ele>648</ele>
        <time>2016-11-27T12:13:29.000Z</time>
      </trkpt>
      <trkpt lat="46.04132" lon="4.52114">
        <ele>649</ele>
        <time>2016-11-27T12:13:30.000Z</time>
      </trkpt>
      <trkpt lat="46.04134" lon="4.52116">
        <ele>649</ele>
        <time>2016-11-27T12:13:31.000Z</time>
      </trkpt>
      <trkpt lat="46.04135" lon="4.52118">
        <ele>649</ele>
        <time>2016-11-27T12:13:32.000Z</time>
      </trkpt>
      <trkpt lat="46.04137" lon="4.52119">
        <ele>648</ele>
        <time>2016-11-27T12:13:33.000Z</time>
      </trkpt>
      <trkpt lat="46.04138" lon="4.52121">
        <ele>649</ele>
        <time>2016-11-27T12:13:34.000Z</time>
      </trkpt>
      <trkpt lat="46.04139" lon="4.52123">
        <ele>648</ele>
        <time>2016-11-27T12:13:35.000Z</time>
      </trkpt>
      <trkpt lat="46.0414" lon="4.52125">
        <ele>648</ele>
        <time>2016-11-27T12:13:36.000Z</time>
      </trkpt>
      <trkpt lat="46.04142" lon="4.52127">
        <ele>648</ele>
        <time>2016-11-27T12:13:37.000Z</time>
      </trkpt>
      <trkpt lat="46.04143" lon="4.52128">
        <ele>649</ele>
        <time>2016-11-27T12:13:38.000Z</time>
      </trkpt>
      <trkpt lat="46.04145" lon="4.5213">
        <ele>650</ele>
        <time>2016-11-27T12:13:39.000Z</time>
      </trkpt>
      <trkpt lat="46.04146" lon="4.52132">
        <ele>650</ele>
        <time>2016-11-27T12:13:40.000Z</time>
      </trkpt>
      <trkpt lat="46.04148" lon="4.52134">
        <ele>651</ele>
        <time>2016-11-27T12:13:41.000Z</time>
      </trkpt>
      <trkpt lat="46.04149" lon="4.52135">
        <ele>650</ele>
        <time>2016-11-27T12:13:42.000Z</time>
      </trkpt>
      <trkpt lat="46.0415" lon="4.52137">
        <ele>650</ele>
        <time>2016-11-27T12:13:43.000Z</time>
      </trkpt>
      <trkpt lat="46.04151" lon="4.52138">
        <ele>650</ele>
        <time>2016-11-27T12:13:44.000Z</time>
      </trkpt>
      <trkpt lat="46.04152" lon="4.52139">
        <ele>649</ele>
        <time>2016-11-27T12:13:45.000Z</time>
      </trkpt>
      <trkpt lat="46.04153" lon="4.52141">
        <ele>650</ele>
        <time>2016-11-27T12:13:46.000Z</time>
      </trkpt>
      <trkpt lat="46.04155" lon="4.52142">
        <ele>649</ele>
        <time>2016-11-27T12:13:47.000Z</time>
      </trkpt>
      <trkpt lat="46.04155" lon="4.52143">
        <ele>648</ele>
        <time>2016-11-27T12:13:48.000Z</time>
      </trkpt>
      <trkpt lat="46.04157" lon="4.52145">
        <ele>649</ele>
        <time>2016-11-27T12:13:49.000Z</time>
      </trkpt>
      <trkpt lat="46.04158" lon="4.52146">
        <ele>650</ele>
        <time>2016-11-27T12:13:50.000Z</time>
      </trkpt>
      <trkpt lat="46.04159" lon="4.52147">
        <ele>650</ele>
        <time>2016-11-27T12:13:51.000Z</time>
      </trkpt>
      <trkpt lat="46.0416" lon="4.52149">
        <ele>650</ele>
        <time>2016-11-27T12:13:52.000Z</time>
      </trkpt>
      <trkpt lat="46.04162" lon="4.5215">
        <ele>650</ele>
        <time>2016-11-27T12:13:53.000Z</time>
      </trkpt>
      <trkpt lat="46.04163" lon="4.52151">
        <ele>650</ele>
        <time>2016-11-27T12:13:54.000Z</time>
      </trkpt>
      <trkpt lat="46.04164" lon="4.52153">
        <ele>651</ele>
        <time>2016-11-27T12:13:55.000Z</time>
      </trkpt>
      <trkpt lat="46.04165" lon="4.52154">
        <ele>652</ele>
        <time>2016-11-27T12:13:56.000Z</time>
      </trkpt>
      <trkpt lat="46.04166" lon="4.52156">
        <ele>653</ele>
        <time>2016-11-27T12:13:57.000Z</time>
      </trkpt>
      <trkpt lat="46.04168" lon="4.52158">
        <ele>653</ele>
        <time>2016-11-27T12:13:58.000Z</time>
      </trkpt>
      <trkpt lat="46.0417" lon="4.52159">
        <ele>653</ele>
        <time>2016-11-27T12:13:59.000Z</time>
      </trkpt>
      <trkpt lat="46.04171" lon="4.52161">
        <ele>653</ele>
        <time>2016-11-27T12:14:00.000Z</time>
      </trkpt>
      <trkpt lat="46.04173" lon="4.52163">
        <ele>653</ele>
        <time>2016-11-27T12:14:01.000Z</time>
      </trkpt>
      <trkpt lat="46.04175" lon="4.52164">
        <ele>652</ele>
        <time>2016-11-27T12:14:02.000Z</time>
      </trkpt>
      <trkpt lat="46.04176" lon="4.52166">
        <ele>651</ele>
        <time>2016-11-27T12:14:03.000Z</time>
      </trkpt>
      <trkpt lat="46.04177" lon="4.52168">
        <ele>650</ele>
        <time>2016-11-27T12:14:04.000Z</time>
      </trkpt>
      <trkpt lat="46.04178" lon="4.5217">
        <ele>650</ele>
        <time>2016-11-27T12:14:05.000Z</time>
      </trkpt>
      <trkpt lat="46.04179" lon="4.52172">
        <ele>650</ele>
        <time>2016-11-27T12:14:06.000Z</time>
      </trkpt>
      <trkpt lat="46.0418" lon="4.52173">
        <ele>651</ele>
        <time>2016-11-27T12:14:07.000Z</time>
      </trkpt>
      <trkpt lat="46.04182" lon="4.52175">
        <ele>652</ele>
        <time>2016-11-27T12:14:08.000Z</time>
      </trkpt>
      <trkpt lat="46.04183" lon="4.52177">
        <ele>653</ele>
        <time>2016-11-27T12:14:09.000Z</time>
      </trkpt>
      <trkpt lat="46.04185" lon="4.52179">
        <ele>654</ele>
        <time>2016-11-27T12:14:10.000Z</time>
      </trkpt>
      <trkpt lat="46.04187" lon="4.5218">
        <ele>655</ele>
        <time>2016-11-27T12:14:11.000Z</time>
      </trkpt>
      <trkpt lat="46.04188" lon="4.52182">
        <ele>655</ele>
        <time>2016-11-27T12:14:12.000Z</time>
      </trkpt>
      <trkpt lat="46.04189" lon="4.52184">
        <ele>655</ele>
        <time>2016-11-27T12:14:13.000Z</time>
      </trkpt>
      <trkpt lat="46.0419" lon="4.52185">
        <ele>655</ele>
        <time>2016-11-27T12:14:14.000Z</time>
      </trkpt>
      <trkpt lat="46.04191" lon="4.52187">
        <ele>655</ele>
        <time>2016-11-27T12:14:15.000Z</time>
      </trkpt>
      <trkpt lat="46.04191" lon="4.52188">
        <ele>655</ele>
        <time>2016-11-27T12:14:16.000Z</time>
      </trkpt>
      <trkpt lat="46.04192" lon="4.5219">
        <ele>656</ele>
        <time>2016-11-27T12:14:17.000Z</time>
      </trkpt>
      <trkpt lat="46.04193" lon="4.52191">
        <ele>657</ele>
        <time>2016-11-27T12:14:18.000Z</time>
      </trkpt>
      <trkpt lat="46.04194" lon="4.52193">
        <ele>657</ele>
        <time>2016-11-27T12:14:19.000Z</time>
      </trkpt>
      <trkpt lat="46.04195" lon="4.52194">
        <ele>657</ele>
        <time>2016-11-27T12:14:20.000Z</time>
      </trkpt>
      <trkpt lat="46.04196" lon="4.52196">
        <ele>657</ele>
        <time>2016-11-27T12:14:21.000Z</time>
      </trkpt>
      <trkpt lat="46.04198" lon="4.52198">
        <ele>657</ele>
        <time>2016-11-27T12:14:22.000Z</time>
      </trkpt>
      <trkpt lat="46.04199" lon="4.522">
        <ele>657</ele>
        <time>2016-11-27T12:14:23.000Z</time>
      </trkpt>
      <trkpt lat="46.04201" lon="4.52202">
        <ele>658</ele>
        <time>2016-11-27T12:14:24.000Z</time>
      </trkpt>
      <trkpt lat="46.04203" lon="4.52204">
        <ele>658</ele>
        <time>2016-11-27T12:14:25.000Z</time>
      </trkpt>
      <trkpt lat="46.04205" lon="4.52206">
        <ele>660</ele>
        <time>2016-11-27T12:14:26.000Z</time>
      </trkpt>
      <trkpt lat="46.04206" lon="4.52208">
        <ele>660</ele>
        <time>2016-11-27T12:14:27.000Z</time>
      </trkpt>
      <trkpt lat="46.04208" lon="4.5221">
        <ele>661</ele>
        <time>2016-11-27T12:14:28.000Z</time>
      </trkpt>
      <trkpt lat="46.0421" lon="4.52213">
        <ele>662</ele>
        <time>2016-11-27T12:14:29.000Z</time>
      </trkpt>
      <trkpt lat="46.04212" lon="4.52215">
        <ele>664</ele>
        <time>2016-11-27T12:14:30.000Z</time>
      </trkpt>
      <trkpt lat="46.04213" lon="4.52217">
        <ele>665</ele>
        <time>2016-11-27T12:14:31.000Z</time>
      </trkpt>
      <trkpt lat="46.04214" lon="4.52219">
        <ele>667</ele>
        <time>2016-11-27T12:14:32.000Z</time>
      </trkpt>
      <trkpt lat="46.04216" lon="4.52221">
        <ele>668</ele>
        <time>2016-11-27T12:14:33.000Z</time>
      </trkpt>
      <trkpt lat="46.04217" lon="4.52223">
        <ele>668</ele>
        <time>2016-11-27T12:14:34.000Z</time>
      </trkpt>
      <trkpt lat="46.04218" lon="4.52225">
        <ele>669</ele>
        <time>2016-11-27T12:14:35.000Z</time>
      </trkpt>
      <trkpt lat="46.04219" lon="4.52226">
        <ele>670</ele>
        <time>2016-11-27T12:14:36.000Z</time>
      </trkpt>
      <trkpt lat="46.0422" lon="4.52228">
        <ele>670</ele>
        <time>2016-11-27T12:14:37.000Z</time>
      </trkpt>
      <trkpt lat="46.04222" lon="4.52229">
        <ele>670</ele>
        <time>2016-11-27T12:14:38.000Z</time>
      </trkpt>
      <trkpt lat="46.04223" lon="4.5223">
        <ele>671</ele>
        <time>2016-11-27T12:14:39.000Z</time>
      </trkpt>
      <trkpt lat="46.04225" lon="4.52231">
        <ele>671</ele>
        <time>2016-11-27T12:14:40.000Z</time>
      </trkpt>
      <trkpt lat="46.04226" lon="4.52233">
        <ele>671</ele>
        <time>2016-11-27T12:14:41.000Z</time>
      </trkpt>
      <trkpt lat="46.04228" lon="4.52234">
        <ele>672</ele>
        <time>2016-11-27T12:14:42.000Z</time>
      </trkpt>
      <trkpt lat="46.04229" lon="4.52236">
        <ele>672</ele>
        <time>2016-11-27T12:14:43.000Z</time>
      </trkpt>
      <trkpt lat="46.04231" lon="4.52237">
        <ele>672</ele>
        <time>2016-11-27T12:14:44.000Z</time>
      </trkpt>
      <trkpt lat="46.04232" lon="4.52239">
        <ele>673</ele>
        <time>2016-11-27T12:14:45.000Z</time>
      </trkpt>
      <trkpt lat="46.04234" lon="4.5224">
        <ele>672</ele>
        <time>2016-11-27T12:14:46.000Z</time>
      </trkpt>
      <trkpt lat="46.04235" lon="4.52241">
        <ele>673</ele>
        <time>2016-11-27T12:14:47.000Z</time>
      </trkpt>
      <trkpt lat="46.04236" lon="4.52242">
        <ele>673</ele>
        <time>2016-11-27T12:14:48.000Z</time>
      </trkpt>
      <trkpt lat="46.04237" lon="4.52243">
        <ele>673</ele>
        <time>2016-11-27T12:14:49.000Z</time>
      </trkpt>
      <trkpt lat="46.04238" lon="4.52244">
        <ele>674</ele>
        <time>2016-11-27T12:14:50.000Z</time>
      </trkpt>
      <trkpt lat="46.04239" lon="4.52245">
        <ele>675</ele>
        <time>2016-11-27T12:14:51.000Z</time>
      </trkpt>
      <trkpt lat="46.0424" lon="4.52246">
        <ele>675</ele>
        <time>2016-11-27T12:14:52.000Z</time>
      </trkpt>
      <trkpt lat="46.04241" lon="4.52246">
        <ele>676</ele>
        <time>2016-11-27T12:14:53.000Z</time>
      </trkpt>
      <trkpt lat="46.04242" lon="4.52247">
        <ele>677</ele>
        <time>2016-11-27T12:14:54.000Z</time>
      </trkpt>
      <trkpt lat="46.04243" lon="4.52248">
        <ele>677</ele>
        <time>2016-11-27T12:14:55.000Z</time>
      </trkpt>
      <trkpt lat="46.04244" lon="4.52249">
        <ele>676</ele>
        <time>2016-11-27T12:14:56.000Z</time>
      </trkpt>
      <trkpt lat="46.04245" lon="4.52251">
        <ele>677</ele>
        <time>2016-11-27T12:14:57.000Z</time>
      </trkpt>
      <trkpt lat="46.04246" lon="4.52252">
        <ele>677</ele>
        <time>2016-11-27T12:14:58.000Z</time>
      </trkpt>
      <trkpt lat="46.04247" lon="4.52253">
        <ele>677</ele>
        <time>2016-11-27T12:14:59.000Z</time>
      </trkpt>
      <trkpt lat="46.04247" lon="4.52254">
        <ele>678</ele>
        <time>2016-11-27T12:15:00.000Z</time>
      </trkpt>
      <trkpt lat="46.04248" lon="4.52255">
        <ele>678</ele>
        <time>2016-11-27T12:15:01.000Z</time>
      </trkpt>
      <trkpt lat="46.04249" lon="4.52257">
        <ele>678</ele>
        <time>2016-11-27T12:15:02.000Z</time>
      </trkpt>
      <trkpt lat="46.04249" lon="4.52257">
        <ele>678</ele>
        <time>2016-11-27T12:15:03.000Z</time>
      </trkpt>
      <trkpt lat="46.04249" lon="4.52257">
        <ele>678</ele>
        <time>2016-11-27T12:15:04.000Z</time>
      </trkpt>
      <trkpt lat="46.04249" lon="4.52256">
        <ele>678</ele>
        <time>2016-11-27T12:15:05.000Z</time>
      </trkpt>
      <trkpt lat="46.04248" lon="4.52255">
        <ele>678</ele>
        <time>2016-11-27T12:15:06.000Z</time>
      </trkpt>
      <trkpt lat="46.04248" lon="4.52254">
        <ele>678</ele>
        <time>2016-11-27T12:15:07.000Z</time>
      </trkpt>
      <trkpt lat="46.04247" lon="4.52253">
        <ele>678</ele>
        <time>2016-11-27T12:15:08.000Z</time>
      </trkpt>
      <trkpt lat="46.04247" lon="4.52251">
        <ele>678</ele>
        <time>2016-11-27T12:15:09.000Z</time>
      </trkpt>
      <trkpt lat="46.04247" lon="4.5225">
        <ele>679</ele>
        <time>2016-11-27T12:15:10.000Z</time>
      </trkpt>
      <trkpt lat="46.04247" lon="4.52249">
        <ele>679</ele>
        <time>2016-11-27T12:15:11.000Z</time>
      </trkpt>
      <trkpt lat="46.04246" lon="4.52248">
        <ele>680</ele>
        <time>2016-11-27T12:15:12.000Z</time>
      </trkpt>
      <trkpt lat="46.04246" lon="4.52247">
        <ele>679</ele>
        <time>2016-11-27T12:15:13.000Z</time>
      </trkpt>
      <trkpt lat="46.04246" lon="4.52246">
        <ele>679</ele>
        <time>2016-11-27T12:15:14.000Z</time>
      </trkpt>
      <trkpt lat="46.04246" lon="4.52245">
        <ele>679</ele>
        <time>2016-11-27T12:15:15.000Z</time>
      </trkpt>
      <trkpt lat="46.04246" lon="4.52245">
        <ele>679</ele>
        <time>2016-11-27T12:15:16.000Z</time>
      </trkpt>
      <trkpt lat="46.04245" lon="4.52244">
        <ele>680</ele>
        <time>2016-11-27T12:15:17.000Z</time>
      </trkpt>
      <trkpt lat="46.04245" lon="4.52243">
        <ele>679</ele>
        <time>2016-11-27T12:15:18.000Z</time>
      </trkpt>
      <trkpt lat="46.04245" lon="4.52241">
        <ele>679</ele>
        <time>2016-11-27T12:15:19.000Z</time>
      </trkpt>
      <trkpt lat="46.04244" lon="4.5224">
        <ele>679</ele>
        <time>2016-11-27T12:15:20.000Z</time>
      </trkpt>
      <trkpt lat="46.04244" lon="4.52239">
        <ele>679</ele>
        <time>2016-11-27T12:15:21.000Z</time>
      </trkpt>
      <trkpt lat="46.04243" lon="4.52237">
        <ele>679</ele>
        <time>2016-11-27T12:15:22.000Z</time>
      </trkpt>
      <trkpt lat="46.04243" lon="4.52236">
        <ele>678</ele>
        <time>2016-11-27T12:15:23.000Z</time>
      </trkpt>
      <trkpt lat="46.04243" lon="4.52234">
        <ele>678</ele>
        <time>2016-11-27T12:15:24.000Z</time>
      </trkpt>
      <trkpt lat="46.04243" lon="4.52233">
        <ele>678</ele>
        <time>2016-11-27T12:15:25.000Z</time>
      </trkpt>
      <trkpt lat="46.04243" lon="4.52231">
        <ele>678</ele>
        <time>2016-11-27T12:15:26.000Z</time>
      </trkpt>
      <trkpt lat="46.04242" lon="4.5223">
        <ele>678</ele>
        <time>2016-11-27T12:15:27.000Z</time>
      </trkpt>
      <trkpt lat="46.04242" lon="4.52229">
        <ele>678</ele>
        <time>2016-11-27T12:15:28.000Z</time>
      </trkpt>
      <trkpt lat="46.04242" lon="4.52228">
        <ele>677</ele>
        <time>2016-11-27T12:15:29.000Z</time>
      </trkpt>
      <trkpt lat="46.04241" lon="4.52226">
        <ele>678</ele>
        <time>2016-11-27T12:15:30.000Z</time>
      </trkpt>
      <trkpt lat="46.04241" lon="4.52225">
        <ele>678</ele>
        <time>2016-11-27T12:15:31.000Z</time>
      </trkpt>
      <trkpt lat="46.04241" lon="4.52224">
        <ele>678</ele>
        <time>2016-11-27T12:15:32.000Z</time>
      </trkpt>
      <trkpt lat="46.04241" lon="4.52223">
        <ele>678</ele>
        <time>2016-11-27T12:15:33.000Z</time>
      </trkpt>
      <trkpt lat="46.0424" lon="4.52221">
        <ele>678</ele>
        <time>2016-11-27T12:15:34.000Z</time>
      </trkpt>
      <trkpt lat="46.0424" lon="4.5222">
        <ele>678</ele>
        <time>2016-11-27T12:15:35.000Z</time>
      </trkpt>
      <trkpt lat="46.0424" lon="4.52219">
        <ele>678</ele>
        <time>2016-11-27T12:15:36.000Z</time>
      </trkpt>
      <trkpt lat="46.0424" lon="4.52218">
        <ele>679</ele>
        <time>2016-11-27T12:15:37.000Z</time>
      </trkpt>
      <trkpt lat="46.0424" lon="4.52216">
        <ele>679</ele>
        <time>2016-11-27T12:15:38.000Z</time>
      </trkpt>
      <trkpt lat="46.04239" lon="4.52215">
        <ele>680</ele>
        <time>2016-11-27T12:15:39.000Z</time>
      </trkpt>
      <trkpt lat="46.04239" lon="4.52214">
        <ele>680</ele>
        <time>2016-11-27T12:15:40.000Z</time>
      </trkpt>
      <trkpt lat="46.04239" lon="4.52213">
        <ele>680</ele>
        <time>2016-11-27T12:15:41.000Z</time>
      </trkpt>
      <trkpt lat="46.0424" lon="4.52211">
        <ele>679</ele>
        <time>2016-11-27T12:15:42.000Z</time>
      </trkpt>
      <trkpt lat="46.0424" lon="4.52211">
        <ele>680</ele>
        <time>2016-11-27T12:15:43.000Z</time>
      </trkpt>
      <trkpt lat="46.0424" lon="4.5221">
        <ele>680</ele>
        <time>2016-11-27T12:15:44.000Z</time>
      </trkpt>
      <trkpt lat="46.0424" lon="4.5221">
        <ele>681</ele>
        <time>2016-11-27T12:15:45.000Z</time>
      </trkpt>
      <trkpt lat="46.0424" lon="4.52209">
        <ele>682</ele>
        <time>2016-11-27T12:15:46.000Z</time>
      </trkpt>
      <trkpt lat="46.0424" lon="4.52208">
        <ele>682</ele>
        <time>2016-11-27T12:15:47.000Z</time>
      </trkpt>
      <trkpt lat="46.0424" lon="4.52207">
        <ele>682</ele>
        <time>2016-11-27T12:15:48.000Z</time>
      </trkpt>
      <trkpt lat="46.0424" lon="4.52207">
        <ele>683</ele>
        <time>2016-11-27T12:15:49.000Z</time>
      </trkpt>
      <trkpt lat="46.04241" lon="4.52206">
        <ele>683</ele>
        <time>2016-11-27T12:15:50.000Z</time>
      </trkpt>
      <trkpt lat="46.04241" lon="4.52206">
        <ele>683</ele>
        <time>2016-11-27T12:15:51.000Z</time>
      </trkpt>
      <trkpt lat="46.04241" lon="4.52205">
        <ele>684</ele>
        <time>2016-11-27T12:15:52.000Z</time>
      </trkpt>
      <trkpt lat="46.04241" lon="4.52205">
        <ele>684</ele>
        <time>2016-11-27T12:15:53.000Z</time>
      </trkpt>
      <trkpt lat="46.04242" lon="4.52205">
        <ele>685</ele>
        <time>2016-11-27T12:15:54.000Z</time>
      </trkpt>
      <trkpt lat="46.04242" lon="4.52204">
        <ele>686</ele>
        <time>2016-11-27T12:15:55.000Z</time>
      </trkpt>
      <trkpt lat="46.04242" lon="4.52204">
        <ele>685</ele>
        <time>2016-11-27T12:15:56.000Z</time>
      </trkpt>
      <trkpt lat="46.04243" lon="4.52204">
        <ele>685</ele>
        <time>2016-11-27T12:15:57.000Z</time>
      </trkpt>
      <trkpt lat="46.04243" lon="4.52204">
        <ele>685</ele>
        <time>2016-11-27T12:15:58.000Z</time>
      </trkpt>
      <trkpt lat="46.04244" lon="4.52204">
        <ele>685</ele>
        <time>2016-11-27T12:15:59.000Z</time>
      </trkpt>
      <trkpt lat="46.04244" lon="4.52203">
        <ele>685</ele>
        <time>2016-11-27T12:16:00.000Z</time>
      </trkpt>
      <trkpt lat="46.04244" lon="4.52203">
        <ele>684</ele>
        <time>2016-11-27T12:16:01.000Z</time>
      </trkpt>
      <trkpt lat="46.04245" lon="4.52202">
        <ele>684</ele>
        <time>2016-11-27T12:16:02.000Z</time>
      </trkpt>
      <trkpt lat="46.04245" lon="4.52202">
        <ele>684</ele>
        <time>2016-11-27T12:16:03.000Z</time>
      </trkpt>
      <trkpt lat="46.04245" lon="4.52201">
        <ele>684</ele>
        <time>2016-11-27T12:16:04.000Z</time>
      </trkpt>
      <trkpt lat="46.04245" lon="4.522">
        <ele>684</ele>
        <time>2016-11-27T12:16:05.000Z</time>
      </trkpt>
      <trkpt lat="46.04246" lon="4.522">
        <ele>684</ele>
        <time>2016-11-27T12:16:06.000Z</time>
      </trkpt>
      <trkpt lat="46.04246" lon="4.52199">
        <ele>685</ele>
        <time>2016-11-27T12:16:07.000Z</time>
      </trkpt>
      <trkpt lat="46.04246" lon="4.52199">
        <ele>684</ele>
        <time>2016-11-27T12:16:08.000Z</time>
      </trkpt>
      <trkpt lat="46.04246" lon="4.52199">
        <ele>685</ele>
        <time>2016-11-27T12:16:09.000Z</time>
      </trkpt>
      <trkpt lat="46.04246" lon="4.52199">
        <ele>685</ele>
        <time>2016-11-27T12:16:10.000Z</time>
      </trkpt>
      <trkpt lat="46.04246" lon="4.52199">
        <ele>685</ele>
        <time>2016-11-27T12:16:11.000Z</time>
      </trkpt>
      <trkpt lat="46.04247" lon="4.52198">
        <ele>685</ele>
        <time>2016-11-27T12:16:12.000Z</time>
      </trkpt>
      <trkpt lat="46.04247" lon="4.52198">
        <ele>686</ele>
        <time>2016-11-27T12:16:13.000Z</time>
      </trkpt>
      <trkpt lat="46.04247" lon="4.52198">
        <ele>686</ele>
        <time>2016-11-27T12:16:14.000Z</time>
      </trkpt>
      <trkpt lat="46.04248" lon="4.52197">
        <ele>686</ele>
        <time>2016-11-27T12:16:15.000Z</time>
      </trkpt>
      <trkpt lat="46.04248" lon="4.52197">
        <ele>686</ele>
        <time>2016-11-27T12:16:16.000Z</time>
      </trkpt>
      <trkpt lat="46.04249" lon="4.52198">
        <ele>686</ele>
        <time>2016-11-27T12:16:17.000Z</time>
      </trkpt>
      <trkpt lat="46.04249" lon="4.52199">
        <ele>686</ele>
        <time>2016-11-27T12:16:18.000Z</time>
      </trkpt>
      <trkpt lat="46.0425" lon="4.52199">
        <ele>686</ele>
        <time>2016-11-27T12:16:19.000Z</time>
      </trkpt>
      <trkpt lat="46.0425" lon="4.522">
        <ele>687</ele>
        <time>2016-11-27T12:16:20.000Z</time>
      </trkpt>
      <trkpt lat="46.04251" lon="4.522">
        <ele>687</ele>
        <time>2016-11-27T12:16:21.000Z</time>
      </trkpt>
      <trkpt lat="46.04251" lon="4.52199">
        <ele>688</ele>
        <time>2016-11-27T12:16:22.000Z</time>
      </trkpt>
      <trkpt lat="46.04251" lon="4.52199">
        <ele>688</ele>
        <time>2016-11-27T12:16:23.000Z</time>
      </trkpt>
      <trkpt lat="46.04251" lon="4.522">
        <ele>688</ele>
        <time>2016-11-27T12:16:24.000Z</time>
      </trkpt>
      <trkpt lat="46.04252" lon="4.522">
        <ele>688</ele>
        <time>2016-11-27T12:16:25.000Z</time>
      </trkpt>
      <trkpt lat="46.04252" lon="4.522">
        <ele>688</ele>
        <time>2016-11-27T12:16:26.000Z</time>
      </trkpt>
      <trkpt lat="46.04253" lon="4.522">
        <ele>688</ele>
        <time>2016-11-27T12:16:27.000Z</time>
      </trkpt>
      <trkpt lat="46.04253" lon="4.522">
        <ele>688</ele>
        <time>2016-11-27T12:16:28.000Z</time>
      </trkpt>
      <trkpt lat="46.04253" lon="4.52199">
        <ele>689</ele>
        <time>2016-11-27T12:16:29.000Z</time>
      </trkpt>
      <trkpt lat="46.04253" lon="4.52199">
        <ele>689</ele>
        <time>2016-11-27T12:16:30.000Z</time>
      </trkpt>
      <trkpt lat="46.04254" lon="4.52199">
        <ele>689</ele>
        <time>2016-11-27T12:16:31.000Z</time>
      </trkpt>
      <trkpt lat="46.04254" lon="4.52198">
        <ele>689</ele>
        <time>2016-11-27T12:16:32.000Z</time>
      </trkpt>
      <trkpt lat="46.04254" lon="4.52198">
        <ele>689</ele>
        <time>2016-11-27T12:16:33.000Z</time>
      </trkpt>
      <trkpt lat="46.04254" lon="4.52197">
        <ele>689</ele>
        <time>2016-11-27T12:16:34.000Z</time>
      </trkpt>
      <trkpt lat="46.04255" lon="4.52197">
        <ele>690</ele>
        <time>2016-11-27T12:16:35.000Z</time>
      </trkpt>
      <trkpt lat="46.04255" lon="4.52196">
        <ele>690</ele>
        <time>2016-11-27T12:16:36.000Z</time>
      </trkpt>
      <trkpt lat="46.04255" lon="4.52196">
        <ele>690</ele>
        <time>2016-11-27T12:16:37.000Z</time>
      </trkpt>
      <trkpt lat="46.04256" lon="4.52196">
        <ele>691</ele>
        <time>2016-11-27T12:16:38.000Z</time>
      </trkpt>
      <trkpt lat="46.04256" lon="4.52195">
        <ele>691</ele>
        <time>2016-11-27T12:16:39.000Z</time>
      </trkpt>
      <trkpt lat="46.04256" lon="4.52194">
        <ele>692</ele>
        <time>2016-11-27T12:16:40.000Z</time>
      </trkpt>
      <trkpt lat="46.04257" lon="4.52193">
        <ele>692</ele>
        <time>2016-11-27T12:16:41.000Z</time>
      </trkpt>
      <trkpt lat="46.04257" lon="4.52192">
        <ele>693</ele>
        <time>2016-11-27T12:16:42.000Z</time>
      </trkpt>
      <trkpt lat="46.04258" lon="4.52191">
        <ele>693</ele>
        <time>2016-11-27T12:16:43.000Z</time>
      </trkpt>
      <trkpt lat="46.04258" lon="4.5219">
        <ele>694</ele>
        <time>2016-11-27T12:16:44.000Z</time>
      </trkpt>
      <trkpt lat="46.04258" lon="4.52189">
        <ele>694</ele>
        <time>2016-11-27T12:16:45.000Z</time>
      </trkpt>
      <trkpt lat="46.04259" lon="4.52189">
        <ele>694</ele>
        <time>2016-11-27T12:16:46.000Z</time>
      </trkpt>
      <trkpt lat="46.04259" lon="4.52188">
        <ele>695</ele>
        <time>2016-11-27T12:16:47.000Z</time>
      </trkpt>
      <trkpt lat="46.0426" lon="4.52187">
        <ele>695</ele>
        <time>2016-11-27T12:16:48.000Z</time>
      </trkpt>
      <trkpt lat="46.0426" lon="4.52187">
        <ele>695</ele>
        <time>2016-11-27T12:16:49.000Z</time>
      </trkpt>
      <trkpt lat="46.04261" lon="4.52186">
        <ele>696</ele>
        <time>2016-11-27T12:16:50.000Z</time>
      </trkpt>
      <trkpt lat="46.04261" lon="4.52186">
        <ele>696</ele>
        <time>2016-11-27T12:16:51.000Z</time>
      </trkpt>
      <trkpt lat="46.04262" lon="4.52186">
        <ele>696</ele>
        <time>2016-11-27T12:16:52.000Z</time>
      </trkpt>
      <trkpt lat="46.04262" lon="4.52186">
        <ele>696</ele>
        <time>2016-11-27T12:16:53.000Z</time>
      </trkpt>
      <trkpt lat="46.04263" lon="4.52185">
        <ele>697</ele>
        <time>2016-11-27T12:16:54.000Z</time>
      </trkpt>
      <trkpt lat="46.04263" lon="4.52184">
        <ele>697</ele>
        <time>2016-11-27T12:16:55.000Z</time>
      </trkpt>
      <trkpt lat="46.04263" lon="4.52184">
        <ele>697</ele>
        <time>2016-11-27T12:16:56.000Z</time>
      </trkpt>
      <trkpt lat="46.04264" lon="4.52183">
        <ele>697</ele>
        <time>2016-11-27T12:16:57.000Z</time>
      </trkpt>
      <trkpt lat="46.04264" lon="4.52183">
        <ele>698</ele>
        <time>2016-11-27T12:16:58.000Z</time>
      </trkpt>
      <trkpt lat="46.04265" lon="4.52182">
        <ele>698</ele>
        <time>2016-11-27T12:16:59.000Z</time>
      </trkpt>
      <trkpt lat="46.04265" lon="4.52182">
        <ele>699</ele>
        <time>2016-11-27T12:17:00.000Z</time>
      </trkpt>
      <trkpt lat="46.04265" lon="4.52181">
        <ele>700</ele>
        <time>2016-11-27T12:17:01.000Z</time>
      </trkpt>
      <trkpt lat="46.04266" lon="4.52181">
        <ele>700</ele>
        <time>2016-11-27T12:17:02.000Z</time>
      </trkpt>
      <trkpt lat="46.04266" lon="4.5218">
        <ele>700</ele>
        <time>2016-11-27T12:17:03.000Z</time>
      </trkpt>
      <trkpt lat="46.04266" lon="4.5218">
        <ele>700</ele>
        <time>2016-11-27T12:17:04.000Z</time>
      </trkpt>
      <trkpt lat="46.04267" lon="4.5218">
        <ele>701</ele>
        <time>2016-11-27T12:17:05.000Z</time>
      </trkpt>
      <trkpt lat="46.04267" lon="4.5218">
        <ele>701</ele>
        <time>2016-11-27T12:17:06.000Z</time>
      </trkpt>
      <trkpt lat="46.04267" lon="4.5218">
        <ele>701</ele>
        <time>2016-11-27T12:17:07.000Z</time>
      </trkpt>
      <trkpt lat="46.04268" lon="4.5218">
        <ele>701</ele>
        <time>2016-11-27T12:17:08.000Z</time>
      </trkpt>
      <trkpt lat="46.04268" lon="4.52179">
        <ele>702</ele>
        <time>2016-11-27T12:17:09.000Z</time>
      </trkpt>
      <trkpt lat="46.04268" lon="4.52179">
        <ele>703</ele>
        <time>2016-11-27T12:17:10.000Z</time>
      </trkpt>
      <trkpt lat="46.04268" lon="4.52179">
        <ele>703</ele>
        <time>2016-11-27T12:17:11.000Z</time>
      </trkpt>
      <trkpt lat="46.04268" lon="4.52179">
        <ele>703</ele>
        <time>2016-11-27T12:17:12.000Z</time>
      </trkpt>
      <trkpt lat="46.04268" lon="4.52179">
        <ele>704</ele>
        <time>2016-11-27T12:17:13.000Z</time>
      </trkpt>
      <trkpt lat="46.04268" lon="4.52179">
        <ele>704</ele>
        <time>2016-11-27T12:17:14.000Z</time>
      </trkpt>
      <trkpt lat="46.04268" lon="4.52179">
        <ele>704</ele>
        <time>2016-11-27T12:17:15.000Z</time>
      </trkpt>
      <trkpt lat="46.04268" lon="4.52179">
        <ele>704</ele>
        <time>2016-11-27T12:17:16.000Z</time>
      </trkpt>
      <trkpt lat="46.04268" lon="4.52178">
        <ele>704</ele>
        <time>2016-11-27T12:17:17.000Z</time>
      </trkpt>
      <trkpt lat="46.04268" lon="4.52178">
        <ele>704</ele>
        <time>2016-11-27T12:17:18.000Z</time>
      </trkpt>
      <trkpt lat="46.04268" lon="4.52178">
        <ele>704</ele>
        <time>2016-11-27T12:17:19.000Z</time>
      </trkpt>
      <trkpt lat="46.04268" lon="4.52177">
        <ele>704</ele>
        <time>2016-11-27T12:17:20.000Z</time>
      </trkpt>
      <trkpt lat="46.04268" lon="4.52177">
        <ele>704</ele>
        <time>2016-11-27T12:17:21.000Z</time>
      </trkpt>
      <trkpt lat="46.04268" lon="4.52177">
        <ele>705</ele>
        <time>2016-11-27T12:17:22.000Z</time>
      </trkpt>
      <trkpt lat="46.04268" lon="4.52177">
        <ele>705</ele>
        <time>2016-11-27T12:17:23.000Z</time>
      </trkpt>
      <trkpt lat="46.04269" lon="4.52177">
        <ele>705</ele>
        <time>2016-11-27T12:17:24.000Z</time>
      </trkpt>
      <trkpt lat="46.04269" lon="4.52177">
        <ele>705</ele>
        <time>2016-11-27T12:17:25.000Z</time>
      </trkpt>
      <trkpt lat="46.04269" lon="4.52177">
        <ele>705</ele>
        <time>2016-11-27T12:17:26.000Z</time>
      </trkpt>
      <trkpt lat="46.0427" lon="4.52177">
        <ele>705</ele>
        <time>2016-11-27T12:17:27.000Z</time>
      </trkpt>
      <trkpt lat="46.0427" lon="4.52177">
        <ele>704</ele>
        <time>2016-11-27T12:17:28.000Z</time>
      </trkpt>
      <trkpt lat="46.0427" lon="4.52177">
        <ele>705</ele>
        <time>2016-11-27T12:17:29.000Z</time>
      </trkpt>
      <trkpt lat="46.04271" lon="4.52177">
        <ele>705</ele>
        <time>2016-11-27T12:17:30.000Z</time>
      </trkpt>
      <trkpt lat="46.04271" lon="4.52178">
        <ele>706</ele>
        <time>2016-11-27T12:17:31.000Z</time>
      </trkpt>
      <trkpt lat="46.04272" lon="4.52177">
        <ele>706</ele>
        <time>2016-11-27T12:17:32.000Z</time>
      </trkpt>
      <trkpt lat="46.04273" lon="4.52177">
        <ele>706</ele>
        <time>2016-11-27T12:17:33.000Z</time>
      </trkpt>
      <trkpt lat="46.04273" lon="4.52176">
        <ele>707</ele>
        <time>2016-11-27T12:17:34.000Z</time>
      </trkpt>
      <trkpt lat="46.04273" lon="4.52175">
        <ele>706</ele>
        <time>2016-11-27T12:17:35.000Z</time>
      </trkpt>
      <trkpt lat="46.04273" lon="4.52174">
        <ele>707</ele>
        <time>2016-11-27T12:17:36.000Z</time>
      </trkpt>
      <trkpt lat="46.04273" lon="4.52173">
        <ele>706</ele>
        <time>2016-11-27T12:17:37.000Z</time>
      </trkpt>
      <trkpt lat="46.04274" lon="4.52172">
        <ele>707</ele>
        <time>2016-11-27T12:17:38.000Z</time>
      </trkpt>
      <trkpt lat="46.04274" lon="4.52171">
        <ele>707</ele>
        <time>2016-11-27T12:17:39.000Z</time>
      </trkpt>
      <trkpt lat="46.04274" lon="4.5217">
        <ele>707</ele>
        <time>2016-11-27T12:17:40.000Z</time>
      </trkpt>
      <trkpt lat="46.04274" lon="4.5217">
        <ele>707</ele>
        <time>2016-11-27T12:17:41.000Z</time>
      </trkpt>
      <trkpt lat="46.04275" lon="4.52169">
        <ele>708</ele>
        <time>2016-11-27T12:17:42.000Z</time>
      </trkpt>
      <trkpt lat="46.04275" lon="4.52169">
        <ele>708</ele>
        <time>2016-11-27T12:17:43.000Z</time>
      </trkpt>
      <trkpt lat="46.04275" lon="4.52168">
        <ele>708</ele>
        <time>2016-11-27T12:17:44.000Z</time>
      </trkpt>
      <trkpt lat="46.04275" lon="4.52168">
        <ele>708</ele>
        <time>2016-11-27T12:17:45.000Z</time>
      </trkpt>
      <trkpt lat="46.04275" lon="4.52167">
        <ele>709</ele>
        <time>2016-11-27T12:17:46.000Z</time>
      </trkpt>
      <trkpt lat="46.04275" lon="4.52166">
        <ele>709</ele>
        <time>2016-11-27T12:17:47.000Z</time>
      </trkpt>
      <trkpt lat="46.04275" lon="4.52166">
        <ele>709</ele>
        <time>2016-11-27T12:17:48.000Z</time>
      </trkpt>
      <trkpt lat="46.04276" lon="4.52165">
        <ele>710</ele>
        <time>2016-11-27T12:17:49.000Z</time>
      </trkpt>
      <trkpt lat="46.04276" lon="4.52164">
        <ele>710</ele>
        <time>2016-11-27T12:17:50.000Z</time>
      </trkpt>
      <trkpt lat="46.04277" lon="4.52162">
        <ele>711</ele>
        <time>2016-11-27T12:17:51.000Z</time>
      </trkpt>
      <trkpt lat="46.04277" lon="4.52161">
        <ele>711</ele>
        <time>2016-11-27T12:17:52.000Z</time>
      </trkpt>
      <trkpt lat="46.04278" lon="4.52161">
        <ele>711</ele>
        <time>2016-11-27T12:17:53.000Z</time>
      </trkpt>
      <trkpt lat="46.04278" lon="4.5216">
        <ele>711</ele>
        <time>2016-11-27T12:17:54.000Z</time>
      </trkpt>
      <trkpt lat="46.04278" lon="4.5216">
        <ele>710</ele>
        <time>2016-11-27T12:17:55.000Z</time>
      </trkpt>
      <trkpt lat="46.04278" lon="4.52159">
        <ele>710</ele>
        <time>2016-11-27T12:17:56.000Z</time>
      </trkpt>
      <trkpt lat="46.04277" lon="4.52158">
        <ele>710</ele>
        <time>2016-11-27T12:17:57.000Z</time>
      </trkpt>
      <trkpt lat="46.04277" lon="4.52157">
        <ele>710</ele>
        <time>2016-11-27T12:17:58.000Z</time>
      </trkpt>
      <trkpt lat="46.04277" lon="4.52156">
        <ele>710</ele>
        <time>2016-11-27T12:17:59.000Z</time>
      </trkpt>
      <trkpt lat="46.04276" lon="4.52155">
        <ele>710</ele>
        <time>2016-11-27T12:18:00.000Z</time>
      </trkpt>
      <trkpt lat="46.04276" lon="4.52154">
        <ele>710</ele>
        <time>2016-11-27T12:18:01.000Z</time>
      </trkpt>
      <trkpt lat="46.04276" lon="4.52154">
        <ele>710</ele>
        <time>2016-11-27T12:18:02.000Z</time>
      </trkpt>
      <trkpt lat="46.04276" lon="4.52154">
        <ele>710</ele>
        <time>2016-11-27T12:18:03.000Z</time>
      </trkpt>
      <trkpt lat="46.04276" lon="4.52153">
        <ele>710</ele>
        <time>2016-11-27T12:18:04.000Z</time>
      </trkpt>
      <trkpt lat="46.04276" lon="4.52153">
        <ele>710</ele>
        <time>2016-11-27T12:18:05.000Z</time>
      </trkpt>
      <trkpt lat="46.04275" lon="4.52152">
        <ele>710</ele>
        <time>2016-11-27T12:18:06.000Z</time>
      </trkpt>
      <trkpt lat="46.04275" lon="4.52151">
        <ele>709</ele>
        <time>2016-11-27T12:18:07.000Z</time>
      </trkpt>
      <trkpt lat="46.04275" lon="4.52149">
        <ele>710</ele>
        <time>2016-11-27T12:18:08.000Z</time>
      </trkpt>
      <trkpt lat="46.04274" lon="4.52148">
        <ele>710</ele>
        <time>2016-11-27T12:18:09.000Z</time>
      </trkpt>
      <trkpt lat="46.04274" lon="4.52147">
        <ele>710</ele>
        <time>2016-11-27T12:18:10.000Z</time>
      </trkpt>
      <trkpt lat="46.04273" lon="4.52145">
        <ele>710</ele>
        <time>2016-11-27T12:18:11.000Z</time>
      </trkpt>
      <trkpt lat="46.04273" lon="4.52144">
        <ele>710</ele>
        <time>2016-11-27T12:18:12.000Z</time>
      </trkpt>
      <trkpt lat="46.04273" lon="4.52142">
        <ele>710</ele>
        <time>2016-11-27T12:18:13.000Z</time>
      </trkpt>
      <trkpt lat="46.04273" lon="4.5214">
        <ele>710</ele>
        <time>2016-11-27T12:18:14.000Z</time>
      </trkpt>
      <trkpt lat="46.04273" lon="4.52139">
        <ele>709</ele>
        <time>2016-11-27T12:18:15.000Z</time>
      </trkpt>
      <trkpt lat="46.04273" lon="4.52137">
        <ele>709</ele>
        <time>2016-11-27T12:18:16.000Z</time>
      </trkpt>
      <trkpt lat="46.04273" lon="4.52135">
        <ele>710</ele>
        <time>2016-11-27T12:18:17.000Z</time>
      </trkpt>
      <trkpt lat="46.04273" lon="4.52134">
        <ele>710</ele>
        <time>2016-11-27T12:18:18.000Z</time>
      </trkpt>
      <trkpt lat="46.04273" lon="4.52132">
        <ele>710</ele>
        <time>2016-11-27T12:18:19.000Z</time>
      </trkpt>
      <trkpt lat="46.04273" lon="4.5213">
        <ele>710</ele>
        <time>2016-11-27T12:18:20.000Z</time>
      </trkpt>
      <trkpt lat="46.04273" lon="4.52128">
        <ele>710</ele>
        <time>2016-11-27T12:18:21.000Z</time>
      </trkpt>
      <trkpt lat="46.04273" lon="4.52126">
        <ele>710</ele>
        <time>2016-11-27T12:18:22.000Z</time>
      </trkpt>
      <trkpt lat="46.04273" lon="4.52124">
        <ele>710</ele>
        <time>2016-11-27T12:18:23.000Z</time>
      </trkpt>
      <trkpt lat="46.04273" lon="4.52122">
        <ele>710</ele>
        <time>2016-11-27T12:18:24.000Z</time>
      </trkpt>
      <trkpt lat="46.04274" lon="4.5212">
        <ele>710</ele>
        <time>2016-11-27T12:18:25.000Z</time>
      </trkpt>
      <trkpt lat="46.04274" lon="4.52118">
        <ele>710</ele>
        <time>2016-11-27T12:18:26.000Z</time>
      </trkpt>
      <trkpt lat="46.04274" lon="4.52115">
        <ele>710</ele>
        <time>2016-11-27T12:18:27.000Z</time>
      </trkpt>
      <trkpt lat="46.04275" lon="4.52113">
        <ele>709</ele>
        <time>2016-11-27T12:18:28.000Z</time>
      </trkpt>
      <trkpt lat="46.04275" lon="4.52111">
        <ele>710</ele>
        <time>2016-11-27T12:18:29.000Z</time>
      </trkpt>
      <trkpt lat="46.04276" lon="4.52109">
        <ele>710</ele>
        <time>2016-11-27T12:18:30.000Z</time>
      </trkpt>
      <trkpt lat="46.04277" lon="4.52106">
        <ele>710</ele>
        <time>2016-11-27T12:18:31.000Z</time>
      </trkpt>
      <trkpt lat="46.04277" lon="4.52104">
        <ele>710</ele>
        <time>2016-11-27T12:18:32.000Z</time>
      </trkpt>
      <trkpt lat="46.04278" lon="4.52102">
        <ele>710</ele>
        <time>2016-11-27T12:18:33.000Z</time>
      </trkpt>
      <trkpt lat="46.04279" lon="4.521">
        <ele>710</ele>
        <time>2016-11-27T12:18:34.000Z</time>
      </trkpt>
      <trkpt lat="46.0428" lon="4.52098">
        <ele>710</ele>
        <time>2016-11-27T12:18:35.000Z</time>
      </trkpt>
      <trkpt lat="46.04281" lon="4.52096">
        <ele>710</ele>
        <time>2016-11-27T12:18:36.000Z</time>
      </trkpt>
      <trkpt lat="46.04282" lon="4.52094">
        <ele>710</ele>
        <time>2016-11-27T12:18:37.000Z</time>
      </trkpt>
      <trkpt lat="46.04283" lon="4.52093">
        <ele>710</ele>
        <time>2016-11-27T12:18:38.000Z</time>
      </trkpt>
      <trkpt lat="46.04283" lon="4.52091">
        <ele>710</ele>
        <time>2016-11-27T12:18:39.000Z</time>
      </trkpt>
      <trkpt lat="46.04284" lon="4.5209">
        <ele>710</ele>
        <time>2016-11-27T12:18:40.000Z</time>
      </trkpt>
      <trkpt lat="46.04285" lon="4.52088">
        <ele>710</ele>
        <time>2016-11-27T12:18:41.000Z</time>
      </trkpt>
      <trkpt lat="46.04286" lon="4.52087">
        <ele>710</ele>
        <time>2016-11-27T12:18:42.000Z</time>
      </trkpt>
      <trkpt lat="46.04287" lon="4.52085">
        <ele>710</ele>
        <time>2016-11-27T12:18:43.000Z</time>
      </trkpt>
      <trkpt lat="46.04287" lon="4.52084">
        <ele>710</ele>
        <time>2016-11-27T12:18:44.000Z</time>
      </trkpt>
      <trkpt lat="46.04288" lon="4.52082">
        <ele>710</ele>
        <time>2016-11-27T12:18:45.000Z</time>
      </trkpt>
      <trkpt lat="46.04289" lon="4.5208">
        <ele>710</ele>
        <time>2016-11-27T12:18:46.000Z</time>
      </trkpt>
      <trkpt lat="46.0429" lon="4.52079">
        <ele>710</ele>
        <time>2016-11-27T12:18:47.000Z</time>
      </trkpt>
      <trkpt lat="46.04291" lon="4.52077">
        <ele>710</ele>
        <time>2016-11-27T12:18:48.000Z</time>
      </trkpt>
      <trkpt lat="46.04292" lon="4.52076">
        <ele>710</ele>
        <time>2016-11-27T12:18:49.000Z</time>
      </trkpt>
      <trkpt lat="46.04293" lon="4.52074">
        <ele>710</ele>
        <time>2016-11-27T12:18:50.000Z</time>
      </trkpt>
      <trkpt lat="46.04294" lon="4.52073">
        <ele>710</ele>
        <time>2016-11-27T12:18:51.000Z</time>
      </trkpt>
      <trkpt lat="46.04295" lon="4.52071">
        <ele>710</ele>
        <time>2016-11-27T12:18:52.000Z</time>
      </trkpt>
      <trkpt lat="46.04296" lon="4.5207">
        <ele>710</ele>
        <time>2016-11-27T12:18:53.000Z</time>
      </trkpt>
      <trkpt lat="46.04297" lon="4.52069">
        <ele>710</ele>
        <time>2016-11-27T12:18:54.000Z</time>
      </trkpt>
      <trkpt lat="46.04299" lon="4.52067">
        <ele>710</ele>
        <time>2016-11-27T12:18:55.000Z</time>
      </trkpt>
      <trkpt lat="46.043" lon="4.52066">
        <ele>711</ele>
        <time>2016-11-27T12:18:56.000Z</time>
      </trkpt>
      <trkpt lat="46.04301" lon="4.52064">
        <ele>711</ele>
        <time>2016-11-27T12:18:57.000Z</time>
      </trkpt>
      <trkpt lat="46.04302" lon="4.52063">
        <ele>711</ele>
        <time>2016-11-27T12:18:58.000Z</time>
      </trkpt>
      <trkpt lat="46.04303" lon="4.52061">
        <ele>711</ele>
        <time>2016-11-27T12:18:59.000Z</time>
      </trkpt>
      <trkpt lat="46.04304" lon="4.5206">
        <ele>711</ele>
        <time>2016-11-27T12:19:00.000Z</time>
      </trkpt>
      <trkpt lat="46.04305" lon="4.52058">
        <ele>711</ele>
        <time>2016-11-27T12:19:01.000Z</time>
      </trkpt>
      <trkpt lat="46.04306" lon="4.52057">
        <ele>710</ele>
        <time>2016-11-27T12:19:02.000Z</time>
      </trkpt>
      <trkpt lat="46.04307" lon="4.52055">
        <ele>710</ele>
        <time>2016-11-27T12:19:03.000Z</time>
      </trkpt>
      <trkpt lat="46.04308" lon="4.52053">
        <ele>710</ele>
        <time>2016-11-27T12:19:04.000Z</time>
      </trkpt>
      <trkpt lat="46.04309" lon="4.52052">
        <ele>709</ele>
        <time>2016-11-27T12:19:05.000Z</time>
      </trkpt>
      <trkpt lat="46.0431" lon="4.52051">
        <ele>708</ele>
        <time>2016-11-27T12:19:06.000Z</time>
      </trkpt>
      <trkpt lat="46.0431" lon="4.5205">
        <ele>708</ele>
        <time>2016-11-27T12:19:07.000Z</time>
      </trkpt>
      <trkpt lat="46.04311" lon="4.52049">
        <ele>709</ele>
        <time>2016-11-27T12:19:08.000Z</time>
      </trkpt>
      <trkpt lat="46.04313" lon="4.52047">
        <ele>709</ele>
        <time>2016-11-27T12:19:09.000Z</time>
      </trkpt>
      <trkpt lat="46.04314" lon="4.52046">
        <ele>709</ele>
        <time>2016-11-27T12:19:10.000Z</time>
      </trkpt>
      <trkpt lat="46.04315" lon="4.52044">
        <ele>709</ele>
        <time>2016-11-27T12:19:11.000Z</time>
      </trkpt>
      <trkpt lat="46.04316" lon="4.52043">
        <ele>709</ele>
        <time>2016-11-27T12:19:12.000Z</time>
      </trkpt>
      <trkpt lat="46.04317" lon="4.52041">
        <ele>709</ele>
        <time>2016-11-27T12:19:13.000Z</time>
      </trkpt>
      <trkpt lat="46.04319" lon="4.5204">
        <ele>709</ele>
        <time>2016-11-27T12:19:14.000Z</time>
      </trkpt>
      <trkpt lat="46.0432" lon="4.52038">
        <ele>709</ele>
        <time>2016-11-27T12:19:15.000Z</time>
      </trkpt>
      <trkpt lat="46.04321" lon="4.52037">
        <ele>709</ele>
        <time>2016-11-27T12:19:16.000Z</time>
      </trkpt>
      <trkpt lat="46.04322" lon="4.52035">
        <ele>709</ele>
        <time>2016-11-27T12:19:17.000Z</time>
      </trkpt>
      <trkpt lat="46.04323" lon="4.52034">
        <ele>709</ele>
        <time>2016-11-27T12:19:18.000Z</time>
      </trkpt>
      <trkpt lat="46.04324" lon="4.52032">
        <ele>709</ele>
        <time>2016-11-27T12:19:19.000Z</time>
      </trkpt>
      <trkpt lat="46.04326" lon="4.52031">
        <ele>709</ele>
        <time>2016-11-27T12:19:20.000Z</time>
      </trkpt>
      <trkpt lat="46.04327" lon="4.5203">
        <ele>709</ele>
        <time>2016-11-27T12:19:21.000Z</time>
      </trkpt>
      <trkpt lat="46.04328" lon="4.52028">
        <ele>709</ele>
        <time>2016-11-27T12:19:22.000Z</time>
      </trkpt>
      <trkpt lat="46.04329" lon="4.52027">
        <ele>708</ele>
        <time>2016-11-27T12:19:23.000Z</time>
      </trkpt>
      <trkpt lat="46.0433" lon="4.52025">
        <ele>708</ele>
        <time>2016-11-27T12:19:24.000Z</time>
      </trkpt>
      <trkpt lat="46.04331" lon="4.52024">
        <ele>708</ele>
        <time>2016-11-27T12:19:25.000Z</time>
      </trkpt>
      <trkpt lat="46.04332" lon="4.52023">
        <ele>709</ele>
        <time>2016-11-27T12:19:26.000Z</time>
      </trkpt>
      <trkpt lat="46.04334" lon="4.52021">
        <ele>709</ele>
        <time>2016-11-27T12:19:27.000Z</time>
      </trkpt>
      <trkpt lat="46.04335" lon="4.52019">
        <ele>710</ele>
        <time>2016-11-27T12:19:28.000Z</time>
      </trkpt>
      <trkpt lat="46.04337" lon="4.52016">
        <ele>710</ele>
        <time>2016-11-27T12:19:29.000Z</time>
      </trkpt>
      <trkpt lat="46.04338" lon="4.52014">
        <ele>710</ele>
        <time>2016-11-27T12:19:30.000Z</time>
      </trkpt>
      <trkpt lat="46.0434" lon="4.52012">
        <ele>710</ele>
        <time>2016-11-27T12:19:31.000Z</time>
      </trkpt>
      <trkpt lat="46.04342" lon="4.52009">
        <ele>711</ele>
        <time>2016-11-27T12:19:32.000Z</time>
      </trkpt>
      <trkpt lat="46.04344" lon="4.52007">
        <ele>712</ele>
        <time>2016-11-27T12:19:33.000Z</time>
      </trkpt>
      <trkpt lat="46.04346" lon="4.52005">
        <ele>712</ele>
        <time>2016-11-27T12:19:34.000Z</time>
      </trkpt>
      <trkpt lat="46.04348" lon="4.52002">
        <ele>712</ele>
        <time>2016-11-27T12:19:35.000Z</time>
      </trkpt>
      <trkpt lat="46.04349" lon="4.52">
        <ele>713</ele>
        <time>2016-11-27T12:19:36.000Z</time>
      </trkpt>
      <trkpt lat="46.04351" lon="4.51998">
        <ele>713</ele>
        <time>2016-11-27T12:19:37.000Z</time>
      </trkpt>
      <trkpt lat="46.04353" lon="4.51996">
        <ele>713</ele>
        <time>2016-11-27T12:19:38.000Z</time>
      </trkpt>
      <trkpt lat="46.04355" lon="4.51993">
        <ele>713</ele>
        <time>2016-11-27T12:19:39.000Z</time>
      </trkpt>
      <trkpt lat="46.04357" lon="4.51991">
        <ele>713</ele>
        <time>2016-11-27T12:19:40.000Z</time>
      </trkpt>
      <trkpt lat="46.04359" lon="4.51989">
        <ele>714</ele>
        <time>2016-11-27T12:19:41.000Z</time>
      </trkpt>
      <trkpt lat="46.0436" lon="4.51987">
        <ele>714</ele>
        <time>2016-11-27T12:19:42.000Z</time>
      </trkpt>
      <trkpt lat="46.04362" lon="4.51984">
        <ele>714</ele>
        <time>2016-11-27T12:19:43.000Z</time>
      </trkpt>
      <trkpt lat="46.04364" lon="4.51982">
        <ele>714</ele>
        <time>2016-11-27T12:19:44.000Z</time>
      </trkpt>
      <trkpt lat="46.04366" lon="4.51979">
        <ele>714</ele>
        <time>2016-11-27T12:19:45.000Z</time>
      </trkpt>
      <trkpt lat="46.04367" lon="4.51977">
        <ele>715</ele>
        <time>2016-11-27T12:19:46.000Z</time>
      </trkpt>
      <trkpt lat="46.04369" lon="4.51975">
        <ele>715</ele>
        <time>2016-11-27T12:19:47.000Z</time>
      </trkpt>
      <trkpt lat="46.0437" lon="4.51972">
        <ele>715</ele>
        <time>2016-11-27T12:19:48.000Z</time>
      </trkpt>
      <trkpt lat="46.04372" lon="4.5197">
        <ele>715</ele>
        <time>2016-11-27T12:19:49.000Z</time>
      </trkpt>
      <trkpt lat="46.04373" lon="4.51967">
        <ele>715</ele>
        <time>2016-11-27T12:19:50.000Z</time>
      </trkpt>
      <trkpt lat="46.04375" lon="4.51965">
        <ele>714</ele>
        <time>2016-11-27T12:19:51.000Z</time>
      </trkpt>
      <trkpt lat="46.04376" lon="4.51963">
        <ele>714</ele>
        <time>2016-11-27T12:19:52.000Z</time>
      </trkpt>
      <trkpt lat="46.04378" lon="4.5196">
        <ele>715</ele>
        <time>2016-11-27T12:19:53.000Z</time>
      </trkpt>
      <trkpt lat="46.04379" lon="4.51958">
        <ele>715</ele>
        <time>2016-11-27T12:19:54.000Z</time>
      </trkpt>
      <trkpt lat="46.04381" lon="4.51955">
        <ele>714</ele>
        <time>2016-11-27T12:19:55.000Z</time>
      </trkpt>
      <trkpt lat="46.04383" lon="4.51953">
        <ele>714</ele>
        <time>2016-11-27T12:19:56.000Z</time>
      </trkpt>
      <trkpt lat="46.04384" lon="4.51951">
        <ele>714</ele>
        <time>2016-11-27T12:19:57.000Z</time>
      </trkpt>
      <trkpt lat="46.04386" lon="4.51948">
        <ele>715</ele>
        <time>2016-11-27T12:19:58.000Z</time>
      </trkpt>
      <trkpt lat="46.04388" lon="4.51946">
        <ele>716</ele>
        <time>2016-11-27T12:19:59.000Z</time>
      </trkpt>
      <trkpt lat="46.0439" lon="4.51943">
        <ele>716</ele>
        <time>2016-11-27T12:20:00.000Z</time>
      </trkpt>
      <trkpt lat="46.04392" lon="4.51941">
        <ele>716</ele>
        <time>2016-11-27T12:20:01.000Z</time>
      </trkpt>
      <trkpt lat="46.04394" lon="4.51939">
        <ele>716</ele>
        <time>2016-11-27T12:20:02.000Z</time>
      </trkpt>
      <trkpt lat="46.04395" lon="4.51936">
        <ele>716</ele>
        <time>2016-11-27T12:20:03.000Z</time>
      </trkpt>
      <trkpt lat="46.04397" lon="4.51934">
        <ele>717</ele>
        <time>2016-11-27T12:20:04.000Z</time>
      </trkpt>
      <trkpt lat="46.04398" lon="4.51931">
        <ele>717</ele>
        <time>2016-11-27T12:20:05.000Z</time>
      </trkpt>
      <trkpt lat="46.044" lon="4.51928">
        <ele>717</ele>
        <time>2016-11-27T12:20:06.000Z</time>
      </trkpt>
      <trkpt lat="46.04401" lon="4.51925">
        <ele>717</ele>
        <time>2016-11-27T12:20:07.000Z</time>
      </trkpt>
      <trkpt lat="46.04403" lon="4.51923">
        <ele>718</ele>
        <time>2016-11-27T12:20:08.000Z</time>
      </trkpt>
      <trkpt lat="46.04404" lon="4.5192">
        <ele>718</ele>
        <time>2016-11-27T12:20:09.000Z</time>
      </trkpt>
      <trkpt lat="46.04406" lon="4.51918">
        <ele>718</ele>
        <time>2016-11-27T12:20:10.000Z</time>
      </trkpt>
      <trkpt lat="46.04407" lon="4.51915">
        <ele>719</ele>
        <time>2016-11-27T12:20:11.000Z</time>
      </trkpt>
      <trkpt lat="46.04409" lon="4.51913">
        <ele>719</ele>
        <time>2016-11-27T12:20:12.000Z</time>
      </trkpt>
      <trkpt lat="46.04411" lon="4.5191">
        <ele>719</ele>
        <time>2016-11-27T12:20:13.000Z</time>
      </trkpt>
      <trkpt lat="46.04413" lon="4.51908">
        <ele>719</ele>
        <time>2016-11-27T12:20:14.000Z</time>
      </trkpt>
      <trkpt lat="46.04414" lon="4.51905">
        <ele>720</ele>
        <time>2016-11-27T12:20:15.000Z</time>
      </trkpt>
      <trkpt lat="46.04416" lon="4.51903">
        <ele>721</ele>
        <time>2016-11-27T12:20:16.000Z</time>
      </trkpt>
      <trkpt lat="46.04417" lon="4.51901">
        <ele>720</ele>
        <time>2016-11-27T12:20:17.000Z</time>
      </trkpt>
      <trkpt lat="46.04419" lon="4.51898">
        <ele>720</ele>
        <time>2016-11-27T12:20:18.000Z</time>
      </trkpt>
      <trkpt lat="46.04421" lon="4.51896">
        <ele>721</ele>
        <time>2016-11-27T12:20:19.000Z</time>
      </trkpt>
      <trkpt lat="46.04422" lon="4.51893">
        <ele>721</ele>
        <time>2016-11-27T12:20:20.000Z</time>
      </trkpt>
      <trkpt lat="46.04424" lon="4.51891">
        <ele>721</ele>
        <time>2016-11-27T12:20:21.000Z</time>
      </trkpt>
      <trkpt lat="46.04426" lon="4.51889">
        <ele>722</ele>
        <time>2016-11-27T12:20:22.000Z</time>
      </trkpt>
      <trkpt lat="46.04427" lon="4.51887">
        <ele>722</ele>
        <time>2016-11-27T12:20:23.000Z</time>
      </trkpt>
      <trkpt lat="46.04429" lon="4.51885">
        <ele>722</ele>
        <time>2016-11-27T12:20:24.000Z</time>
      </trkpt>
      <trkpt lat="46.04431" lon="4.51883">
        <ele>722</ele>
        <time>2016-11-27T12:20:25.000Z</time>
      </trkpt>
      <trkpt lat="46.04432" lon="4.5188">
        <ele>722</ele>
        <time>2016-11-27T12:20:26.000Z</time>
      </trkpt>
      <trkpt lat="46.04434" lon="4.51878">
        <ele>723</ele>
        <time>2016-11-27T12:20:27.000Z</time>
      </trkpt>
      <trkpt lat="46.04435" lon="4.51876">
        <ele>723</ele>
        <time>2016-11-27T12:20:28.000Z</time>
      </trkpt>
      <trkpt lat="46.04437" lon="4.51874">
        <ele>722</ele>
        <time>2016-11-27T12:20:29.000Z</time>
      </trkpt>
      <trkpt lat="46.04438" lon="4.51873">
        <ele>722</ele>
        <time>2016-11-27T12:20:30.000Z</time>
      </trkpt>
      <trkpt lat="46.04439" lon="4.51871">
        <ele>722</ele>
        <time>2016-11-27T12:20:31.000Z</time>
      </trkpt>
      <trkpt lat="46.0444" lon="4.5187">
        <ele>722</ele>
        <time>2016-11-27T12:20:32.000Z</time>
      </trkpt>
      <trkpt lat="46.04441" lon="4.51868">
        <ele>722</ele>
        <time>2016-11-27T12:20:33.000Z</time>
      </trkpt>
      <trkpt lat="46.04442" lon="4.51867">
        <ele>722</ele>
        <time>2016-11-27T12:20:34.000Z</time>
      </trkpt>
      <trkpt lat="46.04443" lon="4.51866">
        <ele>722</ele>
        <time>2016-11-27T12:20:35.000Z</time>
      </trkpt>
      <trkpt lat="46.04444" lon="4.51865">
        <ele>722</ele>
        <time>2016-11-27T12:20:36.000Z</time>
      </trkpt>
      <trkpt lat="46.04445" lon="4.51864">
        <ele>722</ele>
        <time>2016-11-27T12:20:37.000Z</time>
      </trkpt>
      <trkpt lat="46.04445" lon="4.51863">
        <ele>721</ele>
        <time>2016-11-27T12:20:38.000Z</time>
      </trkpt>
      <trkpt lat="46.04446" lon="4.51863">
        <ele>721</ele>
        <time>2016-11-27T12:20:39.000Z</time>
      </trkpt>
      <trkpt lat="46.04446" lon="4.51862">
        <ele>721</ele>
        <time>2016-11-27T12:20:40.000Z</time>
      </trkpt>
      <trkpt lat="46.04446" lon="4.51862">
        <ele>722</ele>
        <time>2016-11-27T12:20:41.000Z</time>
      </trkpt>
      <trkpt lat="46.04445" lon="4.51862">
        <ele>722</ele>
        <time>2016-11-27T12:20:42.000Z</time>
      </trkpt>
      <trkpt lat="46.04445" lon="4.51861">
        <ele>722</ele>
        <time>2016-11-27T12:20:43.000Z</time>
      </trkpt>
      <trkpt lat="46.04445" lon="4.5186">
        <ele>721</ele>
        <time>2016-11-27T12:20:44.000Z</time>
      </trkpt>
      <trkpt lat="46.04445" lon="4.51858">
        <ele>720</ele>
        <time>2016-11-27T12:20:45.000Z</time>
      </trkpt>
      <trkpt lat="46.04445" lon="4.51856">
        <ele>720</ele>
        <time>2016-11-27T12:20:46.000Z</time>
      </trkpt>
      <trkpt lat="46.04446" lon="4.51853">
        <ele>721</ele>
        <time>2016-11-27T12:20:47.000Z</time>
      </trkpt>
      <trkpt lat="46.04447" lon="4.5185">
        <ele>721</ele>
        <time>2016-11-27T12:20:48.000Z</time>
      </trkpt>
      <trkpt lat="46.04448" lon="4.51847">
        <ele>720</ele>
        <time>2016-11-27T12:20:49.000Z</time>
      </trkpt>
      <trkpt lat="46.04449" lon="4.51844">
        <ele>720</ele>
        <time>2016-11-27T12:20:50.000Z</time>
      </trkpt>
      <trkpt lat="46.0445" lon="4.51841">
        <ele>720</ele>
        <time>2016-11-27T12:20:51.000Z</time>
      </trkpt>
      <trkpt lat="46.04451" lon="4.51838">
        <ele>720</ele>
        <time>2016-11-27T12:20:52.000Z</time>
      </trkpt>
      <trkpt lat="46.04452" lon="4.51836">
        <ele>720</ele>
        <time>2016-11-27T12:20:53.000Z</time>
      </trkpt>
      <trkpt lat="46.04454" lon="4.51833">
        <ele>720</ele>
        <time>2016-11-27T12:20:54.000Z</time>
      </trkpt>
      <trkpt lat="46.04455" lon="4.51831">
        <ele>719</ele>
        <time>2016-11-27T12:20:55.000Z</time>
      </trkpt>
      <trkpt lat="46.04456" lon="4.5183">
        <ele>719</ele>
        <time>2016-11-27T12:20:56.000Z</time>
      </trkpt>
      <trkpt lat="46.04458" lon="4.51828">
        <ele>717</ele>
        <time>2016-11-27T12:20:57.000Z</time>
      </trkpt>
      <trkpt lat="46.04459" lon="4.51827">
        <ele>717</ele>
        <time>2016-11-27T12:20:58.000Z</time>
      </trkpt>
      <trkpt lat="46.0446" lon="4.51825">
        <ele>716</ele>
        <time>2016-11-27T12:20:59.000Z</time>
      </trkpt>
      <trkpt lat="46.04461" lon="4.51824">
        <ele>716</ele>
        <time>2016-11-27T12:21:00.000Z</time>
      </trkpt>
      <trkpt lat="46.04463" lon="4.51821">
        <ele>716</ele>
        <time>2016-11-27T12:21:01.000Z</time>
      </trkpt>
      <trkpt lat="46.04464" lon="4.51819">
        <ele>715</ele>
        <time>2016-11-27T12:21:02.000Z</time>
      </trkpt>
      <trkpt lat="46.04466" lon="4.51817">
        <ele>715</ele>
        <time>2016-11-27T12:21:03.000Z</time>
      </trkpt>
      <trkpt lat="46.04467" lon="4.51815">
        <ele>715</ele>
        <time>2016-11-27T12:21:04.000Z</time>
      </trkpt>
      <trkpt lat="46.04469" lon="4.51812">
        <ele>715</ele>
        <time>2016-11-27T12:21:05.000Z</time>
      </trkpt>
      <trkpt lat="46.0447" lon="4.5181">
        <ele>715</ele>
        <time>2016-11-27T12:21:06.000Z</time>
      </trkpt>
      <trkpt lat="46.04471" lon="4.51809">
        <ele>715</ele>
        <time>2016-11-27T12:21:07.000Z</time>
      </trkpt>
      <trkpt lat="46.04472" lon="4.51808">
        <ele>715</ele>
        <time>2016-11-27T12:21:08.000Z</time>
      </trkpt>
      <trkpt lat="46.04473" lon="4.51807">
        <ele>715</ele>
        <time>2016-11-27T12:21:09.000Z</time>
      </trkpt>
      <trkpt lat="46.04473" lon="4.51806">
        <ele>714</ele>
        <time>2016-11-27T12:21:10.000Z</time>
      </trkpt>
      <trkpt lat="46.04473" lon="4.51805">
        <ele>714</ele>
        <time>2016-11-27T12:21:11.000Z</time>
      </trkpt>
      <trkpt lat="46.04473" lon="4.51804">
        <ele>714</ele>
        <time>2016-11-27T12:21:12.000Z</time>
      </trkpt>
      <trkpt lat="46.04473" lon="4.51804">
        <ele>714</ele>
        <time>2016-11-27T12:21:13.000Z</time>
      </trkpt>
      <trkpt lat="46.04472" lon="4.51803">
        <ele>714</ele>
        <time>2016-11-27T12:21:14.000Z</time>
      </trkpt>
      <trkpt lat="46.04472" lon="4.51802">
        <ele>715</ele>
        <time>2016-11-27T12:21:15.000Z</time>
      </trkpt>
      <trkpt lat="46.04473" lon="4.51802">
        <ele>715</ele>
        <time>2016-11-27T12:21:16.000Z</time>
      </trkpt>
      <trkpt lat="46.04473" lon="4.51802">
        <ele>715</ele>
        <time>2016-11-27T12:21:17.000Z</time>
      </trkpt>
      <trkpt lat="46.04473" lon="4.51801">
        <ele>714</ele>
        <time>2016-11-27T12:21:18.000Z</time>
      </trkpt>
      <trkpt lat="46.04473" lon="4.518">
        <ele>715</ele>
        <time>2016-11-27T12:21:19.000Z</time>
      </trkpt>
      <trkpt lat="46.04473" lon="4.51798">
        <ele>715</ele>
        <time>2016-11-27T12:21:20.000Z</time>
      </trkpt>
      <trkpt lat="46.04472" lon="4.51796">
        <ele>715</ele>
        <time>2016-11-27T12:21:21.000Z</time>
      </trkpt>
      <trkpt lat="46.04472" lon="4.51794">
        <ele>715</ele>
        <time>2016-11-27T12:21:22.000Z</time>
      </trkpt>
      <trkpt lat="46.04472" lon="4.51791">
        <ele>714</ele>
        <time>2016-11-27T12:21:23.000Z</time>
      </trkpt>
      <trkpt lat="46.04473" lon="4.51789">
        <ele>714</ele>
        <time>2016-11-27T12:21:24.000Z</time>
      </trkpt>
      <trkpt lat="46.04474" lon="4.51785">
        <ele>714</ele>
        <time>2016-11-27T12:21:25.000Z</time>
      </trkpt>
      <trkpt lat="46.04474" lon="4.51782">
        <ele>714</ele>
        <time>2016-11-27T12:21:26.000Z</time>
      </trkpt>
      <trkpt lat="46.04475" lon="4.51779">
        <ele>713</ele>
        <time>2016-11-27T12:21:27.000Z</time>
      </trkpt>
      <trkpt lat="46.04476" lon="4.51777">
        <ele>712</ele>
        <time>2016-11-27T12:21:28.000Z</time>
      </trkpt>
      <trkpt lat="46.04477" lon="4.51774">
        <ele>710</ele>
        <time>2016-11-27T12:21:29.000Z</time>
      </trkpt>
      <trkpt lat="46.04478" lon="4.51772">
        <ele>708</ele>
        <time>2016-11-27T12:21:30.000Z</time>
      </trkpt>
      <trkpt lat="46.04479" lon="4.51769">
        <ele>708</ele>
        <time>2016-11-27T12:21:31.000Z</time>
      </trkpt>
      <trkpt lat="46.04481" lon="4.51767">
        <ele>707</ele>
        <time>2016-11-27T12:21:32.000Z</time>
      </trkpt>
      <trkpt lat="46.04482" lon="4.51765">
        <ele>707</ele>
        <time>2016-11-27T12:21:33.000Z</time>
      </trkpt>
      <trkpt lat="46.04484" lon="4.51762">
        <ele>707</ele>
        <time>2016-11-27T12:21:34.000Z</time>
      </trkpt>
      <trkpt lat="46.04486" lon="4.5176">
        <ele>706</ele>
        <time>2016-11-27T12:21:35.000Z</time>
      </trkpt>
      <trkpt lat="46.04487" lon="4.51758">
        <ele>705</ele>
        <time>2016-11-27T12:21:36.000Z</time>
      </trkpt>
      <trkpt lat="46.04489" lon="4.51756">
        <ele>703</ele>
        <time>2016-11-27T12:21:37.000Z</time>
      </trkpt>
      <trkpt lat="46.0449" lon="4.51755">
        <ele>703</ele>
        <time>2016-11-27T12:21:38.000Z</time>
      </trkpt>
      <trkpt lat="46.04492" lon="4.51754">
        <ele>701</ele>
        <time>2016-11-27T12:21:39.000Z</time>
      </trkpt>
      <trkpt lat="46.04493" lon="4.51753">
        <ele>700</ele>
        <time>2016-11-27T12:21:40.000Z</time>
      </trkpt>
      <trkpt lat="46.04494" lon="4.51752">
        <ele>701</ele>
        <time>2016-11-27T12:21:41.000Z</time>
      </trkpt>
      <trkpt lat="46.04496" lon="4.51751">
        <ele>701</ele>
        <time>2016-11-27T12:21:42.000Z</time>
      </trkpt>
      <trkpt lat="46.04497" lon="4.5175">
        <ele>701</ele>
        <time>2016-11-27T12:21:43.000Z</time>
      </trkpt>
      <trkpt lat="46.04497" lon="4.5175">
        <ele>702</ele>
        <time>2016-11-27T12:21:44.000Z</time>
      </trkpt>
      <trkpt lat="46.04497" lon="4.5175">
        <ele>701</ele>
        <time>2016-11-27T12:21:45.000Z</time>
      </trkpt>
      <trkpt lat="46.04497" lon="4.5175">
        <ele>702</ele>
        <time>2016-11-27T12:21:46.000Z</time>
      </trkpt>
      <trkpt lat="46.04497" lon="4.51749">
        <ele>703</ele>
        <time>2016-11-27T12:21:47.000Z</time>
      </trkpt>
      <trkpt lat="46.04496" lon="4.51749">
        <ele>704</ele>
        <time>2016-11-27T12:21:48.000Z</time>
      </trkpt>
      <trkpt lat="46.04496" lon="4.51749">
        <ele>703</ele>
        <time>2016-11-27T12:21:49.000Z</time>
      </trkpt>
      <trkpt lat="46.04495" lon="4.51748">
        <ele>704</ele>
        <time>2016-11-27T12:21:50.000Z</time>
      </trkpt>
      <trkpt lat="46.04494" lon="4.51748">
        <ele>705</ele>
        <time>2016-11-27T12:21:51.000Z</time>
      </trkpt>
      <trkpt lat="46.04493" lon="4.51747">
        <ele>706</ele>
        <time>2016-11-27T12:21:52.000Z</time>
      </trkpt>
      <trkpt lat="46.04493" lon="4.51746">
        <ele>706</ele>
        <time>2016-11-27T12:21:53.000Z</time>
      </trkpt>
      <trkpt lat="46.04492" lon="4.51746">
        <ele>706</ele>
        <time>2016-11-27T12:21:54.000Z</time>
      </trkpt>
      <trkpt lat="46.04493" lon="4.51746">
        <ele>706</ele>
        <time>2016-11-27T12:21:55.000Z</time>
      </trkpt>
      <trkpt lat="46.04492" lon="4.51746">
        <ele>707</ele>
        <time>2016-11-27T12:21:56.000Z</time>
      </trkpt>
      <trkpt lat="46.04492" lon="4.51746">
        <ele>708</ele>
        <time>2016-11-27T12:21:57.000Z</time>
      </trkpt>
      <trkpt lat="46.04492" lon="4.51746">
        <ele>708</ele>
        <time>2016-11-27T12:21:58.000Z</time>
      </trkpt>
      <trkpt lat="46.04492" lon="4.51746">
        <ele>708</ele>
        <time>2016-11-27T12:21:59.000Z</time>
      </trkpt>
      <trkpt lat="46.04492" lon="4.51746">
        <ele>708</ele>
        <time>2016-11-27T12:22:00.000Z</time>
      </trkpt>
      <trkpt lat="46.04492" lon="4.51746">
        <ele>708</ele>
        <time>2016-11-27T12:22:01.000Z</time>
      </trkpt>
      <trkpt lat="46.04492" lon="4.51746">
        <ele>708</ele>
        <time>2016-11-27T12:22:02.000Z</time>
      </trkpt>
      <trkpt lat="46.04492" lon="4.51746">
        <ele>708</ele>
        <time>2016-11-27T12:22:03.000Z</time>
      </trkpt>
      <trkpt lat="46.04492" lon="4.51746">
        <ele>708</ele>
        <time>2016-11-27T12:22:04.000Z</time>
      </trkpt>
      <trkpt lat="46.04491" lon="4.51746">
        <ele>708</ele>
        <time>2016-11-27T12:22:05.000Z</time>
      </trkpt>
      <trkpt lat="46.04491" lon="4.51746">
        <ele>708</ele>
        <time>2016-11-27T12:22:06.000Z</time>
      </trkpt>
      <trkpt lat="46.04491" lon="4.51746">
        <ele>707</ele>
        <time>2016-11-27T12:22:07.000Z</time>
      </trkpt>
      <trkpt lat="46.04491" lon="4.51746">
        <ele>708</ele>
        <time>2016-11-27T12:22:08.000Z</time>
      </trkpt>
      <trkpt lat="46.04491" lon="4.51747">
        <ele>708</ele>
        <time>2016-11-27T12:22:09.000Z</time>
      </trkpt>
      <trkpt lat="46.04491" lon="4.51747">
        <ele>708</ele>
        <time>2016-11-27T12:22:10.000Z</time>
      </trkpt>
      <trkpt lat="46.04491" lon="4.51747">
        <ele>708</ele>
        <time>2016-11-27T12:22:11.000Z</time>
      </trkpt>
      <trkpt lat="46.04491" lon="4.51747">
        <ele>708</ele>
        <time>2016-11-27T12:22:12.000Z</time>
      </trkpt>
      <trkpt lat="46.04491" lon="4.51747">
        <ele>708</ele>
        <time>2016-11-27T12:22:13.000Z</time>
      </trkpt>
      <trkpt lat="46.04491" lon="4.51747">
        <ele>708</ele>
        <time>2016-11-27T12:22:14.000Z</time>
      </trkpt>
      <trkpt lat="46.04491" lon="4.51747">
        <ele>709</ele>
        <time>2016-11-27T12:22:15.000Z</time>
      </trkpt>
      <trkpt lat="46.04491" lon="4.51747">
        <ele>709</ele>
        <time>2016-11-27T12:22:16.000Z</time>
      </trkpt>
      <trkpt lat="46.04491" lon="4.51747">
        <ele>709</ele>
        <time>2016-11-27T12:22:17.000Z</time>
      </trkpt>
      <trkpt lat="46.0449" lon="4.51747">
        <ele>709</ele>
        <time>2016-11-27T12:22:18.000Z</time>
      </trkpt>
      <trkpt lat="46.0449" lon="4.51747">
        <ele>710</ele>
        <time>2016-11-27T12:22:19.000Z</time>
      </trkpt>
      <trkpt lat="46.0449" lon="4.51747">
        <ele>710</ele>
        <time>2016-11-27T12:22:20.000Z</time>
      </trkpt>
      <trkpt lat="46.0449" lon="4.51747">
        <ele>710</ele>
        <time>2016-11-27T12:22:21.000Z</time>
      </trkpt>
      <trkpt lat="46.0449" lon="4.51747">
        <ele>711</ele>
        <time>2016-11-27T12:22:22.000Z</time>
      </trkpt>
      <trkpt lat="46.0449" lon="4.51747">
        <ele>711</ele>
        <time>2016-11-27T12:22:23.000Z</time>
      </trkpt>
      <trkpt lat="46.0449" lon="4.51747">
        <ele>711</ele>
        <time>2016-11-27T12:22:24.000Z</time>
      </trkpt>
      <trkpt lat="46.0449" lon="4.51748">
        <ele>712</ele>
        <time>2016-11-27T12:22:25.000Z</time>
      </trkpt>
      <trkpt lat="46.0449" lon="4.51748">
        <ele>712</ele>
        <time>2016-11-27T12:22:26.000Z</time>
      </trkpt>
      <trkpt lat="46.04489" lon="4.51748">
        <ele>713</ele>
        <time>2016-11-27T12:22:27.000Z</time>
      </trkpt>
      <trkpt lat="46.04489" lon="4.51748">
        <ele>713</ele>
        <time>2016-11-27T12:22:28.000Z</time>
      </trkpt>
      <trkpt lat="46.04489" lon="4.51748">
        <ele>714</ele>
        <time>2016-11-27T12:22:29.000Z</time>
      </trkpt>
      <trkpt lat="46.04489" lon="4.51748">
        <ele>714</ele>
        <time>2016-11-27T12:22:30.000Z</time>
      </trkpt>
      <trkpt lat="46.04489" lon="4.51748">
        <ele>714</ele>
        <time>2016-11-27T12:22:31.000Z</time>
      </trkpt>
      <trkpt lat="46.04489" lon="4.51748">
        <ele>714</ele>
        <time>2016-11-27T12:22:32.000Z</time>
      </trkpt>
      <trkpt lat="46.04489" lon="4.51748">
        <ele>713</ele>
        <time>2016-11-27T12:22:33.000Z</time>
      </trkpt>
      <trkpt lat="46.04489" lon="4.51749">
        <ele>713</ele>
        <time>2016-11-27T12:22:34.000Z</time>
      </trkpt>
      <trkpt lat="46.04489" lon="4.51749">
        <ele>713</ele>
        <time>2016-11-27T12:22:35.000Z</time>
      </trkpt>
      <trkpt lat="46.04489" lon="4.51749">
        <ele>713</ele>
        <time>2016-11-27T12:22:36.000Z</time>
      </trkpt>
      <trkpt lat="46.04489" lon="4.51749">
        <ele>713</ele>
        <time>2016-11-27T12:22:37.000Z</time>
      </trkpt>
      <trkpt lat="46.04489" lon="4.51749">
        <ele>713</ele>
        <time>2016-11-27T12:22:38.000Z</time>
      </trkpt>
      <trkpt lat="46.04489" lon="4.51749">
        <ele>713</ele>
        <time>2016-11-27T12:22:39.000Z</time>
      </trkpt>
      <trkpt lat="46.04489" lon="4.51749">
        <ele>713</ele>
        <time>2016-11-27T12:22:40.000Z</time>
      </trkpt>
      <trkpt lat="46.04489" lon="4.51749">
        <ele>712</ele>
        <time>2016-11-27T12:22:41.000Z</time>
      </trkpt>
      <trkpt lat="46.04489" lon="4.51749">
        <ele>712</ele>
        <time>2016-11-27T12:22:42.000Z</time>
      </trkpt>
      <trkpt lat="46.04489" lon="4.51749">
        <ele>712</ele>
        <time>2016-11-27T12:22:43.000Z</time>
      </trkpt>
      <trkpt lat="46.04489" lon="4.51749">
        <ele>712</ele>
        <time>2016-11-27T12:22:44.000Z</time>
      </trkpt>
      <trkpt lat="46.04489" lon="4.5175">
        <ele>712</ele>
        <time>2016-11-27T12:22:45.000Z</time>
      </trkpt>
      <trkpt lat="46.04489" lon="4.51749">
        <ele>712</ele>
        <time>2016-11-27T12:22:46.000Z</time>
      </trkpt>
      <trkpt lat="46.0449" lon="4.51749">
        <ele>712</ele>
        <time>2016-11-27T12:22:47.000Z</time>
      </trkpt>
      <trkpt lat="46.04489" lon="4.51749">
        <ele>712</ele>
        <time>2016-11-27T12:22:48.000Z</time>
      </trkpt>
      <trkpt lat="46.04489" lon="4.51749">
        <ele>712</ele>
        <time>2016-11-27T12:22:49.000Z</time>
      </trkpt>
      <trkpt lat="46.04489" lon="4.51749">
        <ele>712</ele>
        <time>2016-11-27T12:22:50.000Z</time>
      </trkpt>
      <trkpt lat="46.04489" lon="4.51749">
        <ele>713</ele>
        <time>2016-11-27T12:22:51.000Z</time>
      </trkpt>
      <trkpt lat="46.04489" lon="4.51749">
        <ele>713</ele>
        <time>2016-11-27T12:22:52.000Z</time>
      </trkpt>
      <trkpt lat="46.04489" lon="4.51749">
        <ele>713</ele>
        <time>2016-11-27T12:22:53.000Z</time>
      </trkpt>
      <trkpt lat="46.04489" lon="4.51749">
        <ele>713</ele>
        <time>2016-11-27T12:22:54.000Z</time>
      </trkpt>
      <trkpt lat="46.04489" lon="4.5175">
        <ele>714</ele>
        <time>2016-11-27T12:22:55.000Z</time>
      </trkpt>
      <trkpt lat="46.04489" lon="4.5175">
        <ele>714</ele>
        <time>2016-11-27T12:22:56.000Z</time>
      </trkpt>
      <trkpt lat="46.04489" lon="4.51751">
        <ele>714</ele>
        <time>2016-11-27T12:22:57.000Z</time>
      </trkpt>
      <trkpt lat="46.04489" lon="4.51752">
        <ele>714</ele>
        <time>2016-11-27T12:22:58.000Z</time>
      </trkpt>
      <trkpt lat="46.04488" lon="4.51753">
        <ele>714</ele>
        <time>2016-11-27T12:22:59.000Z</time>
      </trkpt>
      <trkpt lat="46.04488" lon="4.51754">
        <ele>714</ele>
        <time>2016-11-27T12:23:00.000Z</time>
      </trkpt>
      <trkpt lat="46.04488" lon="4.51755">
        <ele>714</ele>
        <time>2016-11-27T12:23:01.000Z</time>
      </trkpt>
      <trkpt lat="46.04487" lon="4.51755">
        <ele>714</ele>
        <time>2016-11-27T12:23:02.000Z</time>
      </trkpt>
      <trkpt lat="46.04486" lon="4.51756">
        <ele>714</ele>
        <time>2016-11-27T12:23:03.000Z</time>
      </trkpt>
      <trkpt lat="46.04485" lon="4.51756">
        <ele>714</ele>
        <time>2016-11-27T12:23:04.000Z</time>
      </trkpt>
      <trkpt lat="46.04484" lon="4.51757">
        <ele>715</ele>
        <time>2016-11-27T12:23:05.000Z</time>
      </trkpt>
      <trkpt lat="46.04484" lon="4.51758">
        <ele>715</ele>
        <time>2016-11-27T12:23:06.000Z</time>
      </trkpt>
      <trkpt lat="46.04483" lon="4.51759">
        <ele>715</ele>
        <time>2016-11-27T12:23:07.000Z</time>
      </trkpt>
      <trkpt lat="46.04483" lon="4.5176">
        <ele>715</ele>
        <time>2016-11-27T12:23:08.000Z</time>
      </trkpt>
      <trkpt lat="46.04482" lon="4.51761">
        <ele>715</ele>
        <time>2016-11-27T12:23:09.000Z</time>
      </trkpt>
      <trkpt lat="46.04482" lon="4.51762">
        <ele>715</ele>
        <time>2016-11-27T12:23:10.000Z</time>
      </trkpt>
      <trkpt lat="46.04482" lon="4.51763">
        <ele>715</ele>
        <time>2016-11-27T12:23:11.000Z</time>
      </trkpt>
      <trkpt lat="46.04482" lon="4.51765">
        <ele>716</ele>
        <time>2016-11-27T12:23:12.000Z</time>
      </trkpt>
      <trkpt lat="46.04481" lon="4.51766">
        <ele>716</ele>
        <time>2016-11-27T12:23:13.000Z</time>
      </trkpt>
      <trkpt lat="46.04481" lon="4.51768">
        <ele>717</ele>
        <time>2016-11-27T12:23:14.000Z</time>
      </trkpt>
      <trkpt lat="46.0448" lon="4.51769">
        <ele>718</ele>
        <time>2016-11-27T12:23:15.000Z</time>
      </trkpt>
      <trkpt lat="46.0448" lon="4.5177">
        <ele>718</ele>
        <time>2016-11-27T12:23:16.000Z</time>
      </trkpt>
      <trkpt lat="46.0448" lon="4.51771">
        <ele>719</ele>
        <time>2016-11-27T12:23:17.000Z</time>
      </trkpt>
      <trkpt lat="46.0448" lon="4.51773">
        <ele>720</ele>
        <time>2016-11-27T12:23:18.000Z</time>
      </trkpt>
      <trkpt lat="46.0448" lon="4.51774">
        <ele>720</ele>
        <time>2016-11-27T12:23:19.000Z</time>
      </trkpt>
      <trkpt lat="46.0448" lon="4.51775">
        <ele>721</ele>
        <time>2016-11-27T12:23:20.000Z</time>
      </trkpt>
      <trkpt lat="46.0448" lon="4.51776">
        <ele>722</ele>
        <time>2016-11-27T12:23:21.000Z</time>
      </trkpt>
      <trkpt lat="46.0448" lon="4.51777">
        <ele>722</ele>
        <time>2016-11-27T12:23:22.000Z</time>
      </trkpt>
      <trkpt lat="46.0448" lon="4.51779">
        <ele>722</ele>
        <time>2016-11-27T12:23:23.000Z</time>
      </trkpt>
      <trkpt lat="46.0448" lon="4.5178">
        <ele>722</ele>
        <time>2016-11-27T12:23:24.000Z</time>
      </trkpt>
      <trkpt lat="46.04479" lon="4.51782">
        <ele>722</ele>
        <time>2016-11-27T12:23:25.000Z</time>
      </trkpt>
      <trkpt lat="46.04479" lon="4.51783">
        <ele>721</ele>
        <time>2016-11-27T12:23:26.000Z</time>
      </trkpt>
      <trkpt lat="46.04479" lon="4.51784">
        <ele>721</ele>
        <time>2016-11-27T12:23:27.000Z</time>
      </trkpt>
      <trkpt lat="46.04479" lon="4.51786">
        <ele>721</ele>
        <time>2016-11-27T12:23:28.000Z</time>
      </trkpt>
      <trkpt lat="46.04479" lon="4.51787">
        <ele>721</ele>
        <time>2016-11-27T12:23:29.000Z</time>
      </trkpt>
      <trkpt lat="46.04478" lon="4.51788">
        <ele>720</ele>
        <time>2016-11-27T12:23:30.000Z</time>
      </trkpt>
      <trkpt lat="46.04478" lon="4.5179">
        <ele>720</ele>
        <time>2016-11-27T12:23:31.000Z</time>
      </trkpt>
      <trkpt lat="46.04478" lon="4.51791">
        <ele>720</ele>
        <time>2016-11-27T12:23:32.000Z</time>
      </trkpt>
      <trkpt lat="46.04478" lon="4.51792">
        <ele>720</ele>
        <time>2016-11-27T12:23:33.000Z</time>
      </trkpt>
      <trkpt lat="46.04478" lon="4.51794">
        <ele>720</ele>
        <time>2016-11-27T12:23:34.000Z</time>
      </trkpt>
      <trkpt lat="46.04478" lon="4.51795">
        <ele>721</ele>
        <time>2016-11-27T12:23:35.000Z</time>
      </trkpt>
      <trkpt lat="46.04477" lon="4.51796">
        <ele>721</ele>
        <time>2016-11-27T12:23:36.000Z</time>
      </trkpt>
      <trkpt lat="46.04477" lon="4.51797">
        <ele>722</ele>
        <time>2016-11-27T12:23:37.000Z</time>
      </trkpt>
      <trkpt lat="46.04477" lon="4.51798">
        <ele>722</ele>
        <time>2016-11-27T12:23:38.000Z</time>
      </trkpt>
      <trkpt lat="46.04478" lon="4.51799">
        <ele>722</ele>
        <time>2016-11-27T12:23:39.000Z</time>
      </trkpt>
      <trkpt lat="46.04477" lon="4.51801">
        <ele>723</ele>
        <time>2016-11-27T12:23:40.000Z</time>
      </trkpt>
      <trkpt lat="46.04477" lon="4.51802">
        <ele>723</ele>
        <time>2016-11-27T12:23:41.000Z</time>
      </trkpt>
      <trkpt lat="46.04477" lon="4.51803">
        <ele>723</ele>
        <time>2016-11-27T12:23:42.000Z</time>
      </trkpt>
      <trkpt lat="46.04476" lon="4.51805">
        <ele>723</ele>
        <time>2016-11-27T12:23:43.000Z</time>
      </trkpt>
      <trkpt lat="46.04475" lon="4.51806">
        <ele>722</ele>
        <time>2016-11-27T12:23:44.000Z</time>
      </trkpt>
      <trkpt lat="46.04473" lon="4.51807">
        <ele>722</ele>
        <time>2016-11-27T12:23:45.000Z</time>
      </trkpt>
      <trkpt lat="46.04472" lon="4.51808">
        <ele>722</ele>
        <time>2016-11-27T12:23:46.000Z</time>
      </trkpt>
      <trkpt lat="46.04472" lon="4.51809">
        <ele>722</ele>
        <time>2016-11-27T12:23:47.000Z</time>
      </trkpt>
      <trkpt lat="46.04471" lon="4.5181">
        <ele>722</ele>
        <time>2016-11-27T12:23:48.000Z</time>
      </trkpt>
      <trkpt lat="46.04471" lon="4.51811">
        <ele>721</ele>
        <time>2016-11-27T12:23:49.000Z</time>
      </trkpt>
      <trkpt lat="46.0447" lon="4.51813">
        <ele>722</ele>
        <time>2016-11-27T12:23:50.000Z</time>
      </trkpt>
      <trkpt lat="46.04469" lon="4.51814">
        <ele>723</ele>
        <time>2016-11-27T12:23:51.000Z</time>
      </trkpt>
      <trkpt lat="46.04467" lon="4.51816">
        <ele>722</ele>
        <time>2016-11-27T12:23:52.000Z</time>
      </trkpt>
      <trkpt lat="46.04466" lon="4.51818">
        <ele>722</ele>
        <time>2016-11-27T12:23:53.000Z</time>
      </trkpt>
      <trkpt lat="46.04465" lon="4.5182">
        <ele>722</ele>
        <time>2016-11-27T12:23:54.000Z</time>
      </trkpt>
      <trkpt lat="46.04464" lon="4.51821">
        <ele>723</ele>
        <time>2016-11-27T12:23:55.000Z</time>
      </trkpt>
      <trkpt lat="46.04463" lon="4.51823">
        <ele>723</ele>
        <time>2016-11-27T12:23:56.000Z</time>
      </trkpt>
      <trkpt lat="46.04462" lon="4.51825">
        <ele>723</ele>
        <time>2016-11-27T12:23:57.000Z</time>
      </trkpt>
      <trkpt lat="46.04461" lon="4.51826">
        <ele>723</ele>
        <time>2016-11-27T12:23:58.000Z</time>
      </trkpt>
      <trkpt lat="46.04459" lon="4.51827">
        <ele>722</ele>
        <time>2016-11-27T12:23:59.000Z</time>
      </trkpt>
      <trkpt lat="46.04458" lon="4.51829">
        <ele>722</ele>
        <time>2016-11-27T12:24:00.000Z</time>
      </trkpt>
      <trkpt lat="46.04457" lon="4.5183">
        <ele>721</ele>
        <time>2016-11-27T12:24:01.000Z</time>
      </trkpt>
      <trkpt lat="46.04457" lon="4.51832">
        <ele>721</ele>
        <time>2016-11-27T12:24:02.000Z</time>
      </trkpt>
      <trkpt lat="46.04456" lon="4.51833">
        <ele>721</ele>
        <time>2016-11-27T12:24:03.000Z</time>
      </trkpt>
      <trkpt lat="46.04455" lon="4.51835">
        <ele>721</ele>
        <time>2016-11-27T12:24:04.000Z</time>
      </trkpt>
      <trkpt lat="46.04454" lon="4.51837">
        <ele>721</ele>
        <time>2016-11-27T12:24:05.000Z</time>
      </trkpt>
      <trkpt lat="46.04453" lon="4.51839">
        <ele>721</ele>
        <time>2016-11-27T12:24:06.000Z</time>
      </trkpt>
      <trkpt lat="46.04452" lon="4.5184">
        <ele>721</ele>
        <time>2016-11-27T12:24:07.000Z</time>
      </trkpt>
      <trkpt lat="46.04451" lon="4.51842">
        <ele>722</ele>
        <time>2016-11-27T12:24:08.000Z</time>
      </trkpt>
      <trkpt lat="46.04451" lon="4.51844">
        <ele>722</ele>
        <time>2016-11-27T12:24:09.000Z</time>
      </trkpt>
      <trkpt lat="46.0445" lon="4.51846">
        <ele>722</ele>
        <time>2016-11-27T12:24:10.000Z</time>
      </trkpt>
      <trkpt lat="46.04449" lon="4.51848">
        <ele>722</ele>
        <time>2016-11-27T12:24:11.000Z</time>
      </trkpt>
      <trkpt lat="46.04448" lon="4.5185">
        <ele>723</ele>
        <time>2016-11-27T12:24:12.000Z</time>
      </trkpt>
      <trkpt lat="46.04448" lon="4.51852">
        <ele>723</ele>
        <time>2016-11-27T12:24:13.000Z</time>
      </trkpt>
      <trkpt lat="46.04448" lon="4.51854">
        <ele>724</ele>
        <time>2016-11-27T12:24:14.000Z</time>
      </trkpt>
      <trkpt lat="46.04448" lon="4.51855">
        <ele>723</ele>
        <time>2016-11-27T12:24:15.000Z</time>
      </trkpt>
      <trkpt lat="46.04448" lon="4.51857">
        <ele>723</ele>
        <time>2016-11-27T12:24:16.000Z</time>
      </trkpt>
      <trkpt lat="46.04448" lon="4.51858">
        <ele>723</ele>
        <time>2016-11-27T12:24:17.000Z</time>
      </trkpt>
      <trkpt lat="46.04449" lon="4.51858">
        <ele>723</ele>
        <time>2016-11-27T12:24:18.000Z</time>
      </trkpt>
      <trkpt lat="46.0445" lon="4.51858">
        <ele>723</ele>
        <time>2016-11-27T12:24:19.000Z</time>
      </trkpt>
      <trkpt lat="46.04452" lon="4.51857">
        <ele>724</ele>
        <time>2016-11-27T12:24:20.000Z</time>
      </trkpt>
      <trkpt lat="46.04453" lon="4.51856">
        <ele>724</ele>
        <time>2016-11-27T12:24:21.000Z</time>
      </trkpt>
      <trkpt lat="46.04454" lon="4.51855">
        <ele>724</ele>
        <time>2016-11-27T12:24:22.000Z</time>
      </trkpt>
      <trkpt lat="46.04455" lon="4.51854">
        <ele>725</ele>
        <time>2016-11-27T12:24:23.000Z</time>
      </trkpt>
      <trkpt lat="46.04456" lon="4.51853">
        <ele>725</ele>
        <time>2016-11-27T12:24:24.000Z</time>
      </trkpt>
      <trkpt lat="46.04457" lon="4.51852">
        <ele>725</ele>
        <time>2016-11-27T12:24:25.000Z</time>
      </trkpt>
      <trkpt lat="46.04458" lon="4.51851">
        <ele>725</ele>
        <time>2016-11-27T12:24:26.000Z</time>
      </trkpt>
      <trkpt lat="46.04459" lon="4.5185">
        <ele>725</ele>
        <time>2016-11-27T12:24:27.000Z</time>
      </trkpt>
      <trkpt lat="46.0446" lon="4.51849">
        <ele>726</ele>
        <time>2016-11-27T12:24:28.000Z</time>
      </trkpt>
      <trkpt lat="46.04461" lon="4.51849">
        <ele>727</ele>
        <time>2016-11-27T12:24:29.000Z</time>
      </trkpt>
      <trkpt lat="46.04462" lon="4.51848">
        <ele>727</ele>
        <time>2016-11-27T12:24:30.000Z</time>
      </trkpt>
      <trkpt lat="46.04463" lon="4.51847">
        <ele>727</ele>
        <time>2016-11-27T12:24:31.000Z</time>
      </trkpt>
      <trkpt lat="46.04464" lon="4.51846">
        <ele>727</ele>
        <time>2016-11-27T12:24:32.000Z</time>
      </trkpt>
      <trkpt lat="46.04465" lon="4.51845">
        <ele>727</ele>
        <time>2016-11-27T12:24:33.000Z</time>
      </trkpt>
      <trkpt lat="46.04466" lon="4.51844">
        <ele>727</ele>
        <time>2016-11-27T12:24:34.000Z</time>
      </trkpt>
      <trkpt lat="46.04467" lon="4.51843">
        <ele>727</ele>
        <time>2016-11-27T12:24:35.000Z</time>
      </trkpt>
      <trkpt lat="46.04468" lon="4.51842">
        <ele>728</ele>
        <time>2016-11-27T12:24:36.000Z</time>
      </trkpt>
      <trkpt lat="46.04469" lon="4.51841">
        <ele>727</ele>
        <time>2016-11-27T12:24:37.000Z</time>
      </trkpt>
      <trkpt lat="46.0447" lon="4.51841">
        <ele>727</ele>
        <time>2016-11-27T12:24:38.000Z</time>
      </trkpt>
      <trkpt lat="46.04471" lon="4.5184">
        <ele>727</ele>
        <time>2016-11-27T12:24:39.000Z</time>
      </trkpt>
      <trkpt lat="46.04472" lon="4.5184">
        <ele>727</ele>
        <time>2016-11-27T12:24:40.000Z</time>
      </trkpt>
      <trkpt lat="46.04473" lon="4.51839">
        <ele>726</ele>
        <time>2016-11-27T12:24:41.000Z</time>
      </trkpt>
      <trkpt lat="46.04475" lon="4.51839">
        <ele>725</ele>
        <time>2016-11-27T12:24:42.000Z</time>
      </trkpt>
      <trkpt lat="46.04476" lon="4.51838">
        <ele>724</ele>
        <time>2016-11-27T12:24:43.000Z</time>
      </trkpt>
      <trkpt lat="46.04478" lon="4.51837">
        <ele>724</ele>
        <time>2016-11-27T12:24:44.000Z</time>
      </trkpt>
      <trkpt lat="46.04479" lon="4.51836">
        <ele>723</ele>
        <time>2016-11-27T12:24:45.000Z</time>
      </trkpt>
      <trkpt lat="46.0448" lon="4.51836">
        <ele>722</ele>
        <time>2016-11-27T12:24:46.000Z</time>
      </trkpt>
      <trkpt lat="46.04481" lon="4.51835">
        <ele>722</ele>
        <time>2016-11-27T12:24:47.000Z</time>
      </trkpt>
      <trkpt lat="46.04482" lon="4.51835">
        <ele>722</ele>
        <time>2016-11-27T12:24:48.000Z</time>
      </trkpt>
      <trkpt lat="46.04483" lon="4.51834">
        <ele>722</ele>
        <time>2016-11-27T12:24:49.000Z</time>
      </trkpt>
      <trkpt lat="46.04484" lon="4.51834">
        <ele>723</ele>
        <time>2016-11-27T12:24:50.000Z</time>
      </trkpt>
      <trkpt lat="46.04485" lon="4.51833">
        <ele>724</ele>
        <time>2016-11-27T12:24:51.000Z</time>
      </trkpt>
      <trkpt lat="46.04486" lon="4.51833">
        <ele>723</ele>
        <time>2016-11-27T12:24:52.000Z</time>
      </trkpt>
      <trkpt lat="46.04488" lon="4.51832">
        <ele>724</ele>
        <time>2016-11-27T12:24:53.000Z</time>
      </trkpt>
      <trkpt lat="46.04489" lon="4.51832">
        <ele>725</ele>
        <time>2016-11-27T12:24:54.000Z</time>
      </trkpt>
      <trkpt lat="46.0449" lon="4.51831">
        <ele>726</ele>
        <time>2016-11-27T12:24:55.000Z</time>
      </trkpt>
      <trkpt lat="46.04492" lon="4.5183">
        <ele>727</ele>
        <time>2016-11-27T12:24:56.000Z</time>
      </trkpt>
      <trkpt lat="46.04493" lon="4.5183">
        <ele>726</ele>
        <time>2016-11-27T12:24:57.000Z</time>
      </trkpt>
      <trkpt lat="46.04494" lon="4.51829">
        <ele>726</ele>
        <time>2016-11-27T12:24:58.000Z</time>
      </trkpt>
      <trkpt lat="46.04495" lon="4.51829">
        <ele>727</ele>
        <time>2016-11-27T12:24:59.000Z</time>
      </trkpt>
      <trkpt lat="46.04496" lon="4.51828">
        <ele>727</ele>
        <time>2016-11-27T12:25:00.000Z</time>
      </trkpt>
      <trkpt lat="46.04497" lon="4.51828">
        <ele>727</ele>
        <time>2016-11-27T12:25:01.000Z</time>
      </trkpt>
      <trkpt lat="46.04498" lon="4.51827">
        <ele>728</ele>
        <time>2016-11-27T12:25:02.000Z</time>
      </trkpt>
      <trkpt lat="46.045" lon="4.51827">
        <ele>727</ele>
        <time>2016-11-27T12:25:03.000Z</time>
      </trkpt>
      <trkpt lat="46.04501" lon="4.51827">
        <ele>726</ele>
        <time>2016-11-27T12:25:04.000Z</time>
      </trkpt>
      <trkpt lat="46.04502" lon="4.51826">
        <ele>726</ele>
        <time>2016-11-27T12:25:05.000Z</time>
      </trkpt>
      <trkpt lat="46.04504" lon="4.51826">
        <ele>727</ele>
        <time>2016-11-27T12:25:06.000Z</time>
      </trkpt>
      <trkpt lat="46.04505" lon="4.51825">
        <ele>727</ele>
        <time>2016-11-27T12:25:07.000Z</time>
      </trkpt>
      <trkpt lat="46.04506" lon="4.51825">
        <ele>727</ele>
        <time>2016-11-27T12:25:08.000Z</time>
      </trkpt>
      <trkpt lat="46.04508" lon="4.51825">
        <ele>728</ele>
        <time>2016-11-27T12:25:09.000Z</time>
      </trkpt>
      <trkpt lat="46.04509" lon="4.51824">
        <ele>728</ele>
        <time>2016-11-27T12:25:10.000Z</time>
      </trkpt>
      <trkpt lat="46.0451" lon="4.51824">
        <ele>727</ele>
        <time>2016-11-27T12:25:11.000Z</time>
      </trkpt>
      <trkpt lat="46.04512" lon="4.51825">
        <ele>726</ele>
        <time>2016-11-27T12:25:12.000Z</time>
      </trkpt>
      <trkpt lat="46.04513" lon="4.51825">
        <ele>726</ele>
        <time>2016-11-27T12:25:13.000Z</time>
      </trkpt>
      <trkpt lat="46.04514" lon="4.51825">
        <ele>726</ele>
        <time>2016-11-27T12:25:14.000Z</time>
      </trkpt>
      <trkpt lat="46.04515" lon="4.51825">
        <ele>726</ele>
        <time>2016-11-27T12:25:15.000Z</time>
      </trkpt>
      <trkpt lat="46.04517" lon="4.51826">
        <ele>726</ele>
        <time>2016-11-27T12:25:16.000Z</time>
      </trkpt>
      <trkpt lat="46.04518" lon="4.51826">
        <ele>726</ele>
        <time>2016-11-27T12:25:17.000Z</time>
      </trkpt>
      <trkpt lat="46.04519" lon="4.51827">
        <ele>724</ele>
        <time>2016-11-27T12:25:18.000Z</time>
      </trkpt>
      <trkpt lat="46.0452" lon="4.51827">
        <ele>724</ele>
        <time>2016-11-27T12:25:19.000Z</time>
      </trkpt>
      <trkpt lat="46.04521" lon="4.51827">
        <ele>724</ele>
        <time>2016-11-27T12:25:20.000Z</time>
      </trkpt>
      <trkpt lat="46.04522" lon="4.51827">
        <ele>724</ele>
        <time>2016-11-27T12:25:21.000Z</time>
      </trkpt>
      <trkpt lat="46.04524" lon="4.51827">
        <ele>724</ele>
        <time>2016-11-27T12:25:22.000Z</time>
      </trkpt>
      <trkpt lat="46.04526" lon="4.51827">
        <ele>724</ele>
        <time>2016-11-27T12:25:23.000Z</time>
      </trkpt>
      <trkpt lat="46.04527" lon="4.51827">
        <ele>724</ele>
        <time>2016-11-27T12:25:24.000Z</time>
      </trkpt>
      <trkpt lat="46.04528" lon="4.51828">
        <ele>723</ele>
        <time>2016-11-27T12:25:25.000Z</time>
      </trkpt>
      <trkpt lat="46.0453" lon="4.51828">
        <ele>723</ele>
        <time>2016-11-27T12:25:26.000Z</time>
      </trkpt>
      <trkpt lat="46.04531" lon="4.51829">
        <ele>722</ele>
        <time>2016-11-27T12:25:27.000Z</time>
      </trkpt>
      <trkpt lat="46.04533" lon="4.51829">
        <ele>722</ele>
        <time>2016-11-27T12:25:28.000Z</time>
      </trkpt>
      <trkpt lat="46.04534" lon="4.51829">
        <ele>722</ele>
        <time>2016-11-27T12:25:29.000Z</time>
      </trkpt>
      <trkpt lat="46.04535" lon="4.51829">
        <ele>722</ele>
        <time>2016-11-27T12:25:30.000Z</time>
      </trkpt>
      <trkpt lat="46.04537" lon="4.5183">
        <ele>722</ele>
        <time>2016-11-27T12:25:31.000Z</time>
      </trkpt>
      <trkpt lat="46.04538" lon="4.5183">
        <ele>722</ele>
        <time>2016-11-27T12:25:32.000Z</time>
      </trkpt>
      <trkpt lat="46.04539" lon="4.5183">
        <ele>722</ele>
        <time>2016-11-27T12:25:33.000Z</time>
      </trkpt>
      <trkpt lat="46.04541" lon="4.51831">
        <ele>722</ele>
        <time>2016-11-27T12:25:34.000Z</time>
      </trkpt>
      <trkpt lat="46.04542" lon="4.51831">
        <ele>722</ele>
        <time>2016-11-27T12:25:35.000Z</time>
      </trkpt>
      <trkpt lat="46.04544" lon="4.51832">
        <ele>722</ele>
        <time>2016-11-27T12:25:36.000Z</time>
      </trkpt>
      <trkpt lat="46.04545" lon="4.51833">
        <ele>721</ele>
        <time>2016-11-27T12:25:37.000Z</time>
      </trkpt>
      <trkpt lat="46.04547" lon="4.51833">
        <ele>722</ele>
        <time>2016-11-27T12:25:38.000Z</time>
      </trkpt>
      <trkpt lat="46.04548" lon="4.51833">
        <ele>722</ele>
        <time>2016-11-27T12:25:39.000Z</time>
      </trkpt>
      <trkpt lat="46.0455" lon="4.51834">
        <ele>722</ele>
        <time>2016-11-27T12:25:40.000Z</time>
      </trkpt>
      <trkpt lat="46.04551" lon="4.51834">
        <ele>722</ele>
        <time>2016-11-27T12:25:41.000Z</time>
      </trkpt>
      <trkpt lat="46.04552" lon="4.51834">
        <ele>721</ele>
        <time>2016-11-27T12:25:42.000Z</time>
      </trkpt>
      <trkpt lat="46.04553" lon="4.51834">
        <ele>721</ele>
        <time>2016-11-27T12:25:43.000Z</time>
      </trkpt>
      <trkpt lat="46.04555" lon="4.51835">
        <ele>720</ele>
        <time>2016-11-27T12:25:44.000Z</time>
      </trkpt>
      <trkpt lat="46.04556" lon="4.51835">
        <ele>721</ele>
        <time>2016-11-27T12:25:45.000Z</time>
      </trkpt>
      <trkpt lat="46.04558" lon="4.51835">
        <ele>721</ele>
        <time>2016-11-27T12:25:46.000Z</time>
      </trkpt>
      <trkpt lat="46.04559" lon="4.51835">
        <ele>721</ele>
        <time>2016-11-27T12:25:47.000Z</time>
      </trkpt>
      <trkpt lat="46.04561" lon="4.51835">
        <ele>721</ele>
        <time>2016-11-27T12:25:48.000Z</time>
      </trkpt>
      <trkpt lat="46.04562" lon="4.51835">
        <ele>721</ele>
        <time>2016-11-27T12:25:49.000Z</time>
      </trkpt>
      <trkpt lat="46.04564" lon="4.51836">
        <ele>721</ele>
        <time>2016-11-27T12:25:50.000Z</time>
      </trkpt>
      <trkpt lat="46.04565" lon="4.51836">
        <ele>721</ele>
        <time>2016-11-27T12:25:51.000Z</time>
      </trkpt>
      <trkpt lat="46.04566" lon="4.51837">
        <ele>722</ele>
        <time>2016-11-27T12:25:52.000Z</time>
      </trkpt>
      <trkpt lat="46.04568" lon="4.51837">
        <ele>723</ele>
        <time>2016-11-27T12:25:53.000Z</time>
      </trkpt>
      <trkpt lat="46.04569" lon="4.51838">
        <ele>723</ele>
        <time>2016-11-27T12:25:54.000Z</time>
      </trkpt>
      <trkpt lat="46.04571" lon="4.51838">
        <ele>724</ele>
        <time>2016-11-27T12:25:55.000Z</time>
      </trkpt>
      <trkpt lat="46.04572" lon="4.51838">
        <ele>725</ele>
        <time>2016-11-27T12:25:56.000Z</time>
      </trkpt>
      <trkpt lat="46.04574" lon="4.51838">
        <ele>725</ele>
        <time>2016-11-27T12:25:57.000Z</time>
      </trkpt>
      <trkpt lat="46.04576" lon="4.51839">
        <ele>726</ele>
        <time>2016-11-27T12:25:58.000Z</time>
      </trkpt>
      <trkpt lat="46.04577" lon="4.51839">
        <ele>725</ele>
        <time>2016-11-27T12:25:59.000Z</time>
      </trkpt>
      <trkpt lat="46.04579" lon="4.51839">
        <ele>726</ele>
        <time>2016-11-27T12:26:00.000Z</time>
      </trkpt>
      <trkpt lat="46.04581" lon="4.5184">
        <ele>726</ele>
        <time>2016-11-27T12:26:01.000Z</time>
      </trkpt>
      <trkpt lat="46.04582" lon="4.5184">
        <ele>727</ele>
        <time>2016-11-27T12:26:02.000Z</time>
      </trkpt>
      <trkpt lat="46.04583" lon="4.5184">
        <ele>728</ele>
        <time>2016-11-27T12:26:03.000Z</time>
      </trkpt>
      <trkpt lat="46.04585" lon="4.51841">
        <ele>727</ele>
        <time>2016-11-27T12:26:04.000Z</time>
      </trkpt>
      <trkpt lat="46.04586" lon="4.51841">
        <ele>728</ele>
        <time>2016-11-27T12:26:05.000Z</time>
      </trkpt>
      <trkpt lat="46.04588" lon="4.51842">
        <ele>728</ele>
        <time>2016-11-27T12:26:06.000Z</time>
      </trkpt>
      <trkpt lat="46.04589" lon="4.51842">
        <ele>728</ele>
        <time>2016-11-27T12:26:07.000Z</time>
      </trkpt>
      <trkpt lat="46.04591" lon="4.51843">
        <ele>728</ele>
        <time>2016-11-27T12:26:08.000Z</time>
      </trkpt>
      <trkpt lat="46.04592" lon="4.51843">
        <ele>728</ele>
        <time>2016-11-27T12:26:09.000Z</time>
      </trkpt>
      <trkpt lat="46.04593" lon="4.51843">
        <ele>728</ele>
        <time>2016-11-27T12:26:10.000Z</time>
      </trkpt>
      <trkpt lat="46.04595" lon="4.51843">
        <ele>728</ele>
        <time>2016-11-27T12:26:11.000Z</time>
      </trkpt>
      <trkpt lat="46.04596" lon="4.51843">
        <ele>728</ele>
        <time>2016-11-27T12:26:12.000Z</time>
      </trkpt>
      <trkpt lat="46.04598" lon="4.51843">
        <ele>728</ele>
        <time>2016-11-27T12:26:13.000Z</time>
      </trkpt>
      <trkpt lat="46.04599" lon="4.51843">
        <ele>728</ele>
        <time>2016-11-27T12:26:14.000Z</time>
      </trkpt>
      <trkpt lat="46.04601" lon="4.51843">
        <ele>729</ele>
        <time>2016-11-27T12:26:15.000Z</time>
      </trkpt>
      <trkpt lat="46.04603" lon="4.51844">
        <ele>729</ele>
        <time>2016-11-27T12:26:16.000Z</time>
      </trkpt>
      <trkpt lat="46.04605" lon="4.51844">
        <ele>729</ele>
        <time>2016-11-27T12:26:17.000Z</time>
      </trkpt>
      <trkpt lat="46.04606" lon="4.51845">
        <ele>729</ele>
        <time>2016-11-27T12:26:18.000Z</time>
      </trkpt>
      <trkpt lat="46.04607" lon="4.51845">
        <ele>729</ele>
        <time>2016-11-27T12:26:19.000Z</time>
      </trkpt>
      <trkpt lat="46.04609" lon="4.51845">
        <ele>731</ele>
        <time>2016-11-27T12:26:20.000Z</time>
      </trkpt>
      <trkpt lat="46.0461" lon="4.51846">
        <ele>731</ele>
        <time>2016-11-27T12:26:21.000Z</time>
      </trkpt>
      <trkpt lat="46.04612" lon="4.51846">
        <ele>730</ele>
        <time>2016-11-27T12:26:22.000Z</time>
      </trkpt>
      <trkpt lat="46.04614" lon="4.51847">
        <ele>729</ele>
        <time>2016-11-27T12:26:23.000Z</time>
      </trkpt>
      <trkpt lat="46.04615" lon="4.51847">
        <ele>729</ele>
        <time>2016-11-27T12:26:24.000Z</time>
      </trkpt>
      <trkpt lat="46.04616" lon="4.51848">
        <ele>729</ele>
        <time>2016-11-27T12:26:25.000Z</time>
      </trkpt>
      <trkpt lat="46.04617" lon="4.51849">
        <ele>728</ele>
        <time>2016-11-27T12:26:26.000Z</time>
      </trkpt>
      <trkpt lat="46.04618" lon="4.51849">
        <ele>728</ele>
        <time>2016-11-27T12:26:27.000Z</time>
      </trkpt>
      <trkpt lat="46.0462" lon="4.5185">
        <ele>728</ele>
        <time>2016-11-27T12:26:28.000Z</time>
      </trkpt>
      <trkpt lat="46.04621" lon="4.51851">
        <ele>729</ele>
        <time>2016-11-27T12:26:29.000Z</time>
      </trkpt>
      <trkpt lat="46.04623" lon="4.51852">
        <ele>729</ele>
        <time>2016-11-27T12:26:30.000Z</time>
      </trkpt>
      <trkpt lat="46.04624" lon="4.51853">
        <ele>730</ele>
        <time>2016-11-27T12:26:31.000Z</time>
      </trkpt>
      <trkpt lat="46.04626" lon="4.51854">
        <ele>729</ele>
        <time>2016-11-27T12:26:32.000Z</time>
      </trkpt>
      <trkpt lat="46.04627" lon="4.51855">
        <ele>730</ele>
        <time>2016-11-27T12:26:33.000Z</time>
      </trkpt>
      <trkpt lat="46.04629" lon="4.51856">
        <ele>731</ele>
        <time>2016-11-27T12:26:34.000Z</time>
      </trkpt>
      <trkpt lat="46.04631" lon="4.51858">
        <ele>732</ele>
        <time>2016-11-27T12:26:35.000Z</time>
      </trkpt>
      <trkpt lat="46.04632" lon="4.51859">
        <ele>733</ele>
        <time>2016-11-27T12:26:36.000Z</time>
      </trkpt>
      <trkpt lat="46.04634" lon="4.51861">
        <ele>732</ele>
        <time>2016-11-27T12:26:37.000Z</time>
      </trkpt>
      <trkpt lat="46.04635" lon="4.51862">
        <ele>731</ele>
        <time>2016-11-27T12:26:38.000Z</time>
      </trkpt>
      <trkpt lat="46.04637" lon="4.51863">
        <ele>731</ele>
        <time>2016-11-27T12:26:39.000Z</time>
      </trkpt>
      <trkpt lat="46.04638" lon="4.51865">
        <ele>731</ele>
        <time>2016-11-27T12:26:40.000Z</time>
      </trkpt>
      <trkpt lat="46.04639" lon="4.51867">
        <ele>731</ele>
        <time>2016-11-27T12:26:41.000Z</time>
      </trkpt>
      <trkpt lat="46.0464" lon="4.51868">
        <ele>732</ele>
        <time>2016-11-27T12:26:42.000Z</time>
      </trkpt>
      <trkpt lat="46.04641" lon="4.5187">
        <ele>732</ele>
        <time>2016-11-27T12:26:43.000Z</time>
      </trkpt>
      <trkpt lat="46.04642" lon="4.51872">
        <ele>732</ele>
        <time>2016-11-27T12:26:44.000Z</time>
      </trkpt>
      <trkpt lat="46.04643" lon="4.51873">
        <ele>732</ele>
        <time>2016-11-27T12:26:45.000Z</time>
      </trkpt>
      <trkpt lat="46.04644" lon="4.51875">
        <ele>732</ele>
        <time>2016-11-27T12:26:46.000Z</time>
      </trkpt>
      <trkpt lat="46.04645" lon="4.51877">
        <ele>732</ele>
        <time>2016-11-27T12:26:47.000Z</time>
      </trkpt>
      <trkpt lat="46.04646" lon="4.51879">
        <ele>732</ele>
        <time>2016-11-27T12:26:48.000Z</time>
      </trkpt>
      <trkpt lat="46.04646" lon="4.51881">
        <ele>732</ele>
        <time>2016-11-27T12:26:49.000Z</time>
      </trkpt>
      <trkpt lat="46.04647" lon="4.51883">
        <ele>733</ele>
        <time>2016-11-27T12:26:50.000Z</time>
      </trkpt>
      <trkpt lat="46.04647" lon="4.51885">
        <ele>732</ele>
        <time>2016-11-27T12:26:51.000Z</time>
      </trkpt>
      <trkpt lat="46.04647" lon="4.51887">
        <ele>732</ele>
        <time>2016-11-27T12:26:52.000Z</time>
      </trkpt>
      <trkpt lat="46.04648" lon="4.51889">
        <ele>732</ele>
        <time>2016-11-27T12:26:53.000Z</time>
      </trkpt>
      <trkpt lat="46.04648" lon="4.51892">
        <ele>733</ele>
        <time>2016-11-27T12:26:54.000Z</time>
      </trkpt>
      <trkpt lat="46.04649" lon="4.51894">
        <ele>733</ele>
        <time>2016-11-27T12:26:55.000Z</time>
      </trkpt>
      <trkpt lat="46.0465" lon="4.51896">
        <ele>732</ele>
        <time>2016-11-27T12:26:56.000Z</time>
      </trkpt>
      <trkpt lat="46.0465" lon="4.51898">
        <ele>733</ele>
        <time>2016-11-27T12:26:57.000Z</time>
      </trkpt>
      <trkpt lat="46.04651" lon="4.51901">
        <ele>732</ele>
        <time>2016-11-27T12:26:58.000Z</time>
      </trkpt>
      <trkpt lat="46.04651" lon="4.51903">
        <ele>733</ele>
        <time>2016-11-27T12:26:59.000Z</time>
      </trkpt>
      <trkpt lat="46.04651" lon="4.51906">
        <ele>733</ele>
        <time>2016-11-27T12:27:00.000Z</time>
      </trkpt>
      <trkpt lat="46.04652" lon="4.51908">
        <ele>733</ele>
        <time>2016-11-27T12:27:01.000Z</time>
      </trkpt>
      <trkpt lat="46.04651" lon="4.51911">
        <ele>733</ele>
        <time>2016-11-27T12:27:02.000Z</time>
      </trkpt>
      <trkpt lat="46.04651" lon="4.51914">
        <ele>734</ele>
        <time>2016-11-27T12:27:03.000Z</time>
      </trkpt>
      <trkpt lat="46.04651" lon="4.51917">
        <ele>733</ele>
        <time>2016-11-27T12:27:04.000Z</time>
      </trkpt>
      <trkpt lat="46.04651" lon="4.51919">
        <ele>733</ele>
        <time>2016-11-27T12:27:05.000Z</time>
      </trkpt>
      <trkpt lat="46.0465" lon="4.51922">
        <ele>733</ele>
        <time>2016-11-27T12:27:06.000Z</time>
      </trkpt>
      <trkpt lat="46.0465" lon="4.51925">
        <ele>733</ele>
        <time>2016-11-27T12:27:07.000Z</time>
      </trkpt>
      <trkpt lat="46.04649" lon="4.51927">
        <ele>733</ele>
        <time>2016-11-27T12:27:08.000Z</time>
      </trkpt>
      <trkpt lat="46.04649" lon="4.5193">
        <ele>734</ele>
        <time>2016-11-27T12:27:09.000Z</time>
      </trkpt>
      <trkpt lat="46.0465" lon="4.51932">
        <ele>735</ele>
        <time>2016-11-27T12:27:10.000Z</time>
      </trkpt>
      <trkpt lat="46.0465" lon="4.51935">
        <ele>735</ele>
        <time>2016-11-27T12:27:11.000Z</time>
      </trkpt>
      <trkpt lat="46.0465" lon="4.51937">
        <ele>736</ele>
        <time>2016-11-27T12:27:12.000Z</time>
      </trkpt>
      <trkpt lat="46.0465" lon="4.51939">
        <ele>736</ele>
        <time>2016-11-27T12:27:13.000Z</time>
      </trkpt>
      <trkpt lat="46.0465" lon="4.51941">
        <ele>736</ele>
        <time>2016-11-27T12:27:14.000Z</time>
      </trkpt>
      <trkpt lat="46.0465" lon="4.51943">
        <ele>736</ele>
        <time>2016-11-27T12:27:15.000Z</time>
      </trkpt>
      <trkpt lat="46.0465" lon="4.51945">
        <ele>735</ele>
        <time>2016-11-27T12:27:16.000Z</time>
      </trkpt>
      <trkpt lat="46.0465" lon="4.51947">
        <ele>735</ele>
        <time>2016-11-27T12:27:17.000Z</time>
      </trkpt>
      <trkpt lat="46.0465" lon="4.5195">
        <ele>735</ele>
        <time>2016-11-27T12:27:18.000Z</time>
      </trkpt>
      <trkpt lat="46.0465" lon="4.51952">
        <ele>735</ele>
        <time>2016-11-27T12:27:19.000Z</time>
      </trkpt>
      <trkpt lat="46.0465" lon="4.51954">
        <ele>735</ele>
        <time>2016-11-27T12:27:20.000Z</time>
      </trkpt>
      <trkpt lat="46.0465" lon="4.51956">
        <ele>735</ele>
        <time>2016-11-27T12:27:21.000Z</time>
      </trkpt>
      <trkpt lat="46.0465" lon="4.51959">
        <ele>735</ele>
        <time>2016-11-27T12:27:22.000Z</time>
      </trkpt>
      <trkpt lat="46.04649" lon="4.51961">
        <ele>735</ele>
        <time>2016-11-27T12:27:23.000Z</time>
      </trkpt>
      <trkpt lat="46.04649" lon="4.51963">
        <ele>735</ele>
        <time>2016-11-27T12:27:24.000Z</time>
      </trkpt>
      <trkpt lat="46.04649" lon="4.51965">
        <ele>735</ele>
        <time>2016-11-27T12:27:25.000Z</time>
      </trkpt>
      <trkpt lat="46.04649" lon="4.51968">
        <ele>735</ele>
        <time>2016-11-27T12:27:26.000Z</time>
      </trkpt>
      <trkpt lat="46.04648" lon="4.5197">
        <ele>734</ele>
        <time>2016-11-27T12:27:27.000Z</time>
      </trkpt>
      <trkpt lat="46.04648" lon="4.51972">
        <ele>735</ele>
        <time>2016-11-27T12:27:28.000Z</time>
      </trkpt>
      <trkpt lat="46.04648" lon="4.51975">
        <ele>734</ele>
        <time>2016-11-27T12:27:29.000Z</time>
      </trkpt>
      <trkpt lat="46.04647" lon="4.51977">
        <ele>734</ele>
        <time>2016-11-27T12:27:30.000Z</time>
      </trkpt>
      <trkpt lat="46.04647" lon="4.51979">
        <ele>734</ele>
        <time>2016-11-27T12:27:31.000Z</time>
      </trkpt>
      <trkpt lat="46.04646" lon="4.51982">
        <ele>733</ele>
        <time>2016-11-27T12:27:32.000Z</time>
      </trkpt>
      <trkpt lat="46.04646" lon="4.51984">
        <ele>732</ele>
        <time>2016-11-27T12:27:33.000Z</time>
      </trkpt>
      <trkpt lat="46.04646" lon="4.51986">
        <ele>733</ele>
        <time>2016-11-27T12:27:34.000Z</time>
      </trkpt>
      <trkpt lat="46.04646" lon="4.51988">
        <ele>733</ele>
        <time>2016-11-27T12:27:35.000Z</time>
      </trkpt>
      <trkpt lat="46.04646" lon="4.5199">
        <ele>733</ele>
        <time>2016-11-27T12:27:36.000Z</time>
      </trkpt>
      <trkpt lat="46.04645" lon="4.51992">
        <ele>733</ele>
        <time>2016-11-27T12:27:37.000Z</time>
      </trkpt>
      <trkpt lat="46.04645" lon="4.51994">
        <ele>733</ele>
        <time>2016-11-27T12:27:38.000Z</time>
      </trkpt>
      <trkpt lat="46.04645" lon="4.51997">
        <ele>732</ele>
        <time>2016-11-27T12:27:39.000Z</time>
      </trkpt>
      <trkpt lat="46.04645" lon="4.51999">
        <ele>732</ele>
        <time>2016-11-27T12:27:40.000Z</time>
      </trkpt>
      <trkpt lat="46.04645" lon="4.52001">
        <ele>732</ele>
        <time>2016-11-27T12:27:41.000Z</time>
      </trkpt>
      <trkpt lat="46.04645" lon="4.52003">
        <ele>731</ele>
        <time>2016-11-27T12:27:42.000Z</time>
      </trkpt>
      <trkpt lat="46.04645" lon="4.52005">
        <ele>731</ele>
        <time>2016-11-27T12:27:43.000Z</time>
      </trkpt>
      <trkpt lat="46.04645" lon="4.52007">
        <ele>732</ele>
        <time>2016-11-27T12:27:44.000Z</time>
      </trkpt>
      <trkpt lat="46.04645" lon="4.52009">
        <ele>731</ele>
        <time>2016-11-27T12:27:45.000Z</time>
      </trkpt>
      <trkpt lat="46.04645" lon="4.52011">
        <ele>731</ele>
        <time>2016-11-27T12:27:46.000Z</time>
      </trkpt>
      <trkpt lat="46.04645" lon="4.52013">
        <ele>731</ele>
        <time>2016-11-27T12:27:47.000Z</time>
      </trkpt>
      <trkpt lat="46.04645" lon="4.52015">
        <ele>731</ele>
        <time>2016-11-27T12:27:48.000Z</time>
      </trkpt>
      <trkpt lat="46.04645" lon="4.52017">
        <ele>731</ele>
        <time>2016-11-27T12:27:49.000Z</time>
      </trkpt>
      <trkpt lat="46.04644" lon="4.5202">
        <ele>731</ele>
        <time>2016-11-27T12:27:50.000Z</time>
      </trkpt>
      <trkpt lat="46.04644" lon="4.52022">
        <ele>732</ele>
        <time>2016-11-27T12:27:51.000Z</time>
      </trkpt>
      <trkpt lat="46.04643" lon="4.52025">
        <ele>732</ele>
        <time>2016-11-27T12:27:52.000Z</time>
      </trkpt>
      <trkpt lat="46.04643" lon="4.52028">
        <ele>733</ele>
        <time>2016-11-27T12:27:53.000Z</time>
      </trkpt>
      <trkpt lat="46.04642" lon="4.5203">
        <ele>733</ele>
        <time>2016-11-27T12:27:54.000Z</time>
      </trkpt>
      <trkpt lat="46.04642" lon="4.52033">
        <ele>734</ele>
        <time>2016-11-27T12:27:55.000Z</time>
      </trkpt>
      <trkpt lat="46.04642" lon="4.52035">
        <ele>734</ele>
        <time>2016-11-27T12:27:56.000Z</time>
      </trkpt>
      <trkpt lat="46.04642" lon="4.52038">
        <ele>735</ele>
        <time>2016-11-27T12:27:57.000Z</time>
      </trkpt>
      <trkpt lat="46.04642" lon="4.5204">
        <ele>734</ele>
        <time>2016-11-27T12:27:58.000Z</time>
      </trkpt>
      <trkpt lat="46.04641" lon="4.52042">
        <ele>734</ele>
        <time>2016-11-27T12:27:59.000Z</time>
      </trkpt>
      <trkpt lat="46.04641" lon="4.52044">
        <ele>734</ele>
        <time>2016-11-27T12:28:00.000Z</time>
      </trkpt>
      <trkpt lat="46.0464" lon="4.52046">
        <ele>734</ele>
        <time>2016-11-27T12:28:01.000Z</time>
      </trkpt>
      <trkpt lat="46.0464" lon="4.52048">
        <ele>734</ele>
        <time>2016-11-27T12:28:02.000Z</time>
      </trkpt>
      <trkpt lat="46.04639" lon="4.5205">
        <ele>734</ele>
        <time>2016-11-27T12:28:03.000Z</time>
      </trkpt>
      <trkpt lat="46.04638" lon="4.52053">
        <ele>734</ele>
        <time>2016-11-27T12:28:04.000Z</time>
      </trkpt>
      <trkpt lat="46.04638" lon="4.52055">
        <ele>734</ele>
        <time>2016-11-27T12:28:05.000Z</time>
      </trkpt>
      <trkpt lat="46.04638" lon="4.52056">
        <ele>733</ele>
        <time>2016-11-27T12:28:06.000Z</time>
      </trkpt>
      <trkpt lat="46.04637" lon="4.52058">
        <ele>734</ele>
        <time>2016-11-27T12:28:07.000Z</time>
      </trkpt>
      <trkpt lat="46.04638" lon="4.52061">
        <ele>734</ele>
        <time>2016-11-27T12:28:08.000Z</time>
      </trkpt>
      <trkpt lat="46.04637" lon="4.52063">
        <ele>734</ele>
        <time>2016-11-27T12:28:09.000Z</time>
      </trkpt>
      <trkpt lat="46.04637" lon="4.52065">
        <ele>734</ele>
        <time>2016-11-27T12:28:10.000Z</time>
      </trkpt>
      <trkpt lat="46.04637" lon="4.52067">
        <ele>733</ele>
        <time>2016-11-27T12:28:11.000Z</time>
      </trkpt>
      <trkpt lat="46.04636" lon="4.52069">
        <ele>733</ele>
        <time>2016-11-27T12:28:12.000Z</time>
      </trkpt>
      <trkpt lat="46.04636" lon="4.52072">
        <ele>732</ele>
        <time>2016-11-27T12:28:13.000Z</time>
      </trkpt>
      <trkpt lat="46.04636" lon="4.52074">
        <ele>732</ele>
        <time>2016-11-27T12:28:14.000Z</time>
      </trkpt>
      <trkpt lat="46.04636" lon="4.52076">
        <ele>732</ele>
        <time>2016-11-27T12:28:15.000Z</time>
      </trkpt>
      <trkpt lat="46.04636" lon="4.52078">
        <ele>732</ele>
        <time>2016-11-27T12:28:16.000Z</time>
      </trkpt>
      <trkpt lat="46.04637" lon="4.5208">
        <ele>731</ele>
        <time>2016-11-27T12:28:17.000Z</time>
      </trkpt>
      <trkpt lat="46.04637" lon="4.52083">
        <ele>730</ele>
        <time>2016-11-27T12:28:18.000Z</time>
      </trkpt>
      <trkpt lat="46.04637" lon="4.52086">
        <ele>730</ele>
        <time>2016-11-27T12:28:19.000Z</time>
      </trkpt>
      <trkpt lat="46.04636" lon="4.52089">
        <ele>727</ele>
        <time>2016-11-27T12:28:20.000Z</time>
      </trkpt>
      <trkpt lat="46.04635" lon="4.52092">
        <ele>726</ele>
        <time>2016-11-27T12:28:21.000Z</time>
      </trkpt>
      <trkpt lat="46.04634" lon="4.52095">
        <ele>726</ele>
        <time>2016-11-27T12:28:22.000Z</time>
      </trkpt>
      <trkpt lat="46.04634" lon="4.52097">
        <ele>725</ele>
        <time>2016-11-27T12:28:23.000Z</time>
      </trkpt>
      <trkpt lat="46.04633" lon="4.521">
        <ele>725</ele>
        <time>2016-11-27T12:28:24.000Z</time>
      </trkpt>
      <trkpt lat="46.04633" lon="4.52102">
        <ele>724</ele>
        <time>2016-11-27T12:28:25.000Z</time>
      </trkpt>
      <trkpt lat="46.04632" lon="4.52104">
        <ele>724</ele>
        <time>2016-11-27T12:28:26.000Z</time>
      </trkpt>
      <trkpt lat="46.04632" lon="4.52106">
        <ele>723</ele>
        <time>2016-11-27T12:28:27.000Z</time>
      </trkpt>
      <trkpt lat="46.04631" lon="4.52108">
        <ele>723</ele>
        <time>2016-11-27T12:28:28.000Z</time>
      </trkpt>
      <trkpt lat="46.04631" lon="4.5211">
        <ele>723</ele>
        <time>2016-11-27T12:28:29.000Z</time>
      </trkpt>
      <trkpt lat="46.0463" lon="4.52113">
        <ele>723</ele>
        <time>2016-11-27T12:28:30.000Z</time>
      </trkpt>
      <trkpt lat="46.0463" lon="4.52115">
        <ele>723</ele>
        <time>2016-11-27T12:28:31.000Z</time>
      </trkpt>
      <trkpt lat="46.0463" lon="4.52117">
        <ele>723</ele>
        <time>2016-11-27T12:28:32.000Z</time>
      </trkpt>
      <trkpt lat="46.0463" lon="4.5212">
        <ele>723</ele>
        <time>2016-11-27T12:28:33.000Z</time>
      </trkpt>
      <trkpt lat="46.04629" lon="4.52123">
        <ele>724</ele>
        <time>2016-11-27T12:28:34.000Z</time>
      </trkpt>
      <trkpt lat="46.04629" lon="4.52126">
        <ele>724</ele>
        <time>2016-11-27T12:28:35.000Z</time>
      </trkpt>
      <trkpt lat="46.04629" lon="4.52129">
        <ele>724</ele>
        <time>2016-11-27T12:28:36.000Z</time>
      </trkpt>
      <trkpt lat="46.04629" lon="4.52132">
        <ele>725</ele>
        <time>2016-11-27T12:28:37.000Z</time>
      </trkpt>
      <trkpt lat="46.04629" lon="4.52135">
        <ele>724</ele>
        <time>2016-11-27T12:28:38.000Z</time>
      </trkpt>
      <trkpt lat="46.04629" lon="4.52137">
        <ele>724</ele>
        <time>2016-11-27T12:28:39.000Z</time>
      </trkpt>
      <trkpt lat="46.04629" lon="4.52139">
        <ele>724</ele>
        <time>2016-11-27T12:28:40.000Z</time>
      </trkpt>
      <trkpt lat="46.04629" lon="4.52142">
        <ele>723</ele>
        <time>2016-11-27T12:28:41.000Z</time>
      </trkpt>
      <trkpt lat="46.04629" lon="4.52144">
        <ele>723</ele>
        <time>2016-11-27T12:28:42.000Z</time>
      </trkpt>
      <trkpt lat="46.04629" lon="4.52146">
        <ele>723</ele>
        <time>2016-11-27T12:28:43.000Z</time>
      </trkpt>
      <trkpt lat="46.04629" lon="4.52148">
        <ele>722</ele>
        <time>2016-11-27T12:28:44.000Z</time>
      </trkpt>
      <trkpt lat="46.04629" lon="4.5215">
        <ele>722</ele>
        <time>2016-11-27T12:28:45.000Z</time>
      </trkpt>
      <trkpt lat="46.0463" lon="4.52152">
        <ele>721</ele>
        <time>2016-11-27T12:28:46.000Z</time>
      </trkpt>
      <trkpt lat="46.0463" lon="4.52155">
        <ele>721</ele>
        <time>2016-11-27T12:28:47.000Z</time>
      </trkpt>
      <trkpt lat="46.0463" lon="4.52156">
        <ele>721</ele>
        <time>2016-11-27T12:28:48.000Z</time>
      </trkpt>
      <trkpt lat="46.04631" lon="4.52159">
        <ele>722</ele>
        <time>2016-11-27T12:28:49.000Z</time>
      </trkpt>
      <trkpt lat="46.04631" lon="4.52161">
        <ele>722</ele>
        <time>2016-11-27T12:28:50.000Z</time>
      </trkpt>
      <trkpt lat="46.04632" lon="4.52164">
        <ele>723</ele>
        <time>2016-11-27T12:28:51.000Z</time>
      </trkpt>
      <trkpt lat="46.04632" lon="4.52166">
        <ele>722</ele>
        <time>2016-11-27T12:28:52.000Z</time>
      </trkpt>
      <trkpt lat="46.04632" lon="4.52168">
        <ele>722</ele>
        <time>2016-11-27T12:28:53.000Z</time>
      </trkpt>
      <trkpt lat="46.04633" lon="4.52171">
        <ele>721</ele>
        <time>2016-11-27T12:28:54.000Z</time>
      </trkpt>
      <trkpt lat="46.04633" lon="4.52173">
        <ele>721</ele>
        <time>2016-11-27T12:28:55.000Z</time>
      </trkpt>
      <trkpt lat="46.04634" lon="4.52175">
        <ele>721</ele>
        <time>2016-11-27T12:28:56.000Z</time>
      </trkpt>
      <trkpt lat="46.04635" lon="4.52177">
        <ele>721</ele>
        <time>2016-11-27T12:28:57.000Z</time>
      </trkpt>
      <trkpt lat="46.04636" lon="4.52179">
        <ele>721</ele>
        <time>2016-11-27T12:28:58.000Z</time>
      </trkpt>
      <trkpt lat="46.04636" lon="4.52181">
        <ele>721</ele>
        <time>2016-11-27T12:28:59.000Z</time>
      </trkpt>
      <trkpt lat="46.04637" lon="4.52183">
        <ele>720</ele>
        <time>2016-11-27T12:29:00.000Z</time>
      </trkpt>
      <trkpt lat="46.04638" lon="4.52185">
        <ele>721</ele>
        <time>2016-11-27T12:29:01.000Z</time>
      </trkpt>
      <trkpt lat="46.04639" lon="4.52187">
        <ele>722</ele>
        <time>2016-11-27T12:29:02.000Z</time>
      </trkpt>
      <trkpt lat="46.0464" lon="4.52189">
        <ele>721</ele>
        <time>2016-11-27T12:29:03.000Z</time>
      </trkpt>
      <trkpt lat="46.04641" lon="4.52191">
        <ele>721</ele>
        <time>2016-11-27T12:29:04.000Z</time>
      </trkpt>
      <trkpt lat="46.04642" lon="4.52193">
        <ele>721</ele>
        <time>2016-11-27T12:29:05.000Z</time>
      </trkpt>
      <trkpt lat="46.04643" lon="4.52195">
        <ele>720</ele>
        <time>2016-11-27T12:29:06.000Z</time>
      </trkpt>
      <trkpt lat="46.04644" lon="4.52196">
        <ele>720</ele>
        <time>2016-11-27T12:29:07.000Z</time>
      </trkpt>
      <trkpt lat="46.04644" lon="4.52198">
        <ele>720</ele>
        <time>2016-11-27T12:29:08.000Z</time>
      </trkpt>
      <trkpt lat="46.04645" lon="4.522">
        <ele>720</ele>
        <time>2016-11-27T12:29:09.000Z</time>
      </trkpt>
      <trkpt lat="46.04646" lon="4.52202">
        <ele>720</ele>
        <time>2016-11-27T12:29:10.000Z</time>
      </trkpt>
      <trkpt lat="46.04647" lon="4.52203">
        <ele>720</ele>
        <time>2016-11-27T12:29:11.000Z</time>
      </trkpt>
      <trkpt lat="46.04648" lon="4.52205">
        <ele>720</ele>
        <time>2016-11-27T12:29:12.000Z</time>
      </trkpt>
      <trkpt lat="46.04649" lon="4.52207">
        <ele>720</ele>
        <time>2016-11-27T12:29:13.000Z</time>
      </trkpt>
      <trkpt lat="46.0465" lon="4.52209">
        <ele>719</ele>
        <time>2016-11-27T12:29:14.000Z</time>
      </trkpt>
      <trkpt lat="46.04651" lon="4.52211">
        <ele>719</ele>
        <time>2016-11-27T12:29:15.000Z</time>
      </trkpt>
      <trkpt lat="46.04652" lon="4.52212">
        <ele>719</ele>
        <time>2016-11-27T12:29:16.000Z</time>
      </trkpt>
      <trkpt lat="46.04653" lon="4.52214">
        <ele>719</ele>
        <time>2016-11-27T12:29:17.000Z</time>
      </trkpt>
      <trkpt lat="46.04655" lon="4.52215">
        <ele>719</ele>
        <time>2016-11-27T12:29:18.000Z</time>
      </trkpt>
      <trkpt lat="46.04656" lon="4.52217">
        <ele>719</ele>
        <time>2016-11-27T12:29:19.000Z</time>
      </trkpt>
      <trkpt lat="46.04657" lon="4.52219">
        <ele>719</ele>
        <time>2016-11-27T12:29:20.000Z</time>
      </trkpt>
      <trkpt lat="46.04658" lon="4.5222">
        <ele>718</ele>
        <time>2016-11-27T12:29:21.000Z</time>
      </trkpt>
      <trkpt lat="46.04658" lon="4.52222">
        <ele>718</ele>
        <time>2016-11-27T12:29:22.000Z</time>
      </trkpt>
      <trkpt lat="46.04659" lon="4.52224">
        <ele>718</ele>
        <time>2016-11-27T12:29:23.000Z</time>
      </trkpt>
      <trkpt lat="46.0466" lon="4.52225">
        <ele>718</ele>
        <time>2016-11-27T12:29:24.000Z</time>
      </trkpt>
      <trkpt lat="46.04661" lon="4.52227">
        <ele>717</ele>
        <time>2016-11-27T12:29:25.000Z</time>
      </trkpt>
      <trkpt lat="46.04662" lon="4.52229">
        <ele>717</ele>
        <time>2016-11-27T12:29:26.000Z</time>
      </trkpt>
      <trkpt lat="46.04663" lon="4.52231">
        <ele>717</ele>
        <time>2016-11-27T12:29:27.000Z</time>
      </trkpt>
      <trkpt lat="46.04664" lon="4.52232">
        <ele>717</ele>
        <time>2016-11-27T12:29:28.000Z</time>
      </trkpt>
      <trkpt lat="46.04665" lon="4.52234">
        <ele>717</ele>
        <time>2016-11-27T12:29:29.000Z</time>
      </trkpt>
      <trkpt lat="46.04666" lon="4.52235">
        <ele>717</ele>
        <time>2016-11-27T12:29:30.000Z</time>
      </trkpt>
      <trkpt lat="46.04667" lon="4.52237">
        <ele>716</ele>
        <time>2016-11-27T12:29:31.000Z</time>
      </trkpt>
      <trkpt lat="46.04668" lon="4.52238">
        <ele>716</ele>
        <time>2016-11-27T12:29:32.000Z</time>
      </trkpt>
      <trkpt lat="46.04669" lon="4.52239">
        <ele>716</ele>
        <time>2016-11-27T12:29:33.000Z</time>
      </trkpt>
      <trkpt lat="46.04671" lon="4.5224">
        <ele>716</ele>
        <time>2016-11-27T12:29:34.000Z</time>
      </trkpt>
      <trkpt lat="46.04672" lon="4.52241">
        <ele>716</ele>
        <time>2016-11-27T12:29:35.000Z</time>
      </trkpt>
      <trkpt lat="46.04673" lon="4.52242">
        <ele>716</ele>
        <time>2016-11-27T12:29:36.000Z</time>
      </trkpt>
      <trkpt lat="46.04675" lon="4.52243">
        <ele>716</ele>
        <time>2016-11-27T12:29:37.000Z</time>
      </trkpt>
      <trkpt lat="46.04676" lon="4.52244">
        <ele>716</ele>
        <time>2016-11-27T12:29:38.000Z</time>
      </trkpt>
      <trkpt lat="46.04678" lon="4.52245">
        <ele>715</ele>
        <time>2016-11-27T12:29:39.000Z</time>
      </trkpt>
      <trkpt lat="46.04679" lon="4.52246">
        <ele>715</ele>
        <time>2016-11-27T12:29:40.000Z</time>
      </trkpt>
      <trkpt lat="46.0468" lon="4.52247">
        <ele>715</ele>
        <time>2016-11-27T12:29:41.000Z</time>
      </trkpt>
      <trkpt lat="46.04682" lon="4.52248">
        <ele>714</ele>
        <time>2016-11-27T12:29:42.000Z</time>
      </trkpt>
      <trkpt lat="46.04683" lon="4.52249">
        <ele>714</ele>
        <time>2016-11-27T12:29:43.000Z</time>
      </trkpt>
      <trkpt lat="46.04685" lon="4.5225">
        <ele>715</ele>
        <time>2016-11-27T12:29:44.000Z</time>
      </trkpt>
      <trkpt lat="46.04686" lon="4.52251">
        <ele>715</ele>
        <time>2016-11-27T12:29:45.000Z</time>
      </trkpt>
      <trkpt lat="46.04687" lon="4.52252">
        <ele>714</ele>
        <time>2016-11-27T12:29:46.000Z</time>
      </trkpt>
      <trkpt lat="46.04689" lon="4.52253">
        <ele>714</ele>
        <time>2016-11-27T12:29:47.000Z</time>
      </trkpt>
      <trkpt lat="46.04691" lon="4.52254">
        <ele>713</ele>
        <time>2016-11-27T12:29:48.000Z</time>
      </trkpt>
      <trkpt lat="46.04692" lon="4.52256">
        <ele>712</ele>
        <time>2016-11-27T12:29:49.000Z</time>
      </trkpt>
      <trkpt lat="46.04694" lon="4.52258">
        <ele>712</ele>
        <time>2016-11-27T12:29:50.000Z</time>
      </trkpt>
      <trkpt lat="46.04695" lon="4.5226">
        <ele>712</ele>
        <time>2016-11-27T12:29:51.000Z</time>
      </trkpt>
      <trkpt lat="46.04697" lon="4.52262">
        <ele>711</ele>
        <time>2016-11-27T12:29:52.000Z</time>
      </trkpt>
      <trkpt lat="46.04699" lon="4.52264">
        <ele>711</ele>
        <time>2016-11-27T12:29:53.000Z</time>
      </trkpt>
      <trkpt lat="46.04701" lon="4.52266">
        <ele>711</ele>
        <time>2016-11-27T12:29:54.000Z</time>
      </trkpt>
      <trkpt lat="46.04703" lon="4.52268">
        <ele>711</ele>
        <time>2016-11-27T12:29:55.000Z</time>
      </trkpt>
      <trkpt lat="46.04705" lon="4.52271">
        <ele>711</ele>
        <time>2016-11-27T12:29:56.000Z</time>
      </trkpt>
      <trkpt lat="46.04707" lon="4.52273">
        <ele>710</ele>
        <time>2016-11-27T12:29:57.000Z</time>
      </trkpt>
      <trkpt lat="46.04708" lon="4.52276">
        <ele>709</ele>
        <time>2016-11-27T12:29:58.000Z</time>
      </trkpt>
      <trkpt lat="46.04709" lon="4.5228">
        <ele>710</ele>
        <time>2016-11-27T12:29:59.000Z</time>
      </trkpt>
      <trkpt lat="46.0471" lon="4.52284">
        <ele>709</ele>
        <time>2016-11-27T12:30:00.000Z</time>
      </trkpt>
      <trkpt lat="46.04711" lon="4.52288">
        <ele>711</ele>
        <time>2016-11-27T12:30:01.000Z</time>
      </trkpt>
      <trkpt lat="46.04712" lon="4.52292">
        <ele>711</ele>
        <time>2016-11-27T12:30:02.000Z</time>
      </trkpt>
      <trkpt lat="46.04714" lon="4.52295">
        <ele>711</ele>
        <time>2016-11-27T12:30:03.000Z</time>
      </trkpt>
      <trkpt lat="46.04716" lon="4.52299">
        <ele>712</ele>
        <time>2016-11-27T12:30:04.000Z</time>
      </trkpt>
      <trkpt lat="46.04718" lon="4.52303">
        <ele>712</ele>
        <time>2016-11-27T12:30:05.000Z</time>
      </trkpt>
      <trkpt lat="46.0472" lon="4.52307">
        <ele>712</ele>
        <time>2016-11-27T12:30:06.000Z</time>
      </trkpt>
      <trkpt lat="46.04721" lon="4.52311">
        <ele>712</ele>
        <time>2016-11-27T12:30:07.000Z</time>
      </trkpt>
      <trkpt lat="46.04722" lon="4.52315">
        <ele>712</ele>
        <time>2016-11-27T12:30:08.000Z</time>
      </trkpt>
      <trkpt lat="46.04723" lon="4.52319">
        <ele>711</ele>
        <time>2016-11-27T12:30:09.000Z</time>
      </trkpt>
      <trkpt lat="46.04724" lon="4.52322">
        <ele>711</ele>
        <time>2016-11-27T12:30:10.000Z</time>
      </trkpt>
      <trkpt lat="46.04725" lon="4.52326">
        <ele>711</ele>
        <time>2016-11-27T12:30:11.000Z</time>
      </trkpt>
      <trkpt lat="46.04726" lon="4.5233">
        <ele>711</ele>
        <time>2016-11-27T12:30:12.000Z</time>
      </trkpt>
      <trkpt lat="46.04727" lon="4.52334">
        <ele>711</ele>
        <time>2016-11-27T12:30:13.000Z</time>
      </trkpt>
      <trkpt lat="46.04728" lon="4.52338">
        <ele>713</ele>
        <time>2016-11-27T12:30:14.000Z</time>
      </trkpt>
      <trkpt lat="46.04729" lon="4.52342">
        <ele>713</ele>
        <time>2016-11-27T12:30:15.000Z</time>
      </trkpt>
      <trkpt lat="46.0473" lon="4.52345">
        <ele>714</ele>
        <time>2016-11-27T12:30:16.000Z</time>
      </trkpt>
      <trkpt lat="46.04731" lon="4.52349">
        <ele>714</ele>
        <time>2016-11-27T12:30:17.000Z</time>
      </trkpt>
      <trkpt lat="46.04733" lon="4.52353">
        <ele>714</ele>
        <time>2016-11-27T12:30:18.000Z</time>
      </trkpt>
      <trkpt lat="46.04734" lon="4.52357">
        <ele>714</ele>
        <time>2016-11-27T12:30:19.000Z</time>
      </trkpt>
      <trkpt lat="46.04735" lon="4.52361">
        <ele>714</ele>
        <time>2016-11-27T12:30:20.000Z</time>
      </trkpt>
      <trkpt lat="46.04736" lon="4.52365">
        <ele>714</ele>
        <time>2016-11-27T12:30:21.000Z</time>
      </trkpt>
      <trkpt lat="46.04737" lon="4.52368">
        <ele>715</ele>
        <time>2016-11-27T12:30:22.000Z</time>
      </trkpt>
      <trkpt lat="46.04738" lon="4.52372">
        <ele>715</ele>
        <time>2016-11-27T12:30:23.000Z</time>
      </trkpt>
      <trkpt lat="46.04739" lon="4.52375">
        <ele>717</ele>
        <time>2016-11-27T12:30:24.000Z</time>
      </trkpt>
      <trkpt lat="46.0474" lon="4.52379">
        <ele>718</ele>
        <time>2016-11-27T12:30:25.000Z</time>
      </trkpt>
      <trkpt lat="46.0474" lon="4.52382">
        <ele>719</ele>
        <time>2016-11-27T12:30:26.000Z</time>
      </trkpt>
      <trkpt lat="46.04741" lon="4.52385">
        <ele>720</ele>
        <time>2016-11-27T12:30:27.000Z</time>
      </trkpt>
      <trkpt lat="46.04741" lon="4.52389">
        <ele>720</ele>
        <time>2016-11-27T12:30:28.000Z</time>
      </trkpt>
      <trkpt lat="46.04742" lon="4.52392">
        <ele>720</ele>
        <time>2016-11-27T12:30:29.000Z</time>
      </trkpt>
      <trkpt lat="46.04743" lon="4.52395">
        <ele>722</ele>
        <time>2016-11-27T12:30:30.000Z</time>
      </trkpt>
      <trkpt lat="46.04744" lon="4.52398">
        <ele>722</ele>
        <time>2016-11-27T12:30:31.000Z</time>
      </trkpt>
      <trkpt lat="46.04744" lon="4.52401">
        <ele>720</ele>
        <time>2016-11-27T12:30:32.000Z</time>
      </trkpt>
      <trkpt lat="46.04745" lon="4.52405">
        <ele>719</ele>
        <time>2016-11-27T12:30:33.000Z</time>
      </trkpt>
      <trkpt lat="46.04745" lon="4.52408">
        <ele>718</ele>
        <time>2016-11-27T12:30:34.000Z</time>
      </trkpt>
      <trkpt lat="46.04745" lon="4.52412">
        <ele>718</ele>
        <time>2016-11-27T12:30:35.000Z</time>
      </trkpt>
      <trkpt lat="46.04746" lon="4.52415">
        <ele>718</ele>
        <time>2016-11-27T12:30:36.000Z</time>
      </trkpt>
      <trkpt lat="46.04746" lon="4.52418">
        <ele>717</ele>
        <time>2016-11-27T12:30:37.000Z</time>
      </trkpt>
      <trkpt lat="46.04747" lon="4.52421">
        <ele>715</ele>
        <time>2016-11-27T12:30:38.000Z</time>
      </trkpt>
      <trkpt lat="46.04749" lon="4.52424">
        <ele>715</ele>
        <time>2016-11-27T12:30:39.000Z</time>
      </trkpt>
      <trkpt lat="46.0475" lon="4.52427">
        <ele>716</ele>
        <time>2016-11-27T12:30:40.000Z</time>
      </trkpt>
      <trkpt lat="46.04751" lon="4.5243">
        <ele>715</ele>
        <time>2016-11-27T12:30:41.000Z</time>
      </trkpt>
      <trkpt lat="46.04752" lon="4.52433">
        <ele>715</ele>
        <time>2016-11-27T12:30:42.000Z</time>
      </trkpt>
      <trkpt lat="46.04753" lon="4.52436">
        <ele>715</ele>
        <time>2016-11-27T12:30:43.000Z</time>
      </trkpt>
      <trkpt lat="46.04753" lon="4.52439">
        <ele>716</ele>
        <time>2016-11-27T12:30:44.000Z</time>
      </trkpt>
      <trkpt lat="46.04754" lon="4.52443">
        <ele>716</ele>
        <time>2016-11-27T12:30:45.000Z</time>
      </trkpt>
      <trkpt lat="46.04755" lon="4.52447">
        <ele>715</ele>
        <time>2016-11-27T12:30:46.000Z</time>
      </trkpt>
      <trkpt lat="46.04756" lon="4.52451">
        <ele>713</ele>
        <time>2016-11-27T12:30:47.000Z</time>
      </trkpt>
      <trkpt lat="46.04757" lon="4.52455">
        <ele>713</ele>
        <time>2016-11-27T12:30:48.000Z</time>
      </trkpt>
      <trkpt lat="46.04758" lon="4.52459">
        <ele>713</ele>
        <time>2016-11-27T12:30:49.000Z</time>
      </trkpt>
      <trkpt lat="46.04758" lon="4.52463">
        <ele>714</ele>
        <time>2016-11-27T12:30:50.000Z</time>
      </trkpt>
      <trkpt lat="46.04759" lon="4.52468">
        <ele>716</ele>
        <time>2016-11-27T12:30:51.000Z</time>
      </trkpt>
      <trkpt lat="46.04761" lon="4.52472">
        <ele>716</ele>
        <time>2016-11-27T12:30:52.000Z</time>
      </trkpt>
      <trkpt lat="46.04762" lon="4.52475">
        <ele>716</ele>
        <time>2016-11-27T12:30:53.000Z</time>
      </trkpt>
      <trkpt lat="46.04763" lon="4.52478">
        <ele>716</ele>
        <time>2016-11-27T12:30:54.000Z</time>
      </trkpt>
      <trkpt lat="46.04763" lon="4.52482">
        <ele>716</ele>
        <time>2016-11-27T12:30:55.000Z</time>
      </trkpt>
      <trkpt lat="46.04764" lon="4.52485">
        <ele>716</ele>
        <time>2016-11-27T12:30:56.000Z</time>
      </trkpt>
      <trkpt lat="46.04765" lon="4.52488">
        <ele>715</ele>
        <time>2016-11-27T12:30:57.000Z</time>
      </trkpt>
      <trkpt lat="46.04766" lon="4.52491">
        <ele>715</ele>
        <time>2016-11-27T12:30:58.000Z</time>
      </trkpt>
      <trkpt lat="46.04767" lon="4.52494">
        <ele>716</ele>
        <time>2016-11-27T12:30:59.000Z</time>
      </trkpt>
      <trkpt lat="46.04768" lon="4.52497">
        <ele>714</ele>
        <time>2016-11-27T12:31:00.000Z</time>
      </trkpt>
      <trkpt lat="46.04768" lon="4.525">
        <ele>715</ele>
        <time>2016-11-27T12:31:01.000Z</time>
      </trkpt>
      <trkpt lat="46.04769" lon="4.52503">
        <ele>714</ele>
        <time>2016-11-27T12:31:02.000Z</time>
      </trkpt>
      <trkpt lat="46.0477" lon="4.52507">
        <ele>714</ele>
        <time>2016-11-27T12:31:03.000Z</time>
      </trkpt>
      <trkpt lat="46.04772" lon="4.5251">
        <ele>714</ele>
        <time>2016-11-27T12:31:04.000Z</time>
      </trkpt>
      <trkpt lat="46.04773" lon="4.52514">
        <ele>712</ele>
        <time>2016-11-27T12:31:05.000Z</time>
      </trkpt>
      <trkpt lat="46.04773" lon="4.52517">
        <ele>711</ele>
        <time>2016-11-27T12:31:06.000Z</time>
      </trkpt>
      <trkpt lat="46.04774" lon="4.5252">
        <ele>712</ele>
        <time>2016-11-27T12:31:07.000Z</time>
      </trkpt>
      <trkpt lat="46.04775" lon="4.52524">
        <ele>711</ele>
        <time>2016-11-27T12:31:08.000Z</time>
      </trkpt>
      <trkpt lat="46.04776" lon="4.52527">
        <ele>710</ele>
        <time>2016-11-27T12:31:09.000Z</time>
      </trkpt>
      <trkpt lat="46.04777" lon="4.52531">
        <ele>711</ele>
        <time>2016-11-27T12:31:10.000Z</time>
      </trkpt>
      <trkpt lat="46.04778" lon="4.52535">
        <ele>709</ele>
        <time>2016-11-27T12:31:11.000Z</time>
      </trkpt>
      <trkpt lat="46.04779" lon="4.52538">
        <ele>709</ele>
        <time>2016-11-27T12:31:12.000Z</time>
      </trkpt>
      <trkpt lat="46.0478" lon="4.52542">
        <ele>708</ele>
        <time>2016-11-27T12:31:13.000Z</time>
      </trkpt>
      <trkpt lat="46.0478" lon="4.52545">
        <ele>707</ele>
        <time>2016-11-27T12:31:14.000Z</time>
      </trkpt>
      <trkpt lat="46.0478" lon="4.52548">
        <ele>707</ele>
        <time>2016-11-27T12:31:15.000Z</time>
      </trkpt>
      <trkpt lat="46.04781" lon="4.52552">
        <ele>706</ele>
        <time>2016-11-27T12:31:16.000Z</time>
      </trkpt>
      <trkpt lat="46.04782" lon="4.52555">
        <ele>705</ele>
        <time>2016-11-27T12:31:17.000Z</time>
      </trkpt>
      <trkpt lat="46.04783" lon="4.52558">
        <ele>704</ele>
        <time>2016-11-27T12:31:18.000Z</time>
      </trkpt>
      <trkpt lat="46.04785" lon="4.52562">
        <ele>703</ele>
        <time>2016-11-27T12:31:19.000Z</time>
      </trkpt>
      <trkpt lat="46.04787" lon="4.52565">
        <ele>703</ele>
        <time>2016-11-27T12:31:20.000Z</time>
      </trkpt>
      <trkpt lat="46.04788" lon="4.52568">
        <ele>704</ele>
        <time>2016-11-27T12:31:21.000Z</time>
      </trkpt>
      <trkpt lat="46.0479" lon="4.52571">
        <ele>704</ele>
        <time>2016-11-27T12:31:22.000Z</time>
      </trkpt>
      <trkpt lat="46.04792" lon="4.52574">
        <ele>702</ele>
        <time>2016-11-27T12:31:23.000Z</time>
      </trkpt>
      <trkpt lat="46.04794" lon="4.52577">
        <ele>703</ele>
        <time>2016-11-27T12:31:24.000Z</time>
      </trkpt>
      <trkpt lat="46.04797" lon="4.5258">
        <ele>704</ele>
        <time>2016-11-27T12:31:25.000Z</time>
      </trkpt>
      <trkpt lat="46.048" lon="4.52583">
        <ele>704</ele>
        <time>2016-11-27T12:31:26.000Z</time>
      </trkpt>
      <trkpt lat="46.04803" lon="4.52585">
        <ele>705</ele>
        <time>2016-11-27T12:31:27.000Z</time>
      </trkpt>
      <trkpt lat="46.04806" lon="4.52587">
        <ele>704</ele>
        <time>2016-11-27T12:31:28.000Z</time>
      </trkpt>
      <trkpt lat="46.04809" lon="4.52589">
        <ele>704</ele>
        <time>2016-11-27T12:31:29.000Z</time>
      </trkpt>
      <trkpt lat="46.04812" lon="4.52591">
        <ele>705</ele>
        <time>2016-11-27T12:31:30.000Z</time>
      </trkpt>
      <trkpt lat="46.04815" lon="4.52592">
        <ele>705</ele>
        <time>2016-11-27T12:31:31.000Z</time>
      </trkpt>
      <trkpt lat="46.04819" lon="4.52593">
        <ele>708</ele>
        <time>2016-11-27T12:31:32.000Z</time>
      </trkpt>
      <trkpt lat="46.04822" lon="4.52593">
        <ele>708</ele>
        <time>2016-11-27T12:31:33.000Z</time>
      </trkpt>
      <trkpt lat="46.04824" lon="4.52593">
        <ele>707</ele>
        <time>2016-11-27T12:31:34.000Z</time>
      </trkpt>
      <trkpt lat="46.04828" lon="4.52593">
        <ele>705</ele>
        <time>2016-11-27T12:31:35.000Z</time>
      </trkpt>
      <trkpt lat="46.0483" lon="4.52592">
        <ele>704</ele>
        <time>2016-11-27T12:31:36.000Z</time>
      </trkpt>
      <trkpt lat="46.04833" lon="4.52591">
        <ele>701</ele>
        <time>2016-11-27T12:31:37.000Z</time>
      </trkpt>
      <trkpt lat="46.04835" lon="4.5259">
        <ele>702</ele>
        <time>2016-11-27T12:31:38.000Z</time>
      </trkpt>
      <trkpt lat="46.04837" lon="4.52589">
        <ele>701</ele>
        <time>2016-11-27T12:31:39.000Z</time>
      </trkpt>
      <trkpt lat="46.04838" lon="4.52587">
        <ele>701</ele>
        <time>2016-11-27T12:31:40.000Z</time>
      </trkpt>
      <trkpt lat="46.0484" lon="4.52584">
        <ele>700</ele>
        <time>2016-11-27T12:31:41.000Z</time>
      </trkpt>
      <trkpt lat="46.04841" lon="4.52581">
        <ele>701</ele>
        <time>2016-11-27T12:31:42.000Z</time>
      </trkpt>
      <trkpt lat="46.04843" lon="4.52578">
        <ele>699</ele>
        <time>2016-11-27T12:31:43.000Z</time>
      </trkpt>
      <trkpt lat="46.04845" lon="4.52575">
        <ele>698</ele>
        <time>2016-11-27T12:31:44.000Z</time>
      </trkpt>
      <trkpt lat="46.04846" lon="4.52572">
        <ele>697</ele>
        <time>2016-11-27T12:31:45.000Z</time>
      </trkpt>
      <trkpt lat="46.04848" lon="4.52569">
        <ele>696</ele>
        <time>2016-11-27T12:31:46.000Z</time>
      </trkpt>
      <trkpt lat="46.0485" lon="4.52566">
        <ele>694</ele>
        <time>2016-11-27T12:31:47.000Z</time>
      </trkpt>
      <trkpt lat="46.04852" lon="4.52563">
        <ele>693</ele>
        <time>2016-11-27T12:31:48.000Z</time>
      </trkpt>
      <trkpt lat="46.04854" lon="4.5256">
        <ele>692</ele>
        <time>2016-11-27T12:31:49.000Z</time>
      </trkpt>
      <trkpt lat="46.04855" lon="4.52557">
        <ele>691</ele>
        <time>2016-11-27T12:31:50.000Z</time>
      </trkpt>
      <trkpt lat="46.04857" lon="4.52554">
        <ele>690</ele>
        <time>2016-11-27T12:31:51.000Z</time>
      </trkpt>
      <trkpt lat="46.04858" lon="4.52551">
        <ele>689</ele>
        <time>2016-11-27T12:31:52.000Z</time>
      </trkpt>
      <trkpt lat="46.0486" lon="4.52548">
        <ele>689</ele>
        <time>2016-11-27T12:31:53.000Z</time>
      </trkpt>
      <trkpt lat="46.04861" lon="4.52544">
        <ele>689</ele>
        <time>2016-11-27T12:31:54.000Z</time>
      </trkpt>
      <trkpt lat="46.04863" lon="4.5254">
        <ele>689</ele>
        <time>2016-11-27T12:31:55.000Z</time>
      </trkpt>
      <trkpt lat="46.04864" lon="4.52537">
        <ele>688</ele>
        <time>2016-11-27T12:31:56.000Z</time>
      </trkpt>
      <trkpt lat="46.04866" lon="4.52534">
        <ele>686</ele>
        <time>2016-11-27T12:31:57.000Z</time>
      </trkpt>
      <trkpt lat="46.04867" lon="4.52531">
        <ele>685</ele>
        <time>2016-11-27T12:31:58.000Z</time>
      </trkpt>
      <trkpt lat="46.04868" lon="4.52528">
        <ele>684</ele>
        <time>2016-11-27T12:31:59.000Z</time>
      </trkpt>
      <trkpt lat="46.0487" lon="4.52526">
        <ele>683</ele>
        <time>2016-11-27T12:32:00.000Z</time>
      </trkpt>
      <trkpt lat="46.04871" lon="4.52523">
        <ele>682</ele>
        <time>2016-11-27T12:32:01.000Z</time>
      </trkpt>
      <trkpt lat="46.04873" lon="4.52521">
        <ele>681</ele>
        <time>2016-11-27T12:32:02.000Z</time>
      </trkpt>
      <trkpt lat="46.04874" lon="4.52519">
        <ele>681</ele>
        <time>2016-11-27T12:32:03.000Z</time>
      </trkpt>
      <trkpt lat="46.04876" lon="4.52516">
        <ele>682</ele>
        <time>2016-11-27T12:32:04.000Z</time>
      </trkpt>
      <trkpt lat="46.04878" lon="4.52513">
        <ele>681</ele>
        <time>2016-11-27T12:32:05.000Z</time>
      </trkpt>
      <trkpt lat="46.0488" lon="4.5251">
        <ele>683</ele>
        <time>2016-11-27T12:32:06.000Z</time>
      </trkpt>
      <trkpt lat="46.04881" lon="4.52506">
        <ele>682</ele>
        <time>2016-11-27T12:32:07.000Z</time>
      </trkpt>
      <trkpt lat="46.04883" lon="4.52502">
        <ele>682</ele>
        <time>2016-11-27T12:32:08.000Z</time>
      </trkpt>
      <trkpt lat="46.04885" lon="4.52499">
        <ele>682</ele>
        <time>2016-11-27T12:32:09.000Z</time>
      </trkpt>
      <trkpt lat="46.04886" lon="4.52496">
        <ele>680</ele>
        <time>2016-11-27T12:32:10.000Z</time>
      </trkpt>
      <trkpt lat="46.04888" lon="4.52493">
        <ele>680</ele>
        <time>2016-11-27T12:32:11.000Z</time>
      </trkpt>
      <trkpt lat="46.04889" lon="4.5249">
        <ele>680</ele>
        <time>2016-11-27T12:32:12.000Z</time>
      </trkpt>
      <trkpt lat="46.04891" lon="4.52486">
        <ele>679</ele>
        <time>2016-11-27T12:32:13.000Z</time>
      </trkpt>
      <trkpt lat="46.04892" lon="4.52483">
        <ele>679</ele>
        <time>2016-11-27T12:32:14.000Z</time>
      </trkpt>
      <trkpt lat="46.04893" lon="4.52479">
        <ele>679</ele>
        <time>2016-11-27T12:32:15.000Z</time>
      </trkpt>
      <trkpt lat="46.04895" lon="4.52475">
        <ele>679</ele>
        <time>2016-11-27T12:32:16.000Z</time>
      </trkpt>
      <trkpt lat="46.04897" lon="4.52471">
        <ele>678</ele>
        <time>2016-11-27T12:32:17.000Z</time>
      </trkpt>
      <trkpt lat="46.04899" lon="4.52467">
        <ele>679</ele>
        <time>2016-11-27T12:32:18.000Z</time>
      </trkpt>
      <trkpt lat="46.04901" lon="4.52463">
        <ele>681</ele>
        <time>2016-11-27T12:32:19.000Z</time>
      </trkpt>
      <trkpt lat="46.04903" lon="4.52459">
        <ele>681</ele>
        <time>2016-11-27T12:32:20.000Z</time>
      </trkpt>
      <trkpt lat="46.04904" lon="4.52455">
        <ele>681</ele>
        <time>2016-11-27T12:32:21.000Z</time>
      </trkpt>
      <trkpt lat="46.04906" lon="4.52452">
        <ele>682</ele>
        <time>2016-11-27T12:32:22.000Z</time>
      </trkpt>
      <trkpt lat="46.04908" lon="4.52448">
        <ele>682</ele>
        <time>2016-11-27T12:32:23.000Z</time>
      </trkpt>
      <trkpt lat="46.04909" lon="4.52444">
        <ele>682</ele>
        <time>2016-11-27T12:32:24.000Z</time>
      </trkpt>
      <trkpt lat="46.04911" lon="4.52441">
        <ele>682</ele>
        <time>2016-11-27T12:32:25.000Z</time>
      </trkpt>
      <trkpt lat="46.04912" lon="4.52437">
        <ele>683</ele>
        <time>2016-11-27T12:32:26.000Z</time>
      </trkpt>
      <trkpt lat="46.04914" lon="4.52434">
        <ele>683</ele>
        <time>2016-11-27T12:32:27.000Z</time>
      </trkpt>
      <trkpt lat="46.04915" lon="4.5243">
        <ele>685</ele>
        <time>2016-11-27T12:32:28.000Z</time>
      </trkpt>
      <trkpt lat="46.04917" lon="4.52427">
        <ele>685</ele>
        <time>2016-11-27T12:32:29.000Z</time>
      </trkpt>
      <trkpt lat="46.04919" lon="4.52423">
        <ele>685</ele>
        <time>2016-11-27T12:32:30.000Z</time>
      </trkpt>
      <trkpt lat="46.0492" lon="4.5242">
        <ele>685</ele>
        <time>2016-11-27T12:32:31.000Z</time>
      </trkpt>
      <trkpt lat="46.04922" lon="4.52416">
        <ele>686</ele>
        <time>2016-11-27T12:32:32.000Z</time>
      </trkpt>
      <trkpt lat="46.04924" lon="4.52413">
        <ele>687</ele>
        <time>2016-11-27T12:32:33.000Z</time>
      </trkpt>
      <trkpt lat="46.04925" lon="4.52411">
        <ele>687</ele>
        <time>2016-11-27T12:32:34.000Z</time>
      </trkpt>
      <trkpt lat="46.04926" lon="4.52408">
        <ele>688</ele>
        <time>2016-11-27T12:32:35.000Z</time>
      </trkpt>
      <trkpt lat="46.04928" lon="4.52405">
        <ele>688</ele>
        <time>2016-11-27T12:32:36.000Z</time>
      </trkpt>
      <trkpt lat="46.04929" lon="4.52402">
        <ele>688</ele>
        <time>2016-11-27T12:32:37.000Z</time>
      </trkpt>
      <trkpt lat="46.04931" lon="4.524">
        <ele>688</ele>
        <time>2016-11-27T12:32:38.000Z</time>
      </trkpt>
      <trkpt lat="46.04933" lon="4.52397">
        <ele>689</ele>
        <time>2016-11-27T12:32:39.000Z</time>
      </trkpt>
      <trkpt lat="46.04934" lon="4.52394">
        <ele>688</ele>
        <time>2016-11-27T12:32:40.000Z</time>
      </trkpt>
      <trkpt lat="46.04936" lon="4.52391">
        <ele>688</ele>
        <time>2016-11-27T12:32:41.000Z</time>
      </trkpt>
      <trkpt lat="46.04937" lon="4.52388">
        <ele>688</ele>
        <time>2016-11-27T12:32:42.000Z</time>
      </trkpt>
      <trkpt lat="46.04939" lon="4.52385">
        <ele>688</ele>
        <time>2016-11-27T12:32:43.000Z</time>
      </trkpt>
      <trkpt lat="46.04941" lon="4.52382">
        <ele>688</ele>
        <time>2016-11-27T12:32:44.000Z</time>
      </trkpt>
      <trkpt lat="46.04943" lon="4.52378">
        <ele>689</ele>
        <time>2016-11-27T12:32:45.000Z</time>
      </trkpt>
      <trkpt lat="46.04945" lon="4.52375">
        <ele>689</ele>
        <time>2016-11-27T12:32:46.000Z</time>
      </trkpt>
      <trkpt lat="46.04947" lon="4.52372">
        <ele>690</ele>
        <time>2016-11-27T12:32:47.000Z</time>
      </trkpt>
      <trkpt lat="46.04949" lon="4.52368">
        <ele>690</ele>
        <time>2016-11-27T12:32:48.000Z</time>
      </trkpt>
      <trkpt lat="46.04951" lon="4.52366">
        <ele>690</ele>
        <time>2016-11-27T12:32:49.000Z</time>
      </trkpt>
      <trkpt lat="46.04953" lon="4.52363">
        <ele>690</ele>
        <time>2016-11-27T12:32:50.000Z</time>
      </trkpt>
      <trkpt lat="46.04956" lon="4.5236">
        <ele>690</ele>
        <time>2016-11-27T12:32:51.000Z</time>
      </trkpt>
      <trkpt lat="46.04958" lon="4.52357">
        <ele>690</ele>
        <time>2016-11-27T12:32:52.000Z</time>
      </trkpt>
      <trkpt lat="46.0496" lon="4.52355">
        <ele>690</ele>
        <time>2016-11-27T12:32:53.000Z</time>
      </trkpt>
      <trkpt lat="46.04962" lon="4.52352">
        <ele>690</ele>
        <time>2016-11-27T12:32:54.000Z</time>
      </trkpt>
      <trkpt lat="46.04964" lon="4.5235">
        <ele>689</ele>
        <time>2016-11-27T12:32:55.000Z</time>
      </trkpt>
      <trkpt lat="46.04966" lon="4.52347">
        <ele>689</ele>
        <time>2016-11-27T12:32:56.000Z</time>
      </trkpt>
      <trkpt lat="46.04968" lon="4.52344">
        <ele>688</ele>
        <time>2016-11-27T12:32:57.000Z</time>
      </trkpt>
      <trkpt lat="46.0497" lon="4.52341">
        <ele>688</ele>
        <time>2016-11-27T12:32:58.000Z</time>
      </trkpt>
      <trkpt lat="46.04972" lon="4.52339">
        <ele>688</ele>
        <time>2016-11-27T12:32:59.000Z</time>
      </trkpt>
      <trkpt lat="46.04974" lon="4.52336">
        <ele>688</ele>
        <time>2016-11-27T12:33:00.000Z</time>
      </trkpt>
      <trkpt lat="46.04977" lon="4.52334">
        <ele>688</ele>
        <time>2016-11-27T12:33:01.000Z</time>
      </trkpt>
      <trkpt lat="46.04979" lon="4.52332">
        <ele>688</ele>
        <time>2016-11-27T12:33:02.000Z</time>
      </trkpt>
      <trkpt lat="46.04981" lon="4.52329">
        <ele>688</ele>
        <time>2016-11-27T12:33:03.000Z</time>
      </trkpt>
      <trkpt lat="46.04983" lon="4.52328">
        <ele>688</ele>
        <time>2016-11-27T12:33:04.000Z</time>
      </trkpt>
      <trkpt lat="46.04985" lon="4.52326">
        <ele>688</ele>
        <time>2016-11-27T12:33:05.000Z</time>
      </trkpt>
      <trkpt lat="46.04988" lon="4.52324">
        <ele>687</ele>
        <time>2016-11-27T12:33:06.000Z</time>
      </trkpt>
      <trkpt lat="46.0499" lon="4.52322">
        <ele>687</ele>
        <time>2016-11-27T12:33:07.000Z</time>
      </trkpt>
      <trkpt lat="46.04992" lon="4.52321">
        <ele>686</ele>
        <time>2016-11-27T12:33:08.000Z</time>
      </trkpt>
      <trkpt lat="46.04995" lon="4.52319">
        <ele>686</ele>
        <time>2016-11-27T12:33:09.000Z</time>
      </trkpt>
      <trkpt lat="46.04997" lon="4.52318">
        <ele>686</ele>
        <time>2016-11-27T12:33:10.000Z</time>
      </trkpt>
      <trkpt lat="46.05" lon="4.52316">
        <ele>686</ele>
        <time>2016-11-27T12:33:11.000Z</time>
      </trkpt>
      <trkpt lat="46.05003" lon="4.52315">
        <ele>686</ele>
        <time>2016-11-27T12:33:12.000Z</time>
      </trkpt>
      <trkpt lat="46.05006" lon="4.52313">
        <ele>687</ele>
        <time>2016-11-27T12:33:13.000Z</time>
      </trkpt>
      <trkpt lat="46.05009" lon="4.52312">
        <ele>687</ele>
        <time>2016-11-27T12:33:14.000Z</time>
      </trkpt>
      <trkpt lat="46.05011" lon="4.52312">
        <ele>686</ele>
        <time>2016-11-27T12:33:15.000Z</time>
      </trkpt>
      <trkpt lat="46.05014" lon="4.52312">
        <ele>686</ele>
        <time>2016-11-27T12:33:16.000Z</time>
      </trkpt>
      <trkpt lat="46.05017" lon="4.52312">
        <ele>686</ele>
        <time>2016-11-27T12:33:17.000Z</time>
      </trkpt>
      <trkpt lat="46.0502" lon="4.52312">
        <ele>687</ele>
        <time>2016-11-27T12:33:18.000Z</time>
      </trkpt>
      <trkpt lat="46.05023" lon="4.52313">
        <ele>687</ele>
        <time>2016-11-27T12:33:19.000Z</time>
      </trkpt>
      <trkpt lat="46.05026" lon="4.52314">
        <ele>687</ele>
        <time>2016-11-27T12:33:20.000Z</time>
      </trkpt>
      <trkpt lat="46.05028" lon="4.52315">
        <ele>687</ele>
        <time>2016-11-27T12:33:21.000Z</time>
      </trkpt>
      <trkpt lat="46.05031" lon="4.52315">
        <ele>687</ele>
        <time>2016-11-27T12:33:22.000Z</time>
      </trkpt>
      <trkpt lat="46.05033" lon="4.52317">
        <ele>688</ele>
        <time>2016-11-27T12:33:23.000Z</time>
      </trkpt>
      <trkpt lat="46.05035" lon="4.52318">
        <ele>688</ele>
        <time>2016-11-27T12:33:24.000Z</time>
      </trkpt>
      <trkpt lat="46.05038" lon="4.5232">
        <ele>688</ele>
        <time>2016-11-27T12:33:25.000Z</time>
      </trkpt>
      <trkpt lat="46.0504" lon="4.52322">
        <ele>689</ele>
        <time>2016-11-27T12:33:26.000Z</time>
      </trkpt>
      <trkpt lat="46.05042" lon="4.52324">
        <ele>689</ele>
        <time>2016-11-27T12:33:27.000Z</time>
      </trkpt>
      <trkpt lat="46.05044" lon="4.52326">
        <ele>689</ele>
        <time>2016-11-27T12:33:28.000Z</time>
      </trkpt>
      <trkpt lat="46.05046" lon="4.52328">
        <ele>690</ele>
        <time>2016-11-27T12:33:29.000Z</time>
      </trkpt>
      <trkpt lat="46.05049" lon="4.5233">
        <ele>690</ele>
        <time>2016-11-27T12:33:30.000Z</time>
      </trkpt>
      <trkpt lat="46.05051" lon="4.52332">
        <ele>690</ele>
        <time>2016-11-27T12:33:31.000Z</time>
      </trkpt>
      <trkpt lat="46.05053" lon="4.52335">
        <ele>690</ele>
        <time>2016-11-27T12:33:32.000Z</time>
      </trkpt>
      <trkpt lat="46.05055" lon="4.52337">
        <ele>690</ele>
        <time>2016-11-27T12:33:33.000Z</time>
      </trkpt>
      <trkpt lat="46.05057" lon="4.52339">
        <ele>690</ele>
        <time>2016-11-27T12:33:34.000Z</time>
      </trkpt>
      <trkpt lat="46.05059" lon="4.52341">
        <ele>690</ele>
        <time>2016-11-27T12:33:35.000Z</time>
      </trkpt>
      <trkpt lat="46.05061" lon="4.52343">
        <ele>689</ele>
        <time>2016-11-27T12:33:36.000Z</time>
      </trkpt>
      <trkpt lat="46.05063" lon="4.52346">
        <ele>689</ele>
        <time>2016-11-27T12:33:37.000Z</time>
      </trkpt>
      <trkpt lat="46.05065" lon="4.52348">
        <ele>689</ele>
        <time>2016-11-27T12:33:38.000Z</time>
      </trkpt>
      <trkpt lat="46.05067" lon="4.52351">
        <ele>689</ele>
        <time>2016-11-27T12:33:39.000Z</time>
      </trkpt>
      <trkpt lat="46.05069" lon="4.52353">
        <ele>689</ele>
        <time>2016-11-27T12:33:40.000Z</time>
      </trkpt>
      <trkpt lat="46.05071" lon="4.52356">
        <ele>689</ele>
        <time>2016-11-27T12:33:41.000Z</time>
      </trkpt>
      <trkpt lat="46.05073" lon="4.52359">
        <ele>689</ele>
        <time>2016-11-27T12:33:42.000Z</time>
      </trkpt>
      <trkpt lat="46.05076" lon="4.52361">
        <ele>689</ele>
        <time>2016-11-27T12:33:43.000Z</time>
      </trkpt>
      <trkpt lat="46.05078" lon="4.52364">
        <ele>689</ele>
        <time>2016-11-27T12:33:44.000Z</time>
      </trkpt>
      <trkpt lat="46.0508" lon="4.52366">
        <ele>690</ele>
        <time>2016-11-27T12:33:45.000Z</time>
      </trkpt>
      <trkpt lat="46.05082" lon="4.52369">
        <ele>689</ele>
        <time>2016-11-27T12:33:46.000Z</time>
      </trkpt>
      <trkpt lat="46.05084" lon="4.52372">
        <ele>690</ele>
        <time>2016-11-27T12:33:47.000Z</time>
      </trkpt>
      <trkpt lat="46.05086" lon="4.52375">
        <ele>689</ele>
        <time>2016-11-27T12:33:48.000Z</time>
      </trkpt>
      <trkpt lat="46.05088" lon="4.52378">
        <ele>689</ele>
        <time>2016-11-27T12:33:49.000Z</time>
      </trkpt>
      <trkpt lat="46.0509" lon="4.52381">
        <ele>690</ele>
        <time>2016-11-27T12:33:50.000Z</time>
      </trkpt>
      <trkpt lat="46.05092" lon="4.52384">
        <ele>690</ele>
        <time>2016-11-27T12:33:51.000Z</time>
      </trkpt>
      <trkpt lat="46.05094" lon="4.52387">
        <ele>689</ele>
        <time>2016-11-27T12:33:52.000Z</time>
      </trkpt>
      <trkpt lat="46.05095" lon="4.5239">
        <ele>689</ele>
        <time>2016-11-27T12:33:53.000Z</time>
      </trkpt>
      <trkpt lat="46.05097" lon="4.52393">
        <ele>690</ele>
        <time>2016-11-27T12:33:54.000Z</time>
      </trkpt>
      <trkpt lat="46.05099" lon="4.52396">
        <ele>690</ele>
        <time>2016-11-27T12:33:55.000Z</time>
      </trkpt>
      <trkpt lat="46.05101" lon="4.52399">
        <ele>689</ele>
        <time>2016-11-27T12:33:56.000Z</time>
      </trkpt>
      <trkpt lat="46.05103" lon="4.52402">
        <ele>689</ele>
        <time>2016-11-27T12:33:57.000Z</time>
      </trkpt>
      <trkpt lat="46.05104" lon="4.52405">
        <ele>689</ele>
        <time>2016-11-27T12:33:58.000Z</time>
      </trkpt>
      <trkpt lat="46.05106" lon="4.52408">
        <ele>689</ele>
        <time>2016-11-27T12:33:59.000Z</time>
      </trkpt>
      <trkpt lat="46.05108" lon="4.5241">
        <ele>689</ele>
        <time>2016-11-27T12:34:00.000Z</time>
      </trkpt>
      <trkpt lat="46.0511" lon="4.52413">
        <ele>689</ele>
        <time>2016-11-27T12:34:01.000Z</time>
      </trkpt>
      <trkpt lat="46.05111" lon="4.52416">
        <ele>689</ele>
        <time>2016-11-27T12:34:02.000Z</time>
      </trkpt>
      <trkpt lat="46.05113" lon="4.52419">
        <ele>689</ele>
        <time>2016-11-27T12:34:03.000Z</time>
      </trkpt>
      <trkpt lat="46.05115" lon="4.52421">
        <ele>688</ele>
        <time>2016-11-27T12:34:04.000Z</time>
      </trkpt>
      <trkpt lat="46.05118" lon="4.52423">
        <ele>688</ele>
        <time>2016-11-27T12:34:05.000Z</time>
      </trkpt>
      <trkpt lat="46.0512" lon="4.52425">
        <ele>687</ele>
        <time>2016-11-27T12:34:06.000Z</time>
      </trkpt>
      <trkpt lat="46.05123" lon="4.52426">
        <ele>686</ele>
        <time>2016-11-27T12:34:07.000Z</time>
      </trkpt>
      <trkpt lat="46.05125" lon="4.52427">
        <ele>685</ele>
        <time>2016-11-27T12:34:08.000Z</time>
      </trkpt>
      <trkpt lat="46.05128" lon="4.52427">
        <ele>685</ele>
        <time>2016-11-27T12:34:09.000Z</time>
      </trkpt>
      <trkpt lat="46.0513" lon="4.52427">
        <ele>685</ele>
        <time>2016-11-27T12:34:10.000Z</time>
      </trkpt>
      <trkpt lat="46.05133" lon="4.52426">
        <ele>684</ele>
        <time>2016-11-27T12:34:11.000Z</time>
      </trkpt>
      <trkpt lat="46.05135" lon="4.52426">
        <ele>683</ele>
        <time>2016-11-27T12:34:12.000Z</time>
      </trkpt>
      <trkpt lat="46.05138" lon="4.52425">
        <ele>682</ele>
        <time>2016-11-27T12:34:13.000Z</time>
      </trkpt>
      <trkpt lat="46.0514" lon="4.52424">
        <ele>682</ele>
        <time>2016-11-27T12:34:14.000Z</time>
      </trkpt>
      <trkpt lat="46.05142" lon="4.52424">
        <ele>681</ele>
        <time>2016-11-27T12:34:15.000Z</time>
      </trkpt>
      <trkpt lat="46.05144" lon="4.52422">
        <ele>682</ele>
        <time>2016-11-27T12:34:16.000Z</time>
      </trkpt>
      <trkpt lat="46.05147" lon="4.5242">
        <ele>682</ele>
        <time>2016-11-27T12:34:17.000Z</time>
      </trkpt>
      <trkpt lat="46.05149" lon="4.52418">
        <ele>680</ele>
        <time>2016-11-27T12:34:18.000Z</time>
      </trkpt>
      <trkpt lat="46.05151" lon="4.52417">
        <ele>680</ele>
        <time>2016-11-27T12:34:19.000Z</time>
      </trkpt>
      <trkpt lat="46.05153" lon="4.52415">
        <ele>678</ele>
        <time>2016-11-27T12:34:20.000Z</time>
      </trkpt>
      <trkpt lat="46.05155" lon="4.52414">
        <ele>677</ele>
        <time>2016-11-27T12:34:21.000Z</time>
      </trkpt>
      <trkpt lat="46.05157" lon="4.52412">
        <ele>676</ele>
        <time>2016-11-27T12:34:22.000Z</time>
      </trkpt>
      <trkpt lat="46.05159" lon="4.5241">
        <ele>676</ele>
        <time>2016-11-27T12:34:23.000Z</time>
      </trkpt>
      <trkpt lat="46.05162" lon="4.52408">
        <ele>676</ele>
        <time>2016-11-27T12:34:24.000Z</time>
      </trkpt>
      <trkpt lat="46.05164" lon="4.52405">
        <ele>676</ele>
        <time>2016-11-27T12:34:25.000Z</time>
      </trkpt>
      <trkpt lat="46.05166" lon="4.52403">
        <ele>677</ele>
        <time>2016-11-27T12:34:26.000Z</time>
      </trkpt>
      <trkpt lat="46.05168" lon="4.524">
        <ele>678</ele>
        <time>2016-11-27T12:34:27.000Z</time>
      </trkpt>
      <trkpt lat="46.0517" lon="4.52397">
        <ele>677</ele>
        <time>2016-11-27T12:34:28.000Z</time>
      </trkpt>
      <trkpt lat="46.05172" lon="4.52394">
        <ele>677</ele>
        <time>2016-11-27T12:34:29.000Z</time>
      </trkpt>
      <trkpt lat="46.05174" lon="4.52392">
        <ele>678</ele>
        <time>2016-11-27T12:34:30.000Z</time>
      </trkpt>
      <trkpt lat="46.05176" lon="4.52389">
        <ele>678</ele>
        <time>2016-11-27T12:34:31.000Z</time>
      </trkpt>
      <trkpt lat="46.05178" lon="4.52387">
        <ele>678</ele>
        <time>2016-11-27T12:34:32.000Z</time>
      </trkpt>
      <trkpt lat="46.05179" lon="4.52384">
        <ele>678</ele>
        <time>2016-11-27T12:34:33.000Z</time>
      </trkpt>
      <trkpt lat="46.05181" lon="4.52382">
        <ele>679</ele>
        <time>2016-11-27T12:34:34.000Z</time>
      </trkpt>
      <trkpt lat="46.05183" lon="4.52379">
        <ele>680</ele>
        <time>2016-11-27T12:34:35.000Z</time>
      </trkpt>
      <trkpt lat="46.05184" lon="4.52376">
        <ele>678</ele>
        <time>2016-11-27T12:34:36.000Z</time>
      </trkpt>
      <trkpt lat="46.05186" lon="4.52374">
        <ele>677</ele>
        <time>2016-11-27T12:34:37.000Z</time>
      </trkpt>
      <trkpt lat="46.05188" lon="4.52371">
        <ele>677</ele>
        <time>2016-11-27T12:34:38.000Z</time>
      </trkpt>
      <trkpt lat="46.05189" lon="4.52368">
        <ele>677</ele>
        <time>2016-11-27T12:34:39.000Z</time>
      </trkpt>
      <trkpt lat="46.05191" lon="4.52365">
        <ele>676</ele>
        <time>2016-11-27T12:34:40.000Z</time>
      </trkpt>
      <trkpt lat="46.05193" lon="4.52362">
        <ele>676</ele>
        <time>2016-11-27T12:34:41.000Z</time>
      </trkpt>
      <trkpt lat="46.05195" lon="4.52359">
        <ele>676</ele>
        <time>2016-11-27T12:34:42.000Z</time>
      </trkpt>
      <trkpt lat="46.05196" lon="4.52355">
        <ele>677</ele>
        <time>2016-11-27T12:34:43.000Z</time>
      </trkpt>
      <trkpt lat="46.05198" lon="4.52352">
        <ele>678</ele>
        <time>2016-11-27T12:34:44.000Z</time>
      </trkpt>
      <trkpt lat="46.052" lon="4.52348">
        <ele>679</ele>
        <time>2016-11-27T12:34:45.000Z</time>
      </trkpt>
      <trkpt lat="46.05202" lon="4.52344">
        <ele>678</ele>
        <time>2016-11-27T12:34:46.000Z</time>
      </trkpt>
      <trkpt lat="46.05203" lon="4.52341">
        <ele>679</ele>
        <time>2016-11-27T12:34:47.000Z</time>
      </trkpt>
      <trkpt lat="46.05205" lon="4.52337">
        <ele>679</ele>
        <time>2016-11-27T12:34:48.000Z</time>
      </trkpt>
      <trkpt lat="46.05207" lon="4.52334">
        <ele>679</ele>
        <time>2016-11-27T12:34:49.000Z</time>
      </trkpt>
      <trkpt lat="46.05208" lon="4.5233">
        <ele>680</ele>
        <time>2016-11-27T12:34:50.000Z</time>
      </trkpt>
      <trkpt lat="46.0521" lon="4.52327">
        <ele>679</ele>
        <time>2016-11-27T12:34:51.000Z</time>
      </trkpt>
      <trkpt lat="46.05211" lon="4.52324">
        <ele>679</ele>
        <time>2016-11-27T12:34:52.000Z</time>
      </trkpt>
      <trkpt lat="46.05213" lon="4.52321">
        <ele>679</ele>
        <time>2016-11-27T12:34:53.000Z</time>
      </trkpt>
      <trkpt lat="46.05214" lon="4.52317">
        <ele>680</ele>
        <time>2016-11-27T12:34:54.000Z</time>
      </trkpt>
      <trkpt lat="46.05215" lon="4.52314">
        <ele>680</ele>
        <time>2016-11-27T12:34:55.000Z</time>
      </trkpt>
      <trkpt lat="46.05216" lon="4.52312">
        <ele>680</ele>
        <time>2016-11-27T12:34:56.000Z</time>
      </trkpt>
      <trkpt lat="46.05217" lon="4.52309">
        <ele>679</ele>
        <time>2016-11-27T12:34:57.000Z</time>
      </trkpt>
      <trkpt lat="46.05219" lon="4.52307">
        <ele>680</ele>
        <time>2016-11-27T12:34:58.000Z</time>
      </trkpt>
      <trkpt lat="46.0522" lon="4.52304">
        <ele>680</ele>
        <time>2016-11-27T12:34:59.000Z</time>
      </trkpt>
      <trkpt lat="46.0522" lon="4.52301">
        <ele>680</ele>
        <time>2016-11-27T12:35:00.000Z</time>
      </trkpt>
      <trkpt lat="46.05222" lon="4.52298">
        <ele>679</ele>
        <time>2016-11-27T12:35:01.000Z</time>
      </trkpt>
      <trkpt lat="46.05223" lon="4.52296">
        <ele>677</ele>
        <time>2016-11-27T12:35:02.000Z</time>
      </trkpt>
      <trkpt lat="46.05224" lon="4.52293">
        <ele>677</ele>
        <time>2016-11-27T12:35:03.000Z</time>
      </trkpt>
      <trkpt lat="46.05225" lon="4.5229">
        <ele>676</ele>
        <time>2016-11-27T12:35:04.000Z</time>
      </trkpt>
      <trkpt lat="46.05227" lon="4.52287">
        <ele>677</ele>
        <time>2016-11-27T12:35:05.000Z</time>
      </trkpt>
      <trkpt lat="46.05228" lon="4.52283">
        <ele>678</ele>
        <time>2016-11-27T12:35:06.000Z</time>
      </trkpt>
      <trkpt lat="46.05228" lon="4.52279">
        <ele>677</ele>
        <time>2016-11-27T12:35:07.000Z</time>
      </trkpt>
      <trkpt lat="46.05228" lon="4.52275">
        <ele>676</ele>
        <time>2016-11-27T12:35:08.000Z</time>
      </trkpt>
      <trkpt lat="46.05229" lon="4.52272">
        <ele>675</ele>
        <time>2016-11-27T12:35:09.000Z</time>
      </trkpt>
      <trkpt lat="46.0523" lon="4.52269">
        <ele>675</ele>
        <time>2016-11-27T12:35:10.000Z</time>
      </trkpt>
      <trkpt lat="46.05231" lon="4.52266">
        <ele>676</ele>
        <time>2016-11-27T12:35:11.000Z</time>
      </trkpt>
      <trkpt lat="46.05231" lon="4.52263">
        <ele>675</ele>
        <time>2016-11-27T12:35:12.000Z</time>
      </trkpt>
      <trkpt lat="46.05232" lon="4.5226">
        <ele>676</ele>
        <time>2016-11-27T12:35:13.000Z</time>
      </trkpt>
      <trkpt lat="46.05232" lon="4.52258">
        <ele>676</ele>
        <time>2016-11-27T12:35:14.000Z</time>
      </trkpt>
      <trkpt lat="46.05233" lon="4.52256">
        <ele>677</ele>
        <time>2016-11-27T12:35:15.000Z</time>
      </trkpt>
      <trkpt lat="46.05233" lon="4.52254">
        <ele>676</ele>
        <time>2016-11-27T12:35:16.000Z</time>
      </trkpt>
      <trkpt lat="46.05233" lon="4.52252">
        <ele>673</ele>
        <time>2016-11-27T12:35:17.000Z</time>
      </trkpt>
      <trkpt lat="46.05234" lon="4.52249">
        <ele>672</ele>
        <time>2016-11-27T12:35:18.000Z</time>
      </trkpt>
      <trkpt lat="46.05235" lon="4.52246">
        <ele>671</ele>
        <time>2016-11-27T12:35:19.000Z</time>
      </trkpt>
      <trkpt lat="46.05236" lon="4.52244">
        <ele>671</ele>
        <time>2016-11-27T12:35:20.000Z</time>
      </trkpt>
      <trkpt lat="46.05238" lon="4.52241">
        <ele>671</ele>
        <time>2016-11-27T12:35:21.000Z</time>
      </trkpt>
      <trkpt lat="46.05238" lon="4.52237">
        <ele>672</ele>
        <time>2016-11-27T12:35:22.000Z</time>
      </trkpt>
      <trkpt lat="46.05239" lon="4.52234">
        <ele>673</ele>
        <time>2016-11-27T12:35:23.000Z</time>
      </trkpt>
      <trkpt lat="46.0524" lon="4.52231">
        <ele>673</ele>
        <time>2016-11-27T12:35:24.000Z</time>
      </trkpt>
      <trkpt lat="46.0524" lon="4.52227">
        <ele>673</ele>
        <time>2016-11-27T12:35:25.000Z</time>
      </trkpt>
      <trkpt lat="46.05241" lon="4.52223">
        <ele>673</ele>
        <time>2016-11-27T12:35:26.000Z</time>
      </trkpt>
      <trkpt lat="46.05241" lon="4.52219">
        <ele>674</ele>
        <time>2016-11-27T12:35:27.000Z</time>
      </trkpt>
      <trkpt lat="46.05242" lon="4.52215">
        <ele>674</ele>
        <time>2016-11-27T12:35:28.000Z</time>
      </trkpt>
      <trkpt lat="46.05242" lon="4.52211">
        <ele>674</ele>
        <time>2016-11-27T12:35:29.000Z</time>
      </trkpt>
      <trkpt lat="46.05243" lon="4.52207">
        <ele>674</ele>
        <time>2016-11-27T12:35:30.000Z</time>
      </trkpt>
      <trkpt lat="46.05244" lon="4.52204">
        <ele>674</ele>
        <time>2016-11-27T12:35:31.000Z</time>
      </trkpt>
      <trkpt lat="46.05244" lon="4.522">
        <ele>674</ele>
        <time>2016-11-27T12:35:32.000Z</time>
      </trkpt>
      <trkpt lat="46.05245" lon="4.52197">
        <ele>674</ele>
        <time>2016-11-27T12:35:33.000Z</time>
      </trkpt>
      <trkpt lat="46.05246" lon="4.52193">
        <ele>673</ele>
        <time>2016-11-27T12:35:34.000Z</time>
      </trkpt>
      <trkpt lat="46.05247" lon="4.5219">
        <ele>674</ele>
        <time>2016-11-27T12:35:35.000Z</time>
      </trkpt>
      <trkpt lat="46.05248" lon="4.52186">
        <ele>676</ele>
        <time>2016-11-27T12:35:36.000Z</time>
      </trkpt>
      <trkpt lat="46.05249" lon="4.52181">
        <ele>678</ele>
        <time>2016-11-27T12:35:37.000Z</time>
      </trkpt>
      <trkpt lat="46.0525" lon="4.52177">
        <ele>679</ele>
        <time>2016-11-27T12:35:38.000Z</time>
      </trkpt>
      <trkpt lat="46.05252" lon="4.52173">
        <ele>679</ele>
        <time>2016-11-27T12:35:39.000Z</time>
      </trkpt>
      <trkpt lat="46.05253" lon="4.52169">
        <ele>680</ele>
        <time>2016-11-27T12:35:40.000Z</time>
      </trkpt>
      <trkpt lat="46.05255" lon="4.52166">
        <ele>680</ele>
        <time>2016-11-27T12:35:41.000Z</time>
      </trkpt>
      <trkpt lat="46.05256" lon="4.52162">
        <ele>681</ele>
        <time>2016-11-27T12:35:42.000Z</time>
      </trkpt>
      <trkpt lat="46.05257" lon="4.52159">
        <ele>681</ele>
        <time>2016-11-27T12:35:43.000Z</time>
      </trkpt>
      <trkpt lat="46.05258" lon="4.52156">
        <ele>682</ele>
        <time>2016-11-27T12:35:44.000Z</time>
      </trkpt>
      <trkpt lat="46.05259" lon="4.52153">
        <ele>681</ele>
        <time>2016-11-27T12:35:45.000Z</time>
      </trkpt>
      <trkpt lat="46.0526" lon="4.52151">
        <ele>681</ele>
        <time>2016-11-27T12:35:46.000Z</time>
      </trkpt>
      <trkpt lat="46.05261" lon="4.52149">
        <ele>681</ele>
        <time>2016-11-27T12:35:47.000Z</time>
      </trkpt>
      <trkpt lat="46.05262" lon="4.52147">
        <ele>681</ele>
        <time>2016-11-27T12:35:48.000Z</time>
      </trkpt>
      <trkpt lat="46.05263" lon="4.52145">
        <ele>681</ele>
        <time>2016-11-27T12:35:49.000Z</time>
      </trkpt>
      <trkpt lat="46.05264" lon="4.52142">
        <ele>680</ele>
        <time>2016-11-27T12:35:50.000Z</time>
      </trkpt>
      <trkpt lat="46.05265" lon="4.5214">
        <ele>681</ele>
        <time>2016-11-27T12:35:51.000Z</time>
      </trkpt>
      <trkpt lat="46.05266" lon="4.52138">
        <ele>679</ele>
        <time>2016-11-27T12:35:52.000Z</time>
      </trkpt>
      <trkpt lat="46.05267" lon="4.52135">
        <ele>679</ele>
        <time>2016-11-27T12:35:53.000Z</time>
      </trkpt>
      <trkpt lat="46.05269" lon="4.52133">
        <ele>679</ele>
        <time>2016-11-27T12:35:54.000Z</time>
      </trkpt>
      <trkpt lat="46.05271" lon="4.5213">
        <ele>677</ele>
        <time>2016-11-27T12:35:55.000Z</time>
      </trkpt>
      <trkpt lat="46.05273" lon="4.52128">
        <ele>677</ele>
        <time>2016-11-27T12:35:56.000Z</time>
      </trkpt>
      <trkpt lat="46.05275" lon="4.52125">
        <ele>678</ele>
        <time>2016-11-27T12:35:57.000Z</time>
      </trkpt>
      <trkpt lat="46.05277" lon="4.52122">
        <ele>678</ele>
        <time>2016-11-27T12:35:58.000Z</time>
      </trkpt>
      <trkpt lat="46.05279" lon="4.5212">
        <ele>678</ele>
        <time>2016-11-27T12:35:59.000Z</time>
      </trkpt>
      <trkpt lat="46.05282" lon="4.52118">
        <ele>677</ele>
        <time>2016-11-27T12:36:00.000Z</time>
      </trkpt>
      <trkpt lat="46.05284" lon="4.52116">
        <ele>676</ele>
        <time>2016-11-27T12:36:01.000Z</time>
      </trkpt>
      <trkpt lat="46.05287" lon="4.52115">
        <ele>676</ele>
        <time>2016-11-27T12:36:02.000Z</time>
      </trkpt>
      <trkpt lat="46.0529" lon="4.52114">
        <ele>675</ele>
        <time>2016-11-27T12:36:03.000Z</time>
      </trkpt>
      <trkpt lat="46.05293" lon="4.52113">
        <ele>675</ele>
        <time>2016-11-27T12:36:04.000Z</time>
      </trkpt>
      <trkpt lat="46.05296" lon="4.52112">
        <ele>674</ele>
        <time>2016-11-27T12:36:05.000Z</time>
      </trkpt>
      <trkpt lat="46.05298" lon="4.52112">
        <ele>674</ele>
        <time>2016-11-27T12:36:06.000Z</time>
      </trkpt>
      <trkpt lat="46.053" lon="4.52112">
        <ele>672</ele>
        <time>2016-11-27T12:36:07.000Z</time>
      </trkpt>
      <trkpt lat="46.05303" lon="4.52112">
        <ele>672</ele>
        <time>2016-11-27T12:36:08.000Z</time>
      </trkpt>
      <trkpt lat="46.05306" lon="4.52112">
        <ele>672</ele>
        <time>2016-11-27T12:36:09.000Z</time>
      </trkpt>
      <trkpt lat="46.05308" lon="4.52112">
        <ele>672</ele>
        <time>2016-11-27T12:36:10.000Z</time>
      </trkpt>
      <trkpt lat="46.05311" lon="4.52112">
        <ele>671</ele>
        <time>2016-11-27T12:36:11.000Z</time>
      </trkpt>
      <trkpt lat="46.05313" lon="4.52113">
        <ele>672</ele>
        <time>2016-11-27T12:36:12.000Z</time>
      </trkpt>
      <trkpt lat="46.05314" lon="4.52114">
        <ele>672</ele>
        <time>2016-11-27T12:36:13.000Z</time>
      </trkpt>
      <trkpt lat="46.05316" lon="4.52114">
        <ele>673</ele>
        <time>2016-11-27T12:36:14.000Z</time>
      </trkpt>
      <trkpt lat="46.05317" lon="4.52115">
        <ele>673</ele>
        <time>2016-11-27T12:36:15.000Z</time>
      </trkpt>
      <trkpt lat="46.05318" lon="4.52115">
        <ele>674</ele>
        <time>2016-11-27T12:36:16.000Z</time>
      </trkpt>
      <trkpt lat="46.05319" lon="4.52116">
        <ele>674</ele>
        <time>2016-11-27T12:36:17.000Z</time>
      </trkpt>
      <trkpt lat="46.05321" lon="4.52116">
        <ele>674</ele>
        <time>2016-11-27T12:36:18.000Z</time>
      </trkpt>
      <trkpt lat="46.05322" lon="4.52117">
        <ele>674</ele>
        <time>2016-11-27T12:36:19.000Z</time>
      </trkpt>
      <trkpt lat="46.05324" lon="4.52118">
        <ele>674</ele>
        <time>2016-11-27T12:36:20.000Z</time>
      </trkpt>
      <trkpt lat="46.05326" lon="4.5212">
        <ele>674</ele>
        <time>2016-11-27T12:36:21.000Z</time>
      </trkpt>
      <trkpt lat="46.05328" lon="4.52121">
        <ele>675</ele>
        <time>2016-11-27T12:36:22.000Z</time>
      </trkpt>
      <trkpt lat="46.0533" lon="4.52123">
        <ele>675</ele>
        <time>2016-11-27T12:36:23.000Z</time>
      </trkpt>
      <trkpt lat="46.05332" lon="4.52124">
        <ele>675</ele>
        <time>2016-11-27T12:36:24.000Z</time>
      </trkpt>
      <trkpt lat="46.05335" lon="4.52125">
        <ele>674</ele>
        <time>2016-11-27T12:36:25.000Z</time>
      </trkpt>
      <trkpt lat="46.05337" lon="4.52126">
        <ele>675</ele>
        <time>2016-11-27T12:36:26.000Z</time>
      </trkpt>
      <trkpt lat="46.05339" lon="4.52128">
        <ele>674</ele>
        <time>2016-11-27T12:36:27.000Z</time>
      </trkpt>
      <trkpt lat="46.05341" lon="4.5213">
        <ele>673</ele>
        <time>2016-11-27T12:36:28.000Z</time>
      </trkpt>
      <trkpt lat="46.05344" lon="4.52132">
        <ele>672</ele>
        <time>2016-11-27T12:36:29.000Z</time>
      </trkpt>
      <trkpt lat="46.05346" lon="4.52133">
        <ele>672</ele>
        <time>2016-11-27T12:36:30.000Z</time>
      </trkpt>
      <trkpt lat="46.05348" lon="4.52134">
        <ele>672</ele>
        <time>2016-11-27T12:36:31.000Z</time>
      </trkpt>
      <trkpt lat="46.05351" lon="4.52134">
        <ele>672</ele>
        <time>2016-11-27T12:36:32.000Z</time>
      </trkpt>
      <trkpt lat="46.05353" lon="4.52135">
        <ele>671</ele>
        <time>2016-11-27T12:36:33.000Z</time>
      </trkpt>
      <trkpt lat="46.05356" lon="4.52136">
        <ele>672</ele>
        <time>2016-11-27T12:36:34.000Z</time>
      </trkpt>
      <trkpt lat="46.05359" lon="4.52137">
        <ele>670</ele>
        <time>2016-11-27T12:36:35.000Z</time>
      </trkpt>
      <trkpt lat="46.05362" lon="4.52136">
        <ele>670</ele>
        <time>2016-11-27T12:36:36.000Z</time>
      </trkpt>
      <trkpt lat="46.05364" lon="4.52135">
        <ele>670</ele>
        <time>2016-11-27T12:36:37.000Z</time>
      </trkpt>
      <trkpt lat="46.05365" lon="4.52134">
        <ele>668</ele>
        <time>2016-11-27T12:36:38.000Z</time>
      </trkpt>
      <trkpt lat="46.05367" lon="4.52132">
        <ele>667</ele>
        <time>2016-11-27T12:36:39.000Z</time>
      </trkpt>
      <trkpt lat="46.05369" lon="4.5213">
        <ele>666</ele>
        <time>2016-11-27T12:36:40.000Z</time>
      </trkpt>
      <trkpt lat="46.0537" lon="4.52128">
        <ele>665</ele>
        <time>2016-11-27T12:36:41.000Z</time>
      </trkpt>
      <trkpt lat="46.05372" lon="4.52125">
        <ele>664</ele>
        <time>2016-11-27T12:36:42.000Z</time>
      </trkpt>
      <trkpt lat="46.05373" lon="4.52122">
        <ele>660</ele>
        <time>2016-11-27T12:36:43.000Z</time>
      </trkpt>
      <trkpt lat="46.05373" lon="4.52119">
        <ele>658</ele>
        <time>2016-11-27T12:36:44.000Z</time>
      </trkpt>
      <trkpt lat="46.05373" lon="4.52117">
        <ele>657</ele>
        <time>2016-11-27T12:36:45.000Z</time>
      </trkpt>
      <trkpt lat="46.05373" lon="4.52114">
        <ele>656</ele>
        <time>2016-11-27T12:36:46.000Z</time>
      </trkpt>
      <trkpt lat="46.05373" lon="4.52112">
        <ele>654</ele>
        <time>2016-11-27T12:36:47.000Z</time>
      </trkpt>
      <trkpt lat="46.05372" lon="4.52111">
        <ele>656</ele>
        <time>2016-11-27T12:36:48.000Z</time>
      </trkpt>
      <trkpt lat="46.05372" lon="4.5211">
        <ele>657</ele>
        <time>2016-11-27T12:36:49.000Z</time>
      </trkpt>
      <trkpt lat="46.05373" lon="4.52109">
        <ele>659</ele>
        <time>2016-11-27T12:36:50.000Z</time>
      </trkpt>
      <trkpt lat="46.05373" lon="4.52108">
        <ele>659</ele>
        <time>2016-11-27T12:36:51.000Z</time>
      </trkpt>
      <trkpt lat="46.05373" lon="4.52106">
        <ele>659</ele>
        <time>2016-11-27T12:36:52.000Z</time>
      </trkpt>
      <trkpt lat="46.05373" lon="4.52104">
        <ele>658</ele>
        <time>2016-11-27T12:36:53.000Z</time>
      </trkpt>
      <trkpt lat="46.05372" lon="4.52102">
        <ele>658</ele>
        <time>2016-11-27T12:36:54.000Z</time>
      </trkpt>
      <trkpt lat="46.05371" lon="4.521">
        <ele>658</ele>
        <time>2016-11-27T12:36:55.000Z</time>
      </trkpt>
      <trkpt lat="46.0537" lon="4.52096">
        <ele>657</ele>
        <time>2016-11-27T12:36:56.000Z</time>
      </trkpt>
      <trkpt lat="46.05371" lon="4.52092">
        <ele>656</ele>
        <time>2016-11-27T12:36:57.000Z</time>
      </trkpt>
      <trkpt lat="46.05372" lon="4.52089">
        <ele>655</ele>
        <time>2016-11-27T12:36:58.000Z</time>
      </trkpt>
      <trkpt lat="46.05374" lon="4.52087">
        <ele>654</ele>
        <time>2016-11-27T12:36:59.000Z</time>
      </trkpt>
      <trkpt lat="46.05374" lon="4.52084">
        <ele>654</ele>
        <time>2016-11-27T12:37:00.000Z</time>
      </trkpt>
      <trkpt lat="46.05374" lon="4.52081">
        <ele>652</ele>
        <time>2016-11-27T12:37:01.000Z</time>
      </trkpt>
      <trkpt lat="46.05374" lon="4.52077">
        <ele>649</ele>
        <time>2016-11-27T12:37:02.000Z</time>
      </trkpt>
      <trkpt lat="46.05374" lon="4.52074">
        <ele>647</ele>
        <time>2016-11-27T12:37:03.000Z</time>
      </trkpt>
      <trkpt lat="46.05375" lon="4.52071">
        <ele>646</ele>
        <time>2016-11-27T12:37:04.000Z</time>
      </trkpt>
      <trkpt lat="46.05376" lon="4.52069">
        <ele>645</ele>
        <time>2016-11-27T12:37:05.000Z</time>
      </trkpt>
      <trkpt lat="46.05376" lon="4.52067">
        <ele>644</ele>
        <time>2016-11-27T12:37:06.000Z</time>
      </trkpt>
      <trkpt lat="46.05376" lon="4.52067">
        <ele>645</ele>
        <time>2016-11-27T12:37:07.000Z</time>
      </trkpt>
      <trkpt lat="46.05377" lon="4.52067">
        <ele>645</ele>
        <time>2016-11-27T12:37:08.000Z</time>
      </trkpt>
      <trkpt lat="46.05378" lon="4.52067">
        <ele>643</ele>
        <time>2016-11-27T12:37:09.000Z</time>
      </trkpt>
      <trkpt lat="46.05379" lon="4.52067">
        <ele>643</ele>
        <time>2016-11-27T12:37:10.000Z</time>
      </trkpt>
      <trkpt lat="46.0538" lon="4.52066">
        <ele>643</ele>
        <time>2016-11-27T12:37:11.000Z</time>
      </trkpt>
      <trkpt lat="46.05381" lon="4.52066">
        <ele>642</ele>
        <time>2016-11-27T12:37:12.000Z</time>
      </trkpt>
      <trkpt lat="46.05382" lon="4.52066">
        <ele>641</ele>
        <time>2016-11-27T12:37:13.000Z</time>
      </trkpt>
      <trkpt lat="46.05382" lon="4.52065">
        <ele>639</ele>
        <time>2016-11-27T12:37:14.000Z</time>
      </trkpt>
      <trkpt lat="46.05382" lon="4.52065">
        <ele>638</ele>
        <time>2016-11-27T12:37:15.000Z</time>
      </trkpt>
      <trkpt lat="46.05383" lon="4.52065">
        <ele>638</ele>
        <time>2016-11-27T12:37:16.000Z</time>
      </trkpt>
      <trkpt lat="46.05383" lon="4.52064">
        <ele>638</ele>
        <time>2016-11-27T12:37:17.000Z</time>
      </trkpt>
      <trkpt lat="46.05384" lon="4.52064">
        <ele>638</ele>
        <time>2016-11-27T12:37:18.000Z</time>
      </trkpt>
      <trkpt lat="46.05384" lon="4.52064">
        <ele>637</ele>
        <time>2016-11-27T12:37:19.000Z</time>
      </trkpt>
      <trkpt lat="46.05385" lon="4.52064">
        <ele>637</ele>
        <time>2016-11-27T12:37:20.000Z</time>
      </trkpt>
      <trkpt lat="46.05385" lon="4.52064">
        <ele>637</ele>
        <time>2016-11-27T12:37:21.000Z</time>
      </trkpt>
      <trkpt lat="46.05385" lon="4.52064">
        <ele>637</ele>
        <time>2016-11-27T12:37:22.000Z</time>
      </trkpt>
      <trkpt lat="46.05385" lon="4.52064">
        <ele>637</ele>
        <time>2016-11-27T12:37:23.000Z</time>
      </trkpt>
      <trkpt lat="46.05385" lon="4.52063">
        <ele>638</ele>
        <time>2016-11-27T12:37:24.000Z</time>
      </trkpt>
      <trkpt lat="46.05385" lon="4.52063">
        <ele>638</ele>
        <time>2016-11-27T12:37:25.000Z</time>
      </trkpt>
      <trkpt lat="46.05385" lon="4.52063">
        <ele>639</ele>
        <time>2016-11-27T12:37:26.000Z</time>
      </trkpt>
      <trkpt lat="46.05385" lon="4.52062">
        <ele>639</ele>
        <time>2016-11-27T12:37:27.000Z</time>
      </trkpt>
      <trkpt lat="46.05385" lon="4.52062">
        <ele>640</ele>
        <time>2016-11-27T12:37:28.000Z</time>
      </trkpt>
      <trkpt lat="46.05385" lon="4.52062">
        <ele>640</ele>
        <time>2016-11-27T12:37:29.000Z</time>
      </trkpt>
      <trkpt lat="46.05385" lon="4.52062">
        <ele>640</ele>
        <time>2016-11-27T12:37:30.000Z</time>
      </trkpt>
      <trkpt lat="46.05385" lon="4.52061">
        <ele>641</ele>
        <time>2016-11-27T12:37:31.000Z</time>
      </trkpt>
      <trkpt lat="46.05385" lon="4.52061">
        <ele>641</ele>
        <time>2016-11-27T12:37:32.000Z</time>
      </trkpt>
      <trkpt lat="46.05385" lon="4.52061">
        <ele>641</ele>
        <time>2016-11-27T12:37:33.000Z</time>
      </trkpt>
      <trkpt lat="46.05384" lon="4.52061">
        <ele>641</ele>
        <time>2016-11-27T12:37:34.000Z</time>
      </trkpt>
      <trkpt lat="46.05383" lon="4.52061">
        <ele>641</ele>
        <time>2016-11-27T12:37:35.000Z</time>
      </trkpt>
      <trkpt lat="46.05382" lon="4.52061">
        <ele>642</ele>
        <time>2016-11-27T12:37:36.000Z</time>
      </trkpt>
      <trkpt lat="46.05382" lon="4.5206">
        <ele>641</ele>
        <time>2016-11-27T12:37:37.000Z</time>
      </trkpt>
      <trkpt lat="46.05381" lon="4.5206">
        <ele>641</ele>
        <time>2016-11-27T12:37:38.000Z</time>
      </trkpt>
      <trkpt lat="46.05381" lon="4.5206">
        <ele>641</ele>
        <time>2016-11-27T12:37:39.000Z</time>
      </trkpt>
      <trkpt lat="46.0538" lon="4.5206">
        <ele>641</ele>
        <time>2016-11-27T12:37:40.000Z</time>
      </trkpt>
      <trkpt lat="46.0538" lon="4.5206">
        <ele>641</ele>
        <time>2016-11-27T12:37:41.000Z</time>
      </trkpt>
      <trkpt lat="46.0538" lon="4.5206">
        <ele>641</ele>
        <time>2016-11-27T12:37:42.000Z</time>
      </trkpt>
      <trkpt lat="46.05379" lon="4.5206">
        <ele>641</ele>
        <time>2016-11-27T12:37:43.000Z</time>
      </trkpt>
      <trkpt lat="46.05379" lon="4.5206">
        <ele>641</ele>
        <time>2016-11-27T12:37:44.000Z</time>
      </trkpt>
      <trkpt lat="46.05379" lon="4.5206">
        <ele>641</ele>
        <time>2016-11-27T12:37:45.000Z</time>
      </trkpt>
      <trkpt lat="46.05379" lon="4.5206">
        <ele>641</ele>
        <time>2016-11-27T12:37:46.000Z</time>
      </trkpt>
      <trkpt lat="46.05379" lon="4.5206">
        <ele>642</ele>
        <time>2016-11-27T12:37:47.000Z</time>
      </trkpt>
      <trkpt lat="46.05379" lon="4.5206">
        <ele>642</ele>
        <time>2016-11-27T12:37:48.000Z</time>
      </trkpt>
      <trkpt lat="46.05378" lon="4.5206">
        <ele>642</ele>
        <time>2016-11-27T12:37:49.000Z</time>
      </trkpt>
      <trkpt lat="46.05378" lon="4.5206">
        <ele>643</ele>
        <time>2016-11-27T12:37:50.000Z</time>
      </trkpt>
      <trkpt lat="46.05378" lon="4.52061">
        <ele>643</ele>
        <time>2016-11-27T12:37:51.000Z</time>
      </trkpt>
      <trkpt lat="46.05378" lon="4.52061">
        <ele>643</ele>
        <time>2016-11-27T12:37:52.000Z</time>
      </trkpt>
      <trkpt lat="46.05377" lon="4.52061">
        <ele>644</ele>
        <time>2016-11-27T12:37:53.000Z</time>
      </trkpt>
      <trkpt lat="46.05377" lon="4.52061">
        <ele>644</ele>
        <time>2016-11-27T12:37:54.000Z</time>
      </trkpt>
      <trkpt lat="46.05378" lon="4.52061">
        <ele>644</ele>
        <time>2016-11-27T12:37:55.000Z</time>
      </trkpt>
      <trkpt lat="46.05378" lon="4.52061">
        <ele>644</ele>
        <time>2016-11-27T12:37:56.000Z</time>
      </trkpt>
      <trkpt lat="46.05378" lon="4.52061">
        <ele>644</ele>
        <time>2016-11-27T12:37:57.000Z</time>
      </trkpt>
      <trkpt lat="46.05378" lon="4.52061">
        <ele>645</ele>
        <time>2016-11-27T12:37:58.000Z</time>
      </trkpt>
      <trkpt lat="46.05379" lon="4.52061">
        <ele>646</ele>
        <time>2016-11-27T12:37:59.000Z</time>
      </trkpt>
      <trkpt lat="46.05379" lon="4.52061">
        <ele>646</ele>
        <time>2016-11-27T12:38:00.000Z</time>
      </trkpt>
      <trkpt lat="46.05378" lon="4.5206">
        <ele>647</ele>
        <time>2016-11-27T12:38:01.000Z</time>
      </trkpt>
      <trkpt lat="46.05378" lon="4.5206">
        <ele>646</ele>
        <time>2016-11-27T12:38:02.000Z</time>
      </trkpt>
      <trkpt lat="46.05378" lon="4.5206">
        <ele>647</ele>
        <time>2016-11-27T12:38:03.000Z</time>
      </trkpt>
      <trkpt lat="46.05378" lon="4.5206">
        <ele>647</ele>
        <time>2016-11-27T12:38:04.000Z</time>
      </trkpt>
      <trkpt lat="46.05379" lon="4.52059">
        <ele>647</ele>
        <time>2016-11-27T12:38:05.000Z</time>
      </trkpt>
      <trkpt lat="46.05379" lon="4.52059">
        <ele>647</ele>
        <time>2016-11-27T12:38:06.000Z</time>
      </trkpt>
      <trkpt lat="46.05379" lon="4.52059">
        <ele>647</ele>
        <time>2016-11-27T12:38:07.000Z</time>
      </trkpt>
      <trkpt lat="46.05379" lon="4.52058">
        <ele>648</ele>
        <time>2016-11-27T12:38:08.000Z</time>
      </trkpt>
      <trkpt lat="46.05379" lon="4.52058">
        <ele>648</ele>
        <time>2016-11-27T12:38:09.000Z</time>
      </trkpt>
      <trkpt lat="46.05379" lon="4.52058">
        <ele>647</ele>
        <time>2016-11-27T12:38:10.000Z</time>
      </trkpt>
      <trkpt lat="46.05379" lon="4.52058">
        <ele>647</ele>
        <time>2016-11-27T12:38:11.000Z</time>
      </trkpt>
      <trkpt lat="46.05379" lon="4.52058">
        <ele>647</ele>
        <time>2016-11-27T12:38:12.000Z</time>
      </trkpt>
      <trkpt lat="46.05379" lon="4.52058">
        <ele>647</ele>
        <time>2016-11-27T12:38:13.000Z</time>
      </trkpt>
      <trkpt lat="46.05379" lon="4.52058">
        <ele>647</ele>
        <time>2016-11-27T12:38:14.000Z</time>
      </trkpt>
      <trkpt lat="46.0538" lon="4.52057">
        <ele>645</ele>
        <time>2016-11-27T12:38:15.000Z</time>
      </trkpt>
      <trkpt lat="46.0538" lon="4.52057">
        <ele>645</ele>
        <time>2016-11-27T12:38:16.000Z</time>
      </trkpt>
      <trkpt lat="46.05381" lon="4.52057">
        <ele>644</ele>
        <time>2016-11-27T12:38:17.000Z</time>
      </trkpt>
      <trkpt lat="46.05382" lon="4.52057">
        <ele>644</ele>
        <time>2016-11-27T12:38:18.000Z</time>
      </trkpt>
      <trkpt lat="46.05383" lon="4.52057">
        <ele>643</ele>
        <time>2016-11-27T12:38:19.000Z</time>
      </trkpt>
      <trkpt lat="46.05384" lon="4.52056">
        <ele>644</ele>
        <time>2016-11-27T12:38:20.000Z</time>
      </trkpt>
      <trkpt lat="46.05385" lon="4.52056">
        <ele>643</ele>
        <time>2016-11-27T12:38:21.000Z</time>
      </trkpt>
      <trkpt lat="46.05386" lon="4.52056">
        <ele>643</ele>
        <time>2016-11-27T12:38:22.000Z</time>
      </trkpt>
      <trkpt lat="46.05388" lon="4.52056">
        <ele>642</ele>
        <time>2016-11-27T12:38:23.000Z</time>
      </trkpt>
      <trkpt lat="46.05389" lon="4.52056">
        <ele>642</ele>
        <time>2016-11-27T12:38:24.000Z</time>
      </trkpt>
      <trkpt lat="46.0539" lon="4.52055">
        <ele>642</ele>
        <time>2016-11-27T12:38:25.000Z</time>
      </trkpt>
      <trkpt lat="46.05391" lon="4.52055">
        <ele>642</ele>
        <time>2016-11-27T12:38:26.000Z</time>
      </trkpt>
      <trkpt lat="46.05392" lon="4.52055">
        <ele>643</ele>
        <time>2016-11-27T12:38:27.000Z</time>
      </trkpt>
      <trkpt lat="46.05393" lon="4.52055">
        <ele>644</ele>
        <time>2016-11-27T12:38:28.000Z</time>
      </trkpt>
      <trkpt lat="46.05394" lon="4.52055">
        <ele>644</ele>
        <time>2016-11-27T12:38:29.000Z</time>
      </trkpt>
      <trkpt lat="46.05395" lon="4.52055">
        <ele>643</ele>
        <time>2016-11-27T12:38:30.000Z</time>
      </trkpt>
      <trkpt lat="46.05396" lon="4.52055">
        <ele>643</ele>
        <time>2016-11-27T12:38:31.000Z</time>
      </trkpt>
      <trkpt lat="46.05398" lon="4.52056">
        <ele>644</ele>
        <time>2016-11-27T12:38:32.000Z</time>
      </trkpt>
      <trkpt lat="46.05399" lon="4.52056">
        <ele>643</ele>
        <time>2016-11-27T12:38:33.000Z</time>
      </trkpt>
      <trkpt lat="46.05401" lon="4.52056">
        <ele>645</ele>
        <time>2016-11-27T12:38:34.000Z</time>
      </trkpt>
      <trkpt lat="46.05402" lon="4.52055">
        <ele>646</ele>
        <time>2016-11-27T12:38:35.000Z</time>
      </trkpt>
      <trkpt lat="46.05403" lon="4.52055">
        <ele>647</ele>
        <time>2016-11-27T12:38:36.000Z</time>
      </trkpt>
      <trkpt lat="46.05404" lon="4.52056">
        <ele>648</ele>
        <time>2016-11-27T12:38:37.000Z</time>
      </trkpt>
      <trkpt lat="46.05405" lon="4.52056">
        <ele>650</ele>
        <time>2016-11-27T12:38:38.000Z</time>
      </trkpt>
      <trkpt lat="46.05405" lon="4.52057">
        <ele>653</ele>
        <time>2016-11-27T12:38:39.000Z</time>
      </trkpt>
      <trkpt lat="46.05406" lon="4.52057">
        <ele>654</ele>
        <time>2016-11-27T12:38:40.000Z</time>
      </trkpt>
      <trkpt lat="46.05407" lon="4.52057">
        <ele>655</ele>
        <time>2016-11-27T12:38:41.000Z</time>
      </trkpt>
      <trkpt lat="46.05408" lon="4.52057">
        <ele>655</ele>
        <time>2016-11-27T12:38:42.000Z</time>
      </trkpt>
      <trkpt lat="46.05409" lon="4.52057">
        <ele>655</ele>
        <time>2016-11-27T12:38:43.000Z</time>
      </trkpt>
      <trkpt lat="46.0541" lon="4.52057">
        <ele>655</ele>
        <time>2016-11-27T12:38:44.000Z</time>
      </trkpt>
      <trkpt lat="46.05412" lon="4.52057">
        <ele>655</ele>
        <time>2016-11-27T12:38:45.000Z</time>
      </trkpt>
      <trkpt lat="46.05412" lon="4.52057">
        <ele>655</ele>
        <time>2016-11-27T12:38:46.000Z</time>
      </trkpt>
      <trkpt lat="46.05413" lon="4.52056">
        <ele>656</ele>
        <time>2016-11-27T12:38:47.000Z</time>
      </trkpt>
      <trkpt lat="46.05414" lon="4.52056">
        <ele>657</ele>
        <time>2016-11-27T12:38:48.000Z</time>
      </trkpt>
      <trkpt lat="46.05415" lon="4.52056">
        <ele>657</ele>
        <time>2016-11-27T12:38:49.000Z</time>
      </trkpt>
      <trkpt lat="46.05416" lon="4.52055">
        <ele>658</ele>
        <time>2016-11-27T12:38:50.000Z</time>
      </trkpt>
      <trkpt lat="46.05417" lon="4.52054">
        <ele>658</ele>
        <time>2016-11-27T12:38:51.000Z</time>
      </trkpt>
      <trkpt lat="46.05418" lon="4.52054">
        <ele>658</ele>
        <time>2016-11-27T12:38:52.000Z</time>
      </trkpt>
      <trkpt lat="46.0542" lon="4.52054">
        <ele>660</ele>
        <time>2016-11-27T12:38:53.000Z</time>
      </trkpt>
      <trkpt lat="46.05421" lon="4.52053">
        <ele>661</ele>
        <time>2016-11-27T12:38:54.000Z</time>
      </trkpt>
      <trkpt lat="46.05421" lon="4.52053">
        <ele>662</ele>
        <time>2016-11-27T12:38:55.000Z</time>
      </trkpt>
      <trkpt lat="46.05422" lon="4.52053">
        <ele>663</ele>
        <time>2016-11-27T12:38:56.000Z</time>
      </trkpt>
      <trkpt lat="46.05423" lon="4.52053">
        <ele>664</ele>
        <time>2016-11-27T12:38:57.000Z</time>
      </trkpt>
      <trkpt lat="46.05424" lon="4.52053">
        <ele>663</ele>
        <time>2016-11-27T12:38:58.000Z</time>
      </trkpt>
      <trkpt lat="46.05425" lon="4.52053">
        <ele>664</ele>
        <time>2016-11-27T12:38:59.000Z</time>
      </trkpt>
      <trkpt lat="46.05425" lon="4.52053">
        <ele>665</ele>
        <time>2016-11-27T12:39:00.000Z</time>
      </trkpt>
      <trkpt lat="46.05426" lon="4.52052">
        <ele>665</ele>
        <time>2016-11-27T12:39:01.000Z</time>
      </trkpt>
      <trkpt lat="46.05427" lon="4.52053">
        <ele>666</ele>
        <time>2016-11-27T12:39:02.000Z</time>
      </trkpt>
      <trkpt lat="46.05428" lon="4.52053">
        <ele>665</ele>
        <time>2016-11-27T12:39:03.000Z</time>
      </trkpt>
      <trkpt lat="46.0543" lon="4.52053">
        <ele>666</ele>
        <time>2016-11-27T12:39:04.000Z</time>
      </trkpt>
      <trkpt lat="46.05431" lon="4.52053">
        <ele>666</ele>
        <time>2016-11-27T12:39:05.000Z</time>
      </trkpt>
      <trkpt lat="46.05432" lon="4.52053">
        <ele>666</ele>
        <time>2016-11-27T12:39:06.000Z</time>
      </trkpt>
      <trkpt lat="46.05434" lon="4.52052">
        <ele>667</ele>
        <time>2016-11-27T12:39:07.000Z</time>
      </trkpt>
      <trkpt lat="46.05435" lon="4.52052">
        <ele>667</ele>
        <time>2016-11-27T12:39:08.000Z</time>
      </trkpt>
      <trkpt lat="46.05436" lon="4.52051">
        <ele>667</ele>
        <time>2016-11-27T12:39:09.000Z</time>
      </trkpt>
      <trkpt lat="46.05437" lon="4.5205">
        <ele>667</ele>
        <time>2016-11-27T12:39:10.000Z</time>
      </trkpt>
      <trkpt lat="46.05438" lon="4.5205">
        <ele>667</ele>
        <time>2016-11-27T12:39:11.000Z</time>
      </trkpt>
      <trkpt lat="46.05439" lon="4.52049">
        <ele>667</ele>
        <time>2016-11-27T12:39:12.000Z</time>
      </trkpt>
      <trkpt lat="46.05441" lon="4.52048">
        <ele>668</ele>
        <time>2016-11-27T12:39:13.000Z</time>
      </trkpt>
      <trkpt lat="46.05442" lon="4.52048">
        <ele>667</ele>
        <time>2016-11-27T12:39:14.000Z</time>
      </trkpt>
      <trkpt lat="46.05442" lon="4.52047">
        <ele>667</ele>
        <time>2016-11-27T12:39:15.000Z</time>
      </trkpt>
      <trkpt lat="46.05443" lon="4.52047">
        <ele>667</ele>
        <time>2016-11-27T12:39:16.000Z</time>
      </trkpt>
      <trkpt lat="46.05444" lon="4.52047">
        <ele>668</ele>
        <time>2016-11-27T12:39:17.000Z</time>
      </trkpt>
      <trkpt lat="46.05445" lon="4.52047">
        <ele>668</ele>
        <time>2016-11-27T12:39:18.000Z</time>
      </trkpt>
      <trkpt lat="46.05445" lon="4.52046">
        <ele>668</ele>
        <time>2016-11-27T12:39:19.000Z</time>
      </trkpt>
      <trkpt lat="46.05446" lon="4.52046">
        <ele>667</ele>
        <time>2016-11-27T12:39:20.000Z</time>
      </trkpt>
      <trkpt lat="46.05446" lon="4.52045">
        <ele>666</ele>
        <time>2016-11-27T12:39:21.000Z</time>
      </trkpt>
      <trkpt lat="46.05447" lon="4.52045">
        <ele>666</ele>
        <time>2016-11-27T12:39:22.000Z</time>
      </trkpt>
      <trkpt lat="46.05448" lon="4.52045">
        <ele>666</ele>
        <time>2016-11-27T12:39:23.000Z</time>
      </trkpt>
      <trkpt lat="46.05448" lon="4.52045">
        <ele>666</ele>
        <time>2016-11-27T12:39:24.000Z</time>
      </trkpt>
      <trkpt lat="46.0545" lon="4.52044">
        <ele>665</ele>
        <time>2016-11-27T12:39:25.000Z</time>
      </trkpt>
      <trkpt lat="46.0545" lon="4.52043">
        <ele>665</ele>
        <time>2016-11-27T12:39:26.000Z</time>
      </trkpt>
      <trkpt lat="46.05451" lon="4.52043">
        <ele>666</ele>
        <time>2016-11-27T12:39:27.000Z</time>
      </trkpt>
      <trkpt lat="46.05451" lon="4.52043">
        <ele>666</ele>
        <time>2016-11-27T12:39:28.000Z</time>
      </trkpt>
      <trkpt lat="46.05452" lon="4.52044">
        <ele>664</ele>
        <time>2016-11-27T12:39:29.000Z</time>
      </trkpt>
      <trkpt lat="46.05452" lon="4.52044">
        <ele>664</ele>
        <time>2016-11-27T12:39:30.000Z</time>
      </trkpt>
      <trkpt lat="46.05453" lon="4.52044">
        <ele>664</ele>
        <time>2016-11-27T12:39:31.000Z</time>
      </trkpt>
      <trkpt lat="46.05453" lon="4.52044">
        <ele>665</ele>
        <time>2016-11-27T12:39:32.000Z</time>
      </trkpt>
      <trkpt lat="46.05454" lon="4.52043">
        <ele>664</ele>
        <time>2016-11-27T12:39:33.000Z</time>
      </trkpt>
      <trkpt lat="46.05454" lon="4.52043">
        <ele>664</ele>
        <time>2016-11-27T12:39:34.000Z</time>
      </trkpt>
      <trkpt lat="46.05455" lon="4.52042">
        <ele>664</ele>
        <time>2016-11-27T12:39:35.000Z</time>
      </trkpt>
      <trkpt lat="46.05456" lon="4.52042">
        <ele>664</ele>
        <time>2016-11-27T12:39:36.000Z</time>
      </trkpt>
      <trkpt lat="46.05457" lon="4.52041">
        <ele>663</ele>
        <time>2016-11-27T12:39:37.000Z</time>
      </trkpt>
      <trkpt lat="46.05457" lon="4.52041">
        <ele>663</ele>
        <time>2016-11-27T12:39:38.000Z</time>
      </trkpt>
      <trkpt lat="46.05458" lon="4.5204">
        <ele>663</ele>
        <time>2016-11-27T12:39:39.000Z</time>
      </trkpt>
      <trkpt lat="46.05459" lon="4.5204">
        <ele>662</ele>
        <time>2016-11-27T12:39:40.000Z</time>
      </trkpt>
      <trkpt lat="46.0546" lon="4.52039">
        <ele>662</ele>
        <time>2016-11-27T12:39:41.000Z</time>
      </trkpt>
      <trkpt lat="46.05461" lon="4.52039">
        <ele>662</ele>
        <time>2016-11-27T12:39:42.000Z</time>
      </trkpt>
      <trkpt lat="46.05462" lon="4.52038">
        <ele>662</ele>
        <time>2016-11-27T12:39:43.000Z</time>
      </trkpt>
      <trkpt lat="46.05463" lon="4.52038">
        <ele>662</ele>
        <time>2016-11-27T12:39:44.000Z</time>
      </trkpt>
      <trkpt lat="46.05464" lon="4.52038">
        <ele>662</ele>
        <time>2016-11-27T12:39:45.000Z</time>
      </trkpt>
      <trkpt lat="46.05465" lon="4.52039">
        <ele>662</ele>
        <time>2016-11-27T12:39:46.000Z</time>
      </trkpt>
      <trkpt lat="46.05465" lon="4.52039">
        <ele>662</ele>
        <time>2016-11-27T12:39:47.000Z</time>
      </trkpt>
      <trkpt lat="46.05466" lon="4.52039">
        <ele>662</ele>
        <time>2016-11-27T12:39:48.000Z</time>
      </trkpt>
      <trkpt lat="46.05466" lon="4.52039">
        <ele>662</ele>
        <time>2016-11-27T12:39:49.000Z</time>
      </trkpt>
      <trkpt lat="46.05466" lon="4.52039">
        <ele>663</ele>
        <time>2016-11-27T12:39:50.000Z</time>
      </trkpt>
      <trkpt lat="46.05467" lon="4.52039">
        <ele>662</ele>
        <time>2016-11-27T12:39:51.000Z</time>
      </trkpt>
      <trkpt lat="46.05467" lon="4.52039">
        <ele>662</ele>
        <time>2016-11-27T12:39:52.000Z</time>
      </trkpt>
      <trkpt lat="46.05467" lon="4.52039">
        <ele>661</ele>
        <time>2016-11-27T12:39:53.000Z</time>
      </trkpt>
      <trkpt lat="46.05467" lon="4.52039">
        <ele>661</ele>
        <time>2016-11-27T12:39:54.000Z</time>
      </trkpt>
      <trkpt lat="46.05467" lon="4.52039">
        <ele>662</ele>
        <time>2016-11-27T12:39:55.000Z</time>
      </trkpt>
      <trkpt lat="46.05467" lon="4.52039">
        <ele>662</ele>
        <time>2016-11-27T12:39:56.000Z</time>
      </trkpt>
      <trkpt lat="46.05468" lon="4.52039">
        <ele>664</ele>
        <time>2016-11-27T12:39:57.000Z</time>
      </trkpt>
      <trkpt lat="46.05468" lon="4.52039">
        <ele>665</ele>
        <time>2016-11-27T12:39:58.000Z</time>
      </trkpt>
      <trkpt lat="46.05469" lon="4.52039">
        <ele>665</ele>
        <time>2016-11-27T12:39:59.000Z</time>
      </trkpt>
      <trkpt lat="46.05469" lon="4.52038">
        <ele>665</ele>
        <time>2016-11-27T12:40:00.000Z</time>
      </trkpt>
      <trkpt lat="46.05471" lon="4.52038">
        <ele>665</ele>
        <time>2016-11-27T12:40:01.000Z</time>
      </trkpt>
      <trkpt lat="46.05472" lon="4.52037">
        <ele>666</ele>
        <time>2016-11-27T12:40:02.000Z</time>
      </trkpt>
      <trkpt lat="46.05473" lon="4.52036">
        <ele>665</ele>
        <time>2016-11-27T12:40:03.000Z</time>
      </trkpt>
      <trkpt lat="46.05473" lon="4.52034">
        <ele>665</ele>
        <time>2016-11-27T12:40:04.000Z</time>
      </trkpt>
      <trkpt lat="46.05474" lon="4.52033">
        <ele>664</ele>
        <time>2016-11-27T12:40:05.000Z</time>
      </trkpt>
      <trkpt lat="46.05474" lon="4.52032">
        <ele>664</ele>
        <time>2016-11-27T12:40:06.000Z</time>
      </trkpt>
      <trkpt lat="46.05474" lon="4.52031">
        <ele>664</ele>
        <time>2016-11-27T12:40:07.000Z</time>
      </trkpt>
      <trkpt lat="46.05474" lon="4.52031">
        <ele>664</ele>
        <time>2016-11-27T12:40:08.000Z</time>
      </trkpt>
      <trkpt lat="46.05475" lon="4.5203">
        <ele>664</ele>
        <time>2016-11-27T12:40:09.000Z</time>
      </trkpt>
      <trkpt lat="46.05475" lon="4.52029">
        <ele>663</ele>
        <time>2016-11-27T12:40:10.000Z</time>
      </trkpt>
      <trkpt lat="46.05476" lon="4.52028">
        <ele>663</ele>
        <time>2016-11-27T12:40:11.000Z</time>
      </trkpt>
      <trkpt lat="46.05478" lon="4.52027">
        <ele>662</ele>
        <time>2016-11-27T12:40:12.000Z</time>
      </trkpt>
      <trkpt lat="46.0548" lon="4.52026">
        <ele>662</ele>
        <time>2016-11-27T12:40:13.000Z</time>
      </trkpt>
      <trkpt lat="46.05482" lon="4.52025">
        <ele>662</ele>
        <time>2016-11-27T12:40:14.000Z</time>
      </trkpt>
      <trkpt lat="46.05483" lon="4.52023">
        <ele>662</ele>
        <time>2016-11-27T12:40:15.000Z</time>
      </trkpt>
      <trkpt lat="46.05484" lon="4.52022">
        <ele>662</ele>
        <time>2016-11-27T12:40:16.000Z</time>
      </trkpt>
      <trkpt lat="46.05486" lon="4.52021">
        <ele>661</ele>
        <time>2016-11-27T12:40:17.000Z</time>
      </trkpt>
      <trkpt lat="46.05487" lon="4.5202">
        <ele>661</ele>
        <time>2016-11-27T12:40:18.000Z</time>
      </trkpt>
      <trkpt lat="46.05488" lon="4.52019">
        <ele>660</ele>
        <time>2016-11-27T12:40:19.000Z</time>
      </trkpt>
      <trkpt lat="46.05489" lon="4.52018">
        <ele>659</ele>
        <time>2016-11-27T12:40:20.000Z</time>
      </trkpt>
      <trkpt lat="46.0549" lon="4.52016">
        <ele>658</ele>
        <time>2016-11-27T12:40:21.000Z</time>
      </trkpt>
      <trkpt lat="46.05491" lon="4.52015">
        <ele>658</ele>
        <time>2016-11-27T12:40:22.000Z</time>
      </trkpt>
      <trkpt lat="46.05492" lon="4.52013">
        <ele>657</ele>
        <time>2016-11-27T12:40:23.000Z</time>
      </trkpt>
      <trkpt lat="46.05493" lon="4.52011">
        <ele>657</ele>
        <time>2016-11-27T12:40:24.000Z</time>
      </trkpt>
      <trkpt lat="46.05494" lon="4.5201">
        <ele>655</ele>
        <time>2016-11-27T12:40:25.000Z</time>
      </trkpt>
      <trkpt lat="46.05495" lon="4.52008">
        <ele>654</ele>
        <time>2016-11-27T12:40:26.000Z</time>
      </trkpt>
      <trkpt lat="46.05496" lon="4.52007">
        <ele>654</ele>
        <time>2016-11-27T12:40:27.000Z</time>
      </trkpt>
      <trkpt lat="46.05497" lon="4.52005">
        <ele>653</ele>
        <time>2016-11-27T12:40:28.000Z</time>
      </trkpt>
      <trkpt lat="46.05497" lon="4.52004">
        <ele>653</ele>
        <time>2016-11-27T12:40:29.000Z</time>
      </trkpt>
      <trkpt lat="46.05498" lon="4.52002">
        <ele>651</ele>
        <time>2016-11-27T12:40:30.000Z</time>
      </trkpt>
      <trkpt lat="46.05499" lon="4.52001">
        <ele>651</ele>
        <time>2016-11-27T12:40:31.000Z</time>
      </trkpt>
      <trkpt lat="46.05499" lon="4.51999">
        <ele>651</ele>
        <time>2016-11-27T12:40:32.000Z</time>
      </trkpt>
      <trkpt lat="46.055" lon="4.51997">
        <ele>651</ele>
        <time>2016-11-27T12:40:33.000Z</time>
      </trkpt>
      <trkpt lat="46.055" lon="4.51996">
        <ele>652</ele>
        <time>2016-11-27T12:40:34.000Z</time>
      </trkpt>
      <trkpt lat="46.05501" lon="4.51994">
        <ele>650</ele>
        <time>2016-11-27T12:40:35.000Z</time>
      </trkpt>
      <trkpt lat="46.05501" lon="4.51993">
        <ele>650</ele>
        <time>2016-11-27T12:40:36.000Z</time>
      </trkpt>
      <trkpt lat="46.05502" lon="4.51991">
        <ele>649</ele>
        <time>2016-11-27T12:40:37.000Z</time>
      </trkpt>
      <trkpt lat="46.05502" lon="4.51989">
        <ele>650</ele>
        <time>2016-11-27T12:40:38.000Z</time>
      </trkpt>
      <trkpt lat="46.05503" lon="4.51987">
        <ele>650</ele>
        <time>2016-11-27T12:40:39.000Z</time>
      </trkpt>
      <trkpt lat="46.05504" lon="4.51985">
        <ele>650</ele>
        <time>2016-11-27T12:40:40.000Z</time>
      </trkpt>
      <trkpt lat="46.05505" lon="4.51982">
        <ele>649</ele>
        <time>2016-11-27T12:40:41.000Z</time>
      </trkpt>
      <trkpt lat="46.05505" lon="4.5198">
        <ele>649</ele>
        <time>2016-11-27T12:40:42.000Z</time>
      </trkpt>
      <trkpt lat="46.05505" lon="4.51978">
        <ele>650</ele>
        <time>2016-11-27T12:40:43.000Z</time>
      </trkpt>
      <trkpt lat="46.05506" lon="4.51976">
        <ele>650</ele>
        <time>2016-11-27T12:40:44.000Z</time>
      </trkpt>
      <trkpt lat="46.05506" lon="4.51974">
        <ele>649</ele>
        <time>2016-11-27T12:40:45.000Z</time>
      </trkpt>
      <trkpt lat="46.05506" lon="4.51973">
        <ele>648</ele>
        <time>2016-11-27T12:40:46.000Z</time>
      </trkpt>
      <trkpt lat="46.05507" lon="4.5197">
        <ele>648</ele>
        <time>2016-11-27T12:40:47.000Z</time>
      </trkpt>
      <trkpt lat="46.05507" lon="4.51968">
        <ele>648</ele>
        <time>2016-11-27T12:40:48.000Z</time>
      </trkpt>
      <trkpt lat="46.05507" lon="4.51966">
        <ele>648</ele>
        <time>2016-11-27T12:40:49.000Z</time>
      </trkpt>
      <trkpt lat="46.05507" lon="4.51964">
        <ele>648</ele>
        <time>2016-11-27T12:40:50.000Z</time>
      </trkpt>
      <trkpt lat="46.05508" lon="4.51962">
        <ele>648</ele>
        <time>2016-11-27T12:40:51.000Z</time>
      </trkpt>
      <trkpt lat="46.05509" lon="4.51961">
        <ele>647</ele>
        <time>2016-11-27T12:40:52.000Z</time>
      </trkpt>
      <trkpt lat="46.0551" lon="4.51959">
        <ele>646</ele>
        <time>2016-11-27T12:40:53.000Z</time>
      </trkpt>
      <trkpt lat="46.05511" lon="4.51957">
        <ele>646</ele>
        <time>2016-11-27T12:40:54.000Z</time>
      </trkpt>
      <trkpt lat="46.05512" lon="4.51955">
        <ele>646</ele>
        <time>2016-11-27T12:40:55.000Z</time>
      </trkpt>
      <trkpt lat="46.05513" lon="4.51953">
        <ele>646</ele>
        <time>2016-11-27T12:40:56.000Z</time>
      </trkpt>
      <trkpt lat="46.05514" lon="4.51951">
        <ele>644</ele>
        <time>2016-11-27T12:40:57.000Z</time>
      </trkpt>
      <trkpt lat="46.05515" lon="4.51949">
        <ele>644</ele>
        <time>2016-11-27T12:40:58.000Z</time>
      </trkpt>
      <trkpt lat="46.05515" lon="4.51947">
        <ele>643</ele>
        <time>2016-11-27T12:40:59.000Z</time>
      </trkpt>
      <trkpt lat="46.05516" lon="4.51945">
        <ele>643</ele>
        <time>2016-11-27T12:41:00.000Z</time>
      </trkpt>
      <trkpt lat="46.05517" lon="4.51943">
        <ele>643</ele>
        <time>2016-11-27T12:41:01.000Z</time>
      </trkpt>
      <trkpt lat="46.05517" lon="4.51941">
        <ele>643</ele>
        <time>2016-11-27T12:41:02.000Z</time>
      </trkpt>
      <trkpt lat="46.05517" lon="4.51939">
        <ele>643</ele>
        <time>2016-11-27T12:41:03.000Z</time>
      </trkpt>
      <trkpt lat="46.05518" lon="4.51937">
        <ele>643</ele>
        <time>2016-11-27T12:41:04.000Z</time>
      </trkpt>
      <trkpt lat="46.05518" lon="4.51936">
        <ele>642</ele>
        <time>2016-11-27T12:41:05.000Z</time>
      </trkpt>
      <trkpt lat="46.05519" lon="4.51934">
        <ele>642</ele>
        <time>2016-11-27T12:41:06.000Z</time>
      </trkpt>
      <trkpt lat="46.05519" lon="4.51933">
        <ele>642</ele>
        <time>2016-11-27T12:41:07.000Z</time>
      </trkpt>
      <trkpt lat="46.0552" lon="4.51931">
        <ele>641</ele>
        <time>2016-11-27T12:41:08.000Z</time>
      </trkpt>
      <trkpt lat="46.0552" lon="4.51929">
        <ele>641</ele>
        <time>2016-11-27T12:41:09.000Z</time>
      </trkpt>
      <trkpt lat="46.05521" lon="4.51927">
        <ele>640</ele>
        <time>2016-11-27T12:41:10.000Z</time>
      </trkpt>
      <trkpt lat="46.05522" lon="4.51926">
        <ele>640</ele>
        <time>2016-11-27T12:41:11.000Z</time>
      </trkpt>
      <trkpt lat="46.05522" lon="4.51924">
        <ele>640</ele>
        <time>2016-11-27T12:41:12.000Z</time>
      </trkpt>
      <trkpt lat="46.05524" lon="4.51922">
        <ele>639</ele>
        <time>2016-11-27T12:41:13.000Z</time>
      </trkpt>
      <trkpt lat="46.05525" lon="4.5192">
        <ele>639</ele>
        <time>2016-11-27T12:41:14.000Z</time>
      </trkpt>
      <trkpt lat="46.05527" lon="4.51918">
        <ele>639</ele>
        <time>2016-11-27T12:41:15.000Z</time>
      </trkpt>
      <trkpt lat="46.05527" lon="4.51916">
        <ele>639</ele>
        <time>2016-11-27T12:41:16.000Z</time>
      </trkpt>
      <trkpt lat="46.05528" lon="4.51914">
        <ele>639</ele>
        <time>2016-11-27T12:41:17.000Z</time>
      </trkpt>
      <trkpt lat="46.05528" lon="4.51911">
        <ele>639</ele>
        <time>2016-11-27T12:41:18.000Z</time>
      </trkpt>
      <trkpt lat="46.05529" lon="4.51909">
        <ele>638</ele>
        <time>2016-11-27T12:41:19.000Z</time>
      </trkpt>
      <trkpt lat="46.05529" lon="4.51907">
        <ele>637</ele>
        <time>2016-11-27T12:41:20.000Z</time>
      </trkpt>
      <trkpt lat="46.0553" lon="4.51905">
        <ele>636</ele>
        <time>2016-11-27T12:41:21.000Z</time>
      </trkpt>
      <trkpt lat="46.0553" lon="4.51903">
        <ele>635</ele>
        <time>2016-11-27T12:41:22.000Z</time>
      </trkpt>
      <trkpt lat="46.05531" lon="4.51901">
        <ele>634</ele>
        <time>2016-11-27T12:41:23.000Z</time>
      </trkpt>
      <trkpt lat="46.05532" lon="4.51899">
        <ele>634</ele>
        <time>2016-11-27T12:41:24.000Z</time>
      </trkpt>
      <trkpt lat="46.05532" lon="4.51897">
        <ele>633</ele>
        <time>2016-11-27T12:41:25.000Z</time>
      </trkpt>
      <trkpt lat="46.05533" lon="4.51895">
        <ele>633</ele>
        <time>2016-11-27T12:41:26.000Z</time>
      </trkpt>
      <trkpt lat="46.05533" lon="4.51892">
        <ele>632</ele>
        <time>2016-11-27T12:41:27.000Z</time>
      </trkpt>
      <trkpt lat="46.05534" lon="4.5189">
        <ele>632</ele>
        <time>2016-11-27T12:41:28.000Z</time>
      </trkpt>
      <trkpt lat="46.05534" lon="4.51887">
        <ele>633</ele>
        <time>2016-11-27T12:41:29.000Z</time>
      </trkpt>
      <trkpt lat="46.05535" lon="4.51885">
        <ele>633</ele>
        <time>2016-11-27T12:41:30.000Z</time>
      </trkpt>
      <trkpt lat="46.05536" lon="4.51882">
        <ele>633</ele>
        <time>2016-11-27T12:41:31.000Z</time>
      </trkpt>
      <trkpt lat="46.05536" lon="4.5188">
        <ele>633</ele>
        <time>2016-11-27T12:41:32.000Z</time>
      </trkpt>
      <trkpt lat="46.05537" lon="4.51878">
        <ele>633</ele>
        <time>2016-11-27T12:41:33.000Z</time>
      </trkpt>
      <trkpt lat="46.05537" lon="4.51875">
        <ele>633</ele>
        <time>2016-11-27T12:41:34.000Z</time>
      </trkpt>
      <trkpt lat="46.05538" lon="4.51873">
        <ele>634</ele>
        <time>2016-11-27T12:41:35.000Z</time>
      </trkpt>
      <trkpt lat="46.05538" lon="4.5187">
        <ele>634</ele>
        <time>2016-11-27T12:41:36.000Z</time>
      </trkpt>
      <trkpt lat="46.05539" lon="4.51867">
        <ele>634</ele>
        <time>2016-11-27T12:41:37.000Z</time>
      </trkpt>
      <trkpt lat="46.05539" lon="4.51865">
        <ele>634</ele>
        <time>2016-11-27T12:41:38.000Z</time>
      </trkpt>
      <trkpt lat="46.0554" lon="4.51862">
        <ele>634</ele>
        <time>2016-11-27T12:41:39.000Z</time>
      </trkpt>
      <trkpt lat="46.05541" lon="4.51859">
        <ele>634</ele>
        <time>2016-11-27T12:41:40.000Z</time>
      </trkpt>
      <trkpt lat="46.05541" lon="4.51857">
        <ele>633</ele>
        <time>2016-11-27T12:41:41.000Z</time>
      </trkpt>
      <trkpt lat="46.05542" lon="4.51854">
        <ele>634</ele>
        <time>2016-11-27T12:41:42.000Z</time>
      </trkpt>
      <trkpt lat="46.05543" lon="4.51851">
        <ele>634</ele>
        <time>2016-11-27T12:41:43.000Z</time>
      </trkpt>
      <trkpt lat="46.05544" lon="4.51849">
        <ele>634</ele>
        <time>2016-11-27T12:41:44.000Z</time>
      </trkpt>
      <trkpt lat="46.05545" lon="4.51848">
        <ele>634</ele>
        <time>2016-11-27T12:41:45.000Z</time>
      </trkpt>
      <trkpt lat="46.05546" lon="4.51846">
        <ele>632</ele>
        <time>2016-11-27T12:41:46.000Z</time>
      </trkpt>
      <trkpt lat="46.05547" lon="4.51844">
        <ele>632</ele>
        <time>2016-11-27T12:41:47.000Z</time>
      </trkpt>
      <trkpt lat="46.05548" lon="4.51842">
        <ele>631</ele>
        <time>2016-11-27T12:41:48.000Z</time>
      </trkpt>
      <trkpt lat="46.05549" lon="4.51839">
        <ele>630</ele>
        <time>2016-11-27T12:41:49.000Z</time>
      </trkpt>
      <trkpt lat="46.0555" lon="4.51837">
        <ele>630</ele>
        <time>2016-11-27T12:41:50.000Z</time>
      </trkpt>
      <trkpt lat="46.05551" lon="4.51835">
        <ele>630</ele>
        <time>2016-11-27T12:41:51.000Z</time>
      </trkpt>
      <trkpt lat="46.05551" lon="4.51833">
        <ele>629</ele>
        <time>2016-11-27T12:41:52.000Z</time>
      </trkpt>
      <trkpt lat="46.05552" lon="4.5183">
        <ele>629</ele>
        <time>2016-11-27T12:41:53.000Z</time>
      </trkpt>
      <trkpt lat="46.05553" lon="4.51828">
        <ele>629</ele>
        <time>2016-11-27T12:41:54.000Z</time>
      </trkpt>
      <trkpt lat="46.05553" lon="4.51827">
        <ele>628</ele>
        <time>2016-11-27T12:41:55.000Z</time>
      </trkpt>
      <trkpt lat="46.05554" lon="4.51825">
        <ele>628</ele>
        <time>2016-11-27T12:41:56.000Z</time>
      </trkpt>
      <trkpt lat="46.05555" lon="4.51823">
        <ele>628</ele>
        <time>2016-11-27T12:41:57.000Z</time>
      </trkpt>
      <trkpt lat="46.05555" lon="4.51821">
        <ele>628</ele>
        <time>2016-11-27T12:41:58.000Z</time>
      </trkpt>
      <trkpt lat="46.05556" lon="4.51819">
        <ele>628</ele>
        <time>2016-11-27T12:41:59.000Z</time>
      </trkpt>
      <trkpt lat="46.05557" lon="4.51817">
        <ele>628</ele>
        <time>2016-11-27T12:42:00.000Z</time>
      </trkpt>
      <trkpt lat="46.05557" lon="4.51815">
        <ele>627</ele>
        <time>2016-11-27T12:42:01.000Z</time>
      </trkpt>
      <trkpt lat="46.05558" lon="4.51813">
        <ele>627</ele>
        <time>2016-11-27T12:42:02.000Z</time>
      </trkpt>
      <trkpt lat="46.05559" lon="4.51812">
        <ele>627</ele>
        <time>2016-11-27T12:42:03.000Z</time>
      </trkpt>
      <trkpt lat="46.0556" lon="4.5181">
        <ele>627</ele>
        <time>2016-11-27T12:42:04.000Z</time>
      </trkpt>
      <trkpt lat="46.05561" lon="4.51808">
        <ele>627</ele>
        <time>2016-11-27T12:42:05.000Z</time>
      </trkpt>
      <trkpt lat="46.05562" lon="4.51806">
        <ele>627</ele>
        <time>2016-11-27T12:42:06.000Z</time>
      </trkpt>
      <trkpt lat="46.05563" lon="4.51805">
        <ele>627</ele>
        <time>2016-11-27T12:42:07.000Z</time>
      </trkpt>
      <trkpt lat="46.05564" lon="4.51803">
        <ele>627</ele>
        <time>2016-11-27T12:42:08.000Z</time>
      </trkpt>
      <trkpt lat="46.05565" lon="4.51801">
        <ele>629</ele>
        <time>2016-11-27T12:42:09.000Z</time>
      </trkpt>
      <trkpt lat="46.05566" lon="4.51799">
        <ele>630</ele>
        <time>2016-11-27T12:42:10.000Z</time>
      </trkpt>
      <trkpt lat="46.05567" lon="4.51798">
        <ele>631</ele>
        <time>2016-11-27T12:42:11.000Z</time>
      </trkpt>
      <trkpt lat="46.05568" lon="4.51797">
        <ele>631</ele>
        <time>2016-11-27T12:42:12.000Z</time>
      </trkpt>
      <trkpt lat="46.05568" lon="4.51796">
        <ele>633</ele>
        <time>2016-11-27T12:42:13.000Z</time>
      </trkpt>
      <trkpt lat="46.05569" lon="4.51794">
        <ele>634</ele>
        <time>2016-11-27T12:42:14.000Z</time>
      </trkpt>
      <trkpt lat="46.0557" lon="4.51793">
        <ele>634</ele>
        <time>2016-11-27T12:42:15.000Z</time>
      </trkpt>
      <trkpt lat="46.0557" lon="4.51791">
        <ele>634</ele>
        <time>2016-11-27T12:42:16.000Z</time>
      </trkpt>
      <trkpt lat="46.05572" lon="4.5179">
        <ele>634</ele>
        <time>2016-11-27T12:42:17.000Z</time>
      </trkpt>
      <trkpt lat="46.05573" lon="4.51789">
        <ele>634</ele>
        <time>2016-11-27T12:42:18.000Z</time>
      </trkpt>
      <trkpt lat="46.05574" lon="4.51787">
        <ele>633</ele>
        <time>2016-11-27T12:42:19.000Z</time>
      </trkpt>
      <trkpt lat="46.05576" lon="4.51786">
        <ele>633</ele>
        <time>2016-11-27T12:42:20.000Z</time>
      </trkpt>
      <trkpt lat="46.05577" lon="4.51785">
        <ele>633</ele>
        <time>2016-11-27T12:42:21.000Z</time>
      </trkpt>
      <trkpt lat="46.05579" lon="4.51784">
        <ele>633</ele>
        <time>2016-11-27T12:42:22.000Z</time>
      </trkpt>
      <trkpt lat="46.0558" lon="4.51782">
        <ele>633</ele>
        <time>2016-11-27T12:42:23.000Z</time>
      </trkpt>
      <trkpt lat="46.05581" lon="4.51781">
        <ele>633</ele>
        <time>2016-11-27T12:42:24.000Z</time>
      </trkpt>
      <trkpt lat="46.05582" lon="4.5178">
        <ele>633</ele>
        <time>2016-11-27T12:42:25.000Z</time>
      </trkpt>
      <trkpt lat="46.05584" lon="4.51778">
        <ele>633</ele>
        <time>2016-11-27T12:42:26.000Z</time>
      </trkpt>
      <trkpt lat="46.05586" lon="4.51777">
        <ele>632</ele>
        <time>2016-11-27T12:42:27.000Z</time>
      </trkpt>
      <trkpt lat="46.05588" lon="4.51775">
        <ele>632</ele>
        <time>2016-11-27T12:42:28.000Z</time>
      </trkpt>
      <trkpt lat="46.0559" lon="4.51774">
        <ele>631</ele>
        <time>2016-11-27T12:42:29.000Z</time>
      </trkpt>
      <trkpt lat="46.05591" lon="4.51772">
        <ele>629</ele>
        <time>2016-11-27T12:42:30.000Z</time>
      </trkpt>
      <trkpt lat="46.05593" lon="4.51771">
        <ele>629</ele>
        <time>2016-11-27T12:42:31.000Z</time>
      </trkpt>
      <trkpt lat="46.05595" lon="4.5177">
        <ele>628</ele>
        <time>2016-11-27T12:42:32.000Z</time>
      </trkpt>
      <trkpt lat="46.05597" lon="4.51769">
        <ele>628</ele>
        <time>2016-11-27T12:42:33.000Z</time>
      </trkpt>
      <trkpt lat="46.05598" lon="4.51767">
        <ele>628</ele>
        <time>2016-11-27T12:42:34.000Z</time>
      </trkpt>
      <trkpt lat="46.056" lon="4.51766">
        <ele>628</ele>
        <time>2016-11-27T12:42:35.000Z</time>
      </trkpt>
      <trkpt lat="46.05601" lon="4.51765">
        <ele>628</ele>
        <time>2016-11-27T12:42:36.000Z</time>
      </trkpt>
      <trkpt lat="46.05603" lon="4.51763">
        <ele>628</ele>
        <time>2016-11-27T12:42:37.000Z</time>
      </trkpt>
      <trkpt lat="46.05604" lon="4.51761">
        <ele>628</ele>
        <time>2016-11-27T12:42:38.000Z</time>
      </trkpt>
      <trkpt lat="46.05605" lon="4.51759">
        <ele>627</ele>
        <time>2016-11-27T12:42:39.000Z</time>
      </trkpt>
      <trkpt lat="46.05606" lon="4.51757">
        <ele>626</ele>
        <time>2016-11-27T12:42:40.000Z</time>
      </trkpt>
      <trkpt lat="46.05607" lon="4.51755">
        <ele>626</ele>
        <time>2016-11-27T12:42:41.000Z</time>
      </trkpt>
      <trkpt lat="46.05608" lon="4.51753">
        <ele>626</ele>
        <time>2016-11-27T12:42:42.000Z</time>
      </trkpt>
      <trkpt lat="46.05608" lon="4.51751">
        <ele>626</ele>
        <time>2016-11-27T12:42:43.000Z</time>
      </trkpt>
      <trkpt lat="46.05609" lon="4.51749">
        <ele>625</ele>
        <time>2016-11-27T12:42:44.000Z</time>
      </trkpt>
      <trkpt lat="46.0561" lon="4.51747">
        <ele>626</ele>
        <time>2016-11-27T12:42:45.000Z</time>
      </trkpt>
      <trkpt lat="46.0561" lon="4.51745">
        <ele>626</ele>
        <time>2016-11-27T12:42:46.000Z</time>
      </trkpt>
      <trkpt lat="46.05611" lon="4.51743">
        <ele>625</ele>
        <time>2016-11-27T12:42:47.000Z</time>
      </trkpt>
      <trkpt lat="46.05611" lon="4.51742">
        <ele>625</ele>
        <time>2016-11-27T12:42:48.000Z</time>
      </trkpt>
      <trkpt lat="46.05612" lon="4.5174">
        <ele>625</ele>
        <time>2016-11-27T12:42:49.000Z</time>
      </trkpt>
      <trkpt lat="46.05613" lon="4.51738">
        <ele>624</ele>
        <time>2016-11-27T12:42:50.000Z</time>
      </trkpt>
      <trkpt lat="46.05614" lon="4.51736">
        <ele>624</ele>
        <time>2016-11-27T12:42:51.000Z</time>
      </trkpt>
      <trkpt lat="46.05615" lon="4.51734">
        <ele>623</ele>
        <time>2016-11-27T12:42:52.000Z</time>
      </trkpt>
      <trkpt lat="46.05615" lon="4.51732">
        <ele>623</ele>
        <time>2016-11-27T12:42:53.000Z</time>
      </trkpt>
      <trkpt lat="46.05616" lon="4.51729">
        <ele>623</ele>
        <time>2016-11-27T12:42:54.000Z</time>
      </trkpt>
      <trkpt lat="46.05617" lon="4.51727">
        <ele>623</ele>
        <time>2016-11-27T12:42:55.000Z</time>
      </trkpt>
      <trkpt lat="46.05617" lon="4.51724">
        <ele>625</ele>
        <time>2016-11-27T12:42:56.000Z</time>
      </trkpt>
      <trkpt lat="46.05618" lon="4.51721">
        <ele>625</ele>
        <time>2016-11-27T12:42:57.000Z</time>
      </trkpt>
      <trkpt lat="46.05619" lon="4.51718">
        <ele>625</ele>
        <time>2016-11-27T12:42:58.000Z</time>
      </trkpt>
      <trkpt lat="46.05619" lon="4.51716">
        <ele>625</ele>
        <time>2016-11-27T12:42:59.000Z</time>
      </trkpt>
      <trkpt lat="46.0562" lon="4.51714">
        <ele>625</ele>
        <time>2016-11-27T12:43:00.000Z</time>
      </trkpt>
      <trkpt lat="46.0562" lon="4.51711">
        <ele>625</ele>
        <time>2016-11-27T12:43:01.000Z</time>
      </trkpt>
      <trkpt lat="46.05621" lon="4.51709">
        <ele>625</ele>
        <time>2016-11-27T12:43:02.000Z</time>
      </trkpt>
      <trkpt lat="46.05622" lon="4.51707">
        <ele>626</ele>
        <time>2016-11-27T12:43:03.000Z</time>
      </trkpt>
      <trkpt lat="46.05623" lon="4.51705">
        <ele>626</ele>
        <time>2016-11-27T12:43:04.000Z</time>
      </trkpt>
      <trkpt lat="46.05624" lon="4.51703">
        <ele>626</ele>
        <time>2016-11-27T12:43:05.000Z</time>
      </trkpt>
      <trkpt lat="46.05624" lon="4.51701">
        <ele>626</ele>
        <time>2016-11-27T12:43:06.000Z</time>
      </trkpt>
      <trkpt lat="46.05625" lon="4.51699">
        <ele>626</ele>
        <time>2016-11-27T12:43:07.000Z</time>
      </trkpt>
      <trkpt lat="46.05626" lon="4.51697">
        <ele>626</ele>
        <time>2016-11-27T12:43:08.000Z</time>
      </trkpt>
      <trkpt lat="46.05626" lon="4.51695">
        <ele>627</ele>
        <time>2016-11-27T12:43:09.000Z</time>
      </trkpt>
      <trkpt lat="46.05627" lon="4.51692">
        <ele>627</ele>
        <time>2016-11-27T12:43:10.000Z</time>
      </trkpt>
      <trkpt lat="46.05628" lon="4.5169">
        <ele>628</ele>
        <time>2016-11-27T12:43:11.000Z</time>
      </trkpt>
      <trkpt lat="46.05629" lon="4.51688">
        <ele>628</ele>
        <time>2016-11-27T12:43:12.000Z</time>
      </trkpt>
      <trkpt lat="46.0563" lon="4.51686">
        <ele>629</ele>
        <time>2016-11-27T12:43:13.000Z</time>
      </trkpt>
      <trkpt lat="46.05631" lon="4.51684">
        <ele>630</ele>
        <time>2016-11-27T12:43:14.000Z</time>
      </trkpt>
      <trkpt lat="46.05631" lon="4.51682">
        <ele>630</ele>
        <time>2016-11-27T12:43:15.000Z</time>
      </trkpt>
      <trkpt lat="46.05632" lon="4.5168">
        <ele>630</ele>
        <time>2016-11-27T12:43:16.000Z</time>
      </trkpt>
      <trkpt lat="46.05632" lon="4.51678">
        <ele>632</ele>
        <time>2016-11-27T12:43:17.000Z</time>
      </trkpt>
      <trkpt lat="46.05632" lon="4.51677">
        <ele>633</ele>
        <time>2016-11-27T12:43:18.000Z</time>
      </trkpt>
      <trkpt lat="46.05632" lon="4.51675">
        <ele>633</ele>
        <time>2016-11-27T12:43:19.000Z</time>
      </trkpt>
      <trkpt lat="46.05632" lon="4.51674">
        <ele>634</ele>
        <time>2016-11-27T12:43:20.000Z</time>
      </trkpt>
      <trkpt lat="46.05633" lon="4.51672">
        <ele>634</ele>
        <time>2016-11-27T12:43:21.000Z</time>
      </trkpt>
      <trkpt lat="46.05633" lon="4.5167">
        <ele>635</ele>
        <time>2016-11-27T12:43:22.000Z</time>
      </trkpt>
      <trkpt lat="46.05633" lon="4.51669">
        <ele>635</ele>
        <time>2016-11-27T12:43:23.000Z</time>
      </trkpt>
      <trkpt lat="46.05633" lon="4.51667">
        <ele>635</ele>
        <time>2016-11-27T12:43:24.000Z</time>
      </trkpt>
      <trkpt lat="46.05633" lon="4.51665">
        <ele>636</ele>
        <time>2016-11-27T12:43:25.000Z</time>
      </trkpt>
      <trkpt lat="46.05634" lon="4.51663">
        <ele>635</ele>
        <time>2016-11-27T12:43:26.000Z</time>
      </trkpt>
      <trkpt lat="46.05634" lon="4.51662">
        <ele>635</ele>
        <time>2016-11-27T12:43:27.000Z</time>
      </trkpt>
      <trkpt lat="46.05634" lon="4.5166">
        <ele>635</ele>
        <time>2016-11-27T12:43:28.000Z</time>
      </trkpt>
      <trkpt lat="46.05635" lon="4.51658">
        <ele>635</ele>
        <time>2016-11-27T12:43:29.000Z</time>
      </trkpt>
      <trkpt lat="46.05635" lon="4.51657">
        <ele>636</ele>
        <time>2016-11-27T12:43:30.000Z</time>
      </trkpt>
      <trkpt lat="46.05635" lon="4.51655">
        <ele>636</ele>
        <time>2016-11-27T12:43:31.000Z</time>
      </trkpt>
      <trkpt lat="46.05635" lon="4.51654">
        <ele>635</ele>
        <time>2016-11-27T12:43:32.000Z</time>
      </trkpt>
      <trkpt lat="46.05636" lon="4.51652">
        <ele>635</ele>
        <time>2016-11-27T12:43:33.000Z</time>
      </trkpt>
      <trkpt lat="46.05636" lon="4.5165">
        <ele>635</ele>
        <time>2016-11-27T12:43:34.000Z</time>
      </trkpt>
      <trkpt lat="46.05636" lon="4.51649">
        <ele>636</ele>
        <time>2016-11-27T12:43:35.000Z</time>
      </trkpt>
      <trkpt lat="46.05636" lon="4.51647">
        <ele>636</ele>
        <time>2016-11-27T12:43:36.000Z</time>
      </trkpt>
      <trkpt lat="46.05636" lon="4.51646">
        <ele>637</ele>
        <time>2016-11-27T12:43:37.000Z</time>
      </trkpt>
      <trkpt lat="46.05636" lon="4.51644">
        <ele>637</ele>
        <time>2016-11-27T12:43:38.000Z</time>
      </trkpt>
      <trkpt lat="46.05636" lon="4.51643">
        <ele>637</ele>
        <time>2016-11-27T12:43:39.000Z</time>
      </trkpt>
      <trkpt lat="46.05636" lon="4.51641">
        <ele>636</ele>
        <time>2016-11-27T12:43:40.000Z</time>
      </trkpt>
      <trkpt lat="46.05636" lon="4.5164">
        <ele>636</ele>
        <time>2016-11-27T12:43:41.000Z</time>
      </trkpt>
      <trkpt lat="46.05636" lon="4.51639">
        <ele>636</ele>
        <time>2016-11-27T12:43:42.000Z</time>
      </trkpt>
      <trkpt lat="46.05636" lon="4.51637">
        <ele>636</ele>
        <time>2016-11-27T12:43:43.000Z</time>
      </trkpt>
      <trkpt lat="46.05637" lon="4.51635">
        <ele>636</ele>
        <time>2016-11-27T12:43:44.000Z</time>
      </trkpt>
      <trkpt lat="46.05638" lon="4.51634">
        <ele>635</ele>
        <time>2016-11-27T12:43:45.000Z</time>
      </trkpt>
      <trkpt lat="46.05638" lon="4.51632">
        <ele>635</ele>
        <time>2016-11-27T12:43:46.000Z</time>
      </trkpt>
      <trkpt lat="46.05639" lon="4.5163">
        <ele>634</ele>
        <time>2016-11-27T12:43:47.000Z</time>
      </trkpt>
      <trkpt lat="46.05639" lon="4.51629">
        <ele>634</ele>
        <time>2016-11-27T12:43:48.000Z</time>
      </trkpt>
      <trkpt lat="46.0564" lon="4.51627">
        <ele>634</ele>
        <time>2016-11-27T12:43:49.000Z</time>
      </trkpt>
      <trkpt lat="46.0564" lon="4.51625">
        <ele>634</ele>
        <time>2016-11-27T12:43:50.000Z</time>
      </trkpt>
      <trkpt lat="46.05641" lon="4.51624">
        <ele>634</ele>
        <time>2016-11-27T12:43:51.000Z</time>
      </trkpt>
      <trkpt lat="46.05641" lon="4.51622">
        <ele>634</ele>
        <time>2016-11-27T12:43:52.000Z</time>
      </trkpt>
      <trkpt lat="46.05641" lon="4.51621">
        <ele>635</ele>
        <time>2016-11-27T12:43:53.000Z</time>
      </trkpt>
      <trkpt lat="46.05642" lon="4.51619">
        <ele>635</ele>
        <time>2016-11-27T12:43:54.000Z</time>
      </trkpt>
      <trkpt lat="46.05643" lon="4.51618">
        <ele>636</ele>
        <time>2016-11-27T12:43:55.000Z</time>
      </trkpt>
      <trkpt lat="46.05644" lon="4.51615">
        <ele>638</ele>
        <time>2016-11-27T12:43:56.000Z</time>
      </trkpt>
      <trkpt lat="46.05645" lon="4.51613">
        <ele>638</ele>
        <time>2016-11-27T12:43:57.000Z</time>
      </trkpt>
      <trkpt lat="46.05646" lon="4.51611">
        <ele>638</ele>
        <time>2016-11-27T12:43:58.000Z</time>
      </trkpt>
      <trkpt lat="46.05646" lon="4.51609">
        <ele>638</ele>
        <time>2016-11-27T12:43:59.000Z</time>
      </trkpt>
      <trkpt lat="46.05647" lon="4.51608">
        <ele>639</ele>
        <time>2016-11-27T12:44:00.000Z</time>
      </trkpt>
      <trkpt lat="46.05647" lon="4.51606">
        <ele>639</ele>
        <time>2016-11-27T12:44:01.000Z</time>
      </trkpt>
      <trkpt lat="46.05648" lon="4.51605">
        <ele>639</ele>
        <time>2016-11-27T12:44:02.000Z</time>
      </trkpt>
      <trkpt lat="46.05648" lon="4.51603">
        <ele>640</ele>
        <time>2016-11-27T12:44:03.000Z</time>
      </trkpt>
      <trkpt lat="46.05648" lon="4.51602">
        <ele>640</ele>
        <time>2016-11-27T12:44:04.000Z</time>
      </trkpt>
      <trkpt lat="46.05648" lon="4.516">
        <ele>640</ele>
        <time>2016-11-27T12:44:05.000Z</time>
      </trkpt>
      <trkpt lat="46.05649" lon="4.51598">
        <ele>640</ele>
        <time>2016-11-27T12:44:06.000Z</time>
      </trkpt>
      <trkpt lat="46.05648" lon="4.51596">
        <ele>641</ele>
        <time>2016-11-27T12:44:07.000Z</time>
      </trkpt>
      <trkpt lat="46.05648" lon="4.51594">
        <ele>641</ele>
        <time>2016-11-27T12:44:08.000Z</time>
      </trkpt>
      <trkpt lat="46.05648" lon="4.51592">
        <ele>641</ele>
        <time>2016-11-27T12:44:09.000Z</time>
      </trkpt>
      <trkpt lat="46.05648" lon="4.5159">
        <ele>640</ele>
        <time>2016-11-27T12:44:10.000Z</time>
      </trkpt>
      <trkpt lat="46.05649" lon="4.51587">
        <ele>641</ele>
        <time>2016-11-27T12:44:11.000Z</time>
      </trkpt>
      <trkpt lat="46.05649" lon="4.51585">
        <ele>641</ele>
        <time>2016-11-27T12:44:12.000Z</time>
      </trkpt>
      <trkpt lat="46.0565" lon="4.51583">
        <ele>641</ele>
        <time>2016-11-27T12:44:13.000Z</time>
      </trkpt>
      <trkpt lat="46.0565" lon="4.51581">
        <ele>641</ele>
        <time>2016-11-27T12:44:14.000Z</time>
      </trkpt>
      <trkpt lat="46.0565" lon="4.51579">
        <ele>641</ele>
        <time>2016-11-27T12:44:15.000Z</time>
      </trkpt>
      <trkpt lat="46.0565" lon="4.51577">
        <ele>641</ele>
        <time>2016-11-27T12:44:16.000Z</time>
      </trkpt>
      <trkpt lat="46.0565" lon="4.51575">
        <ele>641</ele>
        <time>2016-11-27T12:44:17.000Z</time>
      </trkpt>
      <trkpt lat="46.0565" lon="4.51572">
        <ele>642</ele>
        <time>2016-11-27T12:44:18.000Z</time>
      </trkpt>
      <trkpt lat="46.0565" lon="4.5157">
        <ele>643</ele>
        <time>2016-11-27T12:44:19.000Z</time>
      </trkpt>
      <trkpt lat="46.0565" lon="4.51569">
        <ele>643</ele>
        <time>2016-11-27T12:44:20.000Z</time>
      </trkpt>
      <trkpt lat="46.05651" lon="4.51567">
        <ele>643</ele>
        <time>2016-11-27T12:44:21.000Z</time>
      </trkpt>
      <trkpt lat="46.05651" lon="4.51565">
        <ele>644</ele>
        <time>2016-11-27T12:44:22.000Z</time>
      </trkpt>
      <trkpt lat="46.05652" lon="4.51563">
        <ele>644</ele>
        <time>2016-11-27T12:44:23.000Z</time>
      </trkpt>
      <trkpt lat="46.05652" lon="4.51561">
        <ele>646</ele>
        <time>2016-11-27T12:44:24.000Z</time>
      </trkpt>
      <trkpt lat="46.05651" lon="4.5156">
        <ele>646</ele>
        <time>2016-11-27T12:44:25.000Z</time>
      </trkpt>
      <trkpt lat="46.05651" lon="4.51559">
        <ele>644</ele>
        <time>2016-11-27T12:44:26.000Z</time>
      </trkpt>
      <trkpt lat="46.05651" lon="4.5156">
        <ele>643</ele>
        <time>2016-11-27T12:44:27.000Z</time>
      </trkpt>
      <trkpt lat="46.05651" lon="4.5156">
        <ele>643</ele>
        <time>2016-11-27T12:44:28.000Z</time>
      </trkpt>
      <trkpt lat="46.05651" lon="4.5156">
        <ele>643</ele>
        <time>2016-11-27T12:44:29.000Z</time>
      </trkpt>
      <trkpt lat="46.05651" lon="4.51561">
        <ele>643</ele>
        <time>2016-11-27T12:44:30.000Z</time>
      </trkpt>
      <trkpt lat="46.05651" lon="4.51561">
        <ele>642</ele>
        <time>2016-11-27T12:44:31.000Z</time>
      </trkpt>
      <trkpt lat="46.05651" lon="4.51561">
        <ele>642</ele>
        <time>2016-11-27T12:44:32.000Z</time>
      </trkpt>
      <trkpt lat="46.05651" lon="4.5156">
        <ele>643</ele>
        <time>2016-11-27T12:44:33.000Z</time>
      </trkpt>
      <trkpt lat="46.05651" lon="4.5156">
        <ele>644</ele>
        <time>2016-11-27T12:44:34.000Z</time>
      </trkpt>
      <trkpt lat="46.0565" lon="4.51559">
        <ele>643</ele>
        <time>2016-11-27T12:44:35.000Z</time>
      </trkpt>
      <trkpt lat="46.0565" lon="4.51558">
        <ele>642</ele>
        <time>2016-11-27T12:44:36.000Z</time>
      </trkpt>
      <trkpt lat="46.0565" lon="4.51557">
        <ele>642</ele>
        <time>2016-11-27T12:44:37.000Z</time>
      </trkpt>
      <trkpt lat="46.05651" lon="4.51555">
        <ele>643</ele>
        <time>2016-11-27T12:44:38.000Z</time>
      </trkpt>
      <trkpt lat="46.05651" lon="4.51553">
        <ele>643</ele>
        <time>2016-11-27T12:44:39.000Z</time>
      </trkpt>
      <trkpt lat="46.05652" lon="4.51551">
        <ele>642</ele>
        <time>2016-11-27T12:44:40.000Z</time>
      </trkpt>
      <trkpt lat="46.05653" lon="4.51549">
        <ele>643</ele>
        <time>2016-11-27T12:44:41.000Z</time>
      </trkpt>
      <trkpt lat="46.05654" lon="4.51546">
        <ele>641</ele>
        <time>2016-11-27T12:44:42.000Z</time>
      </trkpt>
      <trkpt lat="46.05655" lon="4.51544">
        <ele>642</ele>
        <time>2016-11-27T12:44:43.000Z</time>
      </trkpt>
      <trkpt lat="46.05656" lon="4.51542">
        <ele>642</ele>
        <time>2016-11-27T12:44:44.000Z</time>
      </trkpt>
      <trkpt lat="46.05657" lon="4.51539">
        <ele>642</ele>
        <time>2016-11-27T12:44:45.000Z</time>
      </trkpt>
      <trkpt lat="46.05658" lon="4.51537">
        <ele>643</ele>
        <time>2016-11-27T12:44:46.000Z</time>
      </trkpt>
      <trkpt lat="46.05659" lon="4.51535">
        <ele>642</ele>
        <time>2016-11-27T12:44:47.000Z</time>
      </trkpt>
      <trkpt lat="46.0566" lon="4.51533">
        <ele>642</ele>
        <time>2016-11-27T12:44:48.000Z</time>
      </trkpt>
      <trkpt lat="46.0566" lon="4.51532">
        <ele>642</ele>
        <time>2016-11-27T12:44:49.000Z</time>
      </trkpt>
      <trkpt lat="46.05661" lon="4.5153">
        <ele>642</ele>
        <time>2016-11-27T12:44:50.000Z</time>
      </trkpt>
      <trkpt lat="46.05662" lon="4.51528">
        <ele>643</ele>
        <time>2016-11-27T12:44:51.000Z</time>
      </trkpt>
      <trkpt lat="46.05663" lon="4.51526">
        <ele>643</ele>
        <time>2016-11-27T12:44:52.000Z</time>
      </trkpt>
      <trkpt lat="46.05664" lon="4.51524">
        <ele>642</ele>
        <time>2016-11-27T12:44:53.000Z</time>
      </trkpt>
      <trkpt lat="46.05665" lon="4.51521">
        <ele>642</ele>
        <time>2016-11-27T12:44:54.000Z</time>
      </trkpt>
      <trkpt lat="46.05666" lon="4.51519">
        <ele>642</ele>
        <time>2016-11-27T12:44:55.000Z</time>
      </trkpt>
      <trkpt lat="46.05667" lon="4.51516">
        <ele>642</ele>
        <time>2016-11-27T12:44:56.000Z</time>
      </trkpt>
      <trkpt lat="46.05669" lon="4.51513">
        <ele>641</ele>
        <time>2016-11-27T12:44:57.000Z</time>
      </trkpt>
      <trkpt lat="46.0567" lon="4.5151">
        <ele>641</ele>
        <time>2016-11-27T12:44:58.000Z</time>
      </trkpt>
      <trkpt lat="46.05671" lon="4.51507">
        <ele>642</ele>
        <time>2016-11-27T12:44:59.000Z</time>
      </trkpt>
      <trkpt lat="46.05672" lon="4.51504">
        <ele>641</ele>
        <time>2016-11-27T12:45:00.000Z</time>
      </trkpt>
      <trkpt lat="46.05674" lon="4.51501">
        <ele>642</ele>
        <time>2016-11-27T12:45:01.000Z</time>
      </trkpt>
      <trkpt lat="46.05676" lon="4.51498">
        <ele>641</ele>
        <time>2016-11-27T12:45:02.000Z</time>
      </trkpt>
      <trkpt lat="46.05677" lon="4.51495">
        <ele>641</ele>
        <time>2016-11-27T12:45:03.000Z</time>
      </trkpt>
      <trkpt lat="46.05679" lon="4.51493">
        <ele>641</ele>
        <time>2016-11-27T12:45:04.000Z</time>
      </trkpt>
      <trkpt lat="46.05681" lon="4.5149">
        <ele>641</ele>
        <time>2016-11-27T12:45:05.000Z</time>
      </trkpt>
      <trkpt lat="46.05682" lon="4.51487">
        <ele>641</ele>
        <time>2016-11-27T12:45:06.000Z</time>
      </trkpt>
      <trkpt lat="46.05684" lon="4.51484">
        <ele>641</ele>
        <time>2016-11-27T12:45:07.000Z</time>
      </trkpt>
      <trkpt lat="46.05685" lon="4.51481">
        <ele>640</ele>
        <time>2016-11-27T12:45:08.000Z</time>
      </trkpt>
      <trkpt lat="46.05686" lon="4.51478">
        <ele>640</ele>
        <time>2016-11-27T12:45:09.000Z</time>
      </trkpt>
      <trkpt lat="46.05687" lon="4.51475">
        <ele>640</ele>
        <time>2016-11-27T12:45:10.000Z</time>
      </trkpt>
      <trkpt lat="46.05689" lon="4.51471">
        <ele>640</ele>
        <time>2016-11-27T12:45:11.000Z</time>
      </trkpt>
      <trkpt lat="46.0569" lon="4.51467">
        <ele>640</ele>
        <time>2016-11-27T12:45:12.000Z</time>
      </trkpt>
      <trkpt lat="46.05692" lon="4.51464">
        <ele>640</ele>
        <time>2016-11-27T12:45:13.000Z</time>
      </trkpt>
      <trkpt lat="46.05693" lon="4.51461">
        <ele>639</ele>
        <time>2016-11-27T12:45:14.000Z</time>
      </trkpt>
      <trkpt lat="46.05694" lon="4.51457">
        <ele>639</ele>
        <time>2016-11-27T12:45:15.000Z</time>
      </trkpt>
      <trkpt lat="46.05696" lon="4.51454">
        <ele>639</ele>
        <time>2016-11-27T12:45:16.000Z</time>
      </trkpt>
      <trkpt lat="46.05697" lon="4.5145">
        <ele>638</ele>
        <time>2016-11-27T12:45:17.000Z</time>
      </trkpt>
      <trkpt lat="46.05699" lon="4.51447">
        <ele>637</ele>
        <time>2016-11-27T12:45:18.000Z</time>
      </trkpt>
      <trkpt lat="46.05701" lon="4.51444">
        <ele>637</ele>
        <time>2016-11-27T12:45:19.000Z</time>
      </trkpt>
      <trkpt lat="46.05702" lon="4.5144">
        <ele>637</ele>
        <time>2016-11-27T12:45:20.000Z</time>
      </trkpt>
      <trkpt lat="46.05704" lon="4.51437">
        <ele>637</ele>
        <time>2016-11-27T12:45:21.000Z</time>
      </trkpt>
      <trkpt lat="46.05705" lon="4.51434">
        <ele>637</ele>
        <time>2016-11-27T12:45:22.000Z</time>
      </trkpt>
      <trkpt lat="46.05706" lon="4.5143">
        <ele>638</ele>
        <time>2016-11-27T12:45:23.000Z</time>
      </trkpt>
      <trkpt lat="46.05708" lon="4.51427">
        <ele>637</ele>
        <time>2016-11-27T12:45:24.000Z</time>
      </trkpt>
      <trkpt lat="46.0571" lon="4.51424">
        <ele>637</ele>
        <time>2016-11-27T12:45:25.000Z</time>
      </trkpt>
      <trkpt lat="46.05711" lon="4.51421">
        <ele>636</ele>
        <time>2016-11-27T12:45:26.000Z</time>
      </trkpt>
      <trkpt lat="46.05712" lon="4.51418">
        <ele>636</ele>
        <time>2016-11-27T12:45:27.000Z</time>
      </trkpt>
      <trkpt lat="46.05714" lon="4.51416">
        <ele>636</ele>
        <time>2016-11-27T12:45:28.000Z</time>
      </trkpt>
      <trkpt lat="46.05715" lon="4.51413">
        <ele>636</ele>
        <time>2016-11-27T12:45:29.000Z</time>
      </trkpt>
      <trkpt lat="46.05717" lon="4.5141">
        <ele>636</ele>
        <time>2016-11-27T12:45:30.000Z</time>
      </trkpt>
      <trkpt lat="46.05718" lon="4.51407">
        <ele>636</ele>
        <time>2016-11-27T12:45:31.000Z</time>
      </trkpt>
      <trkpt lat="46.05719" lon="4.51404">
        <ele>636</ele>
        <time>2016-11-27T12:45:32.000Z</time>
      </trkpt>
      <trkpt lat="46.05721" lon="4.51401">
        <ele>636</ele>
        <time>2016-11-27T12:45:33.000Z</time>
      </trkpt>
      <trkpt lat="46.05722" lon="4.51398">
        <ele>636</ele>
        <time>2016-11-27T12:45:34.000Z</time>
      </trkpt>
      <trkpt lat="46.05724" lon="4.51395">
        <ele>637</ele>
        <time>2016-11-27T12:45:35.000Z</time>
      </trkpt>
      <trkpt lat="46.05726" lon="4.51392">
        <ele>637</ele>
        <time>2016-11-27T12:45:36.000Z</time>
      </trkpt>
      <trkpt lat="46.05727" lon="4.51389">
        <ele>638</ele>
        <time>2016-11-27T12:45:37.000Z</time>
      </trkpt>
      <trkpt lat="46.05729" lon="4.51387">
        <ele>638</ele>
        <time>2016-11-27T12:45:38.000Z</time>
      </trkpt>
      <trkpt lat="46.05731" lon="4.51384">
        <ele>638</ele>
        <time>2016-11-27T12:45:39.000Z</time>
      </trkpt>
      <trkpt lat="46.05733" lon="4.51381">
        <ele>638</ele>
        <time>2016-11-27T12:45:40.000Z</time>
      </trkpt>
      <trkpt lat="46.05735" lon="4.51379">
        <ele>639</ele>
        <time>2016-11-27T12:45:41.000Z</time>
      </trkpt>
      <trkpt lat="46.05737" lon="4.51376">
        <ele>638</ele>
        <time>2016-11-27T12:45:42.000Z</time>
      </trkpt>
      <trkpt lat="46.05739" lon="4.51374">
        <ele>639</ele>
        <time>2016-11-27T12:45:43.000Z</time>
      </trkpt>
      <trkpt lat="46.05741" lon="4.51372">
        <ele>639</ele>
        <time>2016-11-27T12:45:44.000Z</time>
      </trkpt>
      <trkpt lat="46.05743" lon="4.5137">
        <ele>639</ele>
        <time>2016-11-27T12:45:45.000Z</time>
      </trkpt>
      <trkpt lat="46.05745" lon="4.51368">
        <ele>640</ele>
        <time>2016-11-27T12:45:46.000Z</time>
      </trkpt>
      <trkpt lat="46.05748" lon="4.51365">
        <ele>641</ele>
        <time>2016-11-27T12:45:47.000Z</time>
      </trkpt>
      <trkpt lat="46.0575" lon="4.51363">
        <ele>640</ele>
        <time>2016-11-27T12:45:48.000Z</time>
      </trkpt>
      <trkpt lat="46.05752" lon="4.51361">
        <ele>641</ele>
        <time>2016-11-27T12:45:49.000Z</time>
      </trkpt>
      <trkpt lat="46.05754" lon="4.51359">
        <ele>641</ele>
        <time>2016-11-27T12:45:50.000Z</time>
      </trkpt>
      <trkpt lat="46.05757" lon="4.51356">
        <ele>641</ele>
        <time>2016-11-27T12:45:51.000Z</time>
      </trkpt>
      <trkpt lat="46.05759" lon="4.51354">
        <ele>642</ele>
        <time>2016-11-27T12:45:52.000Z</time>
      </trkpt>
      <trkpt lat="46.05761" lon="4.51352">
        <ele>642</ele>
        <time>2016-11-27T12:45:53.000Z</time>
      </trkpt>
      <trkpt lat="46.05763" lon="4.51349">
        <ele>642</ele>
        <time>2016-11-27T12:45:54.000Z</time>
      </trkpt>
      <trkpt lat="46.05765" lon="4.51347">
        <ele>641</ele>
        <time>2016-11-27T12:45:55.000Z</time>
      </trkpt>
      <trkpt lat="46.05767" lon="4.51344">
        <ele>641</ele>
        <time>2016-11-27T12:45:56.000Z</time>
      </trkpt>
      <trkpt lat="46.05769" lon="4.5134">
        <ele>641</ele>
        <time>2016-11-27T12:45:57.000Z</time>
      </trkpt>
      <trkpt lat="46.0577" lon="4.51337">
        <ele>641</ele>
        <time>2016-11-27T12:45:58.000Z</time>
      </trkpt>
      <trkpt lat="46.05772" lon="4.51334">
        <ele>641</ele>
        <time>2016-11-27T12:45:59.000Z</time>
      </trkpt>
      <trkpt lat="46.05774" lon="4.51331">
        <ele>641</ele>
        <time>2016-11-27T12:46:00.000Z</time>
      </trkpt>
      <trkpt lat="46.05775" lon="4.51328">
        <ele>640</ele>
        <time>2016-11-27T12:46:01.000Z</time>
      </trkpt>
      <trkpt lat="46.05777" lon="4.51325">
        <ele>641</ele>
        <time>2016-11-27T12:46:02.000Z</time>
      </trkpt>
      <trkpt lat="46.05779" lon="4.51321">
        <ele>641</ele>
        <time>2016-11-27T12:46:03.000Z</time>
      </trkpt>
      <trkpt lat="46.0578" lon="4.51318">
        <ele>641</ele>
        <time>2016-11-27T12:46:04.000Z</time>
      </trkpt>
      <trkpt lat="46.05782" lon="4.51315">
        <ele>640</ele>
        <time>2016-11-27T12:46:05.000Z</time>
      </trkpt>
      <trkpt lat="46.05783" lon="4.51311">
        <ele>640</ele>
        <time>2016-11-27T12:46:06.000Z</time>
      </trkpt>
      <trkpt lat="46.05784" lon="4.51307">
        <ele>640</ele>
        <time>2016-11-27T12:46:07.000Z</time>
      </trkpt>
      <trkpt lat="46.05786" lon="4.51304">
        <ele>640</ele>
        <time>2016-11-27T12:46:08.000Z</time>
      </trkpt>
      <trkpt lat="46.05787" lon="4.513">
        <ele>640</ele>
        <time>2016-11-27T12:46:09.000Z</time>
      </trkpt>
      <trkpt lat="46.05788" lon="4.51297">
        <ele>640</ele>
        <time>2016-11-27T12:46:10.000Z</time>
      </trkpt>
      <trkpt lat="46.05789" lon="4.51293">
        <ele>640</ele>
        <time>2016-11-27T12:46:11.000Z</time>
      </trkpt>
      <trkpt lat="46.0579" lon="4.5129">
        <ele>640</ele>
        <time>2016-11-27T12:46:12.000Z</time>
      </trkpt>
      <trkpt lat="46.05791" lon="4.51286">
        <ele>640</ele>
        <time>2016-11-27T12:46:13.000Z</time>
      </trkpt>
      <trkpt lat="46.05792" lon="4.51283">
        <ele>640</ele>
        <time>2016-11-27T12:46:14.000Z</time>
      </trkpt>
      <trkpt lat="46.05793" lon="4.51279">
        <ele>640</ele>
        <time>2016-11-27T12:46:15.000Z</time>
      </trkpt>
      <trkpt lat="46.05794" lon="4.51275">
        <ele>640</ele>
        <time>2016-11-27T12:46:16.000Z</time>
      </trkpt>
      <trkpt lat="46.05794" lon="4.51272">
        <ele>640</ele>
        <time>2016-11-27T12:46:17.000Z</time>
      </trkpt>
      <trkpt lat="46.05795" lon="4.51268">
        <ele>640</ele>
        <time>2016-11-27T12:46:18.000Z</time>
      </trkpt>
      <trkpt lat="46.05795" lon="4.51264">
        <ele>641</ele>
        <time>2016-11-27T12:46:19.000Z</time>
      </trkpt>
      <trkpt lat="46.05796" lon="4.51261">
        <ele>641</ele>
        <time>2016-11-27T12:46:20.000Z</time>
      </trkpt>
      <trkpt lat="46.05796" lon="4.51258">
        <ele>641</ele>
        <time>2016-11-27T12:46:21.000Z</time>
      </trkpt>
      <trkpt lat="46.05797" lon="4.51254">
        <ele>640</ele>
        <time>2016-11-27T12:46:22.000Z</time>
      </trkpt>
      <trkpt lat="46.05797" lon="4.51251">
        <ele>640</ele>
        <time>2016-11-27T12:46:23.000Z</time>
      </trkpt>
      <trkpt lat="46.05797" lon="4.51247">
        <ele>640</ele>
        <time>2016-11-27T12:46:24.000Z</time>
      </trkpt>
      <trkpt lat="46.05798" lon="4.51244">
        <ele>639</ele>
        <time>2016-11-27T12:46:25.000Z</time>
      </trkpt>
      <trkpt lat="46.05798" lon="4.5124">
        <ele>639</ele>
        <time>2016-11-27T12:46:26.000Z</time>
      </trkpt>
      <trkpt lat="46.05798" lon="4.51236">
        <ele>639</ele>
        <time>2016-11-27T12:46:27.000Z</time>
      </trkpt>
      <trkpt lat="46.05798" lon="4.51232">
        <ele>639</ele>
        <time>2016-11-27T12:46:28.000Z</time>
      </trkpt>
      <trkpt lat="46.05799" lon="4.51229">
        <ele>639</ele>
        <time>2016-11-27T12:46:29.000Z</time>
      </trkpt>
      <trkpt lat="46.05799" lon="4.51226">
        <ele>639</ele>
        <time>2016-11-27T12:46:30.000Z</time>
      </trkpt>
      <trkpt lat="46.05799" lon="4.51223">
        <ele>639</ele>
        <time>2016-11-27T12:46:31.000Z</time>
      </trkpt>
      <trkpt lat="46.05799" lon="4.51219">
        <ele>639</ele>
        <time>2016-11-27T12:46:32.000Z</time>
      </trkpt>
      <trkpt lat="46.05799" lon="4.51216">
        <ele>639</ele>
        <time>2016-11-27T12:46:33.000Z</time>
      </trkpt>
      <trkpt lat="46.05799" lon="4.51213">
        <ele>638</ele>
        <time>2016-11-27T12:46:34.000Z</time>
      </trkpt>
      <trkpt lat="46.05799" lon="4.51209">
        <ele>638</ele>
        <time>2016-11-27T12:46:35.000Z</time>
      </trkpt>
      <trkpt lat="46.05799" lon="4.51205">
        <ele>638</ele>
        <time>2016-11-27T12:46:36.000Z</time>
      </trkpt>
      <trkpt lat="46.05798" lon="4.51201">
        <ele>637</ele>
        <time>2016-11-27T12:46:37.000Z</time>
      </trkpt>
      <trkpt lat="46.05798" lon="4.51197">
        <ele>637</ele>
        <time>2016-11-27T12:46:38.000Z</time>
      </trkpt>
      <trkpt lat="46.05797" lon="4.51193">
        <ele>636</ele>
        <time>2016-11-27T12:46:39.000Z</time>
      </trkpt>
      <trkpt lat="46.05796" lon="4.51189">
        <ele>637</ele>
        <time>2016-11-27T12:46:40.000Z</time>
      </trkpt>
      <trkpt lat="46.05795" lon="4.51185">
        <ele>637</ele>
        <time>2016-11-27T12:46:41.000Z</time>
      </trkpt>
      <trkpt lat="46.05794" lon="4.51182">
        <ele>636</ele>
        <time>2016-11-27T12:46:42.000Z</time>
      </trkpt>
      <trkpt lat="46.05793" lon="4.51178">
        <ele>635</ele>
        <time>2016-11-27T12:46:43.000Z</time>
      </trkpt>
      <trkpt lat="46.05792" lon="4.51175">
        <ele>635</ele>
        <time>2016-11-27T12:46:44.000Z</time>
      </trkpt>
      <trkpt lat="46.05791" lon="4.51172">
        <ele>635</ele>
        <time>2016-11-27T12:46:45.000Z</time>
      </trkpt>
      <trkpt lat="46.0579" lon="4.51168">
        <ele>634</ele>
        <time>2016-11-27T12:46:46.000Z</time>
      </trkpt>
      <trkpt lat="46.05789" lon="4.51165">
        <ele>634</ele>
        <time>2016-11-27T12:46:47.000Z</time>
      </trkpt>
      <trkpt lat="46.05788" lon="4.51161">
        <ele>634</ele>
        <time>2016-11-27T12:46:48.000Z</time>
      </trkpt>
      <trkpt lat="46.05786" lon="4.51158">
        <ele>632</ele>
        <time>2016-11-27T12:46:49.000Z</time>
      </trkpt>
      <trkpt lat="46.05784" lon="4.51155">
        <ele>633</ele>
        <time>2016-11-27T12:46:50.000Z</time>
      </trkpt>
      <trkpt lat="46.05783" lon="4.51153">
        <ele>633</ele>
        <time>2016-11-27T12:46:51.000Z</time>
      </trkpt>
      <trkpt lat="46.05783" lon="4.51151">
        <ele>633</ele>
        <time>2016-11-27T12:46:52.000Z</time>
      </trkpt>
      <trkpt lat="46.05782" lon="4.51149">
        <ele>633</ele>
        <time>2016-11-27T12:46:53.000Z</time>
      </trkpt>
      <trkpt lat="46.05781" lon="4.51146">
        <ele>633</ele>
        <time>2016-11-27T12:46:54.000Z</time>
      </trkpt>
      <trkpt lat="46.0578" lon="4.51143">
        <ele>633</ele>
        <time>2016-11-27T12:46:55.000Z</time>
      </trkpt>
      <trkpt lat="46.05779" lon="4.5114">
        <ele>634</ele>
        <time>2016-11-27T12:46:56.000Z</time>
      </trkpt>
      <trkpt lat="46.05779" lon="4.51136">
        <ele>634</ele>
        <time>2016-11-27T12:46:57.000Z</time>
      </trkpt>
      <trkpt lat="46.05778" lon="4.51134">
        <ele>634</ele>
        <time>2016-11-27T12:46:58.000Z</time>
      </trkpt>
      <trkpt lat="46.05777" lon="4.51132">
        <ele>634</ele>
        <time>2016-11-27T12:46:59.000Z</time>
      </trkpt>
      <trkpt lat="46.05776" lon="4.5113">
        <ele>633</ele>
        <time>2016-11-27T12:47:00.000Z</time>
      </trkpt>
      <trkpt lat="46.05775" lon="4.51128">
        <ele>632</ele>
        <time>2016-11-27T12:47:01.000Z</time>
      </trkpt>
      <trkpt lat="46.05773" lon="4.51125">
        <ele>632</ele>
        <time>2016-11-27T12:47:02.000Z</time>
      </trkpt>
      <trkpt lat="46.05771" lon="4.51122">
        <ele>631</ele>
        <time>2016-11-27T12:47:03.000Z</time>
      </trkpt>
      <trkpt lat="46.0577" lon="4.5112">
        <ele>631</ele>
        <time>2016-11-27T12:47:04.000Z</time>
      </trkpt>
      <trkpt lat="46.05768" lon="4.51117">
        <ele>630</ele>
        <time>2016-11-27T12:47:05.000Z</time>
      </trkpt>
      <trkpt lat="46.05766" lon="4.51114">
        <ele>630</ele>
        <time>2016-11-27T12:47:06.000Z</time>
      </trkpt>
      <trkpt lat="46.05764" lon="4.51111">
        <ele>630</ele>
        <time>2016-11-27T12:47:07.000Z</time>
      </trkpt>
      <trkpt lat="46.05763" lon="4.51109">
        <ele>629</ele>
        <time>2016-11-27T12:47:08.000Z</time>
      </trkpt>
      <trkpt lat="46.05761" lon="4.51106">
        <ele>628</ele>
        <time>2016-11-27T12:47:09.000Z</time>
      </trkpt>
      <trkpt lat="46.05759" lon="4.51105">
        <ele>627</ele>
        <time>2016-11-27T12:47:10.000Z</time>
      </trkpt>
      <trkpt lat="46.05757" lon="4.51102">
        <ele>626</ele>
        <time>2016-11-27T12:47:11.000Z</time>
      </trkpt>
      <trkpt lat="46.05754" lon="4.51101">
        <ele>626</ele>
        <time>2016-11-27T12:47:12.000Z</time>
      </trkpt>
      <trkpt lat="46.05752" lon="4.51098">
        <ele>626</ele>
        <time>2016-11-27T12:47:13.000Z</time>
      </trkpt>
      <trkpt lat="46.0575" lon="4.51096">
        <ele>626</ele>
        <time>2016-11-27T12:47:14.000Z</time>
      </trkpt>
      <trkpt lat="46.05747" lon="4.51093">
        <ele>626</ele>
        <time>2016-11-27T12:47:15.000Z</time>
      </trkpt>
      <trkpt lat="46.05745" lon="4.51091">
        <ele>626</ele>
        <time>2016-11-27T12:47:16.000Z</time>
      </trkpt>
      <trkpt lat="46.05742" lon="4.51089">
        <ele>625</ele>
        <time>2016-11-27T12:47:17.000Z</time>
      </trkpt>
      <trkpt lat="46.0574" lon="4.51086">
        <ele>625</ele>
        <time>2016-11-27T12:47:18.000Z</time>
      </trkpt>
      <trkpt lat="46.05737" lon="4.51084">
        <ele>625</ele>
        <time>2016-11-27T12:47:19.000Z</time>
      </trkpt>
      <trkpt lat="46.05735" lon="4.51082">
        <ele>625</ele>
        <time>2016-11-27T12:47:20.000Z</time>
      </trkpt>
      <trkpt lat="46.05732" lon="4.5108">
        <ele>624</ele>
        <time>2016-11-27T12:47:21.000Z</time>
      </trkpt>
      <trkpt lat="46.0573" lon="4.51078">
        <ele>624</ele>
        <time>2016-11-27T12:47:22.000Z</time>
      </trkpt>
      <trkpt lat="46.05727" lon="4.51076">
        <ele>624</ele>
        <time>2016-11-27T12:47:23.000Z</time>
      </trkpt>
      <trkpt lat="46.05724" lon="4.51075">
        <ele>623</ele>
        <time>2016-11-27T12:47:24.000Z</time>
      </trkpt>
      <trkpt lat="46.05721" lon="4.51074">
        <ele>623</ele>
        <time>2016-11-27T12:47:25.000Z</time>
      </trkpt>
      <trkpt lat="46.05719" lon="4.51072">
        <ele>623</ele>
        <time>2016-11-27T12:47:26.000Z</time>
      </trkpt>
      <trkpt lat="46.05716" lon="4.51071">
        <ele>623</ele>
        <time>2016-11-27T12:47:27.000Z</time>
      </trkpt>
      <trkpt lat="46.05714" lon="4.51069">
        <ele>622</ele>
        <time>2016-11-27T12:47:28.000Z</time>
      </trkpt>
      <trkpt lat="46.05712" lon="4.51067">
        <ele>621</ele>
        <time>2016-11-27T12:47:29.000Z</time>
      </trkpt>
      <trkpt lat="46.05709" lon="4.51065">
        <ele>621</ele>
        <time>2016-11-27T12:47:30.000Z</time>
      </trkpt>
      <trkpt lat="46.05707" lon="4.51063">
        <ele>621</ele>
        <time>2016-11-27T12:47:31.000Z</time>
      </trkpt>
      <trkpt lat="46.05704" lon="4.51061">
        <ele>621</ele>
        <time>2016-11-27T12:47:32.000Z</time>
      </trkpt>
      <trkpt lat="46.05702" lon="4.51059">
        <ele>622</ele>
        <time>2016-11-27T12:47:33.000Z</time>
      </trkpt>
      <trkpt lat="46.057" lon="4.51058">
        <ele>621</ele>
        <time>2016-11-27T12:47:34.000Z</time>
      </trkpt>
      <trkpt lat="46.05698" lon="4.51056">
        <ele>622</ele>
        <time>2016-11-27T12:47:35.000Z</time>
      </trkpt>
      <trkpt lat="46.05696" lon="4.51054">
        <ele>622</ele>
        <time>2016-11-27T12:47:36.000Z</time>
      </trkpt>
      <trkpt lat="46.05695" lon="4.51052">
        <ele>621</ele>
        <time>2016-11-27T12:47:37.000Z</time>
      </trkpt>
      <trkpt lat="46.05694" lon="4.51051">
        <ele>622</ele>
        <time>2016-11-27T12:47:38.000Z</time>
      </trkpt>
      <trkpt lat="46.05693" lon="4.5105">
        <ele>621</ele>
        <time>2016-11-27T12:47:39.000Z</time>
      </trkpt>
      <trkpt lat="46.05692" lon="4.51049">
        <ele>622</ele>
        <time>2016-11-27T12:47:40.000Z</time>
      </trkpt>
      <trkpt lat="46.05691" lon="4.51048">
        <ele>622</ele>
        <time>2016-11-27T12:47:41.000Z</time>
      </trkpt>
      <trkpt lat="46.0569" lon="4.51047">
        <ele>622</ele>
        <time>2016-11-27T12:47:42.000Z</time>
      </trkpt>
      <trkpt lat="46.05689" lon="4.51047">
        <ele>622</ele>
        <time>2016-11-27T12:47:43.000Z</time>
      </trkpt>
      <trkpt lat="46.05688" lon="4.51046">
        <ele>624</ele>
        <time>2016-11-27T12:47:44.000Z</time>
      </trkpt>
      <trkpt lat="46.05688" lon="4.51045">
        <ele>624</ele>
        <time>2016-11-27T12:47:45.000Z</time>
      </trkpt>
      <trkpt lat="46.05687" lon="4.51045">
        <ele>624</ele>
        <time>2016-11-27T12:47:46.000Z</time>
      </trkpt>
      <trkpt lat="46.05687" lon="4.51044">
        <ele>626</ele>
        <time>2016-11-27T12:47:47.000Z</time>
      </trkpt>
      <trkpt lat="46.05687" lon="4.51044">
        <ele>627</ele>
        <time>2016-11-27T12:47:48.000Z</time>
      </trkpt>
      <trkpt lat="46.05687" lon="4.51043">
        <ele>628</ele>
        <time>2016-11-27T12:47:49.000Z</time>
      </trkpt>
      <trkpt lat="46.05687" lon="4.51042">
        <ele>629</ele>
        <time>2016-11-27T12:47:50.000Z</time>
      </trkpt>
      <trkpt lat="46.05687" lon="4.51042">
        <ele>629</ele>
        <time>2016-11-27T12:47:51.000Z</time>
      </trkpt>
      <trkpt lat="46.05687" lon="4.51041">
        <ele>630</ele>
        <time>2016-11-27T12:47:52.000Z</time>
      </trkpt>
      <trkpt lat="46.05687" lon="4.51041">
        <ele>631</ele>
        <time>2016-11-27T12:47:53.000Z</time>
      </trkpt>
      <trkpt lat="46.05687" lon="4.5104">
        <ele>631</ele>
        <time>2016-11-27T12:47:54.000Z</time>
      </trkpt>
      <trkpt lat="46.05687" lon="4.5104">
        <ele>631</ele>
        <time>2016-11-27T12:47:55.000Z</time>
      </trkpt>
      <trkpt lat="46.05687" lon="4.51039">
        <ele>630</ele>
        <time>2016-11-27T12:47:56.000Z</time>
      </trkpt>
      <trkpt lat="46.05686" lon="4.51039">
        <ele>630</ele>
        <time>2016-11-27T12:47:57.000Z</time>
      </trkpt>
      <trkpt lat="46.05685" lon="4.51038">
        <ele>630</ele>
        <time>2016-11-27T12:47:58.000Z</time>
      </trkpt>
      <trkpt lat="46.05685" lon="4.51038">
        <ele>630</ele>
        <time>2016-11-27T12:47:59.000Z</time>
      </trkpt>
      <trkpt lat="46.05684" lon="4.51037">
        <ele>631</ele>
        <time>2016-11-27T12:48:00.000Z</time>
      </trkpt>
      <trkpt lat="46.05684" lon="4.51037">
        <ele>631</ele>
        <time>2016-11-27T12:48:01.000Z</time>
      </trkpt>
      <trkpt lat="46.05684" lon="4.51037">
        <ele>631</ele>
        <time>2016-11-27T12:48:02.000Z</time>
      </trkpt>
      <trkpt lat="46.05684" lon="4.51036">
        <ele>632</ele>
        <time>2016-11-27T12:48:03.000Z</time>
      </trkpt>
      <trkpt lat="46.05684" lon="4.51036">
        <ele>632</ele>
        <time>2016-11-27T12:48:04.000Z</time>
      </trkpt>
      <trkpt lat="46.05684" lon="4.51035">
        <ele>633</ele>
        <time>2016-11-27T12:48:05.000Z</time>
      </trkpt>
      <trkpt lat="46.05684" lon="4.51035">
        <ele>633</ele>
        <time>2016-11-27T12:48:06.000Z</time>
      </trkpt>
      <trkpt lat="46.05683" lon="4.51034">
        <ele>633</ele>
        <time>2016-11-27T12:48:07.000Z</time>
      </trkpt>
      <trkpt lat="46.05683" lon="4.51033">
        <ele>633</ele>
        <time>2016-11-27T12:48:08.000Z</time>
      </trkpt>
      <trkpt lat="46.05683" lon="4.51032">
        <ele>635</ele>
        <time>2016-11-27T12:48:09.000Z</time>
      </trkpt>
      <trkpt lat="46.05682" lon="4.5103">
        <ele>635</ele>
        <time>2016-11-27T12:48:10.000Z</time>
      </trkpt>
      <trkpt lat="46.05682" lon="4.51028">
        <ele>634</ele>
        <time>2016-11-27T12:48:11.000Z</time>
      </trkpt>
      <trkpt lat="46.0568" lon="4.51027">
        <ele>634</ele>
        <time>2016-11-27T12:48:12.000Z</time>
      </trkpt>
      <trkpt lat="46.05679" lon="4.51025">
        <ele>634</ele>
        <time>2016-11-27T12:48:13.000Z</time>
      </trkpt>
      <trkpt lat="46.05677" lon="4.51023">
        <ele>634</ele>
        <time>2016-11-27T12:48:14.000Z</time>
      </trkpt>
      <trkpt lat="46.05676" lon="4.51021">
        <ele>634</ele>
        <time>2016-11-27T12:48:15.000Z</time>
      </trkpt>
      <trkpt lat="46.05675" lon="4.5102">
        <ele>633</ele>
        <time>2016-11-27T12:48:16.000Z</time>
      </trkpt>
      <trkpt lat="46.05675" lon="4.51018">
        <ele>633</ele>
        <time>2016-11-27T12:48:17.000Z</time>
      </trkpt>
      <trkpt lat="46.05675" lon="4.51016">
        <ele>632</ele>
        <time>2016-11-27T12:48:18.000Z</time>
      </trkpt>
      <trkpt lat="46.05675" lon="4.51015">
        <ele>632</ele>
        <time>2016-11-27T12:48:19.000Z</time>
      </trkpt>
      <trkpt lat="46.05675" lon="4.51014">
        <ele>631</ele>
        <time>2016-11-27T12:48:20.000Z</time>
      </trkpt>
      <trkpt lat="46.05676" lon="4.51013">
        <ele>631</ele>
        <time>2016-11-27T12:48:21.000Z</time>
      </trkpt>
      <trkpt lat="46.05677" lon="4.51013">
        <ele>630</ele>
        <time>2016-11-27T12:48:22.000Z</time>
      </trkpt>
      <trkpt lat="46.05678" lon="4.51012">
        <ele>629</ele>
        <time>2016-11-27T12:48:23.000Z</time>
      </trkpt>
      <trkpt lat="46.05678" lon="4.51011">
        <ele>628</ele>
        <time>2016-11-27T12:48:24.000Z</time>
      </trkpt>
      <trkpt lat="46.05679" lon="4.51009">
        <ele>627</ele>
        <time>2016-11-27T12:48:25.000Z</time>
      </trkpt>
      <trkpt lat="46.0568" lon="4.51008">
        <ele>627</ele>
        <time>2016-11-27T12:48:26.000Z</time>
      </trkpt>
      <trkpt lat="46.05681" lon="4.51006">
        <ele>626</ele>
        <time>2016-11-27T12:48:27.000Z</time>
      </trkpt>
      <trkpt lat="46.05681" lon="4.51004">
        <ele>625</ele>
        <time>2016-11-27T12:48:28.000Z</time>
      </trkpt>
      <trkpt lat="46.05682" lon="4.51003">
        <ele>624</ele>
        <time>2016-11-27T12:48:29.000Z</time>
      </trkpt>
      <trkpt lat="46.05683" lon="4.51002">
        <ele>622</ele>
        <time>2016-11-27T12:48:30.000Z</time>
      </trkpt>
      <trkpt lat="46.05684" lon="4.51">
        <ele>622</ele>
        <time>2016-11-27T12:48:31.000Z</time>
      </trkpt>
      <trkpt lat="46.05686" lon="4.50999">
        <ele>622</ele>
        <time>2016-11-27T12:48:32.000Z</time>
      </trkpt>
      <trkpt lat="46.05687" lon="4.50996">
        <ele>622</ele>
        <time>2016-11-27T12:48:33.000Z</time>
      </trkpt>
      <trkpt lat="46.05689" lon="4.50994">
        <ele>623</ele>
        <time>2016-11-27T12:48:34.000Z</time>
      </trkpt>
      <trkpt lat="46.05691" lon="4.50992">
        <ele>623</ele>
        <time>2016-11-27T12:48:35.000Z</time>
      </trkpt>
      <trkpt lat="46.05692" lon="4.5099">
        <ele>621</ele>
        <time>2016-11-27T12:48:36.000Z</time>
      </trkpt>
      <trkpt lat="46.05693" lon="4.50989">
        <ele>621</ele>
        <time>2016-11-27T12:48:37.000Z</time>
      </trkpt>
      <trkpt lat="46.05693" lon="4.50988">
        <ele>621</ele>
        <time>2016-11-27T12:48:38.000Z</time>
      </trkpt>
      <trkpt lat="46.05694" lon="4.50987">
        <ele>620</ele>
        <time>2016-11-27T12:48:39.000Z</time>
      </trkpt>
      <trkpt lat="46.05695" lon="4.50986">
        <ele>619</ele>
        <time>2016-11-27T12:48:40.000Z</time>
      </trkpt>
      <trkpt lat="46.05695" lon="4.50985">
        <ele>619</ele>
        <time>2016-11-27T12:48:41.000Z</time>
      </trkpt>
      <trkpt lat="46.05696" lon="4.50984">
        <ele>618</ele>
        <time>2016-11-27T12:48:42.000Z</time>
      </trkpt>
      <trkpt lat="46.05697" lon="4.50982">
        <ele>618</ele>
        <time>2016-11-27T12:48:43.000Z</time>
      </trkpt>
      <trkpt lat="46.05697" lon="4.50981">
        <ele>617</ele>
        <time>2016-11-27T12:48:44.000Z</time>
      </trkpt>
      <trkpt lat="46.05697" lon="4.50979">
        <ele>616</ele>
        <time>2016-11-27T12:48:45.000Z</time>
      </trkpt>
      <trkpt lat="46.05697" lon="4.50979">
        <ele>616</ele>
        <time>2016-11-27T12:48:46.000Z</time>
      </trkpt>
      <trkpt lat="46.05698" lon="4.50977">
        <ele>614</ele>
        <time>2016-11-27T12:48:47.000Z</time>
      </trkpt>
      <trkpt lat="46.05698" lon="4.50975">
        <ele>613</ele>
        <time>2016-11-27T12:48:48.000Z</time>
      </trkpt>
      <trkpt lat="46.05698" lon="4.50974">
        <ele>613</ele>
        <time>2016-11-27T12:48:49.000Z</time>
      </trkpt>
      <trkpt lat="46.05699" lon="4.50973">
        <ele>612</ele>
        <time>2016-11-27T12:48:50.000Z</time>
      </trkpt>
      <trkpt lat="46.057" lon="4.50972">
        <ele>612</ele>
        <time>2016-11-27T12:48:51.000Z</time>
      </trkpt>
      <trkpt lat="46.05701" lon="4.5097">
        <ele>611</ele>
        <time>2016-11-27T12:48:52.000Z</time>
      </trkpt>
      <trkpt lat="46.05701" lon="4.50968">
        <ele>611</ele>
        <time>2016-11-27T12:48:53.000Z</time>
      </trkpt>
      <trkpt lat="46.05702" lon="4.50966">
        <ele>610</ele>
        <time>2016-11-27T12:48:54.000Z</time>
      </trkpt>
      <trkpt lat="46.05703" lon="4.50964">
        <ele>610</ele>
        <time>2016-11-27T12:48:55.000Z</time>
      </trkpt>
      <trkpt lat="46.05704" lon="4.50961">
        <ele>609</ele>
        <time>2016-11-27T12:48:56.000Z</time>
      </trkpt>
      <trkpt lat="46.05705" lon="4.50958">
        <ele>608</ele>
        <time>2016-11-27T12:48:57.000Z</time>
      </trkpt>
      <trkpt lat="46.05705" lon="4.50956">
        <ele>607</ele>
        <time>2016-11-27T12:48:58.000Z</time>
      </trkpt>
      <trkpt lat="46.05706" lon="4.50954">
        <ele>606</ele>
        <time>2016-11-27T12:48:59.000Z</time>
      </trkpt>
      <trkpt lat="46.05706" lon="4.50952">
        <ele>606</ele>
        <time>2016-11-27T12:49:00.000Z</time>
      </trkpt>
      <trkpt lat="46.05707" lon="4.5095">
        <ele>605</ele>
        <time>2016-11-27T12:49:01.000Z</time>
      </trkpt>
      <trkpt lat="46.05707" lon="4.50947">
        <ele>603</ele>
        <time>2016-11-27T12:49:02.000Z</time>
      </trkpt>
      <trkpt lat="46.05707" lon="4.50944">
        <ele>603</ele>
        <time>2016-11-27T12:49:03.000Z</time>
      </trkpt>
      <trkpt lat="46.05708" lon="4.50941">
        <ele>601</ele>
        <time>2016-11-27T12:49:04.000Z</time>
      </trkpt>
      <trkpt lat="46.05707" lon="4.50939">
        <ele>598</ele>
        <time>2016-11-27T12:49:05.000Z</time>
      </trkpt>
      <trkpt lat="46.05707" lon="4.50936">
        <ele>597</ele>
        <time>2016-11-27T12:49:06.000Z</time>
      </trkpt>
      <trkpt lat="46.05708" lon="4.50934">
        <ele>598</ele>
        <time>2016-11-27T12:49:07.000Z</time>
      </trkpt>
      <trkpt lat="46.05709" lon="4.50931">
        <ele>598</ele>
        <time>2016-11-27T12:49:08.000Z</time>
      </trkpt>
      <trkpt lat="46.05711" lon="4.50928">
        <ele>597</ele>
        <time>2016-11-27T12:49:09.000Z</time>
      </trkpt>
      <trkpt lat="46.05712" lon="4.50926">
        <ele>597</ele>
        <time>2016-11-27T12:49:10.000Z</time>
      </trkpt>
      <trkpt lat="46.05713" lon="4.50924">
        <ele>596</ele>
        <time>2016-11-27T12:49:11.000Z</time>
      </trkpt>
      <trkpt lat="46.05714" lon="4.50924">
        <ele>596</ele>
        <time>2016-11-27T12:49:12.000Z</time>
      </trkpt>
      <trkpt lat="46.05715" lon="4.50923">
        <ele>597</ele>
        <time>2016-11-27T12:49:13.000Z</time>
      </trkpt>
      <trkpt lat="46.05715" lon="4.50923">
        <ele>597</ele>
        <time>2016-11-27T12:49:14.000Z</time>
      </trkpt>
      <trkpt lat="46.05716" lon="4.50922">
        <ele>598</ele>
        <time>2016-11-27T12:49:15.000Z</time>
      </trkpt>
      <trkpt lat="46.05716" lon="4.50922">
        <ele>598</ele>
        <time>2016-11-27T12:49:16.000Z</time>
      </trkpt>
      <trkpt lat="46.05716" lon="4.50921">
        <ele>597</ele>
        <time>2016-11-27T12:49:17.000Z</time>
      </trkpt>
      <trkpt lat="46.05717" lon="4.5092">
        <ele>598</ele>
        <time>2016-11-27T12:49:18.000Z</time>
      </trkpt>
      <trkpt lat="46.05717" lon="4.5092">
        <ele>598</ele>
        <time>2016-11-27T12:49:19.000Z</time>
      </trkpt>
      <trkpt lat="46.05717" lon="4.50919">
        <ele>598</ele>
        <time>2016-11-27T12:49:20.000Z</time>
      </trkpt>
      <trkpt lat="46.05717" lon="4.50919">
        <ele>598</ele>
        <time>2016-11-27T12:49:21.000Z</time>
      </trkpt>
      <trkpt lat="46.05717" lon="4.50919">
        <ele>598</ele>
        <time>2016-11-27T12:49:22.000Z</time>
      </trkpt>
      <trkpt lat="46.05717" lon="4.50919">
        <ele>597</ele>
        <time>2016-11-27T12:49:23.000Z</time>
      </trkpt>
      <trkpt lat="46.05717" lon="4.50918">
        <ele>597</ele>
        <time>2016-11-27T12:49:24.000Z</time>
      </trkpt>
      <trkpt lat="46.05717" lon="4.50918">
        <ele>596</ele>
        <time>2016-11-27T12:49:25.000Z</time>
      </trkpt>
      <trkpt lat="46.05717" lon="4.50917">
        <ele>596</ele>
        <time>2016-11-27T12:49:26.000Z</time>
      </trkpt>
      <trkpt lat="46.05717" lon="4.50917">
        <ele>596</ele>
        <time>2016-11-27T12:49:27.000Z</time>
      </trkpt>
      <trkpt lat="46.05717" lon="4.50916">
        <ele>596</ele>
        <time>2016-11-27T12:49:28.000Z</time>
      </trkpt>
      <trkpt lat="46.05717" lon="4.50916">
        <ele>596</ele>
        <time>2016-11-27T12:49:29.000Z</time>
      </trkpt>
      <trkpt lat="46.05716" lon="4.50916">
        <ele>596</ele>
        <time>2016-11-27T12:49:30.000Z</time>
      </trkpt>
      <trkpt lat="46.05716" lon="4.50916">
        <ele>596</ele>
        <time>2016-11-27T12:49:31.000Z</time>
      </trkpt>
      <trkpt lat="46.05716" lon="4.50916">
        <ele>597</ele>
        <time>2016-11-27T12:49:32.000Z</time>
      </trkpt>
      <trkpt lat="46.05716" lon="4.50916">
        <ele>596</ele>
        <time>2016-11-27T12:49:33.000Z</time>
      </trkpt>
      <trkpt lat="46.05716" lon="4.50916">
        <ele>596</ele>
        <time>2016-11-27T12:49:34.000Z</time>
      </trkpt>
      <trkpt lat="46.05716" lon="4.50917">
        <ele>597</ele>
        <time>2016-11-27T12:49:35.000Z</time>
      </trkpt>
      <trkpt lat="46.05717" lon="4.50917">
        <ele>597</ele>
        <time>2016-11-27T12:49:36.000Z</time>
      </trkpt>
      <trkpt lat="46.05717" lon="4.50916">
        <ele>597</ele>
        <time>2016-11-27T12:49:37.000Z</time>
      </trkpt>
      <trkpt lat="46.05717" lon="4.50916">
        <ele>596</ele>
        <time>2016-11-27T12:49:38.000Z</time>
      </trkpt>
      <trkpt lat="46.05718" lon="4.50916">
        <ele>596</ele>
        <time>2016-11-27T12:49:39.000Z</time>
      </trkpt>
      <trkpt lat="46.05718" lon="4.50917">
        <ele>596</ele>
        <time>2016-11-27T12:49:40.000Z</time>
      </trkpt>
      <trkpt lat="46.05718" lon="4.50917">
        <ele>596</ele>
        <time>2016-11-27T12:49:41.000Z</time>
      </trkpt>
      <trkpt lat="46.05718" lon="4.50917">
        <ele>596</ele>
        <time>2016-11-27T12:49:42.000Z</time>
      </trkpt>
      <trkpt lat="46.05718" lon="4.50917">
        <ele>596</ele>
        <time>2016-11-27T12:49:43.000Z</time>
      </trkpt>
      <trkpt lat="46.05719" lon="4.50917">
        <ele>596</ele>
        <time>2016-11-27T12:49:44.000Z</time>
      </trkpt>
      <trkpt lat="46.05719" lon="4.50917">
        <ele>596</ele>
        <time>2016-11-27T12:49:45.000Z</time>
      </trkpt>
      <trkpt lat="46.0572" lon="4.50917">
        <ele>596</ele>
        <time>2016-11-27T12:49:46.000Z</time>
      </trkpt>
      <trkpt lat="46.0572" lon="4.50917">
        <ele>595</ele>
        <time>2016-11-27T12:49:47.000Z</time>
      </trkpt>
      <trkpt lat="46.0572" lon="4.50917">
        <ele>595</ele>
        <time>2016-11-27T12:49:48.000Z</time>
      </trkpt>
      <trkpt lat="46.0572" lon="4.50917">
        <ele>596</ele>
        <time>2016-11-27T12:49:49.000Z</time>
      </trkpt>
      <trkpt lat="46.0572" lon="4.50917">
        <ele>596</ele>
        <time>2016-11-27T12:49:50.000Z</time>
      </trkpt>
      <trkpt lat="46.0572" lon="4.50917">
        <ele>596</ele>
        <time>2016-11-27T12:49:51.000Z</time>
      </trkpt>
      <trkpt lat="46.0572" lon="4.50917">
        <ele>596</ele>
        <time>2016-11-27T12:49:52.000Z</time>
      </trkpt>
      <trkpt lat="46.0572" lon="4.50917">
        <ele>597</ele>
        <time>2016-11-27T12:49:53.000Z</time>
      </trkpt>
      <trkpt lat="46.0572" lon="4.50917">
        <ele>597</ele>
        <time>2016-11-27T12:49:54.000Z</time>
      </trkpt>
      <trkpt lat="46.0572" lon="4.50917">
        <ele>597</ele>
        <time>2016-11-27T12:49:55.000Z</time>
      </trkpt>
      <trkpt lat="46.0572" lon="4.50917">
        <ele>597</ele>
        <time>2016-11-27T12:49:56.000Z</time>
      </trkpt>
      <trkpt lat="46.05721" lon="4.50917">
        <ele>597</ele>
        <time>2016-11-27T12:49:57.000Z</time>
      </trkpt>
      <trkpt lat="46.05721" lon="4.50917">
        <ele>597</ele>
        <time>2016-11-27T12:49:58.000Z</time>
      </trkpt>
      <trkpt lat="46.05721" lon="4.50917">
        <ele>597</ele>
        <time>2016-11-27T12:49:59.000Z</time>
      </trkpt>
      <trkpt lat="46.05721" lon="4.50917">
        <ele>597</ele>
        <time>2016-11-27T12:50:00.000Z</time>
      </trkpt>
      <trkpt lat="46.05721" lon="4.50917">
        <ele>598</ele>
        <time>2016-11-27T12:50:01.000Z</time>
      </trkpt>
      <trkpt lat="46.05722" lon="4.50917">
        <ele>599</ele>
        <time>2016-11-27T12:50:02.000Z</time>
      </trkpt>
      <trkpt lat="46.05722" lon="4.50917">
        <ele>599</ele>
        <time>2016-11-27T12:50:03.000Z</time>
      </trkpt>
      <trkpt lat="46.05723" lon="4.50916">
        <ele>599</ele>
        <time>2016-11-27T12:50:04.000Z</time>
      </trkpt>
      <trkpt lat="46.05723" lon="4.50916">
        <ele>600</ele>
        <time>2016-11-27T12:50:05.000Z</time>
      </trkpt>
      <trkpt lat="46.05723" lon="4.50916">
        <ele>600</ele>
        <time>2016-11-27T12:50:06.000Z</time>
      </trkpt>
      <trkpt lat="46.05723" lon="4.50916">
        <ele>600</ele>
        <time>2016-11-27T12:50:07.000Z</time>
      </trkpt>
      <trkpt lat="46.05724" lon="4.50916">
        <ele>600</ele>
        <time>2016-11-27T12:50:08.000Z</time>
      </trkpt>
      <trkpt lat="46.05724" lon="4.50916">
        <ele>600</ele>
        <time>2016-11-27T12:50:09.000Z</time>
      </trkpt>
      <trkpt lat="46.05724" lon="4.50916">
        <ele>600</ele>
        <time>2016-11-27T12:50:10.000Z</time>
      </trkpt>
      <trkpt lat="46.05724" lon="4.50916">
        <ele>599</ele>
        <time>2016-11-27T12:50:11.000Z</time>
      </trkpt>
      <trkpt lat="46.05724" lon="4.50916">
        <ele>599</ele>
        <time>2016-11-27T12:50:12.000Z</time>
      </trkpt>
      <trkpt lat="46.05724" lon="4.50916">
        <ele>599</ele>
        <time>2016-11-27T12:50:13.000Z</time>
      </trkpt>
      <trkpt lat="46.05724" lon="4.50916">
        <ele>599</ele>
        <time>2016-11-27T12:50:14.000Z</time>
      </trkpt>
      <trkpt lat="46.05723" lon="4.50916">
        <ele>598</ele>
        <time>2016-11-27T12:50:15.000Z</time>
      </trkpt>
      <trkpt lat="46.05723" lon="4.50916">
        <ele>598</ele>
        <time>2016-11-27T12:50:16.000Z</time>
      </trkpt>
      <trkpt lat="46.05723" lon="4.50916">
        <ele>598</ele>
        <time>2016-11-27T12:50:17.000Z</time>
      </trkpt>
      <trkpt lat="46.05723" lon="4.50916">
        <ele>598</ele>
        <time>2016-11-27T12:50:18.000Z</time>
      </trkpt>
      <trkpt lat="46.05724" lon="4.50916">
        <ele>598</ele>
        <time>2016-11-27T12:50:19.000Z</time>
      </trkpt>
      <trkpt lat="46.05724" lon="4.50916">
        <ele>598</ele>
        <time>2016-11-27T12:50:20.000Z</time>
      </trkpt>
      <trkpt lat="46.05724" lon="4.50916">
        <ele>598</ele>
        <time>2016-11-27T12:50:21.000Z</time>
      </trkpt>
      <trkpt lat="46.05723" lon="4.50916">
        <ele>598</ele>
        <time>2016-11-27T12:50:22.000Z</time>
      </trkpt>
      <trkpt lat="46.05723" lon="4.50916">
        <ele>598</ele>
        <time>2016-11-27T12:50:23.000Z</time>
      </trkpt>
      <trkpt lat="46.05723" lon="4.50916">
        <ele>598</ele>
        <time>2016-11-27T12:50:24.000Z</time>
      </trkpt>
      <trkpt lat="46.05723" lon="4.50916">
        <ele>598</ele>
        <time>2016-11-27T12:50:25.000Z</time>
      </trkpt>
      <trkpt lat="46.05723" lon="4.50916">
        <ele>598</ele>
        <time>2016-11-27T12:50:26.000Z</time>
      </trkpt>
      <trkpt lat="46.05723" lon="4.50917">
        <ele>599</ele>
        <time>2016-11-27T12:50:27.000Z</time>
      </trkpt>
      <trkpt lat="46.05723" lon="4.50917">
        <ele>599</ele>
        <time>2016-11-27T12:50:28.000Z</time>
      </trkpt>
      <trkpt lat="46.05722" lon="4.50918">
        <ele>599</ele>
        <time>2016-11-27T12:50:29.000Z</time>
      </trkpt>
      <trkpt lat="46.05722" lon="4.50918">
        <ele>598</ele>
        <time>2016-11-27T12:50:30.000Z</time>
      </trkpt>
      <trkpt lat="46.05722" lon="4.50918">
        <ele>598</ele>
        <time>2016-11-27T12:50:31.000Z</time>
      </trkpt>
      <trkpt lat="46.05721" lon="4.50918">
        <ele>598</ele>
        <time>2016-11-27T12:50:32.000Z</time>
      </trkpt>
      <trkpt lat="46.05721" lon="4.50918">
        <ele>599</ele>
        <time>2016-11-27T12:50:33.000Z</time>
      </trkpt>
      <trkpt lat="46.05721" lon="4.50918">
        <ele>599</ele>
        <time>2016-11-27T12:50:34.000Z</time>
      </trkpt>
      <trkpt lat="46.05721" lon="4.50918">
        <ele>600</ele>
        <time>2016-11-27T12:50:35.000Z</time>
      </trkpt>
      <trkpt lat="46.05721" lon="4.50918">
        <ele>600</ele>
        <time>2016-11-27T12:50:36.000Z</time>
      </trkpt>
      <trkpt lat="46.05721" lon="4.50919">
        <ele>599</ele>
        <time>2016-11-27T12:50:37.000Z</time>
      </trkpt>
      <trkpt lat="46.0572" lon="4.50919">
        <ele>599</ele>
        <time>2016-11-27T12:50:38.000Z</time>
      </trkpt>
      <trkpt lat="46.0572" lon="4.50919">
        <ele>599</ele>
        <time>2016-11-27T12:50:39.000Z</time>
      </trkpt>
      <trkpt lat="46.0572" lon="4.5092">
        <ele>599</ele>
        <time>2016-11-27T12:50:40.000Z</time>
      </trkpt>
      <trkpt lat="46.05719" lon="4.5092">
        <ele>599</ele>
        <time>2016-11-27T12:50:41.000Z</time>
      </trkpt>
      <trkpt lat="46.05719" lon="4.5092">
        <ele>599</ele>
        <time>2016-11-27T12:50:42.000Z</time>
      </trkpt>
      <trkpt lat="46.05719" lon="4.5092">
        <ele>599</ele>
        <time>2016-11-27T12:50:43.000Z</time>
      </trkpt>
      <trkpt lat="46.05719" lon="4.50921">
        <ele>599</ele>
        <time>2016-11-27T12:50:44.000Z</time>
      </trkpt>
      <trkpt lat="46.05719" lon="4.50921">
        <ele>600</ele>
        <time>2016-11-27T12:50:45.000Z</time>
      </trkpt>
      <trkpt lat="46.05718" lon="4.50921">
        <ele>600</ele>
        <time>2016-11-27T12:50:46.000Z</time>
      </trkpt>
      <trkpt lat="46.05718" lon="4.50922">
        <ele>601</ele>
        <time>2016-11-27T12:50:47.000Z</time>
      </trkpt>
      <trkpt lat="46.05718" lon="4.50923">
        <ele>601</ele>
        <time>2016-11-27T12:50:48.000Z</time>
      </trkpt>
      <trkpt lat="46.05718" lon="4.50923">
        <ele>602</ele>
        <time>2016-11-27T12:50:49.000Z</time>
      </trkpt>
      <trkpt lat="46.05718" lon="4.50924">
        <ele>602</ele>
        <time>2016-11-27T12:50:50.000Z</time>
      </trkpt>
      <trkpt lat="46.05718" lon="4.50924">
        <ele>602</ele>
        <time>2016-11-27T12:50:51.000Z</time>
      </trkpt>
      <trkpt lat="46.05717" lon="4.50925">
        <ele>603</ele>
        <time>2016-11-27T12:50:52.000Z</time>
      </trkpt>
      <trkpt lat="46.05717" lon="4.50926">
        <ele>603</ele>
        <time>2016-11-27T12:50:53.000Z</time>
      </trkpt>
      <trkpt lat="46.05717" lon="4.50926">
        <ele>604</ele>
        <time>2016-11-27T12:50:54.000Z</time>
      </trkpt>
      <trkpt lat="46.05716" lon="4.50927">
        <ele>605</ele>
        <time>2016-11-27T12:50:55.000Z</time>
      </trkpt>
      <trkpt lat="46.05716" lon="4.50927">
        <ele>605</ele>
        <time>2016-11-27T12:50:56.000Z</time>
      </trkpt>
      <trkpt lat="46.05716" lon="4.50928">
        <ele>606</ele>
        <time>2016-11-27T12:50:57.000Z</time>
      </trkpt>
      <trkpt lat="46.05716" lon="4.50928">
        <ele>606</ele>
        <time>2016-11-27T12:50:58.000Z</time>
      </trkpt>
      <trkpt lat="46.05716" lon="4.50929">
        <ele>607</ele>
        <time>2016-11-27T12:50:59.000Z</time>
      </trkpt>
      <trkpt lat="46.05716" lon="4.50929">
        <ele>608</ele>
        <time>2016-11-27T12:51:00.000Z</time>
      </trkpt>
      <trkpt lat="46.05715" lon="4.5093">
        <ele>608</ele>
        <time>2016-11-27T12:51:01.000Z</time>
      </trkpt>
      <trkpt lat="46.05715" lon="4.5093">
        <ele>609</ele>
        <time>2016-11-27T12:51:02.000Z</time>
      </trkpt>
      <trkpt lat="46.05714" lon="4.50931">
        <ele>609</ele>
        <time>2016-11-27T12:51:03.000Z</time>
      </trkpt>
      <trkpt lat="46.05714" lon="4.50931">
        <ele>610</ele>
        <time>2016-11-27T12:51:04.000Z</time>
      </trkpt>
      <trkpt lat="46.05713" lon="4.50932">
        <ele>610</ele>
        <time>2016-11-27T12:51:05.000Z</time>
      </trkpt>
      <trkpt lat="46.05713" lon="4.50932">
        <ele>611</ele>
        <time>2016-11-27T12:51:06.000Z</time>
      </trkpt>
      <trkpt lat="46.05712" lon="4.50933">
        <ele>612</ele>
        <time>2016-11-27T12:51:07.000Z</time>
      </trkpt>
      <trkpt lat="46.05712" lon="4.50934">
        <ele>613</ele>
        <time>2016-11-27T12:51:08.000Z</time>
      </trkpt>
      <trkpt lat="46.05711" lon="4.50935">
        <ele>614</ele>
        <time>2016-11-27T12:51:09.000Z</time>
      </trkpt>
      <trkpt lat="46.05711" lon="4.50936">
        <ele>615</ele>
        <time>2016-11-27T12:51:10.000Z</time>
      </trkpt>
      <trkpt lat="46.0571" lon="4.50936">
        <ele>616</ele>
        <time>2016-11-27T12:51:11.000Z</time>
      </trkpt>
      <trkpt lat="46.0571" lon="4.50937">
        <ele>618</ele>
        <time>2016-11-27T12:51:12.000Z</time>
      </trkpt>
      <trkpt lat="46.0571" lon="4.50938">
        <ele>618</ele>
        <time>2016-11-27T12:51:13.000Z</time>
      </trkpt>
      <trkpt lat="46.0571" lon="4.50939">
        <ele>618</ele>
        <time>2016-11-27T12:51:14.000Z</time>
      </trkpt>
      <trkpt lat="46.0571" lon="4.5094">
        <ele>618</ele>
        <time>2016-11-27T12:51:15.000Z</time>
      </trkpt>
      <trkpt lat="46.0571" lon="4.5094">
        <ele>619</ele>
        <time>2016-11-27T12:51:16.000Z</time>
      </trkpt>
      <trkpt lat="46.0571" lon="4.50941">
        <ele>620</ele>
        <time>2016-11-27T12:51:17.000Z</time>
      </trkpt>
      <trkpt lat="46.0571" lon="4.50942">
        <ele>620</ele>
        <time>2016-11-27T12:51:18.000Z</time>
      </trkpt>
      <trkpt lat="46.0571" lon="4.50942">
        <ele>620</ele>
        <time>2016-11-27T12:51:19.000Z</time>
      </trkpt>
      <trkpt lat="46.0571" lon="4.50943">
        <ele>620</ele>
        <time>2016-11-27T12:51:20.000Z</time>
      </trkpt>
      <trkpt lat="46.0571" lon="4.50944">
        <ele>620</ele>
        <time>2016-11-27T12:51:21.000Z</time>
      </trkpt>
      <trkpt lat="46.0571" lon="4.50945">
        <ele>620</ele>
        <time>2016-11-27T12:51:22.000Z</time>
      </trkpt>
      <trkpt lat="46.05709" lon="4.50946">
        <ele>620</ele>
        <time>2016-11-27T12:51:23.000Z</time>
      </trkpt>
      <trkpt lat="46.05709" lon="4.50947">
        <ele>619</ele>
        <time>2016-11-27T12:51:24.000Z</time>
      </trkpt>
      <trkpt lat="46.05709" lon="4.50948">
        <ele>619</ele>
        <time>2016-11-27T12:51:25.000Z</time>
      </trkpt>
      <trkpt lat="46.05708" lon="4.50949">
        <ele>619</ele>
        <time>2016-11-27T12:51:26.000Z</time>
      </trkpt>
      <trkpt lat="46.05708" lon="4.5095">
        <ele>620</ele>
        <time>2016-11-27T12:51:27.000Z</time>
      </trkpt>
      <trkpt lat="46.05708" lon="4.50951">
        <ele>621</ele>
        <time>2016-11-27T12:51:28.000Z</time>
      </trkpt>
      <trkpt lat="46.05707" lon="4.50951">
        <ele>621</ele>
        <time>2016-11-27T12:51:29.000Z</time>
      </trkpt>
      <trkpt lat="46.05707" lon="4.50952">
        <ele>621</ele>
        <time>2016-11-27T12:51:30.000Z</time>
      </trkpt>
      <trkpt lat="46.05707" lon="4.50953">
        <ele>621</ele>
        <time>2016-11-27T12:51:31.000Z</time>
      </trkpt>
      <trkpt lat="46.05706" lon="4.50954">
        <ele>621</ele>
        <time>2016-11-27T12:51:32.000Z</time>
      </trkpt>
      <trkpt lat="46.05706" lon="4.50955">
        <ele>622</ele>
        <time>2016-11-27T12:51:33.000Z</time>
      </trkpt>
      <trkpt lat="46.05706" lon="4.50956">
        <ele>621</ele>
        <time>2016-11-27T12:51:34.000Z</time>
      </trkpt>
      <trkpt lat="46.05706" lon="4.50957">
        <ele>621</ele>
        <time>2016-11-27T12:51:35.000Z</time>
      </trkpt>
      <trkpt lat="46.05705" lon="4.50958">
        <ele>620</ele>
        <time>2016-11-27T12:51:36.000Z</time>
      </trkpt>
      <trkpt lat="46.05705" lon="4.50959">
        <ele>621</ele>
        <time>2016-11-27T12:51:37.000Z</time>
      </trkpt>
      <trkpt lat="46.05704" lon="4.5096">
        <ele>622</ele>
        <time>2016-11-27T12:51:38.000Z</time>
      </trkpt>
      <trkpt lat="46.05704" lon="4.50961">
        <ele>622</ele>
        <time>2016-11-27T12:51:39.000Z</time>
      </trkpt>
      <trkpt lat="46.05704" lon="4.50962">
        <ele>621</ele>
        <time>2016-11-27T12:51:40.000Z</time>
      </trkpt>
      <trkpt lat="46.05704" lon="4.50964">
        <ele>620</ele>
        <time>2016-11-27T12:51:41.000Z</time>
      </trkpt>
      <trkpt lat="46.05703" lon="4.50965">
        <ele>620</ele>
        <time>2016-11-27T12:51:42.000Z</time>
      </trkpt>
      <trkpt lat="46.05703" lon="4.50966">
        <ele>621</ele>
        <time>2016-11-27T12:51:43.000Z</time>
      </trkpt>
      <trkpt lat="46.05703" lon="4.50968">
        <ele>621</ele>
        <time>2016-11-27T12:51:44.000Z</time>
      </trkpt>
      <trkpt lat="46.05703" lon="4.50969">
        <ele>620</ele>
        <time>2016-11-27T12:51:45.000Z</time>
      </trkpt>
      <trkpt lat="46.05703" lon="4.5097">
        <ele>621</ele>
        <time>2016-11-27T12:51:46.000Z</time>
      </trkpt>
      <trkpt lat="46.05703" lon="4.50971">
        <ele>621</ele>
        <time>2016-11-27T12:51:47.000Z</time>
      </trkpt>
      <trkpt lat="46.05703" lon="4.50972">
        <ele>621</ele>
        <time>2016-11-27T12:51:48.000Z</time>
      </trkpt>
      <trkpt lat="46.05703" lon="4.50973">
        <ele>621</ele>
        <time>2016-11-27T12:51:49.000Z</time>
      </trkpt>
      <trkpt lat="46.05702" lon="4.50974">
        <ele>621</ele>
        <time>2016-11-27T12:51:50.000Z</time>
      </trkpt>
      <trkpt lat="46.05702" lon="4.50975">
        <ele>619</ele>
        <time>2016-11-27T12:51:51.000Z</time>
      </trkpt>
      <trkpt lat="46.05701" lon="4.50977">
        <ele>619</ele>
        <time>2016-11-27T12:51:52.000Z</time>
      </trkpt>
      <trkpt lat="46.05701" lon="4.50978">
        <ele>619</ele>
        <time>2016-11-27T12:51:53.000Z</time>
      </trkpt>
      <trkpt lat="46.05701" lon="4.50979">
        <ele>620</ele>
        <time>2016-11-27T12:51:54.000Z</time>
      </trkpt>
      <trkpt lat="46.05701" lon="4.5098">
        <ele>620</ele>
        <time>2016-11-27T12:51:55.000Z</time>
      </trkpt>
      <trkpt lat="46.05701" lon="4.50981">
        <ele>618</ele>
        <time>2016-11-27T12:51:56.000Z</time>
      </trkpt>
      <trkpt lat="46.05701" lon="4.50982">
        <ele>619</ele>
        <time>2016-11-27T12:51:57.000Z</time>
      </trkpt>
      <trkpt lat="46.057" lon="4.50983">
        <ele>619</ele>
        <time>2016-11-27T12:51:58.000Z</time>
      </trkpt>
      <trkpt lat="46.05699" lon="4.50984">
        <ele>618</ele>
        <time>2016-11-27T12:51:59.000Z</time>
      </trkpt>
      <trkpt lat="46.05699" lon="4.50985">
        <ele>619</ele>
        <time>2016-11-27T12:52:00.000Z</time>
      </trkpt>
      <trkpt lat="46.05698" lon="4.50986">
        <ele>620</ele>
        <time>2016-11-27T12:52:01.000Z</time>
      </trkpt>
      <trkpt lat="46.05698" lon="4.50987">
        <ele>619</ele>
        <time>2016-11-27T12:52:02.000Z</time>
      </trkpt>
      <trkpt lat="46.05698" lon="4.50988">
        <ele>619</ele>
        <time>2016-11-27T12:52:03.000Z</time>
      </trkpt>
      <trkpt lat="46.05698" lon="4.50989">
        <ele>619</ele>
        <time>2016-11-27T12:52:04.000Z</time>
      </trkpt>
      <trkpt lat="46.05698" lon="4.5099">
        <ele>620</ele>
        <time>2016-11-27T12:52:05.000Z</time>
      </trkpt>
      <trkpt lat="46.05697" lon="4.5099">
        <ele>620</ele>
        <time>2016-11-27T12:52:06.000Z</time>
      </trkpt>
      <trkpt lat="46.05697" lon="4.5099">
        <ele>621</ele>
        <time>2016-11-27T12:52:07.000Z</time>
      </trkpt>
      <trkpt lat="46.05696" lon="4.5099">
        <ele>621</ele>
        <time>2016-11-27T12:52:08.000Z</time>
      </trkpt>
      <trkpt lat="46.05696" lon="4.50991">
        <ele>622</ele>
        <time>2016-11-27T12:52:09.000Z</time>
      </trkpt>
      <trkpt lat="46.05695" lon="4.50991">
        <ele>622</ele>
        <time>2016-11-27T12:52:10.000Z</time>
      </trkpt>
      <trkpt lat="46.05695" lon="4.50992">
        <ele>622</ele>
        <time>2016-11-27T12:52:11.000Z</time>
      </trkpt>
      <trkpt lat="46.05695" lon="4.50993">
        <ele>622</ele>
        <time>2016-11-27T12:52:12.000Z</time>
      </trkpt>
      <trkpt lat="46.05695" lon="4.50994">
        <ele>623</ele>
        <time>2016-11-27T12:52:13.000Z</time>
      </trkpt>
      <trkpt lat="46.05695" lon="4.50994">
        <ele>624</ele>
        <time>2016-11-27T12:52:14.000Z</time>
      </trkpt>
      <trkpt lat="46.05694" lon="4.50995">
        <ele>624</ele>
        <time>2016-11-27T12:52:15.000Z</time>
      </trkpt>
      <trkpt lat="46.05695" lon="4.50996">
        <ele>625</ele>
        <time>2016-11-27T12:52:16.000Z</time>
      </trkpt>
      <trkpt lat="46.05695" lon="4.50997">
        <ele>625</ele>
        <time>2016-11-27T12:52:17.000Z</time>
      </trkpt>
      <trkpt lat="46.05695" lon="4.50997">
        <ele>626</ele>
        <time>2016-11-27T12:52:18.000Z</time>
      </trkpt>
      <trkpt lat="46.05695" lon="4.50998">
        <ele>626</ele>
        <time>2016-11-27T12:52:19.000Z</time>
      </trkpt>
      <trkpt lat="46.05694" lon="4.50998">
        <ele>626</ele>
        <time>2016-11-27T12:52:20.000Z</time>
      </trkpt>
      <trkpt lat="46.05694" lon="4.50999">
        <ele>626</ele>
        <time>2016-11-27T12:52:21.000Z</time>
      </trkpt>
      <trkpt lat="46.05693" lon="4.51">
        <ele>626</ele>
        <time>2016-11-27T12:52:22.000Z</time>
      </trkpt>
      <trkpt lat="46.05693" lon="4.51">
        <ele>626</ele>
        <time>2016-11-27T12:52:23.000Z</time>
      </trkpt>
      <trkpt lat="46.05692" lon="4.51">
        <ele>626</ele>
        <time>2016-11-27T12:52:24.000Z</time>
      </trkpt>
      <trkpt lat="46.05691" lon="4.51">
        <ele>627</ele>
        <time>2016-11-27T12:52:25.000Z</time>
      </trkpt>
      <trkpt lat="46.05691" lon="4.51">
        <ele>627</ele>
        <time>2016-11-27T12:52:26.000Z</time>
      </trkpt>
      <trkpt lat="46.0569" lon="4.51001">
        <ele>627</ele>
        <time>2016-11-27T12:52:27.000Z</time>
      </trkpt>
      <trkpt lat="46.05689" lon="4.51002">
        <ele>627</ele>
        <time>2016-11-27T12:52:28.000Z</time>
      </trkpt>
      <trkpt lat="46.05688" lon="4.51003">
        <ele>628</ele>
        <time>2016-11-27T12:52:29.000Z</time>
      </trkpt>
      <trkpt lat="46.05688" lon="4.51003">
        <ele>629</ele>
        <time>2016-11-27T12:52:30.000Z</time>
      </trkpt>
      <trkpt lat="46.05687" lon="4.51004">
        <ele>629</ele>
        <time>2016-11-27T12:52:31.000Z</time>
      </trkpt>
      <trkpt lat="46.05687" lon="4.51005">
        <ele>629</ele>
        <time>2016-11-27T12:52:32.000Z</time>
      </trkpt>
      <trkpt lat="46.05686" lon="4.51006">
        <ele>630</ele>
        <time>2016-11-27T12:52:33.000Z</time>
      </trkpt>
      <trkpt lat="46.05686" lon="4.51006">
        <ele>630</ele>
        <time>2016-11-27T12:52:34.000Z</time>
      </trkpt>
      <trkpt lat="46.05685" lon="4.51006">
        <ele>630</ele>
        <time>2016-11-27T12:52:35.000Z</time>
      </trkpt>
      <trkpt lat="46.05685" lon="4.51007">
        <ele>630</ele>
        <time>2016-11-27T12:52:36.000Z</time>
      </trkpt>
      <trkpt lat="46.05684" lon="4.51007">
        <ele>630</ele>
        <time>2016-11-27T12:52:37.000Z</time>
      </trkpt>
      <trkpt lat="46.05684" lon="4.51008">
        <ele>631</ele>
        <time>2016-11-27T12:52:38.000Z</time>
      </trkpt>
      <trkpt lat="46.05683" lon="4.51008">
        <ele>631</ele>
        <time>2016-11-27T12:52:39.000Z</time>
      </trkpt>
      <trkpt lat="46.05682" lon="4.51009">
        <ele>632</ele>
        <time>2016-11-27T12:52:40.000Z</time>
      </trkpt>
      <trkpt lat="46.05682" lon="4.51009">
        <ele>632</ele>
        <time>2016-11-27T12:52:41.000Z</time>
      </trkpt>
      <trkpt lat="46.05682" lon="4.5101">
        <ele>631</ele>
        <time>2016-11-27T12:52:42.000Z</time>
      </trkpt>
      <trkpt lat="46.05681" lon="4.5101">
        <ele>632</ele>
        <time>2016-11-27T12:52:43.000Z</time>
      </trkpt>
      <trkpt lat="46.0568" lon="4.51011">
        <ele>632</ele>
        <time>2016-11-27T12:52:44.000Z</time>
      </trkpt>
      <trkpt lat="46.05679" lon="4.51011">
        <ele>633</ele>
        <time>2016-11-27T12:52:45.000Z</time>
      </trkpt>
      <trkpt lat="46.05678" lon="4.51011">
        <ele>633</ele>
        <time>2016-11-27T12:52:46.000Z</time>
      </trkpt>
      <trkpt lat="46.05677" lon="4.51011">
        <ele>633</ele>
        <time>2016-11-27T12:52:47.000Z</time>
      </trkpt>
      <trkpt lat="46.05675" lon="4.5101">
        <ele>633</ele>
        <time>2016-11-27T12:52:48.000Z</time>
      </trkpt>
      <trkpt lat="46.05674" lon="4.5101">
        <ele>633</ele>
        <time>2016-11-27T12:52:49.000Z</time>
      </trkpt>
      <trkpt lat="46.05672" lon="4.5101">
        <ele>632</ele>
        <time>2016-11-27T12:52:50.000Z</time>
      </trkpt>
      <trkpt lat="46.05671" lon="4.5101">
        <ele>633</ele>
        <time>2016-11-27T12:52:51.000Z</time>
      </trkpt>
      <trkpt lat="46.0567" lon="4.51009">
        <ele>632</ele>
        <time>2016-11-27T12:52:52.000Z</time>
      </trkpt>
      <trkpt lat="46.05669" lon="4.51009">
        <ele>632</ele>
        <time>2016-11-27T12:52:53.000Z</time>
      </trkpt>
      <trkpt lat="46.05667" lon="4.51009">
        <ele>632</ele>
        <time>2016-11-27T12:52:54.000Z</time>
      </trkpt>
      <trkpt lat="46.05666" lon="4.51009">
        <ele>632</ele>
        <time>2016-11-27T12:52:55.000Z</time>
      </trkpt>
      <trkpt lat="46.05665" lon="4.51008">
        <ele>632</ele>
        <time>2016-11-27T12:52:56.000Z</time>
      </trkpt>
      <trkpt lat="46.05664" lon="4.51008">
        <ele>633</ele>
        <time>2016-11-27T12:52:57.000Z</time>
      </trkpt>
      <trkpt lat="46.05663" lon="4.51007">
        <ele>632</ele>
        <time>2016-11-27T12:52:58.000Z</time>
      </trkpt>
      <trkpt lat="46.05662" lon="4.51007">
        <ele>633</ele>
        <time>2016-11-27T12:52:59.000Z</time>
      </trkpt>
      <trkpt lat="46.05662" lon="4.51006">
        <ele>634</ele>
        <time>2016-11-27T12:53:00.000Z</time>
      </trkpt>
      <trkpt lat="46.05661" lon="4.51006">
        <ele>634</ele>
        <time>2016-11-27T12:53:01.000Z</time>
      </trkpt>
      <trkpt lat="46.05659" lon="4.51005">
        <ele>634</ele>
        <time>2016-11-27T12:53:02.000Z</time>
      </trkpt>
      <trkpt lat="46.05658" lon="4.51005">
        <ele>635</ele>
        <time>2016-11-27T12:53:03.000Z</time>
      </trkpt>
      <trkpt lat="46.05657" lon="4.51004">
        <ele>636</ele>
        <time>2016-11-27T12:53:04.000Z</time>
      </trkpt>
      <trkpt lat="46.05656" lon="4.51004">
        <ele>637</ele>
        <time>2016-11-27T12:53:05.000Z</time>
      </trkpt>
      <trkpt lat="46.05655" lon="4.51003">
        <ele>637</ele>
        <time>2016-11-27T12:53:06.000Z</time>
      </trkpt>
      <trkpt lat="46.05654" lon="4.51003">
        <ele>637</ele>
        <time>2016-11-27T12:53:07.000Z</time>
      </trkpt>
      <trkpt lat="46.05652" lon="4.51003">
        <ele>638</ele>
        <time>2016-11-27T12:53:08.000Z</time>
      </trkpt>
      <trkpt lat="46.05651" lon="4.51002">
        <ele>638</ele>
        <time>2016-11-27T12:53:09.000Z</time>
      </trkpt>
      <trkpt lat="46.0565" lon="4.51002">
        <ele>639</ele>
        <time>2016-11-27T12:53:10.000Z</time>
      </trkpt>
      <trkpt lat="46.05649" lon="4.51002">
        <ele>639</ele>
        <time>2016-11-27T12:53:11.000Z</time>
      </trkpt>
      <trkpt lat="46.05648" lon="4.51002">
        <ele>639</ele>
        <time>2016-11-27T12:53:12.000Z</time>
      </trkpt>
      <trkpt lat="46.05647" lon="4.51002">
        <ele>640</ele>
        <time>2016-11-27T12:53:13.000Z</time>
      </trkpt>
      <trkpt lat="46.05646" lon="4.51002">
        <ele>639</ele>
        <time>2016-11-27T12:53:14.000Z</time>
      </trkpt>
      <trkpt lat="46.05645" lon="4.51002">
        <ele>639</ele>
        <time>2016-11-27T12:53:15.000Z</time>
      </trkpt>
      <trkpt lat="46.05644" lon="4.51002">
        <ele>639</ele>
        <time>2016-11-27T12:53:16.000Z</time>
      </trkpt>
      <trkpt lat="46.05643" lon="4.51001">
        <ele>639</ele>
        <time>2016-11-27T12:53:17.000Z</time>
      </trkpt>
      <trkpt lat="46.05642" lon="4.51">
        <ele>639</ele>
        <time>2016-11-27T12:53:18.000Z</time>
      </trkpt>
      <trkpt lat="46.05641" lon="4.50999">
        <ele>640</ele>
        <time>2016-11-27T12:53:19.000Z</time>
      </trkpt>
      <trkpt lat="46.0564" lon="4.50998">
        <ele>641</ele>
        <time>2016-11-27T12:53:20.000Z</time>
      </trkpt>
      <trkpt lat="46.0564" lon="4.50997">
        <ele>642</ele>
        <time>2016-11-27T12:53:21.000Z</time>
      </trkpt>
      <trkpt lat="46.0564" lon="4.50995">
        <ele>642</ele>
        <time>2016-11-27T12:53:22.000Z</time>
      </trkpt>
      <trkpt lat="46.0564" lon="4.50994">
        <ele>641</ele>
        <time>2016-11-27T12:53:23.000Z</time>
      </trkpt>
      <trkpt lat="46.05639" lon="4.50993">
        <ele>641</ele>
        <time>2016-11-27T12:53:24.000Z</time>
      </trkpt>
      <trkpt lat="46.05639" lon="4.50992">
        <ele>641</ele>
        <time>2016-11-27T12:53:25.000Z</time>
      </trkpt>
      <trkpt lat="46.05638" lon="4.50991">
        <ele>641</ele>
        <time>2016-11-27T12:53:26.000Z</time>
      </trkpt>
      <trkpt lat="46.05637" lon="4.5099">
        <ele>641</ele>
        <time>2016-11-27T12:53:27.000Z</time>
      </trkpt>
      <trkpt lat="46.05636" lon="4.50988">
        <ele>639</ele>
        <time>2016-11-27T12:53:28.000Z</time>
      </trkpt>
      <trkpt lat="46.05636" lon="4.50986">
        <ele>639</ele>
        <time>2016-11-27T12:53:29.000Z</time>
      </trkpt>
      <trkpt lat="46.05635" lon="4.50984">
        <ele>640</ele>
        <time>2016-11-27T12:53:30.000Z</time>
      </trkpt>
      <trkpt lat="46.05635" lon="4.50982">
        <ele>639</ele>
        <time>2016-11-27T12:53:31.000Z</time>
      </trkpt>
      <trkpt lat="46.05635" lon="4.5098">
        <ele>641</ele>
        <time>2016-11-27T12:53:32.000Z</time>
      </trkpt>
      <trkpt lat="46.05634" lon="4.50978">
        <ele>641</ele>
        <time>2016-11-27T12:53:33.000Z</time>
      </trkpt>
      <trkpt lat="46.05633" lon="4.50975">
        <ele>641</ele>
        <time>2016-11-27T12:53:34.000Z</time>
      </trkpt>
      <trkpt lat="46.05632" lon="4.50973">
        <ele>640</ele>
        <time>2016-11-27T12:53:35.000Z</time>
      </trkpt>
      <trkpt lat="46.05631" lon="4.50972">
        <ele>640</ele>
        <time>2016-11-27T12:53:36.000Z</time>
      </trkpt>
      <trkpt lat="46.0563" lon="4.5097">
        <ele>641</ele>
        <time>2016-11-27T12:53:37.000Z</time>
      </trkpt>
      <trkpt lat="46.0563" lon="4.50967">
        <ele>641</ele>
        <time>2016-11-27T12:53:38.000Z</time>
      </trkpt>
      <trkpt lat="46.0563" lon="4.50965">
        <ele>641</ele>
        <time>2016-11-27T12:53:39.000Z</time>
      </trkpt>
      <trkpt lat="46.05629" lon="4.50963">
        <ele>641</ele>
        <time>2016-11-27T12:53:40.000Z</time>
      </trkpt>
      <trkpt lat="46.05628" lon="4.50961">
        <ele>639</ele>
        <time>2016-11-27T12:53:41.000Z</time>
      </trkpt>
      <trkpt lat="46.05628" lon="4.50959">
        <ele>638</ele>
        <time>2016-11-27T12:53:42.000Z</time>
      </trkpt>
      <trkpt lat="46.05627" lon="4.50957">
        <ele>638</ele>
        <time>2016-11-27T12:53:43.000Z</time>
      </trkpt>
      <trkpt lat="46.05626" lon="4.50954">
        <ele>636</ele>
        <time>2016-11-27T12:53:44.000Z</time>
      </trkpt>
      <trkpt lat="46.05625" lon="4.50952">
        <ele>636</ele>
        <time>2016-11-27T12:53:45.000Z</time>
      </trkpt>
      <trkpt lat="46.05625" lon="4.50951">
        <ele>636</ele>
        <time>2016-11-27T12:53:46.000Z</time>
      </trkpt>
      <trkpt lat="46.05625" lon="4.5095">
        <ele>636</ele>
        <time>2016-11-27T12:53:47.000Z</time>
      </trkpt>
      <trkpt lat="46.05625" lon="4.50949">
        <ele>635</ele>
        <time>2016-11-27T12:53:48.000Z</time>
      </trkpt>
      <trkpt lat="46.05625" lon="4.50949">
        <ele>635</ele>
        <time>2016-11-27T12:53:49.000Z</time>
      </trkpt>
      <trkpt lat="46.05625" lon="4.5095">
        <ele>635</ele>
        <time>2016-11-27T12:53:50.000Z</time>
      </trkpt>
      <trkpt lat="46.05625" lon="4.5095">
        <ele>635</ele>
        <time>2016-11-27T12:53:51.000Z</time>
      </trkpt>
      <trkpt lat="46.05624" lon="4.5095">
        <ele>635</ele>
        <time>2016-11-27T12:53:52.000Z</time>
      </trkpt>
      <trkpt lat="46.05624" lon="4.5095">
        <ele>636</ele>
        <time>2016-11-27T12:53:53.000Z</time>
      </trkpt>
      <trkpt lat="46.05624" lon="4.50949">
        <ele>636</ele>
        <time>2016-11-27T12:53:54.000Z</time>
      </trkpt>
      <trkpt lat="46.05624" lon="4.50949">
        <ele>636</ele>
        <time>2016-11-27T12:53:55.000Z</time>
      </trkpt>
      <trkpt lat="46.05623" lon="4.50949">
        <ele>637</ele>
        <time>2016-11-27T12:53:56.000Z</time>
      </trkpt>
      <trkpt lat="46.05623" lon="4.50949">
        <ele>638</ele>
        <time>2016-11-27T12:53:57.000Z</time>
      </trkpt>
      <trkpt lat="46.05623" lon="4.50949">
        <ele>638</ele>
        <time>2016-11-27T12:53:58.000Z</time>
      </trkpt>
      <trkpt lat="46.05623" lon="4.50948">
        <ele>639</ele>
        <time>2016-11-27T12:53:59.000Z</time>
      </trkpt>
      <trkpt lat="46.05623" lon="4.50948">
        <ele>639</ele>
        <time>2016-11-27T12:54:00.000Z</time>
      </trkpt>
      <trkpt lat="46.05623" lon="4.50948">
        <ele>639</ele>
        <time>2016-11-27T12:54:01.000Z</time>
      </trkpt>
      <trkpt lat="46.05623" lon="4.50948">
        <ele>639</ele>
        <time>2016-11-27T12:54:02.000Z</time>
      </trkpt>
      <trkpt lat="46.05623" lon="4.50948">
        <ele>640</ele>
        <time>2016-11-27T12:54:03.000Z</time>
      </trkpt>
      <trkpt lat="46.05624" lon="4.50947">
        <ele>640</ele>
        <time>2016-11-27T12:54:04.000Z</time>
      </trkpt>
      <trkpt lat="46.05623" lon="4.50947">
        <ele>640</ele>
        <time>2016-11-27T12:54:05.000Z</time>
      </trkpt>
      <trkpt lat="46.05623" lon="4.50947">
        <ele>640</ele>
        <time>2016-11-27T12:54:06.000Z</time>
      </trkpt>
      <trkpt lat="46.05623" lon="4.50945">
        <ele>641</ele>
        <time>2016-11-27T12:54:07.000Z</time>
      </trkpt>
      <trkpt lat="46.05622" lon="4.50944">
        <ele>641</ele>
        <time>2016-11-27T12:54:08.000Z</time>
      </trkpt>
      <trkpt lat="46.05622" lon="4.50942">
        <ele>642</ele>
        <time>2016-11-27T12:54:09.000Z</time>
      </trkpt>
      <trkpt lat="46.05621" lon="4.5094">
        <ele>642</ele>
        <time>2016-11-27T12:54:10.000Z</time>
      </trkpt>
      <trkpt lat="46.05621" lon="4.50937">
        <ele>642</ele>
        <time>2016-11-27T12:54:11.000Z</time>
      </trkpt>
      <trkpt lat="46.05621" lon="4.50936">
        <ele>642</ele>
        <time>2016-11-27T12:54:12.000Z</time>
      </trkpt>
      <trkpt lat="46.05621" lon="4.50934">
        <ele>641</ele>
        <time>2016-11-27T12:54:13.000Z</time>
      </trkpt>
      <trkpt lat="46.0562" lon="4.50932">
        <ele>642</ele>
        <time>2016-11-27T12:54:14.000Z</time>
      </trkpt>
      <trkpt lat="46.0562" lon="4.50931">
        <ele>642</ele>
        <time>2016-11-27T12:54:15.000Z</time>
      </trkpt>
      <trkpt lat="46.0562" lon="4.50929">
        <ele>642</ele>
        <time>2016-11-27T12:54:16.000Z</time>
      </trkpt>
      <trkpt lat="46.05619" lon="4.50928">
        <ele>642</ele>
        <time>2016-11-27T12:54:17.000Z</time>
      </trkpt>
      <trkpt lat="46.05619" lon="4.50927">
        <ele>641</ele>
        <time>2016-11-27T12:54:18.000Z</time>
      </trkpt>
      <trkpt lat="46.05618" lon="4.50925">
        <ele>641</ele>
        <time>2016-11-27T12:54:19.000Z</time>
      </trkpt>
      <trkpt lat="46.05618" lon="4.50924">
        <ele>640</ele>
        <time>2016-11-27T12:54:20.000Z</time>
      </trkpt>
      <trkpt lat="46.05617" lon="4.50922">
        <ele>640</ele>
        <time>2016-11-27T12:54:21.000Z</time>
      </trkpt>
      <trkpt lat="46.05617" lon="4.5092">
        <ele>640</ele>
        <time>2016-11-27T12:54:22.000Z</time>
      </trkpt>
      <trkpt lat="46.05616" lon="4.50919">
        <ele>639</ele>
        <time>2016-11-27T12:54:23.000Z</time>
      </trkpt>
      <trkpt lat="46.05615" lon="4.50917">
        <ele>639</ele>
        <time>2016-11-27T12:54:24.000Z</time>
      </trkpt>
      <trkpt lat="46.05615" lon="4.50915">
        <ele>638</ele>
        <time>2016-11-27T12:54:25.000Z</time>
      </trkpt>
      <trkpt lat="46.05614" lon="4.50914">
        <ele>637</ele>
        <time>2016-11-27T12:54:26.000Z</time>
      </trkpt>
      <trkpt lat="46.05613" lon="4.50912">
        <ele>636</ele>
        <time>2016-11-27T12:54:27.000Z</time>
      </trkpt>
      <trkpt lat="46.05612" lon="4.50911">
        <ele>634</ele>
        <time>2016-11-27T12:54:28.000Z</time>
      </trkpt>
      <trkpt lat="46.05611" lon="4.50909">
        <ele>632</ele>
        <time>2016-11-27T12:54:29.000Z</time>
      </trkpt>
      <trkpt lat="46.0561" lon="4.50907">
        <ele>631</ele>
        <time>2016-11-27T12:54:30.000Z</time>
      </trkpt>
      <trkpt lat="46.05609" lon="4.50904">
        <ele>632</ele>
        <time>2016-11-27T12:54:31.000Z</time>
      </trkpt>
      <trkpt lat="46.05608" lon="4.509">
        <ele>631</ele>
        <time>2016-11-27T12:54:32.000Z</time>
      </trkpt>
      <trkpt lat="46.05608" lon="4.50895">
        <ele>632</ele>
        <time>2016-11-27T12:54:33.000Z</time>
      </trkpt>
      <trkpt lat="46.05607" lon="4.5089">
        <ele>632</ele>
        <time>2016-11-27T12:54:34.000Z</time>
      </trkpt>
      <trkpt lat="46.05606" lon="4.50885">
        <ele>633</ele>
        <time>2016-11-27T12:54:35.000Z</time>
      </trkpt>
      <trkpt lat="46.05604" lon="4.50881">
        <ele>634</ele>
        <time>2016-11-27T12:54:36.000Z</time>
      </trkpt>
      <trkpt lat="46.05603" lon="4.50878">
        <ele>634</ele>
        <time>2016-11-27T12:54:37.000Z</time>
      </trkpt>
      <trkpt lat="46.05602" lon="4.50874">
        <ele>635</ele>
        <time>2016-11-27T12:54:38.000Z</time>
      </trkpt>
      <trkpt lat="46.056" lon="4.50871">
        <ele>634</ele>
        <time>2016-11-27T12:54:39.000Z</time>
      </trkpt>
      <trkpt lat="46.05599" lon="4.50869">
        <ele>634</ele>
        <time>2016-11-27T12:54:40.000Z</time>
      </trkpt>
      <trkpt lat="46.05597" lon="4.50866">
        <ele>633</ele>
        <time>2016-11-27T12:54:41.000Z</time>
      </trkpt>
      <trkpt lat="46.05596" lon="4.50864">
        <ele>631</ele>
        <time>2016-11-27T12:54:42.000Z</time>
      </trkpt>
      <trkpt lat="46.05593" lon="4.50862">
        <ele>630</ele>
        <time>2016-11-27T12:54:43.000Z</time>
      </trkpt>
      <trkpt lat="46.05592" lon="4.50859">
        <ele>630</ele>
        <time>2016-11-27T12:54:44.000Z</time>
      </trkpt>
      <trkpt lat="46.0559" lon="4.50857">
        <ele>631</ele>
        <time>2016-11-27T12:54:45.000Z</time>
      </trkpt>
      <trkpt lat="46.05589" lon="4.50854">
        <ele>631</ele>
        <time>2016-11-27T12:54:46.000Z</time>
      </trkpt>
      <trkpt lat="46.05588" lon="4.50851">
        <ele>630</ele>
        <time>2016-11-27T12:54:47.000Z</time>
      </trkpt>
      <trkpt lat="46.05587" lon="4.50848">
        <ele>629</ele>
        <time>2016-11-27T12:54:48.000Z</time>
      </trkpt>
      <trkpt lat="46.05585" lon="4.50845">
        <ele>628</ele>
        <time>2016-11-27T12:54:49.000Z</time>
      </trkpt>
      <trkpt lat="46.05584" lon="4.50843">
        <ele>628</ele>
        <time>2016-11-27T12:54:50.000Z</time>
      </trkpt>
      <trkpt lat="46.05584" lon="4.5084">
        <ele>628</ele>
        <time>2016-11-27T12:54:51.000Z</time>
      </trkpt>
      <trkpt lat="46.05583" lon="4.50837">
        <ele>627</ele>
        <time>2016-11-27T12:54:52.000Z</time>
      </trkpt>
      <trkpt lat="46.05582" lon="4.50834">
        <ele>626</ele>
        <time>2016-11-27T12:54:53.000Z</time>
      </trkpt>
      <trkpt lat="46.0558" lon="4.50831">
        <ele>627</ele>
        <time>2016-11-27T12:54:54.000Z</time>
      </trkpt>
      <trkpt lat="46.05578" lon="4.50828">
        <ele>628</ele>
        <time>2016-11-27T12:54:55.000Z</time>
      </trkpt>
      <trkpt lat="46.05576" lon="4.50824">
        <ele>627</ele>
        <time>2016-11-27T12:54:56.000Z</time>
      </trkpt>
      <trkpt lat="46.05574" lon="4.50821">
        <ele>627</ele>
        <time>2016-11-27T12:54:57.000Z</time>
      </trkpt>
      <trkpt lat="46.05573" lon="4.50817">
        <ele>627</ele>
        <time>2016-11-27T12:54:58.000Z</time>
      </trkpt>
      <trkpt lat="46.05572" lon="4.50814">
        <ele>626</ele>
        <time>2016-11-27T12:54:59.000Z</time>
      </trkpt>
      <trkpt lat="46.0557" lon="4.50811">
        <ele>626</ele>
        <time>2016-11-27T12:55:00.000Z</time>
      </trkpt>
      <trkpt lat="46.05569" lon="4.50807">
        <ele>625</ele>
        <time>2016-11-27T12:55:01.000Z</time>
      </trkpt>
      <trkpt lat="46.05568" lon="4.50804">
        <ele>625</ele>
        <time>2016-11-27T12:55:02.000Z</time>
      </trkpt>
      <trkpt lat="46.05566" lon="4.508">
        <ele>625</ele>
        <time>2016-11-27T12:55:03.000Z</time>
      </trkpt>
      <trkpt lat="46.05565" lon="4.50796">
        <ele>625</ele>
        <time>2016-11-27T12:55:04.000Z</time>
      </trkpt>
      <trkpt lat="46.05564" lon="4.50793">
        <ele>624</ele>
        <time>2016-11-27T12:55:05.000Z</time>
      </trkpt>
      <trkpt lat="46.05563" lon="4.5079">
        <ele>623</ele>
        <time>2016-11-27T12:55:06.000Z</time>
      </trkpt>
      <trkpt lat="46.05562" lon="4.50788">
        <ele>623</ele>
        <time>2016-11-27T12:55:07.000Z</time>
      </trkpt>
      <trkpt lat="46.05562" lon="4.50785">
        <ele>624</ele>
        <time>2016-11-27T12:55:08.000Z</time>
      </trkpt>
      <trkpt lat="46.05561" lon="4.50783">
        <ele>623</ele>
        <time>2016-11-27T12:55:09.000Z</time>
      </trkpt>
      <trkpt lat="46.05561" lon="4.5078">
        <ele>623</ele>
        <time>2016-11-27T12:55:10.000Z</time>
      </trkpt>
      <trkpt lat="46.0556" lon="4.50778">
        <ele>622</ele>
        <time>2016-11-27T12:55:11.000Z</time>
      </trkpt>
      <trkpt lat="46.0556" lon="4.50775">
        <ele>623</ele>
        <time>2016-11-27T12:55:12.000Z</time>
      </trkpt>
      <trkpt lat="46.05559" lon="4.50773">
        <ele>622</ele>
        <time>2016-11-27T12:55:13.000Z</time>
      </trkpt>
      <trkpt lat="46.05559" lon="4.50772">
        <ele>623</ele>
        <time>2016-11-27T12:55:14.000Z</time>
      </trkpt>
      <trkpt lat="46.05559" lon="4.5077">
        <ele>621</ele>
        <time>2016-11-27T12:55:15.000Z</time>
      </trkpt>
      <trkpt lat="46.05558" lon="4.50769">
        <ele>621</ele>
        <time>2016-11-27T12:55:16.000Z</time>
      </trkpt>
      <trkpt lat="46.05558" lon="4.50767">
        <ele>622</ele>
        <time>2016-11-27T12:55:17.000Z</time>
      </trkpt>
      <trkpt lat="46.05557" lon="4.50765">
        <ele>622</ele>
        <time>2016-11-27T12:55:18.000Z</time>
      </trkpt>
      <trkpt lat="46.05557" lon="4.50764">
        <ele>622</ele>
        <time>2016-11-27T12:55:19.000Z</time>
      </trkpt>
      <trkpt lat="46.05557" lon="4.50764">
        <ele>624</ele>
        <time>2016-11-27T12:55:20.000Z</time>
      </trkpt>
      <trkpt lat="46.05557" lon="4.50763">
        <ele>625</ele>
        <time>2016-11-27T12:55:21.000Z</time>
      </trkpt>
      <trkpt lat="46.05557" lon="4.50762">
        <ele>625</ele>
        <time>2016-11-27T12:55:22.000Z</time>
      </trkpt>
      <trkpt lat="46.05558" lon="4.50761">
        <ele>626</ele>
        <time>2016-11-27T12:55:23.000Z</time>
      </trkpt>
      <trkpt lat="46.05558" lon="4.50761">
        <ele>626</ele>
        <time>2016-11-27T12:55:24.000Z</time>
      </trkpt>
      <trkpt lat="46.05558" lon="4.50761">
        <ele>626</ele>
        <time>2016-11-27T12:55:25.000Z</time>
      </trkpt>
      <trkpt lat="46.05558" lon="4.50762">
        <ele>626</ele>
        <time>2016-11-27T12:55:26.000Z</time>
      </trkpt>
      <trkpt lat="46.05559" lon="4.50762">
        <ele>626</ele>
        <time>2016-11-27T12:55:27.000Z</time>
      </trkpt>
      <trkpt lat="46.05559" lon="4.50762">
        <ele>626</ele>
        <time>2016-11-27T12:55:28.000Z</time>
      </trkpt>
      <trkpt lat="46.05558" lon="4.50762">
        <ele>626</ele>
        <time>2016-11-27T12:55:29.000Z</time>
      </trkpt>
      <trkpt lat="46.05559" lon="4.50761">
        <ele>626</ele>
        <time>2016-11-27T12:55:30.000Z</time>
      </trkpt>
      <trkpt lat="46.05558" lon="4.50761">
        <ele>626</ele>
        <time>2016-11-27T12:55:31.000Z</time>
      </trkpt>
      <trkpt lat="46.05558" lon="4.50761">
        <ele>626</ele>
        <time>2016-11-27T12:55:32.000Z</time>
      </trkpt>
      <trkpt lat="46.05558" lon="4.50761">
        <ele>626</ele>
        <time>2016-11-27T12:55:33.000Z</time>
      </trkpt>
      <trkpt lat="46.05558" lon="4.50761">
        <ele>626</ele>
        <time>2016-11-27T12:55:34.000Z</time>
      </trkpt>
      <trkpt lat="46.05558" lon="4.5076">
        <ele>626</ele>
        <time>2016-11-27T12:55:35.000Z</time>
      </trkpt>
      <trkpt lat="46.05558" lon="4.50759">
        <ele>625</ele>
        <time>2016-11-27T12:55:36.000Z</time>
      </trkpt>
      <trkpt lat="46.05558" lon="4.50758">
        <ele>625</ele>
        <time>2016-11-27T12:55:37.000Z</time>
      </trkpt>
      <trkpt lat="46.05557" lon="4.50757">
        <ele>625</ele>
        <time>2016-11-27T12:55:38.000Z</time>
      </trkpt>
      <trkpt lat="46.05557" lon="4.50756">
        <ele>626</ele>
        <time>2016-11-27T12:55:39.000Z</time>
      </trkpt>
      <trkpt lat="46.05557" lon="4.50756">
        <ele>626</ele>
        <time>2016-11-27T12:55:40.000Z</time>
      </trkpt>
      <trkpt lat="46.05557" lon="4.50754">
        <ele>625</ele>
        <time>2016-11-27T12:55:41.000Z</time>
      </trkpt>
      <trkpt lat="46.05557" lon="4.50753">
        <ele>626</ele>
        <time>2016-11-27T12:55:42.000Z</time>
      </trkpt>
      <trkpt lat="46.05557" lon="4.50751">
        <ele>625</ele>
        <time>2016-11-27T12:55:43.000Z</time>
      </trkpt>
      <trkpt lat="46.05558" lon="4.50748">
        <ele>626</ele>
        <time>2016-11-27T12:55:44.000Z</time>
      </trkpt>
      <trkpt lat="46.05558" lon="4.50745">
        <ele>626</ele>
        <time>2016-11-27T12:55:45.000Z</time>
      </trkpt>
      <trkpt lat="46.05558" lon="4.50743">
        <ele>626</ele>
        <time>2016-11-27T12:55:46.000Z</time>
      </trkpt>
      <trkpt lat="46.05558" lon="4.50741">
        <ele>627</ele>
        <time>2016-11-27T12:55:47.000Z</time>
      </trkpt>
      <trkpt lat="46.05558" lon="4.50739">
        <ele>626</ele>
        <time>2016-11-27T12:55:48.000Z</time>
      </trkpt>
      <trkpt lat="46.05558" lon="4.50737">
        <ele>626</ele>
        <time>2016-11-27T12:55:49.000Z</time>
      </trkpt>
      <trkpt lat="46.05559" lon="4.50735">
        <ele>626</ele>
        <time>2016-11-27T12:55:50.000Z</time>
      </trkpt>
      <trkpt lat="46.05559" lon="4.50733">
        <ele>626</ele>
        <time>2016-11-27T12:55:51.000Z</time>
      </trkpt>
      <trkpt lat="46.05559" lon="4.50731">
        <ele>626</ele>
        <time>2016-11-27T12:55:52.000Z</time>
      </trkpt>
      <trkpt lat="46.0556" lon="4.5073">
        <ele>625</ele>
        <time>2016-11-27T12:55:53.000Z</time>
      </trkpt>
      <trkpt lat="46.0556" lon="4.50728">
        <ele>625</ele>
        <time>2016-11-27T12:55:54.000Z</time>
      </trkpt>
      <trkpt lat="46.0556" lon="4.50726">
        <ele>625</ele>
        <time>2016-11-27T12:55:55.000Z</time>
      </trkpt>
      <trkpt lat="46.05561" lon="4.50724">
        <ele>624</ele>
        <time>2016-11-27T12:55:56.000Z</time>
      </trkpt>
      <trkpt lat="46.05561" lon="4.50722">
        <ele>624</ele>
        <time>2016-11-27T12:55:57.000Z</time>
      </trkpt>
      <trkpt lat="46.05561" lon="4.50721">
        <ele>624</ele>
        <time>2016-11-27T12:55:58.000Z</time>
      </trkpt>
      <trkpt lat="46.05561" lon="4.50719">
        <ele>623</ele>
        <time>2016-11-27T12:55:59.000Z</time>
      </trkpt>
      <trkpt lat="46.05561" lon="4.50717">
        <ele>623</ele>
        <time>2016-11-27T12:56:00.000Z</time>
      </trkpt>
      <trkpt lat="46.0556" lon="4.50715">
        <ele>622</ele>
        <time>2016-11-27T12:56:01.000Z</time>
      </trkpt>
      <trkpt lat="46.0556" lon="4.50713">
        <ele>622</ele>
        <time>2016-11-27T12:56:02.000Z</time>
      </trkpt>
      <trkpt lat="46.0556" lon="4.50712">
        <ele>622</ele>
        <time>2016-11-27T12:56:03.000Z</time>
      </trkpt>
      <trkpt lat="46.0556" lon="4.50711">
        <ele>621</ele>
        <time>2016-11-27T12:56:04.000Z</time>
      </trkpt>
      <trkpt lat="46.05559" lon="4.50709">
        <ele>621</ele>
        <time>2016-11-27T12:56:05.000Z</time>
      </trkpt>
      <trkpt lat="46.05559" lon="4.50708">
        <ele>620</ele>
        <time>2016-11-27T12:56:06.000Z</time>
      </trkpt>
      <trkpt lat="46.0556" lon="4.50707">
        <ele>620</ele>
        <time>2016-11-27T12:56:07.000Z</time>
      </trkpt>
      <trkpt lat="46.0556" lon="4.50705">
        <ele>620</ele>
        <time>2016-11-27T12:56:08.000Z</time>
      </trkpt>
      <trkpt lat="46.0556" lon="4.50703">
        <ele>620</ele>
        <time>2016-11-27T12:56:09.000Z</time>
      </trkpt>
      <trkpt lat="46.05561" lon="4.50701">
        <ele>621</ele>
        <time>2016-11-27T12:56:10.000Z</time>
      </trkpt>
      <trkpt lat="46.05561" lon="4.50699">
        <ele>620</ele>
        <time>2016-11-27T12:56:11.000Z</time>
      </trkpt>
      <trkpt lat="46.05562" lon="4.50697">
        <ele>619</ele>
        <time>2016-11-27T12:56:12.000Z</time>
      </trkpt>
      <trkpt lat="46.05563" lon="4.50694">
        <ele>618</ele>
        <time>2016-11-27T12:56:13.000Z</time>
      </trkpt>
      <trkpt lat="46.05563" lon="4.50692">
        <ele>617</ele>
        <time>2016-11-27T12:56:14.000Z</time>
      </trkpt>
      <trkpt lat="46.05563" lon="4.5069">
        <ele>615</ele>
        <time>2016-11-27T12:56:15.000Z</time>
      </trkpt>
      <trkpt lat="46.05564" lon="4.50688">
        <ele>614</ele>
        <time>2016-11-27T12:56:16.000Z</time>
      </trkpt>
      <trkpt lat="46.05564" lon="4.50686">
        <ele>614</ele>
        <time>2016-11-27T12:56:17.000Z</time>
      </trkpt>
      <trkpt lat="46.05564" lon="4.50683">
        <ele>613</ele>
        <time>2016-11-27T12:56:18.000Z</time>
      </trkpt>
      <trkpt lat="46.05565" lon="4.50681">
        <ele>612</ele>
        <time>2016-11-27T12:56:19.000Z</time>
      </trkpt>
      <trkpt lat="46.05565" lon="4.5068">
        <ele>611</ele>
        <time>2016-11-27T12:56:20.000Z</time>
      </trkpt>
      <trkpt lat="46.05566" lon="4.50678">
        <ele>609</ele>
        <time>2016-11-27T12:56:21.000Z</time>
      </trkpt>
      <trkpt lat="46.05566" lon="4.50676">
        <ele>608</ele>
        <time>2016-11-27T12:56:22.000Z</time>
      </trkpt>
      <trkpt lat="46.05566" lon="4.50674">
        <ele>608</ele>
        <time>2016-11-27T12:56:23.000Z</time>
      </trkpt>
      <trkpt lat="46.05566" lon="4.50672">
        <ele>606</ele>
        <time>2016-11-27T12:56:24.000Z</time>
      </trkpt>
      <trkpt lat="46.05566" lon="4.5067">
        <ele>605</ele>
        <time>2016-11-27T12:56:25.000Z</time>
      </trkpt>
      <trkpt lat="46.05566" lon="4.50667">
        <ele>605</ele>
        <time>2016-11-27T12:56:26.000Z</time>
      </trkpt>
      <trkpt lat="46.05566" lon="4.50665">
        <ele>604</ele>
        <time>2016-11-27T12:56:27.000Z</time>
      </trkpt>
      <trkpt lat="46.05567" lon="4.50662">
        <ele>603</ele>
        <time>2016-11-27T12:56:28.000Z</time>
      </trkpt>
      <trkpt lat="46.05567" lon="4.5066">
        <ele>601</ele>
        <time>2016-11-27T12:56:29.000Z</time>
      </trkpt>
      <trkpt lat="46.05567" lon="4.50658">
        <ele>600</ele>
        <time>2016-11-27T12:56:30.000Z</time>
      </trkpt>
      <trkpt lat="46.05567" lon="4.50655">
        <ele>599</ele>
        <time>2016-11-27T12:56:31.000Z</time>
      </trkpt>
      <trkpt lat="46.05567" lon="4.50653">
        <ele>597</ele>
        <time>2016-11-27T12:56:32.000Z</time>
      </trkpt>
      <trkpt lat="46.05568" lon="4.50651">
        <ele>596</ele>
        <time>2016-11-27T12:56:33.000Z</time>
      </trkpt>
      <trkpt lat="46.05568" lon="4.50648">
        <ele>596</ele>
        <time>2016-11-27T12:56:34.000Z</time>
      </trkpt>
      <trkpt lat="46.05568" lon="4.50646">
        <ele>597</ele>
        <time>2016-11-27T12:56:35.000Z</time>
      </trkpt>
      <trkpt lat="46.05568" lon="4.50643">
        <ele>596</ele>
        <time>2016-11-27T12:56:36.000Z</time>
      </trkpt>
      <trkpt lat="46.05567" lon="4.5064">
        <ele>593</ele>
        <time>2016-11-27T12:56:37.000Z</time>
      </trkpt>
      <trkpt lat="46.05567" lon="4.50638">
        <ele>592</ele>
        <time>2016-11-27T12:56:38.000Z</time>
      </trkpt>
      <trkpt lat="46.05567" lon="4.50634">
        <ele>591</ele>
        <time>2016-11-27T12:56:39.000Z</time>
      </trkpt>
      <trkpt lat="46.05568" lon="4.50631">
        <ele>591</ele>
        <time>2016-11-27T12:56:40.000Z</time>
      </trkpt>
      <trkpt lat="46.05569" lon="4.50628">
        <ele>591</ele>
        <time>2016-11-27T12:56:41.000Z</time>
      </trkpt>
      <trkpt lat="46.0557" lon="4.50624">
        <ele>590</ele>
        <time>2016-11-27T12:56:42.000Z</time>
      </trkpt>
      <trkpt lat="46.0557" lon="4.50621">
        <ele>590</ele>
        <time>2016-11-27T12:56:43.000Z</time>
      </trkpt>
      <trkpt lat="46.05571" lon="4.50618">
        <ele>590</ele>
        <time>2016-11-27T12:56:44.000Z</time>
      </trkpt>
      <trkpt lat="46.05571" lon="4.50615">
        <ele>589</ele>
        <time>2016-11-27T12:56:45.000Z</time>
      </trkpt>
      <trkpt lat="46.05571" lon="4.50612">
        <ele>588</ele>
        <time>2016-11-27T12:56:46.000Z</time>
      </trkpt>
      <trkpt lat="46.05572" lon="4.50609">
        <ele>588</ele>
        <time>2016-11-27T12:56:47.000Z</time>
      </trkpt>
      <trkpt lat="46.05572" lon="4.50607">
        <ele>587</ele>
        <time>2016-11-27T12:56:48.000Z</time>
      </trkpt>
      <trkpt lat="46.05572" lon="4.50604">
        <ele>586</ele>
        <time>2016-11-27T12:56:49.000Z</time>
      </trkpt>
      <trkpt lat="46.05572" lon="4.50602">
        <ele>586</ele>
        <time>2016-11-27T12:56:50.000Z</time>
      </trkpt>
      <trkpt lat="46.05571" lon="4.506">
        <ele>586</ele>
        <time>2016-11-27T12:56:51.000Z</time>
      </trkpt>
      <trkpt lat="46.05571" lon="4.50598">
        <ele>586</ele>
        <time>2016-11-27T12:56:52.000Z</time>
      </trkpt>
      <trkpt lat="46.0557" lon="4.50596">
        <ele>587</ele>
        <time>2016-11-27T12:56:53.000Z</time>
      </trkpt>
      <trkpt lat="46.05569" lon="4.50594">
        <ele>587</ele>
        <time>2016-11-27T12:56:54.000Z</time>
      </trkpt>
      <trkpt lat="46.05569" lon="4.50592">
        <ele>587</ele>
        <time>2016-11-27T12:56:55.000Z</time>
      </trkpt>
      <trkpt lat="46.05569" lon="4.5059">
        <ele>588</ele>
        <time>2016-11-27T12:56:56.000Z</time>
      </trkpt>
      <trkpt lat="46.05569" lon="4.50588">
        <ele>588</ele>
        <time>2016-11-27T12:56:57.000Z</time>
      </trkpt>
      <trkpt lat="46.05569" lon="4.50586">
        <ele>589</ele>
        <time>2016-11-27T12:56:58.000Z</time>
      </trkpt>
      <trkpt lat="46.05569" lon="4.50584">
        <ele>589</ele>
        <time>2016-11-27T12:56:59.000Z</time>
      </trkpt>
      <trkpt lat="46.0557" lon="4.50582">
        <ele>588</ele>
        <time>2016-11-27T12:57:00.000Z</time>
      </trkpt>
      <trkpt lat="46.0557" lon="4.5058">
        <ele>588</ele>
        <time>2016-11-27T12:57:01.000Z</time>
      </trkpt>
      <trkpt lat="46.05571" lon="4.50579">
        <ele>588</ele>
        <time>2016-11-27T12:57:02.000Z</time>
      </trkpt>
      <trkpt lat="46.05571" lon="4.50577">
        <ele>588</ele>
        <time>2016-11-27T12:57:03.000Z</time>
      </trkpt>
      <trkpt lat="46.0557" lon="4.50575">
        <ele>587</ele>
        <time>2016-11-27T12:57:04.000Z</time>
      </trkpt>
      <trkpt lat="46.0557" lon="4.50573">
        <ele>586</ele>
        <time>2016-11-27T12:57:05.000Z</time>
      </trkpt>
      <trkpt lat="46.0557" lon="4.50571">
        <ele>586</ele>
        <time>2016-11-27T12:57:06.000Z</time>
      </trkpt>
      <trkpt lat="46.0557" lon="4.50568">
        <ele>585</ele>
        <time>2016-11-27T12:57:07.000Z</time>
      </trkpt>
      <trkpt lat="46.0557" lon="4.50566">
        <ele>584</ele>
        <time>2016-11-27T12:57:08.000Z</time>
      </trkpt>
      <trkpt lat="46.05569" lon="4.50564">
        <ele>584</ele>
        <time>2016-11-27T12:57:09.000Z</time>
      </trkpt>
      <trkpt lat="46.05569" lon="4.50562">
        <ele>584</ele>
        <time>2016-11-27T12:57:10.000Z</time>
      </trkpt>
      <trkpt lat="46.05568" lon="4.50561">
        <ele>584</ele>
        <time>2016-11-27T12:57:11.000Z</time>
      </trkpt>
      <trkpt lat="46.05567" lon="4.50559">
        <ele>584</ele>
        <time>2016-11-27T12:57:12.000Z</time>
      </trkpt>
      <trkpt lat="46.05567" lon="4.50557">
        <ele>584</ele>
        <time>2016-11-27T12:57:13.000Z</time>
      </trkpt>
      <trkpt lat="46.05566" lon="4.50556">
        <ele>584</ele>
        <time>2016-11-27T12:57:14.000Z</time>
      </trkpt>
      <trkpt lat="46.05565" lon="4.50554">
        <ele>583</ele>
        <time>2016-11-27T12:57:15.000Z</time>
      </trkpt>
      <trkpt lat="46.05565" lon="4.50553">
        <ele>583</ele>
        <time>2016-11-27T12:57:16.000Z</time>
      </trkpt>
      <trkpt lat="46.05564" lon="4.50551">
        <ele>582</ele>
        <time>2016-11-27T12:57:17.000Z</time>
      </trkpt>
      <trkpt lat="46.05563" lon="4.5055">
        <ele>582</ele>
        <time>2016-11-27T12:57:18.000Z</time>
      </trkpt>
      <trkpt lat="46.05562" lon="4.50549">
        <ele>581</ele>
        <time>2016-11-27T12:57:19.000Z</time>
      </trkpt>
      <trkpt lat="46.05561" lon="4.50548">
        <ele>581</ele>
        <time>2016-11-27T12:57:20.000Z</time>
      </trkpt>
      <trkpt lat="46.05559" lon="4.50548">
        <ele>581</ele>
        <time>2016-11-27T12:57:21.000Z</time>
      </trkpt>
      <trkpt lat="46.05557" lon="4.50547">
        <ele>580</ele>
        <time>2016-11-27T12:57:22.000Z</time>
      </trkpt>
      <trkpt lat="46.05556" lon="4.50546">
        <ele>580</ele>
        <time>2016-11-27T12:57:23.000Z</time>
      </trkpt>
      <trkpt lat="46.05554" lon="4.50545">
        <ele>579</ele>
        <time>2016-11-27T12:57:24.000Z</time>
      </trkpt>
      <trkpt lat="46.05552" lon="4.50544">
        <ele>578</ele>
        <time>2016-11-27T12:57:25.000Z</time>
      </trkpt>
      <trkpt lat="46.0555" lon="4.50542">
        <ele>577</ele>
        <time>2016-11-27T12:57:26.000Z</time>
      </trkpt>
      <trkpt lat="46.05549" lon="4.5054">
        <ele>577</ele>
        <time>2016-11-27T12:57:27.000Z</time>
      </trkpt>
      <trkpt lat="46.05547" lon="4.50537">
        <ele>576</ele>
        <time>2016-11-27T12:57:28.000Z</time>
      </trkpt>
      <trkpt lat="46.05546" lon="4.50535">
        <ele>576</ele>
        <time>2016-11-27T12:57:29.000Z</time>
      </trkpt>
      <trkpt lat="46.05545" lon="4.50534">
        <ele>575</ele>
        <time>2016-11-27T12:57:30.000Z</time>
      </trkpt>
      <trkpt lat="46.05545" lon="4.50533">
        <ele>575</ele>
        <time>2016-11-27T12:57:31.000Z</time>
      </trkpt>
      <trkpt lat="46.05544" lon="4.50532">
        <ele>575</ele>
        <time>2016-11-27T12:57:32.000Z</time>
      </trkpt>
      <trkpt lat="46.05544" lon="4.50531">
        <ele>575</ele>
        <time>2016-11-27T12:57:33.000Z</time>
      </trkpt>
      <trkpt lat="46.05545" lon="4.50531">
        <ele>574</ele>
        <time>2016-11-27T12:57:34.000Z</time>
      </trkpt>
      <trkpt lat="46.05546" lon="4.5053">
        <ele>574</ele>
        <time>2016-11-27T12:57:35.000Z</time>
      </trkpt>
      <trkpt lat="46.05547" lon="4.50529">
        <ele>573</ele>
        <time>2016-11-27T12:57:36.000Z</time>
      </trkpt>
      <trkpt lat="46.05549" lon="4.50528">
        <ele>573</ele>
        <time>2016-11-27T12:57:37.000Z</time>
      </trkpt>
      <trkpt lat="46.0555" lon="4.50528">
        <ele>573</ele>
        <time>2016-11-27T12:57:38.000Z</time>
      </trkpt>
      <trkpt lat="46.0555" lon="4.50527">
        <ele>573</ele>
        <time>2016-11-27T12:57:39.000Z</time>
      </trkpt>
      <trkpt lat="46.05551" lon="4.50527">
        <ele>573</ele>
        <time>2016-11-27T12:57:40.000Z</time>
      </trkpt>
      <trkpt lat="46.05551" lon="4.50527">
        <ele>573</ele>
        <time>2016-11-27T12:57:41.000Z</time>
      </trkpt>
      <trkpt lat="46.05551" lon="4.50527">
        <ele>573</ele>
        <time>2016-11-27T12:57:42.000Z</time>
      </trkpt>
      <trkpt lat="46.05551" lon="4.50527">
        <ele>573</ele>
        <time>2016-11-27T12:57:43.000Z</time>
      </trkpt>
      <trkpt lat="46.05551" lon="4.50527">
        <ele>573</ele>
        <time>2016-11-27T12:57:44.000Z</time>
      </trkpt>
      <trkpt lat="46.05551" lon="4.50527">
        <ele>573</ele>
        <time>2016-11-27T12:57:45.000Z</time>
      </trkpt>
      <trkpt lat="46.05551" lon="4.50527">
        <ele>573</ele>
        <time>2016-11-27T12:57:46.000Z</time>
      </trkpt>
      <trkpt lat="46.05551" lon="4.50527">
        <ele>573</ele>
        <time>2016-11-27T12:57:47.000Z</time>
      </trkpt>
      <trkpt lat="46.05551" lon="4.50527">
        <ele>573</ele>
        <time>2016-11-27T12:57:48.000Z</time>
      </trkpt>
      <trkpt lat="46.05551" lon="4.50527">
        <ele>573</ele>
        <time>2016-11-27T12:57:49.000Z</time>
      </trkpt>
      <trkpt lat="46.05551" lon="4.50527">
        <ele>574</ele>
        <time>2016-11-27T12:57:50.000Z</time>
      </trkpt>
      <trkpt lat="46.05551" lon="4.50527">
        <ele>573</ele>
        <time>2016-11-27T12:57:51.000Z</time>
      </trkpt>
      <trkpt lat="46.05551" lon="4.50527">
        <ele>573</ele>
        <time>2016-11-27T12:57:52.000Z</time>
      </trkpt>
      <trkpt lat="46.05551" lon="4.50527">
        <ele>573</ele>
        <time>2016-11-27T12:57:53.000Z</time>
      </trkpt>
      <trkpt lat="46.05551" lon="4.50527">
        <ele>573</ele>
        <time>2016-11-27T12:57:54.000Z</time>
      </trkpt>
      <trkpt lat="46.05551" lon="4.50527">
        <ele>573</ele>
        <time>2016-11-27T12:57:55.000Z</time>
      </trkpt>
      <trkpt lat="46.05551" lon="4.50527">
        <ele>573</ele>
        <time>2016-11-27T12:57:56.000Z</time>
      </trkpt>
      <trkpt lat="46.05551" lon="4.50527">
        <ele>573</ele>
        <time>2016-11-27T12:57:57.000Z</time>
      </trkpt>
      <trkpt lat="46.0555" lon="4.50527">
        <ele>573</ele>
        <time>2016-11-27T12:57:58.000Z</time>
      </trkpt>
      <trkpt lat="46.0555" lon="4.50526">
        <ele>573</ele>
        <time>2016-11-27T12:57:59.000Z</time>
      </trkpt>
      <trkpt lat="46.0555" lon="4.50526">
        <ele>572</ele>
        <time>2016-11-27T12:58:00.000Z</time>
      </trkpt>
      <trkpt lat="46.0555" lon="4.50526">
        <ele>572</ele>
        <time>2016-11-27T12:58:01.000Z</time>
      </trkpt>
      <trkpt lat="46.0555" lon="4.50526">
        <ele>572</ele>
        <time>2016-11-27T12:58:02.000Z</time>
      </trkpt>
      <trkpt lat="46.05551" lon="4.50526">
        <ele>572</ele>
        <time>2016-11-27T12:58:03.000Z</time>
      </trkpt>
      <trkpt lat="46.05551" lon="4.50526">
        <ele>572</ele>
        <time>2016-11-27T12:58:04.000Z</time>
      </trkpt>
      <trkpt lat="46.05551" lon="4.50526">
        <ele>572</ele>
        <time>2016-11-27T12:58:05.000Z</time>
      </trkpt>
      <trkpt lat="46.05551" lon="4.50526">
        <ele>572</ele>
        <time>2016-11-27T12:58:06.000Z</time>
      </trkpt>
      <trkpt lat="46.05551" lon="4.50526">
        <ele>571</ele>
        <time>2016-11-27T12:58:07.000Z</time>
      </trkpt>
      <trkpt lat="46.05551" lon="4.50526">
        <ele>571</ele>
        <time>2016-11-27T12:58:08.000Z</time>
      </trkpt>
      <trkpt lat="46.05551" lon="4.50525">
        <ele>571</ele>
        <time>2016-11-27T12:58:09.000Z</time>
      </trkpt>
      <trkpt lat="46.05551" lon="4.50525">
        <ele>571</ele>
        <time>2016-11-27T12:58:10.000Z</time>
      </trkpt>
      <trkpt lat="46.05552" lon="4.50525">
        <ele>571</ele>
        <time>2016-11-27T12:58:11.000Z</time>
      </trkpt>
      <trkpt lat="46.05553" lon="4.50524">
        <ele>572</ele>
        <time>2016-11-27T12:58:12.000Z</time>
      </trkpt>
      <trkpt lat="46.05553" lon="4.50524">
        <ele>572</ele>
        <time>2016-11-27T12:58:13.000Z</time>
      </trkpt>
      <trkpt lat="46.05554" lon="4.50524">
        <ele>572</ele>
        <time>2016-11-27T12:58:14.000Z</time>
      </trkpt>
      <trkpt lat="46.05554" lon="4.50524">
        <ele>572</ele>
        <time>2016-11-27T12:58:15.000Z</time>
      </trkpt>
      <trkpt lat="46.05554" lon="4.50524">
        <ele>572</ele>
        <time>2016-11-27T12:58:16.000Z</time>
      </trkpt>
      <trkpt lat="46.05554" lon="4.50525">
        <ele>572</ele>
        <time>2016-11-27T12:58:17.000Z</time>
      </trkpt>
      <trkpt lat="46.05553" lon="4.50525">
        <ele>571</ele>
        <time>2016-11-27T12:58:18.000Z</time>
      </trkpt>
      <trkpt lat="46.05553" lon="4.50526">
        <ele>571</ele>
        <time>2016-11-27T12:58:19.000Z</time>
      </trkpt>
      <trkpt lat="46.05552" lon="4.50527">
        <ele>572</ele>
        <time>2016-11-27T12:58:20.000Z</time>
      </trkpt>
      <trkpt lat="46.05551" lon="4.50527">
        <ele>572</ele>
        <time>2016-11-27T12:58:21.000Z</time>
      </trkpt>
      <trkpt lat="46.0555" lon="4.50527">
        <ele>572</ele>
        <time>2016-11-27T12:58:22.000Z</time>
      </trkpt>
      <trkpt lat="46.0555" lon="4.50528">
        <ele>572</ele>
        <time>2016-11-27T12:58:23.000Z</time>
      </trkpt>
      <trkpt lat="46.05549" lon="4.50528">
        <ele>573</ele>
        <time>2016-11-27T12:58:24.000Z</time>
      </trkpt>
      <trkpt lat="46.05549" lon="4.50529">
        <ele>573</ele>
        <time>2016-11-27T12:58:25.000Z</time>
      </trkpt>
      <trkpt lat="46.05549" lon="4.50529">
        <ele>572</ele>
        <time>2016-11-27T12:58:26.000Z</time>
      </trkpt>
      <trkpt lat="46.05549" lon="4.50528">
        <ele>572</ele>
        <time>2016-11-27T12:58:27.000Z</time>
      </trkpt>
      <trkpt lat="46.05549" lon="4.50529">
        <ele>573</ele>
        <time>2016-11-27T12:58:28.000Z</time>
      </trkpt>
      <trkpt lat="46.05548" lon="4.50529">
        <ele>573</ele>
        <time>2016-11-27T12:58:29.000Z</time>
      </trkpt>
      <trkpt lat="46.05548" lon="4.50529">
        <ele>573</ele>
        <time>2016-11-27T12:58:30.000Z</time>
      </trkpt>
      <trkpt lat="46.05548" lon="4.50529">
        <ele>573</ele>
        <time>2016-11-27T12:58:31.000Z</time>
      </trkpt>
      <trkpt lat="46.05548" lon="4.5053">
        <ele>573</ele>
        <time>2016-11-27T12:58:32.000Z</time>
      </trkpt>
      <trkpt lat="46.05548" lon="4.5053">
        <ele>573</ele>
        <time>2016-11-27T12:58:33.000Z</time>
      </trkpt>
      <trkpt lat="46.05548" lon="4.5053">
        <ele>573</ele>
        <time>2016-11-27T12:58:34.000Z</time>
      </trkpt>
      <trkpt lat="46.05548" lon="4.5053">
        <ele>573</ele>
        <time>2016-11-27T12:58:35.000Z</time>
      </trkpt>
      <trkpt lat="46.05548" lon="4.5053">
        <ele>573</ele>
        <time>2016-11-27T12:58:36.000Z</time>
      </trkpt>
      <trkpt lat="46.05548" lon="4.5053">
        <ele>572</ele>
        <time>2016-11-27T12:58:37.000Z</time>
      </trkpt>
      <trkpt lat="46.05548" lon="4.5053">
        <ele>572</ele>
        <time>2016-11-27T12:58:38.000Z</time>
      </trkpt>
      <trkpt lat="46.05548" lon="4.5053">
        <ele>572</ele>
        <time>2016-11-27T12:58:39.000Z</time>
      </trkpt>
      <trkpt lat="46.05548" lon="4.5053">
        <ele>572</ele>
        <time>2016-11-27T12:58:40.000Z</time>
      </trkpt>
      <trkpt lat="46.05548" lon="4.5053">
        <ele>572</ele>
        <time>2016-11-27T12:58:41.000Z</time>
      </trkpt>
      <trkpt lat="46.05548" lon="4.5053">
        <ele>572</ele>
        <time>2016-11-27T12:58:42.000Z</time>
      </trkpt>
      <trkpt lat="46.05548" lon="4.5053">
        <ele>572</ele>
        <time>2016-11-27T12:58:43.000Z</time>
      </trkpt>
      <trkpt lat="46.05548" lon="4.5053">
        <ele>572</ele>
        <time>2016-11-27T12:58:44.000Z</time>
      </trkpt>
      <trkpt lat="46.05548" lon="4.5053">
        <ele>572</ele>
        <time>2016-11-27T12:58:45.000Z</time>
      </trkpt>
      <trkpt lat="46.05548" lon="4.50531">
        <ele>572</ele>
        <time>2016-11-27T12:58:46.000Z</time>
      </trkpt>
      <trkpt lat="46.05548" lon="4.50531">
        <ele>572</ele>
        <time>2016-11-27T12:58:47.000Z</time>
      </trkpt>
      <trkpt lat="46.05548" lon="4.50531">
        <ele>573</ele>
        <time>2016-11-27T12:58:48.000Z</time>
      </trkpt>
      <trkpt lat="46.05548" lon="4.50531">
        <ele>573</ele>
        <time>2016-11-27T12:58:49.000Z</time>
      </trkpt>
      <trkpt lat="46.05548" lon="4.50531">
        <ele>573</ele>
        <time>2016-11-27T12:58:50.000Z</time>
      </trkpt>
      <trkpt lat="46.05548" lon="4.50531">
        <ele>573</ele>
        <time>2016-11-27T12:58:51.000Z</time>
      </trkpt>
      <trkpt lat="46.05548" lon="4.50531">
        <ele>573</ele>
        <time>2016-11-27T12:58:52.000Z</time>
      </trkpt>
      <trkpt lat="46.05548" lon="4.50531">
        <ele>573</ele>
        <time>2016-11-27T12:58:53.000Z</time>
      </trkpt>
      <trkpt lat="46.05548" lon="4.50531">
        <ele>573</ele>
        <time>2016-11-27T12:58:54.000Z</time>
      </trkpt>
      <trkpt lat="46.05548" lon="4.50531">
        <ele>574</ele>
        <time>2016-11-27T12:58:55.000Z</time>
      </trkpt>
      <trkpt lat="46.05548" lon="4.50531">
        <ele>574</ele>
        <time>2016-11-27T12:58:56.000Z</time>
      </trkpt>
      <trkpt lat="46.05548" lon="4.50531">
        <ele>574</ele>
        <time>2016-11-27T12:58:57.000Z</time>
      </trkpt>
      <trkpt lat="46.05548" lon="4.50531">
        <ele>574</ele>
        <time>2016-11-27T12:58:58.000Z</time>
      </trkpt>
      <trkpt lat="46.05548" lon="4.50531">
        <ele>574</ele>
        <time>2016-11-27T12:58:59.000Z</time>
      </trkpt>
      <trkpt lat="46.05548" lon="4.50531">
        <ele>574</ele>
        <time>2016-11-27T12:59:00.000Z</time>
      </trkpt>
      <trkpt lat="46.05547" lon="4.50531">
        <ele>574</ele>
        <time>2016-11-27T12:59:01.000Z</time>
      </trkpt>
      <trkpt lat="46.05547" lon="4.50531">
        <ele>574</ele>
        <time>2016-11-27T12:59:02.000Z</time>
      </trkpt>
      <trkpt lat="46.05547" lon="4.50531">
        <ele>574</ele>
        <time>2016-11-27T12:59:03.000Z</time>
      </trkpt>
      <trkpt lat="46.05547" lon="4.50531">
        <ele>574</ele>
        <time>2016-11-27T12:59:04.000Z</time>
      </trkpt>
      <trkpt lat="46.05547" lon="4.50531">
        <ele>574</ele>
        <time>2016-11-27T12:59:05.000Z</time>
      </trkpt>
      <trkpt lat="46.05547" lon="4.50531">
        <ele>574</ele>
        <time>2016-11-27T12:59:06.000Z</time>
      </trkpt>
      <trkpt lat="46.05547" lon="4.50531">
        <ele>574</ele>
        <time>2016-11-27T12:59:07.000Z</time>
      </trkpt>
      <trkpt lat="46.05547" lon="4.50531">
        <ele>574</ele>
        <time>2016-11-27T12:59:08.000Z</time>
      </trkpt>
      <trkpt lat="46.05547" lon="4.50531">
        <ele>574</ele>
        <time>2016-11-27T12:59:09.000Z</time>
      </trkpt>
      <trkpt lat="46.05547" lon="4.5053">
        <ele>574</ele>
        <time>2016-11-27T12:59:10.000Z</time>
      </trkpt>
      <trkpt lat="46.05547" lon="4.5053">
        <ele>573</ele>
        <time>2016-11-27T12:59:11.000Z</time>
      </trkpt>
      <trkpt lat="46.05547" lon="4.5053">
        <ele>573</ele>
        <time>2016-11-27T12:59:12.000Z</time>
      </trkpt>
      <trkpt lat="46.05546" lon="4.5053">
        <ele>574</ele>
        <time>2016-11-27T12:59:13.000Z</time>
      </trkpt>
      <trkpt lat="46.05546" lon="4.5053">
        <ele>574</ele>
        <time>2016-11-27T12:59:14.000Z</time>
      </trkpt>
      <trkpt lat="46.05546" lon="4.5053">
        <ele>574</ele>
        <time>2016-11-27T12:59:15.000Z</time>
      </trkpt>
      <trkpt lat="46.05546" lon="4.5053">
        <ele>574</ele>
        <time>2016-11-27T12:59:16.000Z</time>
      </trkpt>
      <trkpt lat="46.05546" lon="4.5053">
        <ele>574</ele>
        <time>2016-11-27T12:59:17.000Z</time>
      </trkpt>
      <trkpt lat="46.05546" lon="4.5053">
        <ele>574</ele>
        <time>2016-11-27T12:59:18.000Z</time>
      </trkpt>
      <trkpt lat="46.05546" lon="4.5053">
        <ele>573</ele>
        <time>2016-11-27T12:59:19.000Z</time>
      </trkpt>
      <trkpt lat="46.05546" lon="4.5053">
        <ele>573</ele>
        <time>2016-11-27T12:59:20.000Z</time>
      </trkpt>
      <trkpt lat="46.05546" lon="4.5053">
        <ele>573</ele>
        <time>2016-11-27T12:59:21.000Z</time>
      </trkpt>
      <trkpt lat="46.05546" lon="4.5053">
        <ele>573</ele>
        <time>2016-11-27T12:59:22.000Z</time>
      </trkpt>
      <trkpt lat="46.05546" lon="4.5053">
        <ele>573</ele>
        <time>2016-11-27T12:59:23.000Z</time>
      </trkpt>
      <trkpt lat="46.05546" lon="4.5053">
        <ele>573</ele>
        <time>2016-11-27T12:59:24.000Z</time>
      </trkpt>
      <trkpt lat="46.05546" lon="4.5053">
        <ele>573</ele>
        <time>2016-11-27T12:59:25.000Z</time>
      </trkpt>
      <trkpt lat="46.05546" lon="4.5053">
        <ele>573</ele>
        <time>2016-11-27T12:59:26.000Z</time>
      </trkpt>
      <trkpt lat="46.05546" lon="4.5053">
        <ele>574</ele>
        <time>2016-11-27T12:59:27.000Z</time>
      </trkpt>
      <trkpt lat="46.05546" lon="4.5053">
        <ele>574</ele>
        <time>2016-11-27T12:59:28.000Z</time>
      </trkpt>
      <trkpt lat="46.05546" lon="4.5053">
        <ele>574</ele>
        <time>2016-11-27T12:59:29.000Z</time>
      </trkpt>
      <trkpt lat="46.05546" lon="4.5053">
        <ele>574</ele>
        <time>2016-11-27T12:59:30.000Z</time>
      </trkpt>
      <trkpt lat="46.05546" lon="4.5053">
        <ele>574</ele>
        <time>2016-11-27T12:59:31.000Z</time>
      </trkpt>
      <trkpt lat="46.05546" lon="4.50531">
        <ele>574</ele>
        <time>2016-11-27T12:59:32.000Z</time>
      </trkpt>
      <trkpt lat="46.05546" lon="4.50531">
        <ele>574</ele>
        <time>2016-11-27T12:59:33.000Z</time>
      </trkpt>
      <trkpt lat="46.05546" lon="4.50531">
        <ele>575</ele>
        <time>2016-11-27T12:59:34.000Z</time>
      </trkpt>
      <trkpt lat="46.05547" lon="4.50531">
        <ele>575</ele>
        <time>2016-11-27T12:59:35.000Z</time>
      </trkpt>
      <trkpt lat="46.05546" lon="4.5053">
        <ele>575</ele>
        <time>2016-11-27T12:59:36.000Z</time>
      </trkpt>
      <trkpt lat="46.05547" lon="4.5053">
        <ele>575</ele>
        <time>2016-11-27T12:59:37.000Z</time>
      </trkpt>
      <trkpt lat="46.05547" lon="4.5053">
        <ele>575</ele>
        <time>2016-11-27T12:59:38.000Z</time>
      </trkpt>
      <trkpt lat="46.05547" lon="4.5053">
        <ele>575</ele>
        <time>2016-11-27T12:59:39.000Z</time>
      </trkpt>
      <trkpt lat="46.05547" lon="4.5053">
        <ele>575</ele>
        <time>2016-11-27T12:59:40.000Z</time>
      </trkpt>
      <trkpt lat="46.05547" lon="4.5053">
        <ele>575</ele>
        <time>2016-11-27T12:59:41.000Z</time>
      </trkpt>
      <trkpt lat="46.05547" lon="4.5053">
        <ele>575</ele>
        <time>2016-11-27T12:59:42.000Z</time>
      </trkpt>
      <trkpt lat="46.05547" lon="4.5053">
        <ele>575</ele>
        <time>2016-11-27T12:59:43.000Z</time>
      </trkpt>
      <trkpt lat="46.05547" lon="4.5053">
        <ele>575</ele>
        <time>2016-11-27T12:59:44.000Z</time>
      </trkpt>
      <trkpt lat="46.05547" lon="4.5053">
        <ele>575</ele>
        <time>2016-11-27T12:59:45.000Z</time>
      </trkpt>
      <trkpt lat="46.05547" lon="4.50531">
        <ele>575</ele>
        <time>2016-11-27T12:59:46.000Z</time>
      </trkpt>
      <trkpt lat="46.05547" lon="4.50531">
        <ele>575</ele>
        <time>2016-11-27T12:59:47.000Z</time>
      </trkpt>
      <trkpt lat="46.05547" lon="4.50531">
        <ele>575</ele>
        <time>2016-11-27T12:59:48.000Z</time>
      </trkpt>
      <trkpt lat="46.05547" lon="4.50531">
        <ele>574</ele>
        <time>2016-11-27T12:59:49.000Z</time>
      </trkpt>
      <trkpt lat="46.05547" lon="4.50531">
        <ele>575</ele>
        <time>2016-11-27T12:59:50.000Z</time>
      </trkpt>
      <trkpt lat="46.05547" lon="4.50531">
        <ele>575</ele>
        <time>2016-11-27T12:59:51.000Z</time>
      </trkpt>
      <trkpt lat="46.05547" lon="4.50531">
        <ele>575</ele>
        <time>2016-11-27T12:59:52.000Z</time>
      </trkpt>
      <trkpt lat="46.05547" lon="4.50531">
        <ele>575</ele>
        <time>2016-11-27T12:59:53.000Z</time>
      </trkpt>
      <trkpt lat="46.05547" lon="4.50531">
        <ele>575</ele>
        <time>2016-11-27T12:59:54.000Z</time>
      </trkpt>
      <trkpt lat="46.05547" lon="4.50531">
        <ele>574</ele>
        <time>2016-11-27T12:59:55.000Z</time>
      </trkpt>
      <trkpt lat="46.05547" lon="4.50531">
        <ele>574</ele>
        <time>2016-11-27T12:59:56.000Z</time>
      </trkpt>
      <trkpt lat="46.05547" lon="4.50531">
        <ele>574</ele>
        <time>2016-11-27T12:59:57.000Z</time>
      </trkpt>
      <trkpt lat="46.05547" lon="4.50531">
        <ele>574</ele>
        <time>2016-11-27T12:59:58.000Z</time>
      </trkpt>
      <trkpt lat="46.05547" lon="4.5053">
        <ele>574</ele>
        <time>2016-11-27T12:59:59.000Z</time>
      </trkpt>
      <trkpt lat="46.05547" lon="4.5053">
        <ele>574</ele>
        <time>2016-11-27T13:00:00.000Z</time>
      </trkpt>
      <trkpt lat="46.05548" lon="4.5053">
        <ele>573</ele>
        <time>2016-11-27T13:00:01.000Z</time>
      </trkpt>
      <trkpt lat="46.0555" lon="4.50529">
        <ele>573</ele>
        <time>2016-11-27T13:00:02.000Z</time>
      </trkpt>
      <trkpt lat="46.05551" lon="4.50528">
        <ele>573</ele>
        <time>2016-11-27T13:00:03.000Z</time>
      </trkpt>
      <trkpt lat="46.05553" lon="4.50526">
        <ele>573</ele>
        <time>2016-11-27T13:00:04.000Z</time>
      </trkpt>
      <trkpt lat="46.05554" lon="4.50525">
        <ele>573</ele>
        <time>2016-11-27T13:00:05.000Z</time>
      </trkpt>
      <trkpt lat="46.05556" lon="4.50524">
        <ele>572</ele>
        <time>2016-11-27T13:00:06.000Z</time>
      </trkpt>
      <trkpt lat="46.05558" lon="4.50523">
        <ele>573</ele>
        <time>2016-11-27T13:00:07.000Z</time>
      </trkpt>
      <trkpt lat="46.05559" lon="4.50522">
        <ele>573</ele>
        <time>2016-11-27T13:00:08.000Z</time>
      </trkpt>
      <trkpt lat="46.05561" lon="4.50521">
        <ele>572</ele>
        <time>2016-11-27T13:00:09.000Z</time>
      </trkpt>
      <trkpt lat="46.05563" lon="4.50519">
        <ele>571</ele>
        <time>2016-11-27T13:00:10.000Z</time>
      </trkpt>
      <trkpt lat="46.05563" lon="4.50517">
        <ele>571</ele>
        <time>2016-11-27T13:00:11.000Z</time>
      </trkpt>
      <trkpt lat="46.05564" lon="4.50514">
        <ele>571</ele>
        <time>2016-11-27T13:00:12.000Z</time>
      </trkpt>
      <trkpt lat="46.05563" lon="4.50511">
        <ele>570</ele>
        <time>2016-11-27T13:00:13.000Z</time>
      </trkpt>
      <trkpt lat="46.05563" lon="4.50509">
        <ele>570</ele>
        <time>2016-11-27T13:00:14.000Z</time>
      </trkpt>
      <trkpt lat="46.05562" lon="4.50506">
        <ele>569</ele>
        <time>2016-11-27T13:00:15.000Z</time>
      </trkpt>
      <trkpt lat="46.05562" lon="4.50504">
        <ele>568</ele>
        <time>2016-11-27T13:00:16.000Z</time>
      </trkpt>
      <trkpt lat="46.05561" lon="4.50501">
        <ele>568</ele>
        <time>2016-11-27T13:00:17.000Z</time>
      </trkpt>
      <trkpt lat="46.0556" lon="4.50498">
        <ele>567</ele>
        <time>2016-11-27T13:00:18.000Z</time>
      </trkpt>
      <trkpt lat="46.0556" lon="4.50496">
        <ele>566</ele>
        <time>2016-11-27T13:00:19.000Z</time>
      </trkpt>
      <trkpt lat="46.05559" lon="4.50493">
        <ele>565</ele>
        <time>2016-11-27T13:00:20.000Z</time>
      </trkpt>
      <trkpt lat="46.05559" lon="4.5049">
        <ele>564</ele>
        <time>2016-11-27T13:00:21.000Z</time>
      </trkpt>
      <trkpt lat="46.05559" lon="4.50487">
        <ele>564</ele>
        <time>2016-11-27T13:00:22.000Z</time>
      </trkpt>
      <trkpt lat="46.05559" lon="4.50483">
        <ele>562</ele>
        <time>2016-11-27T13:00:23.000Z</time>
      </trkpt>
      <trkpt lat="46.05559" lon="4.5048">
        <ele>562</ele>
        <time>2016-11-27T13:00:24.000Z</time>
      </trkpt>
      <trkpt lat="46.0556" lon="4.50476">
        <ele>561</ele>
        <time>2016-11-27T13:00:25.000Z</time>
      </trkpt>
      <trkpt lat="46.05562" lon="4.50473">
        <ele>561</ele>
        <time>2016-11-27T13:00:26.000Z</time>
      </trkpt>
      <trkpt lat="46.05563" lon="4.5047">
        <ele>561</ele>
        <time>2016-11-27T13:00:27.000Z</time>
      </trkpt>
      <trkpt lat="46.05565" lon="4.50468">
        <ele>561</ele>
        <time>2016-11-27T13:00:28.000Z</time>
      </trkpt>
      <trkpt lat="46.05567" lon="4.50466">
        <ele>561</ele>
        <time>2016-11-27T13:00:29.000Z</time>
      </trkpt>
      <trkpt lat="46.05568" lon="4.50464">
        <ele>561</ele>
        <time>2016-11-27T13:00:30.000Z</time>
      </trkpt>
      <trkpt lat="46.05569" lon="4.50463">
        <ele>562</ele>
        <time>2016-11-27T13:00:31.000Z</time>
      </trkpt>
      <trkpt lat="46.0557" lon="4.50463">
        <ele>561</ele>
        <time>2016-11-27T13:00:32.000Z</time>
      </trkpt>
      <trkpt lat="46.05572" lon="4.50463">
        <ele>561</ele>
        <time>2016-11-27T13:00:33.000Z</time>
      </trkpt>
      <trkpt lat="46.05573" lon="4.50463">
        <ele>561</ele>
        <time>2016-11-27T13:00:34.000Z</time>
      </trkpt>
      <trkpt lat="46.05576" lon="4.50463">
        <ele>560</ele>
        <time>2016-11-27T13:00:35.000Z</time>
      </trkpt>
      <trkpt lat="46.05578" lon="4.50463">
        <ele>560</ele>
        <time>2016-11-27T13:00:36.000Z</time>
      </trkpt>
      <trkpt lat="46.0558" lon="4.50463">
        <ele>560</ele>
        <time>2016-11-27T13:00:37.000Z</time>
      </trkpt>
      <trkpt lat="46.05583" lon="4.50463">
        <ele>560</ele>
        <time>2016-11-27T13:00:38.000Z</time>
      </trkpt>
      <trkpt lat="46.05585" lon="4.50464">
        <ele>560</ele>
        <time>2016-11-27T13:00:39.000Z</time>
      </trkpt>
      <trkpt lat="46.05587" lon="4.50464">
        <ele>561</ele>
        <time>2016-11-27T13:00:40.000Z</time>
      </trkpt>
      <trkpt lat="46.0559" lon="4.50464">
        <ele>561</ele>
        <time>2016-11-27T13:00:41.000Z</time>
      </trkpt>
      <trkpt lat="46.05592" lon="4.50464">
        <ele>562</ele>
        <time>2016-11-27T13:00:42.000Z</time>
      </trkpt>
      <trkpt lat="46.05594" lon="4.50464">
        <ele>562</ele>
        <time>2016-11-27T13:00:43.000Z</time>
      </trkpt>
      <trkpt lat="46.05596" lon="4.50464">
        <ele>562</ele>
        <time>2016-11-27T13:00:44.000Z</time>
      </trkpt>
      <trkpt lat="46.05597" lon="4.50463">
        <ele>560</ele>
        <time>2016-11-27T13:00:45.000Z</time>
      </trkpt>
      <trkpt lat="46.05598" lon="4.50462">
        <ele>559</ele>
        <time>2016-11-27T13:00:46.000Z</time>
      </trkpt>
      <trkpt lat="46.05599" lon="4.50459">
        <ele>558</ele>
        <time>2016-11-27T13:00:47.000Z</time>
      </trkpt>
      <trkpt lat="46.05599" lon="4.50457">
        <ele>558</ele>
        <time>2016-11-27T13:00:48.000Z</time>
      </trkpt>
      <trkpt lat="46.05599" lon="4.50454">
        <ele>558</ele>
        <time>2016-11-27T13:00:49.000Z</time>
      </trkpt>
      <trkpt lat="46.05599" lon="4.50452">
        <ele>556</ele>
        <time>2016-11-27T13:00:50.000Z</time>
      </trkpt>
      <trkpt lat="46.05598" lon="4.5045">
        <ele>556</ele>
        <time>2016-11-27T13:00:51.000Z</time>
      </trkpt>
      <trkpt lat="46.05597" lon="4.50447">
        <ele>555</ele>
        <time>2016-11-27T13:00:52.000Z</time>
      </trkpt>
      <trkpt lat="46.05597" lon="4.50445">
        <ele>555</ele>
        <time>2016-11-27T13:00:53.000Z</time>
      </trkpt>
      <trkpt lat="46.05596" lon="4.50443">
        <ele>553</ele>
        <time>2016-11-27T13:00:54.000Z</time>
      </trkpt>
      <trkpt lat="46.05594" lon="4.5044">
        <ele>552</ele>
        <time>2016-11-27T13:00:55.000Z</time>
      </trkpt>
      <trkpt lat="46.05593" lon="4.50438">
        <ele>551</ele>
        <time>2016-11-27T13:00:56.000Z</time>
      </trkpt>
      <trkpt lat="46.05591" lon="4.50436">
        <ele>550</ele>
        <time>2016-11-27T13:00:57.000Z</time>
      </trkpt>
      <trkpt lat="46.05589" lon="4.50434">
        <ele>549</ele>
        <time>2016-11-27T13:00:58.000Z</time>
      </trkpt>
      <trkpt lat="46.05587" lon="4.50433">
        <ele>550</ele>
        <time>2016-11-27T13:00:59.000Z</time>
      </trkpt>
      <trkpt lat="46.05585" lon="4.50432">
        <ele>550</ele>
        <time>2016-11-27T13:01:00.000Z</time>
      </trkpt>
      <trkpt lat="46.05584" lon="4.50431">
        <ele>550</ele>
        <time>2016-11-27T13:01:01.000Z</time>
      </trkpt>
      <trkpt lat="46.05583" lon="4.50429">
        <ele>550</ele>
        <time>2016-11-27T13:01:02.000Z</time>
      </trkpt>
      <trkpt lat="46.05581" lon="4.50428">
        <ele>550</ele>
        <time>2016-11-27T13:01:03.000Z</time>
      </trkpt>
      <trkpt lat="46.0558" lon="4.50427">
        <ele>550</ele>
        <time>2016-11-27T13:01:04.000Z</time>
      </trkpt>
      <trkpt lat="46.05578" lon="4.50426">
        <ele>550</ele>
        <time>2016-11-27T13:01:05.000Z</time>
      </trkpt>
      <trkpt lat="46.05577" lon="4.50424">
        <ele>550</ele>
        <time>2016-11-27T13:01:06.000Z</time>
      </trkpt>
      <trkpt lat="46.05576" lon="4.50423">
        <ele>550</ele>
        <time>2016-11-27T13:01:07.000Z</time>
      </trkpt>
      <trkpt lat="46.05574" lon="4.50422">
        <ele>551</ele>
        <time>2016-11-27T13:01:08.000Z</time>
      </trkpt>
      <trkpt lat="46.05572" lon="4.50421">
        <ele>551</ele>
        <time>2016-11-27T13:01:09.000Z</time>
      </trkpt>
      <trkpt lat="46.05571" lon="4.5042">
        <ele>551</ele>
        <time>2016-11-27T13:01:10.000Z</time>
      </trkpt>
      <trkpt lat="46.05569" lon="4.5042">
        <ele>551</ele>
        <time>2016-11-27T13:01:11.000Z</time>
      </trkpt>
      <trkpt lat="46.05567" lon="4.50419">
        <ele>551</ele>
        <time>2016-11-27T13:01:12.000Z</time>
      </trkpt>
      <trkpt lat="46.05565" lon="4.50419">
        <ele>552</ele>
        <time>2016-11-27T13:01:13.000Z</time>
      </trkpt>
      <trkpt lat="46.05563" lon="4.50418">
        <ele>552</ele>
        <time>2016-11-27T13:01:14.000Z</time>
      </trkpt>
      <trkpt lat="46.05561" lon="4.50417">
        <ele>553</ele>
        <time>2016-11-27T13:01:15.000Z</time>
      </trkpt>
      <trkpt lat="46.05558" lon="4.50416">
        <ele>553</ele>
        <time>2016-11-27T13:01:16.000Z</time>
      </trkpt>
      <trkpt lat="46.05556" lon="4.50414">
        <ele>553</ele>
        <time>2016-11-27T13:01:17.000Z</time>
      </trkpt>
      <trkpt lat="46.05554" lon="4.50413">
        <ele>553</ele>
        <time>2016-11-27T13:01:18.000Z</time>
      </trkpt>
      <trkpt lat="46.05552" lon="4.50411">
        <ele>553</ele>
        <time>2016-11-27T13:01:19.000Z</time>
      </trkpt>
      <trkpt lat="46.0555" lon="4.50407">
        <ele>553</ele>
        <time>2016-11-27T13:01:20.000Z</time>
      </trkpt>
      <trkpt lat="46.0555" lon="4.50404">
        <ele>554</ele>
        <time>2016-11-27T13:01:21.000Z</time>
      </trkpt>
      <trkpt lat="46.0555" lon="4.504">
        <ele>554</ele>
        <time>2016-11-27T13:01:22.000Z</time>
      </trkpt>
      <trkpt lat="46.05551" lon="4.50397">
        <ele>555</ele>
        <time>2016-11-27T13:01:23.000Z</time>
      </trkpt>
      <trkpt lat="46.05551" lon="4.50394">
        <ele>554</ele>
        <time>2016-11-27T13:01:24.000Z</time>
      </trkpt>
      <trkpt lat="46.05552" lon="4.50392">
        <ele>554</ele>
        <time>2016-11-27T13:01:25.000Z</time>
      </trkpt>
      <trkpt lat="46.05554" lon="4.50391">
        <ele>554</ele>
        <time>2016-11-27T13:01:26.000Z</time>
      </trkpt>
      <trkpt lat="46.05555" lon="4.5039">
        <ele>553</ele>
        <time>2016-11-27T13:01:27.000Z</time>
      </trkpt>
      <trkpt lat="46.05556" lon="4.50389">
        <ele>553</ele>
        <time>2016-11-27T13:01:28.000Z</time>
      </trkpt>
      <trkpt lat="46.05557" lon="4.50388">
        <ele>553</ele>
        <time>2016-11-27T13:01:29.000Z</time>
      </trkpt>
      <trkpt lat="46.05558" lon="4.50388">
        <ele>552</ele>
        <time>2016-11-27T13:01:30.000Z</time>
      </trkpt>
      <trkpt lat="46.05559" lon="4.50388">
        <ele>552</ele>
        <time>2016-11-27T13:01:31.000Z</time>
      </trkpt>
      <trkpt lat="46.05559" lon="4.50388">
        <ele>552</ele>
        <time>2016-11-27T13:01:32.000Z</time>
      </trkpt>
      <trkpt lat="46.05559" lon="4.50388">
        <ele>551</ele>
        <time>2016-11-27T13:01:33.000Z</time>
      </trkpt>
      <trkpt lat="46.0556" lon="4.50388">
        <ele>551</ele>
        <time>2016-11-27T13:01:34.000Z</time>
      </trkpt>
      <trkpt lat="46.0556" lon="4.50388">
        <ele>551</ele>
        <time>2016-11-27T13:01:35.000Z</time>
      </trkpt>
      <trkpt lat="46.0556" lon="4.50388">
        <ele>551</ele>
        <time>2016-11-27T13:01:36.000Z</time>
      </trkpt>
      <trkpt lat="46.05561" lon="4.50388">
        <ele>551</ele>
        <time>2016-11-27T13:01:37.000Z</time>
      </trkpt>
      <trkpt lat="46.05562" lon="4.50388">
        <ele>550</ele>
        <time>2016-11-27T13:01:38.000Z</time>
      </trkpt>
      <trkpt lat="46.05561" lon="4.50388">
        <ele>550</ele>
        <time>2016-11-27T13:01:39.000Z</time>
      </trkpt>
      <trkpt lat="46.05561" lon="4.50389">
        <ele>550</ele>
        <time>2016-11-27T13:01:40.000Z</time>
      </trkpt>
      <trkpt lat="46.0556" lon="4.50389">
        <ele>550</ele>
        <time>2016-11-27T13:01:41.000Z</time>
      </trkpt>
      <trkpt lat="46.05559" lon="4.50389">
        <ele>550</ele>
        <time>2016-11-27T13:01:42.000Z</time>
      </trkpt>
      <trkpt lat="46.05559" lon="4.50389">
        <ele>550</ele>
        <time>2016-11-27T13:01:43.000Z</time>
      </trkpt>
      <trkpt lat="46.05559" lon="4.50389">
        <ele>550</ele>
        <time>2016-11-27T13:01:44.000Z</time>
      </trkpt>
      <trkpt lat="46.05559" lon="4.50389">
        <ele>550</ele>
        <time>2016-11-27T13:01:45.000Z</time>
      </trkpt>
      <trkpt lat="46.05559" lon="4.50389">
        <ele>550</ele>
        <time>2016-11-27T13:01:46.000Z</time>
      </trkpt>
      <trkpt lat="46.05559" lon="4.50389">
        <ele>550</ele>
        <time>2016-11-27T13:01:47.000Z</time>
      </trkpt>
      <trkpt lat="46.05559" lon="4.50389">
        <ele>550</ele>
        <time>2016-11-27T13:01:48.000Z</time>
      </trkpt>
      <trkpt lat="46.05559" lon="4.50389">
        <ele>550</ele>
        <time>2016-11-27T13:01:49.000Z</time>
      </trkpt>
      <trkpt lat="46.05559" lon="4.50389">
        <ele>550</ele>
        <time>2016-11-27T13:01:50.000Z</time>
      </trkpt>
      <trkpt lat="46.05559" lon="4.50389">
        <ele>550</ele>
        <time>2016-11-27T13:01:51.000Z</time>
      </trkpt>
      <trkpt lat="46.05559" lon="4.50388">
        <ele>549</ele>
        <time>2016-11-27T13:01:52.000Z</time>
      </trkpt>
      <trkpt lat="46.0556" lon="4.50387">
        <ele>549</ele>
        <time>2016-11-27T13:01:53.000Z</time>
      </trkpt>
      <trkpt lat="46.05561" lon="4.50386">
        <ele>548</ele>
        <time>2016-11-27T13:01:54.000Z</time>
      </trkpt>
      <trkpt lat="46.05562" lon="4.50385">
        <ele>549</ele>
        <time>2016-11-27T13:01:55.000Z</time>
      </trkpt>
      <trkpt lat="46.05563" lon="4.50383">
        <ele>548</ele>
        <time>2016-11-27T13:01:56.000Z</time>
      </trkpt>
      <trkpt lat="46.05564" lon="4.50381">
        <ele>548</ele>
        <time>2016-11-27T13:01:57.000Z</time>
      </trkpt>
      <trkpt lat="46.05565" lon="4.50379">
        <ele>548</ele>
        <time>2016-11-27T13:01:58.000Z</time>
      </trkpt>
      <trkpt lat="46.05566" lon="4.50376">
        <ele>547</ele>
        <time>2016-11-27T13:01:59.000Z</time>
      </trkpt>
      <trkpt lat="46.05567" lon="4.50373">
        <ele>547</ele>
        <time>2016-11-27T13:02:00.000Z</time>
      </trkpt>
      <trkpt lat="46.05568" lon="4.5037">
        <ele>547</ele>
        <time>2016-11-27T13:02:01.000Z</time>
      </trkpt>
      <trkpt lat="46.05569" lon="4.50367">
        <ele>546</ele>
        <time>2016-11-27T13:02:02.000Z</time>
      </trkpt>
      <trkpt lat="46.0557" lon="4.50364">
        <ele>546</ele>
        <time>2016-11-27T13:02:03.000Z</time>
      </trkpt>
      <trkpt lat="46.05571" lon="4.50361">
        <ele>545</ele>
        <time>2016-11-27T13:02:04.000Z</time>
      </trkpt>
      <trkpt lat="46.05572" lon="4.50358">
        <ele>545</ele>
        <time>2016-11-27T13:02:05.000Z</time>
      </trkpt>
      <trkpt lat="46.05573" lon="4.50355">
        <ele>544</ele>
        <time>2016-11-27T13:02:06.000Z</time>
      </trkpt>
      <trkpt lat="46.05574" lon="4.50352">
        <ele>544</ele>
        <time>2016-11-27T13:02:07.000Z</time>
      </trkpt>
      <trkpt lat="46.05576" lon="4.50349">
        <ele>544</ele>
        <time>2016-11-27T13:02:08.000Z</time>
      </trkpt>
      <trkpt lat="46.05577" lon="4.50346">
        <ele>544</ele>
        <time>2016-11-27T13:02:09.000Z</time>
      </trkpt>
      <trkpt lat="46.05578" lon="4.50343">
        <ele>544</ele>
        <time>2016-11-27T13:02:10.000Z</time>
      </trkpt>
      <trkpt lat="46.05579" lon="4.5034">
        <ele>543</ele>
        <time>2016-11-27T13:02:11.000Z</time>
      </trkpt>
      <trkpt lat="46.0558" lon="4.50336">
        <ele>543</ele>
        <time>2016-11-27T13:02:12.000Z</time>
      </trkpt>
      <trkpt lat="46.05582" lon="4.50333">
        <ele>543</ele>
        <time>2016-11-27T13:02:13.000Z</time>
      </trkpt>
      <trkpt lat="46.05583" lon="4.5033">
        <ele>544</ele>
        <time>2016-11-27T13:02:14.000Z</time>
      </trkpt>
      <trkpt lat="46.05584" lon="4.50327">
        <ele>543</ele>
        <time>2016-11-27T13:02:15.000Z</time>
      </trkpt>
      <trkpt lat="46.05585" lon="4.50324">
        <ele>542</ele>
        <time>2016-11-27T13:02:16.000Z</time>
      </trkpt>
      <trkpt lat="46.05587" lon="4.50322">
        <ele>542</ele>
        <time>2016-11-27T13:02:17.000Z</time>
      </trkpt>
      <trkpt lat="46.05588" lon="4.50319">
        <ele>543</ele>
        <time>2016-11-27T13:02:18.000Z</time>
      </trkpt>
      <trkpt lat="46.0559" lon="4.50316">
        <ele>543</ele>
        <time>2016-11-27T13:02:19.000Z</time>
      </trkpt>
      <trkpt lat="46.05592" lon="4.50313">
        <ele>543</ele>
        <time>2016-11-27T13:02:20.000Z</time>
      </trkpt>
      <trkpt lat="46.05593" lon="4.5031">
        <ele>543</ele>
        <time>2016-11-27T13:02:21.000Z</time>
      </trkpt>
      <trkpt lat="46.05594" lon="4.50307">
        <ele>542</ele>
        <time>2016-11-27T13:02:22.000Z</time>
      </trkpt>
      <trkpt lat="46.05595" lon="4.50303">
        <ele>543</ele>
        <time>2016-11-27T13:02:23.000Z</time>
      </trkpt>
      <trkpt lat="46.05596" lon="4.503">
        <ele>542</ele>
        <time>2016-11-27T13:02:24.000Z</time>
      </trkpt>
      <trkpt lat="46.05597" lon="4.50296">
        <ele>542</ele>
        <time>2016-11-27T13:02:25.000Z</time>
      </trkpt>
      <trkpt lat="46.05598" lon="4.50292">
        <ele>543</ele>
        <time>2016-11-27T13:02:26.000Z</time>
      </trkpt>
      <trkpt lat="46.05599" lon="4.50288">
        <ele>543</ele>
        <time>2016-11-27T13:02:27.000Z</time>
      </trkpt>
      <trkpt lat="46.05601" lon="4.50284">
        <ele>544</ele>
        <time>2016-11-27T13:02:28.000Z</time>
      </trkpt>
      <trkpt lat="46.05603" lon="4.5028">
        <ele>545</ele>
        <time>2016-11-27T13:02:29.000Z</time>
      </trkpt>
      <trkpt lat="46.05604" lon="4.50276">
        <ele>544</ele>
        <time>2016-11-27T13:02:30.000Z</time>
      </trkpt>
      <trkpt lat="46.05605" lon="4.50272">
        <ele>543</ele>
        <time>2016-11-27T13:02:31.000Z</time>
      </trkpt>
      <trkpt lat="46.05606" lon="4.50268">
        <ele>543</ele>
        <time>2016-11-27T13:02:32.000Z</time>
      </trkpt>
      <trkpt lat="46.05607" lon="4.50264">
        <ele>542</ele>
        <time>2016-11-27T13:02:33.000Z</time>
      </trkpt>
      <trkpt lat="46.05609" lon="4.50261">
        <ele>541</ele>
        <time>2016-11-27T13:02:34.000Z</time>
      </trkpt>
      <trkpt lat="46.05611" lon="4.50257">
        <ele>541</ele>
        <time>2016-11-27T13:02:35.000Z</time>
      </trkpt>
      <trkpt lat="46.05613" lon="4.50253">
        <ele>542</ele>
        <time>2016-11-27T13:02:36.000Z</time>
      </trkpt>
      <trkpt lat="46.05614" lon="4.50248">
        <ele>542</ele>
        <time>2016-11-27T13:02:37.000Z</time>
      </trkpt>
      <trkpt lat="46.05616" lon="4.50244">
        <ele>544</ele>
        <time>2016-11-27T13:02:38.000Z</time>
      </trkpt>
      <trkpt lat="46.05618" lon="4.50239">
        <ele>544</ele>
        <time>2016-11-27T13:02:39.000Z</time>
      </trkpt>
      <trkpt lat="46.0562" lon="4.50235">
        <ele>545</ele>
        <time>2016-11-27T13:02:40.000Z</time>
      </trkpt>
      <trkpt lat="46.05622" lon="4.50231">
        <ele>545</ele>
        <time>2016-11-27T13:02:41.000Z</time>
      </trkpt>
      <trkpt lat="46.05624" lon="4.50227">
        <ele>545</ele>
        <time>2016-11-27T13:02:42.000Z</time>
      </trkpt>
      <trkpt lat="46.05627" lon="4.50223">
        <ele>544</ele>
        <time>2016-11-27T13:02:43.000Z</time>
      </trkpt>
      <trkpt lat="46.05629" lon="4.5022">
        <ele>544</ele>
        <time>2016-11-27T13:02:44.000Z</time>
      </trkpt>
      <trkpt lat="46.05632" lon="4.50216">
        <ele>544</ele>
        <time>2016-11-27T13:02:45.000Z</time>
      </trkpt>
      <trkpt lat="46.05634" lon="4.50213">
        <ele>544</ele>
        <time>2016-11-27T13:02:46.000Z</time>
      </trkpt>
      <trkpt lat="46.05636" lon="4.50211">
        <ele>544</ele>
        <time>2016-11-27T13:02:47.000Z</time>
      </trkpt>
      <trkpt lat="46.05639" lon="4.50208">
        <ele>544</ele>
        <time>2016-11-27T13:02:48.000Z</time>
      </trkpt>
      <trkpt lat="46.05641" lon="4.50206">
        <ele>545</ele>
        <time>2016-11-27T13:02:49.000Z</time>
      </trkpt>
      <trkpt lat="46.05643" lon="4.50204">
        <ele>545</ele>
        <time>2016-11-27T13:02:50.000Z</time>
      </trkpt>
      <trkpt lat="46.05645" lon="4.50202">
        <ele>545</ele>
        <time>2016-11-27T13:02:51.000Z</time>
      </trkpt>
      <trkpt lat="46.05647" lon="4.502">
        <ele>545</ele>
        <time>2016-11-27T13:02:52.000Z</time>
      </trkpt>
      <trkpt lat="46.05649" lon="4.50198">
        <ele>545</ele>
        <time>2016-11-27T13:02:53.000Z</time>
      </trkpt>
      <trkpt lat="46.05651" lon="4.50195">
        <ele>545</ele>
        <time>2016-11-27T13:02:54.000Z</time>
      </trkpt>
      <trkpt lat="46.05653" lon="4.50192">
        <ele>544</ele>
        <time>2016-11-27T13:02:55.000Z</time>
      </trkpt>
      <trkpt lat="46.05654" lon="4.5019">
        <ele>545</ele>
        <time>2016-11-27T13:02:56.000Z</time>
      </trkpt>
      <trkpt lat="46.05656" lon="4.50188">
        <ele>545</ele>
        <time>2016-11-27T13:02:57.000Z</time>
      </trkpt>
      <trkpt lat="46.05658" lon="4.50186">
        <ele>545</ele>
        <time>2016-11-27T13:02:58.000Z</time>
      </trkpt>
      <trkpt lat="46.0566" lon="4.50184">
        <ele>545</ele>
        <time>2016-11-27T13:02:59.000Z</time>
      </trkpt>
      <trkpt lat="46.05662" lon="4.50181">
        <ele>546</ele>
        <time>2016-11-27T13:03:00.000Z</time>
      </trkpt>
      <trkpt lat="46.05664" lon="4.50179">
        <ele>546</ele>
        <time>2016-11-27T13:03:01.000Z</time>
      </trkpt>
      <trkpt lat="46.05666" lon="4.50177">
        <ele>546</ele>
        <time>2016-11-27T13:03:02.000Z</time>
      </trkpt>
      <trkpt lat="46.05669" lon="4.50174">
        <ele>546</ele>
        <time>2016-11-27T13:03:03.000Z</time>
      </trkpt>
      <trkpt lat="46.05671" lon="4.50172">
        <ele>546</ele>
        <time>2016-11-27T13:03:04.000Z</time>
      </trkpt>
      <trkpt lat="46.05673" lon="4.5017">
        <ele>546</ele>
        <time>2016-11-27T13:03:05.000Z</time>
      </trkpt>
      <trkpt lat="46.05675" lon="4.50168">
        <ele>546</ele>
        <time>2016-11-27T13:03:06.000Z</time>
      </trkpt>
      <trkpt lat="46.05677" lon="4.50166">
        <ele>546</ele>
        <time>2016-11-27T13:03:07.000Z</time>
      </trkpt>
      <trkpt lat="46.05679" lon="4.50164">
        <ele>546</ele>
        <time>2016-11-27T13:03:08.000Z</time>
      </trkpt>
      <trkpt lat="46.05681" lon="4.50162">
        <ele>546</ele>
        <time>2016-11-27T13:03:09.000Z</time>
      </trkpt>
      <trkpt lat="46.05683" lon="4.5016">
        <ele>546</ele>
        <time>2016-11-27T13:03:10.000Z</time>
      </trkpt>
      <trkpt lat="46.05685" lon="4.50158">
        <ele>546</ele>
        <time>2016-11-27T13:03:11.000Z</time>
      </trkpt>
      <trkpt lat="46.05687" lon="4.50155">
        <ele>547</ele>
        <time>2016-11-27T13:03:12.000Z</time>
      </trkpt>
      <trkpt lat="46.0569" lon="4.50153">
        <ele>548</ele>
        <time>2016-11-27T13:03:13.000Z</time>
      </trkpt>
      <trkpt lat="46.05692" lon="4.50151">
        <ele>548</ele>
        <time>2016-11-27T13:03:14.000Z</time>
      </trkpt>
      <trkpt lat="46.05695" lon="4.50148">
        <ele>548</ele>
        <time>2016-11-27T13:03:15.000Z</time>
      </trkpt>
      <trkpt lat="46.05698" lon="4.50145">
        <ele>547</ele>
        <time>2016-11-27T13:03:16.000Z</time>
      </trkpt>
      <trkpt lat="46.057" lon="4.50142">
        <ele>547</ele>
        <time>2016-11-27T13:03:17.000Z</time>
      </trkpt>
      <trkpt lat="46.05702" lon="4.5014">
        <ele>547</ele>
        <time>2016-11-27T13:03:18.000Z</time>
      </trkpt>
      <trkpt lat="46.05705" lon="4.50137">
        <ele>547</ele>
        <time>2016-11-27T13:03:19.000Z</time>
      </trkpt>
      <trkpt lat="46.05707" lon="4.50134">
        <ele>546</ele>
        <time>2016-11-27T13:03:20.000Z</time>
      </trkpt>
      <trkpt lat="46.05709" lon="4.50132">
        <ele>545</ele>
        <time>2016-11-27T13:03:21.000Z</time>
      </trkpt>
      <trkpt lat="46.05711" lon="4.5013">
        <ele>545</ele>
        <time>2016-11-27T13:03:22.000Z</time>
      </trkpt>
      <trkpt lat="46.05713" lon="4.50128">
        <ele>545</ele>
        <time>2016-11-27T13:03:23.000Z</time>
      </trkpt>
      <trkpt lat="46.05715" lon="4.50125">
        <ele>544</ele>
        <time>2016-11-27T13:03:24.000Z</time>
      </trkpt>
      <trkpt lat="46.05717" lon="4.50122">
        <ele>545</ele>
        <time>2016-11-27T13:03:25.000Z</time>
      </trkpt>
      <trkpt lat="46.05718" lon="4.50119">
        <ele>545</ele>
        <time>2016-11-27T13:03:26.000Z</time>
      </trkpt>
      <trkpt lat="46.0572" lon="4.50116">
        <ele>545</ele>
        <time>2016-11-27T13:03:27.000Z</time>
      </trkpt>
      <trkpt lat="46.05722" lon="4.50113">
        <ele>545</ele>
        <time>2016-11-27T13:03:28.000Z</time>
      </trkpt>
      <trkpt lat="46.05724" lon="4.5011">
        <ele>544</ele>
        <time>2016-11-27T13:03:29.000Z</time>
      </trkpt>
      <trkpt lat="46.05725" lon="4.50108">
        <ele>544</ele>
        <time>2016-11-27T13:03:30.000Z</time>
      </trkpt>
      <trkpt lat="46.05727" lon="4.50106">
        <ele>544</ele>
        <time>2016-11-27T13:03:31.000Z</time>
      </trkpt>
      <trkpt lat="46.05729" lon="4.50104">
        <ele>542</ele>
        <time>2016-11-27T13:03:32.000Z</time>
      </trkpt>
      <trkpt lat="46.05732" lon="4.50102">
        <ele>542</ele>
        <time>2016-11-27T13:03:33.000Z</time>
      </trkpt>
      <trkpt lat="46.05734" lon="4.50101">
        <ele>542</ele>
        <time>2016-11-27T13:03:34.000Z</time>
      </trkpt>
      <trkpt lat="46.05735" lon="4.50099">
        <ele>540</ele>
        <time>2016-11-27T13:03:35.000Z</time>
      </trkpt>
      <trkpt lat="46.05737" lon="4.50098">
        <ele>539</ele>
        <time>2016-11-27T13:03:36.000Z</time>
      </trkpt>
      <trkpt lat="46.05739" lon="4.50096">
        <ele>539</ele>
        <time>2016-11-27T13:03:37.000Z</time>
      </trkpt>
      <trkpt lat="46.05741" lon="4.50094">
        <ele>538</ele>
        <time>2016-11-27T13:03:38.000Z</time>
      </trkpt>
      <trkpt lat="46.05742" lon="4.50093">
        <ele>535</ele>
        <time>2016-11-27T13:03:39.000Z</time>
      </trkpt>
      <trkpt lat="46.05743" lon="4.50091">
        <ele>535</ele>
        <time>2016-11-27T13:03:40.000Z</time>
      </trkpt>
      <trkpt lat="46.05744" lon="4.5009">
        <ele>534</ele>
        <time>2016-11-27T13:03:41.000Z</time>
      </trkpt>
      <trkpt lat="46.05746" lon="4.50088">
        <ele>533</ele>
        <time>2016-11-27T13:03:42.000Z</time>
      </trkpt>
      <trkpt lat="46.05748" lon="4.50086">
        <ele>532</ele>
        <time>2016-11-27T13:03:43.000Z</time>
      </trkpt>
      <trkpt lat="46.05749" lon="4.50083">
        <ele>531</ele>
        <time>2016-11-27T13:03:44.000Z</time>
      </trkpt>
      <trkpt lat="46.05752" lon="4.50081">
        <ele>531</ele>
        <time>2016-11-27T13:03:45.000Z</time>
      </trkpt>
      <trkpt lat="46.05754" lon="4.50078">
        <ele>530</ele>
        <time>2016-11-27T13:03:46.000Z</time>
      </trkpt>
      <trkpt lat="46.05755" lon="4.50076">
        <ele>531</ele>
        <time>2016-11-27T13:03:47.000Z</time>
      </trkpt>
      <trkpt lat="46.05757" lon="4.50073">
        <ele>530</ele>
        <time>2016-11-27T13:03:48.000Z</time>
      </trkpt>
      <trkpt lat="46.05759" lon="4.50069">
        <ele>529</ele>
        <time>2016-11-27T13:03:49.000Z</time>
      </trkpt>
      <trkpt lat="46.05762" lon="4.50066">
        <ele>529</ele>
        <time>2016-11-27T13:03:50.000Z</time>
      </trkpt>
      <trkpt lat="46.05764" lon="4.50064">
        <ele>529</ele>
        <time>2016-11-27T13:03:51.000Z</time>
      </trkpt>
      <trkpt lat="46.05766" lon="4.50061">
        <ele>529</ele>
        <time>2016-11-27T13:03:52.000Z</time>
      </trkpt>
      <trkpt lat="46.05768" lon="4.50057">
        <ele>528</ele>
        <time>2016-11-27T13:03:53.000Z</time>
      </trkpt>
      <trkpt lat="46.0577" lon="4.50053">
        <ele>527</ele>
        <time>2016-11-27T13:03:54.000Z</time>
      </trkpt>
      <trkpt lat="46.05772" lon="4.5005">
        <ele>528</ele>
        <time>2016-11-27T13:03:55.000Z</time>
      </trkpt>
      <trkpt lat="46.05774" lon="4.50046">
        <ele>527</ele>
        <time>2016-11-27T13:03:56.000Z</time>
      </trkpt>
      <trkpt lat="46.05776" lon="4.50043">
        <ele>526</ele>
        <time>2016-11-27T13:03:57.000Z</time>
      </trkpt>
      <trkpt lat="46.05777" lon="4.50039">
        <ele>526</ele>
        <time>2016-11-27T13:03:58.000Z</time>
      </trkpt>
      <trkpt lat="46.05779" lon="4.50036">
        <ele>526</ele>
        <time>2016-11-27T13:03:59.000Z</time>
      </trkpt>
      <trkpt lat="46.05781" lon="4.50033">
        <ele>526</ele>
        <time>2016-11-27T13:04:00.000Z</time>
      </trkpt>
      <trkpt lat="46.05783" lon="4.50031">
        <ele>525</ele>
        <time>2016-11-27T13:04:01.000Z</time>
      </trkpt>
      <trkpt lat="46.05785" lon="4.50029">
        <ele>526</ele>
        <time>2016-11-27T13:04:02.000Z</time>
      </trkpt>
      <trkpt lat="46.05787" lon="4.50026">
        <ele>526</ele>
        <time>2016-11-27T13:04:03.000Z</time>
      </trkpt>
      <trkpt lat="46.05789" lon="4.50024">
        <ele>526</ele>
        <time>2016-11-27T13:04:04.000Z</time>
      </trkpt>
      <trkpt lat="46.0579" lon="4.50021">
        <ele>526</ele>
        <time>2016-11-27T13:04:05.000Z</time>
      </trkpt>
      <trkpt lat="46.05792" lon="4.50018">
        <ele>526</ele>
        <time>2016-11-27T13:04:06.000Z</time>
      </trkpt>
      <trkpt lat="46.05793" lon="4.50015">
        <ele>526</ele>
        <time>2016-11-27T13:04:07.000Z</time>
      </trkpt>
      <trkpt lat="46.05795" lon="4.50013">
        <ele>525</ele>
        <time>2016-11-27T13:04:08.000Z</time>
      </trkpt>
      <trkpt lat="46.05796" lon="4.5001">
        <ele>525</ele>
        <time>2016-11-27T13:04:09.000Z</time>
      </trkpt>
      <trkpt lat="46.05798" lon="4.50008">
        <ele>524</ele>
        <time>2016-11-27T13:04:10.000Z</time>
      </trkpt>
      <trkpt lat="46.05801" lon="4.50006">
        <ele>525</ele>
        <time>2016-11-27T13:04:11.000Z</time>
      </trkpt>
      <trkpt lat="46.05804" lon="4.50003">
        <ele>524</ele>
        <time>2016-11-27T13:04:12.000Z</time>
      </trkpt>
      <trkpt lat="46.05807" lon="4.5">
        <ele>525</ele>
        <time>2016-11-27T13:04:13.000Z</time>
      </trkpt>
      <trkpt lat="46.0581" lon="4.49998">
        <ele>526</ele>
        <time>2016-11-27T13:04:14.000Z</time>
      </trkpt>
      <trkpt lat="46.05812" lon="4.49995">
        <ele>526</ele>
        <time>2016-11-27T13:04:15.000Z</time>
      </trkpt>
      <trkpt lat="46.05814" lon="4.49993">
        <ele>526</ele>
        <time>2016-11-27T13:04:16.000Z</time>
      </trkpt>
      <trkpt lat="46.05815" lon="4.49991">
        <ele>525</ele>
        <time>2016-11-27T13:04:17.000Z</time>
      </trkpt>
      <trkpt lat="46.05817" lon="4.49989">
        <ele>525</ele>
        <time>2016-11-27T13:04:18.000Z</time>
      </trkpt>
      <trkpt lat="46.05818" lon="4.49987">
        <ele>525</ele>
        <time>2016-11-27T13:04:19.000Z</time>
      </trkpt>
      <trkpt lat="46.05819" lon="4.49985">
        <ele>526</ele>
        <time>2016-11-27T13:04:20.000Z</time>
      </trkpt>
      <trkpt lat="46.05821" lon="4.49983">
        <ele>526</ele>
        <time>2016-11-27T13:04:21.000Z</time>
      </trkpt>
      <trkpt lat="46.05822" lon="4.4998">
        <ele>525</ele>
        <time>2016-11-27T13:04:22.000Z</time>
      </trkpt>
      <trkpt lat="46.05824" lon="4.49977">
        <ele>525</ele>
        <time>2016-11-27T13:04:23.000Z</time>
      </trkpt>
      <trkpt lat="46.05825" lon="4.49975">
        <ele>524</ele>
        <time>2016-11-27T13:04:24.000Z</time>
      </trkpt>
      <trkpt lat="46.05827" lon="4.49973">
        <ele>524</ele>
        <time>2016-11-27T13:04:25.000Z</time>
      </trkpt>
      <trkpt lat="46.05828" lon="4.49972">
        <ele>524</ele>
        <time>2016-11-27T13:04:26.000Z</time>
      </trkpt>
      <trkpt lat="46.05829" lon="4.49971">
        <ele>523</ele>
        <time>2016-11-27T13:04:27.000Z</time>
      </trkpt>
      <trkpt lat="46.0583" lon="4.49969">
        <ele>523</ele>
        <time>2016-11-27T13:04:28.000Z</time>
      </trkpt>
      <trkpt lat="46.05832" lon="4.49968">
        <ele>522</ele>
        <time>2016-11-27T13:04:29.000Z</time>
      </trkpt>
      <trkpt lat="46.05833" lon="4.49966">
        <ele>521</ele>
        <time>2016-11-27T13:04:30.000Z</time>
      </trkpt>
      <trkpt lat="46.05835" lon="4.49964">
        <ele>521</ele>
        <time>2016-11-27T13:04:31.000Z</time>
      </trkpt>
      <trkpt lat="46.05838" lon="4.49961">
        <ele>520</ele>
        <time>2016-11-27T13:04:32.000Z</time>
      </trkpt>
      <trkpt lat="46.05841" lon="4.49958">
        <ele>519</ele>
        <time>2016-11-27T13:04:33.000Z</time>
      </trkpt>
      <trkpt lat="46.05843" lon="4.49955">
        <ele>518</ele>
        <time>2016-11-27T13:04:34.000Z</time>
      </trkpt>
      <trkpt lat="46.05846" lon="4.49952">
        <ele>518</ele>
        <time>2016-11-27T13:04:35.000Z</time>
      </trkpt>
      <trkpt lat="46.05848" lon="4.49949">
        <ele>517</ele>
        <time>2016-11-27T13:04:36.000Z</time>
      </trkpt>
      <trkpt lat="46.0585" lon="4.49946">
        <ele>516</ele>
        <time>2016-11-27T13:04:37.000Z</time>
      </trkpt>
      <trkpt lat="46.05852" lon="4.49943">
        <ele>516</ele>
        <time>2016-11-27T13:04:38.000Z</time>
      </trkpt>
      <trkpt lat="46.05854" lon="4.4994">
        <ele>515</ele>
        <time>2016-11-27T13:04:39.000Z</time>
      </trkpt>
      <trkpt lat="46.05856" lon="4.49937">
        <ele>515</ele>
        <time>2016-11-27T13:04:40.000Z</time>
      </trkpt>
      <trkpt lat="46.05858" lon="4.49933">
        <ele>515</ele>
        <time>2016-11-27T13:04:41.000Z</time>
      </trkpt>
      <trkpt lat="46.0586" lon="4.4993">
        <ele>514</ele>
        <time>2016-11-27T13:04:42.000Z</time>
      </trkpt>
      <trkpt lat="46.05862" lon="4.49927">
        <ele>514</ele>
        <time>2016-11-27T13:04:43.000Z</time>
      </trkpt>
      <trkpt lat="46.05864" lon="4.49924">
        <ele>514</ele>
        <time>2016-11-27T13:04:44.000Z</time>
      </trkpt>
      <trkpt lat="46.05865" lon="4.49921">
        <ele>514</ele>
        <time>2016-11-27T13:04:45.000Z</time>
      </trkpt>
      <trkpt lat="46.05865" lon="4.49919">
        <ele>515</ele>
        <time>2016-11-27T13:04:46.000Z</time>
      </trkpt>
      <trkpt lat="46.05866" lon="4.49919">
        <ele>515</ele>
        <time>2016-11-27T13:04:47.000Z</time>
      </trkpt>
      <trkpt lat="46.05866" lon="4.49918">
        <ele>516</ele>
        <time>2016-11-27T13:04:48.000Z</time>
      </trkpt>
      <trkpt lat="46.05866" lon="4.49918">
        <ele>517</ele>
        <time>2016-11-27T13:04:49.000Z</time>
      </trkpt>
      <trkpt lat="46.05866" lon="4.49917">
        <ele>517</ele>
        <time>2016-11-27T13:04:50.000Z</time>
      </trkpt>
      <trkpt lat="46.05866" lon="4.49917">
        <ele>517</ele>
        <time>2016-11-27T13:04:51.000Z</time>
      </trkpt>
      <trkpt lat="46.05867" lon="4.49917">
        <ele>517</ele>
        <time>2016-11-27T13:04:52.000Z</time>
      </trkpt>
      <trkpt lat="46.05867" lon="4.49917">
        <ele>517</ele>
        <time>2016-11-27T13:04:53.000Z</time>
      </trkpt>
      <trkpt lat="46.05867" lon="4.49917">
        <ele>517</ele>
        <time>2016-11-27T13:04:54.000Z</time>
      </trkpt>
      <trkpt lat="46.05867" lon="4.49916">
        <ele>517</ele>
        <time>2016-11-27T13:04:55.000Z</time>
      </trkpt>
      <trkpt lat="46.05868" lon="4.49916">
        <ele>517</ele>
        <time>2016-11-27T13:04:56.000Z</time>
      </trkpt>
      <trkpt lat="46.05868" lon="4.49916">
        <ele>517</ele>
        <time>2016-11-27T13:04:57.000Z</time>
      </trkpt>
      <trkpt lat="46.05868" lon="4.49916">
        <ele>516</ele>
        <time>2016-11-27T13:04:58.000Z</time>
      </trkpt>
      <trkpt lat="46.05868" lon="4.49915">
        <ele>516</ele>
        <time>2016-11-27T13:04:59.000Z</time>
      </trkpt>
      <trkpt lat="46.05868" lon="4.49915">
        <ele>516</ele>
        <time>2016-11-27T13:05:00.000Z</time>
      </trkpt>
      <trkpt lat="46.05868" lon="4.49915">
        <ele>515</ele>
        <time>2016-11-27T13:05:01.000Z</time>
      </trkpt>
      <trkpt lat="46.05869" lon="4.49915">
        <ele>515</ele>
        <time>2016-11-27T13:05:02.000Z</time>
      </trkpt>
      <trkpt lat="46.05868" lon="4.49915">
        <ele>516</ele>
        <time>2016-11-27T13:05:03.000Z</time>
      </trkpt>
      <trkpt lat="46.05869" lon="4.49915">
        <ele>516</ele>
        <time>2016-11-27T13:05:04.000Z</time>
      </trkpt>
      <trkpt lat="46.05869" lon="4.49915">
        <ele>516</ele>
        <time>2016-11-27T13:05:05.000Z</time>
      </trkpt>
      <trkpt lat="46.05869" lon="4.49914">
        <ele>516</ele>
        <time>2016-11-27T13:05:06.000Z</time>
      </trkpt>
      <trkpt lat="46.05869" lon="4.49914">
        <ele>516</ele>
        <time>2016-11-27T13:05:07.000Z</time>
      </trkpt>
      <trkpt lat="46.0587" lon="4.49914">
        <ele>517</ele>
        <time>2016-11-27T13:05:08.000Z</time>
      </trkpt>
      <trkpt lat="46.0587" lon="4.49914">
        <ele>517</ele>
        <time>2016-11-27T13:05:09.000Z</time>
      </trkpt>
      <trkpt lat="46.0587" lon="4.49914">
        <ele>517</ele>
        <time>2016-11-27T13:05:10.000Z</time>
      </trkpt>
      <trkpt lat="46.0587" lon="4.49913">
        <ele>517</ele>
        <time>2016-11-27T13:05:11.000Z</time>
      </trkpt>
      <trkpt lat="46.0587" lon="4.49913">
        <ele>517</ele>
        <time>2016-11-27T13:05:12.000Z</time>
      </trkpt>
      <trkpt lat="46.05871" lon="4.49913">
        <ele>517</ele>
        <time>2016-11-27T13:05:13.000Z</time>
      </trkpt>
      <trkpt lat="46.05871" lon="4.49912">
        <ele>517</ele>
        <time>2016-11-27T13:05:14.000Z</time>
      </trkpt>
      <trkpt lat="46.05872" lon="4.49912">
        <ele>516</ele>
        <time>2016-11-27T13:05:15.000Z</time>
      </trkpt>
      <trkpt lat="46.05873" lon="4.49911">
        <ele>516</ele>
        <time>2016-11-27T13:05:16.000Z</time>
      </trkpt>
      <trkpt lat="46.05875" lon="4.4991">
        <ele>515</ele>
        <time>2016-11-27T13:05:17.000Z</time>
      </trkpt>
      <trkpt lat="46.05877" lon="4.49909">
        <ele>515</ele>
        <time>2016-11-27T13:05:18.000Z</time>
      </trkpt>
      <trkpt lat="46.05879" lon="4.49907">
        <ele>514</ele>
        <time>2016-11-27T13:05:19.000Z</time>
      </trkpt>
      <trkpt lat="46.05882" lon="4.49905">
        <ele>514</ele>
        <time>2016-11-27T13:05:20.000Z</time>
      </trkpt>
      <trkpt lat="46.05884" lon="4.49903">
        <ele>513</ele>
        <time>2016-11-27T13:05:21.000Z</time>
      </trkpt>
      <trkpt lat="46.05886" lon="4.49901">
        <ele>513</ele>
        <time>2016-11-27T13:05:22.000Z</time>
      </trkpt>
      <trkpt lat="46.05889" lon="4.49899">
        <ele>513</ele>
        <time>2016-11-27T13:05:23.000Z</time>
      </trkpt>
      <trkpt lat="46.05892" lon="4.49898">
        <ele>513</ele>
        <time>2016-11-27T13:05:24.000Z</time>
      </trkpt>
      <trkpt lat="46.05894" lon="4.49897">
        <ele>512</ele>
        <time>2016-11-27T13:05:25.000Z</time>
      </trkpt>
      <trkpt lat="46.05897" lon="4.49896">
        <ele>513</ele>
        <time>2016-11-27T13:05:26.000Z</time>
      </trkpt>
      <trkpt lat="46.059" lon="4.49895">
        <ele>512</ele>
        <time>2016-11-27T13:05:27.000Z</time>
      </trkpt>
      <trkpt lat="46.05903" lon="4.49896">
        <ele>512</ele>
        <time>2016-11-27T13:05:28.000Z</time>
      </trkpt>
      <trkpt lat="46.05906" lon="4.49897">
        <ele>511</ele>
        <time>2016-11-27T13:05:29.000Z</time>
      </trkpt>
      <trkpt lat="46.05909" lon="4.49898">
        <ele>510</ele>
        <time>2016-11-27T13:05:30.000Z</time>
      </trkpt>
      <trkpt lat="46.05911" lon="4.499">
        <ele>509</ele>
        <time>2016-11-27T13:05:31.000Z</time>
      </trkpt>
      <trkpt lat="46.05913" lon="4.49902">
        <ele>509</ele>
        <time>2016-11-27T13:05:32.000Z</time>
      </trkpt>
      <trkpt lat="46.05915" lon="4.49904">
        <ele>509</ele>
        <time>2016-11-27T13:05:33.000Z</time>
      </trkpt>
      <trkpt lat="46.05917" lon="4.49906">
        <ele>508</ele>
        <time>2016-11-27T13:05:34.000Z</time>
      </trkpt>
      <trkpt lat="46.05919" lon="4.49908">
        <ele>508</ele>
        <time>2016-11-27T13:05:35.000Z</time>
      </trkpt>
      <trkpt lat="46.05921" lon="4.49909">
        <ele>507</ele>
        <time>2016-11-27T13:05:36.000Z</time>
      </trkpt>
      <trkpt lat="46.05923" lon="4.49911">
        <ele>506</ele>
        <time>2016-11-27T13:05:37.000Z</time>
      </trkpt>
      <trkpt lat="46.05925" lon="4.49913">
        <ele>505</ele>
        <time>2016-11-27T13:05:38.000Z</time>
      </trkpt>
      <trkpt lat="46.05927" lon="4.49915">
        <ele>505</ele>
        <time>2016-11-27T13:05:39.000Z</time>
      </trkpt>
      <trkpt lat="46.05929" lon="4.49917">
        <ele>504</ele>
        <time>2016-11-27T13:05:40.000Z</time>
      </trkpt>
      <trkpt lat="46.0593" lon="4.49919">
        <ele>504</ele>
        <time>2016-11-27T13:05:41.000Z</time>
      </trkpt>
      <trkpt lat="46.05932" lon="4.49921">
        <ele>504</ele>
        <time>2016-11-27T13:05:42.000Z</time>
      </trkpt>
      <trkpt lat="46.05934" lon="4.49924">
        <ele>503</ele>
        <time>2016-11-27T13:05:43.000Z</time>
      </trkpt>
      <trkpt lat="46.05935" lon="4.49926">
        <ele>502</ele>
        <time>2016-11-27T13:05:44.000Z</time>
      </trkpt>
      <trkpt lat="46.05936" lon="4.49927">
        <ele>503</ele>
        <time>2016-11-27T13:05:45.000Z</time>
      </trkpt>
      <trkpt lat="46.05937" lon="4.49928">
        <ele>503</ele>
        <time>2016-11-27T13:05:46.000Z</time>
      </trkpt>
      <trkpt lat="46.05938" lon="4.49928">
        <ele>503</ele>
        <time>2016-11-27T13:05:47.000Z</time>
      </trkpt>
      <trkpt lat="46.05938" lon="4.49928">
        <ele>503</ele>
        <time>2016-11-27T13:05:48.000Z</time>
      </trkpt>
      <trkpt lat="46.05938" lon="4.49928">
        <ele>503</ele>
        <time>2016-11-27T13:05:49.000Z</time>
      </trkpt>
      <trkpt lat="46.05938" lon="4.49928">
        <ele>502</ele>
        <time>2016-11-27T13:05:50.000Z</time>
      </trkpt>
      <trkpt lat="46.05938" lon="4.49928">
        <ele>502</ele>
        <time>2016-11-27T13:05:51.000Z</time>
      </trkpt>
      <trkpt lat="46.05939" lon="4.49928">
        <ele>502</ele>
        <time>2016-11-27T13:05:52.000Z</time>
      </trkpt>
      <trkpt lat="46.05939" lon="4.49929">
        <ele>502</ele>
        <time>2016-11-27T13:05:53.000Z</time>
      </trkpt>
      <trkpt lat="46.0594" lon="4.49929">
        <ele>502</ele>
        <time>2016-11-27T13:05:54.000Z</time>
      </trkpt>
      <trkpt lat="46.05941" lon="4.49931">
        <ele>501</ele>
        <time>2016-11-27T13:05:55.000Z</time>
      </trkpt>
      <trkpt lat="46.05942" lon="4.49932">
        <ele>501</ele>
        <time>2016-11-27T13:05:56.000Z</time>
      </trkpt>
      <trkpt lat="46.05943" lon="4.49932">
        <ele>501</ele>
        <time>2016-11-27T13:05:57.000Z</time>
      </trkpt>
      <trkpt lat="46.05944" lon="4.49932">
        <ele>500</ele>
        <time>2016-11-27T13:05:58.000Z</time>
      </trkpt>
      <trkpt lat="46.05945" lon="4.49932">
        <ele>500</ele>
        <time>2016-11-27T13:05:59.000Z</time>
      </trkpt>
      <trkpt lat="46.05946" lon="4.49932">
        <ele>500</ele>
        <time>2016-11-27T13:06:00.000Z</time>
      </trkpt>
      <trkpt lat="46.05946" lon="4.49932">
        <ele>499</ele>
        <time>2016-11-27T13:06:01.000Z</time>
      </trkpt>
      <trkpt lat="46.05947" lon="4.49931">
        <ele>498</ele>
        <time>2016-11-27T13:06:02.000Z</time>
      </trkpt>
      <trkpt lat="46.05948" lon="4.49931">
        <ele>498</ele>
        <time>2016-11-27T13:06:03.000Z</time>
      </trkpt>
      <trkpt lat="46.05949" lon="4.4993">
        <ele>498</ele>
        <time>2016-11-27T13:06:04.000Z</time>
      </trkpt>
      <trkpt lat="46.05949" lon="4.4993">
        <ele>498</ele>
        <time>2016-11-27T13:06:05.000Z</time>
      </trkpt>
      <trkpt lat="46.05949" lon="4.49931">
        <ele>498</ele>
        <time>2016-11-27T13:06:06.000Z</time>
      </trkpt>
      <trkpt lat="46.05949" lon="4.49931">
        <ele>498</ele>
        <time>2016-11-27T13:06:07.000Z</time>
      </trkpt>
      <trkpt lat="46.05949" lon="4.49932">
        <ele>498</ele>
        <time>2016-11-27T13:06:08.000Z</time>
      </trkpt>
      <trkpt lat="46.05949" lon="4.49932">
        <ele>499</ele>
        <time>2016-11-27T13:06:09.000Z</time>
      </trkpt>
      <trkpt lat="46.05948" lon="4.49932">
        <ele>499</ele>
        <time>2016-11-27T13:06:10.000Z</time>
      </trkpt>
      <trkpt lat="46.05949" lon="4.49933">
        <ele>499</ele>
        <time>2016-11-27T13:06:11.000Z</time>
      </trkpt>
      <trkpt lat="46.05949" lon="4.49933">
        <ele>499</ele>
        <time>2016-11-27T13:06:12.000Z</time>
      </trkpt>
      <trkpt lat="46.05949" lon="4.49933">
        <ele>499</ele>
        <time>2016-11-27T13:06:13.000Z</time>
      </trkpt>
      <trkpt lat="46.05949" lon="4.49933">
        <ele>500</ele>
        <time>2016-11-27T13:06:14.000Z</time>
      </trkpt>
      <trkpt lat="46.05949" lon="4.49933">
        <ele>500</ele>
        <time>2016-11-27T13:06:15.000Z</time>
      </trkpt>
      <trkpt lat="46.05949" lon="4.49933">
        <ele>500</ele>
        <time>2016-11-27T13:06:16.000Z</time>
      </trkpt>
      <trkpt lat="46.05949" lon="4.49932">
        <ele>499</ele>
        <time>2016-11-27T13:06:17.000Z</time>
      </trkpt>
      <trkpt lat="46.0595" lon="4.49931">
        <ele>498</ele>
        <time>2016-11-27T13:06:18.000Z</time>
      </trkpt>
      <trkpt lat="46.05952" lon="4.4993">
        <ele>497</ele>
        <time>2016-11-27T13:06:19.000Z</time>
      </trkpt>
      <trkpt lat="46.05954" lon="4.49929">
        <ele>497</ele>
        <time>2016-11-27T13:06:20.000Z</time>
      </trkpt>
      <trkpt lat="46.05955" lon="4.49927">
        <ele>496</ele>
        <time>2016-11-27T13:06:21.000Z</time>
      </trkpt>
      <trkpt lat="46.05957" lon="4.49926">
        <ele>495</ele>
        <time>2016-11-27T13:06:22.000Z</time>
      </trkpt>
      <trkpt lat="46.05959" lon="4.49924">
        <ele>494</ele>
        <time>2016-11-27T13:06:23.000Z</time>
      </trkpt>
      <trkpt lat="46.05961" lon="4.49923">
        <ele>493</ele>
        <time>2016-11-27T13:06:24.000Z</time>
      </trkpt>
      <trkpt lat="46.05963" lon="4.49921">
        <ele>493</ele>
        <time>2016-11-27T13:06:25.000Z</time>
      </trkpt>
      <trkpt lat="46.05965" lon="4.49918">
        <ele>492</ele>
        <time>2016-11-27T13:06:26.000Z</time>
      </trkpt>
      <trkpt lat="46.05967" lon="4.49916">
        <ele>491</ele>
        <time>2016-11-27T13:06:27.000Z</time>
      </trkpt>
      <trkpt lat="46.05969" lon="4.49914">
        <ele>489</ele>
        <time>2016-11-27T13:06:28.000Z</time>
      </trkpt>
      <trkpt lat="46.05971" lon="4.49913">
        <ele>488</ele>
        <time>2016-11-27T13:06:29.000Z</time>
      </trkpt>
      <trkpt lat="46.05972" lon="4.49911">
        <ele>488</ele>
        <time>2016-11-27T13:06:30.000Z</time>
      </trkpt>
      <trkpt lat="46.05974" lon="4.4991">
        <ele>486</ele>
        <time>2016-11-27T13:06:31.000Z</time>
      </trkpt>
      <trkpt lat="46.05976" lon="4.49909">
        <ele>485</ele>
        <time>2016-11-27T13:06:32.000Z</time>
      </trkpt>
      <trkpt lat="46.05978" lon="4.49907">
        <ele>485</ele>
        <time>2016-11-27T13:06:33.000Z</time>
      </trkpt>
      <trkpt lat="46.0598" lon="4.49906">
        <ele>484</ele>
        <time>2016-11-27T13:06:34.000Z</time>
      </trkpt>
      <trkpt lat="46.05982" lon="4.49904">
        <ele>483</ele>
        <time>2016-11-27T13:06:35.000Z</time>
      </trkpt>
      <trkpt lat="46.05985" lon="4.49902">
        <ele>482</ele>
        <time>2016-11-27T13:06:36.000Z</time>
      </trkpt>
      <trkpt lat="46.05987" lon="4.49899">
        <ele>481</ele>
        <time>2016-11-27T13:06:37.000Z</time>
      </trkpt>
      <trkpt lat="46.05989" lon="4.49897">
        <ele>480</ele>
        <time>2016-11-27T13:06:38.000Z</time>
      </trkpt>
      <trkpt lat="46.05991" lon="4.49894">
        <ele>479</ele>
        <time>2016-11-27T13:06:39.000Z</time>
      </trkpt>
      <trkpt lat="46.05992" lon="4.49892">
        <ele>479</ele>
        <time>2016-11-27T13:06:40.000Z</time>
      </trkpt>
      <trkpt lat="46.05993" lon="4.4989">
        <ele>479</ele>
        <time>2016-11-27T13:06:41.000Z</time>
      </trkpt>
      <trkpt lat="46.05994" lon="4.49888">
        <ele>478</ele>
        <time>2016-11-27T13:06:42.000Z</time>
      </trkpt>
      <trkpt lat="46.05995" lon="4.49887">
        <ele>478</ele>
        <time>2016-11-27T13:06:43.000Z</time>
      </trkpt>
      <trkpt lat="46.05996" lon="4.49884">
        <ele>477</ele>
        <time>2016-11-27T13:06:44.000Z</time>
      </trkpt>
      <trkpt lat="46.05998" lon="4.49882">
        <ele>475</ele>
        <time>2016-11-27T13:06:45.000Z</time>
      </trkpt>
      <trkpt lat="46.06001" lon="4.4988">
        <ele>475</ele>
        <time>2016-11-27T13:06:46.000Z</time>
      </trkpt>
      <trkpt lat="46.06003" lon="4.49879">
        <ele>474</ele>
        <time>2016-11-27T13:06:47.000Z</time>
      </trkpt>
      <trkpt lat="46.06006" lon="4.4988">
        <ele>473</ele>
        <time>2016-11-27T13:06:48.000Z</time>
      </trkpt>
      <trkpt lat="46.06008" lon="4.49881">
        <ele>473</ele>
        <time>2016-11-27T13:06:49.000Z</time>
      </trkpt>
      <trkpt lat="46.0601" lon="4.49883">
        <ele>474</ele>
        <time>2016-11-27T13:06:50.000Z</time>
      </trkpt>
      <trkpt lat="46.06012" lon="4.49885">
        <ele>474</ele>
        <time>2016-11-27T13:06:51.000Z</time>
      </trkpt>
      <trkpt lat="46.06014" lon="4.49889">
        <ele>473</ele>
        <time>2016-11-27T13:06:52.000Z</time>
      </trkpt>
      <trkpt lat="46.06015" lon="4.49892">
        <ele>473</ele>
        <time>2016-11-27T13:06:53.000Z</time>
      </trkpt>
      <trkpt lat="46.06016" lon="4.49896">
        <ele>473</ele>
        <time>2016-11-27T13:06:54.000Z</time>
      </trkpt>
      <trkpt lat="46.06017" lon="4.49899">
        <ele>474</ele>
        <time>2016-11-27T13:06:55.000Z</time>
      </trkpt>
      <trkpt lat="46.06017" lon="4.49903">
        <ele>474</ele>
        <time>2016-11-27T13:06:56.000Z</time>
      </trkpt>
      <trkpt lat="46.06017" lon="4.49907">
        <ele>474</ele>
        <time>2016-11-27T13:06:57.000Z</time>
      </trkpt>
      <trkpt lat="46.06018" lon="4.49911">
        <ele>473</ele>
        <time>2016-11-27T13:06:58.000Z</time>
      </trkpt>
      <trkpt lat="46.06018" lon="4.49915">
        <ele>473</ele>
        <time>2016-11-27T13:06:59.000Z</time>
      </trkpt>
      <trkpt lat="46.06019" lon="4.49919">
        <ele>472</ele>
        <time>2016-11-27T13:07:00.000Z</time>
      </trkpt>
      <trkpt lat="46.06019" lon="4.49923">
        <ele>472</ele>
        <time>2016-11-27T13:07:01.000Z</time>
      </trkpt>
      <trkpt lat="46.06019" lon="4.49926">
        <ele>471</ele>
        <time>2016-11-27T13:07:02.000Z</time>
      </trkpt>
      <trkpt lat="46.0602" lon="4.4993">
        <ele>471</ele>
        <time>2016-11-27T13:07:03.000Z</time>
      </trkpt>
      <trkpt lat="46.06021" lon="4.49933">
        <ele>471</ele>
        <time>2016-11-27T13:07:04.000Z</time>
      </trkpt>
      <trkpt lat="46.06022" lon="4.49936">
        <ele>470</ele>
        <time>2016-11-27T13:07:05.000Z</time>
      </trkpt>
      <trkpt lat="46.06024" lon="4.49939">
        <ele>469</ele>
        <time>2016-11-27T13:07:06.000Z</time>
      </trkpt>
      <trkpt lat="46.06026" lon="4.49941">
        <ele>468</ele>
        <time>2016-11-27T13:07:07.000Z</time>
      </trkpt>
      <trkpt lat="46.06028" lon="4.49943">
        <ele>467</ele>
        <time>2016-11-27T13:07:08.000Z</time>
      </trkpt>
      <trkpt lat="46.0603" lon="4.49944">
        <ele>467</ele>
        <time>2016-11-27T13:07:09.000Z</time>
      </trkpt>
      <trkpt lat="46.06032" lon="4.49945">
        <ele>466</ele>
        <time>2016-11-27T13:07:10.000Z</time>
      </trkpt>
      <trkpt lat="46.06033" lon="4.49945">
        <ele>466</ele>
        <time>2016-11-27T13:07:11.000Z</time>
      </trkpt>
      <trkpt lat="46.06034" lon="4.49946">
        <ele>466</ele>
        <time>2016-11-27T13:07:12.000Z</time>
      </trkpt>
      <trkpt lat="46.06035" lon="4.49946">
        <ele>465</ele>
        <time>2016-11-27T13:07:13.000Z</time>
      </trkpt>
      <trkpt lat="46.06037" lon="4.49946">
        <ele>465</ele>
        <time>2016-11-27T13:07:14.000Z</time>
      </trkpt>
      <trkpt lat="46.06038" lon="4.49947">
        <ele>464</ele>
        <time>2016-11-27T13:07:15.000Z</time>
      </trkpt>
      <trkpt lat="46.0604" lon="4.49947">
        <ele>463</ele>
        <time>2016-11-27T13:07:16.000Z</time>
      </trkpt>
      <trkpt lat="46.06042" lon="4.49946">
        <ele>463</ele>
        <time>2016-11-27T13:07:17.000Z</time>
      </trkpt>
      <trkpt lat="46.06044" lon="4.49946">
        <ele>462</ele>
        <time>2016-11-27T13:07:18.000Z</time>
      </trkpt>
      <trkpt lat="46.06046" lon="4.49945">
        <ele>461</ele>
        <time>2016-11-27T13:07:19.000Z</time>
      </trkpt>
      <trkpt lat="46.06048" lon="4.49945">
        <ele>460</ele>
        <time>2016-11-27T13:07:20.000Z</time>
      </trkpt>
      <trkpt lat="46.06051" lon="4.49944">
        <ele>459</ele>
        <time>2016-11-27T13:07:21.000Z</time>
      </trkpt>
      <trkpt lat="46.06053" lon="4.49944">
        <ele>458</ele>
        <time>2016-11-27T13:07:22.000Z</time>
      </trkpt>
      <trkpt lat="46.06056" lon="4.49943">
        <ele>457</ele>
        <time>2016-11-27T13:07:23.000Z</time>
      </trkpt>
      <trkpt lat="46.06059" lon="4.49943">
        <ele>456</ele>
        <time>2016-11-27T13:07:24.000Z</time>
      </trkpt>
      <trkpt lat="46.06062" lon="4.49943">
        <ele>455</ele>
        <time>2016-11-27T13:07:25.000Z</time>
      </trkpt>
      <trkpt lat="46.06065" lon="4.49943">
        <ele>454</ele>
        <time>2016-11-27T13:07:26.000Z</time>
      </trkpt>
      <trkpt lat="46.06068" lon="4.49944">
        <ele>454</ele>
        <time>2016-11-27T13:07:27.000Z</time>
      </trkpt>
      <trkpt lat="46.06071" lon="4.49946">
        <ele>453</ele>
        <time>2016-11-27T13:07:28.000Z</time>
      </trkpt>
      <trkpt lat="46.06074" lon="4.49949">
        <ele>453</ele>
        <time>2016-11-27T13:07:29.000Z</time>
      </trkpt>
      <trkpt lat="46.06077" lon="4.49953">
        <ele>452</ele>
        <time>2016-11-27T13:07:30.000Z</time>
      </trkpt>
      <trkpt lat="46.06079" lon="4.49957">
        <ele>452</ele>
        <time>2016-11-27T13:07:31.000Z</time>
      </trkpt>
      <trkpt lat="46.06081" lon="4.49961">
        <ele>452</ele>
        <time>2016-11-27T13:07:32.000Z</time>
      </trkpt>
      <trkpt lat="46.06083" lon="4.49964">
        <ele>452</ele>
        <time>2016-11-27T13:07:33.000Z</time>
      </trkpt>
      <trkpt lat="46.06084" lon="4.49967">
        <ele>451</ele>
        <time>2016-11-27T13:07:34.000Z</time>
      </trkpt>
      <trkpt lat="46.06086" lon="4.49971">
        <ele>450</ele>
        <time>2016-11-27T13:07:35.000Z</time>
      </trkpt>
      <trkpt lat="46.06087" lon="4.49975">
        <ele>449</ele>
        <time>2016-11-27T13:07:36.000Z</time>
      </trkpt>
      <trkpt lat="46.06088" lon="4.4998">
        <ele>449</ele>
        <time>2016-11-27T13:07:37.000Z</time>
      </trkpt>
      <trkpt lat="46.06088" lon="4.49984">
        <ele>448</ele>
        <time>2016-11-27T13:07:38.000Z</time>
      </trkpt>
      <trkpt lat="46.06089" lon="4.49989">
        <ele>448</ele>
        <time>2016-11-27T13:07:39.000Z</time>
      </trkpt>
      <trkpt lat="46.06089" lon="4.49994">
        <ele>448</ele>
        <time>2016-11-27T13:07:40.000Z</time>
      </trkpt>
      <trkpt lat="46.06089" lon="4.49998">
        <ele>448</ele>
        <time>2016-11-27T13:07:41.000Z</time>
      </trkpt>
      <trkpt lat="46.06088" lon="4.50002">
        <ele>447</ele>
        <time>2016-11-27T13:07:42.000Z</time>
      </trkpt>
      <trkpt lat="46.06088" lon="4.50005">
        <ele>447</ele>
        <time>2016-11-27T13:07:43.000Z</time>
      </trkpt>
      <trkpt lat="46.06087" lon="4.50007">
        <ele>447</ele>
        <time>2016-11-27T13:07:44.000Z</time>
      </trkpt>
      <trkpt lat="46.06086" lon="4.50009">
        <ele>446</ele>
        <time>2016-11-27T13:07:45.000Z</time>
      </trkpt>
      <trkpt lat="46.06086" lon="4.50013">
        <ele>445</ele>
        <time>2016-11-27T13:07:46.000Z</time>
      </trkpt>
      <trkpt lat="46.06085" lon="4.50016">
        <ele>446</ele>
        <time>2016-11-27T13:07:47.000Z</time>
      </trkpt>
      <trkpt lat="46.06083" lon="4.50021">
        <ele>445</ele>
        <time>2016-11-27T13:07:48.000Z</time>
      </trkpt>
      <trkpt lat="46.06082" lon="4.50025">
        <ele>445</ele>
        <time>2016-11-27T13:07:49.000Z</time>
      </trkpt>
      <trkpt lat="46.0608" lon="4.50028">
        <ele>444</ele>
        <time>2016-11-27T13:07:50.000Z</time>
      </trkpt>
      <trkpt lat="46.06078" lon="4.50032">
        <ele>443</ele>
        <time>2016-11-27T13:07:51.000Z</time>
      </trkpt>
      <trkpt lat="46.06076" lon="4.50036">
        <ele>442</ele>
        <time>2016-11-27T13:07:52.000Z</time>
      </trkpt>
      <trkpt lat="46.06074" lon="4.50039">
        <ele>442</ele>
        <time>2016-11-27T13:07:53.000Z</time>
      </trkpt>
      <trkpt lat="46.06071" lon="4.50043">
        <ele>442</ele>
        <time>2016-11-27T13:07:54.000Z</time>
      </trkpt>
      <trkpt lat="46.06069" lon="4.50047">
        <ele>441</ele>
        <time>2016-11-27T13:07:55.000Z</time>
      </trkpt>
      <trkpt lat="46.06067" lon="4.5005">
        <ele>440</ele>
        <time>2016-11-27T13:07:56.000Z</time>
      </trkpt>
      <trkpt lat="46.06065" lon="4.50053">
        <ele>439</ele>
        <time>2016-11-27T13:07:57.000Z</time>
      </trkpt>
      <trkpt lat="46.06062" lon="4.50056">
        <ele>439</ele>
        <time>2016-11-27T13:07:58.000Z</time>
      </trkpt>
      <trkpt lat="46.0606" lon="4.50059">
        <ele>438</ele>
        <time>2016-11-27T13:07:59.000Z</time>
      </trkpt>
      <trkpt lat="46.06058" lon="4.50062">
        <ele>438</ele>
        <time>2016-11-27T13:08:00.000Z</time>
      </trkpt>
      <trkpt lat="46.06055" lon="4.50066">
        <ele>437</ele>
        <time>2016-11-27T13:08:01.000Z</time>
      </trkpt>
      <trkpt lat="46.06052" lon="4.50069">
        <ele>437</ele>
        <time>2016-11-27T13:08:02.000Z</time>
      </trkpt>
      <trkpt lat="46.0605" lon="4.50072">
        <ele>436</ele>
        <time>2016-11-27T13:08:03.000Z</time>
      </trkpt>
      <trkpt lat="46.06047" lon="4.50075">
        <ele>437</ele>
        <time>2016-11-27T13:08:04.000Z</time>
      </trkpt>
      <trkpt lat="46.06044" lon="4.50078">
        <ele>436</ele>
        <time>2016-11-27T13:08:05.000Z</time>
      </trkpt>
      <trkpt lat="46.06042" lon="4.50081">
        <ele>436</ele>
        <time>2016-11-27T13:08:06.000Z</time>
      </trkpt>
      <trkpt lat="46.06039" lon="4.50084">
        <ele>435</ele>
        <time>2016-11-27T13:08:07.000Z</time>
      </trkpt>
      <trkpt lat="46.06037" lon="4.50087">
        <ele>435</ele>
        <time>2016-11-27T13:08:08.000Z</time>
      </trkpt>
      <trkpt lat="46.06034" lon="4.50089">
        <ele>434</ele>
        <time>2016-11-27T13:08:09.000Z</time>
      </trkpt>
      <trkpt lat="46.06032" lon="4.50092">
        <ele>434</ele>
        <time>2016-11-27T13:08:10.000Z</time>
      </trkpt>
      <trkpt lat="46.06029" lon="4.50095">
        <ele>433</ele>
        <time>2016-11-27T13:08:11.000Z</time>
      </trkpt>
      <trkpt lat="46.06027" lon="4.50096">
        <ele>433</ele>
        <time>2016-11-27T13:08:12.000Z</time>
      </trkpt>
      <trkpt lat="46.06025" lon="4.50098">
        <ele>432</ele>
        <time>2016-11-27T13:08:13.000Z</time>
      </trkpt>
      <trkpt lat="46.06024" lon="4.50099">
        <ele>431</ele>
        <time>2016-11-27T13:08:14.000Z</time>
      </trkpt>
      <trkpt lat="46.06024" lon="4.50099">
        <ele>431</ele>
        <time>2016-11-27T13:08:15.000Z</time>
      </trkpt>
      <trkpt lat="46.06024" lon="4.501">
        <ele>432</ele>
        <time>2016-11-27T13:08:16.000Z</time>
      </trkpt>
      <trkpt lat="46.06023" lon="4.50101">
        <ele>433</ele>
        <time>2016-11-27T13:08:17.000Z</time>
      </trkpt>
      <trkpt lat="46.06023" lon="4.50103">
        <ele>432</ele>
        <time>2016-11-27T13:08:18.000Z</time>
      </trkpt>
      <trkpt lat="46.06024" lon="4.50105">
        <ele>432</ele>
        <time>2016-11-27T13:08:19.000Z</time>
      </trkpt>
      <trkpt lat="46.06024" lon="4.50106">
        <ele>432</ele>
        <time>2016-11-27T13:08:20.000Z</time>
      </trkpt>
      <trkpt lat="46.06025" lon="4.50108">
        <ele>433</ele>
        <time>2016-11-27T13:08:21.000Z</time>
      </trkpt>
      <trkpt lat="46.06025" lon="4.50109">
        <ele>433</ele>
        <time>2016-11-27T13:08:22.000Z</time>
      </trkpt>
      <trkpt lat="46.06025" lon="4.5011">
        <ele>433</ele>
        <time>2016-11-27T13:08:23.000Z</time>
      </trkpt>
      <trkpt lat="46.06025" lon="4.5011">
        <ele>433</ele>
        <time>2016-11-27T13:08:24.000Z</time>
      </trkpt>
      <trkpt lat="46.06025" lon="4.5011">
        <ele>433</ele>
        <time>2016-11-27T13:08:25.000Z</time>
      </trkpt>
      <trkpt lat="46.06025" lon="4.5011">
        <ele>433</ele>
        <time>2016-11-27T13:08:26.000Z</time>
      </trkpt>
      <trkpt lat="46.06025" lon="4.5011">
        <ele>433</ele>
        <time>2016-11-27T13:08:27.000Z</time>
      </trkpt>
      <trkpt lat="46.06026" lon="4.5011">
        <ele>433</ele>
        <time>2016-11-27T13:08:28.000Z</time>
      </trkpt>
      <trkpt lat="46.06026" lon="4.5011">
        <ele>433</ele>
        <time>2016-11-27T13:08:29.000Z</time>
      </trkpt>
      <trkpt lat="46.06026" lon="4.5011">
        <ele>432</ele>
        <time>2016-11-27T13:08:30.000Z</time>
      </trkpt>
      <trkpt lat="46.06026" lon="4.5011">
        <ele>432</ele>
        <time>2016-11-27T13:08:31.000Z</time>
      </trkpt>
      <trkpt lat="46.06027" lon="4.50109">
        <ele>432</ele>
        <time>2016-11-27T13:08:32.000Z</time>
      </trkpt>
      <trkpt lat="46.06027" lon="4.50109">
        <ele>432</ele>
        <time>2016-11-27T13:08:33.000Z</time>
      </trkpt>
      <trkpt lat="46.06027" lon="4.50109">
        <ele>433</ele>
        <time>2016-11-27T13:08:34.000Z</time>
      </trkpt>
      <trkpt lat="46.06027" lon="4.50109">
        <ele>433</ele>
        <time>2016-11-27T13:08:35.000Z</time>
      </trkpt>
      <trkpt lat="46.06028" lon="4.50109">
        <ele>433</ele>
        <time>2016-11-27T13:08:36.000Z</time>
      </trkpt>
      <trkpt lat="46.06028" lon="4.50108">
        <ele>433</ele>
        <time>2016-11-27T13:08:37.000Z</time>
      </trkpt>
      <trkpt lat="46.06028" lon="4.50107">
        <ele>433</ele>
        <time>2016-11-27T13:08:38.000Z</time>
      </trkpt>
      <trkpt lat="46.06028" lon="4.50107">
        <ele>433</ele>
        <time>2016-11-27T13:08:39.000Z</time>
      </trkpt>
      <trkpt lat="46.06028" lon="4.50107">
        <ele>433</ele>
        <time>2016-11-27T13:08:40.000Z</time>
      </trkpt>
      <trkpt lat="46.06028" lon="4.50107">
        <ele>433</ele>
        <time>2016-11-27T13:08:41.000Z</time>
      </trkpt>
      <trkpt lat="46.06028" lon="4.50107">
        <ele>433</ele>
        <time>2016-11-27T13:08:42.000Z</time>
      </trkpt>
      <trkpt lat="46.06028" lon="4.50107">
        <ele>433</ele>
        <time>2016-11-27T13:08:43.000Z</time>
      </trkpt>
      <trkpt lat="46.06028" lon="4.50107">
        <ele>434</ele>
        <time>2016-11-27T13:08:44.000Z</time>
      </trkpt>
      <trkpt lat="46.06027" lon="4.50107">
        <ele>434</ele>
        <time>2016-11-27T13:08:45.000Z</time>
      </trkpt>
      <trkpt lat="46.06027" lon="4.50107">
        <ele>434</ele>
        <time>2016-11-27T13:08:46.000Z</time>
      </trkpt>
      <trkpt lat="46.06027" lon="4.50107">
        <ele>434</ele>
        <time>2016-11-27T13:08:47.000Z</time>
      </trkpt>
      <trkpt lat="46.06027" lon="4.50107">
        <ele>434</ele>
        <time>2016-11-27T13:08:48.000Z</time>
      </trkpt>
      <trkpt lat="46.06026" lon="4.50107">
        <ele>434</ele>
        <time>2016-11-27T13:08:49.000Z</time>
      </trkpt>
      <trkpt lat="46.06026" lon="4.50107">
        <ele>434</ele>
        <time>2016-11-27T13:08:50.000Z</time>
      </trkpt>
      <trkpt lat="46.06025" lon="4.50107">
        <ele>434</ele>
        <time>2016-11-27T13:08:51.000Z</time>
      </trkpt>
      <trkpt lat="46.06025" lon="4.50107">
        <ele>434</ele>
        <time>2016-11-27T13:08:52.000Z</time>
      </trkpt>
      <trkpt lat="46.06025" lon="4.50107">
        <ele>435</ele>
        <time>2016-11-27T13:08:53.000Z</time>
      </trkpt>
      <trkpt lat="46.06025" lon="4.50107">
        <ele>435</ele>
        <time>2016-11-27T13:08:54.000Z</time>
      </trkpt>
      <trkpt lat="46.06025" lon="4.50107">
        <ele>435</ele>
        <time>2016-11-27T13:08:55.000Z</time>
      </trkpt>
      <trkpt lat="46.06025" lon="4.50107">
        <ele>435</ele>
        <time>2016-11-27T13:08:56.000Z</time>
      </trkpt>
      <trkpt lat="46.06025" lon="4.50107">
        <ele>436</ele>
        <time>2016-11-27T13:08:57.000Z</time>
      </trkpt>
      <trkpt lat="46.06025" lon="4.50107">
        <ele>436</ele>
        <time>2016-11-27T13:08:58.000Z</time>
      </trkpt>
      <trkpt lat="46.06025" lon="4.50107">
        <ele>436</ele>
        <time>2016-11-27T13:08:59.000Z</time>
      </trkpt>
      <trkpt lat="46.06025" lon="4.50107">
        <ele>437</ele>
        <time>2016-11-27T13:09:00.000Z</time>
      </trkpt>
      <trkpt lat="46.06025" lon="4.50107">
        <ele>436</ele>
        <time>2016-11-27T13:09:01.000Z</time>
      </trkpt>
      <trkpt lat="46.06026" lon="4.50107">
        <ele>437</ele>
        <time>2016-11-27T13:09:02.000Z</time>
      </trkpt>
      <trkpt lat="46.06027" lon="4.50107">
        <ele>437</ele>
        <time>2016-11-27T13:09:03.000Z</time>
      </trkpt>
      <trkpt lat="46.06028" lon="4.50107">
        <ele>436</ele>
        <time>2016-11-27T13:09:04.000Z</time>
      </trkpt>
      <trkpt lat="46.06028" lon="4.50106">
        <ele>436</ele>
        <time>2016-11-27T13:09:05.000Z</time>
      </trkpt>
      <trkpt lat="46.06029" lon="4.50106">
        <ele>436</ele>
        <time>2016-11-27T13:09:06.000Z</time>
      </trkpt>
      <trkpt lat="46.0603" lon="4.50105">
        <ele>436</ele>
        <time>2016-11-27T13:09:07.000Z</time>
      </trkpt>
      <trkpt lat="46.0603" lon="4.50105">
        <ele>436</ele>
        <time>2016-11-27T13:09:08.000Z</time>
      </trkpt>
      <trkpt lat="46.06031" lon="4.50104">
        <ele>436</ele>
        <time>2016-11-27T13:09:09.000Z</time>
      </trkpt>
      <trkpt lat="46.06032" lon="4.50104">
        <ele>436</ele>
        <time>2016-11-27T13:09:10.000Z</time>
      </trkpt>
      <trkpt lat="46.06033" lon="4.50103">
        <ele>435</ele>
        <time>2016-11-27T13:09:11.000Z</time>
      </trkpt>
      <trkpt lat="46.06034" lon="4.50103">
        <ele>435</ele>
        <time>2016-11-27T13:09:12.000Z</time>
      </trkpt>
      <trkpt lat="46.06035" lon="4.50103">
        <ele>435</ele>
        <time>2016-11-27T13:09:13.000Z</time>
      </trkpt>
      <trkpt lat="46.06037" lon="4.50102">
        <ele>435</ele>
        <time>2016-11-27T13:09:14.000Z</time>
      </trkpt>
      <trkpt lat="46.06038" lon="4.50102">
        <ele>435</ele>
        <time>2016-11-27T13:09:15.000Z</time>
      </trkpt>
      <trkpt lat="46.0604" lon="4.50101">
        <ele>435</ele>
        <time>2016-11-27T13:09:16.000Z</time>
      </trkpt>
      <trkpt lat="46.06041" lon="4.501">
        <ele>435</ele>
        <time>2016-11-27T13:09:17.000Z</time>
      </trkpt>
      <trkpt lat="46.06043" lon="4.50099">
        <ele>435</ele>
        <time>2016-11-27T13:09:18.000Z</time>
      </trkpt>
      <trkpt lat="46.06045" lon="4.50098">
        <ele>435</ele>
        <time>2016-11-27T13:09:19.000Z</time>
      </trkpt>
      <trkpt lat="46.06047" lon="4.50098">
        <ele>435</ele>
        <time>2016-11-27T13:09:20.000Z</time>
      </trkpt>
      <trkpt lat="46.06049" lon="4.50097">
        <ele>434</ele>
        <time>2016-11-27T13:09:21.000Z</time>
      </trkpt>
      <trkpt lat="46.06051" lon="4.50097">
        <ele>434</ele>
        <time>2016-11-27T13:09:22.000Z</time>
      </trkpt>
      <trkpt lat="46.06053" lon="4.50096">
        <ele>435</ele>
        <time>2016-11-27T13:09:23.000Z</time>
      </trkpt>
      <trkpt lat="46.06056" lon="4.50095">
        <ele>435</ele>
        <time>2016-11-27T13:09:24.000Z</time>
      </trkpt>
      <trkpt lat="46.06058" lon="4.50094">
        <ele>434</ele>
        <time>2016-11-27T13:09:25.000Z</time>
      </trkpt>
      <trkpt lat="46.0606" lon="4.50093">
        <ele>434</ele>
        <time>2016-11-27T13:09:26.000Z</time>
      </trkpt>
      <trkpt lat="46.06063" lon="4.50092">
        <ele>434</ele>
        <time>2016-11-27T13:09:27.000Z</time>
      </trkpt>
      <trkpt lat="46.06066" lon="4.5009">
        <ele>434</ele>
        <time>2016-11-27T13:09:28.000Z</time>
      </trkpt>
      <trkpt lat="46.06069" lon="4.5009">
        <ele>433</ele>
        <time>2016-11-27T13:09:29.000Z</time>
      </trkpt>
      <trkpt lat="46.06072" lon="4.50089">
        <ele>434</ele>
        <time>2016-11-27T13:09:30.000Z</time>
      </trkpt>
      <trkpt lat="46.06075" lon="4.50088">
        <ele>434</ele>
        <time>2016-11-27T13:09:31.000Z</time>
      </trkpt>
      <trkpt lat="46.06077" lon="4.50087">
        <ele>434</ele>
        <time>2016-11-27T13:09:32.000Z</time>
      </trkpt>
      <trkpt lat="46.0608" lon="4.50085">
        <ele>433</ele>
        <time>2016-11-27T13:09:33.000Z</time>
      </trkpt>
      <trkpt lat="46.06083" lon="4.50084">
        <ele>432</ele>
        <time>2016-11-27T13:09:34.000Z</time>
      </trkpt>
      <trkpt lat="46.06086" lon="4.50081">
        <ele>431</ele>
        <time>2016-11-27T13:09:35.000Z</time>
      </trkpt>
      <trkpt lat="46.06089" lon="4.50079">
        <ele>429</ele>
        <time>2016-11-27T13:09:36.000Z</time>
      </trkpt>
      <trkpt lat="46.06092" lon="4.50077">
        <ele>429</ele>
        <time>2016-11-27T13:09:37.000Z</time>
      </trkpt>
      <trkpt lat="46.06094" lon="4.50075">
        <ele>426</ele>
        <time>2016-11-27T13:09:38.000Z</time>
      </trkpt>
      <trkpt lat="46.06097" lon="4.50072">
        <ele>426</ele>
        <time>2016-11-27T13:09:39.000Z</time>
      </trkpt>
      <trkpt lat="46.061" lon="4.5007">
        <ele>426</ele>
        <time>2016-11-27T13:09:40.000Z</time>
      </trkpt>
      <trkpt lat="46.06103" lon="4.50068">
        <ele>425</ele>
        <time>2016-11-27T13:09:41.000Z</time>
      </trkpt>
      <trkpt lat="46.06107" lon="4.50066">
        <ele>425</ele>
        <time>2016-11-27T13:09:42.000Z</time>
      </trkpt>
      <trkpt lat="46.06111" lon="4.50063">
        <ele>425</ele>
        <time>2016-11-27T13:09:43.000Z</time>
      </trkpt>
      <trkpt lat="46.06114" lon="4.50061">
        <ele>425</ele>
        <time>2016-11-27T13:09:44.000Z</time>
      </trkpt>
      <trkpt lat="46.06116" lon="4.50058">
        <ele>424</ele>
        <time>2016-11-27T13:09:45.000Z</time>
      </trkpt>
      <trkpt lat="46.06119" lon="4.50055">
        <ele>424</ele>
        <time>2016-11-27T13:09:46.000Z</time>
      </trkpt>
      <trkpt lat="46.06121" lon="4.50052">
        <ele>424</ele>
        <time>2016-11-27T13:09:47.000Z</time>
      </trkpt>
      <trkpt lat="46.06123" lon="4.50049">
        <ele>423</ele>
        <time>2016-11-27T13:09:48.000Z</time>
      </trkpt>
      <trkpt lat="46.06126" lon="4.50046">
        <ele>423</ele>
        <time>2016-11-27T13:09:49.000Z</time>
      </trkpt>
      <trkpt lat="46.06128" lon="4.50042">
        <ele>422</ele>
        <time>2016-11-27T13:09:50.000Z</time>
      </trkpt>
      <trkpt lat="46.06129" lon="4.50039">
        <ele>422</ele>
        <time>2016-11-27T13:09:51.000Z</time>
      </trkpt>
      <trkpt lat="46.06131" lon="4.50035">
        <ele>422</ele>
        <time>2016-11-27T13:09:52.000Z</time>
      </trkpt>
      <trkpt lat="46.06132" lon="4.50032">
        <ele>422</ele>
        <time>2016-11-27T13:09:53.000Z</time>
      </trkpt>
      <trkpt lat="46.06134" lon="4.50028">
        <ele>422</ele>
        <time>2016-11-27T13:09:54.000Z</time>
      </trkpt>
      <trkpt lat="46.06135" lon="4.50024">
        <ele>421</ele>
        <time>2016-11-27T13:09:55.000Z</time>
      </trkpt>
      <trkpt lat="46.06136" lon="4.5002">
        <ele>421</ele>
        <time>2016-11-27T13:09:56.000Z</time>
      </trkpt>
      <trkpt lat="46.06138" lon="4.50016">
        <ele>420</ele>
        <time>2016-11-27T13:09:57.000Z</time>
      </trkpt>
      <trkpt lat="46.06139" lon="4.50012">
        <ele>419</ele>
        <time>2016-11-27T13:09:58.000Z</time>
      </trkpt>
      <trkpt lat="46.0614" lon="4.50008">
        <ele>419</ele>
        <time>2016-11-27T13:09:59.000Z</time>
      </trkpt>
      <trkpt lat="46.06142" lon="4.50004">
        <ele>418</ele>
        <time>2016-11-27T13:10:00.000Z</time>
      </trkpt>
      <trkpt lat="46.06143" lon="4.5">
        <ele>418</ele>
        <time>2016-11-27T13:10:01.000Z</time>
      </trkpt>
      <trkpt lat="46.06144" lon="4.49997">
        <ele>417</ele>
        <time>2016-11-27T13:10:02.000Z</time>
      </trkpt>
      <trkpt lat="46.06145" lon="4.49993">
        <ele>417</ele>
        <time>2016-11-27T13:10:03.000Z</time>
      </trkpt>
      <trkpt lat="46.06146" lon="4.4999">
        <ele>417</ele>
        <time>2016-11-27T13:10:04.000Z</time>
      </trkpt>
      <trkpt lat="46.06147" lon="4.49987">
        <ele>416</ele>
        <time>2016-11-27T13:10:05.000Z</time>
      </trkpt>
      <trkpt lat="46.06149" lon="4.49984">
        <ele>415</ele>
        <time>2016-11-27T13:10:06.000Z</time>
      </trkpt>
      <trkpt lat="46.06151" lon="4.49981">
        <ele>416</ele>
        <time>2016-11-27T13:10:07.000Z</time>
      </trkpt>
      <trkpt lat="46.06152" lon="4.49978">
        <ele>416</ele>
        <time>2016-11-27T13:10:08.000Z</time>
      </trkpt>
      <trkpt lat="46.06152" lon="4.49975">
        <ele>416</ele>
        <time>2016-11-27T13:10:09.000Z</time>
      </trkpt>
      <trkpt lat="46.06153" lon="4.49972">
        <ele>416</ele>
        <time>2016-11-27T13:10:10.000Z</time>
      </trkpt>
      <trkpt lat="46.06153" lon="4.49969">
        <ele>416</ele>
        <time>2016-11-27T13:10:11.000Z</time>
      </trkpt>
      <trkpt lat="46.06153" lon="4.49967">
        <ele>416</ele>
        <time>2016-11-27T13:10:12.000Z</time>
      </trkpt>
      <trkpt lat="46.06153" lon="4.49964">
        <ele>417</ele>
        <time>2016-11-27T13:10:13.000Z</time>
      </trkpt>
      <trkpt lat="46.06153" lon="4.49961">
        <ele>416</ele>
        <time>2016-11-27T13:10:14.000Z</time>
      </trkpt>
      <trkpt lat="46.06152" lon="4.49958">
        <ele>416</ele>
        <time>2016-11-27T13:10:15.000Z</time>
      </trkpt>
      <trkpt lat="46.06152" lon="4.49955">
        <ele>416</ele>
        <time>2016-11-27T13:10:16.000Z</time>
      </trkpt>
      <trkpt lat="46.06151" lon="4.49952">
        <ele>417</ele>
        <time>2016-11-27T13:10:17.000Z</time>
      </trkpt>
      <trkpt lat="46.06151" lon="4.49949">
        <ele>416</ele>
        <time>2016-11-27T13:10:18.000Z</time>
      </trkpt>
      <trkpt lat="46.0615" lon="4.49945">
        <ele>416</ele>
        <time>2016-11-27T13:10:19.000Z</time>
      </trkpt>
      <trkpt lat="46.0615" lon="4.49942">
        <ele>416</ele>
        <time>2016-11-27T13:10:20.000Z</time>
      </trkpt>
      <trkpt lat="46.0615" lon="4.49938">
        <ele>416</ele>
        <time>2016-11-27T13:10:21.000Z</time>
      </trkpt>
      <trkpt lat="46.06149" lon="4.49934">
        <ele>417</ele>
        <time>2016-11-27T13:10:22.000Z</time>
      </trkpt>
      <trkpt lat="46.06149" lon="4.4993">
        <ele>417</ele>
        <time>2016-11-27T13:10:23.000Z</time>
      </trkpt>
      <trkpt lat="46.06149" lon="4.49926">
        <ele>417</ele>
        <time>2016-11-27T13:10:24.000Z</time>
      </trkpt>
      <trkpt lat="46.06148" lon="4.49923">
        <ele>417</ele>
        <time>2016-11-27T13:10:25.000Z</time>
      </trkpt>
      <trkpt lat="46.06148" lon="4.49919">
        <ele>417</ele>
        <time>2016-11-27T13:10:26.000Z</time>
      </trkpt>
      <trkpt lat="46.06148" lon="4.49916">
        <ele>417</ele>
        <time>2016-11-27T13:10:27.000Z</time>
      </trkpt>
      <trkpt lat="46.06147" lon="4.49912">
        <ele>417</ele>
        <time>2016-11-27T13:10:28.000Z</time>
      </trkpt>
      <trkpt lat="46.06147" lon="4.49908">
        <ele>417</ele>
        <time>2016-11-27T13:10:29.000Z</time>
      </trkpt>
      <trkpt lat="46.06147" lon="4.49904">
        <ele>416</ele>
        <time>2016-11-27T13:10:30.000Z</time>
      </trkpt>
      <trkpt lat="46.06147" lon="4.499">
        <ele>416</ele>
        <time>2016-11-27T13:10:31.000Z</time>
      </trkpt>
      <trkpt lat="46.06147" lon="4.49896">
        <ele>417</ele>
        <time>2016-11-27T13:10:32.000Z</time>
      </trkpt>
      <trkpt lat="46.06146" lon="4.49892">
        <ele>417</ele>
        <time>2016-11-27T13:10:33.000Z</time>
      </trkpt>
      <trkpt lat="46.06146" lon="4.49889">
        <ele>417</ele>
        <time>2016-11-27T13:10:34.000Z</time>
      </trkpt>
      <trkpt lat="46.06146" lon="4.49885">
        <ele>416</ele>
        <time>2016-11-27T13:10:35.000Z</time>
      </trkpt>
      <trkpt lat="46.06145" lon="4.49882">
        <ele>417</ele>
        <time>2016-11-27T13:10:36.000Z</time>
      </trkpt>
      <trkpt lat="46.06145" lon="4.49878">
        <ele>416</ele>
        <time>2016-11-27T13:10:37.000Z</time>
      </trkpt>
      <trkpt lat="46.06145" lon="4.49874">
        <ele>416</ele>
        <time>2016-11-27T13:10:38.000Z</time>
      </trkpt>
      <trkpt lat="46.06145" lon="4.49869">
        <ele>416</ele>
        <time>2016-11-27T13:10:39.000Z</time>
      </trkpt>
      <trkpt lat="46.06145" lon="4.49866">
        <ele>415</ele>
        <time>2016-11-27T13:10:40.000Z</time>
      </trkpt>
      <trkpt lat="46.06145" lon="4.49862">
        <ele>415</ele>
        <time>2016-11-27T13:10:41.000Z</time>
      </trkpt>
      <trkpt lat="46.06145" lon="4.49858">
        <ele>415</ele>
        <time>2016-11-27T13:10:42.000Z</time>
      </trkpt>
      <trkpt lat="46.06145" lon="4.49854">
        <ele>416</ele>
        <time>2016-11-27T13:10:43.000Z</time>
      </trkpt>
      <trkpt lat="46.06146" lon="4.4985">
        <ele>416</ele>
        <time>2016-11-27T13:10:44.000Z</time>
      </trkpt>
      <trkpt lat="46.06146" lon="4.49846">
        <ele>416</ele>
        <time>2016-11-27T13:10:45.000Z</time>
      </trkpt>
      <trkpt lat="46.06146" lon="4.49842">
        <ele>416</ele>
        <time>2016-11-27T13:10:46.000Z</time>
      </trkpt>
      <trkpt lat="46.06146" lon="4.49838">
        <ele>417</ele>
        <time>2016-11-27T13:10:47.000Z</time>
      </trkpt>
      <trkpt lat="46.06146" lon="4.49834">
        <ele>417</ele>
        <time>2016-11-27T13:10:48.000Z</time>
      </trkpt>
      <trkpt lat="46.06146" lon="4.4983">
        <ele>416</ele>
        <time>2016-11-27T13:10:49.000Z</time>
      </trkpt>
      <trkpt lat="46.06147" lon="4.49826">
        <ele>416</ele>
        <time>2016-11-27T13:10:50.000Z</time>
      </trkpt>
      <trkpt lat="46.06147" lon="4.49822">
        <ele>416</ele>
        <time>2016-11-27T13:10:51.000Z</time>
      </trkpt>
      <trkpt lat="46.06147" lon="4.49818">
        <ele>416</ele>
        <time>2016-11-27T13:10:52.000Z</time>
      </trkpt>
      <trkpt lat="46.06148" lon="4.49814">
        <ele>416</ele>
        <time>2016-11-27T13:10:53.000Z</time>
      </trkpt>
      <trkpt lat="46.06148" lon="4.4981">
        <ele>416</ele>
        <time>2016-11-27T13:10:54.000Z</time>
      </trkpt>
      <trkpt lat="46.06148" lon="4.49806">
        <ele>415</ele>
        <time>2016-11-27T13:10:55.000Z</time>
      </trkpt>
      <trkpt lat="46.06149" lon="4.49802">
        <ele>415</ele>
        <time>2016-11-27T13:10:56.000Z</time>
      </trkpt>
      <trkpt lat="46.06149" lon="4.49798">
        <ele>415</ele>
        <time>2016-11-27T13:10:57.000Z</time>
      </trkpt>
      <trkpt lat="46.06149" lon="4.49794">
        <ele>415</ele>
        <time>2016-11-27T13:10:58.000Z</time>
      </trkpt>
      <trkpt lat="46.0615" lon="4.49791">
        <ele>415</ele>
        <time>2016-11-27T13:10:59.000Z</time>
      </trkpt>
      <trkpt lat="46.0615" lon="4.49787">
        <ele>415</ele>
        <time>2016-11-27T13:11:00.000Z</time>
      </trkpt>
      <trkpt lat="46.0615" lon="4.49783">
        <ele>415</ele>
        <time>2016-11-27T13:11:01.000Z</time>
      </trkpt>
      <trkpt lat="46.0615" lon="4.4978">
        <ele>415</ele>
        <time>2016-11-27T13:11:02.000Z</time>
      </trkpt>
      <trkpt lat="46.06151" lon="4.49776">
        <ele>415</ele>
        <time>2016-11-27T13:11:03.000Z</time>
      </trkpt>
      <trkpt lat="46.06151" lon="4.49772">
        <ele>415</ele>
        <time>2016-11-27T13:11:04.000Z</time>
      </trkpt>
      <trkpt lat="46.06151" lon="4.49769">
        <ele>415</ele>
        <time>2016-11-27T13:11:05.000Z</time>
      </trkpt>
      <trkpt lat="46.0615" lon="4.49765">
        <ele>415</ele>
        <time>2016-11-27T13:11:06.000Z</time>
      </trkpt>
      <trkpt lat="46.0615" lon="4.49761">
        <ele>415</ele>
        <time>2016-11-27T13:11:07.000Z</time>
      </trkpt>
      <trkpt lat="46.0615" lon="4.49757">
        <ele>417</ele>
        <time>2016-11-27T13:11:08.000Z</time>
      </trkpt>
      <trkpt lat="46.0615" lon="4.49753">
        <ele>416</ele>
        <time>2016-11-27T13:11:09.000Z</time>
      </trkpt>
      <trkpt lat="46.0615" lon="4.49749">
        <ele>416</ele>
        <time>2016-11-27T13:11:10.000Z</time>
      </trkpt>
      <trkpt lat="46.06149" lon="4.49745">
        <ele>416</ele>
        <time>2016-11-27T13:11:11.000Z</time>
      </trkpt>
      <trkpt lat="46.06149" lon="4.49741">
        <ele>417</ele>
        <time>2016-11-27T13:11:12.000Z</time>
      </trkpt>
      <trkpt lat="46.06148" lon="4.49737">
        <ele>417</ele>
        <time>2016-11-27T13:11:13.000Z</time>
      </trkpt>
      <trkpt lat="46.06147" lon="4.49733">
        <ele>418</ele>
        <time>2016-11-27T13:11:14.000Z</time>
      </trkpt>
      <trkpt lat="46.06146" lon="4.49729">
        <ele>417</ele>
        <time>2016-11-27T13:11:15.000Z</time>
      </trkpt>
      <trkpt lat="46.06145" lon="4.49727">
        <ele>417</ele>
        <time>2016-11-27T13:11:16.000Z</time>
      </trkpt>
      <trkpt lat="46.06144" lon="4.49724">
        <ele>417</ele>
        <time>2016-11-27T13:11:17.000Z</time>
      </trkpt>
      <trkpt lat="46.06143" lon="4.49723">
        <ele>417</ele>
        <time>2016-11-27T13:11:18.000Z</time>
      </trkpt>
      <trkpt lat="46.06143" lon="4.49722">
        <ele>417</ele>
        <time>2016-11-27T13:11:19.000Z</time>
      </trkpt>
      <trkpt lat="46.06143" lon="4.49721">
        <ele>417</ele>
        <time>2016-11-27T13:11:20.000Z</time>
      </trkpt>
      <trkpt lat="46.06143" lon="4.49721">
        <ele>417</ele>
        <time>2016-11-27T13:11:21.000Z</time>
      </trkpt>
      <trkpt lat="46.06143" lon="4.49721">
        <ele>417</ele>
        <time>2016-11-27T13:11:22.000Z</time>
      </trkpt>
      <trkpt lat="46.06143" lon="4.49721">
        <ele>417</ele>
        <time>2016-11-27T13:11:23.000Z</time>
      </trkpt>
      <trkpt lat="46.06143" lon="4.49721">
        <ele>417</ele>
        <time>2016-11-27T13:11:24.000Z</time>
      </trkpt>
      <trkpt lat="46.06143" lon="4.4972">
        <ele>417</ele>
        <time>2016-11-27T13:11:25.000Z</time>
      </trkpt>
      <trkpt lat="46.06143" lon="4.49721">
        <ele>417</ele>
        <time>2016-11-27T13:11:26.000Z</time>
      </trkpt>
      <trkpt lat="46.06143" lon="4.49721">
        <ele>417</ele>
        <time>2016-11-27T13:11:27.000Z</time>
      </trkpt>
      <trkpt lat="46.06143" lon="4.49721">
        <ele>417</ele>
        <time>2016-11-27T13:11:28.000Z</time>
      </trkpt>
      <trkpt lat="46.06143" lon="4.49721">
        <ele>417</ele>
        <time>2016-11-27T13:11:29.000Z</time>
      </trkpt>
      <trkpt lat="46.06143" lon="4.49721">
        <ele>417</ele>
        <time>2016-11-27T13:11:30.000Z</time>
      </trkpt>
      <trkpt lat="46.06143" lon="4.4972">
        <ele>418</ele>
        <time>2016-11-27T13:11:31.000Z</time>
      </trkpt>
      <trkpt lat="46.06143" lon="4.4972">
        <ele>417</ele>
        <time>2016-11-27T13:11:32.000Z</time>
      </trkpt>
      <trkpt lat="46.06143" lon="4.4972">
        <ele>417</ele>
        <time>2016-11-27T13:11:33.000Z</time>
      </trkpt>
      <trkpt lat="46.06143" lon="4.49719">
        <ele>417</ele>
        <time>2016-11-27T13:11:34.000Z</time>
      </trkpt>
      <trkpt lat="46.06143" lon="4.49718">
        <ele>417</ele>
        <time>2016-11-27T13:11:35.000Z</time>
      </trkpt>
      <trkpt lat="46.06142" lon="4.49716">
        <ele>418</ele>
        <time>2016-11-27T13:11:36.000Z</time>
      </trkpt>
      <trkpt lat="46.06142" lon="4.49715">
        <ele>418</ele>
        <time>2016-11-27T13:11:37.000Z</time>
      </trkpt>
      <trkpt lat="46.06141" lon="4.49713">
        <ele>418</ele>
        <time>2016-11-27T13:11:38.000Z</time>
      </trkpt>
      <trkpt lat="46.0614" lon="4.49711">
        <ele>418</ele>
        <time>2016-11-27T13:11:39.000Z</time>
      </trkpt>
      <trkpt lat="46.06139" lon="4.49709">
        <ele>417</ele>
        <time>2016-11-27T13:11:40.000Z</time>
      </trkpt>
      <trkpt lat="46.06138" lon="4.49706">
        <ele>417</ele>
        <time>2016-11-27T13:11:41.000Z</time>
      </trkpt>
      <trkpt lat="46.06137" lon="4.49703">
        <ele>417</ele>
        <time>2016-11-27T13:11:42.000Z</time>
      </trkpt>
      <trkpt lat="46.06135" lon="4.497">
        <ele>418</ele>
        <time>2016-11-27T13:11:43.000Z</time>
      </trkpt>
      <trkpt lat="46.06134" lon="4.49696">
        <ele>418</ele>
        <time>2016-11-27T13:11:44.000Z</time>
      </trkpt>
      <trkpt lat="46.06133" lon="4.49693">
        <ele>418</ele>
        <time>2016-11-27T13:11:45.000Z</time>
      </trkpt>
      <trkpt lat="46.06131" lon="4.49689">
        <ele>418</ele>
        <time>2016-11-27T13:11:46.000Z</time>
      </trkpt>
      <trkpt lat="46.06129" lon="4.49686">
        <ele>418</ele>
        <time>2016-11-27T13:11:47.000Z</time>
      </trkpt>
      <trkpt lat="46.06128" lon="4.49683">
        <ele>418</ele>
        <time>2016-11-27T13:11:48.000Z</time>
      </trkpt>
      <trkpt lat="46.06127" lon="4.49679">
        <ele>418</ele>
        <time>2016-11-27T13:11:49.000Z</time>
      </trkpt>
      <trkpt lat="46.06126" lon="4.49676">
        <ele>418</ele>
        <time>2016-11-27T13:11:50.000Z</time>
      </trkpt>
      <trkpt lat="46.06125" lon="4.49672">
        <ele>418</ele>
        <time>2016-11-27T13:11:51.000Z</time>
      </trkpt>
      <trkpt lat="46.06125" lon="4.49669">
        <ele>418</ele>
        <time>2016-11-27T13:11:52.000Z</time>
      </trkpt>
      <trkpt lat="46.06126" lon="4.49664">
        <ele>418</ele>
        <time>2016-11-27T13:11:53.000Z</time>
      </trkpt>
      <trkpt lat="46.06127" lon="4.4966">
        <ele>417</ele>
        <time>2016-11-27T13:11:54.000Z</time>
      </trkpt>
      <trkpt lat="46.06127" lon="4.49656">
        <ele>417</ele>
        <time>2016-11-27T13:11:55.000Z</time>
      </trkpt>
      <trkpt lat="46.06128" lon="4.49652">
        <ele>416</ele>
        <time>2016-11-27T13:11:56.000Z</time>
      </trkpt>
      <trkpt lat="46.06129" lon="4.49649">
        <ele>416</ele>
        <time>2016-11-27T13:11:57.000Z</time>
      </trkpt>
      <trkpt lat="46.0613" lon="4.49645">
        <ele>416</ele>
        <time>2016-11-27T13:11:58.000Z</time>
      </trkpt>
      <trkpt lat="46.06131" lon="4.49642">
        <ele>416</ele>
        <time>2016-11-27T13:11:59.000Z</time>
      </trkpt>
      <trkpt lat="46.06132" lon="4.49638">
        <ele>415</ele>
        <time>2016-11-27T13:12:00.000Z</time>
      </trkpt>
      <trkpt lat="46.06133" lon="4.49635">
        <ele>415</ele>
        <time>2016-11-27T13:12:01.000Z</time>
      </trkpt>
      <trkpt lat="46.06135" lon="4.49632">
        <ele>414</ele>
        <time>2016-11-27T13:12:02.000Z</time>
      </trkpt>
      <trkpt lat="46.06136" lon="4.49629">
        <ele>413</ele>
        <time>2016-11-27T13:12:03.000Z</time>
      </trkpt>
      <trkpt lat="46.06138" lon="4.49625">
        <ele>413</ele>
        <time>2016-11-27T13:12:04.000Z</time>
      </trkpt>
      <trkpt lat="46.0614" lon="4.49622">
        <ele>413</ele>
        <time>2016-11-27T13:12:05.000Z</time>
      </trkpt>
      <trkpt lat="46.06142" lon="4.49619">
        <ele>413</ele>
        <time>2016-11-27T13:12:06.000Z</time>
      </trkpt>
      <trkpt lat="46.06144" lon="4.49616">
        <ele>413</ele>
        <time>2016-11-27T13:12:07.000Z</time>
      </trkpt>
      <trkpt lat="46.06146" lon="4.49612">
        <ele>412</ele>
        <time>2016-11-27T13:12:08.000Z</time>
      </trkpt>
      <trkpt lat="46.06148" lon="4.49609">
        <ele>412</ele>
        <time>2016-11-27T13:12:09.000Z</time>
      </trkpt>
      <trkpt lat="46.06149" lon="4.49605">
        <ele>413</ele>
        <time>2016-11-27T13:12:10.000Z</time>
      </trkpt>
      <trkpt lat="46.0615" lon="4.49601">
        <ele>413</ele>
        <time>2016-11-27T13:12:11.000Z</time>
      </trkpt>
      <trkpt lat="46.06151" lon="4.49597">
        <ele>413</ele>
        <time>2016-11-27T13:12:12.000Z</time>
      </trkpt>
      <trkpt lat="46.06153" lon="4.49593">
        <ele>413</ele>
        <time>2016-11-27T13:12:13.000Z</time>
      </trkpt>
      <trkpt lat="46.06154" lon="4.49589">
        <ele>413</ele>
        <time>2016-11-27T13:12:14.000Z</time>
      </trkpt>
      <trkpt lat="46.06155" lon="4.49585">
        <ele>414</ele>
        <time>2016-11-27T13:12:15.000Z</time>
      </trkpt>
      <trkpt lat="46.06156" lon="4.49581">
        <ele>414</ele>
        <time>2016-11-27T13:12:16.000Z</time>
      </trkpt>
      <trkpt lat="46.06157" lon="4.49577">
        <ele>414</ele>
        <time>2016-11-27T13:12:17.000Z</time>
      </trkpt>
      <trkpt lat="46.06158" lon="4.49573">
        <ele>414</ele>
        <time>2016-11-27T13:12:18.000Z</time>
      </trkpt>
      <trkpt lat="46.06159" lon="4.49569">
        <ele>414</ele>
        <time>2016-11-27T13:12:19.000Z</time>
      </trkpt>
      <trkpt lat="46.0616" lon="4.49565">
        <ele>414</ele>
        <time>2016-11-27T13:12:20.000Z</time>
      </trkpt>
      <trkpt lat="46.06162" lon="4.49561">
        <ele>414</ele>
        <time>2016-11-27T13:12:21.000Z</time>
      </trkpt>
      <trkpt lat="46.06164" lon="4.49557">
        <ele>414</ele>
        <time>2016-11-27T13:12:22.000Z</time>
      </trkpt>
      <trkpt lat="46.06165" lon="4.49554">
        <ele>414</ele>
        <time>2016-11-27T13:12:23.000Z</time>
      </trkpt>
      <trkpt lat="46.06167" lon="4.4955">
        <ele>413</ele>
        <time>2016-11-27T13:12:24.000Z</time>
      </trkpt>
      <trkpt lat="46.06169" lon="4.49546">
        <ele>413</ele>
        <time>2016-11-27T13:12:25.000Z</time>
      </trkpt>
      <trkpt lat="46.06171" lon="4.49541">
        <ele>412</ele>
        <time>2016-11-27T13:12:26.000Z</time>
      </trkpt>
      <trkpt lat="46.06174" lon="4.49535">
        <ele>411</ele>
        <time>2016-11-27T13:12:27.000Z</time>
      </trkpt>
      <trkpt lat="46.06176" lon="4.4953">
        <ele>410</ele>
        <time>2016-11-27T13:12:28.000Z</time>
      </trkpt>
      <trkpt lat="46.06178" lon="4.49526">
        <ele>409</ele>
        <time>2016-11-27T13:12:29.000Z</time>
      </trkpt>
      <trkpt lat="46.06181" lon="4.49521">
        <ele>408</ele>
        <time>2016-11-27T13:12:30.000Z</time>
      </trkpt>
      <trkpt lat="46.06183" lon="4.49518">
        <ele>407</ele>
        <time>2016-11-27T13:12:31.000Z</time>
      </trkpt>
      <trkpt lat="46.06186" lon="4.49516">
        <ele>406</ele>
        <time>2016-11-27T13:12:32.000Z</time>
      </trkpt>
      <trkpt lat="46.06188" lon="4.49515">
        <ele>407</ele>
        <time>2016-11-27T13:12:33.000Z</time>
      </trkpt>
      <trkpt lat="46.06189" lon="4.49514">
        <ele>408</ele>
        <time>2016-11-27T13:12:34.000Z</time>
      </trkpt>
      <trkpt lat="46.06189" lon="4.49513">
        <ele>408</ele>
        <time>2016-11-27T13:12:35.000Z</time>
      </trkpt>
      <trkpt lat="46.06189" lon="4.49513">
        <ele>408</ele>
        <time>2016-11-27T13:12:36.000Z</time>
      </trkpt>
      <trkpt lat="46.06189" lon="4.49513">
        <ele>407</ele>
        <time>2016-11-27T13:12:37.000Z</time>
      </trkpt>
      <trkpt lat="46.06189" lon="4.49512">
        <ele>407</ele>
        <time>2016-11-27T13:12:38.000Z</time>
      </trkpt>
      <trkpt lat="46.06188" lon="4.49511">
        <ele>408</ele>
        <time>2016-11-27T13:12:39.000Z</time>
      </trkpt>
      <trkpt lat="46.06188" lon="4.4951">
        <ele>408</ele>
        <time>2016-11-27T13:12:40.000Z</time>
      </trkpt>
      <trkpt lat="46.06187" lon="4.4951">
        <ele>408</ele>
        <time>2016-11-27T13:12:41.000Z</time>
      </trkpt>
      <trkpt lat="46.06187" lon="4.4951">
        <ele>409</ele>
        <time>2016-11-27T13:12:42.000Z</time>
      </trkpt>
      <trkpt lat="46.06186" lon="4.49509">
        <ele>409</ele>
        <time>2016-11-27T13:12:43.000Z</time>
      </trkpt>
      <trkpt lat="46.06185" lon="4.49509">
        <ele>409</ele>
        <time>2016-11-27T13:12:44.000Z</time>
      </trkpt>
      <trkpt lat="46.06184" lon="4.49509">
        <ele>409</ele>
        <time>2016-11-27T13:12:45.000Z</time>
      </trkpt>
      <trkpt lat="46.06183" lon="4.49508">
        <ele>410</ele>
        <time>2016-11-27T13:12:46.000Z</time>
      </trkpt>
      <trkpt lat="46.06182" lon="4.49506">
        <ele>410</ele>
        <time>2016-11-27T13:12:47.000Z</time>
      </trkpt>
      <trkpt lat="46.06181" lon="4.49504">
        <ele>411</ele>
        <time>2016-11-27T13:12:48.000Z</time>
      </trkpt>
      <trkpt lat="46.0618" lon="4.49502">
        <ele>411</ele>
        <time>2016-11-27T13:12:49.000Z</time>
      </trkpt>
      <trkpt lat="46.06178" lon="4.49499">
        <ele>411</ele>
        <time>2016-11-27T13:12:50.000Z</time>
      </trkpt>
      <trkpt lat="46.06177" lon="4.49496">
        <ele>411</ele>
        <time>2016-11-27T13:12:51.000Z</time>
      </trkpt>
      <trkpt lat="46.06176" lon="4.49493">
        <ele>412</ele>
        <time>2016-11-27T13:12:52.000Z</time>
      </trkpt>
      <trkpt lat="46.06175" lon="4.4949">
        <ele>413</ele>
        <time>2016-11-27T13:12:53.000Z</time>
      </trkpt>
      <trkpt lat="46.06175" lon="4.49486">
        <ele>413</ele>
        <time>2016-11-27T13:12:54.000Z</time>
      </trkpt>
      <trkpt lat="46.06175" lon="4.49483">
        <ele>413</ele>
        <time>2016-11-27T13:12:55.000Z</time>
      </trkpt>
      <trkpt lat="46.06175" lon="4.49479">
        <ele>413</ele>
        <time>2016-11-27T13:12:56.000Z</time>
      </trkpt>
      <trkpt lat="46.06175" lon="4.49475">
        <ele>413</ele>
        <time>2016-11-27T13:12:57.000Z</time>
      </trkpt>
      <trkpt lat="46.06175" lon="4.49471">
        <ele>413</ele>
        <time>2016-11-27T13:12:58.000Z</time>
      </trkpt>
      <trkpt lat="46.06176" lon="4.49467">
        <ele>413</ele>
        <time>2016-11-27T13:12:59.000Z</time>
      </trkpt>
      <trkpt lat="46.06176" lon="4.49463">
        <ele>413</ele>
        <time>2016-11-27T13:13:00.000Z</time>
      </trkpt>
      <trkpt lat="46.06176" lon="4.49459">
        <ele>412</ele>
        <time>2016-11-27T13:13:01.000Z</time>
      </trkpt>
      <trkpt lat="46.06177" lon="4.49455">
        <ele>411</ele>
        <time>2016-11-27T13:13:02.000Z</time>
      </trkpt>
      <trkpt lat="46.06177" lon="4.49451">
        <ele>411</ele>
        <time>2016-11-27T13:13:03.000Z</time>
      </trkpt>
      <trkpt lat="46.06178" lon="4.49448">
        <ele>411</ele>
        <time>2016-11-27T13:13:04.000Z</time>
      </trkpt>
      <trkpt lat="46.06178" lon="4.49444">
        <ele>410</ele>
        <time>2016-11-27T13:13:05.000Z</time>
      </trkpt>
      <trkpt lat="46.06179" lon="4.4944">
        <ele>410</ele>
        <time>2016-11-27T13:13:06.000Z</time>
      </trkpt>
      <trkpt lat="46.06179" lon="4.49436">
        <ele>410</ele>
        <time>2016-11-27T13:13:07.000Z</time>
      </trkpt>
      <trkpt lat="46.06179" lon="4.49432">
        <ele>409</ele>
        <time>2016-11-27T13:13:08.000Z</time>
      </trkpt>
      <trkpt lat="46.06179" lon="4.49428">
        <ele>409</ele>
        <time>2016-11-27T13:13:09.000Z</time>
      </trkpt>
      <trkpt lat="46.06179" lon="4.49424">
        <ele>409</ele>
        <time>2016-11-27T13:13:10.000Z</time>
      </trkpt>
      <trkpt lat="46.06179" lon="4.4942">
        <ele>409</ele>
        <time>2016-11-27T13:13:11.000Z</time>
      </trkpt>
      <trkpt lat="46.06178" lon="4.49416">
        <ele>408</ele>
        <time>2016-11-27T13:13:12.000Z</time>
      </trkpt>
      <trkpt lat="46.06178" lon="4.49412">
        <ele>408</ele>
        <time>2016-11-27T13:13:13.000Z</time>
      </trkpt>
      <trkpt lat="46.06178" lon="4.49408">
        <ele>408</ele>
        <time>2016-11-27T13:13:14.000Z</time>
      </trkpt>
      <trkpt lat="46.06178" lon="4.49403">
        <ele>408</ele>
        <time>2016-11-27T13:13:15.000Z</time>
      </trkpt>
      <trkpt lat="46.06178" lon="4.49399">
        <ele>408</ele>
        <time>2016-11-27T13:13:16.000Z</time>
      </trkpt>
      <trkpt lat="46.06178" lon="4.49395">
        <ele>407</ele>
        <time>2016-11-27T13:13:17.000Z</time>
      </trkpt>
      <trkpt lat="46.06178" lon="4.4939">
        <ele>407</ele>
        <time>2016-11-27T13:13:18.000Z</time>
      </trkpt>
      <trkpt lat="46.06179" lon="4.49386">
        <ele>406</ele>
        <time>2016-11-27T13:13:19.000Z</time>
      </trkpt>
      <trkpt lat="46.0618" lon="4.49382">
        <ele>406</ele>
        <time>2016-11-27T13:13:20.000Z</time>
      </trkpt>
      <trkpt lat="46.06181" lon="4.49378">
        <ele>406</ele>
        <time>2016-11-27T13:13:21.000Z</time>
      </trkpt>
      <trkpt lat="46.06182" lon="4.49373">
        <ele>405</ele>
        <time>2016-11-27T13:13:22.000Z</time>
      </trkpt>
      <trkpt lat="46.06183" lon="4.49369">
        <ele>404</ele>
        <time>2016-11-27T13:13:23.000Z</time>
      </trkpt>
      <trkpt lat="46.06185" lon="4.49365">
        <ele>404</ele>
        <time>2016-11-27T13:13:24.000Z</time>
      </trkpt>
      <trkpt lat="46.06186" lon="4.49361">
        <ele>403</ele>
        <time>2016-11-27T13:13:25.000Z</time>
      </trkpt>
      <trkpt lat="46.06187" lon="4.49357">
        <ele>402</ele>
        <time>2016-11-27T13:13:26.000Z</time>
      </trkpt>
      <trkpt lat="46.06188" lon="4.49353">
        <ele>401</ele>
        <time>2016-11-27T13:13:27.000Z</time>
      </trkpt>
      <trkpt lat="46.06189" lon="4.49349">
        <ele>401</ele>
        <time>2016-11-27T13:13:28.000Z</time>
      </trkpt>
      <trkpt lat="46.0619" lon="4.49345">
        <ele>401</ele>
        <time>2016-11-27T13:13:29.000Z</time>
      </trkpt>
      <trkpt lat="46.06191" lon="4.49342">
        <ele>401</ele>
        <time>2016-11-27T13:13:30.000Z</time>
      </trkpt>
      <trkpt lat="46.06192" lon="4.49338">
        <ele>402</ele>
        <time>2016-11-27T13:13:31.000Z</time>
      </trkpt>
      <trkpt lat="46.06192" lon="4.49334">
        <ele>401</ele>
        <time>2016-11-27T13:13:32.000Z</time>
      </trkpt>
      <trkpt lat="46.06192" lon="4.49329">
        <ele>400</ele>
        <time>2016-11-27T13:13:33.000Z</time>
      </trkpt>
      <trkpt lat="46.0619" lon="4.49326">
        <ele>399</ele>
        <time>2016-11-27T13:13:34.000Z</time>
      </trkpt>
      <trkpt lat="46.0619" lon="4.49322">
        <ele>399</ele>
        <time>2016-11-27T13:13:35.000Z</time>
      </trkpt>
      <trkpt lat="46.06188" lon="4.49319">
        <ele>399</ele>
        <time>2016-11-27T13:13:36.000Z</time>
      </trkpt>
      <trkpt lat="46.06187" lon="4.49315">
        <ele>399</ele>
        <time>2016-11-27T13:13:37.000Z</time>
      </trkpt>
      <trkpt lat="46.06186" lon="4.49312">
        <ele>398</ele>
        <time>2016-11-27T13:13:38.000Z</time>
      </trkpt>
      <trkpt lat="46.06186" lon="4.49309">
        <ele>398</ele>
        <time>2016-11-27T13:13:39.000Z</time>
      </trkpt>
      <trkpt lat="46.06187" lon="4.49305">
        <ele>397</ele>
        <time>2016-11-27T13:13:40.000Z</time>
      </trkpt>
      <trkpt lat="46.06187" lon="4.49301">
        <ele>396</ele>
        <time>2016-11-27T13:13:41.000Z</time>
      </trkpt>
      <trkpt lat="46.06188" lon="4.49297">
        <ele>396</ele>
        <time>2016-11-27T13:13:42.000Z</time>
      </trkpt>
      <trkpt lat="46.06189" lon="4.49293">
        <ele>396</ele>
        <time>2016-11-27T13:13:43.000Z</time>
      </trkpt>
      <trkpt lat="46.0619" lon="4.49289">
        <ele>396</ele>
        <time>2016-11-27T13:13:44.000Z</time>
      </trkpt>
      <trkpt lat="46.06192" lon="4.49285">
        <ele>396</ele>
        <time>2016-11-27T13:13:45.000Z</time>
      </trkpt>
      <trkpt lat="46.06193" lon="4.49281">
        <ele>395</ele>
        <time>2016-11-27T13:13:46.000Z</time>
      </trkpt>
      <trkpt lat="46.06195" lon="4.49279">
        <ele>394</ele>
        <time>2016-11-27T13:13:47.000Z</time>
      </trkpt>
      <trkpt lat="46.06198" lon="4.49278">
        <ele>394</ele>
        <time>2016-11-27T13:13:48.000Z</time>
      </trkpt>
      <trkpt lat="46.062" lon="4.49277">
        <ele>393</ele>
        <time>2016-11-27T13:13:49.000Z</time>
      </trkpt>
      <trkpt lat="46.06202" lon="4.49275">
        <ele>393</ele>
        <time>2016-11-27T13:13:50.000Z</time>
      </trkpt>
      <trkpt lat="46.06204" lon="4.49275">
        <ele>393</ele>
        <time>2016-11-27T13:13:51.000Z</time>
      </trkpt>
      <trkpt lat="46.06207" lon="4.49275">
        <ele>393</ele>
        <time>2016-11-27T13:13:52.000Z</time>
      </trkpt>
      <trkpt lat="46.06209" lon="4.49276">
        <ele>393</ele>
        <time>2016-11-27T13:13:53.000Z</time>
      </trkpt>
      <trkpt lat="46.06211" lon="4.49277">
        <ele>393</ele>
        <time>2016-11-27T13:13:54.000Z</time>
      </trkpt>
      <trkpt lat="46.06213" lon="4.49279">
        <ele>393</ele>
        <time>2016-11-27T13:13:55.000Z</time>
      </trkpt>
      <trkpt lat="46.06215" lon="4.4928">
        <ele>392</ele>
        <time>2016-11-27T13:13:56.000Z</time>
      </trkpt>
      <trkpt lat="46.06216" lon="4.49282">
        <ele>392</ele>
        <time>2016-11-27T13:13:57.000Z</time>
      </trkpt>
      <trkpt lat="46.06218" lon="4.49284">
        <ele>393</ele>
        <time>2016-11-27T13:13:58.000Z</time>
      </trkpt>
      <trkpt lat="46.06219" lon="4.49286">
        <ele>392</ele>
        <time>2016-11-27T13:13:59.000Z</time>
      </trkpt>
      <trkpt lat="46.06221" lon="4.49289">
        <ele>392</ele>
        <time>2016-11-27T13:14:00.000Z</time>
      </trkpt>
      <trkpt lat="46.06223" lon="4.49292">
        <ele>392</ele>
        <time>2016-11-27T13:14:01.000Z</time>
      </trkpt>
      <trkpt lat="46.06225" lon="4.49295">
        <ele>392</ele>
        <time>2016-11-27T13:14:02.000Z</time>
      </trkpt>
      <trkpt lat="46.06227" lon="4.49298">
        <ele>391</ele>
        <time>2016-11-27T13:14:03.000Z</time>
      </trkpt>
      <trkpt lat="46.06229" lon="4.49301">
        <ele>391</ele>
        <time>2016-11-27T13:14:04.000Z</time>
      </trkpt>
      <trkpt lat="46.06231" lon="4.49304">
        <ele>391</ele>
        <time>2016-11-27T13:14:05.000Z</time>
      </trkpt>
      <trkpt lat="46.06233" lon="4.49307">
        <ele>390</ele>
        <time>2016-11-27T13:14:06.000Z</time>
      </trkpt>
      <trkpt lat="46.06235" lon="4.4931">
        <ele>390</ele>
        <time>2016-11-27T13:14:07.000Z</time>
      </trkpt>
      <trkpt lat="46.06237" lon="4.49313">
        <ele>390</ele>
        <time>2016-11-27T13:14:08.000Z</time>
      </trkpt>
      <trkpt lat="46.06239" lon="4.49316">
        <ele>390</ele>
        <time>2016-11-27T13:14:09.000Z</time>
      </trkpt>
      <trkpt lat="46.06241" lon="4.49318">
        <ele>389</ele>
        <time>2016-11-27T13:14:10.000Z</time>
      </trkpt>
      <trkpt lat="46.06244" lon="4.4932">
        <ele>388</ele>
        <time>2016-11-27T13:14:11.000Z</time>
      </trkpt>
      <trkpt lat="46.06247" lon="4.49321">
        <ele>387</ele>
        <time>2016-11-27T13:14:12.000Z</time>
      </trkpt>
      <trkpt lat="46.0625" lon="4.49321">
        <ele>389</ele>
        <time>2016-11-27T13:14:13.000Z</time>
      </trkpt>
      <trkpt lat="46.06253" lon="4.49319">
        <ele>389</ele>
        <time>2016-11-27T13:14:14.000Z</time>
      </trkpt>
      <trkpt lat="46.06255" lon="4.49317">
        <ele>389</ele>
        <time>2016-11-27T13:14:15.000Z</time>
      </trkpt>
      <trkpt lat="46.06256" lon="4.49313">
        <ele>388</ele>
        <time>2016-11-27T13:14:16.000Z</time>
      </trkpt>
      <trkpt lat="46.06257" lon="4.49309">
        <ele>387</ele>
        <time>2016-11-27T13:14:17.000Z</time>
      </trkpt>
      <trkpt lat="46.06257" lon="4.49305">
        <ele>386</ele>
        <time>2016-11-27T13:14:18.000Z</time>
      </trkpt>
      <trkpt lat="46.06258" lon="4.49301">
        <ele>386</ele>
        <time>2016-11-27T13:14:19.000Z</time>
      </trkpt>
      <trkpt lat="46.06259" lon="4.49297">
        <ele>385</ele>
        <time>2016-11-27T13:14:20.000Z</time>
      </trkpt>
      <trkpt lat="46.0626" lon="4.49292">
        <ele>386</ele>
        <time>2016-11-27T13:14:21.000Z</time>
      </trkpt>
      <trkpt lat="46.0626" lon="4.49287">
        <ele>386</ele>
        <time>2016-11-27T13:14:22.000Z</time>
      </trkpt>
      <trkpt lat="46.06259" lon="4.49283">
        <ele>386</ele>
        <time>2016-11-27T13:14:23.000Z</time>
      </trkpt>
      <trkpt lat="46.06258" lon="4.49279">
        <ele>385</ele>
        <time>2016-11-27T13:14:24.000Z</time>
      </trkpt>
      <trkpt lat="46.06257" lon="4.49276">
        <ele>385</ele>
        <time>2016-11-27T13:14:25.000Z</time>
      </trkpt>
      <trkpt lat="46.06255" lon="4.49273">
        <ele>385</ele>
        <time>2016-11-27T13:14:26.000Z</time>
      </trkpt>
      <trkpt lat="46.06252" lon="4.49271">
        <ele>385</ele>
        <time>2016-11-27T13:14:27.000Z</time>
      </trkpt>
      <trkpt lat="46.06249" lon="4.49269">
        <ele>385</ele>
        <time>2016-11-27T13:14:28.000Z</time>
      </trkpt>
      <trkpt lat="46.06246" lon="4.49266">
        <ele>385</ele>
        <time>2016-11-27T13:14:29.000Z</time>
      </trkpt>
      <trkpt lat="46.06243" lon="4.49264">
        <ele>385</ele>
        <time>2016-11-27T13:14:30.000Z</time>
      </trkpt>
      <trkpt lat="46.0624" lon="4.49262">
        <ele>384</ele>
        <time>2016-11-27T13:14:31.000Z</time>
      </trkpt>
      <trkpt lat="46.06237" lon="4.49261">
        <ele>384</ele>
        <time>2016-11-27T13:14:32.000Z</time>
      </trkpt>
      <trkpt lat="46.06234" lon="4.49259">
        <ele>384</ele>
        <time>2016-11-27T13:14:33.000Z</time>
      </trkpt>
      <trkpt lat="46.06232" lon="4.49258">
        <ele>384</ele>
        <time>2016-11-27T13:14:34.000Z</time>
      </trkpt>
      <trkpt lat="46.06229" lon="4.49256">
        <ele>383</ele>
        <time>2016-11-27T13:14:35.000Z</time>
      </trkpt>
      <trkpt lat="46.06228" lon="4.49255">
        <ele>383</ele>
        <time>2016-11-27T13:14:36.000Z</time>
      </trkpt>
      <trkpt lat="46.06226" lon="4.49255">
        <ele>384</ele>
        <time>2016-11-27T13:14:37.000Z</time>
      </trkpt>
      <trkpt lat="46.06225" lon="4.49256">
        <ele>383</ele>
        <time>2016-11-27T13:14:38.000Z</time>
      </trkpt>
      <trkpt lat="46.06225" lon="4.49257">
        <ele>383</ele>
        <time>2016-11-27T13:14:39.000Z</time>
      </trkpt>
      <trkpt lat="46.06224" lon="4.49258">
        <ele>383</ele>
        <time>2016-11-27T13:14:40.000Z</time>
      </trkpt>
      <trkpt lat="46.06223" lon="4.49258">
        <ele>384</ele>
        <time>2016-11-27T13:14:41.000Z</time>
      </trkpt>
      <trkpt lat="46.06222" lon="4.49258">
        <ele>384</ele>
        <time>2016-11-27T13:14:42.000Z</time>
      </trkpt>
      <trkpt lat="46.0622" lon="4.49258">
        <ele>386</ele>
        <time>2016-11-27T13:14:43.000Z</time>
      </trkpt>
      <trkpt lat="46.06219" lon="4.49257">
        <ele>386</ele>
        <time>2016-11-27T13:14:44.000Z</time>
      </trkpt>
      <trkpt lat="46.06217" lon="4.49257">
        <ele>387</ele>
        <time>2016-11-27T13:14:45.000Z</time>
      </trkpt>
      <trkpt lat="46.06216" lon="4.49258">
        <ele>387</ele>
        <time>2016-11-27T13:14:46.000Z</time>
      </trkpt>
      <trkpt lat="46.06216" lon="4.49258">
        <ele>387</ele>
        <time>2016-11-27T13:14:47.000Z</time>
      </trkpt>
      <trkpt lat="46.06215" lon="4.49259">
        <ele>388</ele>
        <time>2016-11-27T13:14:48.000Z</time>
      </trkpt>
      <trkpt lat="46.06214" lon="4.49261">
        <ele>388</ele>
        <time>2016-11-27T13:14:49.000Z</time>
      </trkpt>
      <trkpt lat="46.06213" lon="4.49263">
        <ele>389</ele>
        <time>2016-11-27T13:14:50.000Z</time>
      </trkpt>
      <trkpt lat="46.06212" lon="4.49265">
        <ele>389</ele>
        <time>2016-11-27T13:14:51.000Z</time>
      </trkpt>
      <trkpt lat="46.06211" lon="4.49266">
        <ele>390</ele>
        <time>2016-11-27T13:14:52.000Z</time>
      </trkpt>
      <trkpt lat="46.0621" lon="4.49268">
        <ele>391</ele>
        <time>2016-11-27T13:14:53.000Z</time>
      </trkpt>
      <trkpt lat="46.0621" lon="4.49269">
        <ele>392</ele>
        <time>2016-11-27T13:14:54.000Z</time>
      </trkpt>
      <trkpt lat="46.0621" lon="4.4927">
        <ele>391</ele>
        <time>2016-11-27T13:14:55.000Z</time>
      </trkpt>
      <trkpt lat="46.0621" lon="4.4927">
        <ele>391</ele>
        <time>2016-11-27T13:14:56.000Z</time>
      </trkpt>
      <trkpt lat="46.0621" lon="4.49269">
        <ele>392</ele>
        <time>2016-11-27T13:14:57.000Z</time>
      </trkpt>
      <trkpt lat="46.0621" lon="4.49267">
        <ele>392</ele>
        <time>2016-11-27T13:14:58.000Z</time>
      </trkpt>
      <trkpt lat="46.06211" lon="4.49265">
        <ele>392</ele>
        <time>2016-11-27T13:14:59.000Z</time>
      </trkpt>
      <trkpt lat="46.06211" lon="4.49263">
        <ele>392</ele>
        <time>2016-11-27T13:15:00.000Z</time>
      </trkpt>
      <trkpt lat="46.06212" lon="4.49261">
        <ele>392</ele>
        <time>2016-11-27T13:15:01.000Z</time>
      </trkpt>
      <trkpt lat="46.06212" lon="4.49259">
        <ele>392</ele>
        <time>2016-11-27T13:15:02.000Z</time>
      </trkpt>
      <trkpt lat="46.06213" lon="4.49257">
        <ele>391</ele>
        <time>2016-11-27T13:15:03.000Z</time>
      </trkpt>
      <trkpt lat="46.06214" lon="4.49257">
        <ele>391</ele>
        <time>2016-11-27T13:15:04.000Z</time>
      </trkpt>
      <trkpt lat="46.06215" lon="4.49257">
        <ele>390</ele>
        <time>2016-11-27T13:15:05.000Z</time>
      </trkpt>
      <trkpt lat="46.06216" lon="4.49257">
        <ele>390</ele>
        <time>2016-11-27T13:15:06.000Z</time>
      </trkpt>
      <trkpt lat="46.06217" lon="4.49258">
        <ele>390</ele>
        <time>2016-11-27T13:15:07.000Z</time>
      </trkpt>
      <trkpt lat="46.06219" lon="4.49258">
        <ele>389</ele>
        <time>2016-11-27T13:15:08.000Z</time>
      </trkpt>
      <trkpt lat="46.0622" lon="4.49259">
        <ele>388</ele>
        <time>2016-11-27T13:15:09.000Z</time>
      </trkpt>
      <trkpt lat="46.06221" lon="4.49259">
        <ele>388</ele>
        <time>2016-11-27T13:15:10.000Z</time>
      </trkpt>
      <trkpt lat="46.06221" lon="4.49259">
        <ele>387</ele>
        <time>2016-11-27T13:15:11.000Z</time>
      </trkpt>
      <trkpt lat="46.06222" lon="4.49259">
        <ele>386</ele>
        <time>2016-11-27T13:15:12.000Z</time>
      </trkpt>
      <trkpt lat="46.06221" lon="4.49257">
        <ele>384</ele>
        <time>2016-11-27T13:15:13.000Z</time>
      </trkpt>
      <trkpt lat="46.0622" lon="4.49256">
        <ele>384</ele>
        <time>2016-11-27T13:15:14.000Z</time>
      </trkpt>
      <trkpt lat="46.06219" lon="4.49255">
        <ele>383</ele>
        <time>2016-11-27T13:15:15.000Z</time>
      </trkpt>
      <trkpt lat="46.06218" lon="4.49255">
        <ele>382</ele>
        <time>2016-11-27T13:15:16.000Z</time>
      </trkpt>
      <trkpt lat="46.06216" lon="4.49254">
        <ele>382</ele>
        <time>2016-11-27T13:15:17.000Z</time>
      </trkpt>
      <trkpt lat="46.06214" lon="4.49252">
        <ele>382</ele>
        <time>2016-11-27T13:15:18.000Z</time>
      </trkpt>
      <trkpt lat="46.06211" lon="4.49251">
        <ele>382</ele>
        <time>2016-11-27T13:15:19.000Z</time>
      </trkpt>
      <trkpt lat="46.06208" lon="4.49249">
        <ele>383</ele>
        <time>2016-11-27T13:15:20.000Z</time>
      </trkpt>
      <trkpt lat="46.06204" lon="4.49248">
        <ele>384</ele>
        <time>2016-11-27T13:15:21.000Z</time>
      </trkpt>
      <trkpt lat="46.06201" lon="4.49246">
        <ele>385</ele>
        <time>2016-11-27T13:15:22.000Z</time>
      </trkpt>
      <trkpt lat="46.06198" lon="4.49245">
        <ele>386</ele>
        <time>2016-11-27T13:15:23.000Z</time>
      </trkpt>
      <trkpt lat="46.06195" lon="4.49243">
        <ele>387</ele>
        <time>2016-11-27T13:15:24.000Z</time>
      </trkpt>
      <trkpt lat="46.06192" lon="4.49241">
        <ele>387</ele>
        <time>2016-11-27T13:15:25.000Z</time>
      </trkpt>
      <trkpt lat="46.06189" lon="4.49239">
        <ele>387</ele>
        <time>2016-11-27T13:15:26.000Z</time>
      </trkpt>
      <trkpt lat="46.06186" lon="4.49236">
        <ele>387</ele>
        <time>2016-11-27T13:15:27.000Z</time>
      </trkpt>
      <trkpt lat="46.06183" lon="4.49233">
        <ele>387</ele>
        <time>2016-11-27T13:15:28.000Z</time>
      </trkpt>
      <trkpt lat="46.06181" lon="4.49231">
        <ele>387</ele>
        <time>2016-11-27T13:15:29.000Z</time>
      </trkpt>
      <trkpt lat="46.06178" lon="4.49228">
        <ele>388</ele>
        <time>2016-11-27T13:15:30.000Z</time>
      </trkpt>
      <trkpt lat="46.06175" lon="4.49226">
        <ele>388</ele>
        <time>2016-11-27T13:15:31.000Z</time>
      </trkpt>
      <trkpt lat="46.06172" lon="4.49223">
        <ele>388</ele>
        <time>2016-11-27T13:15:32.000Z</time>
      </trkpt>
      <trkpt lat="46.0617" lon="4.49221">
        <ele>388</ele>
        <time>2016-11-27T13:15:33.000Z</time>
      </trkpt>
      <trkpt lat="46.06167" lon="4.49218">
        <ele>388</ele>
        <time>2016-11-27T13:15:34.000Z</time>
      </trkpt>
      <trkpt lat="46.06164" lon="4.49215">
        <ele>388</ele>
        <time>2016-11-27T13:15:35.000Z</time>
      </trkpt>
      <trkpt lat="46.06161" lon="4.49212">
        <ele>388</ele>
        <time>2016-11-27T13:15:36.000Z</time>
      </trkpt>
      <trkpt lat="46.06159" lon="4.49209">
        <ele>388</ele>
        <time>2016-11-27T13:15:37.000Z</time>
      </trkpt>
      <trkpt lat="46.06157" lon="4.49206">
        <ele>387</ele>
        <time>2016-11-27T13:15:38.000Z</time>
      </trkpt>
      <trkpt lat="46.06154" lon="4.49202">
        <ele>388</ele>
        <time>2016-11-27T13:15:39.000Z</time>
      </trkpt>
      <trkpt lat="46.06152" lon="4.49199">
        <ele>388</ele>
        <time>2016-11-27T13:15:40.000Z</time>
      </trkpt>
      <trkpt lat="46.06151" lon="4.49195">
        <ele>387</ele>
        <time>2016-11-27T13:15:41.000Z</time>
      </trkpt>
      <trkpt lat="46.06149" lon="4.49191">
        <ele>387</ele>
        <time>2016-11-27T13:15:42.000Z</time>
      </trkpt>
      <trkpt lat="46.06148" lon="4.49187">
        <ele>388</ele>
        <time>2016-11-27T13:15:43.000Z</time>
      </trkpt>
      <trkpt lat="46.06147" lon="4.49183">
        <ele>388</ele>
        <time>2016-11-27T13:15:44.000Z</time>
      </trkpt>
      <trkpt lat="46.06146" lon="4.4918">
        <ele>388</ele>
        <time>2016-11-27T13:15:45.000Z</time>
      </trkpt>
      <trkpt lat="46.06146" lon="4.49177">
        <ele>387</ele>
        <time>2016-11-27T13:15:46.000Z</time>
      </trkpt>
      <trkpt lat="46.06146" lon="4.49175">
        <ele>387</ele>
        <time>2016-11-27T13:15:47.000Z</time>
      </trkpt>
      <trkpt lat="46.06146" lon="4.49173">
        <ele>387</ele>
        <time>2016-11-27T13:15:48.000Z</time>
      </trkpt>
      <trkpt lat="46.06145" lon="4.49172">
        <ele>387</ele>
        <time>2016-11-27T13:15:49.000Z</time>
      </trkpt>
      <trkpt lat="46.06145" lon="4.49171">
        <ele>387</ele>
        <time>2016-11-27T13:15:50.000Z</time>
      </trkpt>
      <trkpt lat="46.06145" lon="4.49171">
        <ele>387</ele>
        <time>2016-11-27T13:15:51.000Z</time>
      </trkpt>
      <trkpt lat="46.06145" lon="4.49171">
        <ele>387</ele>
        <time>2016-11-27T13:15:52.000Z</time>
      </trkpt>
      <trkpt lat="46.06145" lon="4.49171">
        <ele>387</ele>
        <time>2016-11-27T13:15:53.000Z</time>
      </trkpt>
    </trkseg>
  </trk>
</gpx>